<?xml version="1.0" encoding="UTF-8" standalone="no" ?>
<gpx xmlns="http://www.topografix.com/GPX/1/1" xmlns:xsi="http://www.w3.org/2001/XMLSchema-instance" xsi:schemaLocation="http://www.topografix.com/GPX/1/1 http://www.topografix.com/GPX/1/1/gpx.xsd" version="1.1" creator="VisuGPX - https://www.visugpx.com">
  <metadata>
    <name>2019-Étape 1 - Maison&amp;gt;Mondardier - belle dernière montée</name>
  </metadata>
  <trk>
    <name><![CDATA[Étape 1 - Maison>Mondardier - belle dernière montée]]></name>
    <trkseg>
      <trkpt lat="43.94995" lon="4.89925">
        <ele>27.6</ele>
        <time>2019-07-10T05:47:53Z</time>
      </trkpt>
      <trkpt lat="43.94995" lon="4.89921">
        <ele>30.2</ele>
        <time>2019-07-10T05:47:54Z</time>
      </trkpt>
      <trkpt lat="43.94994" lon="4.89913">
        <ele>31.2</ele>
        <time>2019-07-10T05:47:56Z</time>
      </trkpt>
      <trkpt lat="43.94991" lon="4.89893">
        <ele>31</ele>
        <time>2019-07-10T05:48:02Z</time>
      </trkpt>
      <trkpt lat="43.94982" lon="4.89889">
        <ele>31</ele>
        <time>2019-07-10T05:48:07Z</time>
      </trkpt>
      <trkpt lat="43.94982" lon="4.89889">
        <ele>30.8</ele>
        <time>2019-07-10T05:48:09Z</time>
      </trkpt>
      <trkpt lat="43.94979" lon="4.89891">
        <ele>30.4</ele>
        <time>2019-07-10T05:48:21Z</time>
      </trkpt>
      <trkpt lat="43.94977" lon="4.89891">
        <ele>30.4</ele>
        <time>2019-07-10T05:48:22Z</time>
      </trkpt>
      <trkpt lat="43.94962" lon="4.89896">
        <ele>30.6</ele>
        <time>2019-07-10T05:48:27Z</time>
      </trkpt>
      <trkpt lat="43.94944" lon="4.89901">
        <ele>31</ele>
        <time>2019-07-10T05:48:32Z</time>
      </trkpt>
      <trkpt lat="43.94933" lon="4.89904">
        <ele>31</ele>
        <time>2019-07-10T05:48:35Z</time>
      </trkpt>
      <trkpt lat="43.94913" lon="4.89908">
        <ele>31</ele>
        <time>2019-07-10T05:48:41Z</time>
      </trkpt>
      <trkpt lat="43.94905" lon="4.89902">
        <ele>31.2</ele>
        <time>2019-07-10T05:48:44Z</time>
      </trkpt>
      <trkpt lat="43.94904" lon="4.89898">
        <ele>31</ele>
        <time>2019-07-10T05:48:45Z</time>
      </trkpt>
      <trkpt lat="43.94904" lon="4.89878">
        <ele>31.4</ele>
        <time>2019-07-10T05:48:49Z</time>
      </trkpt>
      <trkpt lat="43.94905" lon="4.89871">
        <ele>31.6</ele>
        <time>2019-07-10T05:48:50Z</time>
      </trkpt>
      <trkpt lat="43.94905" lon="4.89832">
        <ele>32.2</ele>
        <time>2019-07-10T05:48:56Z</time>
      </trkpt>
      <trkpt lat="43.94907" lon="4.8979">
        <ele>32</ele>
        <time>2019-07-10T05:49:02Z</time>
      </trkpt>
      <trkpt lat="43.94908" lon="4.89782">
        <ele>32</ele>
        <time>2019-07-10T05:49:03Z</time>
      </trkpt>
      <trkpt lat="43.94909" lon="4.89768">
        <ele>32</ele>
        <time>2019-07-10T05:49:05Z</time>
      </trkpt>
      <trkpt lat="43.94912" lon="4.89723">
        <ele>32</ele>
        <time>2019-07-10T05:49:12Z</time>
      </trkpt>
      <trkpt lat="43.94913" lon="4.89716">
        <ele>32</ele>
        <time>2019-07-10T05:49:13Z</time>
      </trkpt>
      <trkpt lat="43.94917" lon="4.89644">
        <ele>31.8</ele>
        <time>2019-07-10T05:49:23Z</time>
      </trkpt>
      <trkpt lat="43.94918" lon="4.89631">
        <ele>31.8</ele>
        <time>2019-07-10T05:49:25Z</time>
      </trkpt>
      <trkpt lat="43.9492" lon="4.89619">
        <ele>31.8</ele>
        <time>2019-07-10T05:49:27Z</time>
      </trkpt>
      <trkpt lat="43.94921" lon="4.89613">
        <ele>31.8</ele>
        <time>2019-07-10T05:49:28Z</time>
      </trkpt>
      <trkpt lat="43.94925" lon="4.89566">
        <ele>31.4</ele>
        <time>2019-07-10T05:49:36Z</time>
      </trkpt>
      <trkpt lat="43.94926" lon="4.89553">
        <ele>31.4</ele>
        <time>2019-07-10T05:49:38Z</time>
      </trkpt>
      <trkpt lat="43.94928" lon="4.89536">
        <ele>31.4</ele>
        <time>2019-07-10T05:49:41Z</time>
      </trkpt>
      <trkpt lat="43.94928" lon="4.89531">
        <ele>31.4</ele>
        <time>2019-07-10T05:49:42Z</time>
      </trkpt>
      <trkpt lat="43.94931" lon="4.89476">
        <ele>31.6</ele>
        <time>2019-07-10T05:49:50Z</time>
      </trkpt>
      <trkpt lat="43.94933" lon="4.89448">
        <ele>31.6</ele>
        <time>2019-07-10T05:49:54Z</time>
      </trkpt>
      <trkpt lat="43.94935" lon="4.89423">
        <ele>31.8</ele>
        <time>2019-07-10T05:49:58Z</time>
      </trkpt>
      <trkpt lat="43.94935" lon="4.89414">
        <ele>32</ele>
        <time>2019-07-10T05:49:59Z</time>
      </trkpt>
      <trkpt lat="43.94936" lon="4.89408">
        <ele>32</ele>
        <time>2019-07-10T05:50:00Z</time>
      </trkpt>
      <trkpt lat="43.94938" lon="4.89375">
        <ele>32.2</ele>
        <time>2019-07-10T05:50:05Z</time>
      </trkpt>
      <trkpt lat="43.9494" lon="4.8935">
        <ele>32</ele>
        <time>2019-07-10T05:50:09Z</time>
      </trkpt>
      <trkpt lat="43.94941" lon="4.89319">
        <ele>31.8</ele>
        <time>2019-07-10T05:50:14Z</time>
      </trkpt>
      <trkpt lat="43.94941" lon="4.89311">
        <ele>31.6</ele>
        <time>2019-07-10T05:50:15Z</time>
      </trkpt>
      <trkpt lat="43.94943" lon="4.89266">
        <ele>31.4</ele>
        <time>2019-07-10T05:50:22Z</time>
      </trkpt>
      <trkpt lat="43.94944" lon="4.89254">
        <ele>31.4</ele>
        <time>2019-07-10T05:50:24Z</time>
      </trkpt>
      <trkpt lat="43.94945" lon="4.89232">
        <ele>31.6</ele>
        <time>2019-07-10T05:50:27Z</time>
      </trkpt>
      <trkpt lat="43.94946" lon="4.89206">
        <ele>31.6</ele>
        <time>2019-07-10T05:50:31Z</time>
      </trkpt>
      <trkpt lat="43.94947" lon="4.89166">
        <ele>31.2</ele>
        <time>2019-07-10T05:50:37Z</time>
      </trkpt>
      <trkpt lat="43.94947" lon="4.8916">
        <ele>31.2</ele>
        <time>2019-07-10T05:50:38Z</time>
      </trkpt>
      <trkpt lat="43.94952" lon="4.89099">
        <ele>31.6</ele>
        <time>2019-07-10T05:50:47Z</time>
      </trkpt>
      <trkpt lat="43.94954" lon="4.89057">
        <ele>31.4</ele>
        <time>2019-07-10T05:50:53Z</time>
      </trkpt>
      <trkpt lat="43.94955" lon="4.8905">
        <ele>31.4</ele>
        <time>2019-07-10T05:50:54Z</time>
      </trkpt>
      <trkpt lat="43.94957" lon="4.89003">
        <ele>31.2</ele>
        <time>2019-07-10T05:51:01Z</time>
      </trkpt>
      <trkpt lat="43.94958" lon="4.88982">
        <ele>31.4</ele>
        <time>2019-07-10T05:51:04Z</time>
      </trkpt>
      <trkpt lat="43.9496" lon="4.88945">
        <ele>31.2</ele>
        <time>2019-07-10T05:51:10Z</time>
      </trkpt>
      <trkpt lat="43.9496" lon="4.88939">
        <ele>31.2</ele>
        <time>2019-07-10T05:51:11Z</time>
      </trkpt>
      <trkpt lat="43.94963" lon="4.88886">
        <ele>32.4</ele>
        <time>2019-07-10T05:51:20Z</time>
      </trkpt>
      <trkpt lat="43.94964" lon="4.8888">
        <ele>32.4</ele>
        <time>2019-07-10T05:51:21Z</time>
      </trkpt>
      <trkpt lat="43.94965" lon="4.88869">
        <ele>32.4</ele>
        <time>2019-07-10T05:51:23Z</time>
      </trkpt>
      <trkpt lat="43.94965" lon="4.88864">
        <ele>32.4</ele>
        <time>2019-07-10T05:51:24Z</time>
      </trkpt>
      <trkpt lat="43.94965" lon="4.88859">
        <ele>32.4</ele>
        <time>2019-07-10T05:51:25Z</time>
      </trkpt>
      <trkpt lat="43.94967" lon="4.8885">
        <ele>32.6</ele>
        <time>2019-07-10T05:51:27Z</time>
      </trkpt>
      <trkpt lat="43.94981" lon="4.88838">
        <ele>32.6</ele>
        <time>2019-07-10T05:51:31Z</time>
      </trkpt>
      <trkpt lat="43.94985" lon="4.88835">
        <ele>32.4</ele>
        <time>2019-07-10T05:51:32Z</time>
      </trkpt>
      <trkpt lat="43.94993" lon="4.88826">
        <ele>32.6</ele>
        <time>2019-07-10T05:51:34Z</time>
      </trkpt>
      <trkpt lat="43.94996" lon="4.88821">
        <ele>32.4</ele>
        <time>2019-07-10T05:51:35Z</time>
      </trkpt>
      <trkpt lat="43.95022" lon="4.88779">
        <ele>31.4</ele>
        <time>2019-07-10T05:51:44Z</time>
      </trkpt>
      <trkpt lat="43.95025" lon="4.88774">
        <ele>31.4</ele>
        <time>2019-07-10T05:51:45Z</time>
      </trkpt>
      <trkpt lat="43.95055" lon="4.88728">
        <ele>32</ele>
        <time>2019-07-10T05:51:55Z</time>
      </trkpt>
      <trkpt lat="43.95079" lon="4.88694">
        <ele>32.2</ele>
        <time>2019-07-10T05:52:03Z</time>
      </trkpt>
      <trkpt lat="43.95082" lon="4.8869">
        <ele>32.2</ele>
        <time>2019-07-10T05:52:04Z</time>
      </trkpt>
      <trkpt lat="43.95085" lon="4.88687">
        <ele>32</ele>
        <time>2019-07-10T05:52:05Z</time>
      </trkpt>
      <trkpt lat="43.95089" lon="4.88686">
        <ele>31.8</ele>
        <time>2019-07-10T05:52:07Z</time>
      </trkpt>
      <trkpt lat="43.9509" lon="4.88685">
        <ele>31.4</ele>
        <time>2019-07-10T05:52:10Z</time>
      </trkpt>
      <trkpt lat="43.95093" lon="4.88682">
        <ele>30.8</ele>
        <time>2019-07-10T05:53:27Z</time>
      </trkpt>
      <trkpt lat="43.95099" lon="4.88668">
        <ele>30.8</ele>
        <time>2019-07-10T05:53:31Z</time>
      </trkpt>
      <trkpt lat="43.95101" lon="4.88664">
        <ele>30.6</ele>
        <time>2019-07-10T05:53:32Z</time>
      </trkpt>
      <trkpt lat="43.95117" lon="4.88644">
        <ele>31.2</ele>
        <time>2019-07-10T05:53:37Z</time>
      </trkpt>
      <trkpt lat="43.9512" lon="4.8864">
        <ele>31.4</ele>
        <time>2019-07-10T05:53:38Z</time>
      </trkpt>
      <trkpt lat="43.95123" lon="4.88636">
        <ele>31.4</ele>
        <time>2019-07-10T05:53:39Z</time>
      </trkpt>
      <trkpt lat="43.95126" lon="4.88633">
        <ele>31.4</ele>
        <time>2019-07-10T05:53:40Z</time>
      </trkpt>
      <trkpt lat="43.95144" lon="4.88609">
        <ele>32.2</ele>
        <time>2019-07-10T05:53:46Z</time>
      </trkpt>
      <trkpt lat="43.95151" lon="4.88601">
        <ele>32.6</ele>
        <time>2019-07-10T05:53:48Z</time>
      </trkpt>
      <trkpt lat="43.95153" lon="4.88597">
        <ele>32.6</ele>
        <time>2019-07-10T05:53:49Z</time>
      </trkpt>
      <trkpt lat="43.95167" lon="4.88578">
        <ele>32.8</ele>
        <time>2019-07-10T05:53:54Z</time>
      </trkpt>
      <trkpt lat="43.95188" lon="4.8855">
        <ele>33</ele>
        <time>2019-07-10T05:54:01Z</time>
      </trkpt>
      <trkpt lat="43.95192" lon="4.88544">
        <ele>33</ele>
        <time>2019-07-10T05:54:02Z</time>
      </trkpt>
      <trkpt lat="43.95195" lon="4.8854">
        <ele>32.8</ele>
        <time>2019-07-10T05:54:03Z</time>
      </trkpt>
      <trkpt lat="43.95198" lon="4.88535">
        <ele>32.8</ele>
        <time>2019-07-10T05:54:04Z</time>
      </trkpt>
      <trkpt lat="43.95204" lon="4.88528">
        <ele>32.8</ele>
        <time>2019-07-10T05:54:06Z</time>
      </trkpt>
      <trkpt lat="43.95226" lon="4.88497">
        <ele>33</ele>
        <time>2019-07-10T05:54:13Z</time>
      </trkpt>
      <trkpt lat="43.95234" lon="4.88492">
        <ele>33</ele>
        <time>2019-07-10T05:54:15Z</time>
      </trkpt>
      <trkpt lat="43.95243" lon="4.88491">
        <ele>33.2</ele>
        <time>2019-07-10T05:54:17Z</time>
      </trkpt>
      <trkpt lat="43.95259" lon="4.88493">
        <ele>33.2</ele>
        <time>2019-07-10T05:54:21Z</time>
      </trkpt>
      <trkpt lat="43.95262" lon="4.88493">
        <ele>33.4</ele>
        <time>2019-07-10T05:54:22Z</time>
      </trkpt>
      <trkpt lat="43.95266" lon="4.88493">
        <ele>33.4</ele>
        <time>2019-07-10T05:54:23Z</time>
      </trkpt>
      <trkpt lat="43.95276" lon="4.88487">
        <ele>33.8</ele>
        <time>2019-07-10T05:54:26Z</time>
      </trkpt>
      <trkpt lat="43.95284" lon="4.88486">
        <ele>34</ele>
        <time>2019-07-10T05:54:28Z</time>
      </trkpt>
      <trkpt lat="43.95308" lon="4.8848">
        <ele>34</ele>
        <time>2019-07-10T05:54:34Z</time>
      </trkpt>
      <trkpt lat="43.95314" lon="4.8847">
        <ele>34</ele>
        <time>2019-07-10T05:54:36Z</time>
      </trkpt>
      <trkpt lat="43.95317" lon="4.88458">
        <ele>34</ele>
        <time>2019-07-10T05:54:38Z</time>
      </trkpt>
      <trkpt lat="43.95315" lon="4.88446">
        <ele>34</ele>
        <time>2019-07-10T05:54:40Z</time>
      </trkpt>
      <trkpt lat="43.95312" lon="4.88441">
        <ele>33.8</ele>
        <time>2019-07-10T05:54:41Z</time>
      </trkpt>
      <trkpt lat="43.95305" lon="4.88427">
        <ele>34</ele>
        <time>2019-07-10T05:54:44Z</time>
      </trkpt>
      <trkpt lat="43.95303" lon="4.88414">
        <ele>34.2</ele>
        <time>2019-07-10T05:54:46Z</time>
      </trkpt>
      <trkpt lat="43.95299" lon="4.88361">
        <ele>34.2</ele>
        <time>2019-07-10T05:54:54Z</time>
      </trkpt>
      <trkpt lat="43.95299" lon="4.88353">
        <ele>34.2</ele>
        <time>2019-07-10T05:54:55Z</time>
      </trkpt>
      <trkpt lat="43.95298" lon="4.88302">
        <ele>34.4</ele>
        <time>2019-07-10T05:55:02Z</time>
      </trkpt>
      <trkpt lat="43.95297" lon="4.88296">
        <ele>34.4</ele>
        <time>2019-07-10T05:55:03Z</time>
      </trkpt>
      <trkpt lat="43.95297" lon="4.88248">
        <ele>34</ele>
        <time>2019-07-10T05:55:10Z</time>
      </trkpt>
      <trkpt lat="43.95297" lon="4.88231">
        <ele>34</ele>
        <time>2019-07-10T05:55:12Z</time>
      </trkpt>
      <trkpt lat="43.95297" lon="4.88224">
        <ele>34</ele>
        <time>2019-07-10T05:55:13Z</time>
      </trkpt>
      <trkpt lat="43.95298" lon="4.88185">
        <ele>33.4</ele>
        <time>2019-07-10T05:55:18Z</time>
      </trkpt>
      <trkpt lat="43.953" lon="4.88124">
        <ele>33</ele>
        <time>2019-07-10T05:55:26Z</time>
      </trkpt>
      <trkpt lat="43.95303" lon="4.88057">
        <ele>33</ele>
        <time>2019-07-10T05:55:34Z</time>
      </trkpt>
      <trkpt lat="43.95303" lon="4.88049">
        <ele>33</ele>
        <time>2019-07-10T05:55:35Z</time>
      </trkpt>
      <trkpt lat="43.95307" lon="4.87969">
        <ele>33.8</ele>
        <time>2019-07-10T05:55:45Z</time>
      </trkpt>
      <trkpt lat="43.95307" lon="4.87954">
        <ele>33.8</ele>
        <time>2019-07-10T05:55:47Z</time>
      </trkpt>
      <trkpt lat="43.95309" lon="4.87916">
        <ele>33.8</ele>
        <time>2019-07-10T05:55:52Z</time>
      </trkpt>
      <trkpt lat="43.95308" lon="4.87901">
        <ele>33.6</ele>
        <time>2019-07-10T05:55:54Z</time>
      </trkpt>
      <trkpt lat="43.95311" lon="4.87836">
        <ele>34</ele>
        <time>2019-07-10T05:56:02Z</time>
      </trkpt>
      <trkpt lat="43.95313" lon="4.87828">
        <ele>34</ele>
        <time>2019-07-10T05:56:03Z</time>
      </trkpt>
      <trkpt lat="43.95314" lon="4.87821">
        <ele>34.2</ele>
        <time>2019-07-10T05:56:04Z</time>
      </trkpt>
      <trkpt lat="43.95315" lon="4.87798">
        <ele>34</ele>
        <time>2019-07-10T05:56:07Z</time>
      </trkpt>
      <trkpt lat="43.95315" lon="4.87784">
        <ele>33.8</ele>
        <time>2019-07-10T05:56:09Z</time>
      </trkpt>
      <trkpt lat="43.95316" lon="4.87767">
        <ele>33.6</ele>
        <time>2019-07-10T05:56:11Z</time>
      </trkpt>
      <trkpt lat="43.95317" lon="4.87732">
        <ele>33.6</ele>
        <time>2019-07-10T05:56:16Z</time>
      </trkpt>
      <trkpt lat="43.95317" lon="4.87726">
        <ele>33.4</ele>
        <time>2019-07-10T05:56:17Z</time>
      </trkpt>
      <trkpt lat="43.95319" lon="4.87686">
        <ele>32.8</ele>
        <time>2019-07-10T05:56:23Z</time>
      </trkpt>
      <trkpt lat="43.9532" lon="4.87673">
        <ele>32.4</ele>
        <time>2019-07-10T05:56:25Z</time>
      </trkpt>
      <trkpt lat="43.95323" lon="4.87625">
        <ele>32.4</ele>
        <time>2019-07-10T05:56:32Z</time>
      </trkpt>
      <trkpt lat="43.95326" lon="4.87555">
        <ele>33</ele>
        <time>2019-07-10T05:56:42Z</time>
      </trkpt>
      <trkpt lat="43.95327" lon="4.87514">
        <ele>33.4</ele>
        <time>2019-07-10T05:56:48Z</time>
      </trkpt>
      <trkpt lat="43.95327" lon="4.87507">
        <ele>33.4</ele>
        <time>2019-07-10T05:56:49Z</time>
      </trkpt>
      <trkpt lat="43.95329" lon="4.87487">
        <ele>33.2</ele>
        <time>2019-07-10T05:56:52Z</time>
      </trkpt>
      <trkpt lat="43.95332" lon="4.87435">
        <ele>33</ele>
        <time>2019-07-10T05:56:59Z</time>
      </trkpt>
      <trkpt lat="43.95333" lon="4.87413">
        <ele>33.2</ele>
        <time>2019-07-10T05:57:02Z</time>
      </trkpt>
      <trkpt lat="43.95334" lon="4.87369">
        <ele>34</ele>
        <time>2019-07-10T05:57:08Z</time>
      </trkpt>
      <trkpt lat="43.95335" lon="4.87354">
        <ele>34</ele>
        <time>2019-07-10T05:57:10Z</time>
      </trkpt>
      <trkpt lat="43.95336" lon="4.87324">
        <ele>33.4</ele>
        <time>2019-07-10T05:57:14Z</time>
      </trkpt>
      <trkpt lat="43.95336" lon="4.87277">
        <ele>33.2</ele>
        <time>2019-07-10T05:57:20Z</time>
      </trkpt>
      <trkpt lat="43.95335" lon="4.87262">
        <ele>33.4</ele>
        <time>2019-07-10T05:57:22Z</time>
      </trkpt>
      <trkpt lat="43.95333" lon="4.87209">
        <ele>33.2</ele>
        <time>2019-07-10T05:57:29Z</time>
      </trkpt>
      <trkpt lat="43.95331" lon="4.87175">
        <ele>33</ele>
        <time>2019-07-10T05:57:34Z</time>
      </trkpt>
      <trkpt lat="43.95329" lon="4.87161">
        <ele>32.6</ele>
        <time>2019-07-10T05:57:36Z</time>
      </trkpt>
      <trkpt lat="43.95329" lon="4.87154">
        <ele>32.8</ele>
        <time>2019-07-10T05:57:37Z</time>
      </trkpt>
      <trkpt lat="43.95324" lon="4.87101">
        <ele>32.8</ele>
        <time>2019-07-10T05:57:45Z</time>
      </trkpt>
      <trkpt lat="43.95323" lon="4.87088">
        <ele>33</ele>
        <time>2019-07-10T05:57:47Z</time>
      </trkpt>
      <trkpt lat="43.9532" lon="4.87062">
        <ele>32.8</ele>
        <time>2019-07-10T05:57:51Z</time>
      </trkpt>
      <trkpt lat="43.95319" lon="4.87049">
        <ele>32.6</ele>
        <time>2019-07-10T05:57:53Z</time>
      </trkpt>
      <trkpt lat="43.95317" lon="4.87028">
        <ele>32</ele>
        <time>2019-07-10T05:57:56Z</time>
      </trkpt>
      <trkpt lat="43.95313" lon="4.86987">
        <ele>31.8</ele>
        <time>2019-07-10T05:58:02Z</time>
      </trkpt>
      <trkpt lat="43.95311" lon="4.86974">
        <ele>32</ele>
        <time>2019-07-10T05:58:04Z</time>
      </trkpt>
      <trkpt lat="43.95308" lon="4.86931">
        <ele>32.4</ele>
        <time>2019-07-10T05:58:10Z</time>
      </trkpt>
      <trkpt lat="43.95303" lon="4.86883">
        <ele>32.6</ele>
        <time>2019-07-10T05:58:17Z</time>
      </trkpt>
      <trkpt lat="43.95299" lon="4.86856">
        <ele>33</ele>
        <time>2019-07-10T05:58:21Z</time>
      </trkpt>
      <trkpt lat="43.95298" lon="4.86842">
        <ele>33.2</ele>
        <time>2019-07-10T05:58:23Z</time>
      </trkpt>
      <trkpt lat="43.95289" lon="4.86783">
        <ele>33.4</ele>
        <time>2019-07-10T05:58:31Z</time>
      </trkpt>
      <trkpt lat="43.95278" lon="4.8671">
        <ele>33.4</ele>
        <time>2019-07-10T05:58:41Z</time>
      </trkpt>
      <trkpt lat="43.9527" lon="4.86652">
        <ele>33.2</ele>
        <time>2019-07-10T05:58:49Z</time>
      </trkpt>
      <trkpt lat="43.95265" lon="4.86622">
        <ele>33</ele>
        <time>2019-07-10T05:58:53Z</time>
      </trkpt>
      <trkpt lat="43.95261" lon="4.86593">
        <ele>32.4</ele>
        <time>2019-07-10T05:58:57Z</time>
      </trkpt>
      <trkpt lat="43.95251" lon="4.86526">
        <ele>32</ele>
        <time>2019-07-10T05:59:06Z</time>
      </trkpt>
      <trkpt lat="43.95242" lon="4.86465">
        <ele>32</ele>
        <time>2019-07-10T05:59:14Z</time>
      </trkpt>
      <trkpt lat="43.95239" lon="4.86442">
        <ele>31.8</ele>
        <time>2019-07-10T05:59:17Z</time>
      </trkpt>
      <trkpt lat="43.95232" lon="4.86397">
        <ele>31.6</ele>
        <time>2019-07-10T05:59:23Z</time>
      </trkpt>
      <trkpt lat="43.95226" lon="4.8636">
        <ele>31.4</ele>
        <time>2019-07-10T05:59:28Z</time>
      </trkpt>
      <trkpt lat="43.95221" lon="4.86332">
        <ele>31</ele>
        <time>2019-07-10T05:59:32Z</time>
      </trkpt>
      <trkpt lat="43.95216" lon="4.86311">
        <ele>31</ele>
        <time>2019-07-10T05:59:35Z</time>
      </trkpt>
      <trkpt lat="43.95207" lon="4.86277">
        <ele>30.6</ele>
        <time>2019-07-10T05:59:40Z</time>
      </trkpt>
      <trkpt lat="43.95197" lon="4.86243">
        <ele>30.4</ele>
        <time>2019-07-10T05:59:45Z</time>
      </trkpt>
      <trkpt lat="43.95187" lon="4.86209">
        <ele>30.6</ele>
        <time>2019-07-10T05:59:50Z</time>
      </trkpt>
      <trkpt lat="43.95164" lon="4.86141">
        <ele>31.4</ele>
        <time>2019-07-10T06:00:00Z</time>
      </trkpt>
      <trkpt lat="43.95159" lon="4.86128">
        <ele>31.2</ele>
        <time>2019-07-10T06:00:02Z</time>
      </trkpt>
      <trkpt lat="43.95138" lon="4.86071">
        <ele>31</ele>
        <time>2019-07-10T06:00:11Z</time>
      </trkpt>
      <trkpt lat="43.95132" lon="4.86055">
        <ele>31</ele>
        <time>2019-07-10T06:00:14Z</time>
      </trkpt>
      <trkpt lat="43.95124" lon="4.86033">
        <ele>31.2</ele>
        <time>2019-07-10T06:00:18Z</time>
      </trkpt>
      <trkpt lat="43.95116" lon="4.86017">
        <ele>31.2</ele>
        <time>2019-07-10T06:00:21Z</time>
      </trkpt>
      <trkpt lat="43.95106" lon="4.86004">
        <ele>31.4</ele>
        <time>2019-07-10T06:00:24Z</time>
      </trkpt>
      <trkpt lat="43.95096" lon="4.85992">
        <ele>31.4</ele>
        <time>2019-07-10T06:00:27Z</time>
      </trkpt>
      <trkpt lat="43.95089" lon="4.8598">
        <ele>31.6</ele>
        <time>2019-07-10T06:00:30Z</time>
      </trkpt>
      <trkpt lat="43.95087" lon="4.85975">
        <ele>31.4</ele>
        <time>2019-07-10T06:00:31Z</time>
      </trkpt>
      <trkpt lat="43.95085" lon="4.85962">
        <ele>31.4</ele>
        <time>2019-07-10T06:00:33Z</time>
      </trkpt>
      <trkpt lat="43.95085" lon="4.85956">
        <ele>31.4</ele>
        <time>2019-07-10T06:00:34Z</time>
      </trkpt>
      <trkpt lat="43.95085" lon="4.85914">
        <ele>31.2</ele>
        <time>2019-07-10T06:00:40Z</time>
      </trkpt>
      <trkpt lat="43.95082" lon="4.85893">
        <ele>31.2</ele>
        <time>2019-07-10T06:00:43Z</time>
      </trkpt>
      <trkpt lat="43.95074" lon="4.85859">
        <ele>31.4</ele>
        <time>2019-07-10T06:00:48Z</time>
      </trkpt>
      <trkpt lat="43.95069" lon="4.85846">
        <ele>31.4</ele>
        <time>2019-07-10T06:00:50Z</time>
      </trkpt>
      <trkpt lat="43.95066" lon="4.85839">
        <ele>31.4</ele>
        <time>2019-07-10T06:00:51Z</time>
      </trkpt>
      <trkpt lat="43.9505" lon="4.85817">
        <ele>30.8</ele>
        <time>2019-07-10T06:00:55Z</time>
      </trkpt>
      <trkpt lat="43.9504" lon="4.8581">
        <ele>30.6</ele>
        <time>2019-07-10T06:00:57Z</time>
      </trkpt>
      <trkpt lat="43.9503" lon="4.85805">
        <ele>30.6</ele>
        <time>2019-07-10T06:00:59Z</time>
      </trkpt>
      <trkpt lat="43.95024" lon="4.85803">
        <ele>30.4</ele>
        <time>2019-07-10T06:01:00Z</time>
      </trkpt>
      <trkpt lat="43.94998" lon="4.85803">
        <ele>30.4</ele>
        <time>2019-07-10T06:01:05Z</time>
      </trkpt>
      <trkpt lat="43.94993" lon="4.85802">
        <ele>30.4</ele>
        <time>2019-07-10T06:01:06Z</time>
      </trkpt>
      <trkpt lat="43.94987" lon="4.85801">
        <ele>30.2</ele>
        <time>2019-07-10T06:01:07Z</time>
      </trkpt>
      <trkpt lat="43.94978" lon="4.85797">
        <ele>30.2</ele>
        <time>2019-07-10T06:01:09Z</time>
      </trkpt>
      <trkpt lat="43.94974" lon="4.85794">
        <ele>30.2</ele>
        <time>2019-07-10T06:01:10Z</time>
      </trkpt>
      <trkpt lat="43.9497" lon="4.8579">
        <ele>30.2</ele>
        <time>2019-07-10T06:01:11Z</time>
      </trkpt>
      <trkpt lat="43.94964" lon="4.85781">
        <ele>30.4</ele>
        <time>2019-07-10T06:01:13Z</time>
      </trkpt>
      <trkpt lat="43.94962" lon="4.85775">
        <ele>30.2</ele>
        <time>2019-07-10T06:01:14Z</time>
      </trkpt>
      <trkpt lat="43.94961" lon="4.85769">
        <ele>30.4</ele>
        <time>2019-07-10T06:01:15Z</time>
      </trkpt>
      <trkpt lat="43.94958" lon="4.85756">
        <ele>30.4</ele>
        <time>2019-07-10T06:01:17Z</time>
      </trkpt>
      <trkpt lat="43.94957" lon="4.85749">
        <ele>30.4</ele>
        <time>2019-07-10T06:01:18Z</time>
      </trkpt>
      <trkpt lat="43.94957" lon="4.85741">
        <ele>30.4</ele>
        <time>2019-07-10T06:01:19Z</time>
      </trkpt>
      <trkpt lat="43.94957" lon="4.85734">
        <ele>30.4</ele>
        <time>2019-07-10T06:01:20Z</time>
      </trkpt>
      <trkpt lat="43.94961" lon="4.8572">
        <ele>30.6</ele>
        <time>2019-07-10T06:01:22Z</time>
      </trkpt>
      <trkpt lat="43.94963" lon="4.85714">
        <ele>30.4</ele>
        <time>2019-07-10T06:01:23Z</time>
      </trkpt>
      <trkpt lat="43.94966" lon="4.85709">
        <ele>30.6</ele>
        <time>2019-07-10T06:01:24Z</time>
      </trkpt>
      <trkpt lat="43.94969" lon="4.85704">
        <ele>30.6</ele>
        <time>2019-07-10T06:01:25Z</time>
      </trkpt>
      <trkpt lat="43.94976" lon="4.85696">
        <ele>30.4</ele>
        <time>2019-07-10T06:01:27Z</time>
      </trkpt>
      <trkpt lat="43.9498" lon="4.85692">
        <ele>30.6</ele>
        <time>2019-07-10T06:01:28Z</time>
      </trkpt>
      <trkpt lat="43.95026" lon="4.85644">
        <ele>30.6</ele>
        <time>2019-07-10T06:01:39Z</time>
      </trkpt>
      <trkpt lat="43.9503" lon="4.85639">
        <ele>30.8</ele>
        <time>2019-07-10T06:01:40Z</time>
      </trkpt>
      <trkpt lat="43.95038" lon="4.8563">
        <ele>30.6</ele>
        <time>2019-07-10T06:01:42Z</time>
      </trkpt>
      <trkpt lat="43.9505" lon="4.85618">
        <ele>30.6</ele>
        <time>2019-07-10T06:01:45Z</time>
      </trkpt>
      <trkpt lat="43.9506" lon="4.85608">
        <ele>29.4</ele>
        <time>2019-07-10T06:01:48Z</time>
      </trkpt>
      <trkpt lat="43.95072" lon="4.85589">
        <ele>28.2</ele>
        <time>2019-07-10T06:01:53Z</time>
      </trkpt>
      <trkpt lat="43.95075" lon="4.85564">
        <ele>28</ele>
        <time>2019-07-10T06:01:57Z</time>
      </trkpt>
      <trkpt lat="43.95078" lon="4.85545">
        <ele>28.6</ele>
        <time>2019-07-10T06:02:00Z</time>
      </trkpt>
      <trkpt lat="43.95079" lon="4.85533">
        <ele>29</ele>
        <time>2019-07-10T06:02:02Z</time>
      </trkpt>
      <trkpt lat="43.95086" lon="4.85484">
        <ele>29.4</ele>
        <time>2019-07-10T06:02:09Z</time>
      </trkpt>
      <trkpt lat="43.95089" lon="4.85455">
        <ele>29.2</ele>
        <time>2019-07-10T06:02:13Z</time>
      </trkpt>
      <trkpt lat="43.95094" lon="4.85412">
        <ele>28.4</ele>
        <time>2019-07-10T06:02:19Z</time>
      </trkpt>
      <trkpt lat="43.95103" lon="4.85341">
        <ele>27.8</ele>
        <time>2019-07-10T06:02:29Z</time>
      </trkpt>
      <trkpt lat="43.95108" lon="4.85294">
        <ele>28</ele>
        <time>2019-07-10T06:02:36Z</time>
      </trkpt>
      <trkpt lat="43.95109" lon="4.85288">
        <ele>28</ele>
        <time>2019-07-10T06:02:37Z</time>
      </trkpt>
      <trkpt lat="43.95112" lon="4.85246">
        <ele>27.4</ele>
        <time>2019-07-10T06:02:43Z</time>
      </trkpt>
      <trkpt lat="43.95111" lon="4.85232">
        <ele>27.2</ele>
        <time>2019-07-10T06:02:45Z</time>
      </trkpt>
      <trkpt lat="43.9511" lon="4.85225">
        <ele>27.2</ele>
        <time>2019-07-10T06:02:46Z</time>
      </trkpt>
      <trkpt lat="43.95109" lon="4.85219">
        <ele>27.2</ele>
        <time>2019-07-10T06:02:47Z</time>
      </trkpt>
      <trkpt lat="43.9511" lon="4.85207">
        <ele>27.4</ele>
        <time>2019-07-10T06:02:49Z</time>
      </trkpt>
      <trkpt lat="43.95114" lon="4.85188">
        <ele>27.6</ele>
        <time>2019-07-10T06:02:52Z</time>
      </trkpt>
      <trkpt lat="43.95115" lon="4.85168">
        <ele>27.4</ele>
        <time>2019-07-10T06:02:55Z</time>
      </trkpt>
      <trkpt lat="43.95116" lon="4.85116">
        <ele>27.2</ele>
        <time>2019-07-10T06:03:02Z</time>
      </trkpt>
      <trkpt lat="43.95118" lon="4.85072">
        <ele>27.2</ele>
        <time>2019-07-10T06:03:08Z</time>
      </trkpt>
      <trkpt lat="43.9512" lon="4.85044">
        <ele>27.6</ele>
        <time>2019-07-10T06:03:12Z</time>
      </trkpt>
      <trkpt lat="43.95125" lon="4.84989">
        <ele>28</ele>
        <time>2019-07-10T06:03:20Z</time>
      </trkpt>
      <trkpt lat="43.95134" lon="4.84926">
        <ele>27.6</ele>
        <time>2019-07-10T06:03:29Z</time>
      </trkpt>
      <trkpt lat="43.95141" lon="4.84847">
        <ele>27</ele>
        <time>2019-07-10T06:03:40Z</time>
      </trkpt>
      <trkpt lat="43.95142" lon="4.8484">
        <ele>27</ele>
        <time>2019-07-10T06:03:41Z</time>
      </trkpt>
      <trkpt lat="43.95143" lon="4.84826">
        <ele>27.2</ele>
        <time>2019-07-10T06:03:43Z</time>
      </trkpt>
      <trkpt lat="43.95145" lon="4.84798">
        <ele>27.8</ele>
        <time>2019-07-10T06:03:47Z</time>
      </trkpt>
      <trkpt lat="43.95146" lon="4.84785">
        <ele>27.8</ele>
        <time>2019-07-10T06:03:49Z</time>
      </trkpt>
      <trkpt lat="43.95154" lon="4.8471">
        <ele>27</ele>
        <time>2019-07-10T06:04:00Z</time>
      </trkpt>
      <trkpt lat="43.95168" lon="4.84656">
        <ele>27.2</ele>
        <time>2019-07-10T06:04:08Z</time>
      </trkpt>
      <trkpt lat="43.95172" lon="4.84643">
        <ele>27.4</ele>
        <time>2019-07-10T06:04:10Z</time>
      </trkpt>
      <trkpt lat="43.95181" lon="4.84617">
        <ele>27.4</ele>
        <time>2019-07-10T06:04:14Z</time>
      </trkpt>
      <trkpt lat="43.95189" lon="4.84592">
        <ele>27.4</ele>
        <time>2019-07-10T06:04:18Z</time>
      </trkpt>
      <trkpt lat="43.95191" lon="4.84585">
        <ele>27.6</ele>
        <time>2019-07-10T06:04:19Z</time>
      </trkpt>
      <trkpt lat="43.95202" lon="4.84553">
        <ele>27.2</ele>
        <time>2019-07-10T06:04:24Z</time>
      </trkpt>
      <trkpt lat="43.95223" lon="4.84494">
        <ele>27</ele>
        <time>2019-07-10T06:04:33Z</time>
      </trkpt>
      <trkpt lat="43.95227" lon="4.84481">
        <ele>27.2</ele>
        <time>2019-07-10T06:04:35Z</time>
      </trkpt>
      <trkpt lat="43.95237" lon="4.84434">
        <ele>26.8</ele>
        <time>2019-07-10T06:04:42Z</time>
      </trkpt>
      <trkpt lat="43.95242" lon="4.84384">
        <ele>26.2</ele>
        <time>2019-07-10T06:04:50Z</time>
      </trkpt>
      <trkpt lat="43.95245" lon="4.84351">
        <ele>26</ele>
        <time>2019-07-10T06:04:57Z</time>
      </trkpt>
      <trkpt lat="43.95245" lon="4.84349">
        <ele>26</ele>
        <time>2019-07-10T06:05:00Z</time>
      </trkpt>
      <trkpt lat="43.95245" lon="4.84349">
        <ele>26</ele>
        <time>2019-07-10T06:05:01Z</time>
      </trkpt>
      <trkpt lat="43.95246" lon="4.84342">
        <ele>26</ele>
        <time>2019-07-10T06:05:09Z</time>
      </trkpt>
      <trkpt lat="43.95247" lon="4.84335">
        <ele>26</ele>
        <time>2019-07-10T06:05:11Z</time>
      </trkpt>
      <trkpt lat="43.95249" lon="4.84308">
        <ele>25.8</ele>
        <time>2019-07-10T06:05:16Z</time>
      </trkpt>
      <trkpt lat="43.95252" lon="4.84269">
        <ele>25.8</ele>
        <time>2019-07-10T06:05:22Z</time>
      </trkpt>
      <trkpt lat="43.95256" lon="4.8421">
        <ele>25.8</ele>
        <time>2019-07-10T06:05:30Z</time>
      </trkpt>
      <trkpt lat="43.9526" lon="4.84151">
        <ele>26.2</ele>
        <time>2019-07-10T06:05:38Z</time>
      </trkpt>
      <trkpt lat="43.9526" lon="4.84102">
        <ele>26</ele>
        <time>2019-07-10T06:05:45Z</time>
      </trkpt>
      <trkpt lat="43.95259" lon="4.84045">
        <ele>26.2</ele>
        <time>2019-07-10T06:05:53Z</time>
      </trkpt>
      <trkpt lat="43.95258" lon="4.8403">
        <ele>26.2</ele>
        <time>2019-07-10T06:05:55Z</time>
      </trkpt>
      <trkpt lat="43.95258" lon="4.84025">
        <ele>26.2</ele>
        <time>2019-07-10T06:05:56Z</time>
      </trkpt>
      <trkpt lat="43.95258" lon="4.83997">
        <ele>26.2</ele>
        <time>2019-07-10T06:06:00Z</time>
      </trkpt>
      <trkpt lat="43.95255" lon="4.83932">
        <ele>25.6</ele>
        <time>2019-07-10T06:06:09Z</time>
      </trkpt>
      <trkpt lat="43.95253" lon="4.83858">
        <ele>25.6</ele>
        <time>2019-07-10T06:06:19Z</time>
      </trkpt>
      <trkpt lat="43.95248" lon="4.838">
        <ele>25.4</ele>
        <time>2019-07-10T06:06:27Z</time>
      </trkpt>
      <trkpt lat="43.95247" lon="4.83793">
        <ele>25.4</ele>
        <time>2019-07-10T06:06:28Z</time>
      </trkpt>
      <trkpt lat="43.95244" lon="4.83773">
        <ele>25.2</ele>
        <time>2019-07-10T06:06:31Z</time>
      </trkpt>
      <trkpt lat="43.95242" lon="4.83766">
        <ele>25.4</ele>
        <time>2019-07-10T06:06:32Z</time>
      </trkpt>
      <trkpt lat="43.95236" lon="4.83733">
        <ele>25</ele>
        <time>2019-07-10T06:06:37Z</time>
      </trkpt>
      <trkpt lat="43.95223" lon="4.83669">
        <ele>25.2</ele>
        <time>2019-07-10T06:06:46Z</time>
      </trkpt>
      <trkpt lat="43.95222" lon="4.83662">
        <ele>25.2</ele>
        <time>2019-07-10T06:06:47Z</time>
      </trkpt>
      <trkpt lat="43.95216" lon="4.83635">
        <ele>25.4</ele>
        <time>2019-07-10T06:06:51Z</time>
      </trkpt>
      <trkpt lat="43.95215" lon="4.83628">
        <ele>25.4</ele>
        <time>2019-07-10T06:06:52Z</time>
      </trkpt>
      <trkpt lat="43.95209" lon="4.83601">
        <ele>25.8</ele>
        <time>2019-07-10T06:06:56Z</time>
      </trkpt>
      <trkpt lat="43.952" lon="4.8355">
        <ele>25.8</ele>
        <time>2019-07-10T06:07:03Z</time>
      </trkpt>
      <trkpt lat="43.95199" lon="4.83542">
        <ele>26</ele>
        <time>2019-07-10T06:07:04Z</time>
      </trkpt>
      <trkpt lat="43.95193" lon="4.83506">
        <ele>25.8</ele>
        <time>2019-07-10T06:07:09Z</time>
      </trkpt>
      <trkpt lat="43.95191" lon="4.83498">
        <ele>25.8</ele>
        <time>2019-07-10T06:07:10Z</time>
      </trkpt>
      <trkpt lat="43.95189" lon="4.83483">
        <ele>26</ele>
        <time>2019-07-10T06:07:12Z</time>
      </trkpt>
      <trkpt lat="43.95177" lon="4.83435">
        <ele>26.2</ele>
        <time>2019-07-10T06:07:19Z</time>
      </trkpt>
      <trkpt lat="43.95171" lon="4.83415">
        <ele>26.2</ele>
        <time>2019-07-10T06:07:22Z</time>
      </trkpt>
      <trkpt lat="43.95167" lon="4.83402">
        <ele>26.2</ele>
        <time>2019-07-10T06:07:24Z</time>
      </trkpt>
      <trkpt lat="43.95161" lon="4.83385">
        <ele>26.2</ele>
        <time>2019-07-10T06:07:27Z</time>
      </trkpt>
      <trkpt lat="43.95158" lon="4.83375">
        <ele>25.6</ele>
        <time>2019-07-10T06:07:31Z</time>
      </trkpt>
      <trkpt lat="43.95158" lon="4.83373">
        <ele>25.4</ele>
        <time>2019-07-10T06:07:34Z</time>
      </trkpt>
      <trkpt lat="43.95156" lon="4.83366">
        <ele>24.6</ele>
        <time>2019-07-10T06:07:44Z</time>
      </trkpt>
      <trkpt lat="43.95151" lon="4.83348">
        <ele>24.6</ele>
        <time>2019-07-10T06:07:48Z</time>
      </trkpt>
      <trkpt lat="43.95148" lon="4.8333">
        <ele>24.8</ele>
        <time>2019-07-10T06:07:51Z</time>
      </trkpt>
      <trkpt lat="43.95144" lon="4.83311">
        <ele>25</ele>
        <time>2019-07-10T06:07:54Z</time>
      </trkpt>
      <trkpt lat="43.95143" lon="4.83305">
        <ele>24.8</ele>
        <time>2019-07-10T06:07:55Z</time>
      </trkpt>
      <trkpt lat="43.95134" lon="4.83263">
        <ele>25.2</ele>
        <time>2019-07-10T06:08:01Z</time>
      </trkpt>
      <trkpt lat="43.95133" lon="4.83257">
        <ele>25.2</ele>
        <time>2019-07-10T06:08:02Z</time>
      </trkpt>
      <trkpt lat="43.9513" lon="4.83245">
        <ele>25.4</ele>
        <time>2019-07-10T06:08:04Z</time>
      </trkpt>
      <trkpt lat="43.95128" lon="4.83228">
        <ele>25.4</ele>
        <time>2019-07-10T06:08:07Z</time>
      </trkpt>
      <trkpt lat="43.95127" lon="4.83222">
        <ele>25.4</ele>
        <time>2019-07-10T06:08:08Z</time>
      </trkpt>
      <trkpt lat="43.95124" lon="4.8321">
        <ele>25.2</ele>
        <time>2019-07-10T06:08:10Z</time>
      </trkpt>
      <trkpt lat="43.95118" lon="4.83177">
        <ele>25.2</ele>
        <time>2019-07-10T06:08:15Z</time>
      </trkpt>
      <trkpt lat="43.95109" lon="4.8313">
        <ele>25.2</ele>
        <time>2019-07-10T06:08:22Z</time>
      </trkpt>
      <trkpt lat="43.95108" lon="4.83123">
        <ele>25.2</ele>
        <time>2019-07-10T06:08:23Z</time>
      </trkpt>
      <trkpt lat="43.95104" lon="4.83096">
        <ele>25.2</ele>
        <time>2019-07-10T06:08:27Z</time>
      </trkpt>
      <trkpt lat="43.95101" lon="4.8307">
        <ele>25</ele>
        <time>2019-07-10T06:08:31Z</time>
      </trkpt>
      <trkpt lat="43.95101" lon="4.83064">
        <ele>25</ele>
        <time>2019-07-10T06:08:32Z</time>
      </trkpt>
      <trkpt lat="43.95101" lon="4.83051">
        <ele>25</ele>
        <time>2019-07-10T06:08:34Z</time>
      </trkpt>
      <trkpt lat="43.95101" lon="4.83038">
        <ele>25</ele>
        <time>2019-07-10T06:08:36Z</time>
      </trkpt>
      <trkpt lat="43.95101" lon="4.83031">
        <ele>24.8</ele>
        <time>2019-07-10T06:08:37Z</time>
      </trkpt>
      <trkpt lat="43.95102" lon="4.83024">
        <ele>25</ele>
        <time>2019-07-10T06:08:38Z</time>
      </trkpt>
      <trkpt lat="43.95103" lon="4.83003">
        <ele>25</ele>
        <time>2019-07-10T06:08:41Z</time>
      </trkpt>
      <trkpt lat="43.95106" lon="4.82984">
        <ele>25</ele>
        <time>2019-07-10T06:08:44Z</time>
      </trkpt>
      <trkpt lat="43.95107" lon="4.82977">
        <ele>25</ele>
        <time>2019-07-10T06:08:45Z</time>
      </trkpt>
      <trkpt lat="43.95109" lon="4.82971">
        <ele>25.2</ele>
        <time>2019-07-10T06:08:46Z</time>
      </trkpt>
      <trkpt lat="43.9512" lon="4.82925">
        <ele>24.8</ele>
        <time>2019-07-10T06:08:53Z</time>
      </trkpt>
      <trkpt lat="43.95121" lon="4.82918">
        <ele>24.8</ele>
        <time>2019-07-10T06:08:54Z</time>
      </trkpt>
      <trkpt lat="43.95123" lon="4.82911">
        <ele>24.6</ele>
        <time>2019-07-10T06:08:55Z</time>
      </trkpt>
      <trkpt lat="43.95124" lon="4.82905">
        <ele>24.6</ele>
        <time>2019-07-10T06:08:56Z</time>
      </trkpt>
      <trkpt lat="43.95127" lon="4.82894">
        <ele>24.2</ele>
        <time>2019-07-10T06:08:58Z</time>
      </trkpt>
      <trkpt lat="43.9513" lon="4.82883">
        <ele>24.2</ele>
        <time>2019-07-10T06:09:00Z</time>
      </trkpt>
      <trkpt lat="43.95131" lon="4.82877">
        <ele>24.2</ele>
        <time>2019-07-10T06:09:01Z</time>
      </trkpt>
      <trkpt lat="43.95134" lon="4.82865">
        <ele>24</ele>
        <time>2019-07-10T06:09:03Z</time>
      </trkpt>
      <trkpt lat="43.95135" lon="4.82859">
        <ele>24.2</ele>
        <time>2019-07-10T06:09:04Z</time>
      </trkpt>
      <trkpt lat="43.95138" lon="4.82839">
        <ele>24.4</ele>
        <time>2019-07-10T06:09:08Z</time>
      </trkpt>
      <trkpt lat="43.95139" lon="4.82833">
        <ele>24.4</ele>
        <time>2019-07-10T06:09:09Z</time>
      </trkpt>
      <trkpt lat="43.95141" lon="4.82817">
        <ele>24.6</ele>
        <time>2019-07-10T06:09:12Z</time>
      </trkpt>
      <trkpt lat="43.95143" lon="4.82797">
        <ele>24.6</ele>
        <time>2019-07-10T06:09:16Z</time>
      </trkpt>
      <trkpt lat="43.95145" lon="4.82786">
        <ele>23.8</ele>
        <time>2019-07-10T06:09:21Z</time>
      </trkpt>
      <trkpt lat="43.95145" lon="4.82783">
        <ele>23.6</ele>
        <time>2019-07-10T06:09:24Z</time>
      </trkpt>
      <trkpt lat="43.95145" lon="4.82776">
        <ele>23.6</ele>
        <time>2019-07-10T06:09:28Z</time>
      </trkpt>
      <trkpt lat="43.95146" lon="4.82758">
        <ele>23.4</ele>
        <time>2019-07-10T06:09:35Z</time>
      </trkpt>
      <trkpt lat="43.95146" lon="4.82739">
        <ele>23.4</ele>
        <time>2019-07-10T06:09:41Z</time>
      </trkpt>
      <trkpt lat="43.95146" lon="4.82736">
        <ele>23.4</ele>
        <time>2019-07-10T06:09:43Z</time>
      </trkpt>
      <trkpt lat="43.95146" lon="4.82736">
        <ele>23.2</ele>
        <time>2019-07-10T06:09:44Z</time>
      </trkpt>
      <trkpt lat="43.95146" lon="4.82727">
        <ele>23.2</ele>
        <time>2019-07-10T06:09:49Z</time>
      </trkpt>
      <trkpt lat="43.95147" lon="4.82724">
        <ele>23.2</ele>
        <time>2019-07-10T06:09:50Z</time>
      </trkpt>
      <trkpt lat="43.95149" lon="4.8272">
        <ele>23.4</ele>
        <time>2019-07-10T06:09:51Z</time>
      </trkpt>
      <trkpt lat="43.95154" lon="4.82706">
        <ele>23.6</ele>
        <time>2019-07-10T06:09:54Z</time>
      </trkpt>
      <trkpt lat="43.95153" lon="4.827">
        <ele>23.6</ele>
        <time>2019-07-10T06:09:55Z</time>
      </trkpt>
      <trkpt lat="43.95152" lon="4.82695">
        <ele>23.6</ele>
        <time>2019-07-10T06:09:56Z</time>
      </trkpt>
      <trkpt lat="43.95141" lon="4.82674">
        <ele>23.4</ele>
        <time>2019-07-10T06:10:00Z</time>
      </trkpt>
      <trkpt lat="43.95136" lon="4.82663">
        <ele>23.4</ele>
        <time>2019-07-10T06:10:02Z</time>
      </trkpt>
      <trkpt lat="43.95118" lon="4.82623">
        <ele>23</ele>
        <time>2019-07-10T06:10:09Z</time>
      </trkpt>
      <trkpt lat="43.95092" lon="4.82566">
        <ele>22.8</ele>
        <time>2019-07-10T06:10:19Z</time>
      </trkpt>
      <trkpt lat="43.95092" lon="4.82565">
        <ele>23</ele>
        <time>2019-07-10T06:10:22Z</time>
      </trkpt>
      <trkpt lat="43.9509" lon="4.82562">
        <ele>22.8</ele>
        <time>2019-07-10T06:10:37Z</time>
      </trkpt>
      <trkpt lat="43.95088" lon="4.82556">
        <ele>23</ele>
        <time>2019-07-10T06:10:39Z</time>
      </trkpt>
      <trkpt lat="43.95079" lon="4.82537">
        <ele>22.8</ele>
        <time>2019-07-10T06:10:43Z</time>
      </trkpt>
      <trkpt lat="43.95076" lon="4.82531">
        <ele>22.8</ele>
        <time>2019-07-10T06:10:44Z</time>
      </trkpt>
      <trkpt lat="43.95062" lon="4.82494">
        <ele>23.2</ele>
        <time>2019-07-10T06:10:50Z</time>
      </trkpt>
      <trkpt lat="43.95054" lon="4.82459">
        <ele>23</ele>
        <time>2019-07-10T06:10:55Z</time>
      </trkpt>
      <trkpt lat="43.95053" lon="4.82452">
        <ele>23</ele>
        <time>2019-07-10T06:10:56Z</time>
      </trkpt>
      <trkpt lat="43.95052" lon="4.82445">
        <ele>23</ele>
        <time>2019-07-10T06:10:57Z</time>
      </trkpt>
      <trkpt lat="43.95051" lon="4.82438">
        <ele>23</ele>
        <time>2019-07-10T06:10:58Z</time>
      </trkpt>
      <trkpt lat="43.9505" lon="4.8243">
        <ele>23</ele>
        <time>2019-07-10T06:10:59Z</time>
      </trkpt>
      <trkpt lat="43.95047" lon="4.82399">
        <ele>23</ele>
        <time>2019-07-10T06:11:03Z</time>
      </trkpt>
      <trkpt lat="43.95043" lon="4.82342">
        <ele>23.4</ele>
        <time>2019-07-10T06:11:10Z</time>
      </trkpt>
      <trkpt lat="43.95042" lon="4.82334">
        <ele>23.4</ele>
        <time>2019-07-10T06:11:11Z</time>
      </trkpt>
      <trkpt lat="43.95039" lon="4.82296">
        <ele>23.8</ele>
        <time>2019-07-10T06:11:16Z</time>
      </trkpt>
      <trkpt lat="43.95038" lon="4.82289">
        <ele>24</ele>
        <time>2019-07-10T06:11:17Z</time>
      </trkpt>
      <trkpt lat="43.95037" lon="4.82268">
        <ele>23.8</ele>
        <time>2019-07-10T06:11:20Z</time>
      </trkpt>
      <trkpt lat="43.95034" lon="4.82239">
        <ele>23.8</ele>
        <time>2019-07-10T06:11:24Z</time>
      </trkpt>
      <trkpt lat="43.95033" lon="4.82226">
        <ele>23.8</ele>
        <time>2019-07-10T06:11:26Z</time>
      </trkpt>
      <trkpt lat="43.95031" lon="4.82207">
        <ele>23.6</ele>
        <time>2019-07-10T06:11:29Z</time>
      </trkpt>
      <trkpt lat="43.9503" lon="4.82191">
        <ele>23.6</ele>
        <time>2019-07-10T06:11:32Z</time>
      </trkpt>
      <trkpt lat="43.95026" lon="4.82117">
        <ele>23.4</ele>
        <time>2019-07-10T06:11:43Z</time>
      </trkpt>
      <trkpt lat="43.95024" lon="4.82079">
        <ele>23.2</ele>
        <time>2019-07-10T06:11:49Z</time>
      </trkpt>
      <trkpt lat="43.95023" lon="4.82068">
        <ele>23.4</ele>
        <time>2019-07-10T06:11:51Z</time>
      </trkpt>
      <trkpt lat="43.95023" lon="4.82044">
        <ele>23.6</ele>
        <time>2019-07-10T06:11:56Z</time>
      </trkpt>
      <trkpt lat="43.95022" lon="4.82024">
        <ele>23.4</ele>
        <time>2019-07-10T06:12:01Z</time>
      </trkpt>
      <trkpt lat="43.95023" lon="4.82023">
        <ele>23.4</ele>
        <time>2019-07-10T06:12:02Z</time>
      </trkpt>
      <trkpt lat="43.95023" lon="4.82021">
        <ele>23.2</ele>
        <time>2019-07-10T06:12:03Z</time>
      </trkpt>
      <trkpt lat="43.95024" lon="4.82017">
        <ele>23</ele>
        <time>2019-07-10T06:12:06Z</time>
      </trkpt>
      <trkpt lat="43.95024" lon="4.82017">
        <ele>23.2</ele>
        <time>2019-07-10T06:12:07Z</time>
      </trkpt>
      <trkpt lat="43.95024" lon="4.82017">
        <ele>23</ele>
        <time>2019-07-10T06:12:08Z</time>
      </trkpt>
      <trkpt lat="43.95026" lon="4.82011">
        <ele>23</ele>
        <time>2019-07-10T06:12:18Z</time>
      </trkpt>
      <trkpt lat="43.95028" lon="4.82009">
        <ele>23</ele>
        <time>2019-07-10T06:12:19Z</time>
      </trkpt>
      <trkpt lat="43.95031" lon="4.82007">
        <ele>23</ele>
        <time>2019-07-10T06:12:20Z</time>
      </trkpt>
      <trkpt lat="43.95051" lon="4.82">
        <ele>23</ele>
        <time>2019-07-10T06:12:25Z</time>
      </trkpt>
      <trkpt lat="43.9509" lon="4.81992">
        <ele>23.8</ele>
        <time>2019-07-10T06:12:33Z</time>
      </trkpt>
      <trkpt lat="43.95118" lon="4.81985">
        <ele>23.6</ele>
        <time>2019-07-10T06:12:40Z</time>
      </trkpt>
      <trkpt lat="43.9512" lon="4.81984">
        <ele>23.6</ele>
        <time>2019-07-10T06:12:43Z</time>
      </trkpt>
      <trkpt lat="43.95123" lon="4.8198">
        <ele>22.8</ele>
        <time>2019-07-10T06:13:05Z</time>
      </trkpt>
      <trkpt lat="43.95124" lon="4.81976">
        <ele>23</ele>
        <time>2019-07-10T06:13:06Z</time>
      </trkpt>
      <trkpt lat="43.95125" lon="4.81972">
        <ele>23</ele>
        <time>2019-07-10T06:13:07Z</time>
      </trkpt>
      <trkpt lat="43.95133" lon="4.81941">
        <ele>23.4</ele>
        <time>2019-07-10T06:13:13Z</time>
      </trkpt>
      <trkpt lat="43.95134" lon="4.81936">
        <ele>23.4</ele>
        <time>2019-07-10T06:13:14Z</time>
      </trkpt>
      <trkpt lat="43.95137" lon="4.81917">
        <ele>23.4</ele>
        <time>2019-07-10T06:13:18Z</time>
      </trkpt>
      <trkpt lat="43.95137" lon="4.81906">
        <ele>23.6</ele>
        <time>2019-07-10T06:13:21Z</time>
      </trkpt>
      <trkpt lat="43.95136" lon="4.81903">
        <ele>23.4</ele>
        <time>2019-07-10T06:13:22Z</time>
      </trkpt>
      <trkpt lat="43.95137" lon="4.81896">
        <ele>23.4</ele>
        <time>2019-07-10T06:13:24Z</time>
      </trkpt>
      <trkpt lat="43.95138" lon="4.81892">
        <ele>23.4</ele>
        <time>2019-07-10T06:13:25Z</time>
      </trkpt>
      <trkpt lat="43.95138" lon="4.81888">
        <ele>23.2</ele>
        <time>2019-07-10T06:13:26Z</time>
      </trkpt>
      <trkpt lat="43.95143" lon="4.81869">
        <ele>22.8</ele>
        <time>2019-07-10T06:13:30Z</time>
      </trkpt>
      <trkpt lat="43.95145" lon="4.81864">
        <ele>22.8</ele>
        <time>2019-07-10T06:13:31Z</time>
      </trkpt>
      <trkpt lat="43.95153" lon="4.81845">
        <ele>22.4</ele>
        <time>2019-07-10T06:13:35Z</time>
      </trkpt>
      <trkpt lat="43.95154" lon="4.8184">
        <ele>22.4</ele>
        <time>2019-07-10T06:13:36Z</time>
      </trkpt>
      <trkpt lat="43.95159" lon="4.81815">
        <ele>22.6</ele>
        <time>2019-07-10T06:13:40Z</time>
      </trkpt>
      <trkpt lat="43.95159" lon="4.81809">
        <ele>22.6</ele>
        <time>2019-07-10T06:13:41Z</time>
      </trkpt>
      <trkpt lat="43.9516" lon="4.81803">
        <ele>22.4</ele>
        <time>2019-07-10T06:13:42Z</time>
      </trkpt>
      <trkpt lat="43.95161" lon="4.81791">
        <ele>22.4</ele>
        <time>2019-07-10T06:13:44Z</time>
      </trkpt>
      <trkpt lat="43.95162" lon="4.81786">
        <ele>22.4</ele>
        <time>2019-07-10T06:13:45Z</time>
      </trkpt>
      <trkpt lat="43.95163" lon="4.8178">
        <ele>22.4</ele>
        <time>2019-07-10T06:13:46Z</time>
      </trkpt>
      <trkpt lat="43.95164" lon="4.81769">
        <ele>22</ele>
        <time>2019-07-10T06:13:48Z</time>
      </trkpt>
      <trkpt lat="43.95165" lon="4.81763">
        <ele>22</ele>
        <time>2019-07-10T06:13:49Z</time>
      </trkpt>
      <trkpt lat="43.95169" lon="4.81726">
        <ele>21.8</ele>
        <time>2019-07-10T06:13:55Z</time>
      </trkpt>
      <trkpt lat="43.95165" lon="4.81691">
        <ele>21.8</ele>
        <time>2019-07-10T06:14:01Z</time>
      </trkpt>
      <trkpt lat="43.95163" lon="4.8167">
        <ele>22</ele>
        <time>2019-07-10T06:14:04Z</time>
      </trkpt>
      <trkpt lat="43.95163" lon="4.81659">
        <ele>21.8</ele>
        <time>2019-07-10T06:14:06Z</time>
      </trkpt>
      <trkpt lat="43.95163" lon="4.81652">
        <ele>21.8</ele>
        <time>2019-07-10T06:14:07Z</time>
      </trkpt>
      <trkpt lat="43.9516" lon="4.8164">
        <ele>21.8</ele>
        <time>2019-07-10T06:14:09Z</time>
      </trkpt>
      <trkpt lat="43.95153" lon="4.81627">
        <ele>22</ele>
        <time>2019-07-10T06:14:11Z</time>
      </trkpt>
      <trkpt lat="43.95149" lon="4.81621">
        <ele>22</ele>
        <time>2019-07-10T06:14:12Z</time>
      </trkpt>
      <trkpt lat="43.95144" lon="4.81614">
        <ele>22.2</ele>
        <time>2019-07-10T06:14:13Z</time>
      </trkpt>
      <trkpt lat="43.95136" lon="4.81595">
        <ele>21.8</ele>
        <time>2019-07-10T06:14:16Z</time>
      </trkpt>
      <trkpt lat="43.95134" lon="4.81589">
        <ele>22</ele>
        <time>2019-07-10T06:14:17Z</time>
      </trkpt>
      <trkpt lat="43.95132" lon="4.81582">
        <ele>21.6</ele>
        <time>2019-07-10T06:14:18Z</time>
      </trkpt>
      <trkpt lat="43.9513" lon="4.81577">
        <ele>21.6</ele>
        <time>2019-07-10T06:14:19Z</time>
      </trkpt>
      <trkpt lat="43.95128" lon="4.81571">
        <ele>21.6</ele>
        <time>2019-07-10T06:14:20Z</time>
      </trkpt>
      <trkpt lat="43.95125" lon="4.81565">
        <ele>21.6</ele>
        <time>2019-07-10T06:14:21Z</time>
      </trkpt>
      <trkpt lat="43.95121" lon="4.81558">
        <ele>21.4</ele>
        <time>2019-07-10T06:14:22Z</time>
      </trkpt>
      <trkpt lat="43.95113" lon="4.81545">
        <ele>21.4</ele>
        <time>2019-07-10T06:14:24Z</time>
      </trkpt>
      <trkpt lat="43.95109" lon="4.81538">
        <ele>21.2</ele>
        <time>2019-07-10T06:14:25Z</time>
      </trkpt>
      <trkpt lat="43.95104" lon="4.81526">
        <ele>21.4</ele>
        <time>2019-07-10T06:14:27Z</time>
      </trkpt>
      <trkpt lat="43.95102" lon="4.81521">
        <ele>21.4</ele>
        <time>2019-07-10T06:14:28Z</time>
      </trkpt>
      <trkpt lat="43.95099" lon="4.81516">
        <ele>21.4</ele>
        <time>2019-07-10T06:14:29Z</time>
      </trkpt>
      <trkpt lat="43.9509" lon="4.81498">
        <ele>21.2</ele>
        <time>2019-07-10T06:14:32Z</time>
      </trkpt>
      <trkpt lat="43.95086" lon="4.81492">
        <ele>21.2</ele>
        <time>2019-07-10T06:14:33Z</time>
      </trkpt>
      <trkpt lat="43.95083" lon="4.81486">
        <ele>21.4</ele>
        <time>2019-07-10T06:14:34Z</time>
      </trkpt>
      <trkpt lat="43.95077" lon="4.81474">
        <ele>21</ele>
        <time>2019-07-10T06:14:36Z</time>
      </trkpt>
      <trkpt lat="43.95069" lon="4.81462">
        <ele>21</ele>
        <time>2019-07-10T06:14:38Z</time>
      </trkpt>
      <trkpt lat="43.95064" lon="4.8145">
        <ele>21.2</ele>
        <time>2019-07-10T06:14:40Z</time>
      </trkpt>
      <trkpt lat="43.95059" lon="4.81438">
        <ele>21.4</ele>
        <time>2019-07-10T06:14:42Z</time>
      </trkpt>
      <trkpt lat="43.95055" lon="4.81432">
        <ele>21.2</ele>
        <time>2019-07-10T06:14:43Z</time>
      </trkpt>
      <trkpt lat="43.95046" lon="4.81414">
        <ele>21.4</ele>
        <time>2019-07-10T06:14:46Z</time>
      </trkpt>
      <trkpt lat="43.95043" lon="4.81408">
        <ele>21.4</ele>
        <time>2019-07-10T06:14:47Z</time>
      </trkpt>
      <trkpt lat="43.95029" lon="4.81375">
        <ele>21.8</ele>
        <time>2019-07-10T06:14:52Z</time>
      </trkpt>
      <trkpt lat="43.95026" lon="4.81368">
        <ele>21.8</ele>
        <time>2019-07-10T06:14:53Z</time>
      </trkpt>
      <trkpt lat="43.9502" lon="4.81356">
        <ele>21.8</ele>
        <time>2019-07-10T06:14:55Z</time>
      </trkpt>
      <trkpt lat="43.95017" lon="4.8135">
        <ele>21.8</ele>
        <time>2019-07-10T06:14:56Z</time>
      </trkpt>
      <trkpt lat="43.95014" lon="4.81344">
        <ele>21.8</ele>
        <time>2019-07-10T06:14:57Z</time>
      </trkpt>
      <trkpt lat="43.95012" lon="4.81337">
        <ele>21.8</ele>
        <time>2019-07-10T06:14:58Z</time>
      </trkpt>
      <trkpt lat="43.9501" lon="4.81331">
        <ele>22</ele>
        <time>2019-07-10T06:14:59Z</time>
      </trkpt>
      <trkpt lat="43.95004" lon="4.81314">
        <ele>22</ele>
        <time>2019-07-10T06:15:02Z</time>
      </trkpt>
      <trkpt lat="43.95002" lon="4.81311">
        <ele>21.8</ele>
        <time>2019-07-10T06:15:03Z</time>
      </trkpt>
      <trkpt lat="43.94999" lon="4.81304">
        <ele>21.8</ele>
        <time>2019-07-10T06:15:04Z</time>
      </trkpt>
      <trkpt lat="43.94995" lon="4.81296">
        <ele>22</ele>
        <time>2019-07-10T06:15:06Z</time>
      </trkpt>
      <trkpt lat="43.94992" lon="4.81293">
        <ele>22.2</ele>
        <time>2019-07-10T06:15:07Z</time>
      </trkpt>
      <trkpt lat="43.94988" lon="4.81286">
        <ele>22.4</ele>
        <time>2019-07-10T06:15:09Z</time>
      </trkpt>
      <trkpt lat="43.94984" lon="4.81277">
        <ele>22.4</ele>
        <time>2019-07-10T06:15:11Z</time>
      </trkpt>
      <trkpt lat="43.94981" lon="4.81273">
        <ele>22.4</ele>
        <time>2019-07-10T06:15:12Z</time>
      </trkpt>
      <trkpt lat="43.94975" lon="4.81266">
        <ele>22.6</ele>
        <time>2019-07-10T06:15:14Z</time>
      </trkpt>
      <trkpt lat="43.94971" lon="4.81257">
        <ele>22.8</ele>
        <time>2019-07-10T06:15:16Z</time>
      </trkpt>
      <trkpt lat="43.94967" lon="4.81246">
        <ele>22.4</ele>
        <time>2019-07-10T06:15:18Z</time>
      </trkpt>
      <trkpt lat="43.94965" lon="4.81241">
        <ele>22.4</ele>
        <time>2019-07-10T06:15:19Z</time>
      </trkpt>
      <trkpt lat="43.94961" lon="4.8123">
        <ele>22.2</ele>
        <time>2019-07-10T06:15:21Z</time>
      </trkpt>
      <trkpt lat="43.94959" lon="4.81225">
        <ele>22</ele>
        <time>2019-07-10T06:15:22Z</time>
      </trkpt>
      <trkpt lat="43.94957" lon="4.81221">
        <ele>22</ele>
        <time>2019-07-10T06:15:23Z</time>
      </trkpt>
      <trkpt lat="43.94955" lon="4.81217">
        <ele>22</ele>
        <time>2019-07-10T06:15:24Z</time>
      </trkpt>
      <trkpt lat="43.94954" lon="4.81213">
        <ele>21.8</ele>
        <time>2019-07-10T06:15:25Z</time>
      </trkpt>
      <trkpt lat="43.9495" lon="4.81204">
        <ele>21.4</ele>
        <time>2019-07-10T06:15:27Z</time>
      </trkpt>
      <trkpt lat="43.94944" lon="4.81196">
        <ele>21.4</ele>
        <time>2019-07-10T06:15:29Z</time>
      </trkpt>
      <trkpt lat="43.94941" lon="4.81183">
        <ele>21.4</ele>
        <time>2019-07-10T06:15:31Z</time>
      </trkpt>
      <trkpt lat="43.9494" lon="4.81166">
        <ele>21.6</ele>
        <time>2019-07-10T06:15:34Z</time>
      </trkpt>
      <trkpt lat="43.9494" lon="4.81162">
        <ele>22</ele>
        <time>2019-07-10T06:15:35Z</time>
      </trkpt>
      <trkpt lat="43.94942" lon="4.81156">
        <ele>22</ele>
        <time>2019-07-10T06:15:37Z</time>
      </trkpt>
      <trkpt lat="43.94939" lon="4.81137">
        <ele>22.4</ele>
        <time>2019-07-10T06:15:41Z</time>
      </trkpt>
      <trkpt lat="43.94939" lon="4.81132">
        <ele>22.4</ele>
        <time>2019-07-10T06:15:42Z</time>
      </trkpt>
      <trkpt lat="43.94939" lon="4.81116">
        <ele>22.4</ele>
        <time>2019-07-10T06:15:45Z</time>
      </trkpt>
      <trkpt lat="43.94937" lon="4.81111">
        <ele>22.4</ele>
        <time>2019-07-10T06:15:46Z</time>
      </trkpt>
      <trkpt lat="43.94935" lon="4.81107">
        <ele>22.2</ele>
        <time>2019-07-10T06:15:47Z</time>
      </trkpt>
      <trkpt lat="43.94928" lon="4.81092">
        <ele>21.8</ele>
        <time>2019-07-10T06:15:50Z</time>
      </trkpt>
      <trkpt lat="43.94928" lon="4.81087">
        <ele>21.8</ele>
        <time>2019-07-10T06:15:51Z</time>
      </trkpt>
      <trkpt lat="43.94927" lon="4.81059">
        <ele>21.8</ele>
        <time>2019-07-10T06:15:55Z</time>
      </trkpt>
      <trkpt lat="43.94923" lon="4.81046">
        <ele>22.2</ele>
        <time>2019-07-10T06:15:58Z</time>
      </trkpt>
      <trkpt lat="43.94921" lon="4.81043">
        <ele>22</ele>
        <time>2019-07-10T06:15:59Z</time>
      </trkpt>
      <trkpt lat="43.94917" lon="4.81037">
        <ele>22.2</ele>
        <time>2019-07-10T06:16:01Z</time>
      </trkpt>
      <trkpt lat="43.94914" lon="4.81023">
        <ele>22.4</ele>
        <time>2019-07-10T06:16:03Z</time>
      </trkpt>
      <trkpt lat="43.94913" lon="4.8101">
        <ele>22.4</ele>
        <time>2019-07-10T06:16:07Z</time>
      </trkpt>
      <trkpt lat="43.94915" lon="4.81007">
        <ele>22.6</ele>
        <time>2019-07-10T06:16:08Z</time>
      </trkpt>
      <trkpt lat="43.94915" lon="4.81005">
        <ele>22.8</ele>
        <time>2019-07-10T06:16:09Z</time>
      </trkpt>
      <trkpt lat="43.94915" lon="4.81002">
        <ele>22.8</ele>
        <time>2019-07-10T06:16:10Z</time>
      </trkpt>
      <trkpt lat="43.94915" lon="4.80995">
        <ele>23</ele>
        <time>2019-07-10T06:16:11Z</time>
      </trkpt>
      <trkpt lat="43.9491" lon="4.80969">
        <ele>23.4</ele>
        <time>2019-07-10T06:16:18Z</time>
      </trkpt>
      <trkpt lat="43.94909" lon="4.80965">
        <ele>23.2</ele>
        <time>2019-07-10T06:16:19Z</time>
      </trkpt>
      <trkpt lat="43.94907" lon="4.80957">
        <ele>23.6</ele>
        <time>2019-07-10T06:16:21Z</time>
      </trkpt>
      <trkpt lat="43.94908" lon="4.8095">
        <ele>23.6</ele>
        <time>2019-07-10T06:16:22Z</time>
      </trkpt>
      <trkpt lat="43.94907" lon="4.80941">
        <ele>23.8</ele>
        <time>2019-07-10T06:16:24Z</time>
      </trkpt>
      <trkpt lat="43.94906" lon="4.80936">
        <ele>23.8</ele>
        <time>2019-07-10T06:16:25Z</time>
      </trkpt>
      <trkpt lat="43.94904" lon="4.80929">
        <ele>23.8</ele>
        <time>2019-07-10T06:16:27Z</time>
      </trkpt>
      <trkpt lat="43.949" lon="4.80914">
        <ele>23.6</ele>
        <time>2019-07-10T06:16:29Z</time>
      </trkpt>
      <trkpt lat="43.949" lon="4.80884">
        <ele>23</ele>
        <time>2019-07-10T06:16:34Z</time>
      </trkpt>
      <trkpt lat="43.94901" lon="4.80874">
        <ele>23</ele>
        <time>2019-07-10T06:16:36Z</time>
      </trkpt>
      <trkpt lat="43.94902" lon="4.80869">
        <ele>23</ele>
        <time>2019-07-10T06:16:37Z</time>
      </trkpt>
      <trkpt lat="43.94905" lon="4.80851">
        <ele>23.4</ele>
        <time>2019-07-10T06:16:40Z</time>
      </trkpt>
      <trkpt lat="43.94908" lon="4.80837">
        <ele>23.6</ele>
        <time>2019-07-10T06:16:42Z</time>
      </trkpt>
      <trkpt lat="43.94909" lon="4.8083">
        <ele>23.6</ele>
        <time>2019-07-10T06:16:43Z</time>
      </trkpt>
      <trkpt lat="43.9491" lon="4.80816">
        <ele>23.8</ele>
        <time>2019-07-10T06:16:45Z</time>
      </trkpt>
      <trkpt lat="43.94911" lon="4.80809">
        <ele>23.8</ele>
        <time>2019-07-10T06:16:46Z</time>
      </trkpt>
      <trkpt lat="43.94912" lon="4.80789">
        <ele>23.8</ele>
        <time>2019-07-10T06:16:49Z</time>
      </trkpt>
      <trkpt lat="43.94911" lon="4.8077">
        <ele>24</ele>
        <time>2019-07-10T06:16:52Z</time>
      </trkpt>
      <trkpt lat="43.94907" lon="4.8076">
        <ele>24</ele>
        <time>2019-07-10T06:16:54Z</time>
      </trkpt>
      <trkpt lat="43.94898" lon="4.80741">
        <ele>24.6</ele>
        <time>2019-07-10T06:16:58Z</time>
      </trkpt>
      <trkpt lat="43.94892" lon="4.80727">
        <ele>24.8</ele>
        <time>2019-07-10T06:17:01Z</time>
      </trkpt>
      <trkpt lat="43.9489" lon="4.80716">
        <ele>24.6</ele>
        <time>2019-07-10T06:17:03Z</time>
      </trkpt>
      <trkpt lat="43.94889" lon="4.80695">
        <ele>24.8</ele>
        <time>2019-07-10T06:17:07Z</time>
      </trkpt>
      <trkpt lat="43.94888" lon="4.80681">
        <ele>25</ele>
        <time>2019-07-10T06:17:10Z</time>
      </trkpt>
      <trkpt lat="43.94886" lon="4.80674">
        <ele>25.2</ele>
        <time>2019-07-10T06:17:12Z</time>
      </trkpt>
      <trkpt lat="43.94885" lon="4.80655">
        <ele>25.4</ele>
        <time>2019-07-10T06:17:16Z</time>
      </trkpt>
      <trkpt lat="43.94885" lon="4.80651">
        <ele>25.2</ele>
        <time>2019-07-10T06:17:17Z</time>
      </trkpt>
      <trkpt lat="43.94884" lon="4.80646">
        <ele>25.4</ele>
        <time>2019-07-10T06:17:18Z</time>
      </trkpt>
      <trkpt lat="43.94885" lon="4.80644">
        <ele>25.2</ele>
        <time>2019-07-10T06:17:19Z</time>
      </trkpt>
      <trkpt lat="43.94885" lon="4.8064">
        <ele>25.4</ele>
        <time>2019-07-10T06:17:20Z</time>
      </trkpt>
      <trkpt lat="43.94883" lon="4.80637">
        <ele>25.4</ele>
        <time>2019-07-10T06:17:21Z</time>
      </trkpt>
      <trkpt lat="43.94881" lon="4.80632">
        <ele>25.2</ele>
        <time>2019-07-10T06:17:22Z</time>
      </trkpt>
      <trkpt lat="43.94879" lon="4.80628">
        <ele>25.2</ele>
        <time>2019-07-10T06:17:23Z</time>
      </trkpt>
      <trkpt lat="43.94878" lon="4.80613">
        <ele>24.8</ele>
        <time>2019-07-10T06:17:26Z</time>
      </trkpt>
      <trkpt lat="43.94879" lon="4.8061">
        <ele>25</ele>
        <time>2019-07-10T06:17:27Z</time>
      </trkpt>
      <trkpt lat="43.9488" lon="4.80607">
        <ele>25.2</ele>
        <time>2019-07-10T06:17:28Z</time>
      </trkpt>
      <trkpt lat="43.9488" lon="4.80604">
        <ele>25</ele>
        <time>2019-07-10T06:17:29Z</time>
      </trkpt>
      <trkpt lat="43.9488" lon="4.80599">
        <ele>25</ele>
        <time>2019-07-10T06:17:30Z</time>
      </trkpt>
      <trkpt lat="43.94879" lon="4.80565">
        <ele>24.8</ele>
        <time>2019-07-10T06:17:36Z</time>
      </trkpt>
      <trkpt lat="43.9488" lon="4.80526">
        <ele>24.8</ele>
        <time>2019-07-10T06:17:42Z</time>
      </trkpt>
      <trkpt lat="43.94882" lon="4.80513">
        <ele>24.6</ele>
        <time>2019-07-10T06:17:44Z</time>
      </trkpt>
      <trkpt lat="43.94883" lon="4.80506">
        <ele>24.6</ele>
        <time>2019-07-10T06:17:45Z</time>
      </trkpt>
      <trkpt lat="43.94884" lon="4.80479">
        <ele>24.2</ele>
        <time>2019-07-10T06:17:49Z</time>
      </trkpt>
      <trkpt lat="43.94882" lon="4.80459">
        <ele>23.4</ele>
        <time>2019-07-10T06:17:51Z</time>
      </trkpt>
      <trkpt lat="43.94883" lon="4.80445">
        <ele>23</ele>
        <time>2019-07-10T06:17:53Z</time>
      </trkpt>
      <trkpt lat="43.94883" lon="4.80438">
        <ele>22.6</ele>
        <time>2019-07-10T06:17:54Z</time>
      </trkpt>
      <trkpt lat="43.94883" lon="4.8043">
        <ele>22.4</ele>
        <time>2019-07-10T06:17:55Z</time>
      </trkpt>
      <trkpt lat="43.94884" lon="4.80416">
        <ele>22</ele>
        <time>2019-07-10T06:17:57Z</time>
      </trkpt>
      <trkpt lat="43.94886" lon="4.80409">
        <ele>22</ele>
        <time>2019-07-10T06:17:58Z</time>
      </trkpt>
      <trkpt lat="43.94888" lon="4.80402">
        <ele>21.8</ele>
        <time>2019-07-10T06:17:59Z</time>
      </trkpt>
      <trkpt lat="43.9489" lon="4.80386">
        <ele>21.4</ele>
        <time>2019-07-10T06:18:02Z</time>
      </trkpt>
      <trkpt lat="43.9489" lon="4.80382">
        <ele>21.2</ele>
        <time>2019-07-10T06:18:03Z</time>
      </trkpt>
      <trkpt lat="43.94892" lon="4.80377">
        <ele>20.8</ele>
        <time>2019-07-10T06:18:06Z</time>
      </trkpt>
      <trkpt lat="43.94893" lon="4.80375">
        <ele>20.8</ele>
        <time>2019-07-10T06:18:07Z</time>
      </trkpt>
      <trkpt lat="43.94894" lon="4.80374">
        <ele>20.6</ele>
        <time>2019-07-10T06:18:10Z</time>
      </trkpt>
      <trkpt lat="43.94894" lon="4.80374">
        <ele>20.6</ele>
        <time>2019-07-10T06:18:12Z</time>
      </trkpt>
      <trkpt lat="43.94893" lon="4.80362">
        <ele>20.6</ele>
        <time>2019-07-10T06:18:17Z</time>
      </trkpt>
      <trkpt lat="43.94893" lon="4.80358">
        <ele>20.6</ele>
        <time>2019-07-10T06:18:18Z</time>
      </trkpt>
      <trkpt lat="43.94896" lon="4.80349">
        <ele>20.4</ele>
        <time>2019-07-10T06:18:20Z</time>
      </trkpt>
      <trkpt lat="43.94898" lon="4.80343">
        <ele>20.2</ele>
        <time>2019-07-10T06:18:21Z</time>
      </trkpt>
      <trkpt lat="43.949" lon="4.80337">
        <ele>20.4</ele>
        <time>2019-07-10T06:18:22Z</time>
      </trkpt>
      <trkpt lat="43.94903" lon="4.8033">
        <ele>20</ele>
        <time>2019-07-10T06:18:23Z</time>
      </trkpt>
      <trkpt lat="43.94905" lon="4.80324">
        <ele>20</ele>
        <time>2019-07-10T06:18:24Z</time>
      </trkpt>
      <trkpt lat="43.94907" lon="4.80302">
        <ele>19.6</ele>
        <time>2019-07-10T06:18:28Z</time>
      </trkpt>
      <trkpt lat="43.94909" lon="4.80297">
        <ele>19.8</ele>
        <time>2019-07-10T06:18:29Z</time>
      </trkpt>
      <trkpt lat="43.94912" lon="4.80286">
        <ele>19.8</ele>
        <time>2019-07-10T06:18:31Z</time>
      </trkpt>
      <trkpt lat="43.94913" lon="4.80281">
        <ele>20</ele>
        <time>2019-07-10T06:18:32Z</time>
      </trkpt>
      <trkpt lat="43.94914" lon="4.80277">
        <ele>20</ele>
        <time>2019-07-10T06:18:33Z</time>
      </trkpt>
      <trkpt lat="43.94915" lon="4.80273">
        <ele>20</ele>
        <time>2019-07-10T06:18:34Z</time>
      </trkpt>
      <trkpt lat="43.94916" lon="4.80269">
        <ele>20.2</ele>
        <time>2019-07-10T06:18:35Z</time>
      </trkpt>
      <trkpt lat="43.94921" lon="4.80256">
        <ele>20.4</ele>
        <time>2019-07-10T06:18:39Z</time>
      </trkpt>
      <trkpt lat="43.94922" lon="4.80249">
        <ele>20.4</ele>
        <time>2019-07-10T06:18:41Z</time>
      </trkpt>
      <trkpt lat="43.94923" lon="4.80244">
        <ele>20.2</ele>
        <time>2019-07-10T06:18:42Z</time>
      </trkpt>
      <trkpt lat="43.94924" lon="4.80238">
        <ele>20.4</ele>
        <time>2019-07-10T06:18:44Z</time>
      </trkpt>
      <trkpt lat="43.94923" lon="4.80236">
        <ele>20.4</ele>
        <time>2019-07-10T06:18:45Z</time>
      </trkpt>
      <trkpt lat="43.94923" lon="4.80227">
        <ele>20.2</ele>
        <time>2019-07-10T06:18:48Z</time>
      </trkpt>
      <trkpt lat="43.94923" lon="4.80224">
        <ele>20.4</ele>
        <time>2019-07-10T06:18:49Z</time>
      </trkpt>
      <trkpt lat="43.94923" lon="4.80223">
        <ele>20.4</ele>
        <time>2019-07-10T06:18:52Z</time>
      </trkpt>
      <trkpt lat="43.94927" lon="4.80223">
        <ele>20</ele>
        <time>2019-07-10T06:19:02Z</time>
      </trkpt>
      <trkpt lat="43.94941" lon="4.80229">
        <ele>20.2</ele>
        <time>2019-07-10T06:19:07Z</time>
      </trkpt>
      <trkpt lat="43.94953" lon="4.80231">
        <ele>20.4</ele>
        <time>2019-07-10T06:19:10Z</time>
      </trkpt>
      <trkpt lat="43.94962" lon="4.80234">
        <ele>20.6</ele>
        <time>2019-07-10T06:19:12Z</time>
      </trkpt>
      <trkpt lat="43.94977" lon="4.80238">
        <ele>20.8</ele>
        <time>2019-07-10T06:19:15Z</time>
      </trkpt>
      <trkpt lat="43.94986" lon="4.80242">
        <ele>20.8</ele>
        <time>2019-07-10T06:19:17Z</time>
      </trkpt>
      <trkpt lat="43.94995" lon="4.80245">
        <ele>20.8</ele>
        <time>2019-07-10T06:19:19Z</time>
      </trkpt>
      <trkpt lat="43.94998" lon="4.80247">
        <ele>21</ele>
        <time>2019-07-10T06:19:20Z</time>
      </trkpt>
      <trkpt lat="43.95006" lon="4.8025">
        <ele>20.8</ele>
        <time>2019-07-10T06:19:22Z</time>
      </trkpt>
      <trkpt lat="43.95008" lon="4.80252">
        <ele>21</ele>
        <time>2019-07-10T06:19:23Z</time>
      </trkpt>
      <trkpt lat="43.95011" lon="4.80254">
        <ele>20.8</ele>
        <time>2019-07-10T06:19:24Z</time>
      </trkpt>
      <trkpt lat="43.95013" lon="4.80257">
        <ele>20.8</ele>
        <time>2019-07-10T06:19:26Z</time>
      </trkpt>
      <trkpt lat="43.95014" lon="4.80258">
        <ele>20.6</ele>
        <time>2019-07-10T06:19:28Z</time>
      </trkpt>
      <trkpt lat="43.95016" lon="4.80259">
        <ele>20.6</ele>
        <time>2019-07-10T06:19:30Z</time>
      </trkpt>
      <trkpt lat="43.95021" lon="4.8026">
        <ele>20.4</ele>
        <time>2019-07-10T06:19:34Z</time>
      </trkpt>
      <trkpt lat="43.95025" lon="4.8026">
        <ele>20.4</ele>
        <time>2019-07-10T06:19:36Z</time>
      </trkpt>
      <trkpt lat="43.95026" lon="4.80259">
        <ele>20.4</ele>
        <time>2019-07-10T06:19:37Z</time>
      </trkpt>
      <trkpt lat="43.95028" lon="4.80258">
        <ele>20.4</ele>
        <time>2019-07-10T06:19:38Z</time>
      </trkpt>
      <trkpt lat="43.95029" lon="4.80256">
        <ele>20.4</ele>
        <time>2019-07-10T06:19:39Z</time>
      </trkpt>
      <trkpt lat="43.9503" lon="4.80253">
        <ele>20.6</ele>
        <time>2019-07-10T06:19:40Z</time>
      </trkpt>
      <trkpt lat="43.95033" lon="4.80246">
        <ele>20.8</ele>
        <time>2019-07-10T06:19:43Z</time>
      </trkpt>
      <trkpt lat="43.95037" lon="4.80245">
        <ele>21</ele>
        <time>2019-07-10T06:19:45Z</time>
      </trkpt>
      <trkpt lat="43.9504" lon="4.80246">
        <ele>21.2</ele>
        <time>2019-07-10T06:19:46Z</time>
      </trkpt>
      <trkpt lat="43.9505" lon="4.80246">
        <ele>21.6</ele>
        <time>2019-07-10T06:19:50Z</time>
      </trkpt>
      <trkpt lat="43.95052" lon="4.80246">
        <ele>21.8</ele>
        <time>2019-07-10T06:19:51Z</time>
      </trkpt>
      <trkpt lat="43.95066" lon="4.80253">
        <ele>23</ele>
        <time>2019-07-10T06:19:56Z</time>
      </trkpt>
      <trkpt lat="43.95069" lon="4.80252">
        <ele>23</ele>
        <time>2019-07-10T06:19:57Z</time>
      </trkpt>
      <trkpt lat="43.95083" lon="4.80237">
        <ele>23.2</ele>
        <time>2019-07-10T06:20:03Z</time>
      </trkpt>
      <trkpt lat="43.95088" lon="4.8023">
        <ele>23.2</ele>
        <time>2019-07-10T06:20:05Z</time>
      </trkpt>
      <trkpt lat="43.9509" lon="4.8022">
        <ele>23.2</ele>
        <time>2019-07-10T06:20:07Z</time>
      </trkpt>
      <trkpt lat="43.95091" lon="4.80215">
        <ele>23.4</ele>
        <time>2019-07-10T06:20:08Z</time>
      </trkpt>
      <trkpt lat="43.95097" lon="4.80191">
        <ele>23.6</ele>
        <time>2019-07-10T06:20:13Z</time>
      </trkpt>
      <trkpt lat="43.95098" lon="4.80186">
        <ele>23.8</ele>
        <time>2019-07-10T06:20:14Z</time>
      </trkpt>
      <trkpt lat="43.95101" lon="4.80176">
        <ele>24</ele>
        <time>2019-07-10T06:20:16Z</time>
      </trkpt>
      <trkpt lat="43.95106" lon="4.80158">
        <ele>25.2</ele>
        <time>2019-07-10T06:20:20Z</time>
      </trkpt>
      <trkpt lat="43.95113" lon="4.80134">
        <ele>26.6</ele>
        <time>2019-07-10T06:20:25Z</time>
      </trkpt>
      <trkpt lat="43.95116" lon="4.80125">
        <ele>26.8</ele>
        <time>2019-07-10T06:20:27Z</time>
      </trkpt>
      <trkpt lat="43.9512" lon="4.80111">
        <ele>27</ele>
        <time>2019-07-10T06:20:30Z</time>
      </trkpt>
      <trkpt lat="43.95122" lon="4.80101">
        <ele>27.2</ele>
        <time>2019-07-10T06:20:32Z</time>
      </trkpt>
      <trkpt lat="43.95126" lon="4.80087">
        <ele>27.4</ele>
        <time>2019-07-10T06:20:35Z</time>
      </trkpt>
      <trkpt lat="43.95137" lon="4.8005">
        <ele>28.6</ele>
        <time>2019-07-10T06:20:43Z</time>
      </trkpt>
      <trkpt lat="43.95138" lon="4.80047">
        <ele>28.8</ele>
        <time>2019-07-10T06:20:44Z</time>
      </trkpt>
      <trkpt lat="43.95142" lon="4.80036">
        <ele>29</ele>
        <time>2019-07-10T06:20:46Z</time>
      </trkpt>
      <trkpt lat="43.95143" lon="4.80031">
        <ele>28.8</ele>
        <time>2019-07-10T06:20:47Z</time>
      </trkpt>
      <trkpt lat="43.95145" lon="4.80026">
        <ele>29</ele>
        <time>2019-07-10T06:20:48Z</time>
      </trkpt>
      <trkpt lat="43.95154" lon="4.79993">
        <ele>29.6</ele>
        <time>2019-07-10T06:20:54Z</time>
      </trkpt>
      <trkpt lat="43.95164" lon="4.79957">
        <ele>29.8</ele>
        <time>2019-07-10T06:21:00Z</time>
      </trkpt>
      <trkpt lat="43.9517" lon="4.79938">
        <ele>29.6</ele>
        <time>2019-07-10T06:21:03Z</time>
      </trkpt>
      <trkpt lat="43.95178" lon="4.7991">
        <ele>29.4</ele>
        <time>2019-07-10T06:21:07Z</time>
      </trkpt>
      <trkpt lat="43.95182" lon="4.79896">
        <ele>29.6</ele>
        <time>2019-07-10T06:21:09Z</time>
      </trkpt>
      <trkpt lat="43.95194" lon="4.79853">
        <ele>29.4</ele>
        <time>2019-07-10T06:21:15Z</time>
      </trkpt>
      <trkpt lat="43.95203" lon="4.79823">
        <ele>29.2</ele>
        <time>2019-07-10T06:21:19Z</time>
      </trkpt>
      <trkpt lat="43.95212" lon="4.79795">
        <ele>29</ele>
        <time>2019-07-10T06:21:23Z</time>
      </trkpt>
      <trkpt lat="43.95214" lon="4.79786">
        <ele>28.8</ele>
        <time>2019-07-10T06:21:24Z</time>
      </trkpt>
      <trkpt lat="43.95225" lon="4.7975">
        <ele>28.4</ele>
        <time>2019-07-10T06:21:29Z</time>
      </trkpt>
      <trkpt lat="43.95228" lon="4.79742">
        <ele>28</ele>
        <time>2019-07-10T06:21:30Z</time>
      </trkpt>
      <trkpt lat="43.95235" lon="4.79721">
        <ele>27.8</ele>
        <time>2019-07-10T06:21:33Z</time>
      </trkpt>
      <trkpt lat="43.9524" lon="4.79708">
        <ele>27.6</ele>
        <time>2019-07-10T06:21:35Z</time>
      </trkpt>
      <trkpt lat="43.95246" lon="4.797">
        <ele>27.2</ele>
        <time>2019-07-10T06:21:37Z</time>
      </trkpt>
      <trkpt lat="43.95251" lon="4.79695">
        <ele>26.8</ele>
        <time>2019-07-10T06:21:39Z</time>
      </trkpt>
      <trkpt lat="43.95254" lon="4.79687">
        <ele>26.2</ele>
        <time>2019-07-10T06:21:41Z</time>
      </trkpt>
      <trkpt lat="43.95255" lon="4.79682">
        <ele>26</ele>
        <time>2019-07-10T06:21:42Z</time>
      </trkpt>
      <trkpt lat="43.95262" lon="4.79657">
        <ele>25.4</ele>
        <time>2019-07-10T06:21:47Z</time>
      </trkpt>
      <trkpt lat="43.95266" lon="4.7964">
        <ele>25.6</ele>
        <time>2019-07-10T06:21:50Z</time>
      </trkpt>
      <trkpt lat="43.95266" lon="4.79634">
        <ele>25.6</ele>
        <time>2019-07-10T06:21:51Z</time>
      </trkpt>
      <trkpt lat="43.95266" lon="4.79628">
        <ele>25.6</ele>
        <time>2019-07-10T06:21:52Z</time>
      </trkpt>
      <trkpt lat="43.95268" lon="4.79618">
        <ele>26</ele>
        <time>2019-07-10T06:21:54Z</time>
      </trkpt>
      <trkpt lat="43.95276" lon="4.79582">
        <ele>26.8</ele>
        <time>2019-07-10T06:22:00Z</time>
      </trkpt>
      <trkpt lat="43.95278" lon="4.79575">
        <ele>27</ele>
        <time>2019-07-10T06:22:01Z</time>
      </trkpt>
      <trkpt lat="43.95291" lon="4.79539">
        <ele>27</ele>
        <time>2019-07-10T06:22:07Z</time>
      </trkpt>
      <trkpt lat="43.95303" lon="4.79509">
        <ele>27</ele>
        <time>2019-07-10T06:22:13Z</time>
      </trkpt>
      <trkpt lat="43.95315" lon="4.79475">
        <ele>27</ele>
        <time>2019-07-10T06:22:20Z</time>
      </trkpt>
      <trkpt lat="43.95317" lon="4.7947">
        <ele>27.2</ele>
        <time>2019-07-10T06:22:21Z</time>
      </trkpt>
      <trkpt lat="43.95331" lon="4.79434">
        <ele>28</ele>
        <time>2019-07-10T06:22:28Z</time>
      </trkpt>
      <trkpt lat="43.95333" lon="4.79429">
        <ele>28</ele>
        <time>2019-07-10T06:22:29Z</time>
      </trkpt>
      <trkpt lat="43.95342" lon="4.79404">
        <ele>29.2</ele>
        <time>2019-07-10T06:22:34Z</time>
      </trkpt>
      <trkpt lat="43.95352" lon="4.79379">
        <ele>30.4</ele>
        <time>2019-07-10T06:22:39Z</time>
      </trkpt>
      <trkpt lat="43.9537" lon="4.79332">
        <ele>30.6</ele>
        <time>2019-07-10T06:22:48Z</time>
      </trkpt>
      <trkpt lat="43.95372" lon="4.79325">
        <ele>30.6</ele>
        <time>2019-07-10T06:22:49Z</time>
      </trkpt>
      <trkpt lat="43.95375" lon="4.7932">
        <ele>30.4</ele>
        <time>2019-07-10T06:22:50Z</time>
      </trkpt>
      <trkpt lat="43.954" lon="4.79252">
        <ele>30</ele>
        <time>2019-07-10T06:23:01Z</time>
      </trkpt>
      <trkpt lat="43.95417" lon="4.79212">
        <ele>29.2</ele>
        <time>2019-07-10T06:23:07Z</time>
      </trkpt>
      <trkpt lat="43.9542" lon="4.79206">
        <ele>29</ele>
        <time>2019-07-10T06:23:08Z</time>
      </trkpt>
      <trkpt lat="43.95424" lon="4.79201">
        <ele>28.8</ele>
        <time>2019-07-10T06:23:09Z</time>
      </trkpt>
      <trkpt lat="43.95438" lon="4.79187">
        <ele>28.2</ele>
        <time>2019-07-10T06:23:12Z</time>
      </trkpt>
      <trkpt lat="43.95445" lon="4.79178">
        <ele>27.6</ele>
        <time>2019-07-10T06:23:14Z</time>
      </trkpt>
      <trkpt lat="43.95448" lon="4.79167">
        <ele>27.4</ele>
        <time>2019-07-10T06:23:16Z</time>
      </trkpt>
      <trkpt lat="43.95449" lon="4.79162">
        <ele>27.2</ele>
        <time>2019-07-10T06:23:17Z</time>
      </trkpt>
      <trkpt lat="43.95452" lon="4.79147">
        <ele>26.8</ele>
        <time>2019-07-10T06:23:21Z</time>
      </trkpt>
      <trkpt lat="43.95453" lon="4.79144">
        <ele>26.4</ele>
        <time>2019-07-10T06:23:25Z</time>
      </trkpt>
      <trkpt lat="43.95453" lon="4.79144">
        <ele>26.6</ele>
        <time>2019-07-10T06:23:26Z</time>
      </trkpt>
      <trkpt lat="43.95455" lon="4.79139">
        <ele>26.4</ele>
        <time>2019-07-10T06:23:31Z</time>
      </trkpt>
      <trkpt lat="43.95458" lon="4.79136">
        <ele>26.6</ele>
        <time>2019-07-10T06:23:33Z</time>
      </trkpt>
      <trkpt lat="43.95464" lon="4.79128">
        <ele>26.6</ele>
        <time>2019-07-10T06:23:37Z</time>
      </trkpt>
      <trkpt lat="43.95465" lon="4.79126">
        <ele>27</ele>
        <time>2019-07-10T06:23:38Z</time>
      </trkpt>
      <trkpt lat="43.95466" lon="4.79124">
        <ele>27</ele>
        <time>2019-07-10T06:23:39Z</time>
      </trkpt>
      <trkpt lat="43.95467" lon="4.7912">
        <ele>27.2</ele>
        <time>2019-07-10T06:23:40Z</time>
      </trkpt>
      <trkpt lat="43.95469" lon="4.79115">
        <ele>27.2</ele>
        <time>2019-07-10T06:23:41Z</time>
      </trkpt>
      <trkpt lat="43.9547" lon="4.79111">
        <ele>27.2</ele>
        <time>2019-07-10T06:23:42Z</time>
      </trkpt>
      <trkpt lat="43.95473" lon="4.79097">
        <ele>28</ele>
        <time>2019-07-10T06:23:45Z</time>
      </trkpt>
      <trkpt lat="43.95482" lon="4.79072">
        <ele>28.6</ele>
        <time>2019-07-10T06:23:50Z</time>
      </trkpt>
      <trkpt lat="43.95485" lon="4.79052">
        <ele>29.2</ele>
        <time>2019-07-10T06:23:54Z</time>
      </trkpt>
      <trkpt lat="43.95486" lon="4.79031">
        <ele>30</ele>
        <time>2019-07-10T06:23:58Z</time>
      </trkpt>
      <trkpt lat="43.9548" lon="4.78998">
        <ele>31</ele>
        <time>2019-07-10T06:24:04Z</time>
      </trkpt>
      <trkpt lat="43.95479" lon="4.78993">
        <ele>31</ele>
        <time>2019-07-10T06:24:05Z</time>
      </trkpt>
      <trkpt lat="43.95474" lon="4.78962">
        <ele>32</ele>
        <time>2019-07-10T06:24:11Z</time>
      </trkpt>
      <trkpt lat="43.95471" lon="4.78943">
        <ele>32.2</ele>
        <time>2019-07-10T06:24:15Z</time>
      </trkpt>
      <trkpt lat="43.9547" lon="4.78939">
        <ele>32.6</ele>
        <time>2019-07-10T06:24:16Z</time>
      </trkpt>
      <trkpt lat="43.95464" lon="4.78916">
        <ele>34.2</ele>
        <time>2019-07-10T06:24:21Z</time>
      </trkpt>
      <trkpt lat="43.95456" lon="4.78884">
        <ele>35.6</ele>
        <time>2019-07-10T06:24:28Z</time>
      </trkpt>
      <trkpt lat="43.95453" lon="4.78871">
        <ele>36.2</ele>
        <time>2019-07-10T06:24:31Z</time>
      </trkpt>
      <trkpt lat="43.95446" lon="4.78838">
        <ele>37.4</ele>
        <time>2019-07-10T06:24:38Z</time>
      </trkpt>
      <trkpt lat="43.95445" lon="4.78833">
        <ele>37.6</ele>
        <time>2019-07-10T06:24:39Z</time>
      </trkpt>
      <trkpt lat="43.9544" lon="4.78806">
        <ele>38.2</ele>
        <time>2019-07-10T06:24:45Z</time>
      </trkpt>
      <trkpt lat="43.95437" lon="4.78798">
        <ele>38.8</ele>
        <time>2019-07-10T06:24:47Z</time>
      </trkpt>
      <trkpt lat="43.95436" lon="4.78789">
        <ele>39.4</ele>
        <time>2019-07-10T06:24:49Z</time>
      </trkpt>
      <trkpt lat="43.9543" lon="4.78762">
        <ele>40.6</ele>
        <time>2019-07-10T06:24:55Z</time>
      </trkpt>
      <trkpt lat="43.95428" lon="4.78753">
        <ele>41</ele>
        <time>2019-07-10T06:24:57Z</time>
      </trkpt>
      <trkpt lat="43.95425" lon="4.78739">
        <ele>41.2</ele>
        <time>2019-07-10T06:25:00Z</time>
      </trkpt>
      <trkpt lat="43.95424" lon="4.78731">
        <ele>41.4</ele>
        <time>2019-07-10T06:25:02Z</time>
      </trkpt>
      <trkpt lat="43.95416" lon="4.78699">
        <ele>42.8</ele>
        <time>2019-07-10T06:25:10Z</time>
      </trkpt>
      <trkpt lat="43.95415" lon="4.78695">
        <ele>43</ele>
        <time>2019-07-10T06:25:11Z</time>
      </trkpt>
      <trkpt lat="43.95413" lon="4.78687">
        <ele>43.4</ele>
        <time>2019-07-10T06:25:13Z</time>
      </trkpt>
      <trkpt lat="43.95406" lon="4.78672">
        <ele>44.4</ele>
        <time>2019-07-10T06:25:17Z</time>
      </trkpt>
      <trkpt lat="43.95401" lon="4.78661">
        <ele>45.4</ele>
        <time>2019-07-10T06:25:20Z</time>
      </trkpt>
      <trkpt lat="43.95394" lon="4.78642">
        <ele>46.2</ele>
        <time>2019-07-10T06:25:25Z</time>
      </trkpt>
      <trkpt lat="43.95381" lon="4.78611">
        <ele>47</ele>
        <time>2019-07-10T06:25:33Z</time>
      </trkpt>
      <trkpt lat="43.95379" lon="4.78608">
        <ele>47</ele>
        <time>2019-07-10T06:25:34Z</time>
      </trkpt>
      <trkpt lat="43.95372" lon="4.78589">
        <ele>47.8</ele>
        <time>2019-07-10T06:25:39Z</time>
      </trkpt>
      <trkpt lat="43.95369" lon="4.78582">
        <ele>48</ele>
        <time>2019-07-10T06:25:41Z</time>
      </trkpt>
      <trkpt lat="43.95363" lon="4.78568">
        <ele>48.8</ele>
        <time>2019-07-10T06:25:45Z</time>
      </trkpt>
      <trkpt lat="43.95362" lon="4.78564">
        <ele>49.2</ele>
        <time>2019-07-10T06:25:46Z</time>
      </trkpt>
      <trkpt lat="43.95355" lon="4.78546">
        <ele>50.8</ele>
        <time>2019-07-10T06:25:51Z</time>
      </trkpt>
      <trkpt lat="43.95348" lon="4.78516">
        <ele>52.2</ele>
        <time>2019-07-10T06:25:58Z</time>
      </trkpt>
      <trkpt lat="43.95347" lon="4.78507">
        <ele>52.2</ele>
        <time>2019-07-10T06:26:00Z</time>
      </trkpt>
      <trkpt lat="43.95346" lon="4.78492">
        <ele>52.2</ele>
        <time>2019-07-10T06:26:03Z</time>
      </trkpt>
      <trkpt lat="43.95346" lon="4.78478">
        <ele>52.2</ele>
        <time>2019-07-10T06:26:06Z</time>
      </trkpt>
      <trkpt lat="43.95346" lon="4.78473">
        <ele>52.2</ele>
        <time>2019-07-10T06:26:07Z</time>
      </trkpt>
      <trkpt lat="43.95346" lon="4.78463">
        <ele>52.2</ele>
        <time>2019-07-10T06:26:09Z</time>
      </trkpt>
      <trkpt lat="43.95346" lon="4.78437">
        <ele>52.8</ele>
        <time>2019-07-10T06:26:14Z</time>
      </trkpt>
      <trkpt lat="43.95348" lon="4.78417">
        <ele>53.2</ele>
        <time>2019-07-10T06:26:18Z</time>
      </trkpt>
      <trkpt lat="43.9535" lon="4.78403">
        <ele>54</ele>
        <time>2019-07-10T06:26:21Z</time>
      </trkpt>
      <trkpt lat="43.95358" lon="4.78376">
        <ele>55</ele>
        <time>2019-07-10T06:26:27Z</time>
      </trkpt>
      <trkpt lat="43.9536" lon="4.78372">
        <ele>55.2</ele>
        <time>2019-07-10T06:26:28Z</time>
      </trkpt>
      <trkpt lat="43.95377" lon="4.78339">
        <ele>56.2</ele>
        <time>2019-07-10T06:26:36Z</time>
      </trkpt>
      <trkpt lat="43.95379" lon="4.78336">
        <ele>56.2</ele>
        <time>2019-07-10T06:26:37Z</time>
      </trkpt>
      <trkpt lat="43.95381" lon="4.78332">
        <ele>56.2</ele>
        <time>2019-07-10T06:26:38Z</time>
      </trkpt>
      <trkpt lat="43.95384" lon="4.78329">
        <ele>56.6</ele>
        <time>2019-07-10T06:26:39Z</time>
      </trkpt>
      <trkpt lat="43.95394" lon="4.78318">
        <ele>57.4</ele>
        <time>2019-07-10T06:26:43Z</time>
      </trkpt>
      <trkpt lat="43.95397" lon="4.78316">
        <ele>57.4</ele>
        <time>2019-07-10T06:26:44Z</time>
      </trkpt>
      <trkpt lat="43.954" lon="4.78313">
        <ele>57.8</ele>
        <time>2019-07-10T06:26:45Z</time>
      </trkpt>
      <trkpt lat="43.95405" lon="4.7831">
        <ele>58.2</ele>
        <time>2019-07-10T06:26:47Z</time>
      </trkpt>
      <trkpt lat="43.95418" lon="4.78306">
        <ele>59.6</ele>
        <time>2019-07-10T06:26:51Z</time>
      </trkpt>
      <trkpt lat="43.9544" lon="4.78302">
        <ele>60.4</ele>
        <time>2019-07-10T06:26:58Z</time>
      </trkpt>
      <trkpt lat="43.95446" lon="4.78301">
        <ele>60.6</ele>
        <time>2019-07-10T06:26:59Z</time>
      </trkpt>
      <trkpt lat="43.95474" lon="4.78308">
        <ele>61.2</ele>
        <time>2019-07-10T06:27:09Z</time>
      </trkpt>
      <trkpt lat="43.95486" lon="4.78316">
        <ele>61.6</ele>
        <time>2019-07-10T06:27:13Z</time>
      </trkpt>
      <trkpt lat="43.95498" lon="4.78327">
        <ele>62.8</ele>
        <time>2019-07-10T06:27:18Z</time>
      </trkpt>
      <trkpt lat="43.95518" lon="4.78343">
        <ele>64</ele>
        <time>2019-07-10T06:27:25Z</time>
      </trkpt>
      <trkpt lat="43.95526" lon="4.7835">
        <ele>63.8</ele>
        <time>2019-07-10T06:27:28Z</time>
      </trkpt>
      <trkpt lat="43.95529" lon="4.78352">
        <ele>63.6</ele>
        <time>2019-07-10T06:27:29Z</time>
      </trkpt>
      <trkpt lat="43.95538" lon="4.78359">
        <ele>63.6</ele>
        <time>2019-07-10T06:27:32Z</time>
      </trkpt>
      <trkpt lat="43.95551" lon="4.78368">
        <ele>63.8</ele>
        <time>2019-07-10T06:27:36Z</time>
      </trkpt>
      <trkpt lat="43.95567" lon="4.78383">
        <ele>65.6</ele>
        <time>2019-07-10T06:27:42Z</time>
      </trkpt>
      <trkpt lat="43.95584" lon="4.78396">
        <ele>65.8</ele>
        <time>2019-07-10T06:27:48Z</time>
      </trkpt>
      <trkpt lat="43.95591" lon="4.784">
        <ele>66</ele>
        <time>2019-07-10T06:27:50Z</time>
      </trkpt>
      <trkpt lat="43.95609" lon="4.78407">
        <ele>66.4</ele>
        <time>2019-07-10T06:27:56Z</time>
      </trkpt>
      <trkpt lat="43.95623" lon="4.78403">
        <ele>66.6</ele>
        <time>2019-07-10T06:27:59Z</time>
      </trkpt>
      <trkpt lat="43.95633" lon="4.78398">
        <ele>67.4</ele>
        <time>2019-07-10T06:28:03Z</time>
      </trkpt>
      <trkpt lat="43.9564" lon="4.78393">
        <ele>68</ele>
        <time>2019-07-10T06:28:05Z</time>
      </trkpt>
      <trkpt lat="43.95654" lon="4.78376">
        <ele>68.8</ele>
        <time>2019-07-10T06:28:10Z</time>
      </trkpt>
      <trkpt lat="43.9568" lon="4.78342">
        <ele>69.4</ele>
        <time>2019-07-10T06:28:20Z</time>
      </trkpt>
      <trkpt lat="43.95685" lon="4.78336">
        <ele>69.4</ele>
        <time>2019-07-10T06:28:22Z</time>
      </trkpt>
      <trkpt lat="43.95699" lon="4.78317">
        <ele>70.4</ele>
        <time>2019-07-10T06:28:28Z</time>
      </trkpt>
      <trkpt lat="43.95711" lon="4.783">
        <ele>71.2</ele>
        <time>2019-07-10T06:28:33Z</time>
      </trkpt>
      <trkpt lat="43.95713" lon="4.78297">
        <ele>71.2</ele>
        <time>2019-07-10T06:28:34Z</time>
      </trkpt>
      <trkpt lat="43.95727" lon="4.78278">
        <ele>71.8</ele>
        <time>2019-07-10T06:28:40Z</time>
      </trkpt>
      <trkpt lat="43.95734" lon="4.78268">
        <ele>72</ele>
        <time>2019-07-10T06:28:43Z</time>
      </trkpt>
      <trkpt lat="43.95751" lon="4.78239">
        <ele>73</ele>
        <time>2019-07-10T06:28:51Z</time>
      </trkpt>
      <trkpt lat="43.95765" lon="4.78212">
        <ele>74.2</ele>
        <time>2019-07-10T06:28:58Z</time>
      </trkpt>
      <trkpt lat="43.95769" lon="4.78204">
        <ele>74.4</ele>
        <time>2019-07-10T06:29:00Z</time>
      </trkpt>
      <trkpt lat="43.95787" lon="4.78172">
        <ele>75.4</ele>
        <time>2019-07-10T06:29:08Z</time>
      </trkpt>
      <trkpt lat="43.95799" lon="4.78144">
        <ele>76</ele>
        <time>2019-07-10T06:29:15Z</time>
      </trkpt>
      <trkpt lat="43.95802" lon="4.78136">
        <ele>76.4</ele>
        <time>2019-07-10T06:29:18Z</time>
      </trkpt>
      <trkpt lat="43.95803" lon="4.78127">
        <ele>76.8</ele>
        <time>2019-07-10T06:29:20Z</time>
      </trkpt>
      <trkpt lat="43.95805" lon="4.781">
        <ele>78.4</ele>
        <time>2019-07-10T06:29:26Z</time>
      </trkpt>
      <trkpt lat="43.95805" lon="4.78076">
        <ele>79.2</ele>
        <time>2019-07-10T06:29:31Z</time>
      </trkpt>
      <trkpt lat="43.95805" lon="4.78056">
        <ele>79.4</ele>
        <time>2019-07-10T06:29:34Z</time>
      </trkpt>
      <trkpt lat="43.95805" lon="4.78056">
        <ele>79.6</ele>
        <time>2019-07-10T06:29:35Z</time>
      </trkpt>
      <trkpt lat="43.95805" lon="4.78026">
        <ele>79.8</ele>
        <time>2019-07-10T06:29:41Z</time>
      </trkpt>
      <trkpt lat="43.95804" lon="4.77991">
        <ele>80.6</ele>
        <time>2019-07-10T06:29:47Z</time>
      </trkpt>
      <trkpt lat="43.95804" lon="4.77937">
        <ele>82</ele>
        <time>2019-07-10T06:29:58Z</time>
      </trkpt>
      <trkpt lat="43.95804" lon="4.77932">
        <ele>82</ele>
        <time>2019-07-10T06:29:59Z</time>
      </trkpt>
      <trkpt lat="43.95804" lon="4.77898">
        <ele>82.6</ele>
        <time>2019-07-10T06:30:06Z</time>
      </trkpt>
      <trkpt lat="43.95804" lon="4.77893">
        <ele>82.6</ele>
        <time>2019-07-10T06:30:08Z</time>
      </trkpt>
      <trkpt lat="43.95804" lon="4.77834">
        <ele>83.8</ele>
        <time>2019-07-10T06:30:20Z</time>
      </trkpt>
      <trkpt lat="43.95805" lon="4.77825">
        <ele>84</ele>
        <time>2019-07-10T06:30:21Z</time>
      </trkpt>
      <trkpt lat="43.95806" lon="4.77801">
        <ele>84.6</ele>
        <time>2019-07-10T06:30:27Z</time>
      </trkpt>
      <trkpt lat="43.95807" lon="4.77792">
        <ele>84.8</ele>
        <time>2019-07-10T06:30:28Z</time>
      </trkpt>
      <trkpt lat="43.9581" lon="4.77764">
        <ele>85.6</ele>
        <time>2019-07-10T06:30:34Z</time>
      </trkpt>
      <trkpt lat="43.95812" lon="4.77751">
        <ele>86.2</ele>
        <time>2019-07-10T06:30:37Z</time>
      </trkpt>
      <trkpt lat="43.95814" lon="4.7771">
        <ele>87.6</ele>
        <time>2019-07-10T06:30:47Z</time>
      </trkpt>
      <trkpt lat="43.95817" lon="4.77678">
        <ele>87.8</ele>
        <time>2019-07-10T06:30:53Z</time>
      </trkpt>
      <trkpt lat="43.95818" lon="4.77664">
        <ele>88</ele>
        <time>2019-07-10T06:30:56Z</time>
      </trkpt>
      <trkpt lat="43.95824" lon="4.77647">
        <ele>88.6</ele>
        <time>2019-07-10T06:31:02Z</time>
      </trkpt>
      <trkpt lat="43.95834" lon="4.77638">
        <ele>88.8</ele>
        <time>2019-07-10T06:31:05Z</time>
      </trkpt>
      <trkpt lat="43.95836" lon="4.77634">
        <ele>88.8</ele>
        <time>2019-07-10T06:31:07Z</time>
      </trkpt>
      <trkpt lat="43.95851" lon="4.77592">
        <ele>91</ele>
        <time>2019-07-10T06:31:17Z</time>
      </trkpt>
      <trkpt lat="43.95851" lon="4.77587">
        <ele>91.2</ele>
        <time>2019-07-10T06:31:18Z</time>
      </trkpt>
      <trkpt lat="43.95849" lon="4.77577">
        <ele>91.2</ele>
        <time>2019-07-10T06:31:21Z</time>
      </trkpt>
      <trkpt lat="43.95842" lon="4.77569">
        <ele>91</ele>
        <time>2019-07-10T06:31:22Z</time>
      </trkpt>
      <trkpt lat="43.95834" lon="4.77563">
        <ele>91</ele>
        <time>2019-07-10T06:31:24Z</time>
      </trkpt>
      <trkpt lat="43.9583" lon="4.77558">
        <ele>90.8</ele>
        <time>2019-07-10T06:31:25Z</time>
      </trkpt>
      <trkpt lat="43.95828" lon="4.77552">
        <ele>90.8</ele>
        <time>2019-07-10T06:31:26Z</time>
      </trkpt>
      <trkpt lat="43.95825" lon="4.77546">
        <ele>90.4</ele>
        <time>2019-07-10T06:31:27Z</time>
      </trkpt>
      <trkpt lat="43.95825" lon="4.77531">
        <ele>89.6</ele>
        <time>2019-07-10T06:31:29Z</time>
      </trkpt>
      <trkpt lat="43.95829" lon="4.77486">
        <ele>88.4</ele>
        <time>2019-07-10T06:31:35Z</time>
      </trkpt>
      <trkpt lat="43.95833" lon="4.77455">
        <ele>88.2</ele>
        <time>2019-07-10T06:31:37Z</time>
      </trkpt>
      <trkpt lat="43.95834" lon="4.77447">
        <ele>88</ele>
        <time>2019-07-10T06:31:38Z</time>
      </trkpt>
      <trkpt lat="43.95836" lon="4.77439">
        <ele>88</ele>
        <time>2019-07-10T06:31:39Z</time>
      </trkpt>
      <trkpt lat="43.95839" lon="4.77423">
        <ele>87.8</ele>
        <time>2019-07-10T06:31:40Z</time>
      </trkpt>
      <trkpt lat="43.95849" lon="4.77393">
        <ele>86.4</ele>
        <time>2019-07-10T06:31:43Z</time>
      </trkpt>
      <trkpt lat="43.95852" lon="4.77385">
        <ele>85.8</ele>
        <time>2019-07-10T06:31:45Z</time>
      </trkpt>
      <trkpt lat="43.95859" lon="4.77372">
        <ele>85.4</ele>
        <time>2019-07-10T06:31:46Z</time>
      </trkpt>
      <trkpt lat="43.95869" lon="4.77352">
        <ele>84.4</ele>
        <time>2019-07-10T06:31:49Z</time>
      </trkpt>
      <trkpt lat="43.95886" lon="4.77304">
        <ele>81.8</ele>
        <time>2019-07-10T06:31:55Z</time>
      </trkpt>
      <trkpt lat="43.95889" lon="4.77297">
        <ele>81.2</ele>
        <time>2019-07-10T06:31:56Z</time>
      </trkpt>
      <trkpt lat="43.95891" lon="4.77292">
        <ele>81.2</ele>
        <time>2019-07-10T06:31:57Z</time>
      </trkpt>
      <trkpt lat="43.95893" lon="4.77287">
        <ele>81</ele>
        <time>2019-07-10T06:31:58Z</time>
      </trkpt>
      <trkpt lat="43.95907" lon="4.77248">
        <ele>79.8</ele>
        <time>2019-07-10T06:32:02Z</time>
      </trkpt>
      <trkpt lat="43.95909" lon="4.77235">
        <ele>79.2</ele>
        <time>2019-07-10T06:32:03Z</time>
      </trkpt>
      <trkpt lat="43.95911" lon="4.77222">
        <ele>78.8</ele>
        <time>2019-07-10T06:32:05Z</time>
      </trkpt>
      <trkpt lat="43.95911" lon="4.77204">
        <ele>78.8</ele>
        <time>2019-07-10T06:32:07Z</time>
      </trkpt>
      <trkpt lat="43.95909" lon="4.77177">
        <ele>78.6</ele>
        <time>2019-07-10T06:32:10Z</time>
      </trkpt>
      <trkpt lat="43.95904" lon="4.7714">
        <ele>78.4</ele>
        <time>2019-07-10T06:32:14Z</time>
      </trkpt>
      <trkpt lat="43.95893" lon="4.77084">
        <ele>76</ele>
        <time>2019-07-10T06:32:20Z</time>
      </trkpt>
      <trkpt lat="43.95887" lon="4.77046">
        <ele>75</ele>
        <time>2019-07-10T06:32:24Z</time>
      </trkpt>
      <trkpt lat="43.95885" lon="4.77019">
        <ele>74</ele>
        <time>2019-07-10T06:32:27Z</time>
      </trkpt>
      <trkpt lat="43.95882" lon="4.77001">
        <ele>73.4</ele>
        <time>2019-07-10T06:32:29Z</time>
      </trkpt>
      <trkpt lat="43.95881" lon="4.76991">
        <ele>73.4</ele>
        <time>2019-07-10T06:32:30Z</time>
      </trkpt>
      <trkpt lat="43.9588" lon="4.76982">
        <ele>73.4</ele>
        <time>2019-07-10T06:32:31Z</time>
      </trkpt>
      <trkpt lat="43.95869" lon="4.76916">
        <ele>72.2</ele>
        <time>2019-07-10T06:32:38Z</time>
      </trkpt>
      <trkpt lat="43.95865" lon="4.76899">
        <ele>72.2</ele>
        <time>2019-07-10T06:32:40Z</time>
      </trkpt>
      <trkpt lat="43.95864" lon="4.76891">
        <ele>72.2</ele>
        <time>2019-07-10T06:32:42Z</time>
      </trkpt>
      <trkpt lat="43.95857" lon="4.76842">
        <ele>71.4</ele>
        <time>2019-07-10T06:32:47Z</time>
      </trkpt>
      <trkpt lat="43.95857" lon="4.76835">
        <ele>71.4</ele>
        <time>2019-07-10T06:32:48Z</time>
      </trkpt>
      <trkpt lat="43.95857" lon="4.76821">
        <ele>70.8</ele>
        <time>2019-07-10T06:32:51Z</time>
      </trkpt>
      <trkpt lat="43.95856" lon="4.76809">
        <ele>70.6</ele>
        <time>2019-07-10T06:32:52Z</time>
      </trkpt>
      <trkpt lat="43.95852" lon="4.76798">
        <ele>70.4</ele>
        <time>2019-07-10T06:32:54Z</time>
      </trkpt>
      <trkpt lat="43.95842" lon="4.76743">
        <ele>69.6</ele>
        <time>2019-07-10T06:33:02Z</time>
      </trkpt>
      <trkpt lat="43.95831" lon="4.7668">
        <ele>69.6</ele>
        <time>2019-07-10T06:33:11Z</time>
      </trkpt>
      <trkpt lat="43.95824" lon="4.76633">
        <ele>69.6</ele>
        <time>2019-07-10T06:33:18Z</time>
      </trkpt>
      <trkpt lat="43.95822" lon="4.7662">
        <ele>69.2</ele>
        <time>2019-07-10T06:33:21Z</time>
      </trkpt>
      <trkpt lat="43.9582" lon="4.76598">
        <ele>68.8</ele>
        <time>2019-07-10T06:33:25Z</time>
      </trkpt>
      <trkpt lat="43.95822" lon="4.76577">
        <ele>68.6</ele>
        <time>2019-07-10T06:33:28Z</time>
      </trkpt>
      <trkpt lat="43.95821" lon="4.76571">
        <ele>68.4</ele>
        <time>2019-07-10T06:33:30Z</time>
      </trkpt>
      <trkpt lat="43.95819" lon="4.7656">
        <ele>68.2</ele>
        <time>2019-07-10T06:33:31Z</time>
      </trkpt>
      <trkpt lat="43.95814" lon="4.76544">
        <ele>68.2</ele>
        <time>2019-07-10T06:33:34Z</time>
      </trkpt>
      <trkpt lat="43.95812" lon="4.76537">
        <ele>68.2</ele>
        <time>2019-07-10T06:33:35Z</time>
      </trkpt>
      <trkpt lat="43.95811" lon="4.76531">
        <ele>68</ele>
        <time>2019-07-10T06:33:36Z</time>
      </trkpt>
      <trkpt lat="43.95809" lon="4.76525">
        <ele>68.2</ele>
        <time>2019-07-10T06:33:37Z</time>
      </trkpt>
      <trkpt lat="43.95808" lon="4.76519">
        <ele>68.4</ele>
        <time>2019-07-10T06:33:38Z</time>
      </trkpt>
      <trkpt lat="43.95805" lon="4.76499">
        <ele>68.8</ele>
        <time>2019-07-10T06:33:41Z</time>
      </trkpt>
      <trkpt lat="43.95799" lon="4.76466">
        <ele>69.4</ele>
        <time>2019-07-10T06:33:46Z</time>
      </trkpt>
      <trkpt lat="43.95796" lon="4.76451">
        <ele>69.4</ele>
        <time>2019-07-10T06:33:49Z</time>
      </trkpt>
      <trkpt lat="43.95793" lon="4.7643">
        <ele>69</ele>
        <time>2019-07-10T06:33:51Z</time>
      </trkpt>
      <trkpt lat="43.95793" lon="4.7643">
        <ele>69</ele>
        <time>2019-07-10T06:33:52Z</time>
      </trkpt>
      <trkpt lat="43.95785" lon="4.7638">
        <ele>69</ele>
        <time>2019-07-10T06:33:59Z</time>
      </trkpt>
      <trkpt lat="43.95777" lon="4.76336">
        <ele>69.2</ele>
        <time>2019-07-10T06:34:06Z</time>
      </trkpt>
      <trkpt lat="43.95772" lon="4.76294">
        <ele>69</ele>
        <time>2019-07-10T06:34:13Z</time>
      </trkpt>
      <trkpt lat="43.95771" lon="4.76281">
        <ele>68.8</ele>
        <time>2019-07-10T06:34:14Z</time>
      </trkpt>
      <trkpt lat="43.95768" lon="4.76269">
        <ele>69</ele>
        <time>2019-07-10T06:34:16Z</time>
      </trkpt>
      <trkpt lat="43.95764" lon="4.76258">
        <ele>69</ele>
        <time>2019-07-10T06:34:18Z</time>
      </trkpt>
      <trkpt lat="43.9576" lon="4.76234">
        <ele>69</ele>
        <time>2019-07-10T06:34:22Z</time>
      </trkpt>
      <trkpt lat="43.95758" lon="4.76221">
        <ele>69</ele>
        <time>2019-07-10T06:34:24Z</time>
      </trkpt>
      <trkpt lat="43.95755" lon="4.76201">
        <ele>68.6</ele>
        <time>2019-07-10T06:34:28Z</time>
      </trkpt>
      <trkpt lat="43.95752" lon="4.76181">
        <ele>68.6</ele>
        <time>2019-07-10T06:34:30Z</time>
      </trkpt>
      <trkpt lat="43.95751" lon="4.76152">
        <ele>68.6</ele>
        <time>2019-07-10T06:34:34Z</time>
      </trkpt>
      <trkpt lat="43.95755" lon="4.76118">
        <ele>68.6</ele>
        <time>2019-07-10T06:34:39Z</time>
      </trkpt>
      <trkpt lat="43.95758" lon="4.76104">
        <ele>68.8</ele>
        <time>2019-07-10T06:34:41Z</time>
      </trkpt>
      <trkpt lat="43.95768" lon="4.76072">
        <ele>69</ele>
        <time>2019-07-10T06:34:46Z</time>
      </trkpt>
      <trkpt lat="43.95771" lon="4.76061">
        <ele>69</ele>
        <time>2019-07-10T06:34:48Z</time>
      </trkpt>
      <trkpt lat="43.95775" lon="4.7605">
        <ele>69.2</ele>
        <time>2019-07-10T06:34:50Z</time>
      </trkpt>
      <trkpt lat="43.95779" lon="4.76038">
        <ele>69.4</ele>
        <time>2019-07-10T06:34:52Z</time>
      </trkpt>
      <trkpt lat="43.95798" lon="4.75973">
        <ele>70.4</ele>
        <time>2019-07-10T06:35:03Z</time>
      </trkpt>
      <trkpt lat="43.95804" lon="4.75951">
        <ele>70.8</ele>
        <time>2019-07-10T06:35:07Z</time>
      </trkpt>
      <trkpt lat="43.9581" lon="4.7593">
        <ele>70.6</ele>
        <time>2019-07-10T06:35:11Z</time>
      </trkpt>
      <trkpt lat="43.95811" lon="4.75926">
        <ele>70.4</ele>
        <time>2019-07-10T06:35:12Z</time>
      </trkpt>
      <trkpt lat="43.95817" lon="4.75916">
        <ele>69.8</ele>
        <time>2019-07-10T06:35:15Z</time>
      </trkpt>
      <trkpt lat="43.9582" lon="4.75906">
        <ele>69</ele>
        <time>2019-07-10T06:35:17Z</time>
      </trkpt>
      <trkpt lat="43.95821" lon="4.75895">
        <ele>68.8</ele>
        <time>2019-07-10T06:35:19Z</time>
      </trkpt>
      <trkpt lat="43.95822" lon="4.7589">
        <ele>68.8</ele>
        <time>2019-07-10T06:35:20Z</time>
      </trkpt>
      <trkpt lat="43.95833" lon="4.75849">
        <ele>68.8</ele>
        <time>2019-07-10T06:35:27Z</time>
      </trkpt>
      <trkpt lat="43.95845" lon="4.75806">
        <ele>69.4</ele>
        <time>2019-07-10T06:35:35Z</time>
      </trkpt>
      <trkpt lat="43.95857" lon="4.75766">
        <ele>69.6</ele>
        <time>2019-07-10T06:35:41Z</time>
      </trkpt>
      <trkpt lat="43.95861" lon="4.75749">
        <ele>69.8</ele>
        <time>2019-07-10T06:35:44Z</time>
      </trkpt>
      <trkpt lat="43.95867" lon="4.75726">
        <ele>69.8</ele>
        <time>2019-07-10T06:35:48Z</time>
      </trkpt>
      <trkpt lat="43.95876" lon="4.75704">
        <ele>69.6</ele>
        <time>2019-07-10T06:35:52Z</time>
      </trkpt>
      <trkpt lat="43.95885" lon="4.75691">
        <ele>69.4</ele>
        <time>2019-07-10T06:35:55Z</time>
      </trkpt>
      <trkpt lat="43.95887" lon="4.75685">
        <ele>69.4</ele>
        <time>2019-07-10T06:35:56Z</time>
      </trkpt>
      <trkpt lat="43.95888" lon="4.7568">
        <ele>69.2</ele>
        <time>2019-07-10T06:35:57Z</time>
      </trkpt>
      <trkpt lat="43.95891" lon="4.75662">
        <ele>68.8</ele>
        <time>2019-07-10T06:36:00Z</time>
      </trkpt>
      <trkpt lat="43.95895" lon="4.75652">
        <ele>69</ele>
        <time>2019-07-10T06:36:02Z</time>
      </trkpt>
      <trkpt lat="43.95897" lon="4.75648">
        <ele>69</ele>
        <time>2019-07-10T06:36:03Z</time>
      </trkpt>
      <trkpt lat="43.95903" lon="4.75639">
        <ele>68.8</ele>
        <time>2019-07-10T06:36:05Z</time>
      </trkpt>
      <trkpt lat="43.95907" lon="4.75635">
        <ele>68.8</ele>
        <time>2019-07-10T06:36:06Z</time>
      </trkpt>
      <trkpt lat="43.95911" lon="4.75633">
        <ele>68.8</ele>
        <time>2019-07-10T06:36:07Z</time>
      </trkpt>
      <trkpt lat="43.95918" lon="4.75627">
        <ele>69</ele>
        <time>2019-07-10T06:36:09Z</time>
      </trkpt>
      <trkpt lat="43.95921" lon="4.75622">
        <ele>69</ele>
        <time>2019-07-10T06:36:11Z</time>
      </trkpt>
      <trkpt lat="43.95923" lon="4.7561">
        <ele>68.8</ele>
        <time>2019-07-10T06:36:12Z</time>
      </trkpt>
      <trkpt lat="43.95925" lon="4.75598">
        <ele>69.2</ele>
        <time>2019-07-10T06:36:14Z</time>
      </trkpt>
      <trkpt lat="43.95927" lon="4.75593">
        <ele>69</ele>
        <time>2019-07-10T06:36:15Z</time>
      </trkpt>
      <trkpt lat="43.95954" lon="4.75548">
        <ele>69</ele>
        <time>2019-07-10T06:36:25Z</time>
      </trkpt>
      <trkpt lat="43.95976" lon="4.75513">
        <ele>69.2</ele>
        <time>2019-07-10T06:36:33Z</time>
      </trkpt>
      <trkpt lat="43.95978" lon="4.75508">
        <ele>69.6</ele>
        <time>2019-07-10T06:36:34Z</time>
      </trkpt>
      <trkpt lat="43.95994" lon="4.75482">
        <ele>70.4</ele>
        <time>2019-07-10T06:36:40Z</time>
      </trkpt>
      <trkpt lat="43.95997" lon="4.75478">
        <ele>70.8</ele>
        <time>2019-07-10T06:36:41Z</time>
      </trkpt>
      <trkpt lat="43.96004" lon="4.75466">
        <ele>71</ele>
        <time>2019-07-10T06:36:44Z</time>
      </trkpt>
      <trkpt lat="43.96021" lon="4.75437">
        <ele>70.8</ele>
        <time>2019-07-10T06:36:51Z</time>
      </trkpt>
      <trkpt lat="43.96039" lon="4.7541">
        <ele>70.4</ele>
        <time>2019-07-10T06:36:58Z</time>
      </trkpt>
      <trkpt lat="43.96045" lon="4.75398">
        <ele>71</ele>
        <time>2019-07-10T06:37:01Z</time>
      </trkpt>
      <trkpt lat="43.96053" lon="4.75377">
        <ele>71.6</ele>
        <time>2019-07-10T06:37:06Z</time>
      </trkpt>
      <trkpt lat="43.96056" lon="4.75362">
        <ele>72.4</ele>
        <time>2019-07-10T06:37:09Z</time>
      </trkpt>
      <trkpt lat="43.96057" lon="4.75357">
        <ele>72.4</ele>
        <time>2019-07-10T06:37:10Z</time>
      </trkpt>
      <trkpt lat="43.96061" lon="4.75333">
        <ele>73.8</ele>
        <time>2019-07-10T06:37:16Z</time>
      </trkpt>
      <trkpt lat="43.96063" lon="4.75318">
        <ele>73.8</ele>
        <time>2019-07-10T06:37:18Z</time>
      </trkpt>
      <trkpt lat="43.96066" lon="4.75298">
        <ele>74.2</ele>
        <time>2019-07-10T06:37:22Z</time>
      </trkpt>
      <trkpt lat="43.96071" lon="4.75261">
        <ele>74.8</ele>
        <time>2019-07-10T06:37:30Z</time>
      </trkpt>
      <trkpt lat="43.96072" lon="4.75243">
        <ele>75</ele>
        <time>2019-07-10T06:37:34Z</time>
      </trkpt>
      <trkpt lat="43.9607" lon="4.75224">
        <ele>75.4</ele>
        <time>2019-07-10T06:37:38Z</time>
      </trkpt>
      <trkpt lat="43.96061" lon="4.75192">
        <ele>75.6</ele>
        <time>2019-07-10T06:37:45Z</time>
      </trkpt>
      <trkpt lat="43.96057" lon="4.75179">
        <ele>75.8</ele>
        <time>2019-07-10T06:37:48Z</time>
      </trkpt>
      <trkpt lat="43.96052" lon="4.75161">
        <ele>76.6</ele>
        <time>2019-07-10T06:37:52Z</time>
      </trkpt>
      <trkpt lat="43.96045" lon="4.75139">
        <ele>79</ele>
        <time>2019-07-10T06:37:57Z</time>
      </trkpt>
      <trkpt lat="43.96043" lon="4.75134">
        <ele>79.2</ele>
        <time>2019-07-10T06:37:58Z</time>
      </trkpt>
      <trkpt lat="43.96034" lon="4.75095">
        <ele>80.2</ele>
        <time>2019-07-10T06:38:07Z</time>
      </trkpt>
      <trkpt lat="43.96038" lon="4.75072">
        <ele>80.6</ele>
        <time>2019-07-10T06:38:12Z</time>
      </trkpt>
      <trkpt lat="43.96037" lon="4.75041">
        <ele>80.6</ele>
        <time>2019-07-10T06:38:18Z</time>
      </trkpt>
      <trkpt lat="43.96043" lon="4.75028">
        <ele>80.6</ele>
        <time>2019-07-10T06:38:21Z</time>
      </trkpt>
      <trkpt lat="43.96048" lon="4.7502">
        <ele>80.8</ele>
        <time>2019-07-10T06:38:23Z</time>
      </trkpt>
      <trkpt lat="43.96068" lon="4.74986">
        <ele>81.6</ele>
        <time>2019-07-10T06:38:32Z</time>
      </trkpt>
      <trkpt lat="43.96072" lon="4.74983">
        <ele>81.6</ele>
        <time>2019-07-10T06:38:33Z</time>
      </trkpt>
      <trkpt lat="43.96085" lon="4.74972">
        <ele>81.2</ele>
        <time>2019-07-10T06:38:38Z</time>
      </trkpt>
      <trkpt lat="43.96084" lon="4.74962">
        <ele>80.8</ele>
        <time>2019-07-10T06:38:40Z</time>
      </trkpt>
      <trkpt lat="43.96082" lon="4.74958">
        <ele>80.8</ele>
        <time>2019-07-10T06:38:41Z</time>
      </trkpt>
      <trkpt lat="43.96078" lon="4.74955">
        <ele>80.6</ele>
        <time>2019-07-10T06:38:42Z</time>
      </trkpt>
      <trkpt lat="43.96066" lon="4.74949">
        <ele>80.4</ele>
        <time>2019-07-10T06:38:45Z</time>
      </trkpt>
      <trkpt lat="43.96049" lon="4.74934">
        <ele>80.6</ele>
        <time>2019-07-10T06:38:50Z</time>
      </trkpt>
      <trkpt lat="43.96049" lon="4.74934">
        <ele>80.8</ele>
        <time>2019-07-10T06:38:51Z</time>
      </trkpt>
      <trkpt lat="43.9602" lon="4.74901">
        <ele>82</ele>
        <time>2019-07-10T06:38:59Z</time>
      </trkpt>
      <trkpt lat="43.95992" lon="4.74871">
        <ele>82.2</ele>
        <time>2019-07-10T06:39:07Z</time>
      </trkpt>
      <trkpt lat="43.95981" lon="4.74859">
        <ele>82</ele>
        <time>2019-07-10T06:39:10Z</time>
      </trkpt>
      <trkpt lat="43.95967" lon="4.74844">
        <ele>82</ele>
        <time>2019-07-10T06:39:14Z</time>
      </trkpt>
      <trkpt lat="43.95956" lon="4.74832">
        <ele>82.2</ele>
        <time>2019-07-10T06:39:17Z</time>
      </trkpt>
      <trkpt lat="43.95936" lon="4.74809">
        <ele>82.2</ele>
        <time>2019-07-10T06:39:23Z</time>
      </trkpt>
      <trkpt lat="43.9591" lon="4.74781">
        <ele>82.2</ele>
        <time>2019-07-10T06:39:31Z</time>
      </trkpt>
      <trkpt lat="43.95906" lon="4.74771">
        <ele>82.2</ele>
        <time>2019-07-10T06:39:33Z</time>
      </trkpt>
      <trkpt lat="43.95905" lon="4.74761">
        <ele>82.2</ele>
        <time>2019-07-10T06:39:35Z</time>
      </trkpt>
      <trkpt lat="43.9591" lon="4.74748">
        <ele>82.8</ele>
        <time>2019-07-10T06:39:39Z</time>
      </trkpt>
      <trkpt lat="43.95936" lon="4.74699">
        <ele>83.4</ele>
        <time>2019-07-10T06:39:49Z</time>
      </trkpt>
      <trkpt lat="43.95939" lon="4.74695">
        <ele>84</ele>
        <time>2019-07-10T06:39:51Z</time>
      </trkpt>
      <trkpt lat="43.95952" lon="4.74672">
        <ele>84.6</ele>
        <time>2019-07-10T06:39:55Z</time>
      </trkpt>
      <trkpt lat="43.95954" lon="4.74667">
        <ele>85</ele>
        <time>2019-07-10T06:39:56Z</time>
      </trkpt>
      <trkpt lat="43.95957" lon="4.74663">
        <ele>85.2</ele>
        <time>2019-07-10T06:39:57Z</time>
      </trkpt>
      <trkpt lat="43.95959" lon="4.74659">
        <ele>85.4</ele>
        <time>2019-07-10T06:39:58Z</time>
      </trkpt>
      <trkpt lat="43.95967" lon="4.74647">
        <ele>85.8</ele>
        <time>2019-07-10T06:40:01Z</time>
      </trkpt>
      <trkpt lat="43.95972" lon="4.74638">
        <ele>86</ele>
        <time>2019-07-10T06:40:03Z</time>
      </trkpt>
      <trkpt lat="43.95988" lon="4.74625">
        <ele>85.6</ele>
        <time>2019-07-10T06:40:08Z</time>
      </trkpt>
      <trkpt lat="43.95999" lon="4.74618">
        <ele>85.6</ele>
        <time>2019-07-10T06:40:11Z</time>
      </trkpt>
      <trkpt lat="43.96006" lon="4.74613">
        <ele>85.4</ele>
        <time>2019-07-10T06:40:13Z</time>
      </trkpt>
      <trkpt lat="43.96013" lon="4.7461">
        <ele>85.6</ele>
        <time>2019-07-10T06:40:15Z</time>
      </trkpt>
      <trkpt lat="43.96017" lon="4.74609">
        <ele>85.2</ele>
        <time>2019-07-10T06:40:17Z</time>
      </trkpt>
      <trkpt lat="43.96028" lon="4.74612">
        <ele>84.8</ele>
        <time>2019-07-10T06:40:20Z</time>
      </trkpt>
      <trkpt lat="43.9603" lon="4.74616">
        <ele>84.8</ele>
        <time>2019-07-10T06:40:23Z</time>
      </trkpt>
      <trkpt lat="43.9603" lon="4.74616">
        <ele>84.6</ele>
        <time>2019-07-10T06:40:24Z</time>
      </trkpt>
      <trkpt lat="43.96034" lon="4.74619">
        <ele>83</ele>
        <time>2019-07-10T06:40:29Z</time>
      </trkpt>
      <trkpt lat="43.96044" lon="4.74624">
        <ele>82.6</ele>
        <time>2019-07-10T06:40:33Z</time>
      </trkpt>
      <trkpt lat="43.96047" lon="4.74624">
        <ele>82.6</ele>
        <time>2019-07-10T06:40:34Z</time>
      </trkpt>
      <trkpt lat="43.96054" lon="4.74619">
        <ele>82.6</ele>
        <time>2019-07-10T06:40:36Z</time>
      </trkpt>
      <trkpt lat="43.96056" lon="4.74613">
        <ele>82.6</ele>
        <time>2019-07-10T06:40:37Z</time>
      </trkpt>
      <trkpt lat="43.96057" lon="4.74607">
        <ele>82.8</ele>
        <time>2019-07-10T06:40:38Z</time>
      </trkpt>
      <trkpt lat="43.96053" lon="4.74597">
        <ele>83.2</ele>
        <time>2019-07-10T06:40:40Z</time>
      </trkpt>
      <trkpt lat="43.96047" lon="4.74589">
        <ele>83.2</ele>
        <time>2019-07-10T06:40:42Z</time>
      </trkpt>
      <trkpt lat="43.96042" lon="4.7458">
        <ele>83.4</ele>
        <time>2019-07-10T06:40:44Z</time>
      </trkpt>
      <trkpt lat="43.96041" lon="4.74574">
        <ele>83.6</ele>
        <time>2019-07-10T06:40:45Z</time>
      </trkpt>
      <trkpt lat="43.96038" lon="4.74558">
        <ele>83.6</ele>
        <time>2019-07-10T06:40:48Z</time>
      </trkpt>
      <trkpt lat="43.96037" lon="4.74554">
        <ele>83.8</ele>
        <time>2019-07-10T06:40:49Z</time>
      </trkpt>
      <trkpt lat="43.96037" lon="4.74552">
        <ele>83.8</ele>
        <time>2019-07-10T06:40:50Z</time>
      </trkpt>
      <trkpt lat="43.96036" lon="4.74548">
        <ele>83.8</ele>
        <time>2019-07-10T06:40:51Z</time>
      </trkpt>
      <trkpt lat="43.96033" lon="4.74532">
        <ele>84.2</ele>
        <time>2019-07-10T06:40:54Z</time>
      </trkpt>
      <trkpt lat="43.96026" lon="4.74496">
        <ele>84.2</ele>
        <time>2019-07-10T06:41:01Z</time>
      </trkpt>
      <trkpt lat="43.96023" lon="4.74481">
        <ele>84.2</ele>
        <time>2019-07-10T06:41:04Z</time>
      </trkpt>
      <trkpt lat="43.96024" lon="4.74467">
        <ele>85.2</ele>
        <time>2019-07-10T06:41:07Z</time>
      </trkpt>
      <trkpt lat="43.96027" lon="4.74463">
        <ele>85.8</ele>
        <time>2019-07-10T06:41:08Z</time>
      </trkpt>
      <trkpt lat="43.96031" lon="4.74455">
        <ele>86.6</ele>
        <time>2019-07-10T06:41:10Z</time>
      </trkpt>
      <trkpt lat="43.96033" lon="4.74446">
        <ele>87</ele>
        <time>2019-07-10T06:41:12Z</time>
      </trkpt>
      <trkpt lat="43.96034" lon="4.74441">
        <ele>87.2</ele>
        <time>2019-07-10T06:41:13Z</time>
      </trkpt>
      <trkpt lat="43.96028" lon="4.74416">
        <ele>87.2</ele>
        <time>2019-07-10T06:41:18Z</time>
      </trkpt>
      <trkpt lat="43.96015" lon="4.74406">
        <ele>87</ele>
        <time>2019-07-10T06:41:22Z</time>
      </trkpt>
      <trkpt lat="43.95999" lon="4.74413">
        <ele>87</ele>
        <time>2019-07-10T06:41:27Z</time>
      </trkpt>
      <trkpt lat="43.95994" lon="4.7442">
        <ele>87</ele>
        <time>2019-07-10T06:41:29Z</time>
      </trkpt>
      <trkpt lat="43.95992" lon="4.7443">
        <ele>87</ele>
        <time>2019-07-10T06:41:31Z</time>
      </trkpt>
      <trkpt lat="43.95988" lon="4.7444">
        <ele>87</ele>
        <time>2019-07-10T06:41:33Z</time>
      </trkpt>
      <trkpt lat="43.95981" lon="4.74446">
        <ele>87</ele>
        <time>2019-07-10T06:41:35Z</time>
      </trkpt>
      <trkpt lat="43.9596" lon="4.74454">
        <ele>87</ele>
        <time>2019-07-10T06:41:40Z</time>
      </trkpt>
      <trkpt lat="43.95942" lon="4.7446">
        <ele>87.2</ele>
        <time>2019-07-10T06:41:44Z</time>
      </trkpt>
      <trkpt lat="43.95933" lon="4.74461">
        <ele>87.6</ele>
        <time>2019-07-10T06:41:46Z</time>
      </trkpt>
      <trkpt lat="43.95928" lon="4.74461">
        <ele>87.6</ele>
        <time>2019-07-10T06:41:47Z</time>
      </trkpt>
      <trkpt lat="43.95923" lon="4.7446">
        <ele>87.6</ele>
        <time>2019-07-10T06:41:48Z</time>
      </trkpt>
      <trkpt lat="43.95914" lon="4.74457">
        <ele>87.6</ele>
        <time>2019-07-10T06:41:50Z</time>
      </trkpt>
      <trkpt lat="43.95905" lon="4.74452">
        <ele>87.8</ele>
        <time>2019-07-10T06:41:52Z</time>
      </trkpt>
      <trkpt lat="43.95897" lon="4.74445">
        <ele>87.8</ele>
        <time>2019-07-10T06:41:54Z</time>
      </trkpt>
      <trkpt lat="43.9589" lon="4.74438">
        <ele>88</ele>
        <time>2019-07-10T06:41:56Z</time>
      </trkpt>
      <trkpt lat="43.95884" lon="4.74432">
        <ele>88.2</ele>
        <time>2019-07-10T06:41:58Z</time>
      </trkpt>
      <trkpt lat="43.95875" lon="4.7442">
        <ele>89.6</ele>
        <time>2019-07-10T06:42:01Z</time>
      </trkpt>
      <trkpt lat="43.95868" lon="4.74407">
        <ele>90.2</ele>
        <time>2019-07-10T06:42:04Z</time>
      </trkpt>
      <trkpt lat="43.95862" lon="4.74393">
        <ele>90.4</ele>
        <time>2019-07-10T06:42:07Z</time>
      </trkpt>
      <trkpt lat="43.95858" lon="4.74381">
        <ele>90.4</ele>
        <time>2019-07-10T06:42:09Z</time>
      </trkpt>
      <trkpt lat="43.95855" lon="4.74369">
        <ele>90.4</ele>
        <time>2019-07-10T06:42:11Z</time>
      </trkpt>
      <trkpt lat="43.95853" lon="4.74332">
        <ele>90.4</ele>
        <time>2019-07-10T06:42:17Z</time>
      </trkpt>
      <trkpt lat="43.95852" lon="4.74319">
        <ele>90.4</ele>
        <time>2019-07-10T06:42:19Z</time>
      </trkpt>
      <trkpt lat="43.95847" lon="4.74268">
        <ele>89.6</ele>
        <time>2019-07-10T06:42:27Z</time>
      </trkpt>
      <trkpt lat="43.95841" lon="4.74223">
        <ele>89.4</ele>
        <time>2019-07-10T06:42:33Z</time>
      </trkpt>
      <trkpt lat="43.95838" lon="4.74206">
        <ele>89.2</ele>
        <time>2019-07-10T06:42:35Z</time>
      </trkpt>
      <trkpt lat="43.95835" lon="4.7418">
        <ele>89</ele>
        <time>2019-07-10T06:42:38Z</time>
      </trkpt>
      <trkpt lat="43.95832" lon="4.74163">
        <ele>88.6</ele>
        <time>2019-07-10T06:42:40Z</time>
      </trkpt>
      <trkpt lat="43.95829" lon="4.74144">
        <ele>88.4</ele>
        <time>2019-07-10T06:42:42Z</time>
      </trkpt>
      <trkpt lat="43.95828" lon="4.74135">
        <ele>88</ele>
        <time>2019-07-10T06:42:43Z</time>
      </trkpt>
      <trkpt lat="43.95825" lon="4.74117">
        <ele>87.4</ele>
        <time>2019-07-10T06:42:45Z</time>
      </trkpt>
      <trkpt lat="43.95823" lon="4.741">
        <ele>86.8</ele>
        <time>2019-07-10T06:42:47Z</time>
      </trkpt>
      <trkpt lat="43.95818" lon="4.74068">
        <ele>86.2</ele>
        <time>2019-07-10T06:42:50Z</time>
      </trkpt>
      <trkpt lat="43.95817" lon="4.74057">
        <ele>85.8</ele>
        <time>2019-07-10T06:42:51Z</time>
      </trkpt>
      <trkpt lat="43.95816" lon="4.74038">
        <ele>85.4</ele>
        <time>2019-07-10T06:42:53Z</time>
      </trkpt>
      <trkpt lat="43.95815" lon="4.74027">
        <ele>85</ele>
        <time>2019-07-10T06:42:54Z</time>
      </trkpt>
      <trkpt lat="43.95815" lon="4.74006">
        <ele>84</ele>
        <time>2019-07-10T06:42:56Z</time>
      </trkpt>
      <trkpt lat="43.95815" lon="4.73996">
        <ele>83.6</ele>
        <time>2019-07-10T06:42:57Z</time>
      </trkpt>
      <trkpt lat="43.95816" lon="4.73986">
        <ele>83</ele>
        <time>2019-07-10T06:42:58Z</time>
      </trkpt>
      <trkpt lat="43.95822" lon="4.73947">
        <ele>81.2</ele>
        <time>2019-07-10T06:43:02Z</time>
      </trkpt>
      <trkpt lat="43.95824" lon="4.73939">
        <ele>80.8</ele>
        <time>2019-07-10T06:43:03Z</time>
      </trkpt>
      <trkpt lat="43.95828" lon="4.73928">
        <ele>79.8</ele>
        <time>2019-07-10T06:43:05Z</time>
      </trkpt>
      <trkpt lat="43.9583" lon="4.73923">
        <ele>79.8</ele>
        <time>2019-07-10T06:43:06Z</time>
      </trkpt>
      <trkpt lat="43.95833" lon="4.73918">
        <ele>79</ele>
        <time>2019-07-10T06:43:07Z</time>
      </trkpt>
      <trkpt lat="43.95836" lon="4.73913">
        <ele>78.8</ele>
        <time>2019-07-10T06:43:08Z</time>
      </trkpt>
      <trkpt lat="43.95839" lon="4.73909">
        <ele>78</ele>
        <time>2019-07-10T06:43:09Z</time>
      </trkpt>
      <trkpt lat="43.95842" lon="4.73905">
        <ele>77.8</ele>
        <time>2019-07-10T06:43:10Z</time>
      </trkpt>
      <trkpt lat="43.95849" lon="4.73898">
        <ele>76</ele>
        <time>2019-07-10T06:43:12Z</time>
      </trkpt>
      <trkpt lat="43.95857" lon="4.73891">
        <ele>74.6</ele>
        <time>2019-07-10T06:43:14Z</time>
      </trkpt>
      <trkpt lat="43.95861" lon="4.73887">
        <ele>74.2</ele>
        <time>2019-07-10T06:43:15Z</time>
      </trkpt>
      <trkpt lat="43.95873" lon="4.7388">
        <ele>74</ele>
        <time>2019-07-10T06:43:18Z</time>
      </trkpt>
      <trkpt lat="43.95877" lon="4.73878">
        <ele>73.8</ele>
        <time>2019-07-10T06:43:19Z</time>
      </trkpt>
      <trkpt lat="43.95892" lon="4.73867">
        <ele>73.6</ele>
        <time>2019-07-10T06:43:24Z</time>
      </trkpt>
      <trkpt lat="43.95898" lon="4.73864">
        <ele>73.6</ele>
        <time>2019-07-10T06:43:26Z</time>
      </trkpt>
      <trkpt lat="43.95906" lon="4.7386">
        <ele>73.4</ele>
        <time>2019-07-10T06:43:28Z</time>
      </trkpt>
      <trkpt lat="43.95909" lon="4.73858">
        <ele>73</ele>
        <time>2019-07-10T06:43:29Z</time>
      </trkpt>
      <trkpt lat="43.95911" lon="4.73857">
        <ele>73</ele>
        <time>2019-07-10T06:43:30Z</time>
      </trkpt>
      <trkpt lat="43.95914" lon="4.73855">
        <ele>72.6</ele>
        <time>2019-07-10T06:43:31Z</time>
      </trkpt>
      <trkpt lat="43.95928" lon="4.73842">
        <ele>70.6</ele>
        <time>2019-07-10T06:43:35Z</time>
      </trkpt>
      <trkpt lat="43.95934" lon="4.73832">
        <ele>69.8</ele>
        <time>2019-07-10T06:43:37Z</time>
      </trkpt>
      <trkpt lat="43.95948" lon="4.73807">
        <ele>69.2</ele>
        <time>2019-07-10T06:43:41Z</time>
      </trkpt>
      <trkpt lat="43.95956" lon="4.73793">
        <ele>68.6</ele>
        <time>2019-07-10T06:43:43Z</time>
      </trkpt>
      <trkpt lat="43.95976" lon="4.73757">
        <ele>68.2</ele>
        <time>2019-07-10T06:43:48Z</time>
      </trkpt>
      <trkpt lat="43.95987" lon="4.73735">
        <ele>67.2</ele>
        <time>2019-07-10T06:43:52Z</time>
      </trkpt>
      <trkpt lat="43.95995" lon="4.73721">
        <ele>66.8</ele>
        <time>2019-07-10T06:43:55Z</time>
      </trkpt>
      <trkpt lat="43.96003" lon="4.73706">
        <ele>65.8</ele>
        <time>2019-07-10T06:43:58Z</time>
      </trkpt>
      <trkpt lat="43.96023" lon="4.7367">
        <ele>64.2</ele>
        <time>2019-07-10T06:44:05Z</time>
      </trkpt>
      <trkpt lat="43.96026" lon="4.73665">
        <ele>64.2</ele>
        <time>2019-07-10T06:44:06Z</time>
      </trkpt>
      <trkpt lat="43.96038" lon="4.73643">
        <ele>63.2</ele>
        <time>2019-07-10T06:44:10Z</time>
      </trkpt>
      <trkpt lat="43.9604" lon="4.73629">
        <ele>62.8</ele>
        <time>2019-07-10T06:44:12Z</time>
      </trkpt>
      <trkpt lat="43.96038" lon="4.73616">
        <ele>62.4</ele>
        <time>2019-07-10T06:44:14Z</time>
      </trkpt>
      <trkpt lat="43.96036" lon="4.7361">
        <ele>62.2</ele>
        <time>2019-07-10T06:44:15Z</time>
      </trkpt>
      <trkpt lat="43.9602" lon="4.73584">
        <ele>61.6</ele>
        <time>2019-07-10T06:44:21Z</time>
      </trkpt>
      <trkpt lat="43.9601" lon="4.73571">
        <ele>61.4</ele>
        <time>2019-07-10T06:44:25Z</time>
      </trkpt>
      <trkpt lat="43.96007" lon="4.73566">
        <ele>61.4</ele>
        <time>2019-07-10T06:44:27Z</time>
      </trkpt>
      <trkpt lat="43.96001" lon="4.7356">
        <ele>61.8</ele>
        <time>2019-07-10T06:44:30Z</time>
      </trkpt>
      <trkpt lat="43.95995" lon="4.73559">
        <ele>62</ele>
        <time>2019-07-10T06:44:32Z</time>
      </trkpt>
      <trkpt lat="43.95973" lon="4.73559">
        <ele>62.2</ele>
        <time>2019-07-10T06:44:38Z</time>
      </trkpt>
      <trkpt lat="43.95952" lon="4.73563">
        <ele>61.8</ele>
        <time>2019-07-10T06:44:44Z</time>
      </trkpt>
      <trkpt lat="43.9595" lon="4.73563">
        <ele>62</ele>
        <time>2019-07-10T06:44:45Z</time>
      </trkpt>
      <trkpt lat="43.95947" lon="4.73563">
        <ele>62</ele>
        <time>2019-07-10T06:44:46Z</time>
      </trkpt>
      <trkpt lat="43.95944" lon="4.7356">
        <ele>62.2</ele>
        <time>2019-07-10T06:44:48Z</time>
      </trkpt>
      <trkpt lat="43.95943" lon="4.73557">
        <ele>62.4</ele>
        <time>2019-07-10T06:44:49Z</time>
      </trkpt>
      <trkpt lat="43.95941" lon="4.73549">
        <ele>62.4</ele>
        <time>2019-07-10T06:44:51Z</time>
      </trkpt>
      <trkpt lat="43.95935" lon="4.73527">
        <ele>62.8</ele>
        <time>2019-07-10T06:44:56Z</time>
      </trkpt>
      <trkpt lat="43.95933" lon="4.73506">
        <ele>62.8</ele>
        <time>2019-07-10T06:45:00Z</time>
      </trkpt>
      <trkpt lat="43.95932" lon="4.73501">
        <ele>62.8</ele>
        <time>2019-07-10T06:45:01Z</time>
      </trkpt>
      <trkpt lat="43.95932" lon="4.73492">
        <ele>63</ele>
        <time>2019-07-10T06:45:03Z</time>
      </trkpt>
      <trkpt lat="43.95932" lon="4.73487">
        <ele>63</ele>
        <time>2019-07-10T06:45:04Z</time>
      </trkpt>
      <trkpt lat="43.95935" lon="4.73455">
        <ele>63.4</ele>
        <time>2019-07-10T06:45:10Z</time>
      </trkpt>
      <trkpt lat="43.95936" lon="4.73448">
        <ele>63.4</ele>
        <time>2019-07-10T06:45:11Z</time>
      </trkpt>
      <trkpt lat="43.95936" lon="4.73448">
        <ele>63.4</ele>
        <time>2019-07-10T06:45:15Z</time>
      </trkpt>
      <trkpt lat="43.95944" lon="4.73414">
        <ele>63</ele>
        <time>2019-07-10T06:45:16Z</time>
      </trkpt>
      <trkpt lat="43.95945" lon="4.73411">
        <ele>62.8</ele>
        <time>2019-07-10T06:45:17Z</time>
      </trkpt>
      <trkpt lat="43.95954" lon="4.73385">
        <ele>62.6</ele>
        <time>2019-07-10T06:45:23Z</time>
      </trkpt>
      <trkpt lat="43.95957" lon="4.73375">
        <ele>62.4</ele>
        <time>2019-07-10T06:45:25Z</time>
      </trkpt>
      <trkpt lat="43.95963" lon="4.7336">
        <ele>63</ele>
        <time>2019-07-10T06:45:29Z</time>
      </trkpt>
      <trkpt lat="43.95965" lon="4.73357">
        <ele>63</ele>
        <time>2019-07-10T06:45:30Z</time>
      </trkpt>
      <trkpt lat="43.95972" lon="4.73353">
        <ele>63</ele>
        <time>2019-07-10T06:45:33Z</time>
      </trkpt>
      <trkpt lat="43.95975" lon="4.73353">
        <ele>62.6</ele>
        <time>2019-07-10T06:45:37Z</time>
      </trkpt>
      <trkpt lat="43.95975" lon="4.73353">
        <ele>62.4</ele>
        <time>2019-07-10T06:45:38Z</time>
      </trkpt>
      <trkpt lat="43.95976" lon="4.73349">
        <ele>61.8</ele>
        <time>2019-07-10T06:46:24Z</time>
      </trkpt>
      <trkpt lat="43.95976" lon="4.73341">
        <ele>61.8</ele>
        <time>2019-07-10T06:46:26Z</time>
      </trkpt>
      <trkpt lat="43.95972" lon="4.73327">
        <ele>61.8</ele>
        <time>2019-07-10T06:46:29Z</time>
      </trkpt>
      <trkpt lat="43.95968" lon="4.73314">
        <ele>62</ele>
        <time>2019-07-10T06:46:32Z</time>
      </trkpt>
      <trkpt lat="43.95953" lon="4.73278">
        <ele>61.4</ele>
        <time>2019-07-10T06:46:40Z</time>
      </trkpt>
      <trkpt lat="43.95949" lon="4.73267">
        <ele>61.4</ele>
        <time>2019-07-10T06:46:42Z</time>
      </trkpt>
      <trkpt lat="43.95943" lon="4.7325">
        <ele>61.6</ele>
        <time>2019-07-10T06:46:45Z</time>
      </trkpt>
      <trkpt lat="43.95927" lon="4.7321">
        <ele>62.8</ele>
        <time>2019-07-10T06:46:52Z</time>
      </trkpt>
      <trkpt lat="43.95909" lon="4.73149">
        <ele>63</ele>
        <time>2019-07-10T06:47:02Z</time>
      </trkpt>
      <trkpt lat="43.95907" lon="4.73137">
        <ele>63.4</ele>
        <time>2019-07-10T06:47:04Z</time>
      </trkpt>
      <trkpt lat="43.95903" lon="4.73106">
        <ele>63.4</ele>
        <time>2019-07-10T06:47:09Z</time>
      </trkpt>
      <trkpt lat="43.95903" lon="4.731">
        <ele>63.8</ele>
        <time>2019-07-10T06:47:10Z</time>
      </trkpt>
      <trkpt lat="43.95902" lon="4.73082">
        <ele>64.8</ele>
        <time>2019-07-10T06:47:13Z</time>
      </trkpt>
      <trkpt lat="43.95902" lon="4.73065">
        <ele>65.4</ele>
        <time>2019-07-10T06:47:16Z</time>
      </trkpt>
      <trkpt lat="43.95903" lon="4.7306">
        <ele>65.6</ele>
        <time>2019-07-10T06:47:17Z</time>
      </trkpt>
      <trkpt lat="43.95908" lon="4.73023">
        <ele>65.4</ele>
        <time>2019-07-10T06:47:24Z</time>
      </trkpt>
      <trkpt lat="43.95913" lon="4.72982">
        <ele>65.4</ele>
        <time>2019-07-10T06:47:32Z</time>
      </trkpt>
      <trkpt lat="43.95915" lon="4.72951">
        <ele>65.4</ele>
        <time>2019-07-10T06:47:38Z</time>
      </trkpt>
      <trkpt lat="43.95915" lon="4.72941">
        <ele>65.4</ele>
        <time>2019-07-10T06:47:40Z</time>
      </trkpt>
      <trkpt lat="43.95916" lon="4.72932">
        <ele>65.4</ele>
        <time>2019-07-10T06:47:42Z</time>
      </trkpt>
      <trkpt lat="43.95917" lon="4.72922">
        <ele>65</ele>
        <time>2019-07-10T06:47:44Z</time>
      </trkpt>
      <trkpt lat="43.9592" lon="4.72908">
        <ele>65</ele>
        <time>2019-07-10T06:47:47Z</time>
      </trkpt>
      <trkpt lat="43.95924" lon="4.72868">
        <ele>64.6</ele>
        <time>2019-07-10T06:47:55Z</time>
      </trkpt>
      <trkpt lat="43.95925" lon="4.72862">
        <ele>64.6</ele>
        <time>2019-07-10T06:47:56Z</time>
      </trkpt>
      <trkpt lat="43.95926" lon="4.72857">
        <ele>64.8</ele>
        <time>2019-07-10T06:47:57Z</time>
      </trkpt>
      <trkpt lat="43.95933" lon="4.72817">
        <ele>65</ele>
        <time>2019-07-10T06:48:05Z</time>
      </trkpt>
      <trkpt lat="43.95936" lon="4.72805">
        <ele>65</ele>
        <time>2019-07-10T06:48:06Z</time>
      </trkpt>
      <trkpt lat="43.95946" lon="4.72761">
        <ele>65.4</ele>
        <time>2019-07-10T06:48:13Z</time>
      </trkpt>
      <trkpt lat="43.95948" lon="4.72754">
        <ele>65.4</ele>
        <time>2019-07-10T06:48:14Z</time>
      </trkpt>
      <trkpt lat="43.95955" lon="4.72727">
        <ele>65</ele>
        <time>2019-07-10T06:48:19Z</time>
      </trkpt>
      <trkpt lat="43.95957" lon="4.72723">
        <ele>64.8</ele>
        <time>2019-07-10T06:48:20Z</time>
      </trkpt>
      <trkpt lat="43.95963" lon="4.72698">
        <ele>63.8</ele>
        <time>2019-07-10T06:48:25Z</time>
      </trkpt>
      <trkpt lat="43.95967" lon="4.72687">
        <ele>63.2</ele>
        <time>2019-07-10T06:48:27Z</time>
      </trkpt>
      <trkpt lat="43.95968" lon="4.72681">
        <ele>63</ele>
        <time>2019-07-10T06:48:28Z</time>
      </trkpt>
      <trkpt lat="43.9597" lon="4.72675">
        <ele>62.8</ele>
        <time>2019-07-10T06:48:29Z</time>
      </trkpt>
      <trkpt lat="43.95972" lon="4.72663">
        <ele>62.8</ele>
        <time>2019-07-10T06:48:31Z</time>
      </trkpt>
      <trkpt lat="43.95973" lon="4.72657">
        <ele>62.8</ele>
        <time>2019-07-10T06:48:32Z</time>
      </trkpt>
      <trkpt lat="43.95975" lon="4.72638">
        <ele>62.8</ele>
        <time>2019-07-10T06:48:35Z</time>
      </trkpt>
      <trkpt lat="43.95976" lon="4.72632">
        <ele>62.8</ele>
        <time>2019-07-10T06:48:36Z</time>
      </trkpt>
      <trkpt lat="43.95977" lon="4.72626">
        <ele>62.4</ele>
        <time>2019-07-10T06:48:37Z</time>
      </trkpt>
      <trkpt lat="43.95982" lon="4.7259">
        <ele>62</ele>
        <time>2019-07-10T06:48:43Z</time>
      </trkpt>
      <trkpt lat="43.95984" lon="4.72573">
        <ele>61.8</ele>
        <time>2019-07-10T06:48:46Z</time>
      </trkpt>
      <trkpt lat="43.95985" lon="4.72567">
        <ele>61.6</ele>
        <time>2019-07-10T06:48:47Z</time>
      </trkpt>
      <trkpt lat="43.95988" lon="4.72552">
        <ele>61.4</ele>
        <time>2019-07-10T06:48:50Z</time>
      </trkpt>
      <trkpt lat="43.95995" lon="4.72521">
        <ele>61.4</ele>
        <time>2019-07-10T06:48:56Z</time>
      </trkpt>
      <trkpt lat="43.96" lon="4.72513">
        <ele>61.6</ele>
        <time>2019-07-10T06:49:00Z</time>
      </trkpt>
      <trkpt lat="43.96001" lon="4.72513">
        <ele>61.2</ele>
        <time>2019-07-10T06:49:03Z</time>
      </trkpt>
      <trkpt lat="43.96002" lon="4.72507">
        <ele>60.8</ele>
        <time>2019-07-10T06:49:09Z</time>
      </trkpt>
      <trkpt lat="43.95998" lon="4.72487">
        <ele>60.4</ele>
        <time>2019-07-10T06:49:13Z</time>
      </trkpt>
      <trkpt lat="43.95998" lon="4.72482">
        <ele>60.4</ele>
        <time>2019-07-10T06:49:15Z</time>
      </trkpt>
      <trkpt lat="43.95999" lon="4.72456">
        <ele>60.4</ele>
        <time>2019-07-10T06:49:18Z</time>
      </trkpt>
      <trkpt lat="43.96" lon="4.72442">
        <ele>60.4</ele>
        <time>2019-07-10T06:49:20Z</time>
      </trkpt>
      <trkpt lat="43.96004" lon="4.72403">
        <ele>60.4</ele>
        <time>2019-07-10T06:49:25Z</time>
      </trkpt>
      <trkpt lat="43.96008" lon="4.72367">
        <ele>60.4</ele>
        <time>2019-07-10T06:49:30Z</time>
      </trkpt>
      <trkpt lat="43.96011" lon="4.72347">
        <ele>60.4</ele>
        <time>2019-07-10T06:49:33Z</time>
      </trkpt>
      <trkpt lat="43.96013" lon="4.72334">
        <ele>60.8</ele>
        <time>2019-07-10T06:49:35Z</time>
      </trkpt>
      <trkpt lat="43.96014" lon="4.72321">
        <ele>60.8</ele>
        <time>2019-07-10T06:49:37Z</time>
      </trkpt>
      <trkpt lat="43.96017" lon="4.723">
        <ele>60.6</ele>
        <time>2019-07-10T06:49:40Z</time>
      </trkpt>
      <trkpt lat="43.96018" lon="4.72294">
        <ele>60.8</ele>
        <time>2019-07-10T06:49:41Z</time>
      </trkpt>
      <trkpt lat="43.96022" lon="4.72261">
        <ele>60.6</ele>
        <time>2019-07-10T06:49:46Z</time>
      </trkpt>
      <trkpt lat="43.96026" lon="4.72232">
        <ele>60.2</ele>
        <time>2019-07-10T06:49:50Z</time>
      </trkpt>
      <trkpt lat="43.96029" lon="4.72211">
        <ele>60</ele>
        <time>2019-07-10T06:49:53Z</time>
      </trkpt>
      <trkpt lat="43.96035" lon="4.72167">
        <ele>59.2</ele>
        <time>2019-07-10T06:49:59Z</time>
      </trkpt>
      <trkpt lat="43.96037" lon="4.7216">
        <ele>59.2</ele>
        <time>2019-07-10T06:50:00Z</time>
      </trkpt>
      <trkpt lat="43.96038" lon="4.72153">
        <ele>59.2</ele>
        <time>2019-07-10T06:50:01Z</time>
      </trkpt>
      <trkpt lat="43.96054" lon="4.72099">
        <ele>59.8</ele>
        <time>2019-07-10T06:50:09Z</time>
      </trkpt>
      <trkpt lat="43.96058" lon="4.72086">
        <ele>60</ele>
        <time>2019-07-10T06:50:11Z</time>
      </trkpt>
      <trkpt lat="43.96065" lon="4.72059">
        <ele>60.2</ele>
        <time>2019-07-10T06:50:15Z</time>
      </trkpt>
      <trkpt lat="43.96068" lon="4.72046">
        <ele>60.2</ele>
        <time>2019-07-10T06:50:17Z</time>
      </trkpt>
      <trkpt lat="43.96076" lon="4.72012">
        <ele>60</ele>
        <time>2019-07-10T06:50:22Z</time>
      </trkpt>
      <trkpt lat="43.96081" lon="4.71991">
        <ele>60</ele>
        <time>2019-07-10T06:50:25Z</time>
      </trkpt>
      <trkpt lat="43.96085" lon="4.71978">
        <ele>60</ele>
        <time>2019-07-10T06:50:27Z</time>
      </trkpt>
      <trkpt lat="43.96088" lon="4.71966">
        <ele>60.2</ele>
        <time>2019-07-10T06:50:29Z</time>
      </trkpt>
      <trkpt lat="43.961" lon="4.71919">
        <ele>60.4</ele>
        <time>2019-07-10T06:50:36Z</time>
      </trkpt>
      <trkpt lat="43.96115" lon="4.71861">
        <ele>59.8</ele>
        <time>2019-07-10T06:50:44Z</time>
      </trkpt>
      <trkpt lat="43.96118" lon="4.71847">
        <ele>59.8</ele>
        <time>2019-07-10T06:50:46Z</time>
      </trkpt>
      <trkpt lat="43.96127" lon="4.71811">
        <ele>59.8</ele>
        <time>2019-07-10T06:50:51Z</time>
      </trkpt>
      <trkpt lat="43.96129" lon="4.71804">
        <ele>59.8</ele>
        <time>2019-07-10T06:50:52Z</time>
      </trkpt>
      <trkpt lat="43.96131" lon="4.71797">
        <ele>59.8</ele>
        <time>2019-07-10T06:50:53Z</time>
      </trkpt>
      <trkpt lat="43.96137" lon="4.71769">
        <ele>59.6</ele>
        <time>2019-07-10T06:50:57Z</time>
      </trkpt>
      <trkpt lat="43.96144" lon="4.71743">
        <ele>59.8</ele>
        <time>2019-07-10T06:51:01Z</time>
      </trkpt>
      <trkpt lat="43.96159" lon="4.71683">
        <ele>59.2</ele>
        <time>2019-07-10T06:51:10Z</time>
      </trkpt>
      <trkpt lat="43.96169" lon="4.71629">
        <ele>59.2</ele>
        <time>2019-07-10T06:51:18Z</time>
      </trkpt>
      <trkpt lat="43.96181" lon="4.71575">
        <ele>59</ele>
        <time>2019-07-10T06:51:26Z</time>
      </trkpt>
      <trkpt lat="43.96196" lon="4.71504">
        <ele>59.6</ele>
        <time>2019-07-10T06:51:37Z</time>
      </trkpt>
      <trkpt lat="43.96211" lon="4.71433">
        <ele>59.8</ele>
        <time>2019-07-10T06:51:48Z</time>
      </trkpt>
      <trkpt lat="43.96221" lon="4.71384">
        <ele>60</ele>
        <time>2019-07-10T06:51:56Z</time>
      </trkpt>
      <trkpt lat="43.96222" lon="4.71378">
        <ele>60</ele>
        <time>2019-07-10T06:51:57Z</time>
      </trkpt>
      <trkpt lat="43.96225" lon="4.71365">
        <ele>59.8</ele>
        <time>2019-07-10T06:51:59Z</time>
      </trkpt>
      <trkpt lat="43.96228" lon="4.71346">
        <ele>60</ele>
        <time>2019-07-10T06:52:02Z</time>
      </trkpt>
      <trkpt lat="43.96234" lon="4.71321">
        <ele>60</ele>
        <time>2019-07-10T06:52:06Z</time>
      </trkpt>
      <trkpt lat="43.96241" lon="4.7129">
        <ele>60.2</ele>
        <time>2019-07-10T06:52:11Z</time>
      </trkpt>
      <trkpt lat="43.96251" lon="4.71247">
        <ele>60.2</ele>
        <time>2019-07-10T06:52:18Z</time>
      </trkpt>
      <trkpt lat="43.96265" lon="4.71198">
        <ele>60.4</ele>
        <time>2019-07-10T06:52:26Z</time>
      </trkpt>
      <trkpt lat="43.96281" lon="4.71145">
        <ele>61</ele>
        <time>2019-07-10T06:52:34Z</time>
      </trkpt>
      <trkpt lat="43.96284" lon="4.71138">
        <ele>61.2</ele>
        <time>2019-07-10T06:52:35Z</time>
      </trkpt>
      <trkpt lat="43.96297" lon="4.71096">
        <ele>60.8</ele>
        <time>2019-07-10T06:52:41Z</time>
      </trkpt>
      <trkpt lat="43.96306" lon="4.71076">
        <ele>60.2</ele>
        <time>2019-07-10T06:52:44Z</time>
      </trkpt>
      <trkpt lat="43.9632" lon="4.71042">
        <ele>59.4</ele>
        <time>2019-07-10T06:52:49Z</time>
      </trkpt>
      <trkpt lat="43.96331" lon="4.71016">
        <ele>58.8</ele>
        <time>2019-07-10T06:52:53Z</time>
      </trkpt>
      <trkpt lat="43.96357" lon="4.70946">
        <ele>58.2</ele>
        <time>2019-07-10T06:53:03Z</time>
      </trkpt>
      <trkpt lat="43.96381" lon="4.70891">
        <ele>58.2</ele>
        <time>2019-07-10T06:53:12Z</time>
      </trkpt>
      <trkpt lat="43.96401" lon="4.70849">
        <ele>57.6</ele>
        <time>2019-07-10T06:53:19Z</time>
      </trkpt>
      <trkpt lat="43.96405" lon="4.70843">
        <ele>57.6</ele>
        <time>2019-07-10T06:53:20Z</time>
      </trkpt>
      <trkpt lat="43.96408" lon="4.70837">
        <ele>57.6</ele>
        <time>2019-07-10T06:53:21Z</time>
      </trkpt>
      <trkpt lat="43.9643" lon="4.70799">
        <ele>57</ele>
        <time>2019-07-10T06:53:28Z</time>
      </trkpt>
      <trkpt lat="43.96436" lon="4.70789">
        <ele>56.8</ele>
        <time>2019-07-10T06:53:30Z</time>
      </trkpt>
      <trkpt lat="43.96469" lon="4.70732">
        <ele>56.8</ele>
        <time>2019-07-10T06:53:41Z</time>
      </trkpt>
      <trkpt lat="43.96488" lon="4.70701">
        <ele>56.2</ele>
        <time>2019-07-10T06:53:47Z</time>
      </trkpt>
      <trkpt lat="43.96501" lon="4.70681">
        <ele>56.4</ele>
        <time>2019-07-10T06:53:51Z</time>
      </trkpt>
      <trkpt lat="43.96528" lon="4.70639">
        <ele>56.4</ele>
        <time>2019-07-10T06:54:00Z</time>
      </trkpt>
      <trkpt lat="43.96545" lon="4.70617">
        <ele>56.2</ele>
        <time>2019-07-10T06:54:05Z</time>
      </trkpt>
      <trkpt lat="43.96558" lon="4.70597">
        <ele>55.8</ele>
        <time>2019-07-10T06:54:09Z</time>
      </trkpt>
      <trkpt lat="43.9658" lon="4.7056">
        <ele>55.2</ele>
        <time>2019-07-10T06:54:16Z</time>
      </trkpt>
      <trkpt lat="43.96582" lon="4.70554">
        <ele>55.2</ele>
        <time>2019-07-10T06:54:17Z</time>
      </trkpt>
      <trkpt lat="43.96596" lon="4.7051">
        <ele>55.8</ele>
        <time>2019-07-10T06:54:24Z</time>
      </trkpt>
      <trkpt lat="43.96598" lon="4.70504">
        <ele>55.8</ele>
        <time>2019-07-10T06:54:25Z</time>
      </trkpt>
      <trkpt lat="43.96612" lon="4.70459">
        <ele>55.6</ele>
        <time>2019-07-10T06:54:32Z</time>
      </trkpt>
      <trkpt lat="43.96613" lon="4.70453">
        <ele>55.6</ele>
        <time>2019-07-10T06:54:33Z</time>
      </trkpt>
      <trkpt lat="43.96627" lon="4.70404">
        <ele>56.4</ele>
        <time>2019-07-10T06:54:42Z</time>
      </trkpt>
      <trkpt lat="43.96635" lon="4.7037">
        <ele>56.8</ele>
        <time>2019-07-10T06:54:49Z</time>
      </trkpt>
      <trkpt lat="43.96641" lon="4.70341">
        <ele>57.4</ele>
        <time>2019-07-10T06:54:55Z</time>
      </trkpt>
      <trkpt lat="43.96643" lon="4.70332">
        <ele>57.8</ele>
        <time>2019-07-10T06:54:57Z</time>
      </trkpt>
      <trkpt lat="43.96647" lon="4.70317">
        <ele>58.4</ele>
        <time>2019-07-10T06:55:00Z</time>
      </trkpt>
      <trkpt lat="43.96653" lon="4.70294">
        <ele>59.4</ele>
        <time>2019-07-10T06:55:05Z</time>
      </trkpt>
      <trkpt lat="43.96662" lon="4.70274">
        <ele>59.8</ele>
        <time>2019-07-10T06:55:10Z</time>
      </trkpt>
      <trkpt lat="43.96664" lon="4.70265">
        <ele>60</ele>
        <time>2019-07-10T06:55:12Z</time>
      </trkpt>
      <trkpt lat="43.96663" lon="4.70239">
        <ele>59.6</ele>
        <time>2019-07-10T06:55:17Z</time>
      </trkpt>
      <trkpt lat="43.96664" lon="4.70233">
        <ele>59.6</ele>
        <time>2019-07-10T06:55:18Z</time>
      </trkpt>
      <trkpt lat="43.9667" lon="4.7021">
        <ele>59.2</ele>
        <time>2019-07-10T06:55:22Z</time>
      </trkpt>
      <trkpt lat="43.96672" lon="4.70199">
        <ele>59</ele>
        <time>2019-07-10T06:55:24Z</time>
      </trkpt>
      <trkpt lat="43.96674" lon="4.70193">
        <ele>59</ele>
        <time>2019-07-10T06:55:25Z</time>
      </trkpt>
      <trkpt lat="43.9668" lon="4.70157">
        <ele>58.8</ele>
        <time>2019-07-10T06:55:31Z</time>
      </trkpt>
      <trkpt lat="43.96682" lon="4.70151">
        <ele>59</ele>
        <time>2019-07-10T06:55:32Z</time>
      </trkpt>
      <trkpt lat="43.96686" lon="4.7014">
        <ele>59.4</ele>
        <time>2019-07-10T06:55:34Z</time>
      </trkpt>
      <trkpt lat="43.96697" lon="4.70109">
        <ele>60.4</ele>
        <time>2019-07-10T06:55:40Z</time>
      </trkpt>
      <trkpt lat="43.967" lon="4.701">
        <ele>60.8</ele>
        <time>2019-07-10T06:55:42Z</time>
      </trkpt>
      <trkpt lat="43.96704" lon="4.70091">
        <ele>60.8</ele>
        <time>2019-07-10T06:55:44Z</time>
      </trkpt>
      <trkpt lat="43.96713" lon="4.70068">
        <ele>60.6</ele>
        <time>2019-07-10T06:55:49Z</time>
      </trkpt>
      <trkpt lat="43.96715" lon="4.70064">
        <ele>60.6</ele>
        <time>2019-07-10T06:55:50Z</time>
      </trkpt>
      <trkpt lat="43.9673" lon="4.70034">
        <ele>60.4</ele>
        <time>2019-07-10T06:55:57Z</time>
      </trkpt>
      <trkpt lat="43.96737" lon="4.70021">
        <ele>60.8</ele>
        <time>2019-07-10T06:56:00Z</time>
      </trkpt>
      <trkpt lat="43.96745" lon="4.70005">
        <ele>61.4</ele>
        <time>2019-07-10T06:56:04Z</time>
      </trkpt>
      <trkpt lat="43.96761" lon="4.69972">
        <ele>62.2</ele>
        <time>2019-07-10T06:56:12Z</time>
      </trkpt>
      <trkpt lat="43.96783" lon="4.69931">
        <ele>62.4</ele>
        <time>2019-07-10T06:56:22Z</time>
      </trkpt>
      <trkpt lat="43.96801" lon="4.69903">
        <ele>62.2</ele>
        <time>2019-07-10T06:56:30Z</time>
      </trkpt>
      <trkpt lat="43.96808" lon="4.69892">
        <ele>62.8</ele>
        <time>2019-07-10T06:56:34Z</time>
      </trkpt>
      <trkpt lat="43.96811" lon="4.69887">
        <ele>63.4</ele>
        <time>2019-07-10T06:56:36Z</time>
      </trkpt>
      <trkpt lat="43.96815" lon="4.69881">
        <ele>64.6</ele>
        <time>2019-07-10T06:56:38Z</time>
      </trkpt>
      <trkpt lat="43.9682" lon="4.69874">
        <ele>65.8</ele>
        <time>2019-07-10T06:56:41Z</time>
      </trkpt>
      <trkpt lat="43.96822" lon="4.69872">
        <ele>65.8</ele>
        <time>2019-07-10T06:56:42Z</time>
      </trkpt>
      <trkpt lat="43.96823" lon="4.69869">
        <ele>66.2</ele>
        <time>2019-07-10T06:56:43Z</time>
      </trkpt>
      <trkpt lat="43.96827" lon="4.69864">
        <ele>66.6</ele>
        <time>2019-07-10T06:56:45Z</time>
      </trkpt>
      <trkpt lat="43.9684" lon="4.6984">
        <ele>66.6</ele>
        <time>2019-07-10T06:56:53Z</time>
      </trkpt>
      <trkpt lat="43.96855" lon="4.69819">
        <ele>66.6</ele>
        <time>2019-07-10T06:57:01Z</time>
      </trkpt>
      <trkpt lat="43.96856" lon="4.69816">
        <ele>66.6</ele>
        <time>2019-07-10T06:57:02Z</time>
      </trkpt>
      <trkpt lat="43.96861" lon="4.69808">
        <ele>67</ele>
        <time>2019-07-10T06:57:05Z</time>
      </trkpt>
      <trkpt lat="43.96868" lon="4.69797">
        <ele>67.8</ele>
        <time>2019-07-10T06:57:09Z</time>
      </trkpt>
      <trkpt lat="43.96874" lon="4.69785">
        <ele>68.6</ele>
        <time>2019-07-10T06:57:13Z</time>
      </trkpt>
      <trkpt lat="43.9688" lon="4.69773">
        <ele>69</ele>
        <time>2019-07-10T06:57:17Z</time>
      </trkpt>
      <trkpt lat="43.96889" lon="4.69755">
        <ele>69.8</ele>
        <time>2019-07-10T06:57:23Z</time>
      </trkpt>
      <trkpt lat="43.96891" lon="4.69752">
        <ele>69.8</ele>
        <time>2019-07-10T06:57:24Z</time>
      </trkpt>
      <trkpt lat="43.96902" lon="4.69731">
        <ele>70.6</ele>
        <time>2019-07-10T06:57:31Z</time>
      </trkpt>
      <trkpt lat="43.96905" lon="4.69725">
        <ele>71.2</ele>
        <time>2019-07-10T06:57:33Z</time>
      </trkpt>
      <trkpt lat="43.96909" lon="4.69716">
        <ele>71.4</ele>
        <time>2019-07-10T06:57:36Z</time>
      </trkpt>
      <trkpt lat="43.96911" lon="4.69713">
        <ele>71.6</ele>
        <time>2019-07-10T06:57:37Z</time>
      </trkpt>
      <trkpt lat="43.96913" lon="4.6971">
        <ele>72</ele>
        <time>2019-07-10T06:57:38Z</time>
      </trkpt>
      <trkpt lat="43.96914" lon="4.69707">
        <ele>72.4</ele>
        <time>2019-07-10T06:57:39Z</time>
      </trkpt>
      <trkpt lat="43.9692" lon="4.69696">
        <ele>73.6</ele>
        <time>2019-07-10T06:57:43Z</time>
      </trkpt>
      <trkpt lat="43.96925" lon="4.69688">
        <ele>74.2</ele>
        <time>2019-07-10T06:57:46Z</time>
      </trkpt>
      <trkpt lat="43.96927" lon="4.69686">
        <ele>74.4</ele>
        <time>2019-07-10T06:57:47Z</time>
      </trkpt>
      <trkpt lat="43.96936" lon="4.6967">
        <ele>73.6</ele>
        <time>2019-07-10T06:57:53Z</time>
      </trkpt>
      <trkpt lat="43.96938" lon="4.69667">
        <ele>73.4</ele>
        <time>2019-07-10T06:57:54Z</time>
      </trkpt>
      <trkpt lat="43.9694" lon="4.69664">
        <ele>73.2</ele>
        <time>2019-07-10T06:57:55Z</time>
      </trkpt>
      <trkpt lat="43.96941" lon="4.69661">
        <ele>73</ele>
        <time>2019-07-10T06:57:56Z</time>
      </trkpt>
      <trkpt lat="43.96943" lon="4.69658">
        <ele>73</ele>
        <time>2019-07-10T06:57:57Z</time>
      </trkpt>
      <trkpt lat="43.96944" lon="4.69654">
        <ele>73</ele>
        <time>2019-07-10T06:57:58Z</time>
      </trkpt>
      <trkpt lat="43.96949" lon="4.69645">
        <ele>73.4</ele>
        <time>2019-07-10T06:58:01Z</time>
      </trkpt>
      <trkpt lat="43.96962" lon="4.69621">
        <ele>74.6</ele>
        <time>2019-07-10T06:58:09Z</time>
      </trkpt>
      <trkpt lat="43.96964" lon="4.69618">
        <ele>74.6</ele>
        <time>2019-07-10T06:58:10Z</time>
      </trkpt>
      <trkpt lat="43.96971" lon="4.69597">
        <ele>75.2</ele>
        <time>2019-07-10T06:58:16Z</time>
      </trkpt>
      <trkpt lat="43.96974" lon="4.69569">
        <ele>76</ele>
        <time>2019-07-10T06:58:23Z</time>
      </trkpt>
      <trkpt lat="43.96978" lon="4.69537">
        <ele>77</ele>
        <time>2019-07-10T06:58:31Z</time>
      </trkpt>
      <trkpt lat="43.9698" lon="4.69514">
        <ele>77.2</ele>
        <time>2019-07-10T06:58:37Z</time>
      </trkpt>
      <trkpt lat="43.96982" lon="4.69502">
        <ele>77.4</ele>
        <time>2019-07-10T06:58:40Z</time>
      </trkpt>
      <trkpt lat="43.96984" lon="4.69491">
        <ele>77.8</ele>
        <time>2019-07-10T06:58:43Z</time>
      </trkpt>
      <trkpt lat="43.96986" lon="4.69475">
        <ele>78.2</ele>
        <time>2019-07-10T06:58:47Z</time>
      </trkpt>
      <trkpt lat="43.96991" lon="4.69446">
        <ele>78.8</ele>
        <time>2019-07-10T06:58:54Z</time>
      </trkpt>
      <trkpt lat="43.96997" lon="4.69413">
        <ele>79.2</ele>
        <time>2019-07-10T06:59:02Z</time>
      </trkpt>
      <trkpt lat="43.97" lon="4.69392">
        <ele>79.4</ele>
        <time>2019-07-10T06:59:07Z</time>
      </trkpt>
      <trkpt lat="43.97002" lon="4.69379">
        <ele>79.4</ele>
        <time>2019-07-10T06:59:10Z</time>
      </trkpt>
      <trkpt lat="43.97003" lon="4.69375">
        <ele>79.6</ele>
        <time>2019-07-10T06:59:11Z</time>
      </trkpt>
      <trkpt lat="43.9701" lon="4.69334">
        <ele>81.6</ele>
        <time>2019-07-10T06:59:21Z</time>
      </trkpt>
      <trkpt lat="43.97011" lon="4.6933">
        <ele>81.4</ele>
        <time>2019-07-10T06:59:22Z</time>
      </trkpt>
      <trkpt lat="43.97014" lon="4.69308">
        <ele>80.8</ele>
        <time>2019-07-10T06:59:27Z</time>
      </trkpt>
      <trkpt lat="43.97017" lon="4.69295">
        <ele>80.8</ele>
        <time>2019-07-10T06:59:30Z</time>
      </trkpt>
      <trkpt lat="43.97024" lon="4.69258">
        <ele>81.4</ele>
        <time>2019-07-10T06:59:39Z</time>
      </trkpt>
      <trkpt lat="43.97028" lon="4.69243">
        <ele>81.8</ele>
        <time>2019-07-10T06:59:43Z</time>
      </trkpt>
      <trkpt lat="43.97031" lon="4.69232">
        <ele>82.2</ele>
        <time>2019-07-10T06:59:46Z</time>
      </trkpt>
      <trkpt lat="43.97039" lon="4.6921">
        <ele>83</ele>
        <time>2019-07-10T06:59:53Z</time>
      </trkpt>
      <trkpt lat="43.97049" lon="4.69192">
        <ele>83.6</ele>
        <time>2019-07-10T06:59:59Z</time>
      </trkpt>
      <trkpt lat="43.97051" lon="4.69189">
        <ele>83.6</ele>
        <time>2019-07-10T07:00:00Z</time>
      </trkpt>
      <trkpt lat="43.97059" lon="4.69174">
        <ele>83.8</ele>
        <time>2019-07-10T07:00:05Z</time>
      </trkpt>
      <trkpt lat="43.97062" lon="4.69169">
        <ele>84.4</ele>
        <time>2019-07-10T07:00:07Z</time>
      </trkpt>
      <trkpt lat="43.97068" lon="4.69157">
        <ele>85</ele>
        <time>2019-07-10T07:00:11Z</time>
      </trkpt>
      <trkpt lat="43.9707" lon="4.6915">
        <ele>85.2</ele>
        <time>2019-07-10T07:00:13Z</time>
      </trkpt>
      <trkpt lat="43.9707" lon="4.69137">
        <ele>85.6</ele>
        <time>2019-07-10T07:00:17Z</time>
      </trkpt>
      <trkpt lat="43.9707" lon="4.6913">
        <ele>85.6</ele>
        <time>2019-07-10T07:00:19Z</time>
      </trkpt>
      <trkpt lat="43.97067" lon="4.69111">
        <ele>86.6</ele>
        <time>2019-07-10T07:00:25Z</time>
      </trkpt>
      <trkpt lat="43.97067" lon="4.69105">
        <ele>86.8</ele>
        <time>2019-07-10T07:00:27Z</time>
      </trkpt>
      <trkpt lat="43.97064" lon="4.69072">
        <ele>88.6</ele>
        <time>2019-07-10T07:00:36Z</time>
      </trkpt>
      <trkpt lat="43.97063" lon="4.69057">
        <ele>88.8</ele>
        <time>2019-07-10T07:00:40Z</time>
      </trkpt>
      <trkpt lat="43.97061" lon="4.69028">
        <ele>89.6</ele>
        <time>2019-07-10T07:00:47Z</time>
      </trkpt>
      <trkpt lat="43.9706" lon="4.69012">
        <ele>89.8</ele>
        <time>2019-07-10T07:00:51Z</time>
      </trkpt>
      <trkpt lat="43.97061" lon="4.68989">
        <ele>90.4</ele>
        <time>2019-07-10T07:00:57Z</time>
      </trkpt>
      <trkpt lat="43.97062" lon="4.68967">
        <ele>91</ele>
        <time>2019-07-10T07:01:03Z</time>
      </trkpt>
      <trkpt lat="43.97063" lon="4.6896">
        <ele>91.2</ele>
        <time>2019-07-10T07:01:05Z</time>
      </trkpt>
      <trkpt lat="43.97063" lon="4.68956">
        <ele>91.4</ele>
        <time>2019-07-10T07:01:06Z</time>
      </trkpt>
      <trkpt lat="43.97065" lon="4.68945">
        <ele>92</ele>
        <time>2019-07-10T07:01:09Z</time>
      </trkpt>
      <trkpt lat="43.97068" lon="4.68928">
        <ele>93.6</ele>
        <time>2019-07-10T07:01:14Z</time>
      </trkpt>
      <trkpt lat="43.97069" lon="4.68917">
        <ele>94.2</ele>
        <time>2019-07-10T07:01:17Z</time>
      </trkpt>
      <trkpt lat="43.97072" lon="4.68903">
        <ele>94.6</ele>
        <time>2019-07-10T07:01:21Z</time>
      </trkpt>
      <trkpt lat="43.97075" lon="4.68884">
        <ele>95.2</ele>
        <time>2019-07-10T07:01:27Z</time>
      </trkpt>
      <trkpt lat="43.97077" lon="4.68871">
        <ele>95.6</ele>
        <time>2019-07-10T07:01:31Z</time>
      </trkpt>
      <trkpt lat="43.97078" lon="4.68861">
        <ele>95.8</ele>
        <time>2019-07-10T07:01:34Z</time>
      </trkpt>
      <trkpt lat="43.97082" lon="4.6884">
        <ele>97.2</ele>
        <time>2019-07-10T07:01:40Z</time>
      </trkpt>
      <trkpt lat="43.97084" lon="4.68826">
        <ele>97.8</ele>
        <time>2019-07-10T07:01:44Z</time>
      </trkpt>
      <trkpt lat="43.97085" lon="4.68819">
        <ele>97.8</ele>
        <time>2019-07-10T07:01:46Z</time>
      </trkpt>
      <trkpt lat="43.97087" lon="4.68809">
        <ele>98.2</ele>
        <time>2019-07-10T07:01:49Z</time>
      </trkpt>
      <trkpt lat="43.97088" lon="4.68806">
        <ele>98.4</ele>
        <time>2019-07-10T07:01:50Z</time>
      </trkpt>
      <trkpt lat="43.97089" lon="4.68802">
        <ele>98.4</ele>
        <time>2019-07-10T07:01:51Z</time>
      </trkpt>
      <trkpt lat="43.97091" lon="4.68796">
        <ele>98.8</ele>
        <time>2019-07-10T07:01:53Z</time>
      </trkpt>
      <trkpt lat="43.97092" lon="4.68793">
        <ele>98.8</ele>
        <time>2019-07-10T07:01:54Z</time>
      </trkpt>
      <trkpt lat="43.97095" lon="4.68788">
        <ele>99</ele>
        <time>2019-07-10T07:01:56Z</time>
      </trkpt>
      <trkpt lat="43.97103" lon="4.68782">
        <ele>100</ele>
        <time>2019-07-10T07:02:01Z</time>
      </trkpt>
      <trkpt lat="43.97114" lon="4.68772">
        <ele>100.8</ele>
        <time>2019-07-10T07:02:07Z</time>
      </trkpt>
      <trkpt lat="43.9713" lon="4.68753">
        <ele>102.2</ele>
        <time>2019-07-10T07:02:16Z</time>
      </trkpt>
      <trkpt lat="43.97141" lon="4.68743">
        <ele>102.8</ele>
        <time>2019-07-10T07:02:21Z</time>
      </trkpt>
      <trkpt lat="43.97146" lon="4.68739">
        <ele>103</ele>
        <time>2019-07-10T07:02:23Z</time>
      </trkpt>
      <trkpt lat="43.9716" lon="4.68728">
        <ele>103.6</ele>
        <time>2019-07-10T07:02:29Z</time>
      </trkpt>
      <trkpt lat="43.97182" lon="4.6871">
        <ele>104.2</ele>
        <time>2019-07-10T07:02:38Z</time>
      </trkpt>
      <trkpt lat="43.97183" lon="4.68707">
        <ele>104.4</ele>
        <time>2019-07-10T07:02:39Z</time>
      </trkpt>
      <trkpt lat="43.97191" lon="4.68697">
        <ele>104.6</ele>
        <time>2019-07-10T07:02:43Z</time>
      </trkpt>
      <trkpt lat="43.97194" lon="4.68692">
        <ele>105</ele>
        <time>2019-07-10T07:02:45Z</time>
      </trkpt>
      <trkpt lat="43.97198" lon="4.68684">
        <ele>105.4</ele>
        <time>2019-07-10T07:02:48Z</time>
      </trkpt>
      <trkpt lat="43.97199" lon="4.68682">
        <ele>105.4</ele>
        <time>2019-07-10T07:02:49Z</time>
      </trkpt>
      <trkpt lat="43.97207" lon="4.68669">
        <ele>106</ele>
        <time>2019-07-10T07:02:54Z</time>
      </trkpt>
      <trkpt lat="43.97211" lon="4.68663">
        <ele>106.2</ele>
        <time>2019-07-10T07:02:56Z</time>
      </trkpt>
      <trkpt lat="43.97235" lon="4.68635">
        <ele>107.8</ele>
        <time>2019-07-10T07:03:06Z</time>
      </trkpt>
      <trkpt lat="43.97257" lon="4.6861">
        <ele>107.6</ele>
        <time>2019-07-10T07:03:13Z</time>
      </trkpt>
      <trkpt lat="43.9726" lon="4.68606">
        <ele>107.4</ele>
        <time>2019-07-10T07:03:14Z</time>
      </trkpt>
      <trkpt lat="43.97263" lon="4.68602">
        <ele>107.4</ele>
        <time>2019-07-10T07:03:15Z</time>
      </trkpt>
      <trkpt lat="43.9728" lon="4.68583">
        <ele>107.2</ele>
        <time>2019-07-10T07:03:20Z</time>
      </trkpt>
      <trkpt lat="43.97283" lon="4.68579">
        <ele>107.2</ele>
        <time>2019-07-10T07:03:21Z</time>
      </trkpt>
      <trkpt lat="43.97293" lon="4.68567">
        <ele>106.8</ele>
        <time>2019-07-10T07:03:24Z</time>
      </trkpt>
      <trkpt lat="43.97307" lon="4.68553">
        <ele>106.6</ele>
        <time>2019-07-10T07:03:28Z</time>
      </trkpt>
      <trkpt lat="43.9732" lon="4.68538">
        <ele>106.2</ele>
        <time>2019-07-10T07:03:32Z</time>
      </trkpt>
      <trkpt lat="43.97329" lon="4.68532">
        <ele>106.2</ele>
        <time>2019-07-10T07:03:35Z</time>
      </trkpt>
      <trkpt lat="43.97332" lon="4.6853">
        <ele>106</ele>
        <time>2019-07-10T07:03:36Z</time>
      </trkpt>
      <trkpt lat="43.97335" lon="4.68523">
        <ele>106</ele>
        <time>2019-07-10T07:03:38Z</time>
      </trkpt>
      <trkpt lat="43.97333" lon="4.68503">
        <ele>105.8</ele>
        <time>2019-07-10T07:03:43Z</time>
      </trkpt>
      <trkpt lat="43.9733" lon="4.68481">
        <ele>105.4</ele>
        <time>2019-07-10T07:03:50Z</time>
      </trkpt>
      <trkpt lat="43.9733" lon="4.68481">
        <ele>105.2</ele>
        <time>2019-07-10T07:03:51Z</time>
      </trkpt>
      <trkpt lat="43.9733" lon="4.68478">
        <ele>105.4</ele>
        <time>2019-07-10T07:05:35Z</time>
      </trkpt>
      <trkpt lat="43.97331" lon="4.68469">
        <ele>105.6</ele>
        <time>2019-07-10T07:05:38Z</time>
      </trkpt>
      <trkpt lat="43.9733" lon="4.6846">
        <ele>105.8</ele>
        <time>2019-07-10T07:05:41Z</time>
      </trkpt>
      <trkpt lat="43.9733" lon="4.68457">
        <ele>106</ele>
        <time>2019-07-10T07:05:42Z</time>
      </trkpt>
      <trkpt lat="43.9733" lon="4.68441">
        <ele>106.4</ele>
        <time>2019-07-10T07:05:47Z</time>
      </trkpt>
      <trkpt lat="43.97331" lon="4.68437">
        <ele>106.4</ele>
        <time>2019-07-10T07:05:49Z</time>
      </trkpt>
      <trkpt lat="43.97331" lon="4.68435">
        <ele>106.4</ele>
        <time>2019-07-10T07:05:50Z</time>
      </trkpt>
      <trkpt lat="43.97332" lon="4.68419">
        <ele>106.6</ele>
        <time>2019-07-10T07:05:57Z</time>
      </trkpt>
      <trkpt lat="43.97333" lon="4.68405">
        <ele>106.6</ele>
        <time>2019-07-10T07:06:01Z</time>
      </trkpt>
      <trkpt lat="43.97334" lon="4.68394">
        <ele>106.8</ele>
        <time>2019-07-10T07:06:04Z</time>
      </trkpt>
      <trkpt lat="43.97335" lon="4.68376">
        <ele>107.6</ele>
        <time>2019-07-10T07:06:09Z</time>
      </trkpt>
      <trkpt lat="43.97336" lon="4.68369">
        <ele>107.8</ele>
        <time>2019-07-10T07:06:11Z</time>
      </trkpt>
      <trkpt lat="43.97336" lon="4.68347">
        <ele>108.8</ele>
        <time>2019-07-10T07:06:17Z</time>
      </trkpt>
      <trkpt lat="43.97337" lon="4.6834">
        <ele>109</ele>
        <time>2019-07-10T07:06:19Z</time>
      </trkpt>
      <trkpt lat="43.97337" lon="4.68326">
        <ele>109.2</ele>
        <time>2019-07-10T07:06:23Z</time>
      </trkpt>
      <trkpt lat="43.97338" lon="4.68322">
        <ele>109.2</ele>
        <time>2019-07-10T07:06:24Z</time>
      </trkpt>
      <trkpt lat="43.97338" lon="4.68314">
        <ele>109.4</ele>
        <time>2019-07-10T07:06:26Z</time>
      </trkpt>
      <trkpt lat="43.97341" lon="4.68299">
        <ele>109.6</ele>
        <time>2019-07-10T07:06:30Z</time>
      </trkpt>
      <trkpt lat="43.97343" lon="4.68284">
        <ele>109.8</ele>
        <time>2019-07-10T07:06:34Z</time>
      </trkpt>
      <trkpt lat="43.97346" lon="4.68267">
        <ele>110.4</ele>
        <time>2019-07-10T07:06:39Z</time>
      </trkpt>
      <trkpt lat="43.9735" lon="4.68248">
        <ele>111.2</ele>
        <time>2019-07-10T07:06:45Z</time>
      </trkpt>
      <trkpt lat="43.97352" lon="4.68243">
        <ele>111.4</ele>
        <time>2019-07-10T07:06:47Z</time>
      </trkpt>
      <trkpt lat="43.97352" lon="4.6824">
        <ele>111.8</ele>
        <time>2019-07-10T07:06:48Z</time>
      </trkpt>
      <trkpt lat="43.97353" lon="4.6823">
        <ele>112.8</ele>
        <time>2019-07-10T07:06:53Z</time>
      </trkpt>
      <trkpt lat="43.97353" lon="4.6822">
        <ele>113.4</ele>
        <time>2019-07-10T07:06:56Z</time>
      </trkpt>
      <trkpt lat="43.97352" lon="4.68213">
        <ele>114</ele>
        <time>2019-07-10T07:06:58Z</time>
      </trkpt>
      <trkpt lat="43.9735" lon="4.68199">
        <ele>114.4</ele>
        <time>2019-07-10T07:07:03Z</time>
      </trkpt>
      <trkpt lat="43.9735" lon="4.68195">
        <ele>114.4</ele>
        <time>2019-07-10T07:07:04Z</time>
      </trkpt>
      <trkpt lat="43.97349" lon="4.68176">
        <ele>116</ele>
        <time>2019-07-10T07:07:10Z</time>
      </trkpt>
      <trkpt lat="43.97349" lon="4.68173">
        <ele>116</ele>
        <time>2019-07-10T07:07:11Z</time>
      </trkpt>
      <trkpt lat="43.97352" lon="4.68164">
        <ele>116.4</ele>
        <time>2019-07-10T07:07:14Z</time>
      </trkpt>
      <trkpt lat="43.97353" lon="4.68158">
        <ele>116.6</ele>
        <time>2019-07-10T07:07:16Z</time>
      </trkpt>
      <trkpt lat="43.97355" lon="4.68153">
        <ele>116.8</ele>
        <time>2019-07-10T07:07:18Z</time>
      </trkpt>
      <trkpt lat="43.9736" lon="4.68143">
        <ele>117.2</ele>
        <time>2019-07-10T07:07:22Z</time>
      </trkpt>
      <trkpt lat="43.97361" lon="4.68136">
        <ele>118.2</ele>
        <time>2019-07-10T07:07:24Z</time>
      </trkpt>
      <trkpt lat="43.97363" lon="4.68127">
        <ele>119</ele>
        <time>2019-07-10T07:07:27Z</time>
      </trkpt>
      <trkpt lat="43.97363" lon="4.68124">
        <ele>119</ele>
        <time>2019-07-10T07:07:28Z</time>
      </trkpt>
      <trkpt lat="43.97363" lon="4.68121">
        <ele>119.4</ele>
        <time>2019-07-10T07:07:29Z</time>
      </trkpt>
      <trkpt lat="43.97362" lon="4.68115">
        <ele>119.8</ele>
        <time>2019-07-10T07:07:31Z</time>
      </trkpt>
      <trkpt lat="43.9736" lon="4.68108">
        <ele>120.6</ele>
        <time>2019-07-10T07:07:34Z</time>
      </trkpt>
      <trkpt lat="43.97357" lon="4.68106">
        <ele>120.6</ele>
        <time>2019-07-10T07:07:36Z</time>
      </trkpt>
      <trkpt lat="43.97347" lon="4.68103">
        <ele>121.8</ele>
        <time>2019-07-10T07:07:42Z</time>
      </trkpt>
      <trkpt lat="43.97339" lon="4.68096">
        <ele>122.8</ele>
        <time>2019-07-10T07:07:47Z</time>
      </trkpt>
      <trkpt lat="43.97338" lon="4.68094">
        <ele>122.8</ele>
        <time>2019-07-10T07:07:48Z</time>
      </trkpt>
      <trkpt lat="43.97334" lon="4.68079">
        <ele>124.4</ele>
        <time>2019-07-10T07:07:54Z</time>
      </trkpt>
      <trkpt lat="43.97332" lon="4.68067">
        <ele>125</ele>
        <time>2019-07-10T07:07:58Z</time>
      </trkpt>
      <trkpt lat="43.97331" lon="4.68059">
        <ele>125.8</ele>
        <time>2019-07-10T07:08:01Z</time>
      </trkpt>
      <trkpt lat="43.97331" lon="4.68057">
        <ele>126</ele>
        <time>2019-07-10T07:08:02Z</time>
      </trkpt>
      <trkpt lat="43.9733" lon="4.68053">
        <ele>126.8</ele>
        <time>2019-07-10T07:08:04Z</time>
      </trkpt>
      <trkpt lat="43.97328" lon="4.68047">
        <ele>127</ele>
        <time>2019-07-10T07:08:07Z</time>
      </trkpt>
      <trkpt lat="43.97326" lon="4.68043">
        <ele>127.6</ele>
        <time>2019-07-10T07:08:09Z</time>
      </trkpt>
      <trkpt lat="43.97323" lon="4.68034">
        <ele>128.6</ele>
        <time>2019-07-10T07:08:14Z</time>
      </trkpt>
      <trkpt lat="43.97319" lon="4.68022">
        <ele>129.6</ele>
        <time>2019-07-10T07:08:19Z</time>
      </trkpt>
      <trkpt lat="43.97318" lon="4.68017">
        <ele>130.4</ele>
        <time>2019-07-10T07:08:21Z</time>
      </trkpt>
      <trkpt lat="43.97317" lon="4.68014">
        <ele>130.4</ele>
        <time>2019-07-10T07:08:22Z</time>
      </trkpt>
      <trkpt lat="43.97316" lon="4.68006">
        <ele>131.6</ele>
        <time>2019-07-10T07:08:25Z</time>
      </trkpt>
      <trkpt lat="43.97315" lon="4.67995">
        <ele>132.2</ele>
        <time>2019-07-10T07:08:29Z</time>
      </trkpt>
      <trkpt lat="43.97313" lon="4.67988">
        <ele>132.8</ele>
        <time>2019-07-10T07:08:32Z</time>
      </trkpt>
      <trkpt lat="43.9731" lon="4.6798">
        <ele>133.2</ele>
        <time>2019-07-10T07:08:36Z</time>
      </trkpt>
      <trkpt lat="43.97308" lon="4.67966">
        <ele>135</ele>
        <time>2019-07-10T07:08:42Z</time>
      </trkpt>
      <trkpt lat="43.97308" lon="4.67964">
        <ele>135.4</ele>
        <time>2019-07-10T07:08:43Z</time>
      </trkpt>
      <trkpt lat="43.97307" lon="4.67948">
        <ele>137.2</ele>
        <time>2019-07-10T07:08:50Z</time>
      </trkpt>
      <trkpt lat="43.97307" lon="4.67946">
        <ele>137.4</ele>
        <time>2019-07-10T07:08:51Z</time>
      </trkpt>
      <trkpt lat="43.97306" lon="4.67942">
        <ele>137.6</ele>
        <time>2019-07-10T07:08:53Z</time>
      </trkpt>
      <trkpt lat="43.97306" lon="4.67939">
        <ele>137.8</ele>
        <time>2019-07-10T07:08:54Z</time>
      </trkpt>
      <trkpt lat="43.97305" lon="4.67935">
        <ele>138</ele>
        <time>2019-07-10T07:08:56Z</time>
      </trkpt>
      <trkpt lat="43.97305" lon="4.67932">
        <ele>138.2</ele>
        <time>2019-07-10T07:08:57Z</time>
      </trkpt>
      <trkpt lat="43.97306" lon="4.67928">
        <ele>139</ele>
        <time>2019-07-10T07:08:59Z</time>
      </trkpt>
      <trkpt lat="43.97305" lon="4.6792">
        <ele>140.2</ele>
        <time>2019-07-10T07:09:02Z</time>
      </trkpt>
      <trkpt lat="43.97304" lon="4.67915">
        <ele>141</ele>
        <time>2019-07-10T07:09:04Z</time>
      </trkpt>
      <trkpt lat="43.97302" lon="4.67901">
        <ele>142.4</ele>
        <time>2019-07-10T07:09:10Z</time>
      </trkpt>
      <trkpt lat="43.97302" lon="4.67899">
        <ele>142.6</ele>
        <time>2019-07-10T07:09:11Z</time>
      </trkpt>
      <trkpt lat="43.97301" lon="4.6789">
        <ele>143.2</ele>
        <time>2019-07-10T07:09:15Z</time>
      </trkpt>
      <trkpt lat="43.97301" lon="4.67884">
        <ele>143.6</ele>
        <time>2019-07-10T07:09:18Z</time>
      </trkpt>
      <trkpt lat="43.97299" lon="4.67876">
        <ele>145</ele>
        <time>2019-07-10T07:09:22Z</time>
      </trkpt>
      <trkpt lat="43.97299" lon="4.67871">
        <ele>145.8</ele>
        <time>2019-07-10T07:09:24Z</time>
      </trkpt>
      <trkpt lat="43.97299" lon="4.67869">
        <ele>146</ele>
        <time>2019-07-10T07:09:25Z</time>
      </trkpt>
      <trkpt lat="43.97298" lon="4.67866">
        <ele>146.6</ele>
        <time>2019-07-10T07:09:27Z</time>
      </trkpt>
      <trkpt lat="43.97297" lon="4.67862">
        <ele>147</ele>
        <time>2019-07-10T07:09:29Z</time>
      </trkpt>
      <trkpt lat="43.97295" lon="4.67854">
        <ele>148.6</ele>
        <time>2019-07-10T07:09:33Z</time>
      </trkpt>
      <trkpt lat="43.97295" lon="4.67852">
        <ele>149.2</ele>
        <time>2019-07-10T07:09:34Z</time>
      </trkpt>
      <trkpt lat="43.97294" lon="4.67846">
        <ele>150</ele>
        <time>2019-07-10T07:09:37Z</time>
      </trkpt>
      <trkpt lat="43.97293" lon="4.67841">
        <ele>150.2</ele>
        <time>2019-07-10T07:09:39Z</time>
      </trkpt>
      <trkpt lat="43.97293" lon="4.67831">
        <ele>151.8</ele>
        <time>2019-07-10T07:09:44Z</time>
      </trkpt>
      <trkpt lat="43.97295" lon="4.6783">
        <ele>152</ele>
        <time>2019-07-10T07:09:45Z</time>
      </trkpt>
      <trkpt lat="43.97297" lon="4.6783">
        <ele>152.4</ele>
        <time>2019-07-10T07:09:48Z</time>
      </trkpt>
      <trkpt lat="43.97298" lon="4.67828">
        <ele>152.8</ele>
        <time>2019-07-10T07:10:10Z</time>
      </trkpt>
      <trkpt lat="43.973" lon="4.67827">
        <ele>152.8</ele>
        <time>2019-07-10T07:10:11Z</time>
      </trkpt>
      <trkpt lat="43.97302" lon="4.67826">
        <ele>152.8</ele>
        <time>2019-07-10T07:10:12Z</time>
      </trkpt>
      <trkpt lat="43.97306" lon="4.67823">
        <ele>152.8</ele>
        <time>2019-07-10T07:10:14Z</time>
      </trkpt>
      <trkpt lat="43.97308" lon="4.67818">
        <ele>153</ele>
        <time>2019-07-10T07:10:16Z</time>
      </trkpt>
      <trkpt lat="43.9731" lon="4.67815">
        <ele>153.4</ele>
        <time>2019-07-10T07:10:17Z</time>
      </trkpt>
      <trkpt lat="43.97309" lon="4.67805">
        <ele>154</ele>
        <time>2019-07-10T07:10:21Z</time>
      </trkpt>
      <trkpt lat="43.97307" lon="4.67799">
        <ele>154.2</ele>
        <time>2019-07-10T07:10:24Z</time>
      </trkpt>
      <trkpt lat="43.97304" lon="4.67796">
        <ele>154.4</ele>
        <time>2019-07-10T07:10:27Z</time>
      </trkpt>
      <trkpt lat="43.97303" lon="4.67796">
        <ele>154.4</ele>
        <time>2019-07-10T07:10:29Z</time>
      </trkpt>
      <trkpt lat="43.97302" lon="4.67794">
        <ele>154.6</ele>
        <time>2019-07-10T07:10:42Z</time>
      </trkpt>
      <trkpt lat="43.97301" lon="4.67792">
        <ele>154.6</ele>
        <time>2019-07-10T07:10:43Z</time>
      </trkpt>
      <trkpt lat="43.97299" lon="4.6779">
        <ele>154.6</ele>
        <time>2019-07-10T07:10:44Z</time>
      </trkpt>
      <trkpt lat="43.97294" lon="4.67778">
        <ele>155</ele>
        <time>2019-07-10T07:10:48Z</time>
      </trkpt>
      <trkpt lat="43.97283" lon="4.67765">
        <ele>155.2</ele>
        <time>2019-07-10T07:10:54Z</time>
      </trkpt>
      <trkpt lat="43.97273" lon="4.67752">
        <ele>155.2</ele>
        <time>2019-07-10T07:11:00Z</time>
      </trkpt>
      <trkpt lat="43.97269" lon="4.67733">
        <ele>155.4</ele>
        <time>2019-07-10T07:11:07Z</time>
      </trkpt>
      <trkpt lat="43.97269" lon="4.67727">
        <ele>155.4</ele>
        <time>2019-07-10T07:11:12Z</time>
      </trkpt>
      <trkpt lat="43.97269" lon="4.67722">
        <ele>155.4</ele>
        <time>2019-07-10T07:11:32Z</time>
      </trkpt>
      <trkpt lat="43.97268" lon="4.67719">
        <ele>155.4</ele>
        <time>2019-07-10T07:11:33Z</time>
      </trkpt>
      <trkpt lat="43.97268" lon="4.67717">
        <ele>155.8</ele>
        <time>2019-07-10T07:11:34Z</time>
      </trkpt>
      <trkpt lat="43.97268" lon="4.6771">
        <ele>156.6</ele>
        <time>2019-07-10T07:11:38Z</time>
      </trkpt>
      <trkpt lat="43.97268" lon="4.67708">
        <ele>156.8</ele>
        <time>2019-07-10T07:11:42Z</time>
      </trkpt>
      <trkpt lat="43.97264" lon="4.67702">
        <ele>155.6</ele>
        <time>2019-07-10T07:14:37Z</time>
      </trkpt>
      <trkpt lat="43.97262" lon="4.67695">
        <ele>155.8</ele>
        <time>2019-07-10T07:14:40Z</time>
      </trkpt>
      <trkpt lat="43.9726" lon="4.67689">
        <ele>155.6</ele>
        <time>2019-07-10T07:14:45Z</time>
      </trkpt>
      <trkpt lat="43.97256" lon="4.6768">
        <ele>155.2</ele>
        <time>2019-07-10T07:15:02Z</time>
      </trkpt>
      <trkpt lat="43.97254" lon="4.6767">
        <ele>155.2</ele>
        <time>2019-07-10T07:15:05Z</time>
      </trkpt>
      <trkpt lat="43.97251" lon="4.67663">
        <ele>155.2</ele>
        <time>2019-07-10T07:15:07Z</time>
      </trkpt>
      <trkpt lat="43.9725" lon="4.67659">
        <ele>155</ele>
        <time>2019-07-10T07:15:08Z</time>
      </trkpt>
      <trkpt lat="43.97245" lon="4.67645">
        <ele>155.2</ele>
        <time>2019-07-10T07:15:11Z</time>
      </trkpt>
      <trkpt lat="43.97243" lon="4.6764">
        <ele>155.2</ele>
        <time>2019-07-10T07:15:12Z</time>
      </trkpt>
      <trkpt lat="43.97239" lon="4.67629">
        <ele>155</ele>
        <time>2019-07-10T07:15:14Z</time>
      </trkpt>
      <trkpt lat="43.97236" lon="4.67616">
        <ele>155</ele>
        <time>2019-07-10T07:15:16Z</time>
      </trkpt>
      <trkpt lat="43.97232" lon="4.67603">
        <ele>154.8</ele>
        <time>2019-07-10T07:15:18Z</time>
      </trkpt>
      <trkpt lat="43.97229" lon="4.6759">
        <ele>154.8</ele>
        <time>2019-07-10T07:15:20Z</time>
      </trkpt>
      <trkpt lat="43.9722" lon="4.67556">
        <ele>154.6</ele>
        <time>2019-07-10T07:15:25Z</time>
      </trkpt>
      <trkpt lat="43.97217" lon="4.67543">
        <ele>154.6</ele>
        <time>2019-07-10T07:15:27Z</time>
      </trkpt>
      <trkpt lat="43.97216" lon="4.67538">
        <ele>154.2</ele>
        <time>2019-07-10T07:15:28Z</time>
      </trkpt>
      <trkpt lat="43.97215" lon="4.67526">
        <ele>153.8</ele>
        <time>2019-07-10T07:15:30Z</time>
      </trkpt>
      <trkpt lat="43.97214" lon="4.67515">
        <ele>152.8</ele>
        <time>2019-07-10T07:15:32Z</time>
      </trkpt>
      <trkpt lat="43.97214" lon="4.67509">
        <ele>152.6</ele>
        <time>2019-07-10T07:15:33Z</time>
      </trkpt>
      <trkpt lat="43.97215" lon="4.67493">
        <ele>152</ele>
        <time>2019-07-10T07:15:36Z</time>
      </trkpt>
      <trkpt lat="43.97218" lon="4.67467">
        <ele>151.4</ele>
        <time>2019-07-10T07:15:40Z</time>
      </trkpt>
      <trkpt lat="43.97219" lon="4.67452">
        <ele>151</ele>
        <time>2019-07-10T07:15:42Z</time>
      </trkpt>
      <trkpt lat="43.97221" lon="4.67435">
        <ele>150.8</ele>
        <time>2019-07-10T07:15:44Z</time>
      </trkpt>
      <trkpt lat="43.97223" lon="4.67417">
        <ele>150.4</ele>
        <time>2019-07-10T07:15:46Z</time>
      </trkpt>
      <trkpt lat="43.97224" lon="4.67408">
        <ele>150.2</ele>
        <time>2019-07-10T07:15:47Z</time>
      </trkpt>
      <trkpt lat="43.97225" lon="4.67388">
        <ele>150.2</ele>
        <time>2019-07-10T07:15:49Z</time>
      </trkpt>
      <trkpt lat="43.97227" lon="4.67368">
        <ele>149.6</ele>
        <time>2019-07-10T07:15:51Z</time>
      </trkpt>
      <trkpt lat="43.97228" lon="4.67357">
        <ele>149.2</ele>
        <time>2019-07-10T07:15:52Z</time>
      </trkpt>
      <trkpt lat="43.97229" lon="4.67347">
        <ele>149</ele>
        <time>2019-07-10T07:15:53Z</time>
      </trkpt>
      <trkpt lat="43.9723" lon="4.67337">
        <ele>148.6</ele>
        <time>2019-07-10T07:15:54Z</time>
      </trkpt>
      <trkpt lat="43.97233" lon="4.67309">
        <ele>147.6</ele>
        <time>2019-07-10T07:15:57Z</time>
      </trkpt>
      <trkpt lat="43.97235" lon="4.67301">
        <ele>147</ele>
        <time>2019-07-10T07:15:58Z</time>
      </trkpt>
      <trkpt lat="43.97237" lon="4.67294">
        <ele>146.4</ele>
        <time>2019-07-10T07:15:59Z</time>
      </trkpt>
      <trkpt lat="43.97252" lon="4.67257">
        <ele>145</ele>
        <time>2019-07-10T07:16:04Z</time>
      </trkpt>
      <trkpt lat="43.97255" lon="4.6725">
        <ele>144.6</ele>
        <time>2019-07-10T07:16:05Z</time>
      </trkpt>
      <trkpt lat="43.97262" lon="4.67235">
        <ele>144</ele>
        <time>2019-07-10T07:16:07Z</time>
      </trkpt>
      <trkpt lat="43.97265" lon="4.67227">
        <ele>144</ele>
        <time>2019-07-10T07:16:08Z</time>
      </trkpt>
      <trkpt lat="43.97268" lon="4.67219">
        <ele>143.8</ele>
        <time>2019-07-10T07:16:09Z</time>
      </trkpt>
      <trkpt lat="43.9727" lon="4.67211">
        <ele>143.6</ele>
        <time>2019-07-10T07:16:10Z</time>
      </trkpt>
      <trkpt lat="43.97272" lon="4.67202">
        <ele>143.4</ele>
        <time>2019-07-10T07:16:11Z</time>
      </trkpt>
      <trkpt lat="43.97274" lon="4.67193">
        <ele>142.8</ele>
        <time>2019-07-10T07:16:12Z</time>
      </trkpt>
      <trkpt lat="43.97275" lon="4.67184">
        <ele>142.8</ele>
        <time>2019-07-10T07:16:13Z</time>
      </trkpt>
      <trkpt lat="43.97279" lon="4.67167">
        <ele>142.4</ele>
        <time>2019-07-10T07:16:15Z</time>
      </trkpt>
      <trkpt lat="43.97282" lon="4.67145">
        <ele>141.4</ele>
        <time>2019-07-10T07:16:18Z</time>
      </trkpt>
      <trkpt lat="43.97287" lon="4.67116">
        <ele>139.6</ele>
        <time>2019-07-10T07:16:22Z</time>
      </trkpt>
      <trkpt lat="43.97291" lon="4.67094">
        <ele>138.2</ele>
        <time>2019-07-10T07:16:25Z</time>
      </trkpt>
      <trkpt lat="43.97293" lon="4.67086">
        <ele>138</ele>
        <time>2019-07-10T07:16:26Z</time>
      </trkpt>
      <trkpt lat="43.97294" lon="4.67079">
        <ele>137.6</ele>
        <time>2019-07-10T07:16:27Z</time>
      </trkpt>
      <trkpt lat="43.97299" lon="4.67064">
        <ele>137</ele>
        <time>2019-07-10T07:16:29Z</time>
      </trkpt>
      <trkpt lat="43.97301" lon="4.67056">
        <ele>136.6</ele>
        <time>2019-07-10T07:16:30Z</time>
      </trkpt>
      <trkpt lat="43.9731" lon="4.67027">
        <ele>135.8</ele>
        <time>2019-07-10T07:16:34Z</time>
      </trkpt>
      <trkpt lat="43.97315" lon="4.67013">
        <ele>135.6</ele>
        <time>2019-07-10T07:16:36Z</time>
      </trkpt>
      <trkpt lat="43.97324" lon="4.66984">
        <ele>134.8</ele>
        <time>2019-07-10T07:16:40Z</time>
      </trkpt>
      <trkpt lat="43.97326" lon="4.66978">
        <ele>134.6</ele>
        <time>2019-07-10T07:16:41Z</time>
      </trkpt>
      <trkpt lat="43.97332" lon="4.66958">
        <ele>134.4</ele>
        <time>2019-07-10T07:16:44Z</time>
      </trkpt>
      <trkpt lat="43.97334" lon="4.66951">
        <ele>134.4</ele>
        <time>2019-07-10T07:16:45Z</time>
      </trkpt>
      <trkpt lat="43.97338" lon="4.66939">
        <ele>134.2</ele>
        <time>2019-07-10T07:16:47Z</time>
      </trkpt>
      <trkpt lat="43.97339" lon="4.66933">
        <ele>133.8</ele>
        <time>2019-07-10T07:16:48Z</time>
      </trkpt>
      <trkpt lat="43.97348" lon="4.66911">
        <ele>133</ele>
        <time>2019-07-10T07:16:52Z</time>
      </trkpt>
      <trkpt lat="43.97352" lon="4.669">
        <ele>133</ele>
        <time>2019-07-10T07:16:54Z</time>
      </trkpt>
      <trkpt lat="43.97355" lon="4.66895">
        <ele>133</ele>
        <time>2019-07-10T07:16:55Z</time>
      </trkpt>
      <trkpt lat="43.97358" lon="4.66889">
        <ele>132.8</ele>
        <time>2019-07-10T07:16:56Z</time>
      </trkpt>
      <trkpt lat="43.97366" lon="4.66869">
        <ele>133.2</ele>
        <time>2019-07-10T07:17:00Z</time>
      </trkpt>
      <trkpt lat="43.97375" lon="4.66847">
        <ele>133.6</ele>
        <time>2019-07-10T07:17:05Z</time>
      </trkpt>
      <trkpt lat="43.97377" lon="4.66843">
        <ele>133.8</ele>
        <time>2019-07-10T07:17:06Z</time>
      </trkpt>
      <trkpt lat="43.97386" lon="4.66816">
        <ele>134.6</ele>
        <time>2019-07-10T07:17:12Z</time>
      </trkpt>
      <trkpt lat="43.97388" lon="4.66811">
        <ele>134.6</ele>
        <time>2019-07-10T07:17:13Z</time>
      </trkpt>
      <trkpt lat="43.97395" lon="4.66793">
        <ele>135.4</ele>
        <time>2019-07-10T07:17:17Z</time>
      </trkpt>
      <trkpt lat="43.97398" lon="4.66785">
        <ele>135.6</ele>
        <time>2019-07-10T07:17:19Z</time>
      </trkpt>
      <trkpt lat="43.97401" lon="4.66777">
        <ele>135.8</ele>
        <time>2019-07-10T07:17:21Z</time>
      </trkpt>
      <trkpt lat="43.97405" lon="4.6677">
        <ele>136</ele>
        <time>2019-07-10T07:17:23Z</time>
      </trkpt>
      <trkpt lat="43.97406" lon="4.66766">
        <ele>136.2</ele>
        <time>2019-07-10T07:17:24Z</time>
      </trkpt>
      <trkpt lat="43.97415" lon="4.66747">
        <ele>136.4</ele>
        <time>2019-07-10T07:17:29Z</time>
      </trkpt>
      <trkpt lat="43.97416" lon="4.66743">
        <ele>136.2</ele>
        <time>2019-07-10T07:17:30Z</time>
      </trkpt>
      <trkpt lat="43.97419" lon="4.66736">
        <ele>136.4</ele>
        <time>2019-07-10T07:17:32Z</time>
      </trkpt>
      <trkpt lat="43.9742" lon="4.66732">
        <ele>136.2</ele>
        <time>2019-07-10T07:17:33Z</time>
      </trkpt>
      <trkpt lat="43.97424" lon="4.66716">
        <ele>136.6</ele>
        <time>2019-07-10T07:17:37Z</time>
      </trkpt>
      <trkpt lat="43.97436" lon="4.66693">
        <ele>137.4</ele>
        <time>2019-07-10T07:17:43Z</time>
      </trkpt>
      <trkpt lat="43.97444" lon="4.66672">
        <ele>137.6</ele>
        <time>2019-07-10T07:17:48Z</time>
      </trkpt>
      <trkpt lat="43.97451" lon="4.66654">
        <ele>137.8</ele>
        <time>2019-07-10T07:17:52Z</time>
      </trkpt>
      <trkpt lat="43.97463" lon="4.66625">
        <ele>138.2</ele>
        <time>2019-07-10T07:17:58Z</time>
      </trkpt>
      <trkpt lat="43.97466" lon="4.66616">
        <ele>138.2</ele>
        <time>2019-07-10T07:18:00Z</time>
      </trkpt>
      <trkpt lat="43.97479" lon="4.66583">
        <ele>139.2</ele>
        <time>2019-07-10T07:18:07Z</time>
      </trkpt>
      <trkpt lat="43.97481" lon="4.66579">
        <ele>139</ele>
        <time>2019-07-10T07:18:08Z</time>
      </trkpt>
      <trkpt lat="43.97485" lon="4.66569">
        <ele>139.4</ele>
        <time>2019-07-10T07:18:10Z</time>
      </trkpt>
      <trkpt lat="43.97495" lon="4.66545">
        <ele>139.6</ele>
        <time>2019-07-10T07:18:15Z</time>
      </trkpt>
      <trkpt lat="43.97497" lon="4.66539">
        <ele>139.8</ele>
        <time>2019-07-10T07:18:16Z</time>
      </trkpt>
      <trkpt lat="43.97499" lon="4.66534">
        <ele>140</ele>
        <time>2019-07-10T07:18:17Z</time>
      </trkpt>
      <trkpt lat="43.97513" lon="4.66498">
        <ele>141</ele>
        <time>2019-07-10T07:18:25Z</time>
      </trkpt>
      <trkpt lat="43.97517" lon="4.66489">
        <ele>141.4</ele>
        <time>2019-07-10T07:18:27Z</time>
      </trkpt>
      <trkpt lat="43.97532" lon="4.6645">
        <ele>142.2</ele>
        <time>2019-07-10T07:18:35Z</time>
      </trkpt>
      <trkpt lat="43.97543" lon="4.66422">
        <ele>142.6</ele>
        <time>2019-07-10T07:18:41Z</time>
      </trkpt>
      <trkpt lat="43.97545" lon="4.66418">
        <ele>142.8</ele>
        <time>2019-07-10T07:18:42Z</time>
      </trkpt>
      <trkpt lat="43.9755" lon="4.66405">
        <ele>142.8</ele>
        <time>2019-07-10T07:18:45Z</time>
      </trkpt>
      <trkpt lat="43.97556" lon="4.66389">
        <ele>143.6</ele>
        <time>2019-07-10T07:18:49Z</time>
      </trkpt>
      <trkpt lat="43.97562" lon="4.66372">
        <ele>144.8</ele>
        <time>2019-07-10T07:18:53Z</time>
      </trkpt>
      <trkpt lat="43.97567" lon="4.66361">
        <ele>145.2</ele>
        <time>2019-07-10T07:18:56Z</time>
      </trkpt>
      <trkpt lat="43.97576" lon="4.66336">
        <ele>145.2</ele>
        <time>2019-07-10T07:19:03Z</time>
      </trkpt>
      <trkpt lat="43.97579" lon="4.66328">
        <ele>145.4</ele>
        <time>2019-07-10T07:19:05Z</time>
      </trkpt>
      <trkpt lat="43.9758" lon="4.66325">
        <ele>145.4</ele>
        <time>2019-07-10T07:19:06Z</time>
      </trkpt>
      <trkpt lat="43.97587" lon="4.66308">
        <ele>146.2</ele>
        <time>2019-07-10T07:19:11Z</time>
      </trkpt>
      <trkpt lat="43.97596" lon="4.66287">
        <ele>146.6</ele>
        <time>2019-07-10T07:19:17Z</time>
      </trkpt>
      <trkpt lat="43.97598" lon="4.6628">
        <ele>146.8</ele>
        <time>2019-07-10T07:19:19Z</time>
      </trkpt>
      <trkpt lat="43.97609" lon="4.66253">
        <ele>148.2</ele>
        <time>2019-07-10T07:19:27Z</time>
      </trkpt>
      <trkpt lat="43.97613" lon="4.66243">
        <ele>148.6</ele>
        <time>2019-07-10T07:19:30Z</time>
      </trkpt>
      <trkpt lat="43.97623" lon="4.6622">
        <ele>150</ele>
        <time>2019-07-10T07:19:37Z</time>
      </trkpt>
      <trkpt lat="43.97624" lon="4.66216">
        <ele>150.2</ele>
        <time>2019-07-10T07:19:38Z</time>
      </trkpt>
      <trkpt lat="43.97638" lon="4.66186">
        <ele>151.4</ele>
        <time>2019-07-10T07:19:48Z</time>
      </trkpt>
      <trkpt lat="43.9764" lon="4.66183">
        <ele>151.4</ele>
        <time>2019-07-10T07:19:49Z</time>
      </trkpt>
      <trkpt lat="43.97653" lon="4.66156">
        <ele>153.2</ele>
        <time>2019-07-10T07:19:58Z</time>
      </trkpt>
      <trkpt lat="43.97655" lon="4.66153">
        <ele>153.2</ele>
        <time>2019-07-10T07:19:59Z</time>
      </trkpt>
      <trkpt lat="43.97665" lon="4.66135">
        <ele>154</ele>
        <time>2019-07-10T07:20:05Z</time>
      </trkpt>
      <trkpt lat="43.97668" lon="4.66129">
        <ele>154.2</ele>
        <time>2019-07-10T07:20:07Z</time>
      </trkpt>
      <trkpt lat="43.97682" lon="4.66106">
        <ele>155.2</ele>
        <time>2019-07-10T07:20:15Z</time>
      </trkpt>
      <trkpt lat="43.97687" lon="4.66098">
        <ele>155.4</ele>
        <time>2019-07-10T07:20:18Z</time>
      </trkpt>
      <trkpt lat="43.97699" lon="4.66079">
        <ele>156.2</ele>
        <time>2019-07-10T07:20:25Z</time>
      </trkpt>
      <trkpt lat="43.97715" lon="4.66053">
        <ele>157.2</ele>
        <time>2019-07-10T07:20:34Z</time>
      </trkpt>
      <trkpt lat="43.97717" lon="4.6605">
        <ele>157.2</ele>
        <time>2019-07-10T07:20:35Z</time>
      </trkpt>
      <trkpt lat="43.97735" lon="4.66024">
        <ele>157.8</ele>
        <time>2019-07-10T07:20:44Z</time>
      </trkpt>
      <trkpt lat="43.97745" lon="4.66009">
        <ele>158.2</ele>
        <time>2019-07-10T07:20:49Z</time>
      </trkpt>
      <trkpt lat="43.97754" lon="4.65996">
        <ele>158.6</ele>
        <time>2019-07-10T07:20:53Z</time>
      </trkpt>
      <trkpt lat="43.97759" lon="4.6599">
        <ele>158.6</ele>
        <time>2019-07-10T07:20:55Z</time>
      </trkpt>
      <trkpt lat="43.97769" lon="4.65975">
        <ele>158.8</ele>
        <time>2019-07-10T07:20:59Z</time>
      </trkpt>
      <trkpt lat="43.97774" lon="4.65967">
        <ele>159</ele>
        <time>2019-07-10T07:21:01Z</time>
      </trkpt>
      <trkpt lat="43.97785" lon="4.6595">
        <ele>159.6</ele>
        <time>2019-07-10T07:21:05Z</time>
      </trkpt>
      <trkpt lat="43.97796" lon="4.65932">
        <ele>160</ele>
        <time>2019-07-10T07:21:09Z</time>
      </trkpt>
      <trkpt lat="43.97811" lon="4.6591">
        <ele>159.6</ele>
        <time>2019-07-10T07:21:14Z</time>
      </trkpt>
      <trkpt lat="43.97824" lon="4.65892">
        <ele>159</ele>
        <time>2019-07-10T07:21:18Z</time>
      </trkpt>
      <trkpt lat="43.97852" lon="4.6585">
        <ele>158</ele>
        <time>2019-07-10T07:21:26Z</time>
      </trkpt>
      <trkpt lat="43.97868" lon="4.6583">
        <ele>157.6</ele>
        <time>2019-07-10T07:21:30Z</time>
      </trkpt>
      <trkpt lat="43.97871" lon="4.65825">
        <ele>157.6</ele>
        <time>2019-07-10T07:21:31Z</time>
      </trkpt>
      <trkpt lat="43.97886" lon="4.65806">
        <ele>157.6</ele>
        <time>2019-07-10T07:21:35Z</time>
      </trkpt>
      <trkpt lat="43.9789" lon="4.65802">
        <ele>157.6</ele>
        <time>2019-07-10T07:21:36Z</time>
      </trkpt>
      <trkpt lat="43.97897" lon="4.65794">
        <ele>157.6</ele>
        <time>2019-07-10T07:21:38Z</time>
      </trkpt>
      <trkpt lat="43.97923" lon="4.65766">
        <ele>156.6</ele>
        <time>2019-07-10T07:21:45Z</time>
      </trkpt>
      <trkpt lat="43.9794" lon="4.65749">
        <ele>156.6</ele>
        <time>2019-07-10T07:21:50Z</time>
      </trkpt>
      <trkpt lat="43.97953" lon="4.65736">
        <ele>156.8</ele>
        <time>2019-07-10T07:21:54Z</time>
      </trkpt>
      <trkpt lat="43.97957" lon="4.65733">
        <ele>156.8</ele>
        <time>2019-07-10T07:21:55Z</time>
      </trkpt>
      <trkpt lat="43.9796" lon="4.6573">
        <ele>156.8</ele>
        <time>2019-07-10T07:21:56Z</time>
      </trkpt>
      <trkpt lat="43.97988" lon="4.65704">
        <ele>157.8</ele>
        <time>2019-07-10T07:22:05Z</time>
      </trkpt>
      <trkpt lat="43.98011" lon="4.65697">
        <ele>158.2</ele>
        <time>2019-07-10T07:22:11Z</time>
      </trkpt>
      <trkpt lat="43.98035" lon="4.65709">
        <ele>158.8</ele>
        <time>2019-07-10T07:22:18Z</time>
      </trkpt>
      <trkpt lat="43.98061" lon="4.65723">
        <ele>159.4</ele>
        <time>2019-07-10T07:22:25Z</time>
      </trkpt>
      <trkpt lat="43.98068" lon="4.65727">
        <ele>159.4</ele>
        <time>2019-07-10T07:22:27Z</time>
      </trkpt>
      <trkpt lat="43.98071" lon="4.65728">
        <ele>159.4</ele>
        <time>2019-07-10T07:22:28Z</time>
      </trkpt>
      <trkpt lat="43.98075" lon="4.6573">
        <ele>159.4</ele>
        <time>2019-07-10T07:22:29Z</time>
      </trkpt>
      <trkpt lat="43.98086" lon="4.65731">
        <ele>159.6</ele>
        <time>2019-07-10T07:22:32Z</time>
      </trkpt>
      <trkpt lat="43.98097" lon="4.65729">
        <ele>160</ele>
        <time>2019-07-10T07:22:35Z</time>
      </trkpt>
      <trkpt lat="43.98107" lon="4.65726">
        <ele>160.8</ele>
        <time>2019-07-10T07:22:38Z</time>
      </trkpt>
      <trkpt lat="43.98122" lon="4.65721">
        <ele>161.6</ele>
        <time>2019-07-10T07:22:43Z</time>
      </trkpt>
      <trkpt lat="43.98125" lon="4.6572">
        <ele>161.6</ele>
        <time>2019-07-10T07:22:44Z</time>
      </trkpt>
      <trkpt lat="43.98134" lon="4.65717">
        <ele>161.8</ele>
        <time>2019-07-10T07:22:47Z</time>
      </trkpt>
      <trkpt lat="43.98137" lon="4.65716">
        <ele>162</ele>
        <time>2019-07-10T07:22:48Z</time>
      </trkpt>
      <trkpt lat="43.9815" lon="4.65712">
        <ele>161.2</ele>
        <time>2019-07-10T07:22:52Z</time>
      </trkpt>
      <trkpt lat="43.9816" lon="4.65708">
        <ele>161.4</ele>
        <time>2019-07-10T07:22:55Z</time>
      </trkpt>
      <trkpt lat="43.9817" lon="4.65705">
        <ele>162</ele>
        <time>2019-07-10T07:22:58Z</time>
      </trkpt>
      <trkpt lat="43.98188" lon="4.65696">
        <ele>163</ele>
        <time>2019-07-10T07:23:04Z</time>
      </trkpt>
      <trkpt lat="43.98214" lon="4.65681">
        <ele>163.4</ele>
        <time>2019-07-10T07:23:12Z</time>
      </trkpt>
      <trkpt lat="43.98223" lon="4.65675">
        <ele>163.6</ele>
        <time>2019-07-10T07:23:15Z</time>
      </trkpt>
      <trkpt lat="43.98238" lon="4.65667">
        <ele>163.8</ele>
        <time>2019-07-10T07:23:20Z</time>
      </trkpt>
      <trkpt lat="43.98257" lon="4.65665">
        <ele>164.6</ele>
        <time>2019-07-10T07:23:26Z</time>
      </trkpt>
      <trkpt lat="43.98277" lon="4.65665">
        <ele>165.2</ele>
        <time>2019-07-10T07:23:32Z</time>
      </trkpt>
      <trkpt lat="43.98286" lon="4.65665">
        <ele>166</ele>
        <time>2019-07-10T07:23:35Z</time>
      </trkpt>
      <trkpt lat="43.98307" lon="4.65655">
        <ele>167.2</ele>
        <time>2019-07-10T07:23:42Z</time>
      </trkpt>
      <trkpt lat="43.98313" lon="4.6565">
        <ele>167.4</ele>
        <time>2019-07-10T07:23:44Z</time>
      </trkpt>
      <trkpt lat="43.98317" lon="4.65644">
        <ele>167.4</ele>
        <time>2019-07-10T07:23:46Z</time>
      </trkpt>
      <trkpt lat="43.98323" lon="4.65634">
        <ele>167.4</ele>
        <time>2019-07-10T07:23:49Z</time>
      </trkpt>
      <trkpt lat="43.98325" lon="4.6563">
        <ele>167.6</ele>
        <time>2019-07-10T07:23:50Z</time>
      </trkpt>
      <trkpt lat="43.9833" lon="4.65616">
        <ele>168</ele>
        <time>2019-07-10T07:23:55Z</time>
      </trkpt>
      <trkpt lat="43.98339" lon="4.65595">
        <ele>168.6</ele>
        <time>2019-07-10T07:24:02Z</time>
      </trkpt>
      <trkpt lat="43.98341" lon="4.65589">
        <ele>168.8</ele>
        <time>2019-07-10T07:24:04Z</time>
      </trkpt>
      <trkpt lat="43.98345" lon="4.65583">
        <ele>169</ele>
        <time>2019-07-10T07:24:06Z</time>
      </trkpt>
      <trkpt lat="43.98356" lon="4.65564">
        <ele>170.2</ele>
        <time>2019-07-10T07:24:13Z</time>
      </trkpt>
      <trkpt lat="43.98363" lon="4.65554">
        <ele>170.6</ele>
        <time>2019-07-10T07:24:17Z</time>
      </trkpt>
      <trkpt lat="43.98366" lon="4.6555">
        <ele>170.8</ele>
        <time>2019-07-10T07:24:19Z</time>
      </trkpt>
      <trkpt lat="43.98375" lon="4.65539">
        <ele>171.6</ele>
        <time>2019-07-10T07:24:24Z</time>
      </trkpt>
      <trkpt lat="43.98376" lon="4.65537">
        <ele>171.6</ele>
        <time>2019-07-10T07:24:25Z</time>
      </trkpt>
      <trkpt lat="43.98381" lon="4.6553">
        <ele>172.2</ele>
        <time>2019-07-10T07:24:28Z</time>
      </trkpt>
      <trkpt lat="43.98398" lon="4.65508">
        <ele>173.6</ele>
        <time>2019-07-10T07:24:38Z</time>
      </trkpt>
      <trkpt lat="43.9841" lon="4.65496">
        <ele>174.2</ele>
        <time>2019-07-10T07:24:44Z</time>
      </trkpt>
      <trkpt lat="43.98415" lon="4.65493">
        <ele>174.4</ele>
        <time>2019-07-10T07:24:46Z</time>
      </trkpt>
      <trkpt lat="43.98422" lon="4.6549">
        <ele>174.6</ele>
        <time>2019-07-10T07:24:49Z</time>
      </trkpt>
      <trkpt lat="43.98429" lon="4.65486">
        <ele>175.2</ele>
        <time>2019-07-10T07:24:52Z</time>
      </trkpt>
      <trkpt lat="43.98444" lon="4.65485">
        <ele>176</ele>
        <time>2019-07-10T07:24:58Z</time>
      </trkpt>
      <trkpt lat="43.98446" lon="4.65485">
        <ele>176.2</ele>
        <time>2019-07-10T07:24:59Z</time>
      </trkpt>
      <trkpt lat="43.98458" lon="4.65483">
        <ele>176.6</ele>
        <time>2019-07-10T07:25:04Z</time>
      </trkpt>
      <trkpt lat="43.98463" lon="4.65483">
        <ele>176.8</ele>
        <time>2019-07-10T07:25:06Z</time>
      </trkpt>
      <trkpt lat="43.9848" lon="4.65479">
        <ele>177.6</ele>
        <time>2019-07-10T07:25:13Z</time>
      </trkpt>
      <trkpt lat="43.9849" lon="4.65474">
        <ele>177.8</ele>
        <time>2019-07-10T07:25:18Z</time>
      </trkpt>
      <trkpt lat="43.98497" lon="4.65471">
        <ele>178.2</ele>
        <time>2019-07-10T07:25:21Z</time>
      </trkpt>
      <trkpt lat="43.98499" lon="4.6547">
        <ele>178.4</ele>
        <time>2019-07-10T07:25:22Z</time>
      </trkpt>
      <trkpt lat="43.98511" lon="4.65464">
        <ele>179.8</ele>
        <time>2019-07-10T07:25:28Z</time>
      </trkpt>
      <trkpt lat="43.98517" lon="4.65459">
        <ele>180.4</ele>
        <time>2019-07-10T07:25:31Z</time>
      </trkpt>
      <trkpt lat="43.98519" lon="4.65454">
        <ele>180.6</ele>
        <time>2019-07-10T07:25:33Z</time>
      </trkpt>
      <trkpt lat="43.9852" lon="4.65452">
        <ele>181</ele>
        <time>2019-07-10T07:25:34Z</time>
      </trkpt>
      <trkpt lat="43.98528" lon="4.65436">
        <ele>182.6</ele>
        <time>2019-07-10T07:25:40Z</time>
      </trkpt>
      <trkpt lat="43.98541" lon="4.65418">
        <ele>183</ele>
        <time>2019-07-10T07:25:48Z</time>
      </trkpt>
      <trkpt lat="43.98543" lon="4.65416">
        <ele>183</ele>
        <time>2019-07-10T07:25:49Z</time>
      </trkpt>
      <trkpt lat="43.98555" lon="4.65405">
        <ele>184.4</ele>
        <time>2019-07-10T07:25:55Z</time>
      </trkpt>
      <trkpt lat="43.98562" lon="4.65397">
        <ele>185.6</ele>
        <time>2019-07-10T07:25:59Z</time>
      </trkpt>
      <trkpt lat="43.98573" lon="4.65391">
        <ele>185.8</ele>
        <time>2019-07-10T07:26:04Z</time>
      </trkpt>
      <trkpt lat="43.98579" lon="4.65388">
        <ele>186.2</ele>
        <time>2019-07-10T07:26:07Z</time>
      </trkpt>
      <trkpt lat="43.98605" lon="4.65374">
        <ele>187.8</ele>
        <time>2019-07-10T07:26:19Z</time>
      </trkpt>
      <trkpt lat="43.98609" lon="4.65372">
        <ele>187.8</ele>
        <time>2019-07-10T07:26:21Z</time>
      </trkpt>
      <trkpt lat="43.9862" lon="4.65366">
        <ele>188.2</ele>
        <time>2019-07-10T07:26:26Z</time>
      </trkpt>
      <trkpt lat="43.98635" lon="4.65357">
        <ele>189</ele>
        <time>2019-07-10T07:26:33Z</time>
      </trkpt>
      <trkpt lat="43.98637" lon="4.65356">
        <ele>189</ele>
        <time>2019-07-10T07:26:34Z</time>
      </trkpt>
      <trkpt lat="43.98639" lon="4.65354">
        <ele>189.2</ele>
        <time>2019-07-10T07:26:35Z</time>
      </trkpt>
      <trkpt lat="43.98642" lon="4.65351">
        <ele>189.4</ele>
        <time>2019-07-10T07:26:37Z</time>
      </trkpt>
      <trkpt lat="43.98648" lon="4.65341">
        <ele>190.2</ele>
        <time>2019-07-10T07:26:41Z</time>
      </trkpt>
      <trkpt lat="43.98655" lon="4.6532">
        <ele>191.6</ele>
        <time>2019-07-10T07:26:48Z</time>
      </trkpt>
      <trkpt lat="43.98661" lon="4.65302">
        <ele>191.8</ele>
        <time>2019-07-10T07:26:53Z</time>
      </trkpt>
      <trkpt lat="43.98667" lon="4.65294">
        <ele>192</ele>
        <time>2019-07-10T07:26:56Z</time>
      </trkpt>
      <trkpt lat="43.98678" lon="4.65281">
        <ele>192.8</ele>
        <time>2019-07-10T07:27:02Z</time>
      </trkpt>
      <trkpt lat="43.98683" lon="4.65277">
        <ele>193.2</ele>
        <time>2019-07-10T07:27:04Z</time>
      </trkpt>
      <trkpt lat="43.98685" lon="4.65275">
        <ele>193.4</ele>
        <time>2019-07-10T07:27:05Z</time>
      </trkpt>
      <trkpt lat="43.98699" lon="4.65263">
        <ele>194.6</ele>
        <time>2019-07-10T07:27:12Z</time>
      </trkpt>
      <trkpt lat="43.98702" lon="4.65259">
        <ele>195.2</ele>
        <time>2019-07-10T07:27:14Z</time>
      </trkpt>
      <trkpt lat="43.98722" lon="4.65233">
        <ele>196.6</ele>
        <time>2019-07-10T07:27:25Z</time>
      </trkpt>
      <trkpt lat="43.98724" lon="4.65231">
        <ele>196.8</ele>
        <time>2019-07-10T07:27:26Z</time>
      </trkpt>
      <trkpt lat="43.98726" lon="4.65229">
        <ele>196.8</ele>
        <time>2019-07-10T07:27:27Z</time>
      </trkpt>
      <trkpt lat="43.98737" lon="4.65222">
        <ele>197.2</ele>
        <time>2019-07-10T07:27:32Z</time>
      </trkpt>
      <trkpt lat="43.9874" lon="4.65219">
        <ele>198.2</ele>
        <time>2019-07-10T07:27:34Z</time>
      </trkpt>
      <trkpt lat="43.98746" lon="4.65215">
        <ele>199</ele>
        <time>2019-07-10T07:27:37Z</time>
      </trkpt>
      <trkpt lat="43.98752" lon="4.65212">
        <ele>199.6</ele>
        <time>2019-07-10T07:27:40Z</time>
      </trkpt>
      <trkpt lat="43.98761" lon="4.65206">
        <ele>200.6</ele>
        <time>2019-07-10T07:27:44Z</time>
      </trkpt>
      <trkpt lat="43.98774" lon="4.65191">
        <ele>201</ele>
        <time>2019-07-10T07:27:51Z</time>
      </trkpt>
      <trkpt lat="43.98779" lon="4.65175">
        <ele>201.4</ele>
        <time>2019-07-10T07:27:56Z</time>
      </trkpt>
      <trkpt lat="43.9878" lon="4.65172">
        <ele>201.2</ele>
        <time>2019-07-10T07:27:57Z</time>
      </trkpt>
      <trkpt lat="43.98783" lon="4.65138">
        <ele>202.4</ele>
        <time>2019-07-10T07:28:07Z</time>
      </trkpt>
      <trkpt lat="43.98784" lon="4.65122">
        <ele>202.6</ele>
        <time>2019-07-10T07:28:12Z</time>
      </trkpt>
      <trkpt lat="43.98784" lon="4.65113">
        <ele>203</ele>
        <time>2019-07-10T07:28:15Z</time>
      </trkpt>
      <trkpt lat="43.98789" lon="4.65098">
        <ele>203.4</ele>
        <time>2019-07-10T07:28:20Z</time>
      </trkpt>
      <trkpt lat="43.98791" lon="4.65096">
        <ele>203.4</ele>
        <time>2019-07-10T07:28:21Z</time>
      </trkpt>
      <trkpt lat="43.98792" lon="4.65093">
        <ele>203.6</ele>
        <time>2019-07-10T07:28:22Z</time>
      </trkpt>
      <trkpt lat="43.98796" lon="4.65087">
        <ele>203.8</ele>
        <time>2019-07-10T07:28:25Z</time>
      </trkpt>
      <trkpt lat="43.98804" lon="4.65081">
        <ele>204.6</ele>
        <time>2019-07-10T07:28:29Z</time>
      </trkpt>
      <trkpt lat="43.98807" lon="4.6508">
        <ele>204.6</ele>
        <time>2019-07-10T07:28:30Z</time>
      </trkpt>
      <trkpt lat="43.98828" lon="4.65072">
        <ele>206.6</ele>
        <time>2019-07-10T07:28:40Z</time>
      </trkpt>
      <trkpt lat="43.98833" lon="4.65071">
        <ele>206.8</ele>
        <time>2019-07-10T07:28:42Z</time>
      </trkpt>
      <trkpt lat="43.9884" lon="4.65069">
        <ele>207.2</ele>
        <time>2019-07-10T07:28:45Z</time>
      </trkpt>
      <trkpt lat="43.98851" lon="4.65066">
        <ele>207.4</ele>
        <time>2019-07-10T07:28:50Z</time>
      </trkpt>
      <trkpt lat="43.98856" lon="4.65065">
        <ele>207.6</ele>
        <time>2019-07-10T07:28:52Z</time>
      </trkpt>
      <trkpt lat="43.98864" lon="4.65062">
        <ele>208.4</ele>
        <time>2019-07-10T07:28:56Z</time>
      </trkpt>
      <trkpt lat="43.98869" lon="4.65061">
        <ele>209</ele>
        <time>2019-07-10T07:28:58Z</time>
      </trkpt>
      <trkpt lat="43.98875" lon="4.65059">
        <ele>209.6</ele>
        <time>2019-07-10T07:29:01Z</time>
      </trkpt>
      <trkpt lat="43.98888" lon="4.65054">
        <ele>210.4</ele>
        <time>2019-07-10T07:29:07Z</time>
      </trkpt>
      <trkpt lat="43.9889" lon="4.65053">
        <ele>210.4</ele>
        <time>2019-07-10T07:29:08Z</time>
      </trkpt>
      <trkpt lat="43.989" lon="4.65047">
        <ele>210.6</ele>
        <time>2019-07-10T07:29:13Z</time>
      </trkpt>
      <trkpt lat="43.98908" lon="4.65041">
        <ele>211</ele>
        <time>2019-07-10T07:29:17Z</time>
      </trkpt>
      <trkpt lat="43.9891" lon="4.6504">
        <ele>211.2</ele>
        <time>2019-07-10T07:29:18Z</time>
      </trkpt>
      <trkpt lat="43.98914" lon="4.65038">
        <ele>211.4</ele>
        <time>2019-07-10T07:29:20Z</time>
      </trkpt>
      <trkpt lat="43.98924" lon="4.6503">
        <ele>212.4</ele>
        <time>2019-07-10T07:29:25Z</time>
      </trkpt>
      <trkpt lat="43.98928" lon="4.65028">
        <ele>212.8</ele>
        <time>2019-07-10T07:29:27Z</time>
      </trkpt>
      <trkpt lat="43.98945" lon="4.65015">
        <ele>213.6</ele>
        <time>2019-07-10T07:29:36Z</time>
      </trkpt>
      <trkpt lat="43.98947" lon="4.65014">
        <ele>213.8</ele>
        <time>2019-07-10T07:29:37Z</time>
      </trkpt>
      <trkpt lat="43.98949" lon="4.65012">
        <ele>213.8</ele>
        <time>2019-07-10T07:29:38Z</time>
      </trkpt>
      <trkpt lat="43.98954" lon="4.65008">
        <ele>214</ele>
        <time>2019-07-10T07:29:41Z</time>
      </trkpt>
      <trkpt lat="43.98964" lon="4.65001">
        <ele>214.8</ele>
        <time>2019-07-10T07:29:46Z</time>
      </trkpt>
      <trkpt lat="43.98973" lon="4.64995">
        <ele>215.4</ele>
        <time>2019-07-10T07:29:50Z</time>
      </trkpt>
      <trkpt lat="43.9898" lon="4.6499">
        <ele>216.2</ele>
        <time>2019-07-10T07:29:54Z</time>
      </trkpt>
      <trkpt lat="43.98982" lon="4.64989">
        <ele>216.2</ele>
        <time>2019-07-10T07:29:55Z</time>
      </trkpt>
      <trkpt lat="43.98998" lon="4.64977">
        <ele>217.4</ele>
        <time>2019-07-10T07:30:03Z</time>
      </trkpt>
      <trkpt lat="43.99008" lon="4.6497">
        <ele>217.6</ele>
        <time>2019-07-10T07:30:08Z</time>
      </trkpt>
      <trkpt lat="43.99016" lon="4.64965">
        <ele>218</ele>
        <time>2019-07-10T07:30:12Z</time>
      </trkpt>
      <trkpt lat="43.99021" lon="4.64961">
        <ele>218.4</ele>
        <time>2019-07-10T07:30:15Z</time>
      </trkpt>
      <trkpt lat="43.99031" lon="4.64954">
        <ele>219</ele>
        <time>2019-07-10T07:30:20Z</time>
      </trkpt>
      <trkpt lat="43.99042" lon="4.64945">
        <ele>220</ele>
        <time>2019-07-10T07:30:26Z</time>
      </trkpt>
      <trkpt lat="43.99057" lon="4.64935">
        <ele>220.8</ele>
        <time>2019-07-10T07:30:34Z</time>
      </trkpt>
      <trkpt lat="43.99069" lon="4.64926">
        <ele>221.2</ele>
        <time>2019-07-10T07:30:41Z</time>
      </trkpt>
      <trkpt lat="43.9907" lon="4.64925">
        <ele>221.4</ele>
        <time>2019-07-10T07:30:42Z</time>
      </trkpt>
      <trkpt lat="43.99084" lon="4.64914">
        <ele>222</ele>
        <time>2019-07-10T07:30:49Z</time>
      </trkpt>
      <trkpt lat="43.9909" lon="4.64904">
        <ele>222.8</ele>
        <time>2019-07-10T07:30:53Z</time>
      </trkpt>
      <trkpt lat="43.99093" lon="4.64899">
        <ele>222.8</ele>
        <time>2019-07-10T07:30:55Z</time>
      </trkpt>
      <trkpt lat="43.99094" lon="4.64896">
        <ele>222.8</ele>
        <time>2019-07-10T07:30:56Z</time>
      </trkpt>
      <trkpt lat="43.99095" lon="4.64893">
        <ele>222.8</ele>
        <time>2019-07-10T07:30:57Z</time>
      </trkpt>
      <trkpt lat="43.99096" lon="4.6489">
        <ele>223</ele>
        <time>2019-07-10T07:30:58Z</time>
      </trkpt>
      <trkpt lat="43.99097" lon="4.64887">
        <ele>223</ele>
        <time>2019-07-10T07:30:59Z</time>
      </trkpt>
      <trkpt lat="43.99099" lon="4.64884">
        <ele>223</ele>
        <time>2019-07-10T07:31:00Z</time>
      </trkpt>
      <trkpt lat="43.99101" lon="4.64878">
        <ele>223</ele>
        <time>2019-07-10T07:31:02Z</time>
      </trkpt>
      <trkpt lat="43.99103" lon="4.64872">
        <ele>223</ele>
        <time>2019-07-10T07:31:04Z</time>
      </trkpt>
      <trkpt lat="43.99106" lon="4.64866">
        <ele>223.2</ele>
        <time>2019-07-10T07:31:06Z</time>
      </trkpt>
      <trkpt lat="43.9911" lon="4.64855">
        <ele>223.8</ele>
        <time>2019-07-10T07:31:10Z</time>
      </trkpt>
      <trkpt lat="43.99113" lon="4.64847">
        <ele>224</ele>
        <time>2019-07-10T07:31:13Z</time>
      </trkpt>
      <trkpt lat="43.99124" lon="4.64817">
        <ele>225.2</ele>
        <time>2019-07-10T07:31:21Z</time>
      </trkpt>
      <trkpt lat="43.99132" lon="4.64795">
        <ele>225.2</ele>
        <time>2019-07-10T07:31:26Z</time>
      </trkpt>
      <trkpt lat="43.99137" lon="4.64781">
        <ele>225.2</ele>
        <time>2019-07-10T07:31:29Z</time>
      </trkpt>
      <trkpt lat="43.99141" lon="4.64772">
        <ele>225.4</ele>
        <time>2019-07-10T07:31:31Z</time>
      </trkpt>
      <trkpt lat="43.99145" lon="4.64763">
        <ele>225.4</ele>
        <time>2019-07-10T07:31:33Z</time>
      </trkpt>
      <trkpt lat="43.99148" lon="4.64754">
        <ele>225.6</ele>
        <time>2019-07-10T07:31:35Z</time>
      </trkpt>
      <trkpt lat="43.99152" lon="4.64744">
        <ele>225.6</ele>
        <time>2019-07-10T07:31:37Z</time>
      </trkpt>
      <trkpt lat="43.99164" lon="4.64709">
        <ele>226</ele>
        <time>2019-07-10T07:31:44Z</time>
      </trkpt>
      <trkpt lat="43.99166" lon="4.64704">
        <ele>225.8</ele>
        <time>2019-07-10T07:31:45Z</time>
      </trkpt>
      <trkpt lat="43.99178" lon="4.64674">
        <ele>226.4</ele>
        <time>2019-07-10T07:31:50Z</time>
      </trkpt>
      <trkpt lat="43.9918" lon="4.64668">
        <ele>226.6</ele>
        <time>2019-07-10T07:31:51Z</time>
      </trkpt>
      <trkpt lat="43.99185" lon="4.64654">
        <ele>226.4</ele>
        <time>2019-07-10T07:31:53Z</time>
      </trkpt>
      <trkpt lat="43.99197" lon="4.64622">
        <ele>225.8</ele>
        <time>2019-07-10T07:31:58Z</time>
      </trkpt>
      <trkpt lat="43.992" lon="4.64616">
        <ele>225.8</ele>
        <time>2019-07-10T07:31:59Z</time>
      </trkpt>
      <trkpt lat="43.99202" lon="4.6461">
        <ele>225.6</ele>
        <time>2019-07-10T07:32:00Z</time>
      </trkpt>
      <trkpt lat="43.99204" lon="4.64604">
        <ele>225.4</ele>
        <time>2019-07-10T07:32:01Z</time>
      </trkpt>
      <trkpt lat="43.99213" lon="4.64582">
        <ele>225</ele>
        <time>2019-07-10T07:32:05Z</time>
      </trkpt>
      <trkpt lat="43.99229" lon="4.64535">
        <ele>223.4</ele>
        <time>2019-07-10T07:32:13Z</time>
      </trkpt>
      <trkpt lat="43.99238" lon="4.64511">
        <ele>223</ele>
        <time>2019-07-10T07:32:18Z</time>
      </trkpt>
      <trkpt lat="43.9924" lon="4.64507">
        <ele>222.8</ele>
        <time>2019-07-10T07:32:19Z</time>
      </trkpt>
      <trkpt lat="43.99242" lon="4.64502">
        <ele>223</ele>
        <time>2019-07-10T07:32:20Z</time>
      </trkpt>
      <trkpt lat="43.99243" lon="4.64498">
        <ele>223</ele>
        <time>2019-07-10T07:32:21Z</time>
      </trkpt>
      <trkpt lat="43.99253" lon="4.64473">
        <ele>224.4</ele>
        <time>2019-07-10T07:32:27Z</time>
      </trkpt>
      <trkpt lat="43.99257" lon="4.64459">
        <ele>224.6</ele>
        <time>2019-07-10T07:32:30Z</time>
      </trkpt>
      <trkpt lat="43.99265" lon="4.64436">
        <ele>225.2</ele>
        <time>2019-07-10T07:32:35Z</time>
      </trkpt>
      <trkpt lat="43.99271" lon="4.64416">
        <ele>225.6</ele>
        <time>2019-07-10T07:32:39Z</time>
      </trkpt>
      <trkpt lat="43.99275" lon="4.644">
        <ele>225.8</ele>
        <time>2019-07-10T07:32:42Z</time>
      </trkpt>
      <trkpt lat="43.99277" lon="4.64394">
        <ele>225.8</ele>
        <time>2019-07-10T07:32:43Z</time>
      </trkpt>
      <trkpt lat="43.99281" lon="4.64378">
        <ele>226</ele>
        <time>2019-07-10T07:32:46Z</time>
      </trkpt>
      <trkpt lat="43.99283" lon="4.64373">
        <ele>226</ele>
        <time>2019-07-10T07:32:47Z</time>
      </trkpt>
      <trkpt lat="43.99286" lon="4.64362">
        <ele>225.8</ele>
        <time>2019-07-10T07:32:49Z</time>
      </trkpt>
      <trkpt lat="43.99288" lon="4.64356">
        <ele>225.8</ele>
        <time>2019-07-10T07:32:50Z</time>
      </trkpt>
      <trkpt lat="43.99289" lon="4.64351">
        <ele>225.6</ele>
        <time>2019-07-10T07:32:51Z</time>
      </trkpt>
      <trkpt lat="43.99291" lon="4.64345">
        <ele>225.8</ele>
        <time>2019-07-10T07:32:52Z</time>
      </trkpt>
      <trkpt lat="43.99292" lon="4.64332">
        <ele>226</ele>
        <time>2019-07-10T07:32:54Z</time>
      </trkpt>
      <trkpt lat="43.99291" lon="4.64325">
        <ele>225.8</ele>
        <time>2019-07-10T07:32:55Z</time>
      </trkpt>
      <trkpt lat="43.99289" lon="4.64319">
        <ele>226</ele>
        <time>2019-07-10T07:32:56Z</time>
      </trkpt>
      <trkpt lat="43.99284" lon="4.64309">
        <ele>225.6</ele>
        <time>2019-07-10T07:32:58Z</time>
      </trkpt>
      <trkpt lat="43.99281" lon="4.64305">
        <ele>225.6</ele>
        <time>2019-07-10T07:32:59Z</time>
      </trkpt>
      <trkpt lat="43.99278" lon="4.64301">
        <ele>225.6</ele>
        <time>2019-07-10T07:33:00Z</time>
      </trkpt>
      <trkpt lat="43.99271" lon="4.64293">
        <ele>225.6</ele>
        <time>2019-07-10T07:33:02Z</time>
      </trkpt>
      <trkpt lat="43.99264" lon="4.64284">
        <ele>225</ele>
        <time>2019-07-10T07:33:04Z</time>
      </trkpt>
      <trkpt lat="43.99258" lon="4.64275">
        <ele>224.8</ele>
        <time>2019-07-10T07:33:06Z</time>
      </trkpt>
      <trkpt lat="43.99247" lon="4.64261">
        <ele>224.6</ele>
        <time>2019-07-10T07:33:09Z</time>
      </trkpt>
      <trkpt lat="43.99229" lon="4.64239">
        <ele>224.2</ele>
        <time>2019-07-10T07:33:14Z</time>
      </trkpt>
      <trkpt lat="43.99213" lon="4.64219">
        <ele>224</ele>
        <time>2019-07-10T07:33:19Z</time>
      </trkpt>
      <trkpt lat="43.99208" lon="4.6421">
        <ele>223.8</ele>
        <time>2019-07-10T07:33:21Z</time>
      </trkpt>
      <trkpt lat="43.99205" lon="4.64204">
        <ele>223.8</ele>
        <time>2019-07-10T07:33:22Z</time>
      </trkpt>
      <trkpt lat="43.99204" lon="4.64198">
        <ele>223.8</ele>
        <time>2019-07-10T07:33:23Z</time>
      </trkpt>
      <trkpt lat="43.99203" lon="4.64192">
        <ele>224</ele>
        <time>2019-07-10T07:33:24Z</time>
      </trkpt>
      <trkpt lat="43.99203" lon="4.64185">
        <ele>223.8</ele>
        <time>2019-07-10T07:33:25Z</time>
      </trkpt>
      <trkpt lat="43.99205" lon="4.64179">
        <ele>223.6</ele>
        <time>2019-07-10T07:33:26Z</time>
      </trkpt>
      <trkpt lat="43.99207" lon="4.64172">
        <ele>223.6</ele>
        <time>2019-07-10T07:33:27Z</time>
      </trkpt>
      <trkpt lat="43.9921" lon="4.64166">
        <ele>223.4</ele>
        <time>2019-07-10T07:33:28Z</time>
      </trkpt>
      <trkpt lat="43.99212" lon="4.6416">
        <ele>223.6</ele>
        <time>2019-07-10T07:33:29Z</time>
      </trkpt>
      <trkpt lat="43.99218" lon="4.64148">
        <ele>223.4</ele>
        <time>2019-07-10T07:33:31Z</time>
      </trkpt>
      <trkpt lat="43.99225" lon="4.64135">
        <ele>223.2</ele>
        <time>2019-07-10T07:33:33Z</time>
      </trkpt>
      <trkpt lat="43.99228" lon="4.64128">
        <ele>223.2</ele>
        <time>2019-07-10T07:33:34Z</time>
      </trkpt>
      <trkpt lat="43.99238" lon="4.64109">
        <ele>223.2</ele>
        <time>2019-07-10T07:33:37Z</time>
      </trkpt>
      <trkpt lat="43.99245" lon="4.64096">
        <ele>223.2</ele>
        <time>2019-07-10T07:33:39Z</time>
      </trkpt>
      <trkpt lat="43.99255" lon="4.64076">
        <ele>222.8</ele>
        <time>2019-07-10T07:33:42Z</time>
      </trkpt>
      <trkpt lat="43.99261" lon="4.64063">
        <ele>222.6</ele>
        <time>2019-07-10T07:33:44Z</time>
      </trkpt>
      <trkpt lat="43.99265" lon="4.64057">
        <ele>222.4</ele>
        <time>2019-07-10T07:33:45Z</time>
      </trkpt>
      <trkpt lat="43.99268" lon="4.6405">
        <ele>222.4</ele>
        <time>2019-07-10T07:33:46Z</time>
      </trkpt>
      <trkpt lat="43.99271" lon="4.64043">
        <ele>222</ele>
        <time>2019-07-10T07:33:47Z</time>
      </trkpt>
      <trkpt lat="43.99289" lon="4.64008">
        <ele>221</ele>
        <time>2019-07-10T07:33:52Z</time>
      </trkpt>
      <trkpt lat="43.99293" lon="4.64001">
        <ele>220.8</ele>
        <time>2019-07-10T07:33:53Z</time>
      </trkpt>
      <trkpt lat="43.993" lon="4.63986">
        <ele>220.4</ele>
        <time>2019-07-10T07:33:55Z</time>
      </trkpt>
      <trkpt lat="43.99304" lon="4.63979">
        <ele>220.4</ele>
        <time>2019-07-10T07:33:56Z</time>
      </trkpt>
      <trkpt lat="43.99318" lon="4.63952">
        <ele>219.6</ele>
        <time>2019-07-10T07:34:00Z</time>
      </trkpt>
      <trkpt lat="43.99322" lon="4.63945">
        <ele>219.4</ele>
        <time>2019-07-10T07:34:01Z</time>
      </trkpt>
      <trkpt lat="43.99329" lon="4.63932">
        <ele>218.8</ele>
        <time>2019-07-10T07:34:03Z</time>
      </trkpt>
      <trkpt lat="43.99332" lon="4.63925">
        <ele>218.4</ele>
        <time>2019-07-10T07:34:04Z</time>
      </trkpt>
      <trkpt lat="43.99336" lon="4.63918">
        <ele>218.2</ele>
        <time>2019-07-10T07:34:05Z</time>
      </trkpt>
      <trkpt lat="43.99339" lon="4.63912">
        <ele>218</ele>
        <time>2019-07-10T07:34:06Z</time>
      </trkpt>
      <trkpt lat="43.99345" lon="4.63899">
        <ele>217.8</ele>
        <time>2019-07-10T07:34:08Z</time>
      </trkpt>
      <trkpt lat="43.99362" lon="4.63866">
        <ele>216.6</ele>
        <time>2019-07-10T07:34:13Z</time>
      </trkpt>
      <trkpt lat="43.99365" lon="4.63859">
        <ele>216.6</ele>
        <time>2019-07-10T07:34:14Z</time>
      </trkpt>
      <trkpt lat="43.99369" lon="4.63853">
        <ele>216.4</ele>
        <time>2019-07-10T07:34:15Z</time>
      </trkpt>
      <trkpt lat="43.99372" lon="4.63847">
        <ele>216.2</ele>
        <time>2019-07-10T07:34:16Z</time>
      </trkpt>
      <trkpt lat="43.99386" lon="4.6382">
        <ele>215.2</ele>
        <time>2019-07-10T07:34:20Z</time>
      </trkpt>
      <trkpt lat="43.99389" lon="4.63814">
        <ele>215</ele>
        <time>2019-07-10T07:34:21Z</time>
      </trkpt>
      <trkpt lat="43.99397" lon="4.63792">
        <ele>214.6</ele>
        <time>2019-07-10T07:34:24Z</time>
      </trkpt>
      <trkpt lat="43.994" lon="4.63778">
        <ele>214.6</ele>
        <time>2019-07-10T07:34:26Z</time>
      </trkpt>
      <trkpt lat="43.994" lon="4.63763">
        <ele>214.4</ele>
        <time>2019-07-10T07:34:28Z</time>
      </trkpt>
      <trkpt lat="43.99399" lon="4.6375">
        <ele>214</ele>
        <time>2019-07-10T07:34:30Z</time>
      </trkpt>
      <trkpt lat="43.99398" lon="4.63744">
        <ele>213.8</ele>
        <time>2019-07-10T07:34:31Z</time>
      </trkpt>
      <trkpt lat="43.99395" lon="4.63713">
        <ele>213.6</ele>
        <time>2019-07-10T07:34:36Z</time>
      </trkpt>
      <trkpt lat="43.99393" lon="4.6369">
        <ele>214</ele>
        <time>2019-07-10T07:34:40Z</time>
      </trkpt>
      <trkpt lat="43.99392" lon="4.63684">
        <ele>214.2</ele>
        <time>2019-07-10T07:34:41Z</time>
      </trkpt>
      <trkpt lat="43.9939" lon="4.63667">
        <ele>214.4</ele>
        <time>2019-07-10T07:34:44Z</time>
      </trkpt>
      <trkpt lat="43.9939" lon="4.63661">
        <ele>214.4</ele>
        <time>2019-07-10T07:34:45Z</time>
      </trkpt>
      <trkpt lat="43.99389" lon="4.63622">
        <ele>215</ele>
        <time>2019-07-10T07:34:52Z</time>
      </trkpt>
      <trkpt lat="43.99389" lon="4.63616">
        <ele>215.2</ele>
        <time>2019-07-10T07:34:53Z</time>
      </trkpt>
      <trkpt lat="43.9939" lon="4.6361">
        <ele>215.4</ele>
        <time>2019-07-10T07:34:54Z</time>
      </trkpt>
      <trkpt lat="43.99391" lon="4.63604">
        <ele>215.4</ele>
        <time>2019-07-10T07:34:55Z</time>
      </trkpt>
      <trkpt lat="43.99395" lon="4.63586">
        <ele>215.4</ele>
        <time>2019-07-10T07:34:58Z</time>
      </trkpt>
      <trkpt lat="43.99397" lon="4.6358">
        <ele>215.4</ele>
        <time>2019-07-10T07:34:59Z</time>
      </trkpt>
      <trkpt lat="43.99407" lon="4.63542">
        <ele>215.2</ele>
        <time>2019-07-10T07:35:05Z</time>
      </trkpt>
      <trkpt lat="43.99409" lon="4.63536">
        <ele>215.4</ele>
        <time>2019-07-10T07:35:06Z</time>
      </trkpt>
      <trkpt lat="43.99412" lon="4.63523">
        <ele>215.2</ele>
        <time>2019-07-10T07:35:08Z</time>
      </trkpt>
      <trkpt lat="43.99418" lon="4.63504">
        <ele>214.8</ele>
        <time>2019-07-10T07:35:11Z</time>
      </trkpt>
      <trkpt lat="43.9942" lon="4.63496">
        <ele>214.8</ele>
        <time>2019-07-10T07:35:12Z</time>
      </trkpt>
      <trkpt lat="43.99422" lon="4.63489">
        <ele>214.6</ele>
        <time>2019-07-10T07:35:13Z</time>
      </trkpt>
      <trkpt lat="43.99428" lon="4.63465">
        <ele>214.4</ele>
        <time>2019-07-10T07:35:16Z</time>
      </trkpt>
      <trkpt lat="43.99433" lon="4.63449">
        <ele>213.8</ele>
        <time>2019-07-10T07:35:18Z</time>
      </trkpt>
      <trkpt lat="43.99435" lon="4.63441">
        <ele>213.8</ele>
        <time>2019-07-10T07:35:19Z</time>
      </trkpt>
      <trkpt lat="43.99437" lon="4.63432">
        <ele>213.2</ele>
        <time>2019-07-10T07:35:20Z</time>
      </trkpt>
      <trkpt lat="43.9944" lon="4.63424">
        <ele>213.2</ele>
        <time>2019-07-10T07:35:21Z</time>
      </trkpt>
      <trkpt lat="43.99442" lon="4.63416">
        <ele>212.8</ele>
        <time>2019-07-10T07:35:22Z</time>
      </trkpt>
      <trkpt lat="43.99444" lon="4.63408">
        <ele>212.8</ele>
        <time>2019-07-10T07:35:23Z</time>
      </trkpt>
      <trkpt lat="43.99446" lon="4.634">
        <ele>212.4</ele>
        <time>2019-07-10T07:35:24Z</time>
      </trkpt>
      <trkpt lat="43.9945" lon="4.63384">
        <ele>212.4</ele>
        <time>2019-07-10T07:35:26Z</time>
      </trkpt>
      <trkpt lat="43.99452" lon="4.63376">
        <ele>212.4</ele>
        <time>2019-07-10T07:35:27Z</time>
      </trkpt>
      <trkpt lat="43.99458" lon="4.63355">
        <ele>212</ele>
        <time>2019-07-10T07:35:30Z</time>
      </trkpt>
      <trkpt lat="43.99462" lon="4.63343">
        <ele>211.8</ele>
        <time>2019-07-10T07:35:32Z</time>
      </trkpt>
      <trkpt lat="43.99469" lon="4.63315">
        <ele>210.6</ele>
        <time>2019-07-10T07:35:37Z</time>
      </trkpt>
      <trkpt lat="43.99471" lon="4.63305">
        <ele>210.2</ele>
        <time>2019-07-10T07:35:39Z</time>
      </trkpt>
      <trkpt lat="43.99473" lon="4.633">
        <ele>210.2</ele>
        <time>2019-07-10T07:35:40Z</time>
      </trkpt>
      <trkpt lat="43.99476" lon="4.6329">
        <ele>210.2</ele>
        <time>2019-07-10T07:35:42Z</time>
      </trkpt>
      <trkpt lat="43.99479" lon="4.6328">
        <ele>210.4</ele>
        <time>2019-07-10T07:35:44Z</time>
      </trkpt>
      <trkpt lat="43.99481" lon="4.6327">
        <ele>210.6</ele>
        <time>2019-07-10T07:35:46Z</time>
      </trkpt>
      <trkpt lat="43.99483" lon="4.63261">
        <ele>211</ele>
        <time>2019-07-10T07:35:48Z</time>
      </trkpt>
      <trkpt lat="43.99486" lon="4.63252">
        <ele>211.2</ele>
        <time>2019-07-10T07:35:50Z</time>
      </trkpt>
      <trkpt lat="43.99487" lon="4.63247">
        <ele>211.4</ele>
        <time>2019-07-10T07:35:51Z</time>
      </trkpt>
      <trkpt lat="43.99492" lon="4.63221">
        <ele>212.2</ele>
        <time>2019-07-10T07:35:57Z</time>
      </trkpt>
      <trkpt lat="43.99492" lon="4.63201">
        <ele>212.6</ele>
        <time>2019-07-10T07:36:02Z</time>
      </trkpt>
      <trkpt lat="43.99491" lon="4.63197">
        <ele>212.6</ele>
        <time>2019-07-10T07:36:03Z</time>
      </trkpt>
      <trkpt lat="43.99489" lon="4.63182">
        <ele>213.6</ele>
        <time>2019-07-10T07:36:07Z</time>
      </trkpt>
      <trkpt lat="43.99488" lon="4.6317">
        <ele>214.2</ele>
        <time>2019-07-10T07:36:10Z</time>
      </trkpt>
      <trkpt lat="43.99486" lon="4.6316">
        <ele>214.8</ele>
        <time>2019-07-10T07:36:13Z</time>
      </trkpt>
      <trkpt lat="43.99483" lon="4.63137">
        <ele>215.4</ele>
        <time>2019-07-10T07:36:19Z</time>
      </trkpt>
      <trkpt lat="43.9948" lon="4.63127">
        <ele>216.2</ele>
        <time>2019-07-10T07:36:22Z</time>
      </trkpt>
      <trkpt lat="43.99479" lon="4.63116">
        <ele>216.8</ele>
        <time>2019-07-10T07:36:25Z</time>
      </trkpt>
      <trkpt lat="43.99475" lon="4.63087">
        <ele>218</ele>
        <time>2019-07-10T07:36:33Z</time>
      </trkpt>
      <trkpt lat="43.99472" lon="4.63068">
        <ele>218.6</ele>
        <time>2019-07-10T07:36:37Z</time>
      </trkpt>
      <trkpt lat="43.99471" lon="4.63062">
        <ele>218.6</ele>
        <time>2019-07-10T07:36:38Z</time>
      </trkpt>
      <trkpt lat="43.99471" lon="4.63056">
        <ele>218.6</ele>
        <time>2019-07-10T07:36:39Z</time>
      </trkpt>
      <trkpt lat="43.9947" lon="4.63051">
        <ele>218.6</ele>
        <time>2019-07-10T07:36:40Z</time>
      </trkpt>
      <trkpt lat="43.99466" lon="4.63034">
        <ele>218.8</ele>
        <time>2019-07-10T07:36:43Z</time>
      </trkpt>
      <trkpt lat="43.99464" lon="4.63018">
        <ele>218.4</ele>
        <time>2019-07-10T07:36:46Z</time>
      </trkpt>
      <trkpt lat="43.99461" lon="4.62997">
        <ele>218</ele>
        <time>2019-07-10T07:36:50Z</time>
      </trkpt>
      <trkpt lat="43.99459" lon="4.62985">
        <ele>217.8</ele>
        <time>2019-07-10T07:36:52Z</time>
      </trkpt>
      <trkpt lat="43.99458" lon="4.62973">
        <ele>217.6</ele>
        <time>2019-07-10T07:36:54Z</time>
      </trkpt>
      <trkpt lat="43.99457" lon="4.62949">
        <ele>217.2</ele>
        <time>2019-07-10T07:36:58Z</time>
      </trkpt>
      <trkpt lat="43.99456" lon="4.62942">
        <ele>217</ele>
        <time>2019-07-10T07:36:59Z</time>
      </trkpt>
      <trkpt lat="43.99456" lon="4.62918">
        <ele>216.8</ele>
        <time>2019-07-10T07:37:02Z</time>
      </trkpt>
      <trkpt lat="43.99456" lon="4.6291">
        <ele>216.8</ele>
        <time>2019-07-10T07:37:03Z</time>
      </trkpt>
      <trkpt lat="43.99456" lon="4.62901">
        <ele>216.6</ele>
        <time>2019-07-10T07:37:04Z</time>
      </trkpt>
      <trkpt lat="43.99457" lon="4.62882">
        <ele>216.2</ele>
        <time>2019-07-10T07:37:06Z</time>
      </trkpt>
      <trkpt lat="43.99455" lon="4.62862">
        <ele>216</ele>
        <time>2019-07-10T07:37:08Z</time>
      </trkpt>
      <trkpt lat="43.99454" lon="4.62852">
        <ele>216</ele>
        <time>2019-07-10T07:37:09Z</time>
      </trkpt>
      <trkpt lat="43.99452" lon="4.62842">
        <ele>215.8</ele>
        <time>2019-07-10T07:37:10Z</time>
      </trkpt>
      <trkpt lat="43.99446" lon="4.62823">
        <ele>214.4</ele>
        <time>2019-07-10T07:37:12Z</time>
      </trkpt>
      <trkpt lat="43.99442" lon="4.62814">
        <ele>214.2</ele>
        <time>2019-07-10T07:37:13Z</time>
      </trkpt>
      <trkpt lat="43.99432" lon="4.62797">
        <ele>213</ele>
        <time>2019-07-10T07:37:15Z</time>
      </trkpt>
      <trkpt lat="43.99417" lon="4.62774">
        <ele>211.6</ele>
        <time>2019-07-10T07:37:18Z</time>
      </trkpt>
      <trkpt lat="43.99413" lon="4.62766">
        <ele>211.2</ele>
        <time>2019-07-10T07:37:19Z</time>
      </trkpt>
      <trkpt lat="43.99411" lon="4.62758">
        <ele>211</ele>
        <time>2019-07-10T07:37:20Z</time>
      </trkpt>
      <trkpt lat="43.9941" lon="4.62748">
        <ele>210.8</ele>
        <time>2019-07-10T07:37:21Z</time>
      </trkpt>
      <trkpt lat="43.99411" lon="4.62738">
        <ele>210.8</ele>
        <time>2019-07-10T07:37:22Z</time>
      </trkpt>
      <trkpt lat="43.99413" lon="4.62729">
        <ele>210.4</ele>
        <time>2019-07-10T07:37:23Z</time>
      </trkpt>
      <trkpt lat="43.99416" lon="4.62721">
        <ele>210.2</ele>
        <time>2019-07-10T07:37:24Z</time>
      </trkpt>
      <trkpt lat="43.9942" lon="4.62712">
        <ele>210.2</ele>
        <time>2019-07-10T07:37:25Z</time>
      </trkpt>
      <trkpt lat="43.99434" lon="4.62681">
        <ele>209.4</ele>
        <time>2019-07-10T07:37:28Z</time>
      </trkpt>
      <trkpt lat="43.99443" lon="4.62661">
        <ele>208.8</ele>
        <time>2019-07-10T07:37:30Z</time>
      </trkpt>
      <trkpt lat="43.99447" lon="4.62651">
        <ele>208.6</ele>
        <time>2019-07-10T07:37:31Z</time>
      </trkpt>
      <trkpt lat="43.99451" lon="4.6264">
        <ele>208.4</ele>
        <time>2019-07-10T07:37:32Z</time>
      </trkpt>
      <trkpt lat="43.99461" lon="4.62608">
        <ele>207.6</ele>
        <time>2019-07-10T07:37:35Z</time>
      </trkpt>
      <trkpt lat="43.99464" lon="4.62585">
        <ele>206.8</ele>
        <time>2019-07-10T07:37:37Z</time>
      </trkpt>
      <trkpt lat="43.99465" lon="4.62562">
        <ele>206</ele>
        <time>2019-07-10T07:37:39Z</time>
      </trkpt>
      <trkpt lat="43.99465" lon="4.62551">
        <ele>205.8</ele>
        <time>2019-07-10T07:37:40Z</time>
      </trkpt>
      <trkpt lat="43.99464" lon="4.62531">
        <ele>205.4</ele>
        <time>2019-07-10T07:37:42Z</time>
      </trkpt>
      <trkpt lat="43.99465" lon="4.62523">
        <ele>205.2</ele>
        <time>2019-07-10T07:37:43Z</time>
      </trkpt>
      <trkpt lat="43.99467" lon="4.62514">
        <ele>205</ele>
        <time>2019-07-10T07:37:44Z</time>
      </trkpt>
      <trkpt lat="43.99475" lon="4.62497">
        <ele>204.4</ele>
        <time>2019-07-10T07:37:46Z</time>
      </trkpt>
      <trkpt lat="43.9948" lon="4.62492">
        <ele>204.2</ele>
        <time>2019-07-10T07:37:47Z</time>
      </trkpt>
      <trkpt lat="43.99489" lon="4.62485">
        <ele>203.6</ele>
        <time>2019-07-10T07:37:49Z</time>
      </trkpt>
      <trkpt lat="43.99494" lon="4.6248">
        <ele>203.6</ele>
        <time>2019-07-10T07:37:50Z</time>
      </trkpt>
      <trkpt lat="43.99519" lon="4.62458">
        <ele>203.2</ele>
        <time>2019-07-10T07:37:56Z</time>
      </trkpt>
      <trkpt lat="43.99522" lon="4.62455">
        <ele>203</ele>
        <time>2019-07-10T07:37:57Z</time>
      </trkpt>
      <trkpt lat="43.9953" lon="4.62448">
        <ele>203</ele>
        <time>2019-07-10T07:37:59Z</time>
      </trkpt>
      <trkpt lat="43.99537" lon="4.62442">
        <ele>203</ele>
        <time>2019-07-10T07:38:01Z</time>
      </trkpt>
      <trkpt lat="43.99541" lon="4.62438">
        <ele>203.2</ele>
        <time>2019-07-10T07:38:02Z</time>
      </trkpt>
      <trkpt lat="43.99544" lon="4.62434">
        <ele>203.2</ele>
        <time>2019-07-10T07:38:03Z</time>
      </trkpt>
      <trkpt lat="43.99547" lon="4.6243">
        <ele>203.2</ele>
        <time>2019-07-10T07:38:04Z</time>
      </trkpt>
      <trkpt lat="43.9955" lon="4.62425">
        <ele>203</ele>
        <time>2019-07-10T07:38:05Z</time>
      </trkpt>
      <trkpt lat="43.99552" lon="4.6242">
        <ele>203.2</ele>
        <time>2019-07-10T07:38:06Z</time>
      </trkpt>
      <trkpt lat="43.99553" lon="4.62415">
        <ele>203.2</ele>
        <time>2019-07-10T07:38:07Z</time>
      </trkpt>
      <trkpt lat="43.99553" lon="4.6241">
        <ele>203.2</ele>
        <time>2019-07-10T07:38:08Z</time>
      </trkpt>
      <trkpt lat="43.99554" lon="4.62406">
        <ele>203.6</ele>
        <time>2019-07-10T07:38:09Z</time>
      </trkpt>
      <trkpt lat="43.99553" lon="4.62398">
        <ele>204</ele>
        <time>2019-07-10T07:38:11Z</time>
      </trkpt>
      <trkpt lat="43.99553" lon="4.62395">
        <ele>204.4</ele>
        <time>2019-07-10T07:38:12Z</time>
      </trkpt>
      <trkpt lat="43.99552" lon="4.62392">
        <ele>204.4</ele>
        <time>2019-07-10T07:38:13Z</time>
      </trkpt>
      <trkpt lat="43.99549" lon="4.62382">
        <ele>206</ele>
        <time>2019-07-10T07:38:16Z</time>
      </trkpt>
      <trkpt lat="43.99543" lon="4.62368">
        <ele>206.4</ele>
        <time>2019-07-10T07:38:20Z</time>
      </trkpt>
      <trkpt lat="43.99536" lon="4.62353">
        <ele>207</ele>
        <time>2019-07-10T07:38:25Z</time>
      </trkpt>
      <trkpt lat="43.99532" lon="4.62342">
        <ele>207.4</ele>
        <time>2019-07-10T07:38:29Z</time>
      </trkpt>
      <trkpt lat="43.99525" lon="4.62328">
        <ele>208</ele>
        <time>2019-07-10T07:38:34Z</time>
      </trkpt>
      <trkpt lat="43.99518" lon="4.62307">
        <ele>209.4</ele>
        <time>2019-07-10T07:38:41Z</time>
      </trkpt>
      <trkpt lat="43.99517" lon="4.623">
        <ele>209.6</ele>
        <time>2019-07-10T07:38:43Z</time>
      </trkpt>
      <trkpt lat="43.99518" lon="4.6229">
        <ele>209.8</ele>
        <time>2019-07-10T07:38:46Z</time>
      </trkpt>
      <trkpt lat="43.99519" lon="4.62287">
        <ele>210.4</ele>
        <time>2019-07-10T07:38:47Z</time>
      </trkpt>
      <trkpt lat="43.99522" lon="4.62282">
        <ele>211</ele>
        <time>2019-07-10T07:38:49Z</time>
      </trkpt>
      <trkpt lat="43.99532" lon="4.62272">
        <ele>212.8</ele>
        <time>2019-07-10T07:38:54Z</time>
      </trkpt>
      <trkpt lat="43.99534" lon="4.62272">
        <ele>212.8</ele>
        <time>2019-07-10T07:38:55Z</time>
      </trkpt>
      <trkpt lat="43.99545" lon="4.62268">
        <ele>213.8</ele>
        <time>2019-07-10T07:39:00Z</time>
      </trkpt>
      <trkpt lat="43.99552" lon="4.62266">
        <ele>214.2</ele>
        <time>2019-07-10T07:39:03Z</time>
      </trkpt>
      <trkpt lat="43.99557" lon="4.62265">
        <ele>214.6</ele>
        <time>2019-07-10T07:39:05Z</time>
      </trkpt>
      <trkpt lat="43.99564" lon="4.62262">
        <ele>215.4</ele>
        <time>2019-07-10T07:39:08Z</time>
      </trkpt>
      <trkpt lat="43.99569" lon="4.62261">
        <ele>216.4</ele>
        <time>2019-07-10T07:39:10Z</time>
      </trkpt>
      <trkpt lat="43.99572" lon="4.6226">
        <ele>216.4</ele>
        <time>2019-07-10T07:39:11Z</time>
      </trkpt>
      <trkpt lat="43.99576" lon="4.62258">
        <ele>216.8</ele>
        <time>2019-07-10T07:39:12Z</time>
      </trkpt>
      <trkpt lat="43.99579" lon="4.62257">
        <ele>217</ele>
        <time>2019-07-10T07:39:13Z</time>
      </trkpt>
      <trkpt lat="43.99587" lon="4.62255">
        <ele>217.4</ele>
        <time>2019-07-10T07:39:15Z</time>
      </trkpt>
      <trkpt lat="43.99591" lon="4.62253">
        <ele>217.4</ele>
        <time>2019-07-10T07:39:16Z</time>
      </trkpt>
      <trkpt lat="43.996" lon="4.62251">
        <ele>217.2</ele>
        <time>2019-07-10T07:39:18Z</time>
      </trkpt>
      <trkpt lat="43.99616" lon="4.62246">
        <ele>216.6</ele>
        <time>2019-07-10T07:39:21Z</time>
      </trkpt>
      <trkpt lat="43.99628" lon="4.62241">
        <ele>215.8</ele>
        <time>2019-07-10T07:39:23Z</time>
      </trkpt>
      <trkpt lat="43.99646" lon="4.62231">
        <ele>214.6</ele>
        <time>2019-07-10T07:39:26Z</time>
      </trkpt>
      <trkpt lat="43.99657" lon="4.62223">
        <ele>213.8</ele>
        <time>2019-07-10T07:39:28Z</time>
      </trkpt>
      <trkpt lat="43.99668" lon="4.62213">
        <ele>212</ele>
        <time>2019-07-10T07:39:30Z</time>
      </trkpt>
      <trkpt lat="43.99677" lon="4.62206">
        <ele>210.8</ele>
        <time>2019-07-10T07:39:32Z</time>
      </trkpt>
      <trkpt lat="43.99682" lon="4.62204">
        <ele>210.2</ele>
        <time>2019-07-10T07:39:33Z</time>
      </trkpt>
      <trkpt lat="43.99687" lon="4.62204">
        <ele>209.8</ele>
        <time>2019-07-10T07:39:34Z</time>
      </trkpt>
      <trkpt lat="43.99692" lon="4.62204">
        <ele>209.6</ele>
        <time>2019-07-10T07:39:35Z</time>
      </trkpt>
      <trkpt lat="43.99701" lon="4.62205">
        <ele>208.2</ele>
        <time>2019-07-10T07:39:37Z</time>
      </trkpt>
      <trkpt lat="43.99707" lon="4.62203">
        <ele>208</ele>
        <time>2019-07-10T07:39:38Z</time>
      </trkpt>
      <trkpt lat="43.99712" lon="4.62198">
        <ele>207.8</ele>
        <time>2019-07-10T07:39:39Z</time>
      </trkpt>
      <trkpt lat="43.99714" lon="4.62192">
        <ele>207.2</ele>
        <time>2019-07-10T07:39:40Z</time>
      </trkpt>
      <trkpt lat="43.99716" lon="4.62185">
        <ele>206.4</ele>
        <time>2019-07-10T07:39:41Z</time>
      </trkpt>
      <trkpt lat="43.99713" lon="4.62172">
        <ele>206.2</ele>
        <time>2019-07-10T07:39:43Z</time>
      </trkpt>
      <trkpt lat="43.99705" lon="4.62157">
        <ele>206</ele>
        <time>2019-07-10T07:39:46Z</time>
      </trkpt>
      <trkpt lat="43.99703" lon="4.62154">
        <ele>205.8</ele>
        <time>2019-07-10T07:39:47Z</time>
      </trkpt>
      <trkpt lat="43.99702" lon="4.62152">
        <ele>205.8</ele>
        <time>2019-07-10T07:39:48Z</time>
      </trkpt>
      <trkpt lat="43.99701" lon="4.62151">
        <ele>205.8</ele>
        <time>2019-07-10T07:39:50Z</time>
      </trkpt>
      <trkpt lat="43.99699" lon="4.62148">
        <ele>204.2</ele>
        <time>2019-07-10T07:40:17Z</time>
      </trkpt>
      <trkpt lat="43.99697" lon="4.62145">
        <ele>204</ele>
        <time>2019-07-10T07:40:18Z</time>
      </trkpt>
      <trkpt lat="43.99691" lon="4.62137">
        <ele>204</ele>
        <time>2019-07-10T07:40:20Z</time>
      </trkpt>
      <trkpt lat="43.99685" lon="4.62128">
        <ele>203.8</ele>
        <time>2019-07-10T07:40:22Z</time>
      </trkpt>
      <trkpt lat="43.99678" lon="4.62117">
        <ele>203.4</ele>
        <time>2019-07-10T07:40:24Z</time>
      </trkpt>
      <trkpt lat="43.99675" lon="4.62111">
        <ele>203.2</ele>
        <time>2019-07-10T07:40:25Z</time>
      </trkpt>
      <trkpt lat="43.9967" lon="4.62095">
        <ele>203</ele>
        <time>2019-07-10T07:40:27Z</time>
      </trkpt>
      <trkpt lat="43.99669" lon="4.62086">
        <ele>202.8</ele>
        <time>2019-07-10T07:40:28Z</time>
      </trkpt>
      <trkpt lat="43.99669" lon="4.62078">
        <ele>202.6</ele>
        <time>2019-07-10T07:40:29Z</time>
      </trkpt>
      <trkpt lat="43.99671" lon="4.62069">
        <ele>202</ele>
        <time>2019-07-10T07:40:30Z</time>
      </trkpt>
      <trkpt lat="43.99673" lon="4.62061">
        <ele>201.4</ele>
        <time>2019-07-10T07:40:31Z</time>
      </trkpt>
      <trkpt lat="43.99677" lon="4.62053">
        <ele>200.6</ele>
        <time>2019-07-10T07:40:32Z</time>
      </trkpt>
      <trkpt lat="43.99682" lon="4.62046">
        <ele>199.8</ele>
        <time>2019-07-10T07:40:33Z</time>
      </trkpt>
      <trkpt lat="43.99694" lon="4.62034">
        <ele>198.4</ele>
        <time>2019-07-10T07:40:35Z</time>
      </trkpt>
      <trkpt lat="43.997" lon="4.62029">
        <ele>198</ele>
        <time>2019-07-10T07:40:36Z</time>
      </trkpt>
      <trkpt lat="43.99713" lon="4.62018">
        <ele>197.6</ele>
        <time>2019-07-10T07:40:38Z</time>
      </trkpt>
      <trkpt lat="43.9974" lon="4.61994">
        <ele>197</ele>
        <time>2019-07-10T07:40:42Z</time>
      </trkpt>
      <trkpt lat="43.99754" lon="4.61982">
        <ele>196.8</ele>
        <time>2019-07-10T07:40:44Z</time>
      </trkpt>
      <trkpt lat="43.99761" lon="4.61977">
        <ele>196.6</ele>
        <time>2019-07-10T07:40:45Z</time>
      </trkpt>
      <trkpt lat="43.99769" lon="4.61973">
        <ele>196.6</ele>
        <time>2019-07-10T07:40:46Z</time>
      </trkpt>
      <trkpt lat="43.99786" lon="4.61965">
        <ele>196.2</ele>
        <time>2019-07-10T07:40:48Z</time>
      </trkpt>
      <trkpt lat="43.99794" lon="4.61961">
        <ele>195.4</ele>
        <time>2019-07-10T07:40:49Z</time>
      </trkpt>
      <trkpt lat="43.99802" lon="4.61957">
        <ele>195</ele>
        <time>2019-07-10T07:40:50Z</time>
      </trkpt>
      <trkpt lat="43.99816" lon="4.6195">
        <ele>194</ele>
        <time>2019-07-10T07:40:52Z</time>
      </trkpt>
      <trkpt lat="43.99829" lon="4.61944">
        <ele>192</ele>
        <time>2019-07-10T07:40:54Z</time>
      </trkpt>
      <trkpt lat="43.99835" lon="4.6194">
        <ele>191.4</ele>
        <time>2019-07-10T07:40:55Z</time>
      </trkpt>
      <trkpt lat="43.99842" lon="4.61936">
        <ele>190.6</ele>
        <time>2019-07-10T07:40:56Z</time>
      </trkpt>
      <trkpt lat="43.99847" lon="4.61931">
        <ele>190.2</ele>
        <time>2019-07-10T07:40:57Z</time>
      </trkpt>
      <trkpt lat="43.99853" lon="4.61924">
        <ele>189.4</ele>
        <time>2019-07-10T07:40:58Z</time>
      </trkpt>
      <trkpt lat="43.99857" lon="4.61916">
        <ele>189</ele>
        <time>2019-07-10T07:40:59Z</time>
      </trkpt>
      <trkpt lat="43.9986" lon="4.61907">
        <ele>188.6</ele>
        <time>2019-07-10T07:41:00Z</time>
      </trkpt>
      <trkpt lat="43.99862" lon="4.61886">
        <ele>187.6</ele>
        <time>2019-07-10T07:41:02Z</time>
      </trkpt>
      <trkpt lat="43.99859" lon="4.61869">
        <ele>186.6</ele>
        <time>2019-07-10T07:41:04Z</time>
      </trkpt>
      <trkpt lat="43.99855" lon="4.61861">
        <ele>186</ele>
        <time>2019-07-10T07:41:05Z</time>
      </trkpt>
      <trkpt lat="43.99851" lon="4.61851">
        <ele>185.8</ele>
        <time>2019-07-10T07:41:06Z</time>
      </trkpt>
      <trkpt lat="43.99843" lon="4.61838">
        <ele>185.8</ele>
        <time>2019-07-10T07:41:08Z</time>
      </trkpt>
      <trkpt lat="43.9982" lon="4.61803">
        <ele>184.2</ele>
        <time>2019-07-10T07:41:13Z</time>
      </trkpt>
      <trkpt lat="43.99786" lon="4.61747">
        <ele>181.6</ele>
        <time>2019-07-10T07:41:21Z</time>
      </trkpt>
      <trkpt lat="43.99782" lon="4.6174">
        <ele>181.2</ele>
        <time>2019-07-10T07:41:22Z</time>
      </trkpt>
      <trkpt lat="43.99779" lon="4.61731">
        <ele>181</ele>
        <time>2019-07-10T07:41:23Z</time>
      </trkpt>
      <trkpt lat="43.99776" lon="4.61723">
        <ele>180.8</ele>
        <time>2019-07-10T07:41:24Z</time>
      </trkpt>
      <trkpt lat="43.99774" lon="4.61714">
        <ele>180.6</ele>
        <time>2019-07-10T07:41:25Z</time>
      </trkpt>
      <trkpt lat="43.99771" lon="4.61706">
        <ele>180.6</ele>
        <time>2019-07-10T07:41:26Z</time>
      </trkpt>
      <trkpt lat="43.99769" lon="4.61697">
        <ele>180.4</ele>
        <time>2019-07-10T07:41:27Z</time>
      </trkpt>
      <trkpt lat="43.99767" lon="4.61689">
        <ele>180.4</ele>
        <time>2019-07-10T07:41:28Z</time>
      </trkpt>
      <trkpt lat="43.99766" lon="4.6168">
        <ele>180.4</ele>
        <time>2019-07-10T07:41:29Z</time>
      </trkpt>
      <trkpt lat="43.99762" lon="4.61663">
        <ele>180.4</ele>
        <time>2019-07-10T07:41:31Z</time>
      </trkpt>
      <trkpt lat="43.9976" lon="4.61655">
        <ele>180.4</ele>
        <time>2019-07-10T07:41:32Z</time>
      </trkpt>
      <trkpt lat="43.99758" lon="4.61647">
        <ele>180.4</ele>
        <time>2019-07-10T07:41:33Z</time>
      </trkpt>
      <trkpt lat="43.99757" lon="4.6164">
        <ele>180.2</ele>
        <time>2019-07-10T07:41:34Z</time>
      </trkpt>
      <trkpt lat="43.99753" lon="4.61624">
        <ele>180.4</ele>
        <time>2019-07-10T07:41:36Z</time>
      </trkpt>
      <trkpt lat="43.99748" lon="4.6159">
        <ele>180</ele>
        <time>2019-07-10T07:41:40Z</time>
      </trkpt>
      <trkpt lat="43.99749" lon="4.61571">
        <ele>179.8</ele>
        <time>2019-07-10T07:41:42Z</time>
      </trkpt>
      <trkpt lat="43.9975" lon="4.61561">
        <ele>179.4</ele>
        <time>2019-07-10T07:41:43Z</time>
      </trkpt>
      <trkpt lat="43.99752" lon="4.6155">
        <ele>179</ele>
        <time>2019-07-10T07:41:44Z</time>
      </trkpt>
      <trkpt lat="43.99758" lon="4.6153">
        <ele>178.6</ele>
        <time>2019-07-10T07:41:46Z</time>
      </trkpt>
      <trkpt lat="43.99762" lon="4.6152">
        <ele>178.2</ele>
        <time>2019-07-10T07:41:47Z</time>
      </trkpt>
      <trkpt lat="43.99772" lon="4.61489">
        <ele>177</ele>
        <time>2019-07-10T07:41:50Z</time>
      </trkpt>
      <trkpt lat="43.99776" lon="4.61477">
        <ele>176.8</ele>
        <time>2019-07-10T07:41:51Z</time>
      </trkpt>
      <trkpt lat="43.9978" lon="4.61465">
        <ele>176.6</ele>
        <time>2019-07-10T07:41:52Z</time>
      </trkpt>
      <trkpt lat="43.99783" lon="4.61453">
        <ele>176.2</ele>
        <time>2019-07-10T07:41:53Z</time>
      </trkpt>
      <trkpt lat="43.99786" lon="4.6144">
        <ele>175.4</ele>
        <time>2019-07-10T07:41:54Z</time>
      </trkpt>
      <trkpt lat="43.99788" lon="4.61427">
        <ele>175.2</ele>
        <time>2019-07-10T07:41:55Z</time>
      </trkpt>
      <trkpt lat="43.99789" lon="4.61415">
        <ele>174.6</ele>
        <time>2019-07-10T07:41:56Z</time>
      </trkpt>
      <trkpt lat="43.9979" lon="4.61402">
        <ele>174.4</ele>
        <time>2019-07-10T07:41:57Z</time>
      </trkpt>
      <trkpt lat="43.99791" lon="4.6139">
        <ele>174.2</ele>
        <time>2019-07-10T07:41:58Z</time>
      </trkpt>
      <trkpt lat="43.99792" lon="4.61378">
        <ele>174.2</ele>
        <time>2019-07-10T07:41:59Z</time>
      </trkpt>
      <trkpt lat="43.99793" lon="4.61366">
        <ele>173.4</ele>
        <time>2019-07-10T07:42:00Z</time>
      </trkpt>
      <trkpt lat="43.99794" lon="4.61354">
        <ele>173.2</ele>
        <time>2019-07-10T07:42:01Z</time>
      </trkpt>
      <trkpt lat="43.99795" lon="4.61344">
        <ele>172.4</ele>
        <time>2019-07-10T07:42:02Z</time>
      </trkpt>
      <trkpt lat="43.99798" lon="4.61335">
        <ele>171.6</ele>
        <time>2019-07-10T07:42:03Z</time>
      </trkpt>
      <trkpt lat="43.99802" lon="4.61327">
        <ele>171</ele>
        <time>2019-07-10T07:42:04Z</time>
      </trkpt>
      <trkpt lat="43.99808" lon="4.61321">
        <ele>168.8</ele>
        <time>2019-07-10T07:42:05Z</time>
      </trkpt>
      <trkpt lat="43.99815" lon="4.61318">
        <ele>168.2</ele>
        <time>2019-07-10T07:42:06Z</time>
      </trkpt>
      <trkpt lat="43.99828" lon="4.61314">
        <ele>167</ele>
        <time>2019-07-10T07:42:08Z</time>
      </trkpt>
      <trkpt lat="43.99835" lon="4.61311">
        <ele>166.4</ele>
        <time>2019-07-10T07:42:09Z</time>
      </trkpt>
      <trkpt lat="43.99841" lon="4.61307">
        <ele>166</ele>
        <time>2019-07-10T07:42:10Z</time>
      </trkpt>
      <trkpt lat="43.99844" lon="4.613">
        <ele>165.4</ele>
        <time>2019-07-10T07:42:11Z</time>
      </trkpt>
      <trkpt lat="43.99846" lon="4.61282">
        <ele>164.8</ele>
        <time>2019-07-10T07:42:13Z</time>
      </trkpt>
      <trkpt lat="43.99844" lon="4.61274">
        <ele>164.6</ele>
        <time>2019-07-10T07:42:14Z</time>
      </trkpt>
      <trkpt lat="43.9984" lon="4.61267">
        <ele>164.6</ele>
        <time>2019-07-10T07:42:15Z</time>
      </trkpt>
      <trkpt lat="43.99834" lon="4.61254">
        <ele>164.2</ele>
        <time>2019-07-10T07:42:17Z</time>
      </trkpt>
      <trkpt lat="43.99831" lon="4.61247">
        <ele>164.2</ele>
        <time>2019-07-10T07:42:18Z</time>
      </trkpt>
      <trkpt lat="43.99829" lon="4.6124">
        <ele>164</ele>
        <time>2019-07-10T07:42:19Z</time>
      </trkpt>
      <trkpt lat="43.99827" lon="4.61232">
        <ele>163.6</ele>
        <time>2019-07-10T07:42:20Z</time>
      </trkpt>
      <trkpt lat="43.99826" lon="4.61224">
        <ele>163.4</ele>
        <time>2019-07-10T07:42:21Z</time>
      </trkpt>
      <trkpt lat="43.99826" lon="4.61215">
        <ele>163.4</ele>
        <time>2019-07-10T07:42:22Z</time>
      </trkpt>
      <trkpt lat="43.99827" lon="4.61205">
        <ele>163.4</ele>
        <time>2019-07-10T07:42:23Z</time>
      </trkpt>
      <trkpt lat="43.99833" lon="4.61186">
        <ele>163.2</ele>
        <time>2019-07-10T07:42:25Z</time>
      </trkpt>
      <trkpt lat="43.99843" lon="4.61169">
        <ele>162.2</ele>
        <time>2019-07-10T07:42:27Z</time>
      </trkpt>
      <trkpt lat="43.99849" lon="4.61162">
        <ele>162.2</ele>
        <time>2019-07-10T07:42:28Z</time>
      </trkpt>
      <trkpt lat="43.99855" lon="4.61154">
        <ele>161.8</ele>
        <time>2019-07-10T07:42:29Z</time>
      </trkpt>
      <trkpt lat="43.99861" lon="4.61147">
        <ele>161.6</ele>
        <time>2019-07-10T07:42:30Z</time>
      </trkpt>
      <trkpt lat="43.99874" lon="4.61133">
        <ele>161</ele>
        <time>2019-07-10T07:42:32Z</time>
      </trkpt>
      <trkpt lat="43.9988" lon="4.61126">
        <ele>160.6</ele>
        <time>2019-07-10T07:42:33Z</time>
      </trkpt>
      <trkpt lat="43.99893" lon="4.61112">
        <ele>160.2</ele>
        <time>2019-07-10T07:42:35Z</time>
      </trkpt>
      <trkpt lat="43.999" lon="4.61104">
        <ele>160</ele>
        <time>2019-07-10T07:42:36Z</time>
      </trkpt>
      <trkpt lat="43.99906" lon="4.61097">
        <ele>160</ele>
        <time>2019-07-10T07:42:37Z</time>
      </trkpt>
      <trkpt lat="43.99925" lon="4.61077">
        <ele>159.2</ele>
        <time>2019-07-10T07:42:40Z</time>
      </trkpt>
      <trkpt lat="43.99935" lon="4.61064">
        <ele>158.2</ele>
        <time>2019-07-10T07:42:42Z</time>
      </trkpt>
      <trkpt lat="43.9994" lon="4.61057">
        <ele>157.6</ele>
        <time>2019-07-10T07:42:43Z</time>
      </trkpt>
      <trkpt lat="43.99943" lon="4.6105">
        <ele>157</ele>
        <time>2019-07-10T07:42:44Z</time>
      </trkpt>
      <trkpt lat="43.99948" lon="4.61035">
        <ele>156</ele>
        <time>2019-07-10T07:42:46Z</time>
      </trkpt>
      <trkpt lat="43.9995" lon="4.61027">
        <ele>155.6</ele>
        <time>2019-07-10T07:42:47Z</time>
      </trkpt>
      <trkpt lat="43.99951" lon="4.61014">
        <ele>155.2</ele>
        <time>2019-07-10T07:42:49Z</time>
      </trkpt>
      <trkpt lat="43.99953" lon="4.60996">
        <ele>155.2</ele>
        <time>2019-07-10T07:42:52Z</time>
      </trkpt>
      <trkpt lat="43.99955" lon="4.60965">
        <ele>155.4</ele>
        <time>2019-07-10T07:42:58Z</time>
      </trkpt>
      <trkpt lat="43.99956" lon="4.60941">
        <ele>155.6</ele>
        <time>2019-07-10T07:43:04Z</time>
      </trkpt>
      <trkpt lat="43.99952" lon="4.60916">
        <ele>155.8</ele>
        <time>2019-07-10T07:43:10Z</time>
      </trkpt>
      <trkpt lat="43.99951" lon="4.60913">
        <ele>156.2</ele>
        <time>2019-07-10T07:43:11Z</time>
      </trkpt>
      <trkpt lat="43.99948" lon="4.60906">
        <ele>156.2</ele>
        <time>2019-07-10T07:43:13Z</time>
      </trkpt>
      <trkpt lat="43.99944" lon="4.609">
        <ele>156.4</ele>
        <time>2019-07-10T07:43:15Z</time>
      </trkpt>
      <trkpt lat="43.9994" lon="4.60895">
        <ele>157</ele>
        <time>2019-07-10T07:43:17Z</time>
      </trkpt>
      <trkpt lat="43.99927" lon="4.60884">
        <ele>157.8</ele>
        <time>2019-07-10T07:43:23Z</time>
      </trkpt>
      <trkpt lat="43.99919" lon="4.60881">
        <ele>158</ele>
        <time>2019-07-10T07:43:26Z</time>
      </trkpt>
      <trkpt lat="43.99916" lon="4.6088">
        <ele>158.2</ele>
        <time>2019-07-10T07:43:27Z</time>
      </trkpt>
      <trkpt lat="43.99914" lon="4.60879">
        <ele>158.2</ele>
        <time>2019-07-10T07:43:28Z</time>
      </trkpt>
      <trkpt lat="43.99903" lon="4.60879">
        <ele>158.8</ele>
        <time>2019-07-10T07:43:32Z</time>
      </trkpt>
      <trkpt lat="43.99891" lon="4.6088">
        <ele>159.6</ele>
        <time>2019-07-10T07:43:37Z</time>
      </trkpt>
      <trkpt lat="43.99887" lon="4.60878">
        <ele>159.8</ele>
        <time>2019-07-10T07:43:39Z</time>
      </trkpt>
      <trkpt lat="43.9988" lon="4.60873">
        <ele>160.4</ele>
        <time>2019-07-10T07:43:42Z</time>
      </trkpt>
      <trkpt lat="43.99875" lon="4.60866">
        <ele>161</ele>
        <time>2019-07-10T07:43:45Z</time>
      </trkpt>
      <trkpt lat="43.99874" lon="4.60863">
        <ele>161.2</ele>
        <time>2019-07-10T07:43:46Z</time>
      </trkpt>
      <trkpt lat="43.99873" lon="4.6086">
        <ele>161.2</ele>
        <time>2019-07-10T07:43:47Z</time>
      </trkpt>
      <trkpt lat="43.99866" lon="4.60843">
        <ele>162.8</ele>
        <time>2019-07-10T07:43:53Z</time>
      </trkpt>
      <trkpt lat="43.99865" lon="4.60841">
        <ele>162.8</ele>
        <time>2019-07-10T07:43:54Z</time>
      </trkpt>
      <trkpt lat="43.99858" lon="4.60823">
        <ele>163.4</ele>
        <time>2019-07-10T07:44:00Z</time>
      </trkpt>
      <trkpt lat="43.99855" lon="4.60817">
        <ele>164.2</ele>
        <time>2019-07-10T07:44:02Z</time>
      </trkpt>
      <trkpt lat="43.99853" lon="4.60811">
        <ele>164.6</ele>
        <time>2019-07-10T07:44:04Z</time>
      </trkpt>
      <trkpt lat="43.99848" lon="4.60796">
        <ele>164.8</ele>
        <time>2019-07-10T07:44:09Z</time>
      </trkpt>
      <trkpt lat="43.99848" lon="4.60793">
        <ele>164.8</ele>
        <time>2019-07-10T07:44:10Z</time>
      </trkpt>
      <trkpt lat="43.99847" lon="4.60767">
        <ele>166.6</ele>
        <time>2019-07-10T07:44:18Z</time>
      </trkpt>
      <trkpt lat="43.9985" lon="4.60759">
        <ele>167.2</ele>
        <time>2019-07-10T07:44:21Z</time>
      </trkpt>
      <trkpt lat="43.99851" lon="4.60757">
        <ele>167.2</ele>
        <time>2019-07-10T07:44:22Z</time>
      </trkpt>
      <trkpt lat="43.99855" lon="4.60752">
        <ele>167.2</ele>
        <time>2019-07-10T07:44:24Z</time>
      </trkpt>
      <trkpt lat="43.99857" lon="4.60749">
        <ele>167.2</ele>
        <time>2019-07-10T07:44:25Z</time>
      </trkpt>
      <trkpt lat="43.99864" lon="4.60743">
        <ele>167.4</ele>
        <time>2019-07-10T07:44:28Z</time>
      </trkpt>
      <trkpt lat="43.99869" lon="4.60739">
        <ele>167.8</ele>
        <time>2019-07-10T07:44:30Z</time>
      </trkpt>
      <trkpt lat="43.99872" lon="4.60737">
        <ele>167.8</ele>
        <time>2019-07-10T07:44:31Z</time>
      </trkpt>
      <trkpt lat="43.99881" lon="4.6073">
        <ele>168.4</ele>
        <time>2019-07-10T07:44:34Z</time>
      </trkpt>
      <trkpt lat="43.99895" lon="4.6072">
        <ele>168.6</ele>
        <time>2019-07-10T07:44:38Z</time>
      </trkpt>
      <trkpt lat="43.99913" lon="4.60705">
        <ele>168.8</ele>
        <time>2019-07-10T07:44:43Z</time>
      </trkpt>
      <trkpt lat="43.99917" lon="4.60702">
        <ele>168.8</ele>
        <time>2019-07-10T07:44:44Z</time>
      </trkpt>
      <trkpt lat="43.99924" lon="4.60696">
        <ele>168.8</ele>
        <time>2019-07-10T07:44:46Z</time>
      </trkpt>
      <trkpt lat="43.99928" lon="4.60693">
        <ele>169</ele>
        <time>2019-07-10T07:44:47Z</time>
      </trkpt>
      <trkpt lat="43.99944" lon="4.6068">
        <ele>169</ele>
        <time>2019-07-10T07:44:51Z</time>
      </trkpt>
      <trkpt lat="43.99951" lon="4.60674">
        <ele>169.2</ele>
        <time>2019-07-10T07:44:53Z</time>
      </trkpt>
      <trkpt lat="43.99955" lon="4.60671">
        <ele>169</ele>
        <time>2019-07-10T07:44:54Z</time>
      </trkpt>
      <trkpt lat="43.99962" lon="4.60665">
        <ele>169.2</ele>
        <time>2019-07-10T07:44:56Z</time>
      </trkpt>
      <trkpt lat="43.99973" lon="4.60656">
        <ele>169.4</ele>
        <time>2019-07-10T07:44:59Z</time>
      </trkpt>
      <trkpt lat="43.9998" lon="4.60649">
        <ele>169.2</ele>
        <time>2019-07-10T07:45:01Z</time>
      </trkpt>
      <trkpt lat="43.99984" lon="4.60646">
        <ele>169.2</ele>
        <time>2019-07-10T07:45:02Z</time>
      </trkpt>
      <trkpt lat="44.00006" lon="4.60628">
        <ele>169</ele>
        <time>2019-07-10T07:45:08Z</time>
      </trkpt>
      <trkpt lat="44.00017" lon="4.6062">
        <ele>169</ele>
        <time>2019-07-10T07:45:11Z</time>
      </trkpt>
      <trkpt lat="44.00021" lon="4.60617">
        <ele>169</ele>
        <time>2019-07-10T07:45:12Z</time>
      </trkpt>
      <trkpt lat="44.00028" lon="4.60612">
        <ele>169</ele>
        <time>2019-07-10T07:45:14Z</time>
      </trkpt>
      <trkpt lat="44.00035" lon="4.60606">
        <ele>169.2</ele>
        <time>2019-07-10T07:45:16Z</time>
      </trkpt>
      <trkpt lat="44.00052" lon="4.60592">
        <ele>169</ele>
        <time>2019-07-10T07:45:21Z</time>
      </trkpt>
      <trkpt lat="44.00055" lon="4.60589">
        <ele>169</ele>
        <time>2019-07-10T07:45:22Z</time>
      </trkpt>
      <trkpt lat="44.00075" lon="4.60561">
        <ele>168.2</ele>
        <time>2019-07-10T07:45:29Z</time>
      </trkpt>
      <trkpt lat="44.0008" lon="4.6055">
        <ele>168.2</ele>
        <time>2019-07-10T07:45:31Z</time>
      </trkpt>
      <trkpt lat="44.00084" lon="4.60538">
        <ele>168.2</ele>
        <time>2019-07-10T07:45:33Z</time>
      </trkpt>
      <trkpt lat="44.00089" lon="4.60525">
        <ele>168</ele>
        <time>2019-07-10T07:45:35Z</time>
      </trkpt>
      <trkpt lat="44.001" lon="4.60499">
        <ele>168</ele>
        <time>2019-07-10T07:45:39Z</time>
      </trkpt>
      <trkpt lat="44.00103" lon="4.60493">
        <ele>168</ele>
        <time>2019-07-10T07:45:40Z</time>
      </trkpt>
      <trkpt lat="44.0011" lon="4.60482">
        <ele>168</ele>
        <time>2019-07-10T07:45:42Z</time>
      </trkpt>
      <trkpt lat="44.00124" lon="4.60463">
        <ele>167.8</ele>
        <time>2019-07-10T07:45:46Z</time>
      </trkpt>
      <trkpt lat="44.00128" lon="4.60459">
        <ele>167.6</ele>
        <time>2019-07-10T07:45:47Z</time>
      </trkpt>
      <trkpt lat="44.00132" lon="4.60455">
        <ele>167.4</ele>
        <time>2019-07-10T07:45:48Z</time>
      </trkpt>
      <trkpt lat="44.00135" lon="4.60452">
        <ele>167.4</ele>
        <time>2019-07-10T07:45:49Z</time>
      </trkpt>
      <trkpt lat="44.00139" lon="4.60448">
        <ele>167.2</ele>
        <time>2019-07-10T07:45:50Z</time>
      </trkpt>
      <trkpt lat="44.00143" lon="4.60444">
        <ele>167</ele>
        <time>2019-07-10T07:45:51Z</time>
      </trkpt>
      <trkpt lat="44.0015" lon="4.60437">
        <ele>166.8</ele>
        <time>2019-07-10T07:45:53Z</time>
      </trkpt>
      <trkpt lat="44.00154" lon="4.60433">
        <ele>166.8</ele>
        <time>2019-07-10T07:45:54Z</time>
      </trkpt>
      <trkpt lat="44.00158" lon="4.60429">
        <ele>166.8</ele>
        <time>2019-07-10T07:45:55Z</time>
      </trkpt>
      <trkpt lat="44.0017" lon="4.60417">
        <ele>165.8</ele>
        <time>2019-07-10T07:45:58Z</time>
      </trkpt>
      <trkpt lat="44.00174" lon="4.60414">
        <ele>165.6</ele>
        <time>2019-07-10T07:45:59Z</time>
      </trkpt>
      <trkpt lat="44.00178" lon="4.6041">
        <ele>165.4</ele>
        <time>2019-07-10T07:46:00Z</time>
      </trkpt>
      <trkpt lat="44.00194" lon="4.60394">
        <ele>165.4</ele>
        <time>2019-07-10T07:46:04Z</time>
      </trkpt>
      <trkpt lat="44.00198" lon="4.6039">
        <ele>165</ele>
        <time>2019-07-10T07:46:05Z</time>
      </trkpt>
      <trkpt lat="44.00209" lon="4.60378">
        <ele>164.8</ele>
        <time>2019-07-10T07:46:08Z</time>
      </trkpt>
      <trkpt lat="44.00216" lon="4.60371">
        <ele>164.8</ele>
        <time>2019-07-10T07:46:10Z</time>
      </trkpt>
      <trkpt lat="44.00243" lon="4.60345">
        <ele>164.4</ele>
        <time>2019-07-10T07:46:17Z</time>
      </trkpt>
      <trkpt lat="44.0025" lon="4.60338">
        <ele>164.4</ele>
        <time>2019-07-10T07:46:19Z</time>
      </trkpt>
      <trkpt lat="44.00254" lon="4.60334">
        <ele>164.4</ele>
        <time>2019-07-10T07:46:20Z</time>
      </trkpt>
      <trkpt lat="44.00257" lon="4.6033">
        <ele>164.6</ele>
        <time>2019-07-10T07:46:21Z</time>
      </trkpt>
      <trkpt lat="44.00261" lon="4.60327">
        <ele>164.6</ele>
        <time>2019-07-10T07:46:22Z</time>
      </trkpt>
      <trkpt lat="44.00279" lon="4.60309">
        <ele>164.4</ele>
        <time>2019-07-10T07:46:27Z</time>
      </trkpt>
      <trkpt lat="44.0029" lon="4.60298">
        <ele>164.4</ele>
        <time>2019-07-10T07:46:30Z</time>
      </trkpt>
      <trkpt lat="44.00307" lon="4.60281">
        <ele>164.4</ele>
        <time>2019-07-10T07:46:35Z</time>
      </trkpt>
      <trkpt lat="44.0031" lon="4.60278">
        <ele>164.2</ele>
        <time>2019-07-10T07:46:36Z</time>
      </trkpt>
      <trkpt lat="44.00314" lon="4.60275">
        <ele>164.2</ele>
        <time>2019-07-10T07:46:37Z</time>
      </trkpt>
      <trkpt lat="44.00317" lon="4.60272">
        <ele>164.4</ele>
        <time>2019-07-10T07:46:38Z</time>
      </trkpt>
      <trkpt lat="44.00321" lon="4.60269">
        <ele>164.2</ele>
        <time>2019-07-10T07:46:39Z</time>
      </trkpt>
      <trkpt lat="44.00325" lon="4.60266">
        <ele>164.2</ele>
        <time>2019-07-10T07:46:40Z</time>
      </trkpt>
      <trkpt lat="44.00349" lon="4.60247">
        <ele>163</ele>
        <time>2019-07-10T07:46:46Z</time>
      </trkpt>
      <trkpt lat="44.00353" lon="4.60244">
        <ele>163</ele>
        <time>2019-07-10T07:46:47Z</time>
      </trkpt>
      <trkpt lat="44.00357" lon="4.60242">
        <ele>162.8</ele>
        <time>2019-07-10T07:46:48Z</time>
      </trkpt>
      <trkpt lat="44.00368" lon="4.60233">
        <ele>162.8</ele>
        <time>2019-07-10T07:46:51Z</time>
      </trkpt>
      <trkpt lat="44.00372" lon="4.60231">
        <ele>162.6</ele>
        <time>2019-07-10T07:46:52Z</time>
      </trkpt>
      <trkpt lat="44.00382" lon="4.60222">
        <ele>162.4</ele>
        <time>2019-07-10T07:46:55Z</time>
      </trkpt>
      <trkpt lat="44.00385" lon="4.60219">
        <ele>162.4</ele>
        <time>2019-07-10T07:46:56Z</time>
      </trkpt>
      <trkpt lat="44.00412" lon="4.60198">
        <ele>162</ele>
        <time>2019-07-10T07:47:04Z</time>
      </trkpt>
      <trkpt lat="44.00415" lon="4.60195">
        <ele>162</ele>
        <time>2019-07-10T07:47:05Z</time>
      </trkpt>
      <trkpt lat="44.00421" lon="4.60191">
        <ele>162.2</ele>
        <time>2019-07-10T07:47:07Z</time>
      </trkpt>
      <trkpt lat="44.00426" lon="4.60187">
        <ele>162.2</ele>
        <time>2019-07-10T07:47:09Z</time>
      </trkpt>
      <trkpt lat="44.00429" lon="4.60185">
        <ele>162.6</ele>
        <time>2019-07-10T07:47:10Z</time>
      </trkpt>
      <trkpt lat="44.00436" lon="4.6018">
        <ele>162.8</ele>
        <time>2019-07-10T07:47:12Z</time>
      </trkpt>
      <trkpt lat="44.00439" lon="4.60177">
        <ele>163</ele>
        <time>2019-07-10T07:47:13Z</time>
      </trkpt>
      <trkpt lat="44.0045" lon="4.60168">
        <ele>163.2</ele>
        <time>2019-07-10T07:47:17Z</time>
      </trkpt>
      <trkpt lat="44.00459" lon="4.60161">
        <ele>163.6</ele>
        <time>2019-07-10T07:47:20Z</time>
      </trkpt>
      <trkpt lat="44.00462" lon="4.60159">
        <ele>163.8</ele>
        <time>2019-07-10T07:47:21Z</time>
      </trkpt>
      <trkpt lat="44.00465" lon="4.60156">
        <ele>164.2</ele>
        <time>2019-07-10T07:47:22Z</time>
      </trkpt>
      <trkpt lat="44.00471" lon="4.6015">
        <ele>164.2</ele>
        <time>2019-07-10T07:47:24Z</time>
      </trkpt>
      <trkpt lat="44.00485" lon="4.60133">
        <ele>165</ele>
        <time>2019-07-10T07:47:29Z</time>
      </trkpt>
      <trkpt lat="44.00487" lon="4.60129">
        <ele>165</ele>
        <time>2019-07-10T07:47:30Z</time>
      </trkpt>
      <trkpt lat="44.0049" lon="4.60125">
        <ele>165</ele>
        <time>2019-07-10T07:47:31Z</time>
      </trkpt>
      <trkpt lat="44.005" lon="4.60099">
        <ele>165.2</ele>
        <time>2019-07-10T07:47:36Z</time>
      </trkpt>
      <trkpt lat="44.00502" lon="4.60094">
        <ele>165.2</ele>
        <time>2019-07-10T07:47:37Z</time>
      </trkpt>
      <trkpt lat="44.00511" lon="4.6007">
        <ele>164.8</ele>
        <time>2019-07-10T07:47:41Z</time>
      </trkpt>
      <trkpt lat="44.00515" lon="4.60057">
        <ele>164.4</ele>
        <time>2019-07-10T07:47:43Z</time>
      </trkpt>
      <trkpt lat="44.00524" lon="4.60033">
        <ele>164.2</ele>
        <time>2019-07-10T07:47:47Z</time>
      </trkpt>
      <trkpt lat="44.00527" lon="4.60027">
        <ele>164.2</ele>
        <time>2019-07-10T07:47:48Z</time>
      </trkpt>
      <trkpt lat="44.00529" lon="4.6002">
        <ele>164.2</ele>
        <time>2019-07-10T07:47:49Z</time>
      </trkpt>
      <trkpt lat="44.00531" lon="4.60014">
        <ele>164.2</ele>
        <time>2019-07-10T07:47:50Z</time>
      </trkpt>
      <trkpt lat="44.00533" lon="4.60007">
        <ele>164</ele>
        <time>2019-07-10T07:47:51Z</time>
      </trkpt>
      <trkpt lat="44.00556" lon="4.59946">
        <ele>163.6</ele>
        <time>2019-07-10T07:48:00Z</time>
      </trkpt>
      <trkpt lat="44.00558" lon="4.59939">
        <ele>163.4</ele>
        <time>2019-07-10T07:48:01Z</time>
      </trkpt>
      <trkpt lat="44.00561" lon="4.59932">
        <ele>163.2</ele>
        <time>2019-07-10T07:48:02Z</time>
      </trkpt>
      <trkpt lat="44.00563" lon="4.59925">
        <ele>162.8</ele>
        <time>2019-07-10T07:48:03Z</time>
      </trkpt>
      <trkpt lat="44.00566" lon="4.59918">
        <ele>162.6</ele>
        <time>2019-07-10T07:48:04Z</time>
      </trkpt>
      <trkpt lat="44.00569" lon="4.59911">
        <ele>162</ele>
        <time>2019-07-10T07:48:05Z</time>
      </trkpt>
      <trkpt lat="44.00573" lon="4.59905">
        <ele>161.8</ele>
        <time>2019-07-10T07:48:06Z</time>
      </trkpt>
      <trkpt lat="44.00578" lon="4.599">
        <ele>161.6</ele>
        <time>2019-07-10T07:48:07Z</time>
      </trkpt>
      <trkpt lat="44.00582" lon="4.59895">
        <ele>161.6</ele>
        <time>2019-07-10T07:48:08Z</time>
      </trkpt>
      <trkpt lat="44.006" lon="4.59877">
        <ele>160.8</ele>
        <time>2019-07-10T07:48:12Z</time>
      </trkpt>
      <trkpt lat="44.00609" lon="4.59868">
        <ele>160.4</ele>
        <time>2019-07-10T07:48:14Z</time>
      </trkpt>
      <trkpt lat="44.00614" lon="4.59864">
        <ele>160.4</ele>
        <time>2019-07-10T07:48:15Z</time>
      </trkpt>
      <trkpt lat="44.00619" lon="4.59859">
        <ele>160.2</ele>
        <time>2019-07-10T07:48:16Z</time>
      </trkpt>
      <trkpt lat="44.00629" lon="4.59848">
        <ele>159.8</ele>
        <time>2019-07-10T07:48:18Z</time>
      </trkpt>
      <trkpt lat="44.00635" lon="4.59843">
        <ele>159.4</ele>
        <time>2019-07-10T07:48:19Z</time>
      </trkpt>
      <trkpt lat="44.0064" lon="4.59838">
        <ele>158.6</ele>
        <time>2019-07-10T07:48:20Z</time>
      </trkpt>
      <trkpt lat="44.00646" lon="4.59833">
        <ele>158.2</ele>
        <time>2019-07-10T07:48:21Z</time>
      </trkpt>
      <trkpt lat="44.00663" lon="4.59816">
        <ele>157.8</ele>
        <time>2019-07-10T07:48:24Z</time>
      </trkpt>
      <trkpt lat="44.00675" lon="4.59804">
        <ele>156.2</ele>
        <time>2019-07-10T07:48:26Z</time>
      </trkpt>
      <trkpt lat="44.00706" lon="4.59773">
        <ele>154.4</ele>
        <time>2019-07-10T07:48:31Z</time>
      </trkpt>
      <trkpt lat="44.00724" lon="4.59754">
        <ele>153</ele>
        <time>2019-07-10T07:48:34Z</time>
      </trkpt>
      <trkpt lat="44.00737" lon="4.59741">
        <ele>152.2</ele>
        <time>2019-07-10T07:48:36Z</time>
      </trkpt>
      <trkpt lat="44.00743" lon="4.59734">
        <ele>152</ele>
        <time>2019-07-10T07:48:37Z</time>
      </trkpt>
      <trkpt lat="44.00748" lon="4.59726">
        <ele>150.8</ele>
        <time>2019-07-10T07:48:38Z</time>
      </trkpt>
      <trkpt lat="44.00752" lon="4.59718">
        <ele>150.2</ele>
        <time>2019-07-10T07:48:39Z</time>
      </trkpt>
      <trkpt lat="44.00757" lon="4.5971">
        <ele>149.4</ele>
        <time>2019-07-10T07:48:40Z</time>
      </trkpt>
      <trkpt lat="44.00761" lon="4.59701">
        <ele>148.8</ele>
        <time>2019-07-10T07:48:41Z</time>
      </trkpt>
      <trkpt lat="44.00765" lon="4.59691">
        <ele>148.4</ele>
        <time>2019-07-10T07:48:42Z</time>
      </trkpt>
      <trkpt lat="44.00768" lon="4.59681">
        <ele>147.4</ele>
        <time>2019-07-10T07:48:43Z</time>
      </trkpt>
      <trkpt lat="44.00769" lon="4.5967">
        <ele>147.2</ele>
        <time>2019-07-10T07:48:44Z</time>
      </trkpt>
      <trkpt lat="44.0077" lon="4.59659">
        <ele>146.8</ele>
        <time>2019-07-10T07:48:45Z</time>
      </trkpt>
      <trkpt lat="44.0077" lon="4.59648">
        <ele>146.6</ele>
        <time>2019-07-10T07:48:46Z</time>
      </trkpt>
      <trkpt lat="44.00766" lon="4.59616">
        <ele>146</ele>
        <time>2019-07-10T07:48:49Z</time>
      </trkpt>
      <trkpt lat="44.00765" lon="4.59605">
        <ele>146</ele>
        <time>2019-07-10T07:48:50Z</time>
      </trkpt>
      <trkpt lat="44.00764" lon="4.59595">
        <ele>145.8</ele>
        <time>2019-07-10T07:48:51Z</time>
      </trkpt>
      <trkpt lat="44.00763" lon="4.59584">
        <ele>145.8</ele>
        <time>2019-07-10T07:48:52Z</time>
      </trkpt>
      <trkpt lat="44.00762" lon="4.59574">
        <ele>145.4</ele>
        <time>2019-07-10T07:48:53Z</time>
      </trkpt>
      <trkpt lat="44.0076" lon="4.59554">
        <ele>145</ele>
        <time>2019-07-10T07:48:55Z</time>
      </trkpt>
      <trkpt lat="44.00759" lon="4.59544">
        <ele>144.6</ele>
        <time>2019-07-10T07:48:56Z</time>
      </trkpt>
      <trkpt lat="44.00756" lon="4.59516">
        <ele>144.2</ele>
        <time>2019-07-10T07:48:59Z</time>
      </trkpt>
      <trkpt lat="44.00754" lon="4.59498">
        <ele>144</ele>
        <time>2019-07-10T07:49:01Z</time>
      </trkpt>
      <trkpt lat="44.00753" lon="4.59489">
        <ele>143.8</ele>
        <time>2019-07-10T07:49:02Z</time>
      </trkpt>
      <trkpt lat="44.00751" lon="4.59464">
        <ele>142.6</ele>
        <time>2019-07-10T07:49:05Z</time>
      </trkpt>
      <trkpt lat="44.0075" lon="4.59456">
        <ele>142.4</ele>
        <time>2019-07-10T07:49:06Z</time>
      </trkpt>
      <trkpt lat="44.00749" lon="4.59448">
        <ele>142.2</ele>
        <time>2019-07-10T07:49:07Z</time>
      </trkpt>
      <trkpt lat="44.00743" lon="4.59392">
        <ele>139.8</ele>
        <time>2019-07-10T07:49:14Z</time>
      </trkpt>
      <trkpt lat="44.00743" lon="4.59384">
        <ele>139.4</ele>
        <time>2019-07-10T07:49:15Z</time>
      </trkpt>
      <trkpt lat="44.00742" lon="4.59376">
        <ele>139</ele>
        <time>2019-07-10T07:49:16Z</time>
      </trkpt>
      <trkpt lat="44.00741" lon="4.59368">
        <ele>139</ele>
        <time>2019-07-10T07:49:17Z</time>
      </trkpt>
      <trkpt lat="44.0074" lon="4.59361">
        <ele>138.8</ele>
        <time>2019-07-10T07:49:18Z</time>
      </trkpt>
      <trkpt lat="44.00738" lon="4.59338">
        <ele>138.4</ele>
        <time>2019-07-10T07:49:21Z</time>
      </trkpt>
      <trkpt lat="44.00737" lon="4.59331">
        <ele>138.2</ele>
        <time>2019-07-10T07:49:22Z</time>
      </trkpt>
      <trkpt lat="44.00735" lon="4.59317">
        <ele>138.2</ele>
        <time>2019-07-10T07:49:24Z</time>
      </trkpt>
      <trkpt lat="44.00731" lon="4.59304">
        <ele>138</ele>
        <time>2019-07-10T07:49:26Z</time>
      </trkpt>
      <trkpt lat="44.00729" lon="4.59297">
        <ele>137.8</ele>
        <time>2019-07-10T07:49:27Z</time>
      </trkpt>
      <trkpt lat="44.00725" lon="4.59292">
        <ele>137.8</ele>
        <time>2019-07-10T07:49:28Z</time>
      </trkpt>
      <trkpt lat="44.00713" lon="4.59276">
        <ele>137.6</ele>
        <time>2019-07-10T07:49:31Z</time>
      </trkpt>
      <trkpt lat="44.00708" lon="4.59272">
        <ele>137.6</ele>
        <time>2019-07-10T07:49:32Z</time>
      </trkpt>
      <trkpt lat="44.00695" lon="4.5926">
        <ele>137</ele>
        <time>2019-07-10T07:49:35Z</time>
      </trkpt>
      <trkpt lat="44.00687" lon="4.59252">
        <ele>136.8</ele>
        <time>2019-07-10T07:49:37Z</time>
      </trkpt>
      <trkpt lat="44.00679" lon="4.59245">
        <ele>136.6</ele>
        <time>2019-07-10T07:49:39Z</time>
      </trkpt>
      <trkpt lat="44.00662" lon="4.5923">
        <ele>136.2</ele>
        <time>2019-07-10T07:49:43Z</time>
      </trkpt>
      <trkpt lat="44.00658" lon="4.59226">
        <ele>136.2</ele>
        <time>2019-07-10T07:49:44Z</time>
      </trkpt>
      <trkpt lat="44.00653" lon="4.59222">
        <ele>136.2</ele>
        <time>2019-07-10T07:49:45Z</time>
      </trkpt>
      <trkpt lat="44.00649" lon="4.59218">
        <ele>136.2</ele>
        <time>2019-07-10T07:49:46Z</time>
      </trkpt>
      <trkpt lat="44.00644" lon="4.59214">
        <ele>136.2</ele>
        <time>2019-07-10T07:49:47Z</time>
      </trkpt>
      <trkpt lat="44.00627" lon="4.59194">
        <ele>136.2</ele>
        <time>2019-07-10T07:49:51Z</time>
      </trkpt>
      <trkpt lat="44.00624" lon="4.5919">
        <ele>136.4</ele>
        <time>2019-07-10T07:49:52Z</time>
      </trkpt>
      <trkpt lat="44.00617" lon="4.5918">
        <ele>136.4</ele>
        <time>2019-07-10T07:49:54Z</time>
      </trkpt>
      <trkpt lat="44.00613" lon="4.59175">
        <ele>136.4</ele>
        <time>2019-07-10T07:49:55Z</time>
      </trkpt>
      <trkpt lat="44.00609" lon="4.59169">
        <ele>136.4</ele>
        <time>2019-07-10T07:49:56Z</time>
      </trkpt>
      <trkpt lat="44.00606" lon="4.59165">
        <ele>136.6</ele>
        <time>2019-07-10T07:49:57Z</time>
      </trkpt>
      <trkpt lat="44.00598" lon="4.59154">
        <ele>136.4</ele>
        <time>2019-07-10T07:49:59Z</time>
      </trkpt>
      <trkpt lat="44.0059" lon="4.59142">
        <ele>136.2</ele>
        <time>2019-07-10T07:50:01Z</time>
      </trkpt>
      <trkpt lat="44.0057" lon="4.59107">
        <ele>135.8</ele>
        <time>2019-07-10T07:50:06Z</time>
      </trkpt>
      <trkpt lat="44.00565" lon="4.59098">
        <ele>135.6</ele>
        <time>2019-07-10T07:50:07Z</time>
      </trkpt>
      <trkpt lat="44.00561" lon="4.5909">
        <ele>135.2</ele>
        <time>2019-07-10T07:50:08Z</time>
      </trkpt>
      <trkpt lat="44.00542" lon="4.59051">
        <ele>133.8</ele>
        <time>2019-07-10T07:50:12Z</time>
      </trkpt>
      <trkpt lat="44.00538" lon="4.59041">
        <ele>133.4</ele>
        <time>2019-07-10T07:50:13Z</time>
      </trkpt>
      <trkpt lat="44.00532" lon="4.5902">
        <ele>132.6</ele>
        <time>2019-07-10T07:50:15Z</time>
      </trkpt>
      <trkpt lat="44.0053" lon="4.5901">
        <ele>132</ele>
        <time>2019-07-10T07:50:16Z</time>
      </trkpt>
      <trkpt lat="44.0053" lon="4.58999">
        <ele>131.8</ele>
        <time>2019-07-10T07:50:17Z</time>
      </trkpt>
      <trkpt lat="44.0053" lon="4.58989">
        <ele>131.4</ele>
        <time>2019-07-10T07:50:18Z</time>
      </trkpt>
      <trkpt lat="44.0053" lon="4.58979">
        <ele>131.4</ele>
        <time>2019-07-10T07:50:19Z</time>
      </trkpt>
      <trkpt lat="44.00531" lon="4.5897">
        <ele>131.4</ele>
        <time>2019-07-10T07:50:20Z</time>
      </trkpt>
      <trkpt lat="44.00534" lon="4.58943">
        <ele>130.8</ele>
        <time>2019-07-10T07:50:23Z</time>
      </trkpt>
      <trkpt lat="44.00535" lon="4.58927">
        <ele>130.4</ele>
        <time>2019-07-10T07:50:25Z</time>
      </trkpt>
      <trkpt lat="44.00535" lon="4.58918">
        <ele>130</ele>
        <time>2019-07-10T07:50:26Z</time>
      </trkpt>
      <trkpt lat="44.00539" lon="4.58871">
        <ele>129</ele>
        <time>2019-07-10T07:50:32Z</time>
      </trkpt>
      <trkpt lat="44.0054" lon="4.58863">
        <ele>129</ele>
        <time>2019-07-10T07:50:33Z</time>
      </trkpt>
      <trkpt lat="44.0054" lon="4.58855">
        <ele>129.2</ele>
        <time>2019-07-10T07:50:34Z</time>
      </trkpt>
      <trkpt lat="44.00545" lon="4.58807">
        <ele>129</ele>
        <time>2019-07-10T07:50:40Z</time>
      </trkpt>
      <trkpt lat="44.00546" lon="4.58798">
        <ele>128.8</ele>
        <time>2019-07-10T07:50:41Z</time>
      </trkpt>
      <trkpt lat="44.00547" lon="4.5879">
        <ele>128.8</ele>
        <time>2019-07-10T07:50:42Z</time>
      </trkpt>
      <trkpt lat="44.00557" lon="4.58728">
        <ele>128.4</ele>
        <time>2019-07-10T07:50:49Z</time>
      </trkpt>
      <trkpt lat="44.00559" lon="4.5872">
        <ele>128.4</ele>
        <time>2019-07-10T07:50:50Z</time>
      </trkpt>
      <trkpt lat="44.0056" lon="4.58711">
        <ele>128.4</ele>
        <time>2019-07-10T07:50:51Z</time>
      </trkpt>
      <trkpt lat="44.00565" lon="4.58686">
        <ele>128</ele>
        <time>2019-07-10T07:50:54Z</time>
      </trkpt>
      <trkpt lat="44.00567" lon="4.58671">
        <ele>127.6</ele>
        <time>2019-07-10T07:50:56Z</time>
      </trkpt>
      <trkpt lat="44.00569" lon="4.58663">
        <ele>127.6</ele>
        <time>2019-07-10T07:50:57Z</time>
      </trkpt>
      <trkpt lat="44.00571" lon="4.58649">
        <ele>127.8</ele>
        <time>2019-07-10T07:50:59Z</time>
      </trkpt>
      <trkpt lat="44.00574" lon="4.58635">
        <ele>127.6</ele>
        <time>2019-07-10T07:51:01Z</time>
      </trkpt>
      <trkpt lat="44.00575" lon="4.58627">
        <ele>127.6</ele>
        <time>2019-07-10T07:51:02Z</time>
      </trkpt>
      <trkpt lat="44.00582" lon="4.58583">
        <ele>127.2</ele>
        <time>2019-07-10T07:51:08Z</time>
      </trkpt>
      <trkpt lat="44.00584" lon="4.58575">
        <ele>127</ele>
        <time>2019-07-10T07:51:09Z</time>
      </trkpt>
      <trkpt lat="44.00585" lon="4.58567">
        <ele>127</ele>
        <time>2019-07-10T07:51:10Z</time>
      </trkpt>
      <trkpt lat="44.00587" lon="4.5856">
        <ele>127</ele>
        <time>2019-07-10T07:51:11Z</time>
      </trkpt>
      <trkpt lat="44.00588" lon="4.58552">
        <ele>126.8</ele>
        <time>2019-07-10T07:51:12Z</time>
      </trkpt>
      <trkpt lat="44.00589" lon="4.58545">
        <ele>126.8</ele>
        <time>2019-07-10T07:51:13Z</time>
      </trkpt>
      <trkpt lat="44.0059" lon="4.58537">
        <ele>126.4</ele>
        <time>2019-07-10T07:51:14Z</time>
      </trkpt>
      <trkpt lat="44.00592" lon="4.58522">
        <ele>126.2</ele>
        <time>2019-07-10T07:51:16Z</time>
      </trkpt>
      <trkpt lat="44.00593" lon="4.58514">
        <ele>126.2</ele>
        <time>2019-07-10T07:51:17Z</time>
      </trkpt>
      <trkpt lat="44.00596" lon="4.58499">
        <ele>126</ele>
        <time>2019-07-10T07:51:19Z</time>
      </trkpt>
      <trkpt lat="44.00597" lon="4.58492">
        <ele>126</ele>
        <time>2019-07-10T07:51:20Z</time>
      </trkpt>
      <trkpt lat="44.00599" lon="4.58484">
        <ele>125.8</ele>
        <time>2019-07-10T07:51:21Z</time>
      </trkpt>
      <trkpt lat="44.006" lon="4.58476">
        <ele>125.8</ele>
        <time>2019-07-10T07:51:22Z</time>
      </trkpt>
      <trkpt lat="44.00602" lon="4.58469">
        <ele>125.6</ele>
        <time>2019-07-10T07:51:23Z</time>
      </trkpt>
      <trkpt lat="44.00603" lon="4.58461">
        <ele>125.4</ele>
        <time>2019-07-10T07:51:24Z</time>
      </trkpt>
      <trkpt lat="44.00604" lon="4.58454">
        <ele>125.4</ele>
        <time>2019-07-10T07:51:25Z</time>
      </trkpt>
      <trkpt lat="44.00606" lon="4.58447">
        <ele>125.4</ele>
        <time>2019-07-10T07:51:26Z</time>
      </trkpt>
      <trkpt lat="44.00607" lon="4.5844">
        <ele>125.2</ele>
        <time>2019-07-10T07:51:27Z</time>
      </trkpt>
      <trkpt lat="44.00611" lon="4.58413">
        <ele>125</ele>
        <time>2019-07-10T07:51:31Z</time>
      </trkpt>
      <trkpt lat="44.00612" lon="4.58406">
        <ele>124.6</ele>
        <time>2019-07-10T07:51:32Z</time>
      </trkpt>
      <trkpt lat="44.00614" lon="4.58398">
        <ele>124.8</ele>
        <time>2019-07-10T07:51:33Z</time>
      </trkpt>
      <trkpt lat="44.00616" lon="4.58386">
        <ele>124.6</ele>
        <time>2019-07-10T07:51:35Z</time>
      </trkpt>
      <trkpt lat="44.00619" lon="4.58368">
        <ele>124.6</ele>
        <time>2019-07-10T07:51:38Z</time>
      </trkpt>
      <trkpt lat="44.0062" lon="4.58362">
        <ele>124.8</ele>
        <time>2019-07-10T07:51:39Z</time>
      </trkpt>
      <trkpt lat="44.0062" lon="4.58358">
        <ele>125</ele>
        <time>2019-07-10T07:51:40Z</time>
      </trkpt>
      <trkpt lat="44.00622" lon="4.58351">
        <ele>125.2</ele>
        <time>2019-07-10T07:51:41Z</time>
      </trkpt>
      <trkpt lat="44.00624" lon="4.58338">
        <ele>125.4</ele>
        <time>2019-07-10T07:51:43Z</time>
      </trkpt>
      <trkpt lat="44.00635" lon="4.58294">
        <ele>125.4</ele>
        <time>2019-07-10T07:51:50Z</time>
      </trkpt>
      <trkpt lat="44.00637" lon="4.58284">
        <ele>125.2</ele>
        <time>2019-07-10T07:51:52Z</time>
      </trkpt>
      <trkpt lat="44.00639" lon="4.58279">
        <ele>124.6</ele>
        <time>2019-07-10T07:51:54Z</time>
      </trkpt>
      <trkpt lat="44.00641" lon="4.5826">
        <ele>123.2</ele>
        <time>2019-07-10T07:51:59Z</time>
      </trkpt>
      <trkpt lat="44.00643" lon="4.58249">
        <ele>123</ele>
        <time>2019-07-10T07:52:01Z</time>
      </trkpt>
      <trkpt lat="44.00643" lon="4.58243">
        <ele>122.8</ele>
        <time>2019-07-10T07:52:02Z</time>
      </trkpt>
      <trkpt lat="44.00644" lon="4.58231">
        <ele>122.6</ele>
        <time>2019-07-10T07:52:04Z</time>
      </trkpt>
      <trkpt lat="44.00644" lon="4.58211">
        <ele>121.8</ele>
        <time>2019-07-10T07:52:07Z</time>
      </trkpt>
      <trkpt lat="44.00645" lon="4.58206">
        <ele>121.4</ele>
        <time>2019-07-10T07:52:08Z</time>
      </trkpt>
      <trkpt lat="44.00645" lon="4.58184">
        <ele>121.4</ele>
        <time>2019-07-10T07:52:11Z</time>
      </trkpt>
      <trkpt lat="44.00645" lon="4.58135">
        <ele>120.6</ele>
        <time>2019-07-10T07:52:18Z</time>
      </trkpt>
      <trkpt lat="44.00646" lon="4.5807">
        <ele>121.4</ele>
        <time>2019-07-10T07:52:27Z</time>
      </trkpt>
      <trkpt lat="44.00642" lon="4.58017">
        <ele>121.6</ele>
        <time>2019-07-10T07:52:35Z</time>
      </trkpt>
      <trkpt lat="44.00634" lon="4.57987">
        <ele>121.2</ele>
        <time>2019-07-10T07:52:41Z</time>
      </trkpt>
      <trkpt lat="44.00626" lon="4.57961">
        <ele>121.4</ele>
        <time>2019-07-10T07:52:48Z</time>
      </trkpt>
      <trkpt lat="44.00623" lon="4.57958">
        <ele>121.6</ele>
        <time>2019-07-10T07:52:52Z</time>
      </trkpt>
      <trkpt lat="44.00626" lon="4.57956">
        <ele>121.2</ele>
        <time>2019-07-10T07:53:05Z</time>
      </trkpt>
      <trkpt lat="44.00627" lon="4.57961">
        <ele>121.6</ele>
        <time>2019-07-10T07:53:07Z</time>
      </trkpt>
      <trkpt lat="44.00627" lon="4.57963">
        <ele>121.8</ele>
        <time>2019-07-10T07:53:08Z</time>
      </trkpt>
      <trkpt lat="44.00627" lon="4.57966">
        <ele>121.8</ele>
        <time>2019-07-10T07:53:10Z</time>
      </trkpt>
      <trkpt lat="44.00627" lon="4.57968">
        <ele>121.8</ele>
        <time>2019-07-10T07:53:11Z</time>
      </trkpt>
      <trkpt lat="44.00628" lon="4.57974">
        <ele>122</ele>
        <time>2019-07-10T07:53:13Z</time>
      </trkpt>
      <trkpt lat="44.00629" lon="4.57977">
        <ele>121.8</ele>
        <time>2019-07-10T07:53:14Z</time>
      </trkpt>
      <trkpt lat="44.0063" lon="4.57981">
        <ele>121.8</ele>
        <time>2019-07-10T07:53:15Z</time>
      </trkpt>
      <trkpt lat="44.00638" lon="4.58007">
        <ele>121.4</ele>
        <time>2019-07-10T07:53:21Z</time>
      </trkpt>
      <trkpt lat="44.00643" lon="4.58047">
        <ele>121.4</ele>
        <time>2019-07-10T07:53:29Z</time>
      </trkpt>
      <trkpt lat="44.00643" lon="4.58079">
        <ele>121.6</ele>
        <time>2019-07-10T07:53:35Z</time>
      </trkpt>
      <trkpt lat="44.00643" lon="4.58086">
        <ele>121.6</ele>
        <time>2019-07-10T07:53:36Z</time>
      </trkpt>
      <trkpt lat="44.00643" lon="4.58103">
        <ele>121.4</ele>
        <time>2019-07-10T07:53:39Z</time>
      </trkpt>
      <trkpt lat="44.00643" lon="4.5812">
        <ele>121.6</ele>
        <time>2019-07-10T07:53:42Z</time>
      </trkpt>
      <trkpt lat="44.00643" lon="4.58126">
        <ele>121.6</ele>
        <time>2019-07-10T07:53:43Z</time>
      </trkpt>
      <trkpt lat="44.00642" lon="4.58156">
        <ele>121</ele>
        <time>2019-07-10T07:53:48Z</time>
      </trkpt>
      <trkpt lat="44.00642" lon="4.58173">
        <ele>121</ele>
        <time>2019-07-10T07:53:51Z</time>
      </trkpt>
      <trkpt lat="44.00643" lon="4.58179">
        <ele>120.8</ele>
        <time>2019-07-10T07:53:52Z</time>
      </trkpt>
      <trkpt lat="44.00643" lon="4.58183">
        <ele>120.8</ele>
        <time>2019-07-10T07:53:53Z</time>
      </trkpt>
      <trkpt lat="44.00642" lon="4.58189">
        <ele>120.6</ele>
        <time>2019-07-10T07:53:54Z</time>
      </trkpt>
      <trkpt lat="44.00642" lon="4.58196">
        <ele>120.6</ele>
        <time>2019-07-10T07:53:55Z</time>
      </trkpt>
      <trkpt lat="44.00642" lon="4.58201">
        <ele>120.6</ele>
        <time>2019-07-10T07:53:56Z</time>
      </trkpt>
      <trkpt lat="44.00642" lon="4.58206">
        <ele>120.4</ele>
        <time>2019-07-10T07:53:57Z</time>
      </trkpt>
      <trkpt lat="44.00641" lon="4.58217">
        <ele>120.2</ele>
        <time>2019-07-10T07:53:59Z</time>
      </trkpt>
      <trkpt lat="44.00641" lon="4.58226">
        <ele>120</ele>
        <time>2019-07-10T07:54:01Z</time>
      </trkpt>
      <trkpt lat="44.00646" lon="4.58238">
        <ele>120</ele>
        <time>2019-07-10T07:54:05Z</time>
      </trkpt>
      <trkpt lat="44.00648" lon="4.58239">
        <ele>120.2</ele>
        <time>2019-07-10T07:54:06Z</time>
      </trkpt>
      <trkpt lat="44.00655" lon="4.58234">
        <ele>120</ele>
        <time>2019-07-10T07:54:09Z</time>
      </trkpt>
      <trkpt lat="44.00662" lon="4.58227">
        <ele>120</ele>
        <time>2019-07-10T07:54:15Z</time>
      </trkpt>
      <trkpt lat="44.00664" lon="4.58222">
        <ele>120.6</ele>
        <time>2019-07-10T07:54:21Z</time>
      </trkpt>
      <trkpt lat="44.00669" lon="4.58217">
        <ele>120.8</ele>
        <time>2019-07-10T07:54:24Z</time>
      </trkpt>
      <trkpt lat="44.0068" lon="4.58205">
        <ele>121.4</ele>
        <time>2019-07-10T07:54:29Z</time>
      </trkpt>
      <trkpt lat="44.00683" lon="4.58203">
        <ele>121.4</ele>
        <time>2019-07-10T07:54:30Z</time>
      </trkpt>
      <trkpt lat="44.00702" lon="4.58188">
        <ele>122.6</ele>
        <time>2019-07-10T07:54:38Z</time>
      </trkpt>
      <trkpt lat="44.00704" lon="4.58186">
        <ele>122.8</ele>
        <time>2019-07-10T07:54:39Z</time>
      </trkpt>
      <trkpt lat="44.00714" lon="4.58179">
        <ele>123.4</ele>
        <time>2019-07-10T07:54:43Z</time>
      </trkpt>
      <trkpt lat="44.00718" lon="4.58178">
        <ele>123.6</ele>
        <time>2019-07-10T07:54:45Z</time>
      </trkpt>
      <trkpt lat="44.00727" lon="4.58179">
        <ele>124.4</ele>
        <time>2019-07-10T07:54:49Z</time>
      </trkpt>
      <trkpt lat="44.00736" lon="4.58182">
        <ele>125.6</ele>
        <time>2019-07-10T07:54:53Z</time>
      </trkpt>
      <trkpt lat="44.00744" lon="4.58183">
        <ele>126.4</ele>
        <time>2019-07-10T07:54:57Z</time>
      </trkpt>
      <trkpt lat="44.0075" lon="4.58185">
        <ele>127</ele>
        <time>2019-07-10T07:55:00Z</time>
      </trkpt>
      <trkpt lat="44.00756" lon="4.58186">
        <ele>127.8</ele>
        <time>2019-07-10T07:55:03Z</time>
      </trkpt>
      <trkpt lat="44.00764" lon="4.58186">
        <ele>129</ele>
        <time>2019-07-10T07:55:07Z</time>
      </trkpt>
      <trkpt lat="44.00769" lon="4.58186">
        <ele>129.6</ele>
        <time>2019-07-10T07:55:10Z</time>
      </trkpt>
      <trkpt lat="44.00775" lon="4.58186">
        <ele>130</ele>
        <time>2019-07-10T07:55:13Z</time>
      </trkpt>
      <trkpt lat="44.00781" lon="4.58186">
        <ele>130.6</ele>
        <time>2019-07-10T07:55:16Z</time>
      </trkpt>
      <trkpt lat="44.00783" lon="4.58187">
        <ele>130.8</ele>
        <time>2019-07-10T07:55:17Z</time>
      </trkpt>
      <trkpt lat="44.00787" lon="4.58188">
        <ele>131.6</ele>
        <time>2019-07-10T07:55:19Z</time>
      </trkpt>
      <trkpt lat="44.00795" lon="4.58185">
        <ele>133</ele>
        <time>2019-07-10T07:55:23Z</time>
      </trkpt>
      <trkpt lat="44.00798" lon="4.5818">
        <ele>133.4</ele>
        <time>2019-07-10T07:55:27Z</time>
      </trkpt>
      <trkpt lat="44.00798" lon="4.58182">
        <ele>134.6</ele>
        <time>2019-07-10T07:56:56Z</time>
      </trkpt>
      <trkpt lat="44.00803" lon="4.58174">
        <ele>134.6</ele>
        <time>2019-07-10T07:56:59Z</time>
      </trkpt>
      <trkpt lat="44.00804" lon="4.58171">
        <ele>134.8</ele>
        <time>2019-07-10T07:57:00Z</time>
      </trkpt>
      <trkpt lat="44.00813" lon="4.58153">
        <ele>135</ele>
        <time>2019-07-10T07:57:06Z</time>
      </trkpt>
      <trkpt lat="44.00819" lon="4.5814">
        <ele>135.6</ele>
        <time>2019-07-10T07:57:11Z</time>
      </trkpt>
      <trkpt lat="44.00822" lon="4.58135">
        <ele>135.8</ele>
        <time>2019-07-10T07:57:13Z</time>
      </trkpt>
      <trkpt lat="44.00827" lon="4.58126">
        <ele>136.2</ele>
        <time>2019-07-10T07:57:17Z</time>
      </trkpt>
      <trkpt lat="44.00834" lon="4.5811">
        <ele>137.8</ele>
        <time>2019-07-10T07:57:23Z</time>
      </trkpt>
      <trkpt lat="44.00836" lon="4.58093">
        <ele>138.6</ele>
        <time>2019-07-10T07:57:28Z</time>
      </trkpt>
      <trkpt lat="44.00834" lon="4.58076">
        <ele>138.8</ele>
        <time>2019-07-10T07:57:32Z</time>
      </trkpt>
      <trkpt lat="44.00831" lon="4.58062">
        <ele>138.8</ele>
        <time>2019-07-10T07:57:36Z</time>
      </trkpt>
      <trkpt lat="44.00831" lon="4.58059">
        <ele>139</ele>
        <time>2019-07-10T07:57:37Z</time>
      </trkpt>
      <trkpt lat="44.00832" lon="4.58049">
        <ele>140</ele>
        <time>2019-07-10T07:57:40Z</time>
      </trkpt>
      <trkpt lat="44.00833" lon="4.58047">
        <ele>140.2</ele>
        <time>2019-07-10T07:57:41Z</time>
      </trkpt>
      <trkpt lat="44.00842" lon="4.58036">
        <ele>140.8</ele>
        <time>2019-07-10T07:57:46Z</time>
      </trkpt>
      <trkpt lat="44.00857" lon="4.58016">
        <ele>142.8</ele>
        <time>2019-07-10T07:57:54Z</time>
      </trkpt>
      <trkpt lat="44.00866" lon="4.58015">
        <ele>142.6</ele>
        <time>2019-07-10T07:57:56Z</time>
      </trkpt>
      <trkpt lat="44.00871" lon="4.58017">
        <ele>142.8</ele>
        <time>2019-07-10T07:57:57Z</time>
      </trkpt>
      <trkpt lat="44.00877" lon="4.58018">
        <ele>142.8</ele>
        <time>2019-07-10T07:57:58Z</time>
      </trkpt>
      <trkpt lat="44.00882" lon="4.58021">
        <ele>142.6</ele>
        <time>2019-07-10T07:57:59Z</time>
      </trkpt>
      <trkpt lat="44.009" lon="4.58031">
        <ele>141.2</ele>
        <time>2019-07-10T07:58:02Z</time>
      </trkpt>
      <trkpt lat="44.00921" lon="4.58042">
        <ele>139.2</ele>
        <time>2019-07-10T07:58:05Z</time>
      </trkpt>
      <trkpt lat="44.00927" lon="4.58046">
        <ele>138.8</ele>
        <time>2019-07-10T07:58:06Z</time>
      </trkpt>
      <trkpt lat="44.00942" lon="4.58055">
        <ele>137.8</ele>
        <time>2019-07-10T07:58:08Z</time>
      </trkpt>
      <trkpt lat="44.0095" lon="4.58059">
        <ele>137.4</ele>
        <time>2019-07-10T07:58:09Z</time>
      </trkpt>
      <trkpt lat="44.00965" lon="4.58067">
        <ele>136.8</ele>
        <time>2019-07-10T07:58:11Z</time>
      </trkpt>
      <trkpt lat="44.00971" lon="4.5807">
        <ele>136.2</ele>
        <time>2019-07-10T07:58:12Z</time>
      </trkpt>
      <trkpt lat="44.00977" lon="4.58075">
        <ele>135.6</ele>
        <time>2019-07-10T07:58:13Z</time>
      </trkpt>
      <trkpt lat="44.00982" lon="4.58079">
        <ele>135.2</ele>
        <time>2019-07-10T07:58:14Z</time>
      </trkpt>
      <trkpt lat="44.00986" lon="4.58083">
        <ele>135</ele>
        <time>2019-07-10T07:58:15Z</time>
      </trkpt>
      <trkpt lat="44.0099" lon="4.58085">
        <ele>134.8</ele>
        <time>2019-07-10T07:58:16Z</time>
      </trkpt>
      <trkpt lat="44.00997" lon="4.58083">
        <ele>133</ele>
        <time>2019-07-10T07:58:18Z</time>
      </trkpt>
      <trkpt lat="44.01" lon="4.5808">
        <ele>131.6</ele>
        <time>2019-07-10T07:58:19Z</time>
      </trkpt>
      <trkpt lat="44.01003" lon="4.58075">
        <ele>131.2</ele>
        <time>2019-07-10T07:58:20Z</time>
      </trkpt>
      <trkpt lat="44.01009" lon="4.58065">
        <ele>130.2</ele>
        <time>2019-07-10T07:58:22Z</time>
      </trkpt>
      <trkpt lat="44.01015" lon="4.58053">
        <ele>129.4</ele>
        <time>2019-07-10T07:58:24Z</time>
      </trkpt>
      <trkpt lat="44.01018" lon="4.58047">
        <ele>129</ele>
        <time>2019-07-10T07:58:25Z</time>
      </trkpt>
      <trkpt lat="44.01024" lon="4.58035">
        <ele>128</ele>
        <time>2019-07-10T07:58:27Z</time>
      </trkpt>
      <trkpt lat="44.0103" lon="4.58024">
        <ele>127.6</ele>
        <time>2019-07-10T07:58:29Z</time>
      </trkpt>
      <trkpt lat="44.01035" lon="4.58014">
        <ele>127.2</ele>
        <time>2019-07-10T07:58:31Z</time>
      </trkpt>
      <trkpt lat="44.01038" lon="4.58008">
        <ele>127.2</ele>
        <time>2019-07-10T07:58:32Z</time>
      </trkpt>
      <trkpt lat="44.01043" lon="4.57993">
        <ele>126.8</ele>
        <time>2019-07-10T07:58:35Z</time>
      </trkpt>
      <trkpt lat="44.01045" lon="4.57977">
        <ele>126.8</ele>
        <time>2019-07-10T07:58:38Z</time>
      </trkpt>
      <trkpt lat="44.01046" lon="4.57967">
        <ele>126.8</ele>
        <time>2019-07-10T07:58:40Z</time>
      </trkpt>
      <trkpt lat="44.01049" lon="4.57947">
        <ele>126.6</ele>
        <time>2019-07-10T07:58:45Z</time>
      </trkpt>
      <trkpt lat="44.01049" lon="4.57946">
        <ele>126.4</ele>
        <time>2019-07-10T07:58:47Z</time>
      </trkpt>
      <trkpt lat="44.01048" lon="4.5794">
        <ele>126.2</ele>
        <time>2019-07-10T07:58:53Z</time>
      </trkpt>
      <trkpt lat="44.01054" lon="4.57928">
        <ele>125.8</ele>
        <time>2019-07-10T07:58:57Z</time>
      </trkpt>
      <trkpt lat="44.01055" lon="4.5791">
        <ele>125.8</ele>
        <time>2019-07-10T07:59:01Z</time>
      </trkpt>
      <trkpt lat="44.01058" lon="4.57876">
        <ele>125.8</ele>
        <time>2019-07-10T07:59:08Z</time>
      </trkpt>
      <trkpt lat="44.01059" lon="4.57867">
        <ele>126</ele>
        <time>2019-07-10T07:59:10Z</time>
      </trkpt>
      <trkpt lat="44.0106" lon="4.57854">
        <ele>126.2</ele>
        <time>2019-07-10T07:59:13Z</time>
      </trkpt>
      <trkpt lat="44.01061" lon="4.57842">
        <ele>126.8</ele>
        <time>2019-07-10T07:59:16Z</time>
      </trkpt>
      <trkpt lat="44.01062" lon="4.57835">
        <ele>127.6</ele>
        <time>2019-07-10T07:59:18Z</time>
      </trkpt>
      <trkpt lat="44.01063" lon="4.57832">
        <ele>127.6</ele>
        <time>2019-07-10T07:59:19Z</time>
      </trkpt>
      <trkpt lat="44.01066" lon="4.57816">
        <ele>128.2</ele>
        <time>2019-07-10T07:59:23Z</time>
      </trkpt>
      <trkpt lat="44.01068" lon="4.57794">
        <ele>128.2</ele>
        <time>2019-07-10T07:59:29Z</time>
      </trkpt>
      <trkpt lat="44.01071" lon="4.57771">
        <ele>128.8</ele>
        <time>2019-07-10T07:59:35Z</time>
      </trkpt>
      <trkpt lat="44.01071" lon="4.57759">
        <ele>129.2</ele>
        <time>2019-07-10T07:59:38Z</time>
      </trkpt>
      <trkpt lat="44.01072" lon="4.57756">
        <ele>129</ele>
        <time>2019-07-10T07:59:39Z</time>
      </trkpt>
      <trkpt lat="44.01076" lon="4.57725">
        <ele>130.2</ele>
        <time>2019-07-10T07:59:46Z</time>
      </trkpt>
      <trkpt lat="44.01086" lon="4.57701">
        <ele>130.8</ele>
        <time>2019-07-10T07:59:52Z</time>
      </trkpt>
      <trkpt lat="44.01096" lon="4.57679">
        <ele>131.8</ele>
        <time>2019-07-10T07:59:58Z</time>
      </trkpt>
      <trkpt lat="44.01099" lon="4.57673">
        <ele>132.2</ele>
        <time>2019-07-10T08:00:00Z</time>
      </trkpt>
      <trkpt lat="44.01101" lon="4.57666">
        <ele>132.6</ele>
        <time>2019-07-10T08:00:02Z</time>
      </trkpt>
      <trkpt lat="44.01104" lon="4.57659">
        <ele>132.6</ele>
        <time>2019-07-10T08:00:05Z</time>
      </trkpt>
      <trkpt lat="44.0111" lon="4.57649">
        <ele>132.8</ele>
        <time>2019-07-10T08:00:09Z</time>
      </trkpt>
      <trkpt lat="44.01111" lon="4.57646">
        <ele>132.8</ele>
        <time>2019-07-10T08:00:10Z</time>
      </trkpt>
      <trkpt lat="44.01115" lon="4.57635">
        <ele>133</ele>
        <time>2019-07-10T08:00:14Z</time>
      </trkpt>
      <trkpt lat="44.01116" lon="4.57632">
        <ele>133</ele>
        <time>2019-07-10T08:00:15Z</time>
      </trkpt>
      <trkpt lat="44.01119" lon="4.57618">
        <ele>133.4</ele>
        <time>2019-07-10T08:00:19Z</time>
      </trkpt>
      <trkpt lat="44.01122" lon="4.57602">
        <ele>133.8</ele>
        <time>2019-07-10T08:00:23Z</time>
      </trkpt>
      <trkpt lat="44.01123" lon="4.57587">
        <ele>134.6</ele>
        <time>2019-07-10T08:00:27Z</time>
      </trkpt>
      <trkpt lat="44.01125" lon="4.57558">
        <ele>135.6</ele>
        <time>2019-07-10T08:00:35Z</time>
      </trkpt>
      <trkpt lat="44.01124" lon="4.57529">
        <ele>137</ele>
        <time>2019-07-10T08:00:43Z</time>
      </trkpt>
      <trkpt lat="44.01121" lon="4.57506">
        <ele>137.4</ele>
        <time>2019-07-10T08:00:49Z</time>
      </trkpt>
      <trkpt lat="44.01117" lon="4.57484">
        <ele>137</ele>
        <time>2019-07-10T08:00:54Z</time>
      </trkpt>
      <trkpt lat="44.01111" lon="4.57455">
        <ele>137</ele>
        <time>2019-07-10T08:00:59Z</time>
      </trkpt>
      <trkpt lat="44.01106" lon="4.5743">
        <ele>137</ele>
        <time>2019-07-10T08:01:03Z</time>
      </trkpt>
      <trkpt lat="44.01103" lon="4.57415">
        <ele>137</ele>
        <time>2019-07-10T08:01:05Z</time>
      </trkpt>
      <trkpt lat="44.01102" lon="4.57408">
        <ele>136.8</ele>
        <time>2019-07-10T08:01:06Z</time>
      </trkpt>
      <trkpt lat="44.01101" lon="4.57401">
        <ele>136.8</ele>
        <time>2019-07-10T08:01:07Z</time>
      </trkpt>
      <trkpt lat="44.011" lon="4.57394">
        <ele>136.8</ele>
        <time>2019-07-10T08:01:08Z</time>
      </trkpt>
      <trkpt lat="44.01095" lon="4.57343">
        <ele>134.8</ele>
        <time>2019-07-10T08:01:15Z</time>
      </trkpt>
      <trkpt lat="44.01094" lon="4.57328">
        <ele>134.6</ele>
        <time>2019-07-10T08:01:17Z</time>
      </trkpt>
      <trkpt lat="44.01092" lon="4.57307">
        <ele>135.2</ele>
        <time>2019-07-10T08:01:20Z</time>
      </trkpt>
      <trkpt lat="44.01092" lon="4.57301">
        <ele>135.2</ele>
        <time>2019-07-10T08:01:21Z</time>
      </trkpt>
      <trkpt lat="44.01091" lon="4.57281">
        <ele>135.6</ele>
        <time>2019-07-10T08:01:24Z</time>
      </trkpt>
      <trkpt lat="44.0109" lon="4.57269">
        <ele>135.8</ele>
        <time>2019-07-10T08:01:26Z</time>
      </trkpt>
      <trkpt lat="44.01089" lon="4.5726">
        <ele>136</ele>
        <time>2019-07-10T08:01:28Z</time>
      </trkpt>
      <trkpt lat="44.01089" lon="4.57251">
        <ele>136</ele>
        <time>2019-07-10T08:01:30Z</time>
      </trkpt>
      <trkpt lat="44.01087" lon="4.57227">
        <ele>136.6</ele>
        <time>2019-07-10T08:01:35Z</time>
      </trkpt>
      <trkpt lat="44.01087" lon="4.57223">
        <ele>136.6</ele>
        <time>2019-07-10T08:01:36Z</time>
      </trkpt>
      <trkpt lat="44.01085" lon="4.57191">
        <ele>137</ele>
        <time>2019-07-10T08:01:43Z</time>
      </trkpt>
      <trkpt lat="44.01084" lon="4.57173">
        <ele>137.2</ele>
        <time>2019-07-10T08:01:47Z</time>
      </trkpt>
      <trkpt lat="44.01083" lon="4.57152">
        <ele>137.8</ele>
        <time>2019-07-10T08:01:52Z</time>
      </trkpt>
      <trkpt lat="44.01083" lon="4.57148">
        <ele>138</ele>
        <time>2019-07-10T08:01:53Z</time>
      </trkpt>
      <trkpt lat="44.01082" lon="4.57137">
        <ele>138.6</ele>
        <time>2019-07-10T08:01:56Z</time>
      </trkpt>
      <trkpt lat="44.01082" lon="4.57124">
        <ele>139</ele>
        <time>2019-07-10T08:01:59Z</time>
      </trkpt>
      <trkpt lat="44.01082" lon="4.57117">
        <ele>139.4</ele>
        <time>2019-07-10T08:02:01Z</time>
      </trkpt>
      <trkpt lat="44.01081" lon="4.57099">
        <ele>139.6</ele>
        <time>2019-07-10T08:02:05Z</time>
      </trkpt>
      <trkpt lat="44.0108" lon="4.57078">
        <ele>140.6</ele>
        <time>2019-07-10T08:02:10Z</time>
      </trkpt>
      <trkpt lat="44.0108" lon="4.57061">
        <ele>141</ele>
        <time>2019-07-10T08:02:14Z</time>
      </trkpt>
      <trkpt lat="44.01079" lon="4.5705">
        <ele>142.2</ele>
        <time>2019-07-10T08:02:17Z</time>
      </trkpt>
      <trkpt lat="44.01078" lon="4.57041">
        <ele>142.4</ele>
        <time>2019-07-10T08:02:19Z</time>
      </trkpt>
      <trkpt lat="44.01078" lon="4.57036">
        <ele>142.6</ele>
        <time>2019-07-10T08:02:20Z</time>
      </trkpt>
      <trkpt lat="44.01076" lon="4.57025">
        <ele>142.6</ele>
        <time>2019-07-10T08:02:23Z</time>
      </trkpt>
      <trkpt lat="44.01076" lon="4.5702">
        <ele>142.6</ele>
        <time>2019-07-10T08:02:24Z</time>
      </trkpt>
      <trkpt lat="44.01069" lon="4.56982">
        <ele>143.6</ele>
        <time>2019-07-10T08:02:32Z</time>
      </trkpt>
      <trkpt lat="44.01068" lon="4.56978">
        <ele>143.6</ele>
        <time>2019-07-10T08:02:33Z</time>
      </trkpt>
      <trkpt lat="44.01065" lon="4.56951">
        <ele>144.2</ele>
        <time>2019-07-10T08:02:38Z</time>
      </trkpt>
      <trkpt lat="44.01065" lon="4.56946">
        <ele>144.2</ele>
        <time>2019-07-10T08:02:39Z</time>
      </trkpt>
      <trkpt lat="44.01063" lon="4.56928">
        <ele>144.2</ele>
        <time>2019-07-10T08:02:42Z</time>
      </trkpt>
      <trkpt lat="44.01061" lon="4.56905">
        <ele>144.4</ele>
        <time>2019-07-10T08:02:46Z</time>
      </trkpt>
      <trkpt lat="44.01061" lon="4.56899">
        <ele>144.4</ele>
        <time>2019-07-10T08:02:47Z</time>
      </trkpt>
      <trkpt lat="44.0106" lon="4.56883">
        <ele>144.2</ele>
        <time>2019-07-10T08:02:50Z</time>
      </trkpt>
      <trkpt lat="44.01058" lon="4.5687">
        <ele>144.6</ele>
        <time>2019-07-10T08:02:52Z</time>
      </trkpt>
      <trkpt lat="44.01057" lon="4.56847">
        <ele>144.8</ele>
        <time>2019-07-10T08:02:56Z</time>
      </trkpt>
      <trkpt lat="44.01056" lon="4.56841">
        <ele>144.8</ele>
        <time>2019-07-10T08:02:57Z</time>
      </trkpt>
      <trkpt lat="44.01055" lon="4.56825">
        <ele>144.8</ele>
        <time>2019-07-10T08:03:00Z</time>
      </trkpt>
      <trkpt lat="44.01056" lon="4.56801">
        <ele>144.8</ele>
        <time>2019-07-10T08:03:04Z</time>
      </trkpt>
      <trkpt lat="44.01056" lon="4.56796">
        <ele>144.8</ele>
        <time>2019-07-10T08:03:05Z</time>
      </trkpt>
      <trkpt lat="44.01057" lon="4.56789">
        <ele>144.8</ele>
        <time>2019-07-10T08:03:06Z</time>
      </trkpt>
      <trkpt lat="44.01057" lon="4.56784">
        <ele>144.8</ele>
        <time>2019-07-10T08:03:07Z</time>
      </trkpt>
      <trkpt lat="44.01058" lon="4.56775">
        <ele>145</ele>
        <time>2019-07-10T08:03:09Z</time>
      </trkpt>
      <trkpt lat="44.01059" lon="4.5677">
        <ele>144.8</ele>
        <time>2019-07-10T08:03:10Z</time>
      </trkpt>
      <trkpt lat="44.0106" lon="4.5676">
        <ele>145.2</ele>
        <time>2019-07-10T08:03:12Z</time>
      </trkpt>
      <trkpt lat="44.01062" lon="4.5675">
        <ele>145.6</ele>
        <time>2019-07-10T08:03:14Z</time>
      </trkpt>
      <trkpt lat="44.01068" lon="4.56717">
        <ele>146.8</ele>
        <time>2019-07-10T08:03:21Z</time>
      </trkpt>
      <trkpt lat="44.01071" lon="4.56703">
        <ele>146.8</ele>
        <time>2019-07-10T08:03:24Z</time>
      </trkpt>
      <trkpt lat="44.01076" lon="4.56675">
        <ele>146.8</ele>
        <time>2019-07-10T08:03:30Z</time>
      </trkpt>
      <trkpt lat="44.01076" lon="4.56662">
        <ele>146.8</ele>
        <time>2019-07-10T08:03:33Z</time>
      </trkpt>
      <trkpt lat="44.01075" lon="4.56644">
        <ele>147.2</ele>
        <time>2019-07-10T08:03:37Z</time>
      </trkpt>
      <trkpt lat="44.01075" lon="4.5664">
        <ele>147.2</ele>
        <time>2019-07-10T08:03:38Z</time>
      </trkpt>
      <trkpt lat="44.0107" lon="4.56606">
        <ele>148.6</ele>
        <time>2019-07-10T08:03:46Z</time>
      </trkpt>
      <trkpt lat="44.01069" lon="4.56588">
        <ele>148.8</ele>
        <time>2019-07-10T08:03:50Z</time>
      </trkpt>
      <trkpt lat="44.01067" lon="4.56574">
        <ele>149.4</ele>
        <time>2019-07-10T08:03:53Z</time>
      </trkpt>
      <trkpt lat="44.01065" lon="4.56552">
        <ele>149.4</ele>
        <time>2019-07-10T08:03:58Z</time>
      </trkpt>
      <trkpt lat="44.01062" lon="4.56539">
        <ele>150.2</ele>
        <time>2019-07-10T08:04:01Z</time>
      </trkpt>
      <trkpt lat="44.01057" lon="4.5652">
        <ele>151.2</ele>
        <time>2019-07-10T08:04:06Z</time>
      </trkpt>
      <trkpt lat="44.01057" lon="4.56516">
        <ele>151.4</ele>
        <time>2019-07-10T08:04:07Z</time>
      </trkpt>
      <trkpt lat="44.01055" lon="4.56512">
        <ele>151.2</ele>
        <time>2019-07-10T08:04:08Z</time>
      </trkpt>
      <trkpt lat="44.01048" lon="4.56482">
        <ele>150.6</ele>
        <time>2019-07-10T08:04:15Z</time>
      </trkpt>
      <trkpt lat="44.01046" lon="4.56477">
        <ele>150.6</ele>
        <time>2019-07-10T08:04:16Z</time>
      </trkpt>
      <trkpt lat="44.01041" lon="4.56456">
        <ele>149.8</ele>
        <time>2019-07-10T08:04:21Z</time>
      </trkpt>
      <trkpt lat="44.01036" lon="4.56439">
        <ele>150</ele>
        <time>2019-07-10T08:04:25Z</time>
      </trkpt>
      <trkpt lat="44.01034" lon="4.56431">
        <ele>150.4</ele>
        <time>2019-07-10T08:04:27Z</time>
      </trkpt>
      <trkpt lat="44.01028" lon="4.56412">
        <ele>151.6</ele>
        <time>2019-07-10T08:04:32Z</time>
      </trkpt>
      <trkpt lat="44.01022" lon="4.56394">
        <ele>152.8</ele>
        <time>2019-07-10T08:04:37Z</time>
      </trkpt>
      <trkpt lat="44.01021" lon="4.5639">
        <ele>153.2</ele>
        <time>2019-07-10T08:04:38Z</time>
      </trkpt>
      <trkpt lat="44.01017" lon="4.56371">
        <ele>154</ele>
        <time>2019-07-10T08:04:43Z</time>
      </trkpt>
      <trkpt lat="44.01016" lon="4.56367">
        <ele>154.2</ele>
        <time>2019-07-10T08:04:44Z</time>
      </trkpt>
      <trkpt lat="44.01016" lon="4.56363">
        <ele>154.4</ele>
        <time>2019-07-10T08:04:45Z</time>
      </trkpt>
      <trkpt lat="44.01015" lon="4.56324">
        <ele>156.2</ele>
        <time>2019-07-10T08:04:55Z</time>
      </trkpt>
      <trkpt lat="44.01015" lon="4.5629">
        <ele>157.2</ele>
        <time>2019-07-10T08:05:03Z</time>
      </trkpt>
      <trkpt lat="44.01015" lon="4.56286">
        <ele>157.4</ele>
        <time>2019-07-10T08:05:04Z</time>
      </trkpt>
      <trkpt lat="44.01014" lon="4.56273">
        <ele>157.8</ele>
        <time>2019-07-10T08:05:07Z</time>
      </trkpt>
      <trkpt lat="44.01014" lon="4.5625">
        <ele>158.4</ele>
        <time>2019-07-10T08:05:12Z</time>
      </trkpt>
      <trkpt lat="44.01014" lon="4.56236">
        <ele>159.2</ele>
        <time>2019-07-10T08:05:15Z</time>
      </trkpt>
      <trkpt lat="44.01014" lon="4.56231">
        <ele>159.4</ele>
        <time>2019-07-10T08:05:16Z</time>
      </trkpt>
      <trkpt lat="44.01014" lon="4.56216">
        <ele>159.4</ele>
        <time>2019-07-10T08:05:19Z</time>
      </trkpt>
      <trkpt lat="44.01015" lon="4.56191">
        <ele>159.8</ele>
        <time>2019-07-10T08:05:24Z</time>
      </trkpt>
      <trkpt lat="44.01016" lon="4.5618">
        <ele>160</ele>
        <time>2019-07-10T08:05:26Z</time>
      </trkpt>
      <trkpt lat="44.01016" lon="4.56174">
        <ele>160</ele>
        <time>2019-07-10T08:05:27Z</time>
      </trkpt>
      <trkpt lat="44.01017" lon="4.56161">
        <ele>160.4</ele>
        <time>2019-07-10T08:05:29Z</time>
      </trkpt>
      <trkpt lat="44.01018" lon="4.5614">
        <ele>161.2</ele>
        <time>2019-07-10T08:05:32Z</time>
      </trkpt>
      <trkpt lat="44.01019" lon="4.56132">
        <ele>161.2</ele>
        <time>2019-07-10T08:05:33Z</time>
      </trkpt>
      <trkpt lat="44.01018" lon="4.56125">
        <ele>161</ele>
        <time>2019-07-10T08:05:34Z</time>
      </trkpt>
      <trkpt lat="44.01018" lon="4.56117">
        <ele>161.2</ele>
        <time>2019-07-10T08:05:35Z</time>
      </trkpt>
      <trkpt lat="44.01015" lon="4.56093">
        <ele>160.8</ele>
        <time>2019-07-10T08:05:38Z</time>
      </trkpt>
      <trkpt lat="44.01014" lon="4.56085">
        <ele>160.6</ele>
        <time>2019-07-10T08:05:39Z</time>
      </trkpt>
      <trkpt lat="44.01013" lon="4.56076">
        <ele>160.4</ele>
        <time>2019-07-10T08:05:40Z</time>
      </trkpt>
      <trkpt lat="44.01011" lon="4.56059">
        <ele>160.2</ele>
        <time>2019-07-10T08:05:42Z</time>
      </trkpt>
      <trkpt lat="44.01011" lon="4.5605">
        <ele>159.8</ele>
        <time>2019-07-10T08:05:43Z</time>
      </trkpt>
      <trkpt lat="44.01012" lon="4.56032">
        <ele>159.4</ele>
        <time>2019-07-10T08:05:45Z</time>
      </trkpt>
      <trkpt lat="44.01015" lon="4.56013">
        <ele>158.8</ele>
        <time>2019-07-10T08:05:47Z</time>
      </trkpt>
      <trkpt lat="44.01016" lon="4.56003">
        <ele>158.6</ele>
        <time>2019-07-10T08:05:48Z</time>
      </trkpt>
      <trkpt lat="44.01018" lon="4.55983">
        <ele>158.2</ele>
        <time>2019-07-10T08:05:50Z</time>
      </trkpt>
      <trkpt lat="44.01021" lon="4.55961">
        <ele>157.6</ele>
        <time>2019-07-10T08:05:52Z</time>
      </trkpt>
      <trkpt lat="44.01022" lon="4.5595">
        <ele>157.6</ele>
        <time>2019-07-10T08:05:53Z</time>
      </trkpt>
      <trkpt lat="44.01026" lon="4.5591">
        <ele>156.4</ele>
        <time>2019-07-10T08:05:57Z</time>
      </trkpt>
      <trkpt lat="44.01027" lon="4.55897">
        <ele>156.2</ele>
        <time>2019-07-10T08:05:58Z</time>
      </trkpt>
      <trkpt lat="44.01028" lon="4.55887">
        <ele>156.2</ele>
        <time>2019-07-10T08:05:59Z</time>
      </trkpt>
      <trkpt lat="44.01028" lon="4.55877">
        <ele>155.6</ele>
        <time>2019-07-10T08:06:00Z</time>
      </trkpt>
      <trkpt lat="44.01027" lon="4.55867">
        <ele>155.4</ele>
        <time>2019-07-10T08:06:01Z</time>
      </trkpt>
      <trkpt lat="44.01027" lon="4.55859">
        <ele>155.2</ele>
        <time>2019-07-10T08:06:02Z</time>
      </trkpt>
      <trkpt lat="44.01025" lon="4.55837">
        <ele>155.2</ele>
        <time>2019-07-10T08:06:04Z</time>
      </trkpt>
      <trkpt lat="44.01024" lon="4.55827">
        <ele>155.2</ele>
        <time>2019-07-10T08:06:05Z</time>
      </trkpt>
      <trkpt lat="44.01023" lon="4.55817">
        <ele>154.6</ele>
        <time>2019-07-10T08:06:06Z</time>
      </trkpt>
      <trkpt lat="44.01022" lon="4.55808">
        <ele>154.6</ele>
        <time>2019-07-10T08:06:07Z</time>
      </trkpt>
      <trkpt lat="44.01022" lon="4.55798">
        <ele>154.2</ele>
        <time>2019-07-10T08:06:08Z</time>
      </trkpt>
      <trkpt lat="44.01021" lon="4.55789">
        <ele>154</ele>
        <time>2019-07-10T08:06:09Z</time>
      </trkpt>
      <trkpt lat="44.01021" lon="4.55779">
        <ele>153.4</ele>
        <time>2019-07-10T08:06:10Z</time>
      </trkpt>
      <trkpt lat="44.0102" lon="4.5577">
        <ele>153.2</ele>
        <time>2019-07-10T08:06:11Z</time>
      </trkpt>
      <trkpt lat="44.01019" lon="4.55763">
        <ele>152.6</ele>
        <time>2019-07-10T08:06:12Z</time>
      </trkpt>
      <trkpt lat="44.01018" lon="4.55752">
        <ele>152.6</ele>
        <time>2019-07-10T08:06:13Z</time>
      </trkpt>
      <trkpt lat="44.01016" lon="4.55734">
        <ele>152</ele>
        <time>2019-07-10T08:06:15Z</time>
      </trkpt>
      <trkpt lat="44.01015" lon="4.55716">
        <ele>151.6</ele>
        <time>2019-07-10T08:06:17Z</time>
      </trkpt>
      <trkpt lat="44.01013" lon="4.55691">
        <ele>151.4</ele>
        <time>2019-07-10T08:06:20Z</time>
      </trkpt>
      <trkpt lat="44.01012" lon="4.55677">
        <ele>151.2</ele>
        <time>2019-07-10T08:06:22Z</time>
      </trkpt>
      <trkpt lat="44.01008" lon="4.55638">
        <ele>151.2</ele>
        <time>2019-07-10T08:06:27Z</time>
      </trkpt>
      <trkpt lat="44.01005" lon="4.55625">
        <ele>151.2</ele>
        <time>2019-07-10T08:06:29Z</time>
      </trkpt>
      <trkpt lat="44.01002" lon="4.55611">
        <ele>151</ele>
        <time>2019-07-10T08:06:31Z</time>
      </trkpt>
      <trkpt lat="44.00998" lon="4.55598">
        <ele>150.8</ele>
        <time>2019-07-10T08:06:33Z</time>
      </trkpt>
      <trkpt lat="44.00992" lon="4.55583">
        <ele>150.6</ele>
        <time>2019-07-10T08:06:35Z</time>
      </trkpt>
      <trkpt lat="44.00983" lon="4.55565">
        <ele>150.4</ele>
        <time>2019-07-10T08:06:38Z</time>
      </trkpt>
      <trkpt lat="44.00974" lon="4.55542">
        <ele>150</ele>
        <time>2019-07-10T08:06:42Z</time>
      </trkpt>
      <trkpt lat="44.00972" lon="4.55535">
        <ele>150</ele>
        <time>2019-07-10T08:06:43Z</time>
      </trkpt>
      <trkpt lat="44.00971" lon="4.55529">
        <ele>150</ele>
        <time>2019-07-10T08:06:44Z</time>
      </trkpt>
      <trkpt lat="44.00968" lon="4.55517">
        <ele>150.2</ele>
        <time>2019-07-10T08:06:46Z</time>
      </trkpt>
      <trkpt lat="44.00965" lon="4.55497">
        <ele>150.6</ele>
        <time>2019-07-10T08:06:49Z</time>
      </trkpt>
      <trkpt lat="44.00962" lon="4.55483">
        <ele>150.4</ele>
        <time>2019-07-10T08:06:51Z</time>
      </trkpt>
      <trkpt lat="44.00961" lon="4.55476">
        <ele>150.4</ele>
        <time>2019-07-10T08:06:52Z</time>
      </trkpt>
      <trkpt lat="44.0096" lon="4.55469">
        <ele>150.2</ele>
        <time>2019-07-10T08:06:53Z</time>
      </trkpt>
      <trkpt lat="44.00953" lon="4.55449">
        <ele>150.8</ele>
        <time>2019-07-10T08:06:56Z</time>
      </trkpt>
      <trkpt lat="44.00951" lon="4.55443">
        <ele>150.4</ele>
        <time>2019-07-10T08:06:57Z</time>
      </trkpt>
      <trkpt lat="44.00946" lon="4.55431">
        <ele>150.2</ele>
        <time>2019-07-10T08:06:59Z</time>
      </trkpt>
      <trkpt lat="44.00942" lon="4.5542">
        <ele>150.2</ele>
        <time>2019-07-10T08:07:01Z</time>
      </trkpt>
      <trkpt lat="44.00937" lon="4.55402">
        <ele>150.6</ele>
        <time>2019-07-10T08:07:04Z</time>
      </trkpt>
      <trkpt lat="44.00935" lon="4.55396">
        <ele>150.6</ele>
        <time>2019-07-10T08:07:05Z</time>
      </trkpt>
      <trkpt lat="44.00934" lon="4.5539">
        <ele>150.6</ele>
        <time>2019-07-10T08:07:06Z</time>
      </trkpt>
      <trkpt lat="44.0093" lon="4.55367">
        <ele>151.2</ele>
        <time>2019-07-10T08:07:10Z</time>
      </trkpt>
      <trkpt lat="44.00925" lon="4.55315">
        <ele>151.6</ele>
        <time>2019-07-10T08:07:18Z</time>
      </trkpt>
      <trkpt lat="44.00925" lon="4.55308">
        <ele>151.4</ele>
        <time>2019-07-10T08:07:19Z</time>
      </trkpt>
      <trkpt lat="44.00923" lon="4.55274">
        <ele>151.6</ele>
        <time>2019-07-10T08:07:23Z</time>
      </trkpt>
      <trkpt lat="44.00922" lon="4.55265">
        <ele>151.6</ele>
        <time>2019-07-10T08:07:24Z</time>
      </trkpt>
      <trkpt lat="44.00922" lon="4.55256">
        <ele>151.4</ele>
        <time>2019-07-10T08:07:25Z</time>
      </trkpt>
      <trkpt lat="44.00921" lon="4.55248">
        <ele>151.4</ele>
        <time>2019-07-10T08:07:26Z</time>
      </trkpt>
      <trkpt lat="44.00919" lon="4.55224">
        <ele>151</ele>
        <time>2019-07-10T08:07:29Z</time>
      </trkpt>
      <trkpt lat="44.00918" lon="4.55216">
        <ele>150.8</ele>
        <time>2019-07-10T08:07:30Z</time>
      </trkpt>
      <trkpt lat="44.00916" lon="4.55202">
        <ele>150</ele>
        <time>2019-07-10T08:07:32Z</time>
      </trkpt>
      <trkpt lat="44.00914" lon="4.55195">
        <ele>149.6</ele>
        <time>2019-07-10T08:07:33Z</time>
      </trkpt>
      <trkpt lat="44.00911" lon="4.55183">
        <ele>149.4</ele>
        <time>2019-07-10T08:07:35Z</time>
      </trkpt>
      <trkpt lat="44.00906" lon="4.55165">
        <ele>149</ele>
        <time>2019-07-10T08:07:38Z</time>
      </trkpt>
      <trkpt lat="44.00901" lon="4.55147">
        <ele>148.8</ele>
        <time>2019-07-10T08:07:41Z</time>
      </trkpt>
      <trkpt lat="44.00899" lon="4.55141">
        <ele>148.8</ele>
        <time>2019-07-10T08:07:42Z</time>
      </trkpt>
      <trkpt lat="44.00894" lon="4.55123">
        <ele>148.8</ele>
        <time>2019-07-10T08:07:45Z</time>
      </trkpt>
      <trkpt lat="44.00891" lon="4.55117">
        <ele>148.6</ele>
        <time>2019-07-10T08:07:46Z</time>
      </trkpt>
      <trkpt lat="44.00889" lon="4.55111">
        <ele>148.8</ele>
        <time>2019-07-10T08:07:47Z</time>
      </trkpt>
      <trkpt lat="44.00887" lon="4.55106">
        <ele>148.8</ele>
        <time>2019-07-10T08:07:48Z</time>
      </trkpt>
      <trkpt lat="44.00885" lon="4.551">
        <ele>149</ele>
        <time>2019-07-10T08:07:49Z</time>
      </trkpt>
      <trkpt lat="44.00883" lon="4.55095">
        <ele>149</ele>
        <time>2019-07-10T08:07:50Z</time>
      </trkpt>
      <trkpt lat="44.00881" lon="4.55089">
        <ele>149</ele>
        <time>2019-07-10T08:07:51Z</time>
      </trkpt>
      <trkpt lat="44.00878" lon="4.55084">
        <ele>149</ele>
        <time>2019-07-10T08:07:52Z</time>
      </trkpt>
      <trkpt lat="44.00869" lon="4.55057">
        <ele>149.4</ele>
        <time>2019-07-10T08:07:57Z</time>
      </trkpt>
      <trkpt lat="44.00867" lon="4.55052">
        <ele>149.6</ele>
        <time>2019-07-10T08:07:58Z</time>
      </trkpt>
      <trkpt lat="44.00859" lon="4.55024">
        <ele>149.6</ele>
        <time>2019-07-10T08:08:03Z</time>
      </trkpt>
      <trkpt lat="44.00855" lon="4.55008">
        <ele>149.4</ele>
        <time>2019-07-10T08:08:06Z</time>
      </trkpt>
      <trkpt lat="44.00853" lon="4.55002">
        <ele>149.2</ele>
        <time>2019-07-10T08:08:07Z</time>
      </trkpt>
      <trkpt lat="44.00849" lon="4.54985">
        <ele>149.2</ele>
        <time>2019-07-10T08:08:10Z</time>
      </trkpt>
      <trkpt lat="44.00846" lon="4.54968">
        <ele>149.2</ele>
        <time>2019-07-10T08:08:13Z</time>
      </trkpt>
      <trkpt lat="44.00844" lon="4.54962">
        <ele>149.4</ele>
        <time>2019-07-10T08:08:14Z</time>
      </trkpt>
      <trkpt lat="44.00843" lon="4.54957">
        <ele>149.6</ele>
        <time>2019-07-10T08:08:15Z</time>
      </trkpt>
      <trkpt lat="44.00842" lon="4.54952">
        <ele>149.6</ele>
        <time>2019-07-10T08:08:16Z</time>
      </trkpt>
      <trkpt lat="44.00841" lon="4.54946">
        <ele>150</ele>
        <time>2019-07-10T08:08:17Z</time>
      </trkpt>
      <trkpt lat="44.00838" lon="4.5493">
        <ele>150.4</ele>
        <time>2019-07-10T08:08:20Z</time>
      </trkpt>
      <trkpt lat="44.00837" lon="4.54925">
        <ele>150.4</ele>
        <time>2019-07-10T08:08:21Z</time>
      </trkpt>
      <trkpt lat="44.00832" lon="4.54888">
        <ele>151</ele>
        <time>2019-07-10T08:08:28Z</time>
      </trkpt>
      <trkpt lat="44.00831" lon="4.54883">
        <ele>151</ele>
        <time>2019-07-10T08:08:29Z</time>
      </trkpt>
      <trkpt lat="44.00827" lon="4.54856">
        <ele>151.6</ele>
        <time>2019-07-10T08:08:35Z</time>
      </trkpt>
      <trkpt lat="44.00826" lon="4.54852">
        <ele>151.8</ele>
        <time>2019-07-10T08:08:36Z</time>
      </trkpt>
      <trkpt lat="44.00826" lon="4.54847">
        <ele>151.8</ele>
        <time>2019-07-10T08:08:37Z</time>
      </trkpt>
      <trkpt lat="44.00822" lon="4.54819">
        <ele>152.8</ele>
        <time>2019-07-10T08:08:43Z</time>
      </trkpt>
      <trkpt lat="44.00821" lon="4.54809">
        <ele>153</ele>
        <time>2019-07-10T08:08:45Z</time>
      </trkpt>
      <trkpt lat="44.0082" lon="4.548">
        <ele>153.4</ele>
        <time>2019-07-10T08:08:47Z</time>
      </trkpt>
      <trkpt lat="44.00816" lon="4.54774">
        <ele>153.8</ele>
        <time>2019-07-10T08:08:53Z</time>
      </trkpt>
      <trkpt lat="44.00816" lon="4.54769">
        <ele>154</ele>
        <time>2019-07-10T08:08:54Z</time>
      </trkpt>
      <trkpt lat="44.00816" lon="4.54765">
        <ele>154</ele>
        <time>2019-07-10T08:08:55Z</time>
      </trkpt>
      <trkpt lat="44.00815" lon="4.54757">
        <ele>154.4</ele>
        <time>2019-07-10T08:08:57Z</time>
      </trkpt>
      <trkpt lat="44.00813" lon="4.54746">
        <ele>155.4</ele>
        <time>2019-07-10T08:09:00Z</time>
      </trkpt>
      <trkpt lat="44.00813" lon="4.54738">
        <ele>155.8</ele>
        <time>2019-07-10T08:09:02Z</time>
      </trkpt>
      <trkpt lat="44.00812" lon="4.54727">
        <ele>156</ele>
        <time>2019-07-10T08:09:05Z</time>
      </trkpt>
      <trkpt lat="44.0081" lon="4.54701">
        <ele>157.4</ele>
        <time>2019-07-10T08:09:11Z</time>
      </trkpt>
      <trkpt lat="44.00807" lon="4.54668">
        <ele>158</ele>
        <time>2019-07-10T08:09:18Z</time>
      </trkpt>
      <trkpt lat="44.00807" lon="4.54663">
        <ele>158</ele>
        <time>2019-07-10T08:09:19Z</time>
      </trkpt>
      <trkpt lat="44.00807" lon="4.54635">
        <ele>158.4</ele>
        <time>2019-07-10T08:09:25Z</time>
      </trkpt>
      <trkpt lat="44.00807" lon="4.54631">
        <ele>158.4</ele>
        <time>2019-07-10T08:09:26Z</time>
      </trkpt>
      <trkpt lat="44.00807" lon="4.54626">
        <ele>158.6</ele>
        <time>2019-07-10T08:09:27Z</time>
      </trkpt>
      <trkpt lat="44.00808" lon="4.54604">
        <ele>159</ele>
        <time>2019-07-10T08:09:32Z</time>
      </trkpt>
      <trkpt lat="44.00808" lon="4.5459">
        <ele>159.4</ele>
        <time>2019-07-10T08:09:35Z</time>
      </trkpt>
      <trkpt lat="44.00808" lon="4.54585">
        <ele>159.6</ele>
        <time>2019-07-10T08:09:36Z</time>
      </trkpt>
      <trkpt lat="44.00808" lon="4.54556">
        <ele>160.2</ele>
        <time>2019-07-10T08:09:42Z</time>
      </trkpt>
      <trkpt lat="44.00807" lon="4.54523">
        <ele>160.8</ele>
        <time>2019-07-10T08:09:49Z</time>
      </trkpt>
      <trkpt lat="44.00808" lon="4.54504">
        <ele>161</ele>
        <time>2019-07-10T08:09:53Z</time>
      </trkpt>
      <trkpt lat="44.00808" lon="4.54499">
        <ele>161.2</ele>
        <time>2019-07-10T08:09:54Z</time>
      </trkpt>
      <trkpt lat="44.00809" lon="4.54475">
        <ele>161.4</ele>
        <time>2019-07-10T08:09:59Z</time>
      </trkpt>
      <trkpt lat="44.00814" lon="4.54461">
        <ele>162</ele>
        <time>2019-07-10T08:10:02Z</time>
      </trkpt>
      <trkpt lat="44.0082" lon="4.54455">
        <ele>162</ele>
        <time>2019-07-10T08:10:04Z</time>
      </trkpt>
      <trkpt lat="44.00834" lon="4.54453">
        <ele>162.2</ele>
        <time>2019-07-10T08:10:08Z</time>
      </trkpt>
      <trkpt lat="44.00846" lon="4.54459">
        <ele>162.8</ele>
        <time>2019-07-10T08:10:12Z</time>
      </trkpt>
      <trkpt lat="44.00854" lon="4.54465">
        <ele>163.4</ele>
        <time>2019-07-10T08:10:15Z</time>
      </trkpt>
      <trkpt lat="44.00859" lon="4.5447">
        <ele>163.4</ele>
        <time>2019-07-10T08:10:17Z</time>
      </trkpt>
      <trkpt lat="44.00875" lon="4.54481">
        <ele>164.2</ele>
        <time>2019-07-10T08:10:23Z</time>
      </trkpt>
      <trkpt lat="44.0088" lon="4.54485">
        <ele>164.6</ele>
        <time>2019-07-10T08:10:25Z</time>
      </trkpt>
      <trkpt lat="44.00889" lon="4.54493">
        <ele>165</ele>
        <time>2019-07-10T08:10:29Z</time>
      </trkpt>
      <trkpt lat="44.00894" lon="4.54496">
        <ele>165.6</ele>
        <time>2019-07-10T08:10:31Z</time>
      </trkpt>
      <trkpt lat="44.00904" lon="4.54503">
        <ele>166.4</ele>
        <time>2019-07-10T08:10:35Z</time>
      </trkpt>
      <trkpt lat="44.00909" lon="4.54507">
        <ele>166.6</ele>
        <time>2019-07-10T08:10:37Z</time>
      </trkpt>
      <trkpt lat="44.00921" lon="4.54513">
        <ele>167.2</ele>
        <time>2019-07-10T08:10:42Z</time>
      </trkpt>
      <trkpt lat="44.00924" lon="4.54514">
        <ele>167.4</ele>
        <time>2019-07-10T08:10:43Z</time>
      </trkpt>
      <trkpt lat="44.00935" lon="4.54516">
        <ele>169</ele>
        <time>2019-07-10T08:10:48Z</time>
      </trkpt>
      <trkpt lat="44.0094" lon="4.54516">
        <ele>169.8</ele>
        <time>2019-07-10T08:10:50Z</time>
      </trkpt>
      <trkpt lat="44.00942" lon="4.54515">
        <ele>170</ele>
        <time>2019-07-10T08:10:51Z</time>
      </trkpt>
      <trkpt lat="44.00956" lon="4.54514">
        <ele>170.6</ele>
        <time>2019-07-10T08:10:57Z</time>
      </trkpt>
      <trkpt lat="44.00973" lon="4.54512">
        <ele>171.6</ele>
        <time>2019-07-10T08:11:04Z</time>
      </trkpt>
      <trkpt lat="44.00977" lon="4.54511">
        <ele>171.8</ele>
        <time>2019-07-10T08:11:06Z</time>
      </trkpt>
      <trkpt lat="44.00986" lon="4.5451">
        <ele>172.2</ele>
        <time>2019-07-10T08:11:10Z</time>
      </trkpt>
      <trkpt lat="44.00995" lon="4.54509">
        <ele>172.8</ele>
        <time>2019-07-10T08:11:14Z</time>
      </trkpt>
      <trkpt lat="44.01003" lon="4.54509">
        <ele>173.6</ele>
        <time>2019-07-10T08:11:18Z</time>
      </trkpt>
      <trkpt lat="44.01009" lon="4.5451">
        <ele>174.2</ele>
        <time>2019-07-10T08:11:21Z</time>
      </trkpt>
      <trkpt lat="44.01016" lon="4.54511">
        <ele>175.2</ele>
        <time>2019-07-10T08:11:25Z</time>
      </trkpt>
      <trkpt lat="44.01025" lon="4.54514">
        <ele>175.4</ele>
        <time>2019-07-10T08:11:29Z</time>
      </trkpt>
      <trkpt lat="44.01029" lon="4.54516">
        <ele>175.6</ele>
        <time>2019-07-10T08:11:31Z</time>
      </trkpt>
      <trkpt lat="44.01031" lon="4.54517">
        <ele>175.8</ele>
        <time>2019-07-10T08:11:32Z</time>
      </trkpt>
      <trkpt lat="44.01036" lon="4.54519">
        <ele>176</ele>
        <time>2019-07-10T08:11:34Z</time>
      </trkpt>
      <trkpt lat="44.01044" lon="4.54522">
        <ele>176.6</ele>
        <time>2019-07-10T08:11:38Z</time>
      </trkpt>
      <trkpt lat="44.01047" lon="4.54523">
        <ele>176.8</ele>
        <time>2019-07-10T08:11:39Z</time>
      </trkpt>
      <trkpt lat="44.01049" lon="4.54524">
        <ele>177</ele>
        <time>2019-07-10T08:11:40Z</time>
      </trkpt>
      <trkpt lat="44.01061" lon="4.54528">
        <ele>177.8</ele>
        <time>2019-07-10T08:11:45Z</time>
      </trkpt>
      <trkpt lat="44.01067" lon="4.5453">
        <ele>178</ele>
        <time>2019-07-10T08:11:48Z</time>
      </trkpt>
      <trkpt lat="44.01074" lon="4.54533">
        <ele>178.6</ele>
        <time>2019-07-10T08:11:51Z</time>
      </trkpt>
      <trkpt lat="44.0108" lon="4.54535">
        <ele>178.6</ele>
        <time>2019-07-10T08:11:54Z</time>
      </trkpt>
      <trkpt lat="44.01085" lon="4.54537">
        <ele>178.8</ele>
        <time>2019-07-10T08:11:56Z</time>
      </trkpt>
      <trkpt lat="44.01087" lon="4.54538">
        <ele>179</ele>
        <time>2019-07-10T08:11:57Z</time>
      </trkpt>
      <trkpt lat="44.01102" lon="4.54544">
        <ele>179.6</ele>
        <time>2019-07-10T08:12:04Z</time>
      </trkpt>
      <trkpt lat="44.01104" lon="4.54544">
        <ele>179.6</ele>
        <time>2019-07-10T08:12:05Z</time>
      </trkpt>
      <trkpt lat="44.01119" lon="4.54546">
        <ele>180.4</ele>
        <time>2019-07-10T08:12:11Z</time>
      </trkpt>
      <trkpt lat="44.01133" lon="4.54546">
        <ele>180.8</ele>
        <time>2019-07-10T08:12:17Z</time>
      </trkpt>
      <trkpt lat="44.01141" lon="4.54547">
        <ele>180.8</ele>
        <time>2019-07-10T08:12:20Z</time>
      </trkpt>
      <trkpt lat="44.01161" lon="4.54546">
        <ele>181.2</ele>
        <time>2019-07-10T08:12:27Z</time>
      </trkpt>
      <trkpt lat="44.01164" lon="4.54545">
        <ele>181.4</ele>
        <time>2019-07-10T08:12:28Z</time>
      </trkpt>
      <trkpt lat="44.01186" lon="4.54545">
        <ele>181.6</ele>
        <time>2019-07-10T08:12:35Z</time>
      </trkpt>
      <trkpt lat="44.01192" lon="4.54545">
        <ele>181.8</ele>
        <time>2019-07-10T08:12:37Z</time>
      </trkpt>
      <trkpt lat="44.01195" lon="4.54544">
        <ele>181.8</ele>
        <time>2019-07-10T08:12:38Z</time>
      </trkpt>
      <trkpt lat="44.01206" lon="4.54544">
        <ele>181.8</ele>
        <time>2019-07-10T08:12:41Z</time>
      </trkpt>
      <trkpt lat="44.01223" lon="4.54543">
        <ele>182</ele>
        <time>2019-07-10T08:12:46Z</time>
      </trkpt>
      <trkpt lat="44.01256" lon="4.54541">
        <ele>181.6</ele>
        <time>2019-07-10T08:12:55Z</time>
      </trkpt>
      <trkpt lat="44.01267" lon="4.5454">
        <ele>181.8</ele>
        <time>2019-07-10T08:12:58Z</time>
      </trkpt>
      <trkpt lat="44.01278" lon="4.54539">
        <ele>181.8</ele>
        <time>2019-07-10T08:13:01Z</time>
      </trkpt>
      <trkpt lat="44.01282" lon="4.54539">
        <ele>182</ele>
        <time>2019-07-10T08:13:02Z</time>
      </trkpt>
      <trkpt lat="44.01289" lon="4.54539">
        <ele>182</ele>
        <time>2019-07-10T08:13:04Z</time>
      </trkpt>
      <trkpt lat="44.01316" lon="4.54538">
        <ele>181.6</ele>
        <time>2019-07-10T08:13:11Z</time>
      </trkpt>
      <trkpt lat="44.01331" lon="4.54537">
        <ele>181.4</ele>
        <time>2019-07-10T08:13:15Z</time>
      </trkpt>
      <trkpt lat="44.01341" lon="4.54537">
        <ele>181.4</ele>
        <time>2019-07-10T08:13:18Z</time>
      </trkpt>
      <trkpt lat="44.01348" lon="4.54536">
        <ele>181.4</ele>
        <time>2019-07-10T08:13:20Z</time>
      </trkpt>
      <trkpt lat="44.01367" lon="4.54534">
        <ele>181.6</ele>
        <time>2019-07-10T08:13:26Z</time>
      </trkpt>
      <trkpt lat="44.0137" lon="4.54534">
        <ele>181.6</ele>
        <time>2019-07-10T08:13:27Z</time>
      </trkpt>
      <trkpt lat="44.01381" lon="4.54531">
        <ele>181.6</ele>
        <time>2019-07-10T08:13:30Z</time>
      </trkpt>
      <trkpt lat="44.01393" lon="4.54528">
        <ele>182</ele>
        <time>2019-07-10T08:13:33Z</time>
      </trkpt>
      <trkpt lat="44.01401" lon="4.54525">
        <ele>181.8</ele>
        <time>2019-07-10T08:13:35Z</time>
      </trkpt>
      <trkpt lat="44.01428" lon="4.54517">
        <ele>181.8</ele>
        <time>2019-07-10T08:13:41Z</time>
      </trkpt>
      <trkpt lat="44.01437" lon="4.54514">
        <ele>181.8</ele>
        <time>2019-07-10T08:13:43Z</time>
      </trkpt>
      <trkpt lat="44.01441" lon="4.54513">
        <ele>181.4</ele>
        <time>2019-07-10T08:13:44Z</time>
      </trkpt>
      <trkpt lat="44.01446" lon="4.54512">
        <ele>181.4</ele>
        <time>2019-07-10T08:13:45Z</time>
      </trkpt>
      <trkpt lat="44.0145" lon="4.54511">
        <ele>181</ele>
        <time>2019-07-10T08:13:46Z</time>
      </trkpt>
      <trkpt lat="44.01454" lon="4.5451">
        <ele>181.2</ele>
        <time>2019-07-10T08:13:47Z</time>
      </trkpt>
      <trkpt lat="44.01458" lon="4.54509">
        <ele>181</ele>
        <time>2019-07-10T08:13:48Z</time>
      </trkpt>
      <trkpt lat="44.01469" lon="4.54505">
        <ele>180.8</ele>
        <time>2019-07-10T08:13:51Z</time>
      </trkpt>
      <trkpt lat="44.01488" lon="4.54498">
        <ele>180.4</ele>
        <time>2019-07-10T08:13:56Z</time>
      </trkpt>
      <trkpt lat="44.01503" lon="4.5449">
        <ele>180</ele>
        <time>2019-07-10T08:14:00Z</time>
      </trkpt>
      <trkpt lat="44.0151" lon="4.54486">
        <ele>180</ele>
        <time>2019-07-10T08:14:02Z</time>
      </trkpt>
      <trkpt lat="44.01513" lon="4.54483">
        <ele>180.2</ele>
        <time>2019-07-10T08:14:03Z</time>
      </trkpt>
      <trkpt lat="44.01516" lon="4.5448">
        <ele>180.2</ele>
        <time>2019-07-10T08:14:04Z</time>
      </trkpt>
      <trkpt lat="44.0152" lon="4.54478">
        <ele>180</ele>
        <time>2019-07-10T08:14:05Z</time>
      </trkpt>
      <trkpt lat="44.01523" lon="4.54475">
        <ele>180.2</ele>
        <time>2019-07-10T08:14:06Z</time>
      </trkpt>
      <trkpt lat="44.01531" lon="4.54466">
        <ele>180.2</ele>
        <time>2019-07-10T08:14:09Z</time>
      </trkpt>
      <trkpt lat="44.01534" lon="4.54462">
        <ele>180.4</ele>
        <time>2019-07-10T08:14:10Z</time>
      </trkpt>
      <trkpt lat="44.0154" lon="4.54456">
        <ele>180.6</ele>
        <time>2019-07-10T08:14:12Z</time>
      </trkpt>
      <trkpt lat="44.01546" lon="4.5445">
        <ele>181</ele>
        <time>2019-07-10T08:14:14Z</time>
      </trkpt>
      <trkpt lat="44.0156" lon="4.54434">
        <ele>181.8</ele>
        <time>2019-07-10T08:14:19Z</time>
      </trkpt>
      <trkpt lat="44.01563" lon="4.5443">
        <ele>181.8</ele>
        <time>2019-07-10T08:14:20Z</time>
      </trkpt>
      <trkpt lat="44.01566" lon="4.54427">
        <ele>182.2</ele>
        <time>2019-07-10T08:14:21Z</time>
      </trkpt>
      <trkpt lat="44.01579" lon="4.54414">
        <ele>182.4</ele>
        <time>2019-07-10T08:14:25Z</time>
      </trkpt>
      <trkpt lat="44.01582" lon="4.5441">
        <ele>182.2</ele>
        <time>2019-07-10T08:14:26Z</time>
      </trkpt>
      <trkpt lat="44.01585" lon="4.54406">
        <ele>182.2</ele>
        <time>2019-07-10T08:14:27Z</time>
      </trkpt>
      <trkpt lat="44.01593" lon="4.54398">
        <ele>181.8</ele>
        <time>2019-07-10T08:14:29Z</time>
      </trkpt>
      <trkpt lat="44.01597" lon="4.54394">
        <ele>181.8</ele>
        <time>2019-07-10T08:14:30Z</time>
      </trkpt>
      <trkpt lat="44.01612" lon="4.5438">
        <ele>181.2</ele>
        <time>2019-07-10T08:14:34Z</time>
      </trkpt>
      <trkpt lat="44.01626" lon="4.54372">
        <ele>180.6</ele>
        <time>2019-07-10T08:14:37Z</time>
      </trkpt>
      <trkpt lat="44.01631" lon="4.54369">
        <ele>180.2</ele>
        <time>2019-07-10T08:14:38Z</time>
      </trkpt>
      <trkpt lat="44.01636" lon="4.54367">
        <ele>179.8</ele>
        <time>2019-07-10T08:14:39Z</time>
      </trkpt>
      <trkpt lat="44.01654" lon="4.5436">
        <ele>179.4</ele>
        <time>2019-07-10T08:14:42Z</time>
      </trkpt>
      <trkpt lat="44.0166" lon="4.54359">
        <ele>179.2</ele>
        <time>2019-07-10T08:14:43Z</time>
      </trkpt>
      <trkpt lat="44.01666" lon="4.54358">
        <ele>178.8</ele>
        <time>2019-07-10T08:14:44Z</time>
      </trkpt>
      <trkpt lat="44.01679" lon="4.54356">
        <ele>178.2</ele>
        <time>2019-07-10T08:14:46Z</time>
      </trkpt>
      <trkpt lat="44.01692" lon="4.54354">
        <ele>178</ele>
        <time>2019-07-10T08:14:48Z</time>
      </trkpt>
      <trkpt lat="44.01706" lon="4.54351">
        <ele>177</ele>
        <time>2019-07-10T08:14:50Z</time>
      </trkpt>
      <trkpt lat="44.01713" lon="4.5435">
        <ele>176.8</ele>
        <time>2019-07-10T08:14:51Z</time>
      </trkpt>
      <trkpt lat="44.0172" lon="4.54348">
        <ele>176.2</ele>
        <time>2019-07-10T08:14:52Z</time>
      </trkpt>
      <trkpt lat="44.01727" lon="4.54346">
        <ele>175.8</ele>
        <time>2019-07-10T08:14:53Z</time>
      </trkpt>
      <trkpt lat="44.01733" lon="4.54341">
        <ele>175.6</ele>
        <time>2019-07-10T08:14:54Z</time>
      </trkpt>
      <trkpt lat="44.01739" lon="4.54335">
        <ele>175.2</ele>
        <time>2019-07-10T08:14:55Z</time>
      </trkpt>
      <trkpt lat="44.01749" lon="4.54318">
        <ele>174.8</ele>
        <time>2019-07-10T08:14:57Z</time>
      </trkpt>
      <trkpt lat="44.01753" lon="4.54308">
        <ele>174</ele>
        <time>2019-07-10T08:14:58Z</time>
      </trkpt>
      <trkpt lat="44.01756" lon="4.54297">
        <ele>173.6</ele>
        <time>2019-07-10T08:14:59Z</time>
      </trkpt>
      <trkpt lat="44.01758" lon="4.54285">
        <ele>172.8</ele>
        <time>2019-07-10T08:15:00Z</time>
      </trkpt>
      <trkpt lat="44.01759" lon="4.54272">
        <ele>172.6</ele>
        <time>2019-07-10T08:15:01Z</time>
      </trkpt>
      <trkpt lat="44.01759" lon="4.54259">
        <ele>172.2</ele>
        <time>2019-07-10T08:15:02Z</time>
      </trkpt>
      <trkpt lat="44.01758" lon="4.54246">
        <ele>171.6</ele>
        <time>2019-07-10T08:15:03Z</time>
      </trkpt>
      <trkpt lat="44.01756" lon="4.54232">
        <ele>170.4</ele>
        <time>2019-07-10T08:15:04Z</time>
      </trkpt>
      <trkpt lat="44.01753" lon="4.54219">
        <ele>170</ele>
        <time>2019-07-10T08:15:05Z</time>
      </trkpt>
      <trkpt lat="44.01745" lon="4.54194">
        <ele>168.8</ele>
        <time>2019-07-10T08:15:07Z</time>
      </trkpt>
      <trkpt lat="44.01732" lon="4.5416">
        <ele>167.8</ele>
        <time>2019-07-10T08:15:10Z</time>
      </trkpt>
      <trkpt lat="44.01723" lon="4.5414">
        <ele>167.2</ele>
        <time>2019-07-10T08:15:12Z</time>
      </trkpt>
      <trkpt lat="44.01719" lon="4.54131">
        <ele>165.8</ele>
        <time>2019-07-10T08:15:13Z</time>
      </trkpt>
      <trkpt lat="44.01714" lon="4.54124">
        <ele>165.4</ele>
        <time>2019-07-10T08:15:14Z</time>
      </trkpt>
      <trkpt lat="44.01706" lon="4.54111">
        <ele>164.6</ele>
        <time>2019-07-10T08:15:16Z</time>
      </trkpt>
      <trkpt lat="44.01703" lon="4.54106">
        <ele>164.6</ele>
        <time>2019-07-10T08:15:17Z</time>
      </trkpt>
      <trkpt lat="44.01699" lon="4.54101">
        <ele>164.8</ele>
        <time>2019-07-10T08:15:18Z</time>
      </trkpt>
      <trkpt lat="44.01694" lon="4.5409">
        <ele>164.6</ele>
        <time>2019-07-10T08:15:20Z</time>
      </trkpt>
      <trkpt lat="44.0169" lon="4.54076">
        <ele>165</ele>
        <time>2019-07-10T08:15:23Z</time>
      </trkpt>
      <trkpt lat="44.01687" lon="4.54058">
        <ele>166.2</ele>
        <time>2019-07-10T08:15:27Z</time>
      </trkpt>
      <trkpt lat="44.01687" lon="4.54049">
        <ele>166.8</ele>
        <time>2019-07-10T08:15:29Z</time>
      </trkpt>
      <trkpt lat="44.0169" lon="4.54029">
        <ele>167.6</ele>
        <time>2019-07-10T08:15:34Z</time>
      </trkpt>
      <trkpt lat="44.01691" lon="4.54026">
        <ele>167.8</ele>
        <time>2019-07-10T08:15:35Z</time>
      </trkpt>
      <trkpt lat="44.01694" lon="4.54021">
        <ele>168</ele>
        <time>2019-07-10T08:15:37Z</time>
      </trkpt>
      <trkpt lat="44.01699" lon="4.54012">
        <ele>168.8</ele>
        <time>2019-07-10T08:15:40Z</time>
      </trkpt>
      <trkpt lat="44.01707" lon="4.54002">
        <ele>169.8</ele>
        <time>2019-07-10T08:15:44Z</time>
      </trkpt>
      <trkpt lat="44.01708" lon="4.53999">
        <ele>169.8</ele>
        <time>2019-07-10T08:15:45Z</time>
      </trkpt>
      <trkpt lat="44.01712" lon="4.53994">
        <ele>170.2</ele>
        <time>2019-07-10T08:15:47Z</time>
      </trkpt>
      <trkpt lat="44.01719" lon="4.53983">
        <ele>170.2</ele>
        <time>2019-07-10T08:15:51Z</time>
      </trkpt>
      <trkpt lat="44.01728" lon="4.53971">
        <ele>171</ele>
        <time>2019-07-10T08:15:56Z</time>
      </trkpt>
      <trkpt lat="44.01736" lon="4.53959">
        <ele>171.8</ele>
        <time>2019-07-10T08:16:01Z</time>
      </trkpt>
      <trkpt lat="44.01742" lon="4.53953">
        <ele>172.2</ele>
        <time>2019-07-10T08:16:04Z</time>
      </trkpt>
      <trkpt lat="44.01748" lon="4.53944">
        <ele>173</ele>
        <time>2019-07-10T08:16:08Z</time>
      </trkpt>
      <trkpt lat="44.01753" lon="4.53937">
        <ele>173.6</ele>
        <time>2019-07-10T08:16:11Z</time>
      </trkpt>
      <trkpt lat="44.01767" lon="4.53919">
        <ele>174.6</ele>
        <time>2019-07-10T08:16:19Z</time>
      </trkpt>
      <trkpt lat="44.01773" lon="4.53913">
        <ele>174.6</ele>
        <time>2019-07-10T08:16:22Z</time>
      </trkpt>
      <trkpt lat="44.01777" lon="4.53909">
        <ele>175</ele>
        <time>2019-07-10T08:16:24Z</time>
      </trkpt>
      <trkpt lat="44.01779" lon="4.53907">
        <ele>175.6</ele>
        <time>2019-07-10T08:16:25Z</time>
      </trkpt>
      <trkpt lat="44.01785" lon="4.53902">
        <ele>176.2</ele>
        <time>2019-07-10T08:16:28Z</time>
      </trkpt>
      <trkpt lat="44.01797" lon="4.53892">
        <ele>177.4</ele>
        <time>2019-07-10T08:16:34Z</time>
      </trkpt>
      <trkpt lat="44.01803" lon="4.53887">
        <ele>177.6</ele>
        <time>2019-07-10T08:16:37Z</time>
      </trkpt>
      <trkpt lat="44.01815" lon="4.53875">
        <ele>178</ele>
        <time>2019-07-10T08:16:43Z</time>
      </trkpt>
      <trkpt lat="44.01817" lon="4.53874">
        <ele>178.2</ele>
        <time>2019-07-10T08:16:44Z</time>
      </trkpt>
      <trkpt lat="44.01831" lon="4.53862">
        <ele>179</ele>
        <time>2019-07-10T08:16:51Z</time>
      </trkpt>
      <trkpt lat="44.01833" lon="4.5386">
        <ele>179.2</ele>
        <time>2019-07-10T08:16:52Z</time>
      </trkpt>
      <trkpt lat="44.01836" lon="4.53859">
        <ele>179.2</ele>
        <time>2019-07-10T08:16:53Z</time>
      </trkpt>
      <trkpt lat="44.01844" lon="4.53853">
        <ele>180</ele>
        <time>2019-07-10T08:16:57Z</time>
      </trkpt>
      <trkpt lat="44.01852" lon="4.53849">
        <ele>181</ele>
        <time>2019-07-10T08:17:01Z</time>
      </trkpt>
      <trkpt lat="44.01868" lon="4.53841">
        <ele>182.4</ele>
        <time>2019-07-10T08:17:08Z</time>
      </trkpt>
      <trkpt lat="44.01874" lon="4.53836">
        <ele>182.8</ele>
        <time>2019-07-10T08:17:11Z</time>
      </trkpt>
      <trkpt lat="44.01876" lon="4.53835">
        <ele>183</ele>
        <time>2019-07-10T08:17:12Z</time>
      </trkpt>
      <trkpt lat="44.01886" lon="4.5383">
        <ele>183.2</ele>
        <time>2019-07-10T08:17:16Z</time>
      </trkpt>
      <trkpt lat="44.01908" lon="4.53816">
        <ele>183.6</ele>
        <time>2019-07-10T08:17:25Z</time>
      </trkpt>
      <trkpt lat="44.01929" lon="4.53806">
        <ele>184.2</ele>
        <time>2019-07-10T08:17:33Z</time>
      </trkpt>
      <trkpt lat="44.01947" lon="4.53796">
        <ele>184.4</ele>
        <time>2019-07-10T08:17:40Z</time>
      </trkpt>
      <trkpt lat="44.01964" lon="4.53783">
        <ele>185.4</ele>
        <time>2019-07-10T08:17:47Z</time>
      </trkpt>
      <trkpt lat="44.01969" lon="4.5378">
        <ele>185.4</ele>
        <time>2019-07-10T08:17:49Z</time>
      </trkpt>
      <trkpt lat="44.01983" lon="4.53768">
        <ele>185.8</ele>
        <time>2019-07-10T08:17:55Z</time>
      </trkpt>
      <trkpt lat="44.02005" lon="4.53746">
        <ele>186.8</ele>
        <time>2019-07-10T08:18:05Z</time>
      </trkpt>
      <trkpt lat="44.02007" lon="4.53744">
        <ele>186.6</ele>
        <time>2019-07-10T08:18:06Z</time>
      </trkpt>
      <trkpt lat="44.02027" lon="4.53725">
        <ele>187.2</ele>
        <time>2019-07-10T08:18:15Z</time>
      </trkpt>
      <trkpt lat="44.02033" lon="4.53719">
        <ele>187.2</ele>
        <time>2019-07-10T08:18:18Z</time>
      </trkpt>
      <trkpt lat="44.02043" lon="4.53709">
        <ele>188.4</ele>
        <time>2019-07-10T08:18:23Z</time>
      </trkpt>
      <trkpt lat="44.02045" lon="4.53707">
        <ele>188.6</ele>
        <time>2019-07-10T08:18:24Z</time>
      </trkpt>
      <trkpt lat="44.02064" lon="4.5369">
        <ele>189</ele>
        <time>2019-07-10T08:18:32Z</time>
      </trkpt>
      <trkpt lat="44.0208" lon="4.53673">
        <ele>189.4</ele>
        <time>2019-07-10T08:18:39Z</time>
      </trkpt>
      <trkpt lat="44.02082" lon="4.53671">
        <ele>189.4</ele>
        <time>2019-07-10T08:18:40Z</time>
      </trkpt>
      <trkpt lat="44.02092" lon="4.53659">
        <ele>189.8</ele>
        <time>2019-07-10T08:18:44Z</time>
      </trkpt>
      <trkpt lat="44.02095" lon="4.53657">
        <ele>189.8</ele>
        <time>2019-07-10T08:18:45Z</time>
      </trkpt>
      <trkpt lat="44.02102" lon="4.53651">
        <ele>190</ele>
        <time>2019-07-10T08:18:47Z</time>
      </trkpt>
      <trkpt lat="44.02105" lon="4.53647">
        <ele>190</ele>
        <time>2019-07-10T08:18:48Z</time>
      </trkpt>
      <trkpt lat="44.02111" lon="4.5364">
        <ele>190</ele>
        <time>2019-07-10T08:18:50Z</time>
      </trkpt>
      <trkpt lat="44.02121" lon="4.53628">
        <ele>189.8</ele>
        <time>2019-07-10T08:18:53Z</time>
      </trkpt>
      <trkpt lat="44.02125" lon="4.53624">
        <ele>189.8</ele>
        <time>2019-07-10T08:18:54Z</time>
      </trkpt>
      <trkpt lat="44.02128" lon="4.5362">
        <ele>189.6</ele>
        <time>2019-07-10T08:18:55Z</time>
      </trkpt>
      <trkpt lat="44.02159" lon="4.53585">
        <ele>188.8</ele>
        <time>2019-07-10T08:19:03Z</time>
      </trkpt>
      <trkpt lat="44.02178" lon="4.53564">
        <ele>188.6</ele>
        <time>2019-07-10T08:19:08Z</time>
      </trkpt>
      <trkpt lat="44.02182" lon="4.5356">
        <ele>188.6</ele>
        <time>2019-07-10T08:19:09Z</time>
      </trkpt>
      <trkpt lat="44.02185" lon="4.53555">
        <ele>188.4</ele>
        <time>2019-07-10T08:19:10Z</time>
      </trkpt>
      <trkpt lat="44.02188" lon="4.5355">
        <ele>188.2</ele>
        <time>2019-07-10T08:19:11Z</time>
      </trkpt>
      <trkpt lat="44.02191" lon="4.53545">
        <ele>188</ele>
        <time>2019-07-10T08:19:12Z</time>
      </trkpt>
      <trkpt lat="44.02193" lon="4.53539">
        <ele>188</ele>
        <time>2019-07-10T08:19:13Z</time>
      </trkpt>
      <trkpt lat="44.02195" lon="4.53532">
        <ele>187.8</ele>
        <time>2019-07-10T08:19:14Z</time>
      </trkpt>
      <trkpt lat="44.02196" lon="4.53526">
        <ele>187.6</ele>
        <time>2019-07-10T08:19:15Z</time>
      </trkpt>
      <trkpt lat="44.02197" lon="4.53519">
        <ele>187.6</ele>
        <time>2019-07-10T08:19:16Z</time>
      </trkpt>
      <trkpt lat="44.02198" lon="4.53513">
        <ele>187.4</ele>
        <time>2019-07-10T08:19:17Z</time>
      </trkpt>
      <trkpt lat="44.02198" lon="4.53506">
        <ele>187.4</ele>
        <time>2019-07-10T08:19:18Z</time>
      </trkpt>
      <trkpt lat="44.02198" lon="4.53488">
        <ele>187.2</ele>
        <time>2019-07-10T08:19:21Z</time>
      </trkpt>
      <trkpt lat="44.02199" lon="4.53482">
        <ele>187.2</ele>
        <time>2019-07-10T08:19:22Z</time>
      </trkpt>
      <trkpt lat="44.02198" lon="4.53464">
        <ele>186.8</ele>
        <time>2019-07-10T08:19:25Z</time>
      </trkpt>
      <trkpt lat="44.02198" lon="4.53457">
        <ele>186.6</ele>
        <time>2019-07-10T08:19:26Z</time>
      </trkpt>
      <trkpt lat="44.02198" lon="4.5345">
        <ele>186.6</ele>
        <time>2019-07-10T08:19:27Z</time>
      </trkpt>
      <trkpt lat="44.02198" lon="4.53443">
        <ele>186.8</ele>
        <time>2019-07-10T08:19:28Z</time>
      </trkpt>
      <trkpt lat="44.02199" lon="4.53436">
        <ele>186.6</ele>
        <time>2019-07-10T08:19:29Z</time>
      </trkpt>
      <trkpt lat="44.02199" lon="4.53429">
        <ele>186.6</ele>
        <time>2019-07-10T08:19:30Z</time>
      </trkpt>
      <trkpt lat="44.02199" lon="4.53415">
        <ele>186.6</ele>
        <time>2019-07-10T08:19:32Z</time>
      </trkpt>
      <trkpt lat="44.022" lon="4.53393">
        <ele>186.4</ele>
        <time>2019-07-10T08:19:35Z</time>
      </trkpt>
      <trkpt lat="44.022" lon="4.53386">
        <ele>186.2</ele>
        <time>2019-07-10T08:19:36Z</time>
      </trkpt>
      <trkpt lat="44.022" lon="4.53378">
        <ele>186.2</ele>
        <time>2019-07-10T08:19:37Z</time>
      </trkpt>
      <trkpt lat="44.022" lon="4.53371">
        <ele>186</ele>
        <time>2019-07-10T08:19:38Z</time>
      </trkpt>
      <trkpt lat="44.022" lon="4.53364">
        <ele>186</ele>
        <time>2019-07-10T08:19:39Z</time>
      </trkpt>
      <trkpt lat="44.022" lon="4.53348">
        <ele>185.6</ele>
        <time>2019-07-10T08:19:41Z</time>
      </trkpt>
      <trkpt lat="44.022" lon="4.53333">
        <ele>185.4</ele>
        <time>2019-07-10T08:19:43Z</time>
      </trkpt>
      <trkpt lat="44.02201" lon="4.53325">
        <ele>185.2</ele>
        <time>2019-07-10T08:19:44Z</time>
      </trkpt>
      <trkpt lat="44.02202" lon="4.53316">
        <ele>185</ele>
        <time>2019-07-10T08:19:45Z</time>
      </trkpt>
      <trkpt lat="44.02203" lon="4.53308">
        <ele>184.8</ele>
        <time>2019-07-10T08:19:46Z</time>
      </trkpt>
      <trkpt lat="44.02204" lon="4.533">
        <ele>184.8</ele>
        <time>2019-07-10T08:19:47Z</time>
      </trkpt>
      <trkpt lat="44.02206" lon="4.53291">
        <ele>184.6</ele>
        <time>2019-07-10T08:19:48Z</time>
      </trkpt>
      <trkpt lat="44.02207" lon="4.53283">
        <ele>184.4</ele>
        <time>2019-07-10T08:19:49Z</time>
      </trkpt>
      <trkpt lat="44.02209" lon="4.53274">
        <ele>184.4</ele>
        <time>2019-07-10T08:19:50Z</time>
      </trkpt>
      <trkpt lat="44.02211" lon="4.53265">
        <ele>184.4</ele>
        <time>2019-07-10T08:19:51Z</time>
      </trkpt>
      <trkpt lat="44.02213" lon="4.53256">
        <ele>184.2</ele>
        <time>2019-07-10T08:19:52Z</time>
      </trkpt>
      <trkpt lat="44.02215" lon="4.53247">
        <ele>184</ele>
        <time>2019-07-10T08:19:53Z</time>
      </trkpt>
      <trkpt lat="44.0222" lon="4.5322">
        <ele>183.4</ele>
        <time>2019-07-10T08:19:56Z</time>
      </trkpt>
      <trkpt lat="44.02222" lon="4.5321">
        <ele>183.4</ele>
        <time>2019-07-10T08:19:57Z</time>
      </trkpt>
      <trkpt lat="44.02227" lon="4.53183">
        <ele>181.8</ele>
        <time>2019-07-10T08:20:00Z</time>
      </trkpt>
      <trkpt lat="44.02228" lon="4.53175">
        <ele>181.6</ele>
        <time>2019-07-10T08:20:01Z</time>
      </trkpt>
      <trkpt lat="44.02227" lon="4.53158">
        <ele>180.8</ele>
        <time>2019-07-10T08:20:03Z</time>
      </trkpt>
      <trkpt lat="44.02221" lon="4.53143">
        <ele>180.6</ele>
        <time>2019-07-10T08:20:05Z</time>
      </trkpt>
      <trkpt lat="44.02216" lon="4.53136">
        <ele>180.4</ele>
        <time>2019-07-10T08:20:06Z</time>
      </trkpt>
      <trkpt lat="44.02204" lon="4.53124">
        <ele>180</ele>
        <time>2019-07-10T08:20:08Z</time>
      </trkpt>
      <trkpt lat="44.02185" lon="4.53106">
        <ele>178.8</ele>
        <time>2019-07-10T08:20:11Z</time>
      </trkpt>
      <trkpt lat="44.02174" lon="4.53092">
        <ele>178.2</ele>
        <time>2019-07-10T08:20:13Z</time>
      </trkpt>
      <trkpt lat="44.02171" lon="4.53084">
        <ele>177.4</ele>
        <time>2019-07-10T08:20:14Z</time>
      </trkpt>
      <trkpt lat="44.02168" lon="4.53075">
        <ele>177.2</ele>
        <time>2019-07-10T08:20:15Z</time>
      </trkpt>
      <trkpt lat="44.02166" lon="4.53056">
        <ele>176.2</ele>
        <time>2019-07-10T08:20:17Z</time>
      </trkpt>
      <trkpt lat="44.02166" lon="4.53037">
        <ele>175.8</ele>
        <time>2019-07-10T08:20:19Z</time>
      </trkpt>
      <trkpt lat="44.02166" lon="4.53028">
        <ele>175.2</ele>
        <time>2019-07-10T08:20:20Z</time>
      </trkpt>
      <trkpt lat="44.02167" lon="4.52987">
        <ele>173.4</ele>
        <time>2019-07-10T08:20:25Z</time>
      </trkpt>
      <trkpt lat="44.02167" lon="4.52979">
        <ele>173.4</ele>
        <time>2019-07-10T08:20:26Z</time>
      </trkpt>
      <trkpt lat="44.02166" lon="4.52937">
        <ele>172.8</ele>
        <time>2019-07-10T08:20:32Z</time>
      </trkpt>
      <trkpt lat="44.02165" lon="4.52931">
        <ele>172.8</ele>
        <time>2019-07-10T08:20:33Z</time>
      </trkpt>
      <trkpt lat="44.02165" lon="4.52925">
        <ele>172.8</ele>
        <time>2019-07-10T08:20:34Z</time>
      </trkpt>
      <trkpt lat="44.02164" lon="4.52914">
        <ele>172.8</ele>
        <time>2019-07-10T08:20:36Z</time>
      </trkpt>
      <trkpt lat="44.02164" lon="4.52908">
        <ele>172.8</ele>
        <time>2019-07-10T08:20:37Z</time>
      </trkpt>
      <trkpt lat="44.02165" lon="4.52877">
        <ele>174.4</ele>
        <time>2019-07-10T08:20:44Z</time>
      </trkpt>
      <trkpt lat="44.02166" lon="4.52873">
        <ele>174.4</ele>
        <time>2019-07-10T08:20:45Z</time>
      </trkpt>
      <trkpt lat="44.02169" lon="4.52852">
        <ele>175.2</ele>
        <time>2019-07-10T08:20:50Z</time>
      </trkpt>
      <trkpt lat="44.02174" lon="4.52828">
        <ele>176</ele>
        <time>2019-07-10T08:20:56Z</time>
      </trkpt>
      <trkpt lat="44.02176" lon="4.5282">
        <ele>176.2</ele>
        <time>2019-07-10T08:20:58Z</time>
      </trkpt>
      <trkpt lat="44.0218" lon="4.52793">
        <ele>177</ele>
        <time>2019-07-10T08:21:05Z</time>
      </trkpt>
      <trkpt lat="44.02181" lon="4.52786">
        <ele>177.4</ele>
        <time>2019-07-10T08:21:07Z</time>
      </trkpt>
      <trkpt lat="44.02181" lon="4.52771">
        <ele>177.8</ele>
        <time>2019-07-10T08:21:11Z</time>
      </trkpt>
      <trkpt lat="44.0218" lon="4.52764">
        <ele>177.8</ele>
        <time>2019-07-10T08:21:13Z</time>
      </trkpt>
      <trkpt lat="44.02178" lon="4.52754">
        <ele>178.4</ele>
        <time>2019-07-10T08:21:16Z</time>
      </trkpt>
      <trkpt lat="44.02176" lon="4.52743">
        <ele>179</ele>
        <time>2019-07-10T08:21:19Z</time>
      </trkpt>
      <trkpt lat="44.02174" lon="4.52732">
        <ele>179</ele>
        <time>2019-07-10T08:21:22Z</time>
      </trkpt>
      <trkpt lat="44.0217" lon="4.52713">
        <ele>179.2</ele>
        <time>2019-07-10T08:21:27Z</time>
      </trkpt>
      <trkpt lat="44.02168" lon="4.527">
        <ele>179.6</ele>
        <time>2019-07-10T08:21:30Z</time>
      </trkpt>
      <trkpt lat="44.02164" lon="4.52671">
        <ele>180</ele>
        <time>2019-07-10T08:21:37Z</time>
      </trkpt>
      <trkpt lat="44.02161" lon="4.52635">
        <ele>180.4</ele>
        <time>2019-07-10T08:21:44Z</time>
      </trkpt>
      <trkpt lat="44.0216" lon="4.52614">
        <ele>180.6</ele>
        <time>2019-07-10T08:21:48Z</time>
      </trkpt>
      <trkpt lat="44.02159" lon="4.52585">
        <ele>181</ele>
        <time>2019-07-10T08:21:53Z</time>
      </trkpt>
      <trkpt lat="44.02158" lon="4.52567">
        <ele>181.2</ele>
        <time>2019-07-10T08:21:56Z</time>
      </trkpt>
      <trkpt lat="44.02158" lon="4.5256">
        <ele>181.2</ele>
        <time>2019-07-10T08:21:57Z</time>
      </trkpt>
      <trkpt lat="44.02162" lon="4.52528">
        <ele>181.2</ele>
        <time>2019-07-10T08:22:02Z</time>
      </trkpt>
      <trkpt lat="44.02163" lon="4.52522">
        <ele>181</ele>
        <time>2019-07-10T08:22:03Z</time>
      </trkpt>
      <trkpt lat="44.02165" lon="4.52509">
        <ele>180.8</ele>
        <time>2019-07-10T08:22:05Z</time>
      </trkpt>
      <trkpt lat="44.02171" lon="4.52466">
        <ele>180.6</ele>
        <time>2019-07-10T08:22:12Z</time>
      </trkpt>
      <trkpt lat="44.02175" lon="4.52414">
        <ele>180.8</ele>
        <time>2019-07-10T08:22:21Z</time>
      </trkpt>
      <trkpt lat="44.02176" lon="4.52377">
        <ele>181.2</ele>
        <time>2019-07-10T08:22:28Z</time>
      </trkpt>
      <trkpt lat="44.02177" lon="4.52355">
        <ele>181.4</ele>
        <time>2019-07-10T08:22:32Z</time>
      </trkpt>
      <trkpt lat="44.02177" lon="4.5235">
        <ele>181.6</ele>
        <time>2019-07-10T08:22:33Z</time>
      </trkpt>
      <trkpt lat="44.02177" lon="4.52334">
        <ele>181.6</ele>
        <time>2019-07-10T08:22:36Z</time>
      </trkpt>
      <trkpt lat="44.02178" lon="4.52329">
        <ele>181.6</ele>
        <time>2019-07-10T08:22:37Z</time>
      </trkpt>
      <trkpt lat="44.02181" lon="4.52281">
        <ele>182.4</ele>
        <time>2019-07-10T08:22:47Z</time>
      </trkpt>
      <trkpt lat="44.02181" lon="4.52276">
        <ele>182.4</ele>
        <time>2019-07-10T08:22:48Z</time>
      </trkpt>
      <trkpt lat="44.02183" lon="4.52257">
        <ele>183.4</ele>
        <time>2019-07-10T08:22:52Z</time>
      </trkpt>
      <trkpt lat="44.02186" lon="4.52236">
        <ele>183.8</ele>
        <time>2019-07-10T08:22:56Z</time>
      </trkpt>
      <trkpt lat="44.02187" lon="4.52227">
        <ele>184</ele>
        <time>2019-07-10T08:22:58Z</time>
      </trkpt>
      <trkpt lat="44.02187" lon="4.52221">
        <ele>184</ele>
        <time>2019-07-10T08:22:59Z</time>
      </trkpt>
      <trkpt lat="44.02189" lon="4.52195">
        <ele>184.6</ele>
        <time>2019-07-10T08:23:04Z</time>
      </trkpt>
      <trkpt lat="44.02189" lon="4.52185">
        <ele>184.6</ele>
        <time>2019-07-10T08:23:06Z</time>
      </trkpt>
      <trkpt lat="44.02189" lon="4.5218">
        <ele>184.4</ele>
        <time>2019-07-10T08:23:07Z</time>
      </trkpt>
      <trkpt lat="44.02189" lon="4.52175">
        <ele>184.4</ele>
        <time>2019-07-10T08:23:08Z</time>
      </trkpt>
      <trkpt lat="44.0219" lon="4.5217">
        <ele>184.4</ele>
        <time>2019-07-10T08:23:09Z</time>
      </trkpt>
      <trkpt lat="44.0219" lon="4.52165">
        <ele>184.6</ele>
        <time>2019-07-10T08:23:10Z</time>
      </trkpt>
      <trkpt lat="44.02194" lon="4.52128">
        <ele>184.8</ele>
        <time>2019-07-10T08:23:17Z</time>
      </trkpt>
      <trkpt lat="44.02195" lon="4.52112">
        <ele>185</ele>
        <time>2019-07-10T08:23:20Z</time>
      </trkpt>
      <trkpt lat="44.02196" lon="4.521">
        <ele>185.2</ele>
        <time>2019-07-10T08:23:22Z</time>
      </trkpt>
      <trkpt lat="44.02199" lon="4.52077">
        <ele>185.2</ele>
        <time>2019-07-10T08:23:26Z</time>
      </trkpt>
      <trkpt lat="44.02203" lon="4.52017">
        <ele>185</ele>
        <time>2019-07-10T08:23:36Z</time>
      </trkpt>
      <trkpt lat="44.02204" lon="4.52011">
        <ele>185</ele>
        <time>2019-07-10T08:23:37Z</time>
      </trkpt>
      <trkpt lat="44.02205" lon="4.51989">
        <ele>185.2</ele>
        <time>2019-07-10T08:23:41Z</time>
      </trkpt>
      <trkpt lat="44.02206" lon="4.51983">
        <ele>185.2</ele>
        <time>2019-07-10T08:23:42Z</time>
      </trkpt>
      <trkpt lat="44.02208" lon="4.51963">
        <ele>185.4</ele>
        <time>2019-07-10T08:23:46Z</time>
      </trkpt>
      <trkpt lat="44.02211" lon="4.51899">
        <ele>185.6</ele>
        <time>2019-07-10T08:23:58Z</time>
      </trkpt>
      <trkpt lat="44.02212" lon="4.51869">
        <ele>185.4</ele>
        <time>2019-07-10T08:24:03Z</time>
      </trkpt>
      <trkpt lat="44.02213" lon="4.51857">
        <ele>185.4</ele>
        <time>2019-07-10T08:24:05Z</time>
      </trkpt>
      <trkpt lat="44.02213" lon="4.51851">
        <ele>185.4</ele>
        <time>2019-07-10T08:24:06Z</time>
      </trkpt>
      <trkpt lat="44.02212" lon="4.51816">
        <ele>185.4</ele>
        <time>2019-07-10T08:24:11Z</time>
      </trkpt>
      <trkpt lat="44.02212" lon="4.51809">
        <ele>185.2</ele>
        <time>2019-07-10T08:24:12Z</time>
      </trkpt>
      <trkpt lat="44.02212" lon="4.51802">
        <ele>185.2</ele>
        <time>2019-07-10T08:24:13Z</time>
      </trkpt>
      <trkpt lat="44.02209" lon="4.51728">
        <ele>184.8</ele>
        <time>2019-07-10T08:24:24Z</time>
      </trkpt>
      <trkpt lat="44.02207" lon="4.5166">
        <ele>185</ele>
        <time>2019-07-10T08:24:34Z</time>
      </trkpt>
      <trkpt lat="44.02207" lon="4.51619">
        <ele>185.2</ele>
        <time>2019-07-10T08:24:40Z</time>
      </trkpt>
      <trkpt lat="44.02206" lon="4.51599">
        <ele>185</ele>
        <time>2019-07-10T08:24:43Z</time>
      </trkpt>
      <trkpt lat="44.02206" lon="4.51581">
        <ele>184.6</ele>
        <time>2019-07-10T08:24:46Z</time>
      </trkpt>
      <trkpt lat="44.02205" lon="4.51569">
        <ele>184.2</ele>
        <time>2019-07-10T08:24:48Z</time>
      </trkpt>
      <trkpt lat="44.02205" lon="4.51564">
        <ele>184.2</ele>
        <time>2019-07-10T08:24:49Z</time>
      </trkpt>
      <trkpt lat="44.02201" lon="4.51528">
        <ele>184</ele>
        <time>2019-07-10T08:24:55Z</time>
      </trkpt>
      <trkpt lat="44.022" lon="4.51522">
        <ele>184</ele>
        <time>2019-07-10T08:24:56Z</time>
      </trkpt>
      <trkpt lat="44.02199" lon="4.51516">
        <ele>183.8</ele>
        <time>2019-07-10T08:24:57Z</time>
      </trkpt>
      <trkpt lat="44.02198" lon="4.5151">
        <ele>184</ele>
        <time>2019-07-10T08:24:58Z</time>
      </trkpt>
      <trkpt lat="44.02198" lon="4.51504">
        <ele>184</ele>
        <time>2019-07-10T08:24:59Z</time>
      </trkpt>
      <trkpt lat="44.02193" lon="4.51465">
        <ele>183.8</ele>
        <time>2019-07-10T08:25:05Z</time>
      </trkpt>
      <trkpt lat="44.02187" lon="4.51426">
        <ele>184</ele>
        <time>2019-07-10T08:25:11Z</time>
      </trkpt>
      <trkpt lat="44.02185" lon="4.51414">
        <ele>184</ele>
        <time>2019-07-10T08:25:13Z</time>
      </trkpt>
      <trkpt lat="44.0218" lon="4.51373">
        <ele>184.4</ele>
        <time>2019-07-10T08:25:20Z</time>
      </trkpt>
      <trkpt lat="44.02179" lon="4.51367">
        <ele>184.2</ele>
        <time>2019-07-10T08:25:21Z</time>
      </trkpt>
      <trkpt lat="44.02177" lon="4.51356">
        <ele>184.2</ele>
        <time>2019-07-10T08:25:23Z</time>
      </trkpt>
      <trkpt lat="44.02176" lon="4.5134">
        <ele>184.2</ele>
        <time>2019-07-10T08:25:26Z</time>
      </trkpt>
      <trkpt lat="44.02174" lon="4.5133">
        <ele>184</ele>
        <time>2019-07-10T08:25:28Z</time>
      </trkpt>
      <trkpt lat="44.02169" lon="4.51297">
        <ele>184</ele>
        <time>2019-07-10T08:25:34Z</time>
      </trkpt>
      <trkpt lat="44.02165" lon="4.51268">
        <ele>184.6</ele>
        <time>2019-07-10T08:25:39Z</time>
      </trkpt>
      <trkpt lat="44.02158" lon="4.51225">
        <ele>185</ele>
        <time>2019-07-10T08:25:47Z</time>
      </trkpt>
      <trkpt lat="44.02155" lon="4.51215">
        <ele>185.2</ele>
        <time>2019-07-10T08:25:49Z</time>
      </trkpt>
      <trkpt lat="44.02139" lon="4.51188">
        <ele>184.4</ele>
        <time>2019-07-10T08:25:55Z</time>
      </trkpt>
      <trkpt lat="44.02133" lon="4.51179">
        <ele>184</ele>
        <time>2019-07-10T08:25:57Z</time>
      </trkpt>
      <trkpt lat="44.02122" lon="4.51164">
        <ele>183.6</ele>
        <time>2019-07-10T08:26:00Z</time>
      </trkpt>
      <trkpt lat="44.02114" lon="4.51154">
        <ele>183.2</ele>
        <time>2019-07-10T08:26:02Z</time>
      </trkpt>
      <trkpt lat="44.02099" lon="4.51138">
        <ele>183</ele>
        <time>2019-07-10T08:26:05Z</time>
      </trkpt>
      <trkpt lat="44.02093" lon="4.51133">
        <ele>182.6</ele>
        <time>2019-07-10T08:26:06Z</time>
      </trkpt>
      <trkpt lat="44.02087" lon="4.51127">
        <ele>182.2</ele>
        <time>2019-07-10T08:26:07Z</time>
      </trkpt>
      <trkpt lat="44.02081" lon="4.51121">
        <ele>181.8</ele>
        <time>2019-07-10T08:26:08Z</time>
      </trkpt>
      <trkpt lat="44.02075" lon="4.51114">
        <ele>181.2</ele>
        <time>2019-07-10T08:26:09Z</time>
      </trkpt>
      <trkpt lat="44.02061" lon="4.511">
        <ele>180.4</ele>
        <time>2019-07-10T08:26:11Z</time>
      </trkpt>
      <trkpt lat="44.0204" lon="4.51078">
        <ele>179.4</ele>
        <time>2019-07-10T08:26:14Z</time>
      </trkpt>
      <trkpt lat="44.02033" lon="4.51071">
        <ele>179</ele>
        <time>2019-07-10T08:26:15Z</time>
      </trkpt>
      <trkpt lat="44.01996" lon="4.51034">
        <ele>178.2</ele>
        <time>2019-07-10T08:26:20Z</time>
      </trkpt>
      <trkpt lat="44.01988" lon="4.51026">
        <ele>178</ele>
        <time>2019-07-10T08:26:21Z</time>
      </trkpt>
      <trkpt lat="44.0198" lon="4.51017">
        <ele>177.8</ele>
        <time>2019-07-10T08:26:22Z</time>
      </trkpt>
      <trkpt lat="44.01973" lon="4.51007">
        <ele>177.6</ele>
        <time>2019-07-10T08:26:23Z</time>
      </trkpt>
      <trkpt lat="44.01966" lon="4.50998">
        <ele>176.8</ele>
        <time>2019-07-10T08:26:24Z</time>
      </trkpt>
      <trkpt lat="44.01953" lon="4.50982">
        <ele>175.2</ele>
        <time>2019-07-10T08:26:26Z</time>
      </trkpt>
      <trkpt lat="44.01942" lon="4.50968">
        <ele>174</ele>
        <time>2019-07-10T08:26:28Z</time>
      </trkpt>
      <trkpt lat="44.01938" lon="4.5096">
        <ele>173.6</ele>
        <time>2019-07-10T08:26:29Z</time>
      </trkpt>
      <trkpt lat="44.01937" lon="4.50951">
        <ele>173.4</ele>
        <time>2019-07-10T08:26:30Z</time>
      </trkpt>
      <trkpt lat="44.01937" lon="4.50943">
        <ele>172.8</ele>
        <time>2019-07-10T08:26:31Z</time>
      </trkpt>
      <trkpt lat="44.01939" lon="4.50934">
        <ele>172.6</ele>
        <time>2019-07-10T08:26:32Z</time>
      </trkpt>
      <trkpt lat="44.01943" lon="4.50927">
        <ele>172.2</ele>
        <time>2019-07-10T08:26:33Z</time>
      </trkpt>
      <trkpt lat="44.01949" lon="4.50922">
        <ele>172</ele>
        <time>2019-07-10T08:26:34Z</time>
      </trkpt>
      <trkpt lat="44.01956" lon="4.50918">
        <ele>171.4</ele>
        <time>2019-07-10T08:26:35Z</time>
      </trkpt>
      <trkpt lat="44.01971" lon="4.50913">
        <ele>170</ele>
        <time>2019-07-10T08:26:37Z</time>
      </trkpt>
      <trkpt lat="44.01999" lon="4.50904">
        <ele>168.8</ele>
        <time>2019-07-10T08:26:41Z</time>
      </trkpt>
      <trkpt lat="44.02005" lon="4.50901">
        <ele>168.4</ele>
        <time>2019-07-10T08:26:42Z</time>
      </trkpt>
      <trkpt lat="44.02023" lon="4.50886">
        <ele>167.8</ele>
        <time>2019-07-10T08:26:45Z</time>
      </trkpt>
      <trkpt lat="44.02028" lon="4.50881">
        <ele>167.4</ele>
        <time>2019-07-10T08:26:46Z</time>
      </trkpt>
      <trkpt lat="44.02034" lon="4.50875">
        <ele>167.2</ele>
        <time>2019-07-10T08:26:47Z</time>
      </trkpt>
      <trkpt lat="44.0204" lon="4.50869">
        <ele>167</ele>
        <time>2019-07-10T08:26:48Z</time>
      </trkpt>
      <trkpt lat="44.02045" lon="4.50863">
        <ele>166.8</ele>
        <time>2019-07-10T08:26:49Z</time>
      </trkpt>
      <trkpt lat="44.02051" lon="4.50857">
        <ele>166.8</ele>
        <time>2019-07-10T08:26:50Z</time>
      </trkpt>
      <trkpt lat="44.02062" lon="4.50846">
        <ele>166.4</ele>
        <time>2019-07-10T08:26:52Z</time>
      </trkpt>
      <trkpt lat="44.02068" lon="4.5084">
        <ele>166</ele>
        <time>2019-07-10T08:26:53Z</time>
      </trkpt>
      <trkpt lat="44.02079" lon="4.50831">
        <ele>165.6</ele>
        <time>2019-07-10T08:26:55Z</time>
      </trkpt>
      <trkpt lat="44.02084" lon="4.50826">
        <ele>165.4</ele>
        <time>2019-07-10T08:26:56Z</time>
      </trkpt>
      <trkpt lat="44.0209" lon="4.50821">
        <ele>165.2</ele>
        <time>2019-07-10T08:26:57Z</time>
      </trkpt>
      <trkpt lat="44.02097" lon="4.50806">
        <ele>164.8</ele>
        <time>2019-07-10T08:26:59Z</time>
      </trkpt>
      <trkpt lat="44.02098" lon="4.50797">
        <ele>164.6</ele>
        <time>2019-07-10T08:27:00Z</time>
      </trkpt>
      <trkpt lat="44.02096" lon="4.50788">
        <ele>164.4</ele>
        <time>2019-07-10T08:27:01Z</time>
      </trkpt>
      <trkpt lat="44.02088" lon="4.50771">
        <ele>164.2</ele>
        <time>2019-07-10T08:27:03Z</time>
      </trkpt>
      <trkpt lat="44.02075" lon="4.50757">
        <ele>163</ele>
        <time>2019-07-10T08:27:05Z</time>
      </trkpt>
      <trkpt lat="44.02068" lon="4.50751">
        <ele>162.6</ele>
        <time>2019-07-10T08:27:06Z</time>
      </trkpt>
      <trkpt lat="44.02061" lon="4.50745">
        <ele>161.8</ele>
        <time>2019-07-10T08:27:07Z</time>
      </trkpt>
      <trkpt lat="44.02045" lon="4.50731">
        <ele>160.8</ele>
        <time>2019-07-10T08:27:09Z</time>
      </trkpt>
      <trkpt lat="44.02029" lon="4.50718">
        <ele>160</ele>
        <time>2019-07-10T08:27:11Z</time>
      </trkpt>
      <trkpt lat="44.02012" lon="4.50705">
        <ele>159.4</ele>
        <time>2019-07-10T08:27:13Z</time>
      </trkpt>
      <trkpt lat="44.02005" lon="4.50698">
        <ele>159.2</ele>
        <time>2019-07-10T08:27:14Z</time>
      </trkpt>
      <trkpt lat="44.01993" lon="4.50682">
        <ele>157.2</ele>
        <time>2019-07-10T08:27:16Z</time>
      </trkpt>
      <trkpt lat="44.01988" lon="4.50675">
        <ele>156.8</ele>
        <time>2019-07-10T08:27:17Z</time>
      </trkpt>
      <trkpt lat="44.01977" lon="4.50662">
        <ele>155</ele>
        <time>2019-07-10T08:27:19Z</time>
      </trkpt>
      <trkpt lat="44.01975" lon="4.50655">
        <ele>154.4</ele>
        <time>2019-07-10T08:27:20Z</time>
      </trkpt>
      <trkpt lat="44.01974" lon="4.50647">
        <ele>154</ele>
        <time>2019-07-10T08:27:21Z</time>
      </trkpt>
      <trkpt lat="44.01975" lon="4.50639">
        <ele>153</ele>
        <time>2019-07-10T08:27:22Z</time>
      </trkpt>
      <trkpt lat="44.01979" lon="4.50631">
        <ele>152.4</ele>
        <time>2019-07-10T08:27:23Z</time>
      </trkpt>
      <trkpt lat="44.01987" lon="4.50613">
        <ele>151.2</ele>
        <time>2019-07-10T08:27:25Z</time>
      </trkpt>
      <trkpt lat="44.01994" lon="4.50593">
        <ele>150.2</ele>
        <time>2019-07-10T08:27:27Z</time>
      </trkpt>
      <trkpt lat="44.01997" lon="4.50582">
        <ele>150.2</ele>
        <time>2019-07-10T08:27:28Z</time>
      </trkpt>
      <trkpt lat="44.02001" lon="4.50572">
        <ele>149.4</ele>
        <time>2019-07-10T08:27:29Z</time>
      </trkpt>
      <trkpt lat="44.02004" lon="4.50563">
        <ele>149.2</ele>
        <time>2019-07-10T08:27:30Z</time>
      </trkpt>
      <trkpt lat="44.0201" lon="4.50543">
        <ele>148.2</ele>
        <time>2019-07-10T08:27:32Z</time>
      </trkpt>
      <trkpt lat="44.02017" lon="4.50525">
        <ele>146.8</ele>
        <time>2019-07-10T08:27:34Z</time>
      </trkpt>
      <trkpt lat="44.02024" lon="4.50505">
        <ele>145.8</ele>
        <time>2019-07-10T08:27:36Z</time>
      </trkpt>
      <trkpt lat="44.02031" lon="4.50487">
        <ele>145</ele>
        <time>2019-07-10T08:27:38Z</time>
      </trkpt>
      <trkpt lat="44.02042" lon="4.50459">
        <ele>143.8</ele>
        <time>2019-07-10T08:27:41Z</time>
      </trkpt>
      <trkpt lat="44.02049" lon="4.50441">
        <ele>143.6</ele>
        <time>2019-07-10T08:27:43Z</time>
      </trkpt>
      <trkpt lat="44.02058" lon="4.50421">
        <ele>143</ele>
        <time>2019-07-10T08:27:46Z</time>
      </trkpt>
      <trkpt lat="44.02059" lon="4.50416">
        <ele>142.8</ele>
        <time>2019-07-10T08:27:47Z</time>
      </trkpt>
      <trkpt lat="44.02059" lon="4.5041">
        <ele>142.6</ele>
        <time>2019-07-10T08:27:49Z</time>
      </trkpt>
      <trkpt lat="44.02058" lon="4.50408">
        <ele>142.4</ele>
        <time>2019-07-10T08:27:50Z</time>
      </trkpt>
      <trkpt lat="44.02056" lon="4.50407">
        <ele>141.8</ele>
        <time>2019-07-10T08:27:51Z</time>
      </trkpt>
      <trkpt lat="44.02046" lon="4.50404">
        <ele>140.6</ele>
        <time>2019-07-10T08:27:55Z</time>
      </trkpt>
      <trkpt lat="44.02019" lon="4.50393">
        <ele>140.2</ele>
        <time>2019-07-10T08:28:04Z</time>
      </trkpt>
      <trkpt lat="44.02009" lon="4.50389">
        <ele>140.6</ele>
        <time>2019-07-10T08:28:09Z</time>
      </trkpt>
      <trkpt lat="44.0201" lon="4.50389">
        <ele>140.8</ele>
        <time>2019-07-10T08:28:13Z</time>
      </trkpt>
      <trkpt lat="44.02011" lon="4.5039">
        <ele>140.8</ele>
        <time>2019-07-10T08:28:14Z</time>
      </trkpt>
      <trkpt lat="44.02024" lon="4.50397">
        <ele>141.2</ele>
        <time>2019-07-10T08:28:20Z</time>
      </trkpt>
      <trkpt lat="44.02028" lon="4.50399">
        <ele>141.2</ele>
        <time>2019-07-10T08:28:22Z</time>
      </trkpt>
      <trkpt lat="44.02037" lon="4.50402">
        <ele>141</ele>
        <time>2019-07-10T08:28:25Z</time>
      </trkpt>
      <trkpt lat="44.02046" lon="4.50407">
        <ele>140.8</ele>
        <time>2019-07-10T08:28:28Z</time>
      </trkpt>
      <trkpt lat="44.0205" lon="4.50411">
        <ele>140.4</ele>
        <time>2019-07-10T08:28:30Z</time>
      </trkpt>
      <trkpt lat="44.02054" lon="4.50414">
        <ele>139.8</ele>
        <time>2019-07-10T08:28:34Z</time>
      </trkpt>
      <trkpt lat="44.02055" lon="4.50414">
        <ele>139.6</ele>
        <time>2019-07-10T08:28:35Z</time>
      </trkpt>
      <trkpt lat="44.02058" lon="4.50411">
        <ele>139.6</ele>
        <time>2019-07-10T08:28:37Z</time>
      </trkpt>
      <trkpt lat="44.0206" lon="4.50408">
        <ele>139.4</ele>
        <time>2019-07-10T08:28:38Z</time>
      </trkpt>
      <trkpt lat="44.0207" lon="4.50385">
        <ele>139.6</ele>
        <time>2019-07-10T08:28:44Z</time>
      </trkpt>
      <trkpt lat="44.02078" lon="4.50363">
        <ele>139.8</ele>
        <time>2019-07-10T08:28:49Z</time>
      </trkpt>
      <trkpt lat="44.0208" lon="4.50354">
        <ele>139.6</ele>
        <time>2019-07-10T08:28:51Z</time>
      </trkpt>
      <trkpt lat="44.02081" lon="4.5035">
        <ele>139.8</ele>
        <time>2019-07-10T08:28:52Z</time>
      </trkpt>
      <trkpt lat="44.02082" lon="4.50345">
        <ele>139.6</ele>
        <time>2019-07-10T08:28:53Z</time>
      </trkpt>
      <trkpt lat="44.02081" lon="4.50341">
        <ele>139.8</ele>
        <time>2019-07-10T08:28:54Z</time>
      </trkpt>
      <trkpt lat="44.02078" lon="4.50334">
        <ele>139.6</ele>
        <time>2019-07-10T08:28:56Z</time>
      </trkpt>
      <trkpt lat="44.02072" lon="4.50328">
        <ele>139.6</ele>
        <time>2019-07-10T08:28:58Z</time>
      </trkpt>
      <trkpt lat="44.02057" lon="4.50317">
        <ele>139.2</ele>
        <time>2019-07-10T08:29:02Z</time>
      </trkpt>
      <trkpt lat="44.0204" lon="4.50304">
        <ele>138.8</ele>
        <time>2019-07-10T08:29:06Z</time>
      </trkpt>
      <trkpt lat="44.02035" lon="4.503">
        <ele>138.6</ele>
        <time>2019-07-10T08:29:07Z</time>
      </trkpt>
      <trkpt lat="44.02014" lon="4.50285">
        <ele>138.4</ele>
        <time>2019-07-10T08:29:11Z</time>
      </trkpt>
      <trkpt lat="44.02" lon="4.50276">
        <ele>138</ele>
        <time>2019-07-10T08:29:14Z</time>
      </trkpt>
      <trkpt lat="44.01968" lon="4.50258">
        <ele>137.4</ele>
        <time>2019-07-10T08:29:20Z</time>
      </trkpt>
      <trkpt lat="44.01928" lon="4.50244">
        <ele>137.4</ele>
        <time>2019-07-10T08:29:27Z</time>
      </trkpt>
      <trkpt lat="44.01923" lon="4.50242">
        <ele>137.4</ele>
        <time>2019-07-10T08:29:28Z</time>
      </trkpt>
      <trkpt lat="44.01918" lon="4.50238">
        <ele>137.4</ele>
        <time>2019-07-10T08:29:29Z</time>
      </trkpt>
      <trkpt lat="44.0191" lon="4.50224">
        <ele>137.4</ele>
        <time>2019-07-10T08:29:31Z</time>
      </trkpt>
      <trkpt lat="44.01907" lon="4.50194">
        <ele>137</ele>
        <time>2019-07-10T08:29:35Z</time>
      </trkpt>
      <trkpt lat="44.01906" lon="4.50186">
        <ele>137</ele>
        <time>2019-07-10T08:29:36Z</time>
      </trkpt>
      <trkpt lat="44.01905" lon="4.50162">
        <ele>136.4</ele>
        <time>2019-07-10T08:29:39Z</time>
      </trkpt>
      <trkpt lat="44.01904" lon="4.50121">
        <ele>136</ele>
        <time>2019-07-10T08:29:44Z</time>
      </trkpt>
      <trkpt lat="44.01904" lon="4.50097">
        <ele>135.6</ele>
        <time>2019-07-10T08:29:47Z</time>
      </trkpt>
      <trkpt lat="44.01905" lon="4.50079">
        <ele>135.2</ele>
        <time>2019-07-10T08:29:49Z</time>
      </trkpt>
      <trkpt lat="44.01906" lon="4.50045">
        <ele>134.6</ele>
        <time>2019-07-10T08:29:53Z</time>
      </trkpt>
      <trkpt lat="44.01908" lon="4.50018">
        <ele>134.2</ele>
        <time>2019-07-10T08:29:56Z</time>
      </trkpt>
      <trkpt lat="44.01909" lon="4.50008">
        <ele>134</ele>
        <time>2019-07-10T08:29:57Z</time>
      </trkpt>
      <trkpt lat="44.0191" lon="4.49989">
        <ele>133.8</ele>
        <time>2019-07-10T08:29:59Z</time>
      </trkpt>
      <trkpt lat="44.01911" lon="4.49978">
        <ele>133.8</ele>
        <time>2019-07-10T08:30:00Z</time>
      </trkpt>
      <trkpt lat="44.01911" lon="4.49962">
        <ele>133.4</ele>
        <time>2019-07-10T08:30:02Z</time>
      </trkpt>
      <trkpt lat="44.01912" lon="4.49932">
        <ele>133</ele>
        <time>2019-07-10T08:30:05Z</time>
      </trkpt>
      <trkpt lat="44.01915" lon="4.49869">
        <ele>132.2</ele>
        <time>2019-07-10T08:30:12Z</time>
      </trkpt>
      <trkpt lat="44.01918" lon="4.49817">
        <ele>131.6</ele>
        <time>2019-07-10T08:30:18Z</time>
      </trkpt>
      <trkpt lat="44.01919" lon="4.49808">
        <ele>131.4</ele>
        <time>2019-07-10T08:30:19Z</time>
      </trkpt>
      <trkpt lat="44.01921" lon="4.498">
        <ele>131.4</ele>
        <time>2019-07-10T08:30:20Z</time>
      </trkpt>
      <trkpt lat="44.01929" lon="4.49723">
        <ele>130</ele>
        <time>2019-07-10T08:30:29Z</time>
      </trkpt>
      <trkpt lat="44.01929" lon="4.49714">
        <ele>130</ele>
        <time>2019-07-10T08:30:30Z</time>
      </trkpt>
      <trkpt lat="44.0193" lon="4.49706">
        <ele>129.8</ele>
        <time>2019-07-10T08:30:31Z</time>
      </trkpt>
      <trkpt lat="44.01928" lon="4.4966">
        <ele>129.4</ele>
        <time>2019-07-10T08:30:36Z</time>
      </trkpt>
      <trkpt lat="44.01927" lon="4.49641">
        <ele>129.2</ele>
        <time>2019-07-10T08:30:38Z</time>
      </trkpt>
      <trkpt lat="44.01924" lon="4.49623">
        <ele>129.2</ele>
        <time>2019-07-10T08:30:40Z</time>
      </trkpt>
      <trkpt lat="44.01923" lon="4.49614">
        <ele>129</ele>
        <time>2019-07-10T08:30:41Z</time>
      </trkpt>
      <trkpt lat="44.01923" lon="4.49604">
        <ele>129</ele>
        <time>2019-07-10T08:30:42Z</time>
      </trkpt>
      <trkpt lat="44.01923" lon="4.49594">
        <ele>128.8</ele>
        <time>2019-07-10T08:30:43Z</time>
      </trkpt>
      <trkpt lat="44.01924" lon="4.49585">
        <ele>128.6</ele>
        <time>2019-07-10T08:30:44Z</time>
      </trkpt>
      <trkpt lat="44.01925" lon="4.49575">
        <ele>128.2</ele>
        <time>2019-07-10T08:30:45Z</time>
      </trkpt>
      <trkpt lat="44.0193" lon="4.49557">
        <ele>128.2</ele>
        <time>2019-07-10T08:30:47Z</time>
      </trkpt>
      <trkpt lat="44.01935" lon="4.49539">
        <ele>128</ele>
        <time>2019-07-10T08:30:49Z</time>
      </trkpt>
      <trkpt lat="44.01943" lon="4.49513">
        <ele>127.8</ele>
        <time>2019-07-10T08:30:52Z</time>
      </trkpt>
      <trkpt lat="44.01948" lon="4.49496">
        <ele>127.8</ele>
        <time>2019-07-10T08:30:54Z</time>
      </trkpt>
      <trkpt lat="44.0195" lon="4.49462">
        <ele>127.6</ele>
        <time>2019-07-10T08:30:58Z</time>
      </trkpt>
      <trkpt lat="44.01951" lon="4.49454">
        <ele>127.6</ele>
        <time>2019-07-10T08:30:59Z</time>
      </trkpt>
      <trkpt lat="44.01954" lon="4.49419">
        <ele>127</ele>
        <time>2019-07-10T08:31:03Z</time>
      </trkpt>
      <trkpt lat="44.01956" lon="4.4941">
        <ele>126.6</ele>
        <time>2019-07-10T08:31:04Z</time>
      </trkpt>
      <trkpt lat="44.01959" lon="4.49401">
        <ele>126.6</ele>
        <time>2019-07-10T08:31:05Z</time>
      </trkpt>
      <trkpt lat="44.01961" lon="4.49392">
        <ele>126.2</ele>
        <time>2019-07-10T08:31:06Z</time>
      </trkpt>
      <trkpt lat="44.01982" lon="4.49328">
        <ele>124.8</ele>
        <time>2019-07-10T08:31:13Z</time>
      </trkpt>
      <trkpt lat="44.01984" lon="4.49318">
        <ele>124.8</ele>
        <time>2019-07-10T08:31:14Z</time>
      </trkpt>
      <trkpt lat="44.01987" lon="4.49309">
        <ele>124.6</ele>
        <time>2019-07-10T08:31:15Z</time>
      </trkpt>
      <trkpt lat="44.01998" lon="4.49274">
        <ele>124.8</ele>
        <time>2019-07-10T08:31:19Z</time>
      </trkpt>
      <trkpt lat="44.02004" lon="4.49256">
        <ele>124.4</ele>
        <time>2019-07-10T08:31:21Z</time>
      </trkpt>
      <trkpt lat="44.02006" lon="4.49248">
        <ele>124.6</ele>
        <time>2019-07-10T08:31:22Z</time>
      </trkpt>
      <trkpt lat="44.02016" lon="4.49203">
        <ele>124.2</ele>
        <time>2019-07-10T08:31:27Z</time>
      </trkpt>
      <trkpt lat="44.02018" lon="4.49194">
        <ele>124.2</ele>
        <time>2019-07-10T08:31:28Z</time>
      </trkpt>
      <trkpt lat="44.02019" lon="4.49185">
        <ele>124.2</ele>
        <time>2019-07-10T08:31:29Z</time>
      </trkpt>
      <trkpt lat="44.0202" lon="4.49177">
        <ele>124.2</ele>
        <time>2019-07-10T08:31:30Z</time>
      </trkpt>
      <trkpt lat="44.02025" lon="4.49142">
        <ele>123.6</ele>
        <time>2019-07-10T08:31:34Z</time>
      </trkpt>
      <trkpt lat="44.02026" lon="4.49133">
        <ele>123.4</ele>
        <time>2019-07-10T08:31:35Z</time>
      </trkpt>
      <trkpt lat="44.02027" lon="4.49123">
        <ele>122.8</ele>
        <time>2019-07-10T08:31:36Z</time>
      </trkpt>
      <trkpt lat="44.02031" lon="4.49068">
        <ele>121.2</ele>
        <time>2019-07-10T08:31:42Z</time>
      </trkpt>
      <trkpt lat="44.02033" lon="4.4904">
        <ele>121</ele>
        <time>2019-07-10T08:31:45Z</time>
      </trkpt>
      <trkpt lat="44.02035" lon="4.49021">
        <ele>120.8</ele>
        <time>2019-07-10T08:31:47Z</time>
      </trkpt>
      <trkpt lat="44.02038" lon="4.48975">
        <ele>121</ele>
        <time>2019-07-10T08:31:52Z</time>
      </trkpt>
      <trkpt lat="44.02039" lon="4.48966">
        <ele>120.8</ele>
        <time>2019-07-10T08:31:53Z</time>
      </trkpt>
      <trkpt lat="44.02038" lon="4.4893">
        <ele>120.8</ele>
        <time>2019-07-10T08:31:57Z</time>
      </trkpt>
      <trkpt lat="44.02037" lon="4.48912">
        <ele>120.8</ele>
        <time>2019-07-10T08:31:59Z</time>
      </trkpt>
      <trkpt lat="44.02039" lon="4.48843">
        <ele>120.4</ele>
        <time>2019-07-10T08:32:07Z</time>
      </trkpt>
      <trkpt lat="44.02042" lon="4.48819">
        <ele>120.4</ele>
        <time>2019-07-10T08:32:10Z</time>
      </trkpt>
      <trkpt lat="44.02045" lon="4.48796">
        <ele>120.4</ele>
        <time>2019-07-10T08:32:13Z</time>
      </trkpt>
      <trkpt lat="44.02046" lon="4.48788">
        <ele>120.4</ele>
        <time>2019-07-10T08:32:14Z</time>
      </trkpt>
      <trkpt lat="44.02048" lon="4.48781">
        <ele>120.4</ele>
        <time>2019-07-10T08:32:15Z</time>
      </trkpt>
      <trkpt lat="44.02049" lon="4.48765">
        <ele>120.2</ele>
        <time>2019-07-10T08:32:17Z</time>
      </trkpt>
      <trkpt lat="44.0205" lon="4.48758">
        <ele>120.2</ele>
        <time>2019-07-10T08:32:18Z</time>
      </trkpt>
      <trkpt lat="44.02051" lon="4.48743">
        <ele>120</ele>
        <time>2019-07-10T08:32:20Z</time>
      </trkpt>
      <trkpt lat="44.02051" lon="4.48736">
        <ele>120</ele>
        <time>2019-07-10T08:32:21Z</time>
      </trkpt>
      <trkpt lat="44.02047" lon="4.48691">
        <ele>120.2</ele>
        <time>2019-07-10T08:32:27Z</time>
      </trkpt>
      <trkpt lat="44.02044" lon="4.48675">
        <ele>120</ele>
        <time>2019-07-10T08:32:29Z</time>
      </trkpt>
      <trkpt lat="44.02043" lon="4.48666">
        <ele>119.8</ele>
        <time>2019-07-10T08:32:30Z</time>
      </trkpt>
      <trkpt lat="44.02042" lon="4.48658">
        <ele>119.6</ele>
        <time>2019-07-10T08:32:31Z</time>
      </trkpt>
      <trkpt lat="44.02036" lon="4.48616">
        <ele>119</ele>
        <time>2019-07-10T08:32:36Z</time>
      </trkpt>
      <trkpt lat="44.02026" lon="4.48542">
        <ele>118.8</ele>
        <time>2019-07-10T08:32:45Z</time>
      </trkpt>
      <trkpt lat="44.02025" lon="4.48534">
        <ele>118.6</ele>
        <time>2019-07-10T08:32:46Z</time>
      </trkpt>
      <trkpt lat="44.02018" lon="4.48484">
        <ele>118</ele>
        <time>2019-07-10T08:32:52Z</time>
      </trkpt>
      <trkpt lat="44.02014" lon="4.48458">
        <ele>117.6</ele>
        <time>2019-07-10T08:32:55Z</time>
      </trkpt>
      <trkpt lat="44.02013" lon="4.48449">
        <ele>117.4</ele>
        <time>2019-07-10T08:32:56Z</time>
      </trkpt>
      <trkpt lat="44.02011" lon="4.48431">
        <ele>117</ele>
        <time>2019-07-10T08:32:58Z</time>
      </trkpt>
      <trkpt lat="44.02006" lon="4.48394">
        <ele>116.4</ele>
        <time>2019-07-10T08:33:02Z</time>
      </trkpt>
      <trkpt lat="44.02005" lon="4.48384">
        <ele>116</ele>
        <time>2019-07-10T08:33:03Z</time>
      </trkpt>
      <trkpt lat="44.02003" lon="4.48306">
        <ele>115</ele>
        <time>2019-07-10T08:33:11Z</time>
      </trkpt>
      <trkpt lat="44.02009" lon="4.48227">
        <ele>114.2</ele>
        <time>2019-07-10T08:33:19Z</time>
      </trkpt>
      <trkpt lat="44.02011" lon="4.48208">
        <ele>114.2</ele>
        <time>2019-07-10T08:33:21Z</time>
      </trkpt>
      <trkpt lat="44.02014" lon="4.48182">
        <ele>113.6</ele>
        <time>2019-07-10T08:33:24Z</time>
      </trkpt>
      <trkpt lat="44.02015" lon="4.48174">
        <ele>113.8</ele>
        <time>2019-07-10T08:33:25Z</time>
      </trkpt>
      <trkpt lat="44.02019" lon="4.48157">
        <ele>113.6</ele>
        <time>2019-07-10T08:33:27Z</time>
      </trkpt>
      <trkpt lat="44.0202" lon="4.48149">
        <ele>113.6</ele>
        <time>2019-07-10T08:33:28Z</time>
      </trkpt>
      <trkpt lat="44.02026" lon="4.48125">
        <ele>113</ele>
        <time>2019-07-10T08:33:31Z</time>
      </trkpt>
      <trkpt lat="44.02037" lon="4.48071">
        <ele>112.2</ele>
        <time>2019-07-10T08:33:38Z</time>
      </trkpt>
      <trkpt lat="44.02041" lon="4.48054">
        <ele>111.8</ele>
        <time>2019-07-10T08:33:40Z</time>
      </trkpt>
      <trkpt lat="44.02049" lon="4.48013">
        <ele>111.4</ele>
        <time>2019-07-10T08:33:45Z</time>
      </trkpt>
      <trkpt lat="44.02051" lon="4.48005">
        <ele>111.2</ele>
        <time>2019-07-10T08:33:46Z</time>
      </trkpt>
      <trkpt lat="44.02056" lon="4.4798">
        <ele>111</ele>
        <time>2019-07-10T08:33:49Z</time>
      </trkpt>
      <trkpt lat="44.02059" lon="4.47963">
        <ele>111</ele>
        <time>2019-07-10T08:33:51Z</time>
      </trkpt>
      <trkpt lat="44.02063" lon="4.47946">
        <ele>111</ele>
        <time>2019-07-10T08:33:53Z</time>
      </trkpt>
      <trkpt lat="44.02069" lon="4.47911">
        <ele>110.6</ele>
        <time>2019-07-10T08:33:57Z</time>
      </trkpt>
      <trkpt lat="44.02072" lon="4.47893">
        <ele>110.2</ele>
        <time>2019-07-10T08:33:59Z</time>
      </trkpt>
      <trkpt lat="44.02076" lon="4.47857">
        <ele>109.6</ele>
        <time>2019-07-10T08:34:03Z</time>
      </trkpt>
      <trkpt lat="44.02077" lon="4.47847">
        <ele>109.6</ele>
        <time>2019-07-10T08:34:04Z</time>
      </trkpt>
      <trkpt lat="44.02081" lon="4.47818">
        <ele>109</ele>
        <time>2019-07-10T08:34:07Z</time>
      </trkpt>
      <trkpt lat="44.02082" lon="4.47808">
        <ele>108.8</ele>
        <time>2019-07-10T08:34:08Z</time>
      </trkpt>
      <trkpt lat="44.02091" lon="4.4774">
        <ele>108.4</ele>
        <time>2019-07-10T08:34:15Z</time>
      </trkpt>
      <trkpt lat="44.02104" lon="4.4768">
        <ele>108</ele>
        <time>2019-07-10T08:34:22Z</time>
      </trkpt>
      <trkpt lat="44.0211" lon="4.47665">
        <ele>108</ele>
        <time>2019-07-10T08:34:24Z</time>
      </trkpt>
      <trkpt lat="44.02125" lon="4.47629">
        <ele>107.6</ele>
        <time>2019-07-10T08:34:29Z</time>
      </trkpt>
      <trkpt lat="44.02154" lon="4.47571">
        <ele>106.6</ele>
        <time>2019-07-10T08:34:38Z</time>
      </trkpt>
      <trkpt lat="44.0217" lon="4.4753">
        <ele>106.8</ele>
        <time>2019-07-10T08:34:44Z</time>
      </trkpt>
      <trkpt lat="44.02172" lon="4.47522">
        <ele>107</ele>
        <time>2019-07-10T08:34:45Z</time>
      </trkpt>
      <trkpt lat="44.02173" lon="4.47515">
        <ele>106.8</ele>
        <time>2019-07-10T08:34:46Z</time>
      </trkpt>
      <trkpt lat="44.02175" lon="4.47507">
        <ele>106.8</ele>
        <time>2019-07-10T08:34:47Z</time>
      </trkpt>
      <trkpt lat="44.02182" lon="4.47463">
        <ele>107</ele>
        <time>2019-07-10T08:34:53Z</time>
      </trkpt>
      <trkpt lat="44.02185" lon="4.47441">
        <ele>107</ele>
        <time>2019-07-10T08:34:56Z</time>
      </trkpt>
      <trkpt lat="44.02186" lon="4.47434">
        <ele>106.8</ele>
        <time>2019-07-10T08:34:57Z</time>
      </trkpt>
      <trkpt lat="44.02187" lon="4.47426">
        <ele>106.8</ele>
        <time>2019-07-10T08:34:58Z</time>
      </trkpt>
      <trkpt lat="44.02188" lon="4.47419">
        <ele>106.8</ele>
        <time>2019-07-10T08:34:59Z</time>
      </trkpt>
      <trkpt lat="44.0219" lon="4.47412">
        <ele>107</ele>
        <time>2019-07-10T08:35:00Z</time>
      </trkpt>
      <trkpt lat="44.02191" lon="4.47404">
        <ele>107</ele>
        <time>2019-07-10T08:35:01Z</time>
      </trkpt>
      <trkpt lat="44.02195" lon="4.47375">
        <ele>107</ele>
        <time>2019-07-10T08:35:05Z</time>
      </trkpt>
      <trkpt lat="44.02202" lon="4.47336">
        <ele>107</ele>
        <time>2019-07-10T08:35:10Z</time>
      </trkpt>
      <trkpt lat="44.02205" lon="4.47314">
        <ele>107</ele>
        <time>2019-07-10T08:35:13Z</time>
      </trkpt>
      <trkpt lat="44.02207" lon="4.47307">
        <ele>107</ele>
        <time>2019-07-10T08:35:14Z</time>
      </trkpt>
      <trkpt lat="44.02208" lon="4.47299">
        <ele>107</ele>
        <time>2019-07-10T08:35:15Z</time>
      </trkpt>
      <trkpt lat="44.02212" lon="4.47277">
        <ele>106.8</ele>
        <time>2019-07-10T08:35:18Z</time>
      </trkpt>
      <trkpt lat="44.02214" lon="4.47262">
        <ele>106.4</ele>
        <time>2019-07-10T08:35:20Z</time>
      </trkpt>
      <trkpt lat="44.02215" lon="4.47255">
        <ele>106.2</ele>
        <time>2019-07-10T08:35:21Z</time>
      </trkpt>
      <trkpt lat="44.02219" lon="4.47232">
        <ele>105.6</ele>
        <time>2019-07-10T08:35:24Z</time>
      </trkpt>
      <trkpt lat="44.02224" lon="4.47199">
        <ele>105.4</ele>
        <time>2019-07-10T08:35:28Z</time>
      </trkpt>
      <trkpt lat="44.02228" lon="4.47164">
        <ele>104.6</ele>
        <time>2019-07-10T08:35:32Z</time>
      </trkpt>
      <trkpt lat="44.02229" lon="4.47156">
        <ele>104.4</ele>
        <time>2019-07-10T08:35:33Z</time>
      </trkpt>
      <trkpt lat="44.02229" lon="4.47147">
        <ele>104.2</ele>
        <time>2019-07-10T08:35:34Z</time>
      </trkpt>
      <trkpt lat="44.02231" lon="4.4713">
        <ele>104</ele>
        <time>2019-07-10T08:35:36Z</time>
      </trkpt>
      <trkpt lat="44.02231" lon="4.47121">
        <ele>104</ele>
        <time>2019-07-10T08:35:37Z</time>
      </trkpt>
      <trkpt lat="44.02234" lon="4.47096">
        <ele>103.8</ele>
        <time>2019-07-10T08:35:40Z</time>
      </trkpt>
      <trkpt lat="44.02237" lon="4.47063">
        <ele>104</ele>
        <time>2019-07-10T08:35:44Z</time>
      </trkpt>
      <trkpt lat="44.02238" lon="4.47046">
        <ele>104</ele>
        <time>2019-07-10T08:35:46Z</time>
      </trkpt>
      <trkpt lat="44.02239" lon="4.47038">
        <ele>104</ele>
        <time>2019-07-10T08:35:47Z</time>
      </trkpt>
      <trkpt lat="44.02239" lon="4.4703">
        <ele>104</ele>
        <time>2019-07-10T08:35:48Z</time>
      </trkpt>
      <trkpt lat="44.0224" lon="4.47021">
        <ele>103.8</ele>
        <time>2019-07-10T08:35:49Z</time>
      </trkpt>
      <trkpt lat="44.02245" lon="4.46964">
        <ele>102.8</ele>
        <time>2019-07-10T08:35:56Z</time>
      </trkpt>
      <trkpt lat="44.02256" lon="4.46908">
        <ele>101.6</ele>
        <time>2019-07-10T08:36:03Z</time>
      </trkpt>
      <trkpt lat="44.02269" lon="4.46855">
        <ele>101.2</ele>
        <time>2019-07-10T08:36:10Z</time>
      </trkpt>
      <trkpt lat="44.0228" lon="4.46791">
        <ele>100.2</ele>
        <time>2019-07-10T08:36:18Z</time>
      </trkpt>
      <trkpt lat="44.02281" lon="4.46783">
        <ele>100</ele>
        <time>2019-07-10T08:36:19Z</time>
      </trkpt>
      <trkpt lat="44.02283" lon="4.46774">
        <ele>100</ele>
        <time>2019-07-10T08:36:20Z</time>
      </trkpt>
      <trkpt lat="44.02285" lon="4.46757">
        <ele>100</ele>
        <time>2019-07-10T08:36:22Z</time>
      </trkpt>
      <trkpt lat="44.02287" lon="4.46749">
        <ele>100</ele>
        <time>2019-07-10T08:36:23Z</time>
      </trkpt>
      <trkpt lat="44.02293" lon="4.46695">
        <ele>99</ele>
        <time>2019-07-10T08:36:29Z</time>
      </trkpt>
      <trkpt lat="44.02294" lon="4.46678">
        <ele>98.6</ele>
        <time>2019-07-10T08:36:31Z</time>
      </trkpt>
      <trkpt lat="44.02298" lon="4.46656">
        <ele>98.4</ele>
        <time>2019-07-10T08:36:34Z</time>
      </trkpt>
      <trkpt lat="44.023" lon="4.46651">
        <ele>98.2</ele>
        <time>2019-07-10T08:36:35Z</time>
      </trkpt>
      <trkpt lat="44.02309" lon="4.46639">
        <ele>98</ele>
        <time>2019-07-10T08:36:38Z</time>
      </trkpt>
      <trkpt lat="44.02316" lon="4.46635">
        <ele>97.6</ele>
        <time>2019-07-10T08:36:42Z</time>
      </trkpt>
      <trkpt lat="44.02322" lon="4.46632">
        <ele>97.2</ele>
        <time>2019-07-10T08:36:46Z</time>
      </trkpt>
      <trkpt lat="44.02337" lon="4.46631">
        <ele>96.8</ele>
        <time>2019-07-10T08:36:50Z</time>
      </trkpt>
      <trkpt lat="44.02342" lon="4.46631">
        <ele>96.6</ele>
        <time>2019-07-10T08:36:51Z</time>
      </trkpt>
      <trkpt lat="44.02371" lon="4.46632">
        <ele>96</ele>
        <time>2019-07-10T08:36:57Z</time>
      </trkpt>
      <trkpt lat="44.02379" lon="4.46632">
        <ele>95.8</ele>
        <time>2019-07-10T08:36:59Z</time>
      </trkpt>
      <trkpt lat="44.02383" lon="4.46632">
        <ele>95.4</ele>
        <time>2019-07-10T08:37:01Z</time>
      </trkpt>
      <trkpt lat="44.02383" lon="4.46631">
        <ele>94.8</ele>
        <time>2019-07-10T08:37:04Z</time>
      </trkpt>
      <trkpt lat="44.0239" lon="4.46624">
        <ele>94.8</ele>
        <time>2019-07-10T08:37:17Z</time>
      </trkpt>
      <trkpt lat="44.02389" lon="4.46605">
        <ele>94.6</ele>
        <time>2019-07-10T08:37:21Z</time>
      </trkpt>
      <trkpt lat="44.02386" lon="4.46581">
        <ele>93.8</ele>
        <time>2019-07-10T08:37:25Z</time>
      </trkpt>
      <trkpt lat="44.02384" lon="4.46568">
        <ele>94</ele>
        <time>2019-07-10T08:37:27Z</time>
      </trkpt>
      <trkpt lat="44.02378" lon="4.4652">
        <ele>94.4</ele>
        <time>2019-07-10T08:37:34Z</time>
      </trkpt>
      <trkpt lat="44.0237" lon="4.46455">
        <ele>94.2</ele>
        <time>2019-07-10T08:37:43Z</time>
      </trkpt>
      <trkpt lat="44.02366" lon="4.46408">
        <ele>93.8</ele>
        <time>2019-07-10T08:37:50Z</time>
      </trkpt>
      <trkpt lat="44.02365" lon="4.46402">
        <ele>94</ele>
        <time>2019-07-10T08:37:51Z</time>
      </trkpt>
      <trkpt lat="44.02363" lon="4.4639">
        <ele>93.8</ele>
        <time>2019-07-10T08:37:53Z</time>
      </trkpt>
      <trkpt lat="44.02362" lon="4.46376">
        <ele>93.8</ele>
        <time>2019-07-10T08:37:55Z</time>
      </trkpt>
      <trkpt lat="44.02354" lon="4.46323">
        <ele>93.4</ele>
        <time>2019-07-10T08:38:02Z</time>
      </trkpt>
      <trkpt lat="44.02353" lon="4.46316">
        <ele>93.4</ele>
        <time>2019-07-10T08:38:03Z</time>
      </trkpt>
      <trkpt lat="44.02343" lon="4.46242">
        <ele>94.2</ele>
        <time>2019-07-10T08:38:13Z</time>
      </trkpt>
      <trkpt lat="44.02334" lon="4.46182">
        <ele>94.8</ele>
        <time>2019-07-10T08:38:21Z</time>
      </trkpt>
      <trkpt lat="44.02331" lon="4.4616">
        <ele>95.2</ele>
        <time>2019-07-10T08:38:24Z</time>
      </trkpt>
      <trkpt lat="44.02327" lon="4.46128">
        <ele>95.4</ele>
        <time>2019-07-10T08:38:28Z</time>
      </trkpt>
      <trkpt lat="44.02322" lon="4.46097">
        <ele>95.2</ele>
        <time>2019-07-10T08:38:32Z</time>
      </trkpt>
      <trkpt lat="44.02321" lon="4.4609">
        <ele>95.2</ele>
        <time>2019-07-10T08:38:33Z</time>
      </trkpt>
      <trkpt lat="44.02316" lon="4.46057">
        <ele>94.8</ele>
        <time>2019-07-10T08:38:37Z</time>
      </trkpt>
      <trkpt lat="44.02307" lon="4.45997">
        <ele>93.8</ele>
        <time>2019-07-10T08:38:44Z</time>
      </trkpt>
      <trkpt lat="44.02296" lon="4.45931">
        <ele>93.6</ele>
        <time>2019-07-10T08:38:52Z</time>
      </trkpt>
      <trkpt lat="44.02291" lon="4.459">
        <ele>93.6</ele>
        <time>2019-07-10T08:38:56Z</time>
      </trkpt>
      <trkpt lat="44.0229" lon="4.45893">
        <ele>93.6</ele>
        <time>2019-07-10T08:38:57Z</time>
      </trkpt>
      <trkpt lat="44.02286" lon="4.45871">
        <ele>93.4</ele>
        <time>2019-07-10T08:39:00Z</time>
      </trkpt>
      <trkpt lat="44.02279" lon="4.45822">
        <ele>93.6</ele>
        <time>2019-07-10T08:39:07Z</time>
      </trkpt>
      <trkpt lat="44.02275" lon="4.45793">
        <ele>93.8</ele>
        <time>2019-07-10T08:39:11Z</time>
      </trkpt>
      <trkpt lat="44.0227" lon="4.45764">
        <ele>94</ele>
        <time>2019-07-10T08:39:15Z</time>
      </trkpt>
      <trkpt lat="44.0226" lon="4.45701">
        <ele>94.4</ele>
        <time>2019-07-10T08:39:23Z</time>
      </trkpt>
      <trkpt lat="44.02257" lon="4.45677">
        <ele>94.4</ele>
        <time>2019-07-10T08:39:26Z</time>
      </trkpt>
      <trkpt lat="44.02251" lon="4.45638">
        <ele>94.4</ele>
        <time>2019-07-10T08:39:31Z</time>
      </trkpt>
      <trkpt lat="44.02249" lon="4.45623">
        <ele>94.8</ele>
        <time>2019-07-10T08:39:33Z</time>
      </trkpt>
      <trkpt lat="44.02244" lon="4.45594">
        <ele>94.8</ele>
        <time>2019-07-10T08:39:37Z</time>
      </trkpt>
      <trkpt lat="44.02237" lon="4.45552">
        <ele>94.6</ele>
        <time>2019-07-10T08:39:43Z</time>
      </trkpt>
      <trkpt lat="44.02234" lon="4.4553">
        <ele>94.6</ele>
        <time>2019-07-10T08:39:46Z</time>
      </trkpt>
      <trkpt lat="44.02223" lon="4.45468">
        <ele>95</ele>
        <time>2019-07-10T08:39:55Z</time>
      </trkpt>
      <trkpt lat="44.02221" lon="4.45455">
        <ele>95</ele>
        <time>2019-07-10T08:39:57Z</time>
      </trkpt>
      <trkpt lat="44.02214" lon="4.45413">
        <ele>95.6</ele>
        <time>2019-07-10T08:40:03Z</time>
      </trkpt>
      <trkpt lat="44.02203" lon="4.45345">
        <ele>96</ele>
        <time>2019-07-10T08:40:12Z</time>
      </trkpt>
      <trkpt lat="44.02197" lon="4.45307">
        <ele>96</ele>
        <time>2019-07-10T08:40:17Z</time>
      </trkpt>
      <trkpt lat="44.02194" lon="4.45284">
        <ele>96</ele>
        <time>2019-07-10T08:40:20Z</time>
      </trkpt>
      <trkpt lat="44.02189" lon="4.45253">
        <ele>95.6</ele>
        <time>2019-07-10T08:40:24Z</time>
      </trkpt>
      <trkpt lat="44.02182" lon="4.45218">
        <ele>96</ele>
        <time>2019-07-10T08:40:29Z</time>
      </trkpt>
      <trkpt lat="44.0218" lon="4.45203">
        <ele>96.2</ele>
        <time>2019-07-10T08:40:31Z</time>
      </trkpt>
      <trkpt lat="44.02173" lon="4.45158">
        <ele>95.6</ele>
        <time>2019-07-10T08:40:37Z</time>
      </trkpt>
      <trkpt lat="44.02172" lon="4.4515">
        <ele>95.4</ele>
        <time>2019-07-10T08:40:38Z</time>
      </trkpt>
      <trkpt lat="44.02162" lon="4.45088">
        <ele>94</ele>
        <time>2019-07-10T08:40:46Z</time>
      </trkpt>
      <trkpt lat="44.02151" lon="4.45022">
        <ele>93.6</ele>
        <time>2019-07-10T08:40:54Z</time>
      </trkpt>
      <trkpt lat="44.0214" lon="4.4495">
        <ele>94</ele>
        <time>2019-07-10T08:41:03Z</time>
      </trkpt>
      <trkpt lat="44.02131" lon="4.44898">
        <ele>93.8</ele>
        <time>2019-07-10T08:41:10Z</time>
      </trkpt>
      <trkpt lat="44.02123" lon="4.4485">
        <ele>93.6</ele>
        <time>2019-07-10T08:41:17Z</time>
      </trkpt>
      <trkpt lat="44.02113" lon="4.44788">
        <ele>93.6</ele>
        <time>2019-07-10T08:41:26Z</time>
      </trkpt>
      <trkpt lat="44.02109" lon="4.44763">
        <ele>93.6</ele>
        <time>2019-07-10T08:41:30Z</time>
      </trkpt>
      <trkpt lat="44.02105" lon="4.44742">
        <ele>94</ele>
        <time>2019-07-10T08:41:33Z</time>
      </trkpt>
      <trkpt lat="44.02097" lon="4.44684">
        <ele>94.8</ele>
        <time>2019-07-10T08:41:41Z</time>
      </trkpt>
      <trkpt lat="44.02093" lon="4.44663">
        <ele>95</ele>
        <time>2019-07-10T08:41:44Z</time>
      </trkpt>
      <trkpt lat="44.02092" lon="4.44648">
        <ele>95</ele>
        <time>2019-07-10T08:41:46Z</time>
      </trkpt>
      <trkpt lat="44.02089" lon="4.44621">
        <ele>95.4</ele>
        <time>2019-07-10T08:41:50Z</time>
      </trkpt>
      <trkpt lat="44.02087" lon="4.44582">
        <ele>96</ele>
        <time>2019-07-10T08:41:55Z</time>
      </trkpt>
      <trkpt lat="44.02087" lon="4.44567">
        <ele>96.4</ele>
        <time>2019-07-10T08:41:57Z</time>
      </trkpt>
      <trkpt lat="44.02087" lon="4.4456">
        <ele>96.2</ele>
        <time>2019-07-10T08:41:58Z</time>
      </trkpt>
      <trkpt lat="44.02088" lon="4.44519">
        <ele>96.4</ele>
        <time>2019-07-10T08:42:03Z</time>
      </trkpt>
      <trkpt lat="44.02089" lon="4.44501">
        <ele>95.6</ele>
        <time>2019-07-10T08:42:05Z</time>
      </trkpt>
      <trkpt lat="44.02089" lon="4.44466">
        <ele>95.2</ele>
        <time>2019-07-10T08:42:09Z</time>
      </trkpt>
      <trkpt lat="44.0209" lon="4.4442">
        <ele>94.4</ele>
        <time>2019-07-10T08:42:14Z</time>
      </trkpt>
      <trkpt lat="44.0209" lon="4.44391">
        <ele>93.6</ele>
        <time>2019-07-10T08:42:17Z</time>
      </trkpt>
      <trkpt lat="44.02091" lon="4.4437">
        <ele>93.2</ele>
        <time>2019-07-10T08:42:19Z</time>
      </trkpt>
      <trkpt lat="44.02091" lon="4.4436">
        <ele>93</ele>
        <time>2019-07-10T08:42:20Z</time>
      </trkpt>
      <trkpt lat="44.02091" lon="4.44328">
        <ele>92.6</ele>
        <time>2019-07-10T08:42:23Z</time>
      </trkpt>
      <trkpt lat="44.02092" lon="4.44295">
        <ele>92</ele>
        <time>2019-07-10T08:42:26Z</time>
      </trkpt>
      <trkpt lat="44.02093" lon="4.44261">
        <ele>90.4</ele>
        <time>2019-07-10T08:42:29Z</time>
      </trkpt>
      <trkpt lat="44.02094" lon="4.44226">
        <ele>89.4</ele>
        <time>2019-07-10T08:42:32Z</time>
      </trkpt>
      <trkpt lat="44.02095" lon="4.4416">
        <ele>88.4</ele>
        <time>2019-07-10T08:42:38Z</time>
      </trkpt>
      <trkpt lat="44.02095" lon="4.44149">
        <ele>88.2</ele>
        <time>2019-07-10T08:42:39Z</time>
      </trkpt>
      <trkpt lat="44.02096" lon="4.44089">
        <ele>86</ele>
        <time>2019-07-10T08:42:45Z</time>
      </trkpt>
      <trkpt lat="44.02097" lon="4.44051">
        <ele>84.8</ele>
        <time>2019-07-10T08:42:49Z</time>
      </trkpt>
      <trkpt lat="44.021" lon="4.44014">
        <ele>84.6</ele>
        <time>2019-07-10T08:42:53Z</time>
      </trkpt>
      <trkpt lat="44.02113" lon="4.4394">
        <ele>82.8</ele>
        <time>2019-07-10T08:43:01Z</time>
      </trkpt>
      <trkpt lat="44.02116" lon="4.43922">
        <ele>82.6</ele>
        <time>2019-07-10T08:43:03Z</time>
      </trkpt>
      <trkpt lat="44.02125" lon="4.43865">
        <ele>82</ele>
        <time>2019-07-10T08:43:09Z</time>
      </trkpt>
      <trkpt lat="44.02126" lon="4.43856">
        <ele>82</ele>
        <time>2019-07-10T08:43:10Z</time>
      </trkpt>
      <trkpt lat="44.02127" lon="4.43848">
        <ele>81.6</ele>
        <time>2019-07-10T08:43:11Z</time>
      </trkpt>
      <trkpt lat="44.02124" lon="4.43805">
        <ele>80.8</ele>
        <time>2019-07-10T08:43:15Z</time>
      </trkpt>
      <trkpt lat="44.02123" lon="4.43795">
        <ele>80.8</ele>
        <time>2019-07-10T08:43:16Z</time>
      </trkpt>
      <trkpt lat="44.02118" lon="4.43751">
        <ele>80</ele>
        <time>2019-07-10T08:43:20Z</time>
      </trkpt>
      <trkpt lat="44.02114" lon="4.43717">
        <ele>79</ele>
        <time>2019-07-10T08:43:23Z</time>
      </trkpt>
      <trkpt lat="44.02109" lon="4.43672">
        <ele>77.2</ele>
        <time>2019-07-10T08:43:27Z</time>
      </trkpt>
      <trkpt lat="44.02107" lon="4.4365">
        <ele>76.8</ele>
        <time>2019-07-10T08:43:29Z</time>
      </trkpt>
      <trkpt lat="44.02102" lon="4.43605">
        <ele>76.4</ele>
        <time>2019-07-10T08:43:33Z</time>
      </trkpt>
      <trkpt lat="44.02096" lon="4.43562">
        <ele>75.4</ele>
        <time>2019-07-10T08:43:37Z</time>
      </trkpt>
      <trkpt lat="44.02087" lon="4.43511">
        <ele>73.4</ele>
        <time>2019-07-10T08:43:42Z</time>
      </trkpt>
      <trkpt lat="44.02085" lon="4.43502">
        <ele>73.4</ele>
        <time>2019-07-10T08:43:43Z</time>
      </trkpt>
      <trkpt lat="44.02077" lon="4.43459">
        <ele>73</ele>
        <time>2019-07-10T08:43:48Z</time>
      </trkpt>
      <trkpt lat="44.02067" lon="4.43424">
        <ele>72.6</ele>
        <time>2019-07-10T08:43:52Z</time>
      </trkpt>
      <trkpt lat="44.02063" lon="4.43408">
        <ele>72.2</ele>
        <time>2019-07-10T08:43:54Z</time>
      </trkpt>
      <trkpt lat="44.02062" lon="4.43399">
        <ele>72.2</ele>
        <time>2019-07-10T08:43:55Z</time>
      </trkpt>
      <trkpt lat="44.0206" lon="4.43391">
        <ele>72.2</ele>
        <time>2019-07-10T08:43:56Z</time>
      </trkpt>
      <trkpt lat="44.02058" lon="4.43382">
        <ele>72.2</ele>
        <time>2019-07-10T08:43:57Z</time>
      </trkpt>
      <trkpt lat="44.02047" lon="4.43334">
        <ele>71.6</ele>
        <time>2019-07-10T08:44:03Z</time>
      </trkpt>
      <trkpt lat="44.02045" lon="4.43326">
        <ele>71.6</ele>
        <time>2019-07-10T08:44:04Z</time>
      </trkpt>
      <trkpt lat="44.02031" lon="4.43261">
        <ele>70.2</ele>
        <time>2019-07-10T08:44:12Z</time>
      </trkpt>
      <trkpt lat="44.02015" lon="4.43194">
        <ele>70</ele>
        <time>2019-07-10T08:44:21Z</time>
      </trkpt>
      <trkpt lat="44.01997" lon="4.43135">
        <ele>70</ele>
        <time>2019-07-10T08:44:29Z</time>
      </trkpt>
      <trkpt lat="44.01995" lon="4.43129">
        <ele>70.2</ele>
        <time>2019-07-10T08:44:30Z</time>
      </trkpt>
      <trkpt lat="44.01983" lon="4.43088">
        <ele>70.8</ele>
        <time>2019-07-10T08:44:37Z</time>
      </trkpt>
      <trkpt lat="44.0198" lon="4.43078">
        <ele>71</ele>
        <time>2019-07-10T08:44:39Z</time>
      </trkpt>
      <trkpt lat="44.01974" lon="4.43057">
        <ele>71.4</ele>
        <time>2019-07-10T08:44:43Z</time>
      </trkpt>
      <trkpt lat="44.01971" lon="4.43048">
        <ele>71.6</ele>
        <time>2019-07-10T08:44:45Z</time>
      </trkpt>
      <trkpt lat="44.01959" lon="4.43002">
        <ele>72.6</ele>
        <time>2019-07-10T08:44:54Z</time>
      </trkpt>
      <trkpt lat="44.01957" lon="4.42997">
        <ele>72.6</ele>
        <time>2019-07-10T08:44:55Z</time>
      </trkpt>
      <trkpt lat="44.0195" lon="4.42973">
        <ele>73.4</ele>
        <time>2019-07-10T08:45:00Z</time>
      </trkpt>
      <trkpt lat="44.01946" lon="4.4296">
        <ele>74.4</ele>
        <time>2019-07-10T08:45:03Z</time>
      </trkpt>
      <trkpt lat="44.01938" lon="4.42934">
        <ele>75.8</ele>
        <time>2019-07-10T08:45:09Z</time>
      </trkpt>
      <trkpt lat="44.0193" lon="4.42907">
        <ele>76.6</ele>
        <time>2019-07-10T08:45:15Z</time>
      </trkpt>
      <trkpt lat="44.01927" lon="4.42898">
        <ele>76.8</ele>
        <time>2019-07-10T08:45:17Z</time>
      </trkpt>
      <trkpt lat="44.01919" lon="4.42869">
        <ele>77.8</ele>
        <time>2019-07-10T08:45:23Z</time>
      </trkpt>
      <trkpt lat="44.01918" lon="4.42864">
        <ele>78</ele>
        <time>2019-07-10T08:45:24Z</time>
      </trkpt>
      <trkpt lat="44.01908" lon="4.42834">
        <ele>79</ele>
        <time>2019-07-10T08:45:31Z</time>
      </trkpt>
      <trkpt lat="44.01904" lon="4.42822">
        <ele>79.4</ele>
        <time>2019-07-10T08:45:34Z</time>
      </trkpt>
      <trkpt lat="44.01894" lon="4.42804">
        <ele>79.8</ele>
        <time>2019-07-10T08:45:39Z</time>
      </trkpt>
      <trkpt lat="44.01877" lon="4.42786">
        <ele>80.4</ele>
        <time>2019-07-10T08:45:45Z</time>
      </trkpt>
      <trkpt lat="44.01874" lon="4.42784">
        <ele>80.6</ele>
        <time>2019-07-10T08:45:46Z</time>
      </trkpt>
      <trkpt lat="44.01862" lon="4.42774">
        <ele>80.8</ele>
        <time>2019-07-10T08:45:50Z</time>
      </trkpt>
      <trkpt lat="44.01845" lon="4.42766">
        <ele>81.4</ele>
        <time>2019-07-10T08:45:55Z</time>
      </trkpt>
      <trkpt lat="44.01834" lon="4.42765">
        <ele>81.8</ele>
        <time>2019-07-10T08:45:58Z</time>
      </trkpt>
      <trkpt lat="44.01826" lon="4.42766">
        <ele>81.8</ele>
        <time>2019-07-10T08:46:00Z</time>
      </trkpt>
      <trkpt lat="44.01802" lon="4.42778">
        <ele>82.8</ele>
        <time>2019-07-10T08:46:07Z</time>
      </trkpt>
      <trkpt lat="44.01782" lon="4.42801">
        <ele>83.4</ele>
        <time>2019-07-10T08:46:14Z</time>
      </trkpt>
      <trkpt lat="44.01765" lon="4.4284">
        <ele>85</ele>
        <time>2019-07-10T08:46:23Z</time>
      </trkpt>
      <trkpt lat="44.01763" lon="4.42845">
        <ele>85</ele>
        <time>2019-07-10T08:46:24Z</time>
      </trkpt>
      <trkpt lat="44.01755" lon="4.42864">
        <ele>85.2</ele>
        <time>2019-07-10T08:46:28Z</time>
      </trkpt>
      <trkpt lat="44.01746" lon="4.42879">
        <ele>86</ele>
        <time>2019-07-10T08:46:32Z</time>
      </trkpt>
      <trkpt lat="44.01736" lon="4.42892">
        <ele>86.2</ele>
        <time>2019-07-10T08:46:36Z</time>
      </trkpt>
      <trkpt lat="44.01724" lon="4.42903">
        <ele>86.8</ele>
        <time>2019-07-10T08:46:40Z</time>
      </trkpt>
      <trkpt lat="44.01721" lon="4.42906">
        <ele>87</ele>
        <time>2019-07-10T08:46:41Z</time>
      </trkpt>
      <trkpt lat="44.01706" lon="4.42917">
        <ele>88.4</ele>
        <time>2019-07-10T08:46:46Z</time>
      </trkpt>
      <trkpt lat="44.01693" lon="4.42926">
        <ele>89.4</ele>
        <time>2019-07-10T08:46:50Z</time>
      </trkpt>
      <trkpt lat="44.01669" lon="4.42938">
        <ele>90.2</ele>
        <time>2019-07-10T08:46:57Z</time>
      </trkpt>
      <trkpt lat="44.01662" lon="4.42939">
        <ele>90.4</ele>
        <time>2019-07-10T08:46:59Z</time>
      </trkpt>
      <trkpt lat="44.01642" lon="4.42943">
        <ele>91.2</ele>
        <time>2019-07-10T08:47:04Z</time>
      </trkpt>
      <trkpt lat="44.01634" lon="4.42944">
        <ele>91.6</ele>
        <time>2019-07-10T08:47:06Z</time>
      </trkpt>
      <trkpt lat="44.01627" lon="4.42944">
        <ele>91.8</ele>
        <time>2019-07-10T08:47:08Z</time>
      </trkpt>
      <trkpt lat="44.01609" lon="4.42942">
        <ele>92.8</ele>
        <time>2019-07-10T08:47:13Z</time>
      </trkpt>
      <trkpt lat="44.01589" lon="4.42932">
        <ele>94</ele>
        <time>2019-07-10T08:47:19Z</time>
      </trkpt>
      <trkpt lat="44.01582" lon="4.42926">
        <ele>94</ele>
        <time>2019-07-10T08:47:21Z</time>
      </trkpt>
      <trkpt lat="44.0158" lon="4.42923">
        <ele>94</ele>
        <time>2019-07-10T08:47:22Z</time>
      </trkpt>
      <trkpt lat="44.01564" lon="4.42896">
        <ele>95</ele>
        <time>2019-07-10T08:47:29Z</time>
      </trkpt>
      <trkpt lat="44.01562" lon="4.42892">
        <ele>95</ele>
        <time>2019-07-10T08:47:30Z</time>
      </trkpt>
      <trkpt lat="44.01549" lon="4.42851">
        <ele>96</ele>
        <time>2019-07-10T08:47:39Z</time>
      </trkpt>
      <trkpt lat="44.01547" lon="4.42842">
        <ele>96</ele>
        <time>2019-07-10T08:47:41Z</time>
      </trkpt>
      <trkpt lat="44.01542" lon="4.42819">
        <ele>96.8</ele>
        <time>2019-07-10T08:47:46Z</time>
      </trkpt>
      <trkpt lat="44.01539" lon="4.428">
        <ele>98</ele>
        <time>2019-07-10T08:47:50Z</time>
      </trkpt>
      <trkpt lat="44.01537" lon="4.42791">
        <ele>98</ele>
        <time>2019-07-10T08:47:52Z</time>
      </trkpt>
      <trkpt lat="44.01535" lon="4.42763">
        <ele>99.4</ele>
        <time>2019-07-10T08:47:58Z</time>
      </trkpt>
      <trkpt lat="44.01535" lon="4.42754">
        <ele>99.6</ele>
        <time>2019-07-10T08:48:00Z</time>
      </trkpt>
      <trkpt lat="44.01535" lon="4.4274">
        <ele>100.2</ele>
        <time>2019-07-10T08:48:03Z</time>
      </trkpt>
      <trkpt lat="44.01536" lon="4.42735">
        <ele>100.6</ele>
        <time>2019-07-10T08:48:04Z</time>
      </trkpt>
      <trkpt lat="44.01538" lon="4.42721">
        <ele>101.6</ele>
        <time>2019-07-10T08:48:07Z</time>
      </trkpt>
      <trkpt lat="44.01543" lon="4.42685">
        <ele>102.6</ele>
        <time>2019-07-10T08:48:15Z</time>
      </trkpt>
      <trkpt lat="44.0155" lon="4.42663">
        <ele>103</ele>
        <time>2019-07-10T08:48:20Z</time>
      </trkpt>
      <trkpt lat="44.01552" lon="4.42654">
        <ele>103.6</ele>
        <time>2019-07-10T08:48:22Z</time>
      </trkpt>
      <trkpt lat="44.01556" lon="4.42642">
        <ele>104.8</ele>
        <time>2019-07-10T08:48:25Z</time>
      </trkpt>
      <trkpt lat="44.01568" lon="4.4261">
        <ele>106.4</ele>
        <time>2019-07-10T08:48:33Z</time>
      </trkpt>
      <trkpt lat="44.01572" lon="4.42602">
        <ele>106.8</ele>
        <time>2019-07-10T08:48:35Z</time>
      </trkpt>
      <trkpt lat="44.01581" lon="4.42577">
        <ele>107.8</ele>
        <time>2019-07-10T08:48:41Z</time>
      </trkpt>
      <trkpt lat="44.01583" lon="4.42546">
        <ele>108.2</ele>
        <time>2019-07-10T08:48:47Z</time>
      </trkpt>
      <trkpt lat="44.01581" lon="4.4253">
        <ele>108.4</ele>
        <time>2019-07-10T08:48:50Z</time>
      </trkpt>
      <trkpt lat="44.01576" lon="4.42506">
        <ele>108.6</ele>
        <time>2019-07-10T08:48:55Z</time>
      </trkpt>
      <trkpt lat="44.01568" lon="4.42486">
        <ele>109</ele>
        <time>2019-07-10T08:49:01Z</time>
      </trkpt>
      <trkpt lat="44.01549" lon="4.42463">
        <ele>109.8</ele>
        <time>2019-07-10T08:49:08Z</time>
      </trkpt>
      <trkpt lat="44.01524" lon="4.42436">
        <ele>110.6</ele>
        <time>2019-07-10T08:49:17Z</time>
      </trkpt>
      <trkpt lat="44.01518" lon="4.4243">
        <ele>110.6</ele>
        <time>2019-07-10T08:49:19Z</time>
      </trkpt>
      <trkpt lat="44.01498" lon="4.42409">
        <ele>111.8</ele>
        <time>2019-07-10T08:49:26Z</time>
      </trkpt>
      <trkpt lat="44.01495" lon="4.42406">
        <ele>112</ele>
        <time>2019-07-10T08:49:27Z</time>
      </trkpt>
      <trkpt lat="44.01471" lon="4.42379">
        <ele>113</ele>
        <time>2019-07-10T08:49:36Z</time>
      </trkpt>
      <trkpt lat="44.01458" lon="4.42364">
        <ele>113.6</ele>
        <time>2019-07-10T08:49:41Z</time>
      </trkpt>
      <trkpt lat="44.01443" lon="4.42346">
        <ele>114.2</ele>
        <time>2019-07-10T08:49:47Z</time>
      </trkpt>
      <trkpt lat="44.0142" lon="4.42321">
        <ele>115</ele>
        <time>2019-07-10T08:49:56Z</time>
      </trkpt>
      <trkpt lat="44.01417" lon="4.42318">
        <ele>115</ele>
        <time>2019-07-10T08:49:57Z</time>
      </trkpt>
      <trkpt lat="44.01415" lon="4.42315">
        <ele>115.2</ele>
        <time>2019-07-10T08:49:58Z</time>
      </trkpt>
      <trkpt lat="44.01398" lon="4.42296">
        <ele>115.8</ele>
        <time>2019-07-10T08:50:05Z</time>
      </trkpt>
      <trkpt lat="44.01383" lon="4.42275">
        <ele>117.2</ele>
        <time>2019-07-10T08:50:12Z</time>
      </trkpt>
      <trkpt lat="44.01376" lon="4.42266">
        <ele>117.4</ele>
        <time>2019-07-10T08:50:15Z</time>
      </trkpt>
      <trkpt lat="44.01367" lon="4.42253">
        <ele>118.2</ele>
        <time>2019-07-10T08:50:20Z</time>
      </trkpt>
      <trkpt lat="44.01361" lon="4.42239">
        <ele>119.2</ele>
        <time>2019-07-10T08:50:25Z</time>
      </trkpt>
      <trkpt lat="44.01361" lon="4.42236">
        <ele>119.4</ele>
        <time>2019-07-10T08:50:26Z</time>
      </trkpt>
      <trkpt lat="44.01363" lon="4.42221">
        <ele>120</ele>
        <time>2019-07-10T08:50:31Z</time>
      </trkpt>
      <trkpt lat="44.01365" lon="4.42214">
        <ele>120.2</ele>
        <time>2019-07-10T08:50:33Z</time>
      </trkpt>
      <trkpt lat="44.01366" lon="4.42205">
        <ele>120.8</ele>
        <time>2019-07-10T08:50:36Z</time>
      </trkpt>
      <trkpt lat="44.01369" lon="4.42199">
        <ele>121.4</ele>
        <time>2019-07-10T08:50:39Z</time>
      </trkpt>
      <trkpt lat="44.01371" lon="4.4219">
        <ele>122.4</ele>
        <time>2019-07-10T08:50:43Z</time>
      </trkpt>
      <trkpt lat="44.01369" lon="4.42181">
        <ele>122.6</ele>
        <time>2019-07-10T08:50:46Z</time>
      </trkpt>
      <trkpt lat="44.01372" lon="4.42166">
        <ele>122.8</ele>
        <time>2019-07-10T08:50:50Z</time>
      </trkpt>
      <trkpt lat="44.01373" lon="4.42162">
        <ele>123</ele>
        <time>2019-07-10T08:50:51Z</time>
      </trkpt>
      <trkpt lat="44.01375" lon="4.42138">
        <ele>124.4</ele>
        <time>2019-07-10T08:50:57Z</time>
      </trkpt>
      <trkpt lat="44.01376" lon="4.42126">
        <ele>124.8</ele>
        <time>2019-07-10T08:51:00Z</time>
      </trkpt>
      <trkpt lat="44.01378" lon="4.42109">
        <ele>125.8</ele>
        <time>2019-07-10T08:51:04Z</time>
      </trkpt>
      <trkpt lat="44.01382" lon="4.42095">
        <ele>126.4</ele>
        <time>2019-07-10T08:51:07Z</time>
      </trkpt>
      <trkpt lat="44.01386" lon="4.42071">
        <ele>127.4</ele>
        <time>2019-07-10T08:51:13Z</time>
      </trkpt>
      <trkpt lat="44.01386" lon="4.42067">
        <ele>127.6</ele>
        <time>2019-07-10T08:51:14Z</time>
      </trkpt>
      <trkpt lat="44.01386" lon="4.42063">
        <ele>127.6</ele>
        <time>2019-07-10T08:51:15Z</time>
      </trkpt>
      <trkpt lat="44.01386" lon="4.42058">
        <ele>127.8</ele>
        <time>2019-07-10T08:51:16Z</time>
      </trkpt>
      <trkpt lat="44.01387" lon="4.42038">
        <ele>127.8</ele>
        <time>2019-07-10T08:51:21Z</time>
      </trkpt>
      <trkpt lat="44.01384" lon="4.42022">
        <ele>127.6</ele>
        <time>2019-07-10T08:51:26Z</time>
      </trkpt>
      <trkpt lat="44.01381" lon="4.42013">
        <ele>127.4</ele>
        <time>2019-07-10T08:51:30Z</time>
      </trkpt>
      <trkpt lat="44.0138" lon="4.42011">
        <ele>127.2</ele>
        <time>2019-07-10T08:51:31Z</time>
      </trkpt>
      <trkpt lat="44.01379" lon="4.42006">
        <ele>127.2</ele>
        <time>2019-07-10T08:51:33Z</time>
      </trkpt>
      <trkpt lat="44.01378" lon="4.42003">
        <ele>127.2</ele>
        <time>2019-07-10T08:51:34Z</time>
      </trkpt>
      <trkpt lat="44.01377" lon="4.41999">
        <ele>127.2</ele>
        <time>2019-07-10T08:51:35Z</time>
      </trkpt>
      <trkpt lat="44.01374" lon="4.4199">
        <ele>127</ele>
        <time>2019-07-10T08:51:38Z</time>
      </trkpt>
      <trkpt lat="44.01369" lon="4.41976">
        <ele>126.8</ele>
        <time>2019-07-10T08:51:42Z</time>
      </trkpt>
      <trkpt lat="44.01366" lon="4.41968">
        <ele>126.8</ele>
        <time>2019-07-10T08:51:44Z</time>
      </trkpt>
      <trkpt lat="44.01355" lon="4.41945">
        <ele>126</ele>
        <time>2019-07-10T08:51:49Z</time>
      </trkpt>
      <trkpt lat="44.01349" lon="4.41926">
        <ele>125.4</ele>
        <time>2019-07-10T08:51:53Z</time>
      </trkpt>
      <trkpt lat="44.01343" lon="4.4191">
        <ele>125</ele>
        <time>2019-07-10T08:51:56Z</time>
      </trkpt>
      <trkpt lat="44.01341" lon="4.41905">
        <ele>125</ele>
        <time>2019-07-10T08:51:57Z</time>
      </trkpt>
      <trkpt lat="44.01332" lon="4.41882">
        <ele>124.2</ele>
        <time>2019-07-10T08:52:01Z</time>
      </trkpt>
      <trkpt lat="44.0133" lon="4.41874">
        <ele>124.2</ele>
        <time>2019-07-10T08:52:03Z</time>
      </trkpt>
      <trkpt lat="44.01327" lon="4.41871">
        <ele>124</ele>
        <time>2019-07-10T08:52:04Z</time>
      </trkpt>
      <trkpt lat="44.01318" lon="4.41855">
        <ele>123.6</ele>
        <time>2019-07-10T08:52:09Z</time>
      </trkpt>
      <trkpt lat="44.01315" lon="4.41852">
        <ele>123.2</ele>
        <time>2019-07-10T08:52:10Z</time>
      </trkpt>
      <trkpt lat="44.013" lon="4.41835">
        <ele>122.6</ele>
        <time>2019-07-10T08:52:16Z</time>
      </trkpt>
      <trkpt lat="44.01297" lon="4.41833">
        <ele>122.8</ele>
        <time>2019-07-10T08:52:17Z</time>
      </trkpt>
      <trkpt lat="44.01286" lon="4.41832">
        <ele>122.8</ele>
        <time>2019-07-10T08:52:20Z</time>
      </trkpt>
      <trkpt lat="44.01263" lon="4.41824">
        <ele>122.6</ele>
        <time>2019-07-10T08:52:27Z</time>
      </trkpt>
      <trkpt lat="44.01236" lon="4.41813">
        <ele>122.8</ele>
        <time>2019-07-10T08:52:34Z</time>
      </trkpt>
      <trkpt lat="44.01233" lon="4.41811">
        <ele>123</ele>
        <time>2019-07-10T08:52:35Z</time>
      </trkpt>
      <trkpt lat="44.01227" lon="4.41809">
        <ele>122.8</ele>
        <time>2019-07-10T08:52:37Z</time>
      </trkpt>
      <trkpt lat="44.01208" lon="4.418">
        <ele>122.8</ele>
        <time>2019-07-10T08:52:42Z</time>
      </trkpt>
      <trkpt lat="44.012" lon="4.41796">
        <ele>122.8</ele>
        <time>2019-07-10T08:52:44Z</time>
      </trkpt>
      <trkpt lat="44.01184" lon="4.41789">
        <ele>123</ele>
        <time>2019-07-10T08:52:49Z</time>
      </trkpt>
      <trkpt lat="44.01176" lon="4.41779">
        <ele>123.6</ele>
        <time>2019-07-10T08:52:53Z</time>
      </trkpt>
      <trkpt lat="44.01176" lon="4.41776">
        <ele>123.6</ele>
        <time>2019-07-10T08:52:54Z</time>
      </trkpt>
      <trkpt lat="44.01179" lon="4.41751">
        <ele>123.8</ele>
        <time>2019-07-10T08:53:00Z</time>
      </trkpt>
      <trkpt lat="44.01178" lon="4.41729">
        <ele>123.4</ele>
        <time>2019-07-10T08:53:05Z</time>
      </trkpt>
      <trkpt lat="44.01178" lon="4.41725">
        <ele>123.4</ele>
        <time>2019-07-10T08:53:07Z</time>
      </trkpt>
      <trkpt lat="44.01179" lon="4.41724">
        <ele>123.2</ele>
        <time>2019-07-10T08:53:09Z</time>
      </trkpt>
      <trkpt lat="44.01179" lon="4.41724">
        <ele>123.2</ele>
        <time>2019-07-10T08:53:10Z</time>
      </trkpt>
      <trkpt lat="44.01179" lon="4.41722">
        <ele>122.4</ele>
        <time>2019-07-10T08:54:35Z</time>
      </trkpt>
      <trkpt lat="44.0118" lon="4.41721">
        <ele>122.4</ele>
        <time>2019-07-10T08:54:36Z</time>
      </trkpt>
      <trkpt lat="44.01175" lon="4.41715">
        <ele>122.6</ele>
        <time>2019-07-10T08:54:43Z</time>
      </trkpt>
      <trkpt lat="44.01175" lon="4.41714">
        <ele>122.4</ele>
        <time>2019-07-10T08:54:45Z</time>
      </trkpt>
      <trkpt lat="44.01171" lon="4.41705">
        <ele>121.2</ele>
        <time>2019-07-10T08:56:22Z</time>
      </trkpt>
      <trkpt lat="44.01171" lon="4.41703">
        <ele>121</ele>
        <time>2019-07-10T08:56:23Z</time>
      </trkpt>
      <trkpt lat="44.01171" lon="4.41691">
        <ele>121.4</ele>
        <time>2019-07-10T08:56:28Z</time>
      </trkpt>
      <trkpt lat="44.01171" lon="4.41688">
        <ele>121.4</ele>
        <time>2019-07-10T08:56:29Z</time>
      </trkpt>
      <trkpt lat="44.01171" lon="4.41685">
        <ele>121.6</ele>
        <time>2019-07-10T08:56:30Z</time>
      </trkpt>
      <trkpt lat="44.01171" lon="4.4168">
        <ele>121.4</ele>
        <time>2019-07-10T08:56:32Z</time>
      </trkpt>
      <trkpt lat="44.01171" lon="4.41674">
        <ele>121.6</ele>
        <time>2019-07-10T08:56:34Z</time>
      </trkpt>
      <trkpt lat="44.0117" lon="4.41668">
        <ele>121.4</ele>
        <time>2019-07-10T08:56:36Z</time>
      </trkpt>
      <trkpt lat="44.01171" lon="4.41657">
        <ele>121.8</ele>
        <time>2019-07-10T08:56:39Z</time>
      </trkpt>
      <trkpt lat="44.01171" lon="4.41654">
        <ele>121.8</ele>
        <time>2019-07-10T08:56:40Z</time>
      </trkpt>
      <trkpt lat="44.01171" lon="4.41645">
        <ele>121.6</ele>
        <time>2019-07-10T08:56:42Z</time>
      </trkpt>
      <trkpt lat="44.01173" lon="4.41638">
        <ele>121.4</ele>
        <time>2019-07-10T08:56:44Z</time>
      </trkpt>
      <trkpt lat="44.01175" lon="4.4162">
        <ele>120.8</ele>
        <time>2019-07-10T08:56:49Z</time>
      </trkpt>
      <trkpt lat="44.01174" lon="4.41611">
        <ele>120.6</ele>
        <time>2019-07-10T08:56:51Z</time>
      </trkpt>
      <trkpt lat="44.01172" lon="4.41601">
        <ele>120.2</ele>
        <time>2019-07-10T08:56:53Z</time>
      </trkpt>
      <trkpt lat="44.01171" lon="4.41597">
        <ele>119.8</ele>
        <time>2019-07-10T08:56:54Z</time>
      </trkpt>
      <trkpt lat="44.0117" lon="4.41588">
        <ele>119.4</ele>
        <time>2019-07-10T08:56:56Z</time>
      </trkpt>
      <trkpt lat="44.01167" lon="4.4157">
        <ele>119</ele>
        <time>2019-07-10T08:56:59Z</time>
      </trkpt>
      <trkpt lat="44.01164" lon="4.41564">
        <ele>118.8</ele>
        <time>2019-07-10T08:57:00Z</time>
      </trkpt>
      <trkpt lat="44.0116" lon="4.4155">
        <ele>118.8</ele>
        <time>2019-07-10T08:57:02Z</time>
      </trkpt>
      <trkpt lat="44.0116" lon="4.41542">
        <ele>118.4</ele>
        <time>2019-07-10T08:57:03Z</time>
      </trkpt>
      <trkpt lat="44.01159" lon="4.41526">
        <ele>118.4</ele>
        <time>2019-07-10T08:57:05Z</time>
      </trkpt>
      <trkpt lat="44.01158" lon="4.41507">
        <ele>118.2</ele>
        <time>2019-07-10T08:57:08Z</time>
      </trkpt>
      <trkpt lat="44.01159" lon="4.41504">
        <ele>118</ele>
        <time>2019-07-10T08:57:09Z</time>
      </trkpt>
      <trkpt lat="44.01159" lon="4.41504">
        <ele>117.8</ele>
        <time>2019-07-10T08:57:11Z</time>
      </trkpt>
      <trkpt lat="44.01157" lon="4.41501">
        <ele>117.4</ele>
        <time>2019-07-10T08:57:13Z</time>
      </trkpt>
      <trkpt lat="44.01155" lon="4.41495">
        <ele>117.2</ele>
        <time>2019-07-10T08:57:15Z</time>
      </trkpt>
      <trkpt lat="44.01154" lon="4.41491">
        <ele>117</ele>
        <time>2019-07-10T08:57:16Z</time>
      </trkpt>
      <trkpt lat="44.01149" lon="4.41469">
        <ele>116.8</ele>
        <time>2019-07-10T08:57:20Z</time>
      </trkpt>
      <trkpt lat="44.01148" lon="4.41463">
        <ele>116.8</ele>
        <time>2019-07-10T08:57:21Z</time>
      </trkpt>
      <trkpt lat="44.01147" lon="4.41456">
        <ele>116.8</ele>
        <time>2019-07-10T08:57:22Z</time>
      </trkpt>
      <trkpt lat="44.01145" lon="4.41442">
        <ele>116.8</ele>
        <time>2019-07-10T08:57:24Z</time>
      </trkpt>
      <trkpt lat="44.01142" lon="4.41427">
        <ele>116.8</ele>
        <time>2019-07-10T08:57:26Z</time>
      </trkpt>
      <trkpt lat="44.01133" lon="4.41371">
        <ele>116.6</ele>
        <time>2019-07-10T08:57:34Z</time>
      </trkpt>
      <trkpt lat="44.01132" lon="4.41364">
        <ele>116.6</ele>
        <time>2019-07-10T08:57:35Z</time>
      </trkpt>
      <trkpt lat="44.01125" lon="4.41317">
        <ele>116.4</ele>
        <time>2019-07-10T08:57:42Z</time>
      </trkpt>
      <trkpt lat="44.01118" lon="4.41267">
        <ele>116</ele>
        <time>2019-07-10T08:57:50Z</time>
      </trkpt>
      <trkpt lat="44.01116" lon="4.41255">
        <ele>116</ele>
        <time>2019-07-10T08:57:52Z</time>
      </trkpt>
      <trkpt lat="44.01116" lon="4.41249">
        <ele>116.2</ele>
        <time>2019-07-10T08:57:53Z</time>
      </trkpt>
      <trkpt lat="44.01113" lon="4.41231">
        <ele>116.4</ele>
        <time>2019-07-10T08:57:56Z</time>
      </trkpt>
      <trkpt lat="44.01112" lon="4.41225">
        <ele>116.4</ele>
        <time>2019-07-10T08:57:57Z</time>
      </trkpt>
      <trkpt lat="44.01112" lon="4.41219">
        <ele>116.4</ele>
        <time>2019-07-10T08:57:58Z</time>
      </trkpt>
      <trkpt lat="44.01111" lon="4.41213">
        <ele>116.4</ele>
        <time>2019-07-10T08:57:59Z</time>
      </trkpt>
      <trkpt lat="44.01107" lon="4.41188">
        <ele>116.6</ele>
        <time>2019-07-10T08:58:03Z</time>
      </trkpt>
      <trkpt lat="44.01104" lon="4.41171">
        <ele>116.8</ele>
        <time>2019-07-10T08:58:06Z</time>
      </trkpt>
      <trkpt lat="44.01099" lon="4.41152">
        <ele>117.2</ele>
        <time>2019-07-10T08:58:09Z</time>
      </trkpt>
      <trkpt lat="44.01097" lon="4.4114">
        <ele>117.4</ele>
        <time>2019-07-10T08:58:11Z</time>
      </trkpt>
      <trkpt lat="44.01094" lon="4.41127">
        <ele>117.4</ele>
        <time>2019-07-10T08:58:13Z</time>
      </trkpt>
      <trkpt lat="44.01093" lon="4.41121">
        <ele>117.4</ele>
        <time>2019-07-10T08:58:14Z</time>
      </trkpt>
      <trkpt lat="44.01089" lon="4.41096">
        <ele>117.8</ele>
        <time>2019-07-10T08:58:18Z</time>
      </trkpt>
      <trkpt lat="44.01088" lon="4.41089">
        <ele>117.8</ele>
        <time>2019-07-10T08:58:19Z</time>
      </trkpt>
      <trkpt lat="44.01084" lon="4.4107">
        <ele>118</ele>
        <time>2019-07-10T08:58:22Z</time>
      </trkpt>
      <trkpt lat="44.01081" lon="4.41051">
        <ele>117.8</ele>
        <time>2019-07-10T08:58:25Z</time>
      </trkpt>
      <trkpt lat="44.0108" lon="4.41038">
        <ele>117.8</ele>
        <time>2019-07-10T08:58:27Z</time>
      </trkpt>
      <trkpt lat="44.01076" lon="4.41019">
        <ele>117.6</ele>
        <time>2019-07-10T08:58:30Z</time>
      </trkpt>
      <trkpt lat="44.01075" lon="4.41012">
        <ele>117.4</ele>
        <time>2019-07-10T08:58:31Z</time>
      </trkpt>
      <trkpt lat="44.01071" lon="4.40989">
        <ele>117.4</ele>
        <time>2019-07-10T08:58:35Z</time>
      </trkpt>
      <trkpt lat="44.0107" lon="4.40982">
        <ele>117.6</ele>
        <time>2019-07-10T08:58:36Z</time>
      </trkpt>
      <trkpt lat="44.01066" lon="4.40958">
        <ele>118</ele>
        <time>2019-07-10T08:58:40Z</time>
      </trkpt>
      <trkpt lat="44.01062" lon="4.40933">
        <ele>118.2</ele>
        <time>2019-07-10T08:58:44Z</time>
      </trkpt>
      <trkpt lat="44.01061" lon="4.40926">
        <ele>118.2</ele>
        <time>2019-07-10T08:58:45Z</time>
      </trkpt>
      <trkpt lat="44.01059" lon="4.40914">
        <ele>117.8</ele>
        <time>2019-07-10T08:58:47Z</time>
      </trkpt>
      <trkpt lat="44.01057" lon="4.40907">
        <ele>117.6</ele>
        <time>2019-07-10T08:58:48Z</time>
      </trkpt>
      <trkpt lat="44.01056" lon="4.40894">
        <ele>117.4</ele>
        <time>2019-07-10T08:58:50Z</time>
      </trkpt>
      <trkpt lat="44.01052" lon="4.40863">
        <ele>117.2</ele>
        <time>2019-07-10T08:58:55Z</time>
      </trkpt>
      <trkpt lat="44.01051" lon="4.40845">
        <ele>117.2</ele>
        <time>2019-07-10T08:58:58Z</time>
      </trkpt>
      <trkpt lat="44.01049" lon="4.40827">
        <ele>117.2</ele>
        <time>2019-07-10T08:59:01Z</time>
      </trkpt>
      <trkpt lat="44.01046" lon="4.4081">
        <ele>117.4</ele>
        <time>2019-07-10T08:59:04Z</time>
      </trkpt>
      <trkpt lat="44.01043" lon="4.40793">
        <ele>117.6</ele>
        <time>2019-07-10T08:59:07Z</time>
      </trkpt>
      <trkpt lat="44.01034" lon="4.40741">
        <ele>117.4</ele>
        <time>2019-07-10T08:59:16Z</time>
      </trkpt>
      <trkpt lat="44.01033" lon="4.40729">
        <ele>117.6</ele>
        <time>2019-07-10T08:59:18Z</time>
      </trkpt>
      <trkpt lat="44.01031" lon="4.40717">
        <ele>118</ele>
        <time>2019-07-10T08:59:20Z</time>
      </trkpt>
      <trkpt lat="44.01027" lon="4.40695">
        <ele>118.2</ele>
        <time>2019-07-10T08:59:24Z</time>
      </trkpt>
      <trkpt lat="44.01023" lon="4.40672">
        <ele>118.4</ele>
        <time>2019-07-10T08:59:28Z</time>
      </trkpt>
      <trkpt lat="44.01022" lon="4.40667">
        <ele>118.4</ele>
        <time>2019-07-10T08:59:29Z</time>
      </trkpt>
      <trkpt lat="44.01021" lon="4.40661">
        <ele>118.6</ele>
        <time>2019-07-10T08:59:30Z</time>
      </trkpt>
      <trkpt lat="44.0102" lon="4.40655">
        <ele>118.4</ele>
        <time>2019-07-10T08:59:31Z</time>
      </trkpt>
      <trkpt lat="44.01016" lon="4.40628">
        <ele>118</ele>
        <time>2019-07-10T08:59:35Z</time>
      </trkpt>
      <trkpt lat="44.01012" lon="4.40606">
        <ele>118</ele>
        <time>2019-07-10T08:59:38Z</time>
      </trkpt>
      <trkpt lat="44.01006" lon="4.40582">
        <ele>117.6</ele>
        <time>2019-07-10T08:59:41Z</time>
      </trkpt>
      <trkpt lat="44.00998" lon="4.40569">
        <ele>117.4</ele>
        <time>2019-07-10T08:59:43Z</time>
      </trkpt>
      <trkpt lat="44.00992" lon="4.40563">
        <ele>117.2</ele>
        <time>2019-07-10T08:59:44Z</time>
      </trkpt>
      <trkpt lat="44.00986" lon="4.40558">
        <ele>117.2</ele>
        <time>2019-07-10T08:59:45Z</time>
      </trkpt>
      <trkpt lat="44.00963" lon="4.40548">
        <ele>116.2</ele>
        <time>2019-07-10T08:59:48Z</time>
      </trkpt>
      <trkpt lat="44.00928" lon="4.40537">
        <ele>115.2</ele>
        <time>2019-07-10T08:59:52Z</time>
      </trkpt>
      <trkpt lat="44.00918" lon="4.40536">
        <ele>115.2</ele>
        <time>2019-07-10T08:59:53Z</time>
      </trkpt>
      <trkpt lat="44.00889" lon="4.40533">
        <ele>114</ele>
        <time>2019-07-10T08:59:56Z</time>
      </trkpt>
      <trkpt lat="44.00878" lon="4.40531">
        <ele>113.6</ele>
        <time>2019-07-10T08:59:57Z</time>
      </trkpt>
      <trkpt lat="44.00868" lon="4.40527">
        <ele>113.4</ele>
        <time>2019-07-10T08:59:58Z</time>
      </trkpt>
      <trkpt lat="44.00858" lon="4.40521">
        <ele>112.8</ele>
        <time>2019-07-10T08:59:59Z</time>
      </trkpt>
      <trkpt lat="44.00829" lon="4.40498">
        <ele>111.6</ele>
        <time>2019-07-10T09:00:02Z</time>
      </trkpt>
      <trkpt lat="44.00819" lon="4.4049">
        <ele>110.8</ele>
        <time>2019-07-10T09:00:03Z</time>
      </trkpt>
      <trkpt lat="44.0081" lon="4.40483">
        <ele>110</ele>
        <time>2019-07-10T09:00:04Z</time>
      </trkpt>
      <trkpt lat="44.008" lon="4.40476">
        <ele>109.8</ele>
        <time>2019-07-10T09:00:05Z</time>
      </trkpt>
      <trkpt lat="44.00791" lon="4.40471">
        <ele>109.4</ele>
        <time>2019-07-10T09:00:06Z</time>
      </trkpt>
      <trkpt lat="44.00782" lon="4.40466">
        <ele>109</ele>
        <time>2019-07-10T09:00:07Z</time>
      </trkpt>
      <trkpt lat="44.00763" lon="4.40459">
        <ele>107</ele>
        <time>2019-07-10T09:00:09Z</time>
      </trkpt>
      <trkpt lat="44.00744" lon="4.40459">
        <ele>105.4</ele>
        <time>2019-07-10T09:00:11Z</time>
      </trkpt>
      <trkpt lat="44.00735" lon="4.40463">
        <ele>104.6</ele>
        <time>2019-07-10T09:00:12Z</time>
      </trkpt>
      <trkpt lat="44.00716" lon="4.40473">
        <ele>103.8</ele>
        <time>2019-07-10T09:00:14Z</time>
      </trkpt>
      <trkpt lat="44.00697" lon="4.40485">
        <ele>103</ele>
        <time>2019-07-10T09:00:16Z</time>
      </trkpt>
      <trkpt lat="44.00687" lon="4.40488">
        <ele>102.4</ele>
        <time>2019-07-10T09:00:17Z</time>
      </trkpt>
      <trkpt lat="44.00677" lon="4.40487">
        <ele>102.2</ele>
        <time>2019-07-10T09:00:18Z</time>
      </trkpt>
      <trkpt lat="44.00668" lon="4.40483">
        <ele>102</ele>
        <time>2019-07-10T09:00:19Z</time>
      </trkpt>
      <trkpt lat="44.0065" lon="4.4047">
        <ele>101.6</ele>
        <time>2019-07-10T09:00:21Z</time>
      </trkpt>
      <trkpt lat="44.00621" lon="4.40451">
        <ele>99.8</ele>
        <time>2019-07-10T09:00:24Z</time>
      </trkpt>
      <trkpt lat="44.006" lon="4.40442">
        <ele>98.4</ele>
        <time>2019-07-10T09:00:26Z</time>
      </trkpt>
      <trkpt lat="44.00578" lon="4.40433">
        <ele>97.4</ele>
        <time>2019-07-10T09:00:28Z</time>
      </trkpt>
      <trkpt lat="44.00554" lon="4.40427">
        <ele>96.2</ele>
        <time>2019-07-10T09:00:30Z</time>
      </trkpt>
      <trkpt lat="44.00543" lon="4.40427">
        <ele>96</ele>
        <time>2019-07-10T09:00:31Z</time>
      </trkpt>
      <trkpt lat="44.00532" lon="4.40427">
        <ele>95.6</ele>
        <time>2019-07-10T09:00:32Z</time>
      </trkpt>
      <trkpt lat="44.00511" lon="4.40426">
        <ele>94.4</ele>
        <time>2019-07-10T09:00:34Z</time>
      </trkpt>
      <trkpt lat="44.00502" lon="4.40421">
        <ele>93.2</ele>
        <time>2019-07-10T09:00:35Z</time>
      </trkpt>
      <trkpt lat="44.00495" lon="4.40411">
        <ele>92.8</ele>
        <time>2019-07-10T09:00:36Z</time>
      </trkpt>
      <trkpt lat="44.00489" lon="4.40401">
        <ele>92</ele>
        <time>2019-07-10T09:00:37Z</time>
      </trkpt>
      <trkpt lat="44.00484" lon="4.40391">
        <ele>91.4</ele>
        <time>2019-07-10T09:00:38Z</time>
      </trkpt>
      <trkpt lat="44.00477" lon="4.40383">
        <ele>90.6</ele>
        <time>2019-07-10T09:00:39Z</time>
      </trkpt>
      <trkpt lat="44.00469" lon="4.40379">
        <ele>90.2</ele>
        <time>2019-07-10T09:00:40Z</time>
      </trkpt>
      <trkpt lat="44.0046" lon="4.40377">
        <ele>90</ele>
        <time>2019-07-10T09:00:41Z</time>
      </trkpt>
      <trkpt lat="44.0045" lon="4.40377">
        <ele>89.4</ele>
        <time>2019-07-10T09:00:42Z</time>
      </trkpt>
      <trkpt lat="44.0043" lon="4.40378">
        <ele>89</ele>
        <time>2019-07-10T09:00:44Z</time>
      </trkpt>
      <trkpt lat="44.0042" lon="4.40376">
        <ele>88.8</ele>
        <time>2019-07-10T09:00:45Z</time>
      </trkpt>
      <trkpt lat="44.00411" lon="4.40371">
        <ele>88</ele>
        <time>2019-07-10T09:00:46Z</time>
      </trkpt>
      <trkpt lat="44.00395" lon="4.40351">
        <ele>86.4</ele>
        <time>2019-07-10T09:00:48Z</time>
      </trkpt>
      <trkpt lat="44.00388" lon="4.40322">
        <ele>85.6</ele>
        <time>2019-07-10T09:00:50Z</time>
      </trkpt>
      <trkpt lat="44.00387" lon="4.40307">
        <ele>85.2</ele>
        <time>2019-07-10T09:00:51Z</time>
      </trkpt>
      <trkpt lat="44.00383" lon="4.40261">
        <ele>84.8</ele>
        <time>2019-07-10T09:00:54Z</time>
      </trkpt>
      <trkpt lat="44.00381" lon="4.40235">
        <ele>84.4</ele>
        <time>2019-07-10T09:00:56Z</time>
      </trkpt>
      <trkpt lat="44.0038" lon="4.40224">
        <ele>84</ele>
        <time>2019-07-10T09:00:57Z</time>
      </trkpt>
      <trkpt lat="44.00379" lon="4.40201">
        <ele>83.4</ele>
        <time>2019-07-10T09:00:59Z</time>
      </trkpt>
      <trkpt lat="44.00379" lon="4.40191">
        <ele>82.2</ele>
        <time>2019-07-10T09:01:00Z</time>
      </trkpt>
      <trkpt lat="44.0038" lon="4.40171">
        <ele>81.2</ele>
        <time>2019-07-10T09:01:02Z</time>
      </trkpt>
      <trkpt lat="44.00383" lon="4.40163">
        <ele>80.8</ele>
        <time>2019-07-10T09:01:03Z</time>
      </trkpt>
      <trkpt lat="44.00387" lon="4.40156">
        <ele>80</ele>
        <time>2019-07-10T09:01:04Z</time>
      </trkpt>
      <trkpt lat="44.00389" lon="4.4015">
        <ele>79.6</ele>
        <time>2019-07-10T09:01:05Z</time>
      </trkpt>
      <trkpt lat="44.00391" lon="4.40142">
        <ele>79.2</ele>
        <time>2019-07-10T09:01:06Z</time>
      </trkpt>
      <trkpt lat="44.00391" lon="4.40135">
        <ele>78.8</ele>
        <time>2019-07-10T09:01:07Z</time>
      </trkpt>
      <trkpt lat="44.00389" lon="4.40129">
        <ele>78.6</ele>
        <time>2019-07-10T09:01:08Z</time>
      </trkpt>
      <trkpt lat="44.00383" lon="4.40116">
        <ele>78.2</ele>
        <time>2019-07-10T09:01:10Z</time>
      </trkpt>
      <trkpt lat="44.0038" lon="4.40113">
        <ele>77.4</ele>
        <time>2019-07-10T09:01:11Z</time>
      </trkpt>
      <trkpt lat="44.00377" lon="4.40112">
        <ele>77</ele>
        <time>2019-07-10T09:01:12Z</time>
      </trkpt>
      <trkpt lat="44.00368" lon="4.40113">
        <ele>75.2</ele>
        <time>2019-07-10T09:01:14Z</time>
      </trkpt>
      <trkpt lat="44.00356" lon="4.40123">
        <ele>74</ele>
        <time>2019-07-10T09:01:19Z</time>
      </trkpt>
      <trkpt lat="44.00356" lon="4.40123">
        <ele>74</ele>
        <time>2019-07-10T09:01:20Z</time>
      </trkpt>
      <trkpt lat="44.00356" lon="4.40123">
        <ele>73.8</ele>
        <time>2019-07-10T09:01:21Z</time>
      </trkpt>
      <trkpt lat="44.00354" lon="4.4013">
        <ele>73.6</ele>
        <time>2019-07-10T09:01:32Z</time>
      </trkpt>
      <trkpt lat="44.00355" lon="4.40144">
        <ele>73.8</ele>
        <time>2019-07-10T09:01:36Z</time>
      </trkpt>
      <trkpt lat="44.00356" lon="4.40148">
        <ele>73.8</ele>
        <time>2019-07-10T09:01:37Z</time>
      </trkpt>
      <trkpt lat="44.00357" lon="4.40152">
        <ele>74</ele>
        <time>2019-07-10T09:01:38Z</time>
      </trkpt>
      <trkpt lat="44.00365" lon="4.40161">
        <ele>74.4</ele>
        <time>2019-07-10T09:01:41Z</time>
      </trkpt>
      <trkpt lat="44.00368" lon="4.40162">
        <ele>74.6</ele>
        <time>2019-07-10T09:01:42Z</time>
      </trkpt>
      <trkpt lat="44.00382" lon="4.40162">
        <ele>76.2</ele>
        <time>2019-07-10T09:01:46Z</time>
      </trkpt>
      <trkpt lat="44.00385" lon="4.40159">
        <ele>76.8</ele>
        <time>2019-07-10T09:01:47Z</time>
      </trkpt>
      <trkpt lat="44.00392" lon="4.40146">
        <ele>76.8</ele>
        <time>2019-07-10T09:01:50Z</time>
      </trkpt>
      <trkpt lat="44.00392" lon="4.4014">
        <ele>77</ele>
        <time>2019-07-10T09:01:51Z</time>
      </trkpt>
      <trkpt lat="44.0039" lon="4.40128">
        <ele>77</ele>
        <time>2019-07-10T09:01:53Z</time>
      </trkpt>
      <trkpt lat="44.00388" lon="4.40122">
        <ele>76.8</ele>
        <time>2019-07-10T09:01:54Z</time>
      </trkpt>
      <trkpt lat="44.00381" lon="4.40113">
        <ele>76.2</ele>
        <time>2019-07-10T09:01:56Z</time>
      </trkpt>
      <trkpt lat="44.00376" lon="4.40106">
        <ele>75.8</ele>
        <time>2019-07-10T09:01:57Z</time>
      </trkpt>
      <trkpt lat="44.00371" lon="4.40089">
        <ele>75</ele>
        <time>2019-07-10T09:01:59Z</time>
      </trkpt>
      <trkpt lat="44.0037" lon="4.40082">
        <ele>74.4</ele>
        <time>2019-07-10T09:02:00Z</time>
      </trkpt>
      <trkpt lat="44.00362" lon="4.40014">
        <ele>72.6</ele>
        <time>2019-07-10T09:02:07Z</time>
      </trkpt>
      <trkpt lat="44.00361" lon="4.40005">
        <ele>72.4</ele>
        <time>2019-07-10T09:02:08Z</time>
      </trkpt>
      <trkpt lat="44.00355" lon="4.39924">
        <ele>71.6</ele>
        <time>2019-07-10T09:02:17Z</time>
      </trkpt>
      <trkpt lat="44.00354" lon="4.3987">
        <ele>71.6</ele>
        <time>2019-07-10T09:02:23Z</time>
      </trkpt>
      <trkpt lat="44.00354" lon="4.39861">
        <ele>71.6</ele>
        <time>2019-07-10T09:02:24Z</time>
      </trkpt>
      <trkpt lat="44.00353" lon="4.3982">
        <ele>71.8</ele>
        <time>2019-07-10T09:02:29Z</time>
      </trkpt>
      <trkpt lat="44.00352" lon="4.39781">
        <ele>71.8</ele>
        <time>2019-07-10T09:02:34Z</time>
      </trkpt>
      <trkpt lat="44.00351" lon="4.3973">
        <ele>71.8</ele>
        <time>2019-07-10T09:02:41Z</time>
      </trkpt>
      <trkpt lat="44.0035" lon="4.39716">
        <ele>71.8</ele>
        <time>2019-07-10T09:02:43Z</time>
      </trkpt>
      <trkpt lat="44.00346" lon="4.39697">
        <ele>71.8</ele>
        <time>2019-07-10T09:02:46Z</time>
      </trkpt>
      <trkpt lat="44.00343" lon="4.39691">
        <ele>72</ele>
        <time>2019-07-10T09:02:47Z</time>
      </trkpt>
      <trkpt lat="44.00323" lon="4.3965">
        <ele>72</ele>
        <time>2019-07-10T09:02:54Z</time>
      </trkpt>
      <trkpt lat="44.00291" lon="4.39598">
        <ele>71.8</ele>
        <time>2019-07-10T09:03:03Z</time>
      </trkpt>
      <trkpt lat="44.0027" lon="4.39558">
        <ele>71.8</ele>
        <time>2019-07-10T09:03:10Z</time>
      </trkpt>
      <trkpt lat="44.00251" lon="4.39505">
        <ele>72</ele>
        <time>2019-07-10T09:03:18Z</time>
      </trkpt>
      <trkpt lat="44.00245" lon="4.39485">
        <ele>72</ele>
        <time>2019-07-10T09:03:21Z</time>
      </trkpt>
      <trkpt lat="44.00241" lon="4.39463">
        <ele>72</ele>
        <time>2019-07-10T09:03:24Z</time>
      </trkpt>
      <trkpt lat="44.00236" lon="4.39434">
        <ele>71.8</ele>
        <time>2019-07-10T09:03:28Z</time>
      </trkpt>
      <trkpt lat="44.00235" lon="4.39413">
        <ele>71.8</ele>
        <time>2019-07-10T09:03:31Z</time>
      </trkpt>
      <trkpt lat="44.00231" lon="4.39369">
        <ele>72</ele>
        <time>2019-07-10T09:03:37Z</time>
      </trkpt>
      <trkpt lat="44.00231" lon="4.39355">
        <ele>72</ele>
        <time>2019-07-10T09:03:39Z</time>
      </trkpt>
      <trkpt lat="44.00232" lon="4.39334">
        <ele>72.2</ele>
        <time>2019-07-10T09:03:42Z</time>
      </trkpt>
      <trkpt lat="44.00234" lon="4.39278">
        <ele>72.4</ele>
        <time>2019-07-10T09:03:50Z</time>
      </trkpt>
      <trkpt lat="44.00234" lon="4.39271">
        <ele>72.6</ele>
        <time>2019-07-10T09:03:51Z</time>
      </trkpt>
      <trkpt lat="44.00236" lon="4.39201">
        <ele>72.2</ele>
        <time>2019-07-10T09:04:01Z</time>
      </trkpt>
      <trkpt lat="44.00237" lon="4.39188">
        <ele>72.2</ele>
        <time>2019-07-10T09:04:03Z</time>
      </trkpt>
      <trkpt lat="44.00239" lon="4.39164">
        <ele>72.2</ele>
        <time>2019-07-10T09:04:07Z</time>
      </trkpt>
      <trkpt lat="44.00238" lon="4.39145">
        <ele>72.2</ele>
        <time>2019-07-10T09:04:10Z</time>
      </trkpt>
      <trkpt lat="44.00237" lon="4.39125">
        <ele>72.4</ele>
        <time>2019-07-10T09:04:13Z</time>
      </trkpt>
      <trkpt lat="44.00235" lon="4.39112">
        <ele>72.8</ele>
        <time>2019-07-10T09:04:15Z</time>
      </trkpt>
      <trkpt lat="44.00234" lon="4.39105">
        <ele>72.8</ele>
        <time>2019-07-10T09:04:16Z</time>
      </trkpt>
      <trkpt lat="44.00232" lon="4.39092">
        <ele>72.8</ele>
        <time>2019-07-10T09:04:18Z</time>
      </trkpt>
      <trkpt lat="44.00224" lon="4.39046">
        <ele>72.2</ele>
        <time>2019-07-10T09:04:24Z</time>
      </trkpt>
      <trkpt lat="44.00222" lon="4.3903">
        <ele>72.2</ele>
        <time>2019-07-10T09:04:26Z</time>
      </trkpt>
      <trkpt lat="44.0022" lon="4.39021">
        <ele>72.2</ele>
        <time>2019-07-10T09:04:27Z</time>
      </trkpt>
      <trkpt lat="44.00217" lon="4.39004">
        <ele>72.2</ele>
        <time>2019-07-10T09:04:29Z</time>
      </trkpt>
      <trkpt lat="44.00215" lon="4.38985">
        <ele>72</ele>
        <time>2019-07-10T09:04:31Z</time>
      </trkpt>
      <trkpt lat="44.0021" lon="4.38946">
        <ele>71.8</ele>
        <time>2019-07-10T09:04:35Z</time>
      </trkpt>
      <trkpt lat="44.00204" lon="4.38897">
        <ele>71</ele>
        <time>2019-07-10T09:04:40Z</time>
      </trkpt>
      <trkpt lat="44.00203" lon="4.38887">
        <ele>71</ele>
        <time>2019-07-10T09:04:41Z</time>
      </trkpt>
      <trkpt lat="44.00196" lon="4.38835">
        <ele>70.2</ele>
        <time>2019-07-10T09:04:47Z</time>
      </trkpt>
      <trkpt lat="44.00195" lon="4.38827">
        <ele>70</ele>
        <time>2019-07-10T09:04:48Z</time>
      </trkpt>
      <trkpt lat="44.00193" lon="4.38819">
        <ele>70</ele>
        <time>2019-07-10T09:04:49Z</time>
      </trkpt>
      <trkpt lat="44.00191" lon="4.38795">
        <ele>70</ele>
        <time>2019-07-10T09:04:52Z</time>
      </trkpt>
      <trkpt lat="44.00185" lon="4.3875">
        <ele>70</ele>
        <time>2019-07-10T09:04:58Z</time>
      </trkpt>
      <trkpt lat="44.00181" lon="4.38728">
        <ele>70</ele>
        <time>2019-07-10T09:05:01Z</time>
      </trkpt>
      <trkpt lat="44.00173" lon="4.38691">
        <ele>70.6</ele>
        <time>2019-07-10T09:05:06Z</time>
      </trkpt>
      <trkpt lat="44.00162" lon="4.38654">
        <ele>71</ele>
        <time>2019-07-10T09:05:12Z</time>
      </trkpt>
      <trkpt lat="44.0016" lon="4.38648">
        <ele>71</ele>
        <time>2019-07-10T09:05:13Z</time>
      </trkpt>
      <trkpt lat="44.00153" lon="4.38633">
        <ele>71</ele>
        <time>2019-07-10T09:05:16Z</time>
      </trkpt>
      <trkpt lat="44.00147" lon="4.38619">
        <ele>71.2</ele>
        <time>2019-07-10T09:05:19Z</time>
      </trkpt>
      <trkpt lat="44.00142" lon="4.38609">
        <ele>71.6</ele>
        <time>2019-07-10T09:05:21Z</time>
      </trkpt>
      <trkpt lat="44.00138" lon="4.38599">
        <ele>71.6</ele>
        <time>2019-07-10T09:05:23Z</time>
      </trkpt>
      <trkpt lat="44.00128" lon="4.38578">
        <ele>72.8</ele>
        <time>2019-07-10T09:05:28Z</time>
      </trkpt>
      <trkpt lat="44.00126" lon="4.38573">
        <ele>73.2</ele>
        <time>2019-07-10T09:05:29Z</time>
      </trkpt>
      <trkpt lat="44.00116" lon="4.38546">
        <ele>73.6</ele>
        <time>2019-07-10T09:05:35Z</time>
      </trkpt>
      <trkpt lat="44.00107" lon="4.3852">
        <ele>73.8</ele>
        <time>2019-07-10T09:05:40Z</time>
      </trkpt>
      <trkpt lat="44.00101" lon="4.38481">
        <ele>73.8</ele>
        <time>2019-07-10T09:05:47Z</time>
      </trkpt>
      <trkpt lat="44.00102" lon="4.38454">
        <ele>74.6</ele>
        <time>2019-07-10T09:05:52Z</time>
      </trkpt>
      <trkpt lat="44.00103" lon="4.38445">
        <ele>74.8</ele>
        <time>2019-07-10T09:05:54Z</time>
      </trkpt>
      <trkpt lat="44.00104" lon="4.38423">
        <ele>75.2</ele>
        <time>2019-07-10T09:05:58Z</time>
      </trkpt>
      <trkpt lat="44.00107" lon="4.38402">
        <ele>75.6</ele>
        <time>2019-07-10T09:06:02Z</time>
      </trkpt>
      <trkpt lat="44.00109" lon="4.38392">
        <ele>75.8</ele>
        <time>2019-07-10T09:06:04Z</time>
      </trkpt>
      <trkpt lat="44.00115" lon="4.38362">
        <ele>77</ele>
        <time>2019-07-10T09:06:10Z</time>
      </trkpt>
      <trkpt lat="44.00116" lon="4.38351">
        <ele>77.2</ele>
        <time>2019-07-10T09:06:12Z</time>
      </trkpt>
      <trkpt lat="44.0012" lon="4.38325">
        <ele>77.8</ele>
        <time>2019-07-10T09:06:18Z</time>
      </trkpt>
      <trkpt lat="44.00124" lon="4.38296">
        <ele>78.6</ele>
        <time>2019-07-10T09:06:24Z</time>
      </trkpt>
      <trkpt lat="44.00126" lon="4.38266">
        <ele>79.4</ele>
        <time>2019-07-10T09:06:31Z</time>
      </trkpt>
      <trkpt lat="44.00129" lon="4.38243">
        <ele>79.8</ele>
        <time>2019-07-10T09:06:36Z</time>
      </trkpt>
      <trkpt lat="44.0013" lon="4.38238">
        <ele>79.8</ele>
        <time>2019-07-10T09:06:37Z</time>
      </trkpt>
      <trkpt lat="44.00132" lon="4.38199">
        <ele>79.8</ele>
        <time>2019-07-10T09:06:45Z</time>
      </trkpt>
      <trkpt lat="44.00134" lon="4.38174">
        <ele>80.6</ele>
        <time>2019-07-10T09:06:50Z</time>
      </trkpt>
      <trkpt lat="44.00136" lon="4.38161">
        <ele>81.2</ele>
        <time>2019-07-10T09:06:53Z</time>
      </trkpt>
      <trkpt lat="44.00138" lon="4.38147">
        <ele>81.4</ele>
        <time>2019-07-10T09:06:56Z</time>
      </trkpt>
      <trkpt lat="44.00139" lon="4.38119">
        <ele>81.8</ele>
        <time>2019-07-10T09:07:02Z</time>
      </trkpt>
      <trkpt lat="44.0014" lon="4.38109">
        <ele>82</ele>
        <time>2019-07-10T09:07:04Z</time>
      </trkpt>
      <trkpt lat="44.00141" lon="4.3809">
        <ele>82.4</ele>
        <time>2019-07-10T09:07:08Z</time>
      </trkpt>
      <trkpt lat="44.00142" lon="4.3808">
        <ele>83</ele>
        <time>2019-07-10T09:07:10Z</time>
      </trkpt>
      <trkpt lat="44.00143" lon="4.38075">
        <ele>83</ele>
        <time>2019-07-10T09:07:11Z</time>
      </trkpt>
      <trkpt lat="44.00143" lon="4.3807">
        <ele>83</ele>
        <time>2019-07-10T09:07:12Z</time>
      </trkpt>
      <trkpt lat="44.00144" lon="4.38065">
        <ele>83.2</ele>
        <time>2019-07-10T09:07:13Z</time>
      </trkpt>
      <trkpt lat="44.00146" lon="4.38039">
        <ele>83.4</ele>
        <time>2019-07-10T09:07:18Z</time>
      </trkpt>
      <trkpt lat="44.0015" lon="4.3801">
        <ele>83.8</ele>
        <time>2019-07-10T09:07:24Z</time>
      </trkpt>
      <trkpt lat="44.00152" lon="4.37987">
        <ele>84</ele>
        <time>2019-07-10T09:07:29Z</time>
      </trkpt>
      <trkpt lat="44.00151" lon="4.37973">
        <ele>84.2</ele>
        <time>2019-07-10T09:07:32Z</time>
      </trkpt>
      <trkpt lat="44.0015" lon="4.37963">
        <ele>84.4</ele>
        <time>2019-07-10T09:07:34Z</time>
      </trkpt>
      <trkpt lat="44.00146" lon="4.37932">
        <ele>85.2</ele>
        <time>2019-07-10T09:07:40Z</time>
      </trkpt>
      <trkpt lat="44.00142" lon="4.37903">
        <ele>86</ele>
        <time>2019-07-10T09:07:46Z</time>
      </trkpt>
      <trkpt lat="44.00141" lon="4.37898">
        <ele>86.2</ele>
        <time>2019-07-10T09:07:47Z</time>
      </trkpt>
      <trkpt lat="44.00136" lon="4.37871">
        <ele>86.6</ele>
        <time>2019-07-10T09:07:52Z</time>
      </trkpt>
      <trkpt lat="44.00135" lon="4.37866">
        <ele>86.8</ele>
        <time>2019-07-10T09:07:53Z</time>
      </trkpt>
      <trkpt lat="44.00133" lon="4.3785">
        <ele>87.4</ele>
        <time>2019-07-10T09:07:56Z</time>
      </trkpt>
      <trkpt lat="44.00132" lon="4.37841">
        <ele>87.6</ele>
        <time>2019-07-10T09:07:58Z</time>
      </trkpt>
      <trkpt lat="44.00129" lon="4.37828">
        <ele>88.2</ele>
        <time>2019-07-10T09:08:01Z</time>
      </trkpt>
      <trkpt lat="44.00126" lon="4.37813">
        <ele>88.4</ele>
        <time>2019-07-10T09:08:04Z</time>
      </trkpt>
      <trkpt lat="44.00124" lon="4.37803">
        <ele>88.4</ele>
        <time>2019-07-10T09:08:06Z</time>
      </trkpt>
      <trkpt lat="44.00119" lon="4.37763">
        <ele>89.4</ele>
        <time>2019-07-10T09:08:14Z</time>
      </trkpt>
      <trkpt lat="44.00117" lon="4.37742">
        <ele>90</ele>
        <time>2019-07-10T09:08:18Z</time>
      </trkpt>
      <trkpt lat="44.00116" lon="4.37727">
        <ele>90.6</ele>
        <time>2019-07-10T09:08:21Z</time>
      </trkpt>
      <trkpt lat="44.00112" lon="4.37678">
        <ele>92.4</ele>
        <time>2019-07-10T09:08:31Z</time>
      </trkpt>
      <trkpt lat="44.00109" lon="4.37664">
        <ele>92.4</ele>
        <time>2019-07-10T09:08:34Z</time>
      </trkpt>
      <trkpt lat="44.00105" lon="4.37647">
        <ele>92.4</ele>
        <time>2019-07-10T09:08:38Z</time>
      </trkpt>
      <trkpt lat="44.00104" lon="4.37643">
        <ele>92.6</ele>
        <time>2019-07-10T09:08:39Z</time>
      </trkpt>
      <trkpt lat="44.00097" lon="4.37618">
        <ele>93.8</ele>
        <time>2019-07-10T09:08:45Z</time>
      </trkpt>
      <trkpt lat="44.00095" lon="4.37613">
        <ele>94</ele>
        <time>2019-07-10T09:08:46Z</time>
      </trkpt>
      <trkpt lat="44.00088" lon="4.3759">
        <ele>94.6</ele>
        <time>2019-07-10T09:08:51Z</time>
      </trkpt>
      <trkpt lat="44.00074" lon="4.37556">
        <ele>95.2</ele>
        <time>2019-07-10T09:08:59Z</time>
      </trkpt>
      <trkpt lat="44.0007" lon="4.37548">
        <ele>95.4</ele>
        <time>2019-07-10T09:09:01Z</time>
      </trkpt>
      <trkpt lat="44.00069" lon="4.37544">
        <ele>95.4</ele>
        <time>2019-07-10T09:09:02Z</time>
      </trkpt>
      <trkpt lat="44.00067" lon="4.3754">
        <ele>95.6</ele>
        <time>2019-07-10T09:09:03Z</time>
      </trkpt>
      <trkpt lat="44.00058" lon="4.37522">
        <ele>96</ele>
        <time>2019-07-10T09:09:08Z</time>
      </trkpt>
      <trkpt lat="44.00054" lon="4.37514">
        <ele>96.2</ele>
        <time>2019-07-10T09:09:10Z</time>
      </trkpt>
      <trkpt lat="44.00048" lon="4.37495">
        <ele>96.8</ele>
        <time>2019-07-10T09:09:15Z</time>
      </trkpt>
      <trkpt lat="44.00047" lon="4.37489">
        <ele>97</ele>
        <time>2019-07-10T09:09:17Z</time>
      </trkpt>
      <trkpt lat="44.00047" lon="4.37478">
        <ele>98</ele>
        <time>2019-07-10T09:09:23Z</time>
      </trkpt>
      <trkpt lat="44.00047" lon="4.37473">
        <ele>98.2</ele>
        <time>2019-07-10T09:09:26Z</time>
      </trkpt>
      <trkpt lat="44.00048" lon="4.37471">
        <ele>98.6</ele>
        <time>2019-07-10T09:09:29Z</time>
      </trkpt>
      <trkpt lat="44.00048" lon="4.37471">
        <ele>99</ele>
        <time>2019-07-10T09:09:30Z</time>
      </trkpt>
      <trkpt lat="44.0005" lon="4.37464">
        <ele>99.6</ele>
        <time>2019-07-10T09:09:52Z</time>
      </trkpt>
      <trkpt lat="44.00053" lon="4.37459">
        <ele>99.6</ele>
        <time>2019-07-10T09:09:54Z</time>
      </trkpt>
      <trkpt lat="44.00054" lon="4.37455">
        <ele>99.6</ele>
        <time>2019-07-10T09:09:55Z</time>
      </trkpt>
      <trkpt lat="44.00059" lon="4.37447">
        <ele>100</ele>
        <time>2019-07-10T09:09:59Z</time>
      </trkpt>
      <trkpt lat="44.00061" lon="4.3744">
        <ele>100.6</ele>
        <time>2019-07-10T09:10:04Z</time>
      </trkpt>
      <trkpt lat="44.00061" lon="4.3744">
        <ele>100.6</ele>
        <time>2019-07-10T09:10:05Z</time>
      </trkpt>
      <trkpt lat="44.00063" lon="4.37428">
        <ele>101.6</ele>
        <time>2019-07-10T09:10:39Z</time>
      </trkpt>
      <trkpt lat="44.00064" lon="4.3742">
        <ele>101.6</ele>
        <time>2019-07-10T09:10:41Z</time>
      </trkpt>
      <trkpt lat="44.00071" lon="4.37392">
        <ele>102.2</ele>
        <time>2019-07-10T09:10:47Z</time>
      </trkpt>
      <trkpt lat="44.00074" lon="4.37367">
        <ele>102.8</ele>
        <time>2019-07-10T09:10:52Z</time>
      </trkpt>
      <trkpt lat="44.00075" lon="4.37362">
        <ele>102.8</ele>
        <time>2019-07-10T09:10:53Z</time>
      </trkpt>
      <trkpt lat="44.00075" lon="4.37357">
        <ele>103</ele>
        <time>2019-07-10T09:10:54Z</time>
      </trkpt>
      <trkpt lat="44.00075" lon="4.37353">
        <ele>103.2</ele>
        <time>2019-07-10T09:10:55Z</time>
      </trkpt>
      <trkpt lat="44.00074" lon="4.37339">
        <ele>103.8</ele>
        <time>2019-07-10T09:10:59Z</time>
      </trkpt>
      <trkpt lat="44.00074" lon="4.37336">
        <ele>104.2</ele>
        <time>2019-07-10T09:11:00Z</time>
      </trkpt>
      <trkpt lat="44.00072" lon="4.37332">
        <ele>104.2</ele>
        <time>2019-07-10T09:11:01Z</time>
      </trkpt>
      <trkpt lat="44.00069" lon="4.37319">
        <ele>105</ele>
        <time>2019-07-10T09:11:04Z</time>
      </trkpt>
      <trkpt lat="44.00064" lon="4.37292">
        <ele>105.6</ele>
        <time>2019-07-10T09:11:10Z</time>
      </trkpt>
      <trkpt lat="44.00061" lon="4.3728">
        <ele>106</ele>
        <time>2019-07-10T09:11:13Z</time>
      </trkpt>
      <trkpt lat="44.00061" lon="4.37275">
        <ele>106.2</ele>
        <time>2019-07-10T09:11:14Z</time>
      </trkpt>
      <trkpt lat="44.0006" lon="4.37271">
        <ele>106.2</ele>
        <time>2019-07-10T09:11:15Z</time>
      </trkpt>
      <trkpt lat="44.00059" lon="4.37267">
        <ele>106.2</ele>
        <time>2019-07-10T09:11:16Z</time>
      </trkpt>
      <trkpt lat="44.00052" lon="4.37252">
        <ele>107</ele>
        <time>2019-07-10T09:11:21Z</time>
      </trkpt>
      <trkpt lat="44.00045" lon="4.37233">
        <ele>107.8</ele>
        <time>2019-07-10T09:11:27Z</time>
      </trkpt>
      <trkpt lat="44.00039" lon="4.37209">
        <ele>108.2</ele>
        <time>2019-07-10T09:11:33Z</time>
      </trkpt>
      <trkpt lat="44.00033" lon="4.37189">
        <ele>108.4</ele>
        <time>2019-07-10T09:11:38Z</time>
      </trkpt>
      <trkpt lat="44.0003" lon="4.37176">
        <ele>108.8</ele>
        <time>2019-07-10T09:11:41Z</time>
      </trkpt>
      <trkpt lat="44.00025" lon="4.37161">
        <ele>109.2</ele>
        <time>2019-07-10T09:11:44Z</time>
      </trkpt>
      <trkpt lat="44.00023" lon="4.37153">
        <ele>109.6</ele>
        <time>2019-07-10T09:11:46Z</time>
      </trkpt>
      <trkpt lat="44.00021" lon="4.37148">
        <ele>109.8</ele>
        <time>2019-07-10T09:11:47Z</time>
      </trkpt>
      <trkpt lat="44.0002" lon="4.37143">
        <ele>109.8</ele>
        <time>2019-07-10T09:11:48Z</time>
      </trkpt>
      <trkpt lat="44.0001" lon="4.37107">
        <ele>110.4</ele>
        <time>2019-07-10T09:11:56Z</time>
      </trkpt>
      <trkpt lat="44.00008" lon="4.37098">
        <ele>110.6</ele>
        <time>2019-07-10T09:11:58Z</time>
      </trkpt>
      <trkpt lat="44.00007" lon="4.37093">
        <ele>110.4</ele>
        <time>2019-07-10T09:11:59Z</time>
      </trkpt>
      <trkpt lat="44.00005" lon="4.37083">
        <ele>110.8</ele>
        <time>2019-07-10T09:12:02Z</time>
      </trkpt>
      <trkpt lat="43.99996" lon="4.37071">
        <ele>111.6</ele>
        <time>2019-07-10T09:12:06Z</time>
      </trkpt>
      <trkpt lat="43.99988" lon="4.37059">
        <ele>111.6</ele>
        <time>2019-07-10T09:12:09Z</time>
      </trkpt>
      <trkpt lat="43.99975" lon="4.37033">
        <ele>112</ele>
        <time>2019-07-10T09:12:16Z</time>
      </trkpt>
      <trkpt lat="43.99973" lon="4.3703">
        <ele>112.2</ele>
        <time>2019-07-10T09:12:17Z</time>
      </trkpt>
      <trkpt lat="43.99966" lon="4.37017">
        <ele>112.8</ele>
        <time>2019-07-10T09:12:21Z</time>
      </trkpt>
      <trkpt lat="43.99963" lon="4.3701">
        <ele>113.2</ele>
        <time>2019-07-10T09:12:23Z</time>
      </trkpt>
      <trkpt lat="43.99962" lon="4.37007">
        <ele>113.2</ele>
        <time>2019-07-10T09:12:24Z</time>
      </trkpt>
      <trkpt lat="43.99954" lon="4.36993">
        <ele>113.8</ele>
        <time>2019-07-10T09:12:29Z</time>
      </trkpt>
      <trkpt lat="43.9994" lon="4.36969">
        <ele>114.4</ele>
        <time>2019-07-10T09:12:38Z</time>
      </trkpt>
      <trkpt lat="43.99934" lon="4.36953">
        <ele>114.6</ele>
        <time>2019-07-10T09:12:44Z</time>
      </trkpt>
      <trkpt lat="43.99932" lon="4.3695">
        <ele>114.8</ele>
        <time>2019-07-10T09:12:45Z</time>
      </trkpt>
      <trkpt lat="43.99923" lon="4.36931">
        <ele>115.4</ele>
        <time>2019-07-10T09:12:52Z</time>
      </trkpt>
      <trkpt lat="43.9992" lon="4.36926">
        <ele>115.8</ele>
        <time>2019-07-10T09:12:54Z</time>
      </trkpt>
      <trkpt lat="43.99918" lon="4.36924">
        <ele>116</ele>
        <time>2019-07-10T09:12:55Z</time>
      </trkpt>
      <trkpt lat="43.99909" lon="4.3691">
        <ele>116.8</ele>
        <time>2019-07-10T09:13:01Z</time>
      </trkpt>
      <trkpt lat="43.99908" lon="4.36909">
        <ele>116.8</ele>
        <time>2019-07-10T09:13:02Z</time>
      </trkpt>
      <trkpt lat="43.99908" lon="4.36909">
        <ele>117.2</ele>
        <time>2019-07-10T09:13:04Z</time>
      </trkpt>
      <trkpt lat="43.99901" lon="4.36896">
        <ele>117.6</ele>
        <time>2019-07-10T09:16:12Z</time>
      </trkpt>
      <trkpt lat="43.99893" lon="4.36881">
        <ele>118.6</ele>
        <time>2019-07-10T09:16:18Z</time>
      </trkpt>
      <trkpt lat="43.99891" lon="4.36877">
        <ele>119</ele>
        <time>2019-07-10T09:16:20Z</time>
      </trkpt>
      <trkpt lat="43.99888" lon="4.36871">
        <ele>119.6</ele>
        <time>2019-07-10T09:16:25Z</time>
      </trkpt>
      <trkpt lat="43.99888" lon="4.36871">
        <ele>119.4</ele>
        <time>2019-07-10T09:16:27Z</time>
      </trkpt>
      <trkpt lat="43.99889" lon="4.36866">
        <ele>119.6</ele>
        <time>2019-07-10T09:17:03Z</time>
      </trkpt>
      <trkpt lat="43.99887" lon="4.36862">
        <ele>119.6</ele>
        <time>2019-07-10T09:17:05Z</time>
      </trkpt>
      <trkpt lat="43.99885" lon="4.3686">
        <ele>119.6</ele>
        <time>2019-07-10T09:17:06Z</time>
      </trkpt>
      <trkpt lat="43.99876" lon="4.36843">
        <ele>121</ele>
        <time>2019-07-10T09:17:13Z</time>
      </trkpt>
      <trkpt lat="43.99875" lon="4.3684">
        <ele>121</ele>
        <time>2019-07-10T09:17:14Z</time>
      </trkpt>
      <trkpt lat="43.99873" lon="4.36838">
        <ele>121.2</ele>
        <time>2019-07-10T09:17:15Z</time>
      </trkpt>
      <trkpt lat="43.99871" lon="4.36832">
        <ele>121.4</ele>
        <time>2019-07-10T09:17:17Z</time>
      </trkpt>
      <trkpt lat="43.99869" lon="4.36827">
        <ele>121.6</ele>
        <time>2019-07-10T09:17:19Z</time>
      </trkpt>
      <trkpt lat="43.99866" lon="4.36822">
        <ele>121.8</ele>
        <time>2019-07-10T09:17:21Z</time>
      </trkpt>
      <trkpt lat="43.99862" lon="4.36815">
        <ele>122</ele>
        <time>2019-07-10T09:17:24Z</time>
      </trkpt>
      <trkpt lat="43.99858" lon="4.36807">
        <ele>122.6</ele>
        <time>2019-07-10T09:17:27Z</time>
      </trkpt>
      <trkpt lat="43.99856" lon="4.36802">
        <ele>123</ele>
        <time>2019-07-10T09:17:29Z</time>
      </trkpt>
      <trkpt lat="43.99853" lon="4.36797">
        <ele>123.6</ele>
        <time>2019-07-10T09:17:31Z</time>
      </trkpt>
      <trkpt lat="43.99849" lon="4.36789">
        <ele>124.6</ele>
        <time>2019-07-10T09:17:34Z</time>
      </trkpt>
      <trkpt lat="43.99845" lon="4.36781">
        <ele>125.8</ele>
        <time>2019-07-10T09:17:37Z</time>
      </trkpt>
      <trkpt lat="43.99844" lon="4.36779">
        <ele>126.2</ele>
        <time>2019-07-10T09:17:38Z</time>
      </trkpt>
      <trkpt lat="43.99837" lon="4.36765">
        <ele>127.2</ele>
        <time>2019-07-10T09:17:43Z</time>
      </trkpt>
      <trkpt lat="43.99831" lon="4.36753">
        <ele>127.6</ele>
        <time>2019-07-10T09:17:47Z</time>
      </trkpt>
      <trkpt lat="43.99825" lon="4.36741">
        <ele>128</ele>
        <time>2019-07-10T09:17:51Z</time>
      </trkpt>
      <trkpt lat="43.99824" lon="4.36738">
        <ele>128.2</ele>
        <time>2019-07-10T09:17:52Z</time>
      </trkpt>
      <trkpt lat="43.99818" lon="4.36724">
        <ele>128.4</ele>
        <time>2019-07-10T09:17:56Z</time>
      </trkpt>
      <trkpt lat="43.99816" lon="4.36716">
        <ele>128.6</ele>
        <time>2019-07-10T09:17:58Z</time>
      </trkpt>
      <trkpt lat="43.99814" lon="4.36713">
        <ele>128.6</ele>
        <time>2019-07-10T09:17:59Z</time>
      </trkpt>
      <trkpt lat="43.99813" lon="4.36709">
        <ele>128.8</ele>
        <time>2019-07-10T09:18:00Z</time>
      </trkpt>
      <trkpt lat="43.99811" lon="4.36705">
        <ele>129</ele>
        <time>2019-07-10T09:18:01Z</time>
      </trkpt>
      <trkpt lat="43.99805" lon="4.36689">
        <ele>129.6</ele>
        <time>2019-07-10T09:18:05Z</time>
      </trkpt>
      <trkpt lat="43.99803" lon="4.36684">
        <ele>129.6</ele>
        <time>2019-07-10T09:18:06Z</time>
      </trkpt>
      <trkpt lat="43.99799" lon="4.36673">
        <ele>129.8</ele>
        <time>2019-07-10T09:18:08Z</time>
      </trkpt>
      <trkpt lat="43.99795" lon="4.36662">
        <ele>129.4</ele>
        <time>2019-07-10T09:18:10Z</time>
      </trkpt>
      <trkpt lat="43.99792" lon="4.36656">
        <ele>129.4</ele>
        <time>2019-07-10T09:18:11Z</time>
      </trkpt>
      <trkpt lat="43.9979" lon="4.36649">
        <ele>129.2</ele>
        <time>2019-07-10T09:18:12Z</time>
      </trkpt>
      <trkpt lat="43.99784" lon="4.36634">
        <ele>129</ele>
        <time>2019-07-10T09:18:14Z</time>
      </trkpt>
      <trkpt lat="43.99781" lon="4.36626">
        <ele>128.8</ele>
        <time>2019-07-10T09:18:15Z</time>
      </trkpt>
      <trkpt lat="43.99778" lon="4.36617">
        <ele>128.4</ele>
        <time>2019-07-10T09:18:16Z</time>
      </trkpt>
      <trkpt lat="43.99775" lon="4.36608">
        <ele>128.4</ele>
        <time>2019-07-10T09:18:17Z</time>
      </trkpt>
      <trkpt lat="43.99771" lon="4.36599">
        <ele>128.4</ele>
        <time>2019-07-10T09:18:18Z</time>
      </trkpt>
      <trkpt lat="43.99768" lon="4.36589">
        <ele>128.2</ele>
        <time>2019-07-10T09:18:19Z</time>
      </trkpt>
      <trkpt lat="43.99757" lon="4.36559">
        <ele>127.4</ele>
        <time>2019-07-10T09:18:22Z</time>
      </trkpt>
      <trkpt lat="43.99753" lon="4.36549">
        <ele>126.8</ele>
        <time>2019-07-10T09:18:23Z</time>
      </trkpt>
      <trkpt lat="43.99749" lon="4.36539">
        <ele>126.4</ele>
        <time>2019-07-10T09:18:24Z</time>
      </trkpt>
      <trkpt lat="43.99746" lon="4.36528">
        <ele>126.2</ele>
        <time>2019-07-10T09:18:25Z</time>
      </trkpt>
      <trkpt lat="43.99742" lon="4.36517">
        <ele>125.8</ele>
        <time>2019-07-10T09:18:26Z</time>
      </trkpt>
      <trkpt lat="43.99729" lon="4.36483">
        <ele>125.6</ele>
        <time>2019-07-10T09:18:29Z</time>
      </trkpt>
      <trkpt lat="43.99725" lon="4.36471">
        <ele>125.2</ele>
        <time>2019-07-10T09:18:30Z</time>
      </trkpt>
      <trkpt lat="43.99721" lon="4.36459">
        <ele>124.8</ele>
        <time>2019-07-10T09:18:31Z</time>
      </trkpt>
      <trkpt lat="43.99716" lon="4.36447">
        <ele>124</ele>
        <time>2019-07-10T09:18:32Z</time>
      </trkpt>
      <trkpt lat="43.99712" lon="4.36435">
        <ele>123.6</ele>
        <time>2019-07-10T09:18:33Z</time>
      </trkpt>
      <trkpt lat="43.99708" lon="4.36423">
        <ele>122.8</ele>
        <time>2019-07-10T09:18:34Z</time>
      </trkpt>
      <trkpt lat="43.99698" lon="4.36398">
        <ele>122</ele>
        <time>2019-07-10T09:18:36Z</time>
      </trkpt>
      <trkpt lat="43.9969" lon="4.36373">
        <ele>120.8</ele>
        <time>2019-07-10T09:18:38Z</time>
      </trkpt>
      <trkpt lat="43.99681" lon="4.36349">
        <ele>119.8</ele>
        <time>2019-07-10T09:18:40Z</time>
      </trkpt>
      <trkpt lat="43.99677" lon="4.36338">
        <ele>119.2</ele>
        <time>2019-07-10T09:18:41Z</time>
      </trkpt>
      <trkpt lat="43.99673" lon="4.36327">
        <ele>118.8</ele>
        <time>2019-07-10T09:18:42Z</time>
      </trkpt>
      <trkpt lat="43.99669" lon="4.36316">
        <ele>118.6</ele>
        <time>2019-07-10T09:18:43Z</time>
      </trkpt>
      <trkpt lat="43.99665" lon="4.36305">
        <ele>118.2</ele>
        <time>2019-07-10T09:18:44Z</time>
      </trkpt>
      <trkpt lat="43.99661" lon="4.36295">
        <ele>117.8</ele>
        <time>2019-07-10T09:18:45Z</time>
      </trkpt>
      <trkpt lat="43.99658" lon="4.36286">
        <ele>117.4</ele>
        <time>2019-07-10T09:18:46Z</time>
      </trkpt>
      <trkpt lat="43.99655" lon="4.36277">
        <ele>117.2</ele>
        <time>2019-07-10T09:18:47Z</time>
      </trkpt>
      <trkpt lat="43.99652" lon="4.36268">
        <ele>117.2</ele>
        <time>2019-07-10T09:18:48Z</time>
      </trkpt>
      <trkpt lat="43.99649" lon="4.36259">
        <ele>116.8</ele>
        <time>2019-07-10T09:18:49Z</time>
      </trkpt>
      <trkpt lat="43.99637" lon="4.36221">
        <ele>116</ele>
        <time>2019-07-10T09:18:54Z</time>
      </trkpt>
      <trkpt lat="43.99632" lon="4.36203">
        <ele>115.8</ele>
        <time>2019-07-10T09:18:57Z</time>
      </trkpt>
      <trkpt lat="43.99628" lon="4.36193">
        <ele>116.2</ele>
        <time>2019-07-10T09:18:59Z</time>
      </trkpt>
      <trkpt lat="43.99627" lon="4.36188">
        <ele>116.4</ele>
        <time>2019-07-10T09:19:00Z</time>
      </trkpt>
      <trkpt lat="43.99626" lon="4.36183">
        <ele>116.6</ele>
        <time>2019-07-10T09:19:01Z</time>
      </trkpt>
      <trkpt lat="43.99618" lon="4.36158">
        <ele>117.6</ele>
        <time>2019-07-10T09:19:07Z</time>
      </trkpt>
      <trkpt lat="43.99614" lon="4.36143">
        <ele>118.4</ele>
        <time>2019-07-10T09:19:11Z</time>
      </trkpt>
      <trkpt lat="43.99611" lon="4.36136">
        <ele>118.6</ele>
        <time>2019-07-10T09:19:13Z</time>
      </trkpt>
      <trkpt lat="43.9961" lon="4.36132">
        <ele>118.6</ele>
        <time>2019-07-10T09:19:14Z</time>
      </trkpt>
      <trkpt lat="43.99602" lon="4.36105">
        <ele>120.4</ele>
        <time>2019-07-10T09:19:21Z</time>
      </trkpt>
      <trkpt lat="43.996" lon="4.36097">
        <ele>120.8</ele>
        <time>2019-07-10T09:19:23Z</time>
      </trkpt>
      <trkpt lat="43.99592" lon="4.36072">
        <ele>121.4</ele>
        <time>2019-07-10T09:19:29Z</time>
      </trkpt>
      <trkpt lat="43.99577" lon="4.36032">
        <ele>121.6</ele>
        <time>2019-07-10T09:19:37Z</time>
      </trkpt>
      <trkpt lat="43.9957" lon="4.36014">
        <ele>121.6</ele>
        <time>2019-07-10T09:19:40Z</time>
      </trkpt>
      <trkpt lat="43.99559" lon="4.35984">
        <ele>121.4</ele>
        <time>2019-07-10T09:19:45Z</time>
      </trkpt>
      <trkpt lat="43.99547" lon="4.35951">
        <ele>120.8</ele>
        <time>2019-07-10T09:19:50Z</time>
      </trkpt>
      <trkpt lat="43.99539" lon="4.35931">
        <ele>120.6</ele>
        <time>2019-07-10T09:19:53Z</time>
      </trkpt>
      <trkpt lat="43.99537" lon="4.35925">
        <ele>120.6</ele>
        <time>2019-07-10T09:19:54Z</time>
      </trkpt>
      <trkpt lat="43.99535" lon="4.35919">
        <ele>120.2</ele>
        <time>2019-07-10T09:19:55Z</time>
      </trkpt>
      <trkpt lat="43.9952" lon="4.35878">
        <ele>118.8</ele>
        <time>2019-07-10T09:20:01Z</time>
      </trkpt>
      <trkpt lat="43.9951" lon="4.35851">
        <ele>119</ele>
        <time>2019-07-10T09:20:05Z</time>
      </trkpt>
      <trkpt lat="43.99501" lon="4.35826">
        <ele>119</ele>
        <time>2019-07-10T09:20:09Z</time>
      </trkpt>
      <trkpt lat="43.99486" lon="4.35782">
        <ele>119.6</ele>
        <time>2019-07-10T09:20:16Z</time>
      </trkpt>
      <trkpt lat="43.99484" lon="4.35775">
        <ele>119.4</ele>
        <time>2019-07-10T09:20:17Z</time>
      </trkpt>
      <trkpt lat="43.99482" lon="4.35769">
        <ele>119.4</ele>
        <time>2019-07-10T09:20:18Z</time>
      </trkpt>
      <trkpt lat="43.99477" lon="4.35747">
        <ele>119.4</ele>
        <time>2019-07-10T09:20:21Z</time>
      </trkpt>
      <trkpt lat="43.99475" lon="4.35732">
        <ele>119.6</ele>
        <time>2019-07-10T09:20:23Z</time>
      </trkpt>
      <trkpt lat="43.99475" lon="4.35723">
        <ele>119.4</ele>
        <time>2019-07-10T09:20:24Z</time>
      </trkpt>
      <trkpt lat="43.99478" lon="4.35685">
        <ele>119.4</ele>
        <time>2019-07-10T09:20:28Z</time>
      </trkpt>
      <trkpt lat="43.99481" lon="4.35663">
        <ele>119.2</ele>
        <time>2019-07-10T09:20:30Z</time>
      </trkpt>
      <trkpt lat="43.99482" lon="4.35652">
        <ele>119.4</ele>
        <time>2019-07-10T09:20:31Z</time>
      </trkpt>
      <trkpt lat="43.99484" lon="4.35641">
        <ele>119.4</ele>
        <time>2019-07-10T09:20:32Z</time>
      </trkpt>
      <trkpt lat="43.99484" lon="4.3563">
        <ele>119.2</ele>
        <time>2019-07-10T09:20:33Z</time>
      </trkpt>
      <trkpt lat="43.99485" lon="4.35618">
        <ele>118.8</ele>
        <time>2019-07-10T09:20:34Z</time>
      </trkpt>
      <trkpt lat="43.99484" lon="4.35606">
        <ele>118.6</ele>
        <time>2019-07-10T09:20:35Z</time>
      </trkpt>
      <trkpt lat="43.99484" lon="4.35593">
        <ele>118.6</ele>
        <time>2019-07-10T09:20:36Z</time>
      </trkpt>
      <trkpt lat="43.99482" lon="4.3558">
        <ele>118</ele>
        <time>2019-07-10T09:20:37Z</time>
      </trkpt>
      <trkpt lat="43.99481" lon="4.35567">
        <ele>117.4</ele>
        <time>2019-07-10T09:20:38Z</time>
      </trkpt>
      <trkpt lat="43.9948" lon="4.35554">
        <ele>115.8</ele>
        <time>2019-07-10T09:20:39Z</time>
      </trkpt>
      <trkpt lat="43.99474" lon="4.35489">
        <ele>112.6</ele>
        <time>2019-07-10T09:20:44Z</time>
      </trkpt>
      <trkpt lat="43.99473" lon="4.35477">
        <ele>112.4</ele>
        <time>2019-07-10T09:20:45Z</time>
      </trkpt>
      <trkpt lat="43.99472" lon="4.35464">
        <ele>112.2</ele>
        <time>2019-07-10T09:20:46Z</time>
      </trkpt>
      <trkpt lat="43.99469" lon="4.3544">
        <ele>111.8</ele>
        <time>2019-07-10T09:20:48Z</time>
      </trkpt>
      <trkpt lat="43.99468" lon="4.35429">
        <ele>111.8</ele>
        <time>2019-07-10T09:20:49Z</time>
      </trkpt>
      <trkpt lat="43.99467" lon="4.35417">
        <ele>111.6</ele>
        <time>2019-07-10T09:20:50Z</time>
      </trkpt>
      <trkpt lat="43.99466" lon="4.35406">
        <ele>111.4</ele>
        <time>2019-07-10T09:20:51Z</time>
      </trkpt>
      <trkpt lat="43.99464" lon="4.35394">
        <ele>111</ele>
        <time>2019-07-10T09:20:52Z</time>
      </trkpt>
      <trkpt lat="43.99458" lon="4.35329">
        <ele>108.8</ele>
        <time>2019-07-10T09:20:58Z</time>
      </trkpt>
      <trkpt lat="43.99457" lon="4.35319">
        <ele>109</ele>
        <time>2019-07-10T09:20:59Z</time>
      </trkpt>
      <trkpt lat="43.99456" lon="4.35309">
        <ele>108.8</ele>
        <time>2019-07-10T09:21:00Z</time>
      </trkpt>
      <trkpt lat="43.99455" lon="4.35299">
        <ele>108.8</ele>
        <time>2019-07-10T09:21:01Z</time>
      </trkpt>
      <trkpt lat="43.99454" lon="4.3529">
        <ele>108.4</ele>
        <time>2019-07-10T09:21:02Z</time>
      </trkpt>
      <trkpt lat="43.99452" lon="4.35255">
        <ele>108</ele>
        <time>2019-07-10T09:21:06Z</time>
      </trkpt>
      <trkpt lat="43.99451" lon="4.35247">
        <ele>107.8</ele>
        <time>2019-07-10T09:21:07Z</time>
      </trkpt>
      <trkpt lat="43.9945" lon="4.35239">
        <ele>107.6</ele>
        <time>2019-07-10T09:21:08Z</time>
      </trkpt>
      <trkpt lat="43.99449" lon="4.35231">
        <ele>107.4</ele>
        <time>2019-07-10T09:21:09Z</time>
      </trkpt>
      <trkpt lat="43.99449" lon="4.35223">
        <ele>107.4</ele>
        <time>2019-07-10T09:21:10Z</time>
      </trkpt>
      <trkpt lat="43.99448" lon="4.35215">
        <ele>107.6</ele>
        <time>2019-07-10T09:21:11Z</time>
      </trkpt>
      <trkpt lat="43.99447" lon="4.35208">
        <ele>107.4</ele>
        <time>2019-07-10T09:21:12Z</time>
      </trkpt>
      <trkpt lat="43.99446" lon="4.352">
        <ele>107.4</ele>
        <time>2019-07-10T09:21:13Z</time>
      </trkpt>
      <trkpt lat="43.99446" lon="4.35193">
        <ele>107.4</ele>
        <time>2019-07-10T09:21:14Z</time>
      </trkpt>
      <trkpt lat="43.99445" lon="4.35185">
        <ele>107.4</ele>
        <time>2019-07-10T09:21:15Z</time>
      </trkpt>
      <trkpt lat="43.99442" lon="4.35152">
        <ele>107.4</ele>
        <time>2019-07-10T09:21:20Z</time>
      </trkpt>
      <trkpt lat="43.9944" lon="4.35126">
        <ele>107.2</ele>
        <time>2019-07-10T09:21:24Z</time>
      </trkpt>
      <trkpt lat="43.9944" lon="4.3512">
        <ele>107.2</ele>
        <time>2019-07-10T09:21:25Z</time>
      </trkpt>
      <trkpt lat="43.9944" lon="4.35113">
        <ele>107.2</ele>
        <time>2019-07-10T09:21:26Z</time>
      </trkpt>
      <trkpt lat="43.99439" lon="4.351">
        <ele>107</ele>
        <time>2019-07-10T09:21:28Z</time>
      </trkpt>
      <trkpt lat="43.99438" lon="4.35086">
        <ele>107</ele>
        <time>2019-07-10T09:21:30Z</time>
      </trkpt>
      <trkpt lat="43.99433" lon="4.35056">
        <ele>106.2</ele>
        <time>2019-07-10T09:21:34Z</time>
      </trkpt>
      <trkpt lat="43.99432" lon="4.35047">
        <ele>106</ele>
        <time>2019-07-10T09:21:35Z</time>
      </trkpt>
      <trkpt lat="43.99427" lon="4.35028">
        <ele>106</ele>
        <time>2019-07-10T09:21:37Z</time>
      </trkpt>
      <trkpt lat="43.99422" lon="4.35008">
        <ele>105.6</ele>
        <time>2019-07-10T09:21:39Z</time>
      </trkpt>
      <trkpt lat="43.9942" lon="4.34998">
        <ele>105</ele>
        <time>2019-07-10T09:21:40Z</time>
      </trkpt>
      <trkpt lat="43.99417" lon="4.34988">
        <ele>104.4</ele>
        <time>2019-07-10T09:21:41Z</time>
      </trkpt>
      <trkpt lat="43.99405" lon="4.34944">
        <ele>101.6</ele>
        <time>2019-07-10T09:21:46Z</time>
      </trkpt>
      <trkpt lat="43.99403" lon="4.34937">
        <ele>101.2</ele>
        <time>2019-07-10T09:21:47Z</time>
      </trkpt>
      <trkpt lat="43.99397" lon="4.34917">
        <ele>100.8</ele>
        <time>2019-07-10T09:21:50Z</time>
      </trkpt>
      <trkpt lat="43.99395" lon="4.34911">
        <ele>100.6</ele>
        <time>2019-07-10T09:21:51Z</time>
      </trkpt>
      <trkpt lat="43.99394" lon="4.34905">
        <ele>100.4</ele>
        <time>2019-07-10T09:21:52Z</time>
      </trkpt>
      <trkpt lat="43.99388" lon="4.34877">
        <ele>99.6</ele>
        <time>2019-07-10T09:21:58Z</time>
      </trkpt>
      <trkpt lat="43.99388" lon="4.34875">
        <ele>99.6</ele>
        <time>2019-07-10T09:22:00Z</time>
      </trkpt>
      <trkpt lat="43.99388" lon="4.34875">
        <ele>99.6</ele>
        <time>2019-07-10T09:22:01Z</time>
      </trkpt>
      <trkpt lat="43.99388" lon="4.34869">
        <ele>100.8</ele>
        <time>2019-07-10T09:22:41Z</time>
      </trkpt>
      <trkpt lat="43.99387" lon="4.34865">
        <ele>101</ele>
        <time>2019-07-10T09:22:42Z</time>
      </trkpt>
      <trkpt lat="43.99386" lon="4.34862">
        <ele>101</ele>
        <time>2019-07-10T09:22:43Z</time>
      </trkpt>
      <trkpt lat="43.99376" lon="4.34834">
        <ele>100.2</ele>
        <time>2019-07-10T09:22:48Z</time>
      </trkpt>
      <trkpt lat="43.99374" lon="4.34827">
        <ele>100</ele>
        <time>2019-07-10T09:22:49Z</time>
      </trkpt>
      <trkpt lat="43.99364" lon="4.34793">
        <ele>99.2</ele>
        <time>2019-07-10T09:22:54Z</time>
      </trkpt>
      <trkpt lat="43.99346" lon="4.34725">
        <ele>99</ele>
        <time>2019-07-10T09:23:03Z</time>
      </trkpt>
      <trkpt lat="43.99326" lon="4.34648">
        <ele>98</ele>
        <time>2019-07-10T09:23:13Z</time>
      </trkpt>
      <trkpt lat="43.99324" lon="4.3464">
        <ele>98</ele>
        <time>2019-07-10T09:23:14Z</time>
      </trkpt>
      <trkpt lat="43.99322" lon="4.34633">
        <ele>98</ele>
        <time>2019-07-10T09:23:15Z</time>
      </trkpt>
      <trkpt lat="43.99305" lon="4.34574">
        <ele>98.6</ele>
        <time>2019-07-10T09:23:23Z</time>
      </trkpt>
      <trkpt lat="43.99291" lon="4.34526">
        <ele>98.8</ele>
        <time>2019-07-10T09:23:29Z</time>
      </trkpt>
      <trkpt lat="43.99287" lon="4.34508">
        <ele>98.6</ele>
        <time>2019-07-10T09:23:31Z</time>
      </trkpt>
      <trkpt lat="43.99285" lon="4.34498">
        <ele>98.2</ele>
        <time>2019-07-10T09:23:32Z</time>
      </trkpt>
      <trkpt lat="43.99283" lon="4.34466">
        <ele>98.2</ele>
        <time>2019-07-10T09:23:35Z</time>
      </trkpt>
      <trkpt lat="43.99285" lon="4.34424">
        <ele>97.4</ele>
        <time>2019-07-10T09:23:39Z</time>
      </trkpt>
      <trkpt lat="43.99287" lon="4.34403">
        <ele>97.2</ele>
        <time>2019-07-10T09:23:41Z</time>
      </trkpt>
      <trkpt lat="43.99288" lon="4.34381">
        <ele>96.6</ele>
        <time>2019-07-10T09:23:43Z</time>
      </trkpt>
      <trkpt lat="43.9929" lon="4.34348">
        <ele>95.4</ele>
        <time>2019-07-10T09:23:46Z</time>
      </trkpt>
      <trkpt lat="43.99291" lon="4.34327">
        <ele>94.8</ele>
        <time>2019-07-10T09:23:48Z</time>
      </trkpt>
      <trkpt lat="43.99293" lon="4.34293">
        <ele>94.4</ele>
        <time>2019-07-10T09:23:51Z</time>
      </trkpt>
      <trkpt lat="43.99293" lon="4.34281">
        <ele>94</ele>
        <time>2019-07-10T09:23:52Z</time>
      </trkpt>
      <trkpt lat="43.99296" lon="4.34221">
        <ele>92</ele>
        <time>2019-07-10T09:23:57Z</time>
      </trkpt>
      <trkpt lat="43.99297" lon="4.34197">
        <ele>90.6</ele>
        <time>2019-07-10T09:23:59Z</time>
      </trkpt>
      <trkpt lat="43.99298" lon="4.34173">
        <ele>89.8</ele>
        <time>2019-07-10T09:24:01Z</time>
      </trkpt>
      <trkpt lat="43.99299" lon="4.34115">
        <ele>88</ele>
        <time>2019-07-10T09:24:06Z</time>
      </trkpt>
      <trkpt lat="43.99297" lon="4.34092">
        <ele>87.4</ele>
        <time>2019-07-10T09:24:08Z</time>
      </trkpt>
      <trkpt lat="43.99294" lon="4.3407">
        <ele>87</ele>
        <time>2019-07-10T09:24:10Z</time>
      </trkpt>
      <trkpt lat="43.99285" lon="4.34002">
        <ele>85.6</ele>
        <time>2019-07-10T09:24:16Z</time>
      </trkpt>
      <trkpt lat="43.9928" lon="4.33969">
        <ele>84.4</ele>
        <time>2019-07-10T09:24:19Z</time>
      </trkpt>
      <trkpt lat="43.99271" lon="4.33906">
        <ele>83.4</ele>
        <time>2019-07-10T09:24:25Z</time>
      </trkpt>
      <trkpt lat="43.99266" lon="4.33874">
        <ele>83.2</ele>
        <time>2019-07-10T09:24:28Z</time>
      </trkpt>
      <trkpt lat="43.99256" lon="4.33803">
        <ele>82.2</ele>
        <time>2019-07-10T09:24:35Z</time>
      </trkpt>
      <trkpt lat="43.99248" lon="4.33746">
        <ele>81.4</ele>
        <time>2019-07-10T09:24:41Z</time>
      </trkpt>
      <trkpt lat="43.99245" lon="4.33728">
        <ele>81.2</ele>
        <time>2019-07-10T09:24:43Z</time>
      </trkpt>
      <trkpt lat="43.99243" lon="4.3371">
        <ele>81</ele>
        <time>2019-07-10T09:24:45Z</time>
      </trkpt>
      <trkpt lat="43.99242" lon="4.33701">
        <ele>80.8</ele>
        <time>2019-07-10T09:24:46Z</time>
      </trkpt>
      <trkpt lat="43.99239" lon="4.33683">
        <ele>80.6</ele>
        <time>2019-07-10T09:24:48Z</time>
      </trkpt>
      <trkpt lat="43.99238" lon="4.33673">
        <ele>80.4</ele>
        <time>2019-07-10T09:24:49Z</time>
      </trkpt>
      <trkpt lat="43.99235" lon="4.33655">
        <ele>80</ele>
        <time>2019-07-10T09:24:51Z</time>
      </trkpt>
      <trkpt lat="43.99234" lon="4.33645">
        <ele>80</ele>
        <time>2019-07-10T09:24:52Z</time>
      </trkpt>
      <trkpt lat="43.99227" lon="4.33599">
        <ele>79.4</ele>
        <time>2019-07-10T09:24:57Z</time>
      </trkpt>
      <trkpt lat="43.99225" lon="4.33581">
        <ele>79</ele>
        <time>2019-07-10T09:24:59Z</time>
      </trkpt>
      <trkpt lat="43.99221" lon="4.33555">
        <ele>78.8</ele>
        <time>2019-07-10T09:25:02Z</time>
      </trkpt>
      <trkpt lat="43.99218" lon="4.33537">
        <ele>78.8</ele>
        <time>2019-07-10T09:25:04Z</time>
      </trkpt>
      <trkpt lat="43.99217" lon="4.33528">
        <ele>78.6</ele>
        <time>2019-07-10T09:25:05Z</time>
      </trkpt>
      <trkpt lat="43.99211" lon="4.33483">
        <ele>78.8</ele>
        <time>2019-07-10T09:25:10Z</time>
      </trkpt>
      <trkpt lat="43.9921" lon="4.33474">
        <ele>79</ele>
        <time>2019-07-10T09:25:11Z</time>
      </trkpt>
      <trkpt lat="43.99208" lon="4.33465">
        <ele>79.2</ele>
        <time>2019-07-10T09:25:12Z</time>
      </trkpt>
      <trkpt lat="43.99205" lon="4.33438">
        <ele>79</ele>
        <time>2019-07-10T09:25:15Z</time>
      </trkpt>
      <trkpt lat="43.99204" lon="4.33429">
        <ele>78.8</ele>
        <time>2019-07-10T09:25:16Z</time>
      </trkpt>
      <trkpt lat="43.99201" lon="4.33388">
        <ele>78.8</ele>
        <time>2019-07-10T09:25:21Z</time>
      </trkpt>
      <trkpt lat="43.99201" lon="4.33371">
        <ele>79</ele>
        <time>2019-07-10T09:25:23Z</time>
      </trkpt>
      <trkpt lat="43.99202" lon="4.33363">
        <ele>79</ele>
        <time>2019-07-10T09:25:24Z</time>
      </trkpt>
      <trkpt lat="43.99204" lon="4.33339">
        <ele>79.6</ele>
        <time>2019-07-10T09:25:27Z</time>
      </trkpt>
      <trkpt lat="43.99207" lon="4.33314">
        <ele>80.2</ele>
        <time>2019-07-10T09:25:30Z</time>
      </trkpt>
      <trkpt lat="43.99208" lon="4.33306">
        <ele>80.4</ele>
        <time>2019-07-10T09:25:31Z</time>
      </trkpt>
      <trkpt lat="43.99216" lon="4.33252">
        <ele>81.2</ele>
        <time>2019-07-10T09:25:37Z</time>
      </trkpt>
      <trkpt lat="43.99227" lon="4.33178">
        <ele>80.6</ele>
        <time>2019-07-10T09:25:45Z</time>
      </trkpt>
      <trkpt lat="43.99229" lon="4.3316">
        <ele>80.6</ele>
        <time>2019-07-10T09:25:47Z</time>
      </trkpt>
      <trkpt lat="43.9924" lon="4.33081">
        <ele>80.6</ele>
        <time>2019-07-10T09:25:56Z</time>
      </trkpt>
      <trkpt lat="43.9924" lon="4.33072">
        <ele>80.4</ele>
        <time>2019-07-10T09:25:57Z</time>
      </trkpt>
      <trkpt lat="43.9924" lon="4.33063">
        <ele>80.4</ele>
        <time>2019-07-10T09:25:58Z</time>
      </trkpt>
      <trkpt lat="43.9924" lon="4.33046">
        <ele>80.4</ele>
        <time>2019-07-10T09:26:00Z</time>
      </trkpt>
      <trkpt lat="43.9924" lon="4.33029">
        <ele>80.4</ele>
        <time>2019-07-10T09:26:02Z</time>
      </trkpt>
      <trkpt lat="43.9924" lon="4.33014">
        <ele>80.2</ele>
        <time>2019-07-10T09:26:04Z</time>
      </trkpt>
      <trkpt lat="43.99238" lon="4.32968">
        <ele>79.6</ele>
        <time>2019-07-10T09:26:10Z</time>
      </trkpt>
      <trkpt lat="43.99238" lon="4.32954">
        <ele>79.6</ele>
        <time>2019-07-10T09:26:12Z</time>
      </trkpt>
      <trkpt lat="43.99238" lon="4.32946">
        <ele>79.6</ele>
        <time>2019-07-10T09:26:13Z</time>
      </trkpt>
      <trkpt lat="43.99237" lon="4.32909">
        <ele>80</ele>
        <time>2019-07-10T09:26:18Z</time>
      </trkpt>
      <trkpt lat="43.99237" lon="4.32895">
        <ele>80.2</ele>
        <time>2019-07-10T09:26:20Z</time>
      </trkpt>
      <trkpt lat="43.99236" lon="4.32889">
        <ele>80.2</ele>
        <time>2019-07-10T09:26:21Z</time>
      </trkpt>
      <trkpt lat="43.99235" lon="4.32837">
        <ele>80.6</ele>
        <time>2019-07-10T09:26:29Z</time>
      </trkpt>
      <trkpt lat="43.99234" lon="4.32811">
        <ele>81.2</ele>
        <time>2019-07-10T09:26:33Z</time>
      </trkpt>
      <trkpt lat="43.99234" lon="4.32799">
        <ele>82</ele>
        <time>2019-07-10T09:26:35Z</time>
      </trkpt>
      <trkpt lat="43.99234" lon="4.32787">
        <ele>82.6</ele>
        <time>2019-07-10T09:26:37Z</time>
      </trkpt>
      <trkpt lat="43.99232" lon="4.32747">
        <ele>82.4</ele>
        <time>2019-07-10T09:26:44Z</time>
      </trkpt>
      <trkpt lat="43.9923" lon="4.32693">
        <ele>82</ele>
        <time>2019-07-10T09:26:53Z</time>
      </trkpt>
      <trkpt lat="43.99228" lon="4.32645">
        <ele>82</ele>
        <time>2019-07-10T09:27:01Z</time>
      </trkpt>
      <trkpt lat="43.99228" lon="4.32597">
        <ele>82.2</ele>
        <time>2019-07-10T09:27:09Z</time>
      </trkpt>
      <trkpt lat="43.99227" lon="4.32548">
        <ele>82.2</ele>
        <time>2019-07-10T09:27:17Z</time>
      </trkpt>
      <trkpt lat="43.99227" lon="4.32541">
        <ele>82.2</ele>
        <time>2019-07-10T09:27:18Z</time>
      </trkpt>
      <trkpt lat="43.99226" lon="4.32535">
        <ele>82.4</ele>
        <time>2019-07-10T09:27:19Z</time>
      </trkpt>
      <trkpt lat="43.99225" lon="4.32488">
        <ele>82.8</ele>
        <time>2019-07-10T09:27:26Z</time>
      </trkpt>
      <trkpt lat="43.99225" lon="4.32469">
        <ele>82.6</ele>
        <time>2019-07-10T09:27:29Z</time>
      </trkpt>
      <trkpt lat="43.99224" lon="4.32445">
        <ele>83</ele>
        <time>2019-07-10T09:27:33Z</time>
      </trkpt>
      <trkpt lat="43.99223" lon="4.32438">
        <ele>83</ele>
        <time>2019-07-10T09:27:34Z</time>
      </trkpt>
      <trkpt lat="43.99223" lon="4.32432">
        <ele>83.2</ele>
        <time>2019-07-10T09:27:35Z</time>
      </trkpt>
      <trkpt lat="43.99224" lon="4.32426">
        <ele>83.4</ele>
        <time>2019-07-10T09:27:36Z</time>
      </trkpt>
      <trkpt lat="43.99224" lon="4.32402">
        <ele>84.4</ele>
        <time>2019-07-10T09:27:40Z</time>
      </trkpt>
      <trkpt lat="43.99223" lon="4.3239">
        <ele>84.6</ele>
        <time>2019-07-10T09:27:42Z</time>
      </trkpt>
      <trkpt lat="43.99223" lon="4.32385">
        <ele>84.8</ele>
        <time>2019-07-10T09:27:43Z</time>
      </trkpt>
      <trkpt lat="43.99223" lon="4.32379">
        <ele>85</ele>
        <time>2019-07-10T09:27:44Z</time>
      </trkpt>
      <trkpt lat="43.99222" lon="4.32373">
        <ele>85</ele>
        <time>2019-07-10T09:27:45Z</time>
      </trkpt>
      <trkpt lat="43.99222" lon="4.3235">
        <ele>85.2</ele>
        <time>2019-07-10T09:27:49Z</time>
      </trkpt>
      <trkpt lat="43.99221" lon="4.32279">
        <ele>84.8</ele>
        <time>2019-07-10T09:28:01Z</time>
      </trkpt>
      <trkpt lat="43.9922" lon="4.32261">
        <ele>84.6</ele>
        <time>2019-07-10T09:28:04Z</time>
      </trkpt>
      <trkpt lat="43.9922" lon="4.32216">
        <ele>85.6</ele>
        <time>2019-07-10T09:28:12Z</time>
      </trkpt>
      <trkpt lat="43.9922" lon="4.3221">
        <ele>85.8</ele>
        <time>2019-07-10T09:28:13Z</time>
      </trkpt>
      <trkpt lat="43.99221" lon="4.32189">
        <ele>86.8</ele>
        <time>2019-07-10T09:28:17Z</time>
      </trkpt>
      <trkpt lat="43.99221" lon="4.32168">
        <ele>87.4</ele>
        <time>2019-07-10T09:28:21Z</time>
      </trkpt>
      <trkpt lat="43.99223" lon="4.32121">
        <ele>88.6</ele>
        <time>2019-07-10T09:28:29Z</time>
      </trkpt>
      <trkpt lat="43.99223" lon="4.32116">
        <ele>88.4</ele>
        <time>2019-07-10T09:28:30Z</time>
      </trkpt>
      <trkpt lat="43.99223" lon="4.32099">
        <ele>88.4</ele>
        <time>2019-07-10T09:28:33Z</time>
      </trkpt>
      <trkpt lat="43.99223" lon="4.32082">
        <ele>88.4</ele>
        <time>2019-07-10T09:28:36Z</time>
      </trkpt>
      <trkpt lat="43.99221" lon="4.3206">
        <ele>88.2</ele>
        <time>2019-07-10T09:28:40Z</time>
      </trkpt>
      <trkpt lat="43.9922" lon="4.32048">
        <ele>88.4</ele>
        <time>2019-07-10T09:28:42Z</time>
      </trkpt>
      <trkpt lat="43.99217" lon="4.32028">
        <ele>88.6</ele>
        <time>2019-07-10T09:28:45Z</time>
      </trkpt>
      <trkpt lat="43.9921" lon="4.31974">
        <ele>89</ele>
        <time>2019-07-10T09:28:53Z</time>
      </trkpt>
      <trkpt lat="43.99206" lon="4.31947">
        <ele>88.8</ele>
        <time>2019-07-10T09:28:57Z</time>
      </trkpt>
      <trkpt lat="43.99201" lon="4.31916">
        <ele>89</ele>
        <time>2019-07-10T09:29:02Z</time>
      </trkpt>
      <trkpt lat="43.992" lon="4.31911">
        <ele>89</ele>
        <time>2019-07-10T09:29:03Z</time>
      </trkpt>
      <trkpt lat="43.99197" lon="4.31888">
        <ele>88.8</ele>
        <time>2019-07-10T09:29:07Z</time>
      </trkpt>
      <trkpt lat="43.99196" lon="4.31883">
        <ele>89.2</ele>
        <time>2019-07-10T09:29:08Z</time>
      </trkpt>
      <trkpt lat="43.99194" lon="4.31872">
        <ele>89.2</ele>
        <time>2019-07-10T09:29:10Z</time>
      </trkpt>
      <trkpt lat="43.99188" lon="4.31836">
        <ele>90.6</ele>
        <time>2019-07-10T09:29:17Z</time>
      </trkpt>
      <trkpt lat="43.99184" lon="4.31822">
        <ele>91</ele>
        <time>2019-07-10T09:29:20Z</time>
      </trkpt>
      <trkpt lat="43.99178" lon="4.31798">
        <ele>91.6</ele>
        <time>2019-07-10T09:29:25Z</time>
      </trkpt>
      <trkpt lat="43.99167" lon="4.31745">
        <ele>92.2</ele>
        <time>2019-07-10T09:29:34Z</time>
      </trkpt>
      <trkpt lat="43.99166" lon="4.31739">
        <ele>92.2</ele>
        <time>2019-07-10T09:29:35Z</time>
      </trkpt>
      <trkpt lat="43.99161" lon="4.3168">
        <ele>92.8</ele>
        <time>2019-07-10T09:29:44Z</time>
      </trkpt>
      <trkpt lat="43.99161" lon="4.31654">
        <ele>92.8</ele>
        <time>2019-07-10T09:29:48Z</time>
      </trkpt>
      <trkpt lat="43.99161" lon="4.3163">
        <ele>93.4</ele>
        <time>2019-07-10T09:29:52Z</time>
      </trkpt>
      <trkpt lat="43.99162" lon="4.31586">
        <ele>93.8</ele>
        <time>2019-07-10T09:30:00Z</time>
      </trkpt>
      <trkpt lat="43.99154" lon="4.31531">
        <ele>94.4</ele>
        <time>2019-07-10T09:30:09Z</time>
      </trkpt>
      <trkpt lat="43.99148" lon="4.31474">
        <ele>95.4</ele>
        <time>2019-07-10T09:30:18Z</time>
      </trkpt>
      <trkpt lat="43.99143" lon="4.31415">
        <ele>95.4</ele>
        <time>2019-07-10T09:30:27Z</time>
      </trkpt>
      <trkpt lat="43.99142" lon="4.31407">
        <ele>95.4</ele>
        <time>2019-07-10T09:30:28Z</time>
      </trkpt>
      <trkpt lat="43.99142" lon="4.314">
        <ele>95.4</ele>
        <time>2019-07-10T09:30:29Z</time>
      </trkpt>
      <trkpt lat="43.99141" lon="4.31384">
        <ele>95.4</ele>
        <time>2019-07-10T09:30:31Z</time>
      </trkpt>
      <trkpt lat="43.99141" lon="4.31375">
        <ele>95.4</ele>
        <time>2019-07-10T09:30:32Z</time>
      </trkpt>
      <trkpt lat="43.99138" lon="4.31338">
        <ele>95.2</ele>
        <time>2019-07-10T09:30:36Z</time>
      </trkpt>
      <trkpt lat="43.99138" lon="4.31329">
        <ele>94.8</ele>
        <time>2019-07-10T09:30:37Z</time>
      </trkpt>
      <trkpt lat="43.99138" lon="4.31319">
        <ele>94.4</ele>
        <time>2019-07-10T09:30:38Z</time>
      </trkpt>
      <trkpt lat="43.99134" lon="4.31236">
        <ele>92.6</ele>
        <time>2019-07-10T09:30:47Z</time>
      </trkpt>
      <trkpt lat="43.99132" lon="4.31212">
        <ele>92.4</ele>
        <time>2019-07-10T09:30:50Z</time>
      </trkpt>
      <trkpt lat="43.99131" lon="4.31197">
        <ele>92.2</ele>
        <time>2019-07-10T09:30:52Z</time>
      </trkpt>
      <trkpt lat="43.99127" lon="4.31163">
        <ele>92</ele>
        <time>2019-07-10T09:30:57Z</time>
      </trkpt>
      <trkpt lat="43.99125" lon="4.31156">
        <ele>91.8</ele>
        <time>2019-07-10T09:30:58Z</time>
      </trkpt>
      <trkpt lat="43.99124" lon="4.3115">
        <ele>91.6</ele>
        <time>2019-07-10T09:30:59Z</time>
      </trkpt>
      <trkpt lat="43.9912" lon="4.31135">
        <ele>91.4</ele>
        <time>2019-07-10T09:31:02Z</time>
      </trkpt>
      <trkpt lat="43.99117" lon="4.31118">
        <ele>91.2</ele>
        <time>2019-07-10T09:31:07Z</time>
      </trkpt>
      <trkpt lat="43.99117" lon="4.31118">
        <ele>91.2</ele>
        <time>2019-07-10T09:31:09Z</time>
      </trkpt>
      <trkpt lat="43.99111" lon="4.31122">
        <ele>92</ele>
        <time>2019-07-10T09:35:30Z</time>
      </trkpt>
      <trkpt lat="43.99111" lon="4.31125">
        <ele>92</ele>
        <time>2019-07-10T09:35:31Z</time>
      </trkpt>
      <trkpt lat="43.99108" lon="4.31133">
        <ele>91.8</ele>
        <time>2019-07-10T09:35:34Z</time>
      </trkpt>
      <trkpt lat="43.99106" lon="4.31137">
        <ele>91.4</ele>
        <time>2019-07-10T09:35:36Z</time>
      </trkpt>
      <trkpt lat="43.99106" lon="4.31148">
        <ele>91</ele>
        <time>2019-07-10T09:35:40Z</time>
      </trkpt>
      <trkpt lat="43.99107" lon="4.31151">
        <ele>91</ele>
        <time>2019-07-10T09:35:41Z</time>
      </trkpt>
      <trkpt lat="43.99116" lon="4.31158">
        <ele>91</ele>
        <time>2019-07-10T09:35:46Z</time>
      </trkpt>
      <trkpt lat="43.99118" lon="4.31159">
        <ele>91.2</ele>
        <time>2019-07-10T09:35:48Z</time>
      </trkpt>
      <trkpt lat="43.99119" lon="4.31159">
        <ele>91.2</ele>
        <time>2019-07-10T09:35:51Z</time>
      </trkpt>
      <trkpt lat="43.99122" lon="4.31154">
        <ele>91.4</ele>
        <time>2019-07-10T09:35:54Z</time>
      </trkpt>
      <trkpt lat="43.99123" lon="4.31148">
        <ele>91.6</ele>
        <time>2019-07-10T09:35:56Z</time>
      </trkpt>
      <trkpt lat="43.99121" lon="4.31122">
        <ele>91.6</ele>
        <time>2019-07-10T09:36:02Z</time>
      </trkpt>
      <trkpt lat="43.99121" lon="4.31118">
        <ele>91.6</ele>
        <time>2019-07-10T09:36:03Z</time>
      </trkpt>
      <trkpt lat="43.99121" lon="4.31082">
        <ele>92.2</ele>
        <time>2019-07-10T09:36:10Z</time>
      </trkpt>
      <trkpt lat="43.99122" lon="4.31077">
        <ele>92.4</ele>
        <time>2019-07-10T09:36:11Z</time>
      </trkpt>
      <trkpt lat="43.99121" lon="4.31036">
        <ele>93.2</ele>
        <time>2019-07-10T09:36:19Z</time>
      </trkpt>
      <trkpt lat="43.99118" lon="4.30979">
        <ele>93.8</ele>
        <time>2019-07-10T09:36:30Z</time>
      </trkpt>
      <trkpt lat="43.99115" lon="4.30914">
        <ele>94.2</ele>
        <time>2019-07-10T09:36:41Z</time>
      </trkpt>
      <trkpt lat="43.99114" lon="4.30883">
        <ele>94.6</ele>
        <time>2019-07-10T09:36:46Z</time>
      </trkpt>
      <trkpt lat="43.99112" lon="4.30864">
        <ele>94.6</ele>
        <time>2019-07-10T09:36:49Z</time>
      </trkpt>
      <trkpt lat="43.99111" lon="4.30842">
        <ele>94.4</ele>
        <time>2019-07-10T09:36:52Z</time>
      </trkpt>
      <trkpt lat="43.9911" lon="4.30817">
        <ele>94</ele>
        <time>2019-07-10T09:36:55Z</time>
      </trkpt>
      <trkpt lat="43.99108" lon="4.30764">
        <ele>93.6</ele>
        <time>2019-07-10T09:37:01Z</time>
      </trkpt>
      <trkpt lat="43.99107" lon="4.30728">
        <ele>93.4</ele>
        <time>2019-07-10T09:37:06Z</time>
      </trkpt>
      <trkpt lat="43.99106" lon="4.3068">
        <ele>94</ele>
        <time>2019-07-10T09:37:14Z</time>
      </trkpt>
      <trkpt lat="43.99103" lon="4.30616">
        <ele>94.4</ele>
        <time>2019-07-10T09:37:23Z</time>
      </trkpt>
      <trkpt lat="43.99101" lon="4.30601">
        <ele>94.4</ele>
        <time>2019-07-10T09:37:25Z</time>
      </trkpt>
      <trkpt lat="43.991" lon="4.30571">
        <ele>94.4</ele>
        <time>2019-07-10T09:37:29Z</time>
      </trkpt>
      <trkpt lat="43.99094" lon="4.30492">
        <ele>94.6</ele>
        <time>2019-07-10T09:37:40Z</time>
      </trkpt>
      <trkpt lat="43.99092" lon="4.30445">
        <ele>94.4</ele>
        <time>2019-07-10T09:37:47Z</time>
      </trkpt>
      <trkpt lat="43.99087" lon="4.30372">
        <ele>94.4</ele>
        <time>2019-07-10T09:37:57Z</time>
      </trkpt>
      <trkpt lat="43.99085" lon="4.30335">
        <ele>94.4</ele>
        <time>2019-07-10T09:38:02Z</time>
      </trkpt>
      <trkpt lat="43.99084" lon="4.30321">
        <ele>94.6</ele>
        <time>2019-07-10T09:38:04Z</time>
      </trkpt>
      <trkpt lat="43.99078" lon="4.30239">
        <ele>94.4</ele>
        <time>2019-07-10T09:38:15Z</time>
      </trkpt>
      <trkpt lat="43.99074" lon="4.30161">
        <ele>94.2</ele>
        <time>2019-07-10T09:38:25Z</time>
      </trkpt>
      <trkpt lat="43.99073" lon="4.30153">
        <ele>94</ele>
        <time>2019-07-10T09:38:26Z</time>
      </trkpt>
      <trkpt lat="43.99071" lon="4.30122">
        <ele>93.8</ele>
        <time>2019-07-10T09:38:30Z</time>
      </trkpt>
      <trkpt lat="43.99069" lon="4.30091">
        <ele>93.6</ele>
        <time>2019-07-10T09:38:34Z</time>
      </trkpt>
      <trkpt lat="43.99063" lon="4.30021">
        <ele>93</ele>
        <time>2019-07-10T09:38:43Z</time>
      </trkpt>
      <trkpt lat="43.99059" lon="4.29953">
        <ele>93</ele>
        <time>2019-07-10T09:38:52Z</time>
      </trkpt>
      <trkpt lat="43.99055" lon="4.29888">
        <ele>93.4</ele>
        <time>2019-07-10T09:39:01Z</time>
      </trkpt>
      <trkpt lat="43.99055" lon="4.29881">
        <ele>93.4</ele>
        <time>2019-07-10T09:39:02Z</time>
      </trkpt>
      <trkpt lat="43.99052" lon="4.29834">
        <ele>94</ele>
        <time>2019-07-10T09:39:09Z</time>
      </trkpt>
      <trkpt lat="43.99049" lon="4.29801">
        <ele>94.4</ele>
        <time>2019-07-10T09:39:14Z</time>
      </trkpt>
      <trkpt lat="43.99047" lon="4.2977">
        <ele>94.6</ele>
        <time>2019-07-10T09:39:19Z</time>
      </trkpt>
      <trkpt lat="43.99043" lon="4.29716">
        <ele>94.6</ele>
        <time>2019-07-10T09:39:27Z</time>
      </trkpt>
      <trkpt lat="43.99042" lon="4.29708">
        <ele>94.6</ele>
        <time>2019-07-10T09:39:28Z</time>
      </trkpt>
      <trkpt lat="43.99041" lon="4.29694">
        <ele>94.6</ele>
        <time>2019-07-10T09:39:30Z</time>
      </trkpt>
      <trkpt lat="43.99039" lon="4.29664">
        <ele>94.4</ele>
        <time>2019-07-10T09:39:34Z</time>
      </trkpt>
      <trkpt lat="43.99032" lon="4.29584">
        <ele>94</ele>
        <time>2019-07-10T09:39:44Z</time>
      </trkpt>
      <trkpt lat="43.99027" lon="4.2951">
        <ele>93.6</ele>
        <time>2019-07-10T09:39:54Z</time>
      </trkpt>
      <trkpt lat="43.99026" lon="4.29502">
        <ele>93.4</ele>
        <time>2019-07-10T09:39:55Z</time>
      </trkpt>
      <trkpt lat="43.9902" lon="4.29422">
        <ele>93.2</ele>
        <time>2019-07-10T09:40:05Z</time>
      </trkpt>
      <trkpt lat="43.99015" lon="4.29368">
        <ele>93.2</ele>
        <time>2019-07-10T09:40:12Z</time>
      </trkpt>
      <trkpt lat="43.99012" lon="4.29329">
        <ele>93.6</ele>
        <time>2019-07-10T09:40:17Z</time>
      </trkpt>
      <trkpt lat="43.99006" lon="4.29259">
        <ele>93.8</ele>
        <time>2019-07-10T09:40:26Z</time>
      </trkpt>
      <trkpt lat="43.99001" lon="4.29189">
        <ele>94.2</ele>
        <time>2019-07-10T09:40:36Z</time>
      </trkpt>
      <trkpt lat="43.98994" lon="4.29108">
        <ele>94</ele>
        <time>2019-07-10T09:40:47Z</time>
      </trkpt>
      <trkpt lat="43.98988" lon="4.29031">
        <ele>93.8</ele>
        <time>2019-07-10T09:40:57Z</time>
      </trkpt>
      <trkpt lat="43.98987" lon="4.29014">
        <ele>93.8</ele>
        <time>2019-07-10T09:40:59Z</time>
      </trkpt>
      <trkpt lat="43.98975" lon="4.28964">
        <ele>93.8</ele>
        <time>2019-07-10T09:41:05Z</time>
      </trkpt>
      <trkpt lat="43.98961" lon="4.28915">
        <ele>93.8</ele>
        <time>2019-07-10T09:41:11Z</time>
      </trkpt>
      <trkpt lat="43.98958" lon="4.28906">
        <ele>93.8</ele>
        <time>2019-07-10T09:41:12Z</time>
      </trkpt>
      <trkpt lat="43.98949" lon="4.28875">
        <ele>93.2</ele>
        <time>2019-07-10T09:41:16Z</time>
      </trkpt>
      <trkpt lat="43.98944" lon="4.28858">
        <ele>92.8</ele>
        <time>2019-07-10T09:41:18Z</time>
      </trkpt>
      <trkpt lat="43.98939" lon="4.2884">
        <ele>92.2</ele>
        <time>2019-07-10T09:41:20Z</time>
      </trkpt>
      <trkpt lat="43.98931" lon="4.28813">
        <ele>91</ele>
        <time>2019-07-10T09:41:23Z</time>
      </trkpt>
      <trkpt lat="43.98923" lon="4.28785">
        <ele>89.2</ele>
        <time>2019-07-10T09:41:26Z</time>
      </trkpt>
      <trkpt lat="43.9892" lon="4.28776">
        <ele>89.2</ele>
        <time>2019-07-10T09:41:27Z</time>
      </trkpt>
      <trkpt lat="43.98918" lon="4.28767">
        <ele>89</ele>
        <time>2019-07-10T09:41:28Z</time>
      </trkpt>
      <trkpt lat="43.98908" lon="4.2873">
        <ele>88.6</ele>
        <time>2019-07-10T09:41:32Z</time>
      </trkpt>
      <trkpt lat="43.98905" lon="4.28721">
        <ele>88.6</ele>
        <time>2019-07-10T09:41:33Z</time>
      </trkpt>
      <trkpt lat="43.98884" lon="4.28646">
        <ele>88.2</ele>
        <time>2019-07-10T09:41:42Z</time>
      </trkpt>
      <trkpt lat="43.98869" lon="4.28586">
        <ele>88.6</ele>
        <time>2019-07-10T09:41:50Z</time>
      </trkpt>
      <trkpt lat="43.98867" lon="4.28578">
        <ele>88.8</ele>
        <time>2019-07-10T09:41:51Z</time>
      </trkpt>
      <trkpt lat="43.98854" lon="4.28528">
        <ele>88.6</ele>
        <time>2019-07-10T09:41:57Z</time>
      </trkpt>
      <trkpt lat="43.98835" lon="4.28449">
        <ele>87.6</ele>
        <time>2019-07-10T09:42:06Z</time>
      </trkpt>
      <trkpt lat="43.98833" lon="4.2844">
        <ele>87.6</ele>
        <time>2019-07-10T09:42:07Z</time>
      </trkpt>
      <trkpt lat="43.98824" lon="4.28403">
        <ele>87</ele>
        <time>2019-07-10T09:42:11Z</time>
      </trkpt>
      <trkpt lat="43.98812" lon="4.28345">
        <ele>85.2</ele>
        <time>2019-07-10T09:42:17Z</time>
      </trkpt>
      <trkpt lat="43.98796" lon="4.28275">
        <ele>83.6</ele>
        <time>2019-07-10T09:42:24Z</time>
      </trkpt>
      <trkpt lat="43.98794" lon="4.28265">
        <ele>83.6</ele>
        <time>2019-07-10T09:42:25Z</time>
      </trkpt>
      <trkpt lat="43.98786" lon="4.28224">
        <ele>83.2</ele>
        <time>2019-07-10T09:42:29Z</time>
      </trkpt>
      <trkpt lat="43.98784" lon="4.28214">
        <ele>83</ele>
        <time>2019-07-10T09:42:30Z</time>
      </trkpt>
      <trkpt lat="43.98776" lon="4.28176">
        <ele>82.6</ele>
        <time>2019-07-10T09:42:34Z</time>
      </trkpt>
      <trkpt lat="43.9877" lon="4.28148">
        <ele>81.8</ele>
        <time>2019-07-10T09:42:37Z</time>
      </trkpt>
      <trkpt lat="43.98768" lon="4.28139">
        <ele>81.6</ele>
        <time>2019-07-10T09:42:38Z</time>
      </trkpt>
      <trkpt lat="43.98766" lon="4.2813">
        <ele>81.6</ele>
        <time>2019-07-10T09:42:39Z</time>
      </trkpt>
      <trkpt lat="43.98762" lon="4.28113">
        <ele>81.6</ele>
        <time>2019-07-10T09:42:41Z</time>
      </trkpt>
      <trkpt lat="43.98749" lon="4.28046">
        <ele>81.8</ele>
        <time>2019-07-10T09:42:49Z</time>
      </trkpt>
      <trkpt lat="43.98747" lon="4.28038">
        <ele>81.8</ele>
        <time>2019-07-10T09:42:50Z</time>
      </trkpt>
      <trkpt lat="43.98745" lon="4.2803">
        <ele>81.6</ele>
        <time>2019-07-10T09:42:51Z</time>
      </trkpt>
      <trkpt lat="43.98744" lon="4.28022">
        <ele>81.6</ele>
        <time>2019-07-10T09:42:52Z</time>
      </trkpt>
      <trkpt lat="43.98737" lon="4.2799">
        <ele>81.2</ele>
        <time>2019-07-10T09:42:56Z</time>
      </trkpt>
      <trkpt lat="43.98733" lon="4.27973">
        <ele>81.4</ele>
        <time>2019-07-10T09:42:58Z</time>
      </trkpt>
      <trkpt lat="43.98728" lon="4.27948">
        <ele>81.4</ele>
        <time>2019-07-10T09:43:01Z</time>
      </trkpt>
      <trkpt lat="43.98727" lon="4.2794">
        <ele>81.4</ele>
        <time>2019-07-10T09:43:02Z</time>
      </trkpt>
      <trkpt lat="43.98723" lon="4.27923">
        <ele>81.2</ele>
        <time>2019-07-10T09:43:04Z</time>
      </trkpt>
      <trkpt lat="43.98715" lon="4.27883">
        <ele>81.2</ele>
        <time>2019-07-10T09:43:09Z</time>
      </trkpt>
      <trkpt lat="43.98699" lon="4.27811">
        <ele>80.6</ele>
        <time>2019-07-10T09:43:18Z</time>
      </trkpt>
      <trkpt lat="43.9869" lon="4.27772">
        <ele>80.4</ele>
        <time>2019-07-10T09:43:23Z</time>
      </trkpt>
      <trkpt lat="43.98683" lon="4.27741">
        <ele>80.2</ele>
        <time>2019-07-10T09:43:27Z</time>
      </trkpt>
      <trkpt lat="43.98681" lon="4.27733">
        <ele>80.2</ele>
        <time>2019-07-10T09:43:28Z</time>
      </trkpt>
      <trkpt lat="43.98669" lon="4.27681">
        <ele>80.4</ele>
        <time>2019-07-10T09:43:35Z</time>
      </trkpt>
      <trkpt lat="43.98667" lon="4.27667">
        <ele>80.4</ele>
        <time>2019-07-10T09:43:37Z</time>
      </trkpt>
      <trkpt lat="43.98665" lon="4.27661">
        <ele>80.4</ele>
        <time>2019-07-10T09:43:38Z</time>
      </trkpt>
      <trkpt lat="43.98659" lon="4.27636">
        <ele>80.4</ele>
        <time>2019-07-10T09:43:42Z</time>
      </trkpt>
      <trkpt lat="43.98648" lon="4.27582">
        <ele>80.8</ele>
        <time>2019-07-10T09:43:50Z</time>
      </trkpt>
      <trkpt lat="43.98636" lon="4.27526">
        <ele>81</ele>
        <time>2019-07-10T09:43:58Z</time>
      </trkpt>
      <trkpt lat="43.98632" lon="4.27507">
        <ele>81.2</ele>
        <time>2019-07-10T09:44:01Z</time>
      </trkpt>
      <trkpt lat="43.98623" lon="4.27463">
        <ele>82.6</ele>
        <time>2019-07-10T09:44:08Z</time>
      </trkpt>
      <trkpt lat="43.98622" lon="4.27456">
        <ele>82.4</ele>
        <time>2019-07-10T09:44:09Z</time>
      </trkpt>
      <trkpt lat="43.98608" lon="4.2739">
        <ele>82.6</ele>
        <time>2019-07-10T09:44:18Z</time>
      </trkpt>
      <trkpt lat="43.98595" lon="4.27328">
        <ele>82.4</ele>
        <time>2019-07-10T09:44:26Z</time>
      </trkpt>
      <trkpt lat="43.98583" lon="4.2727">
        <ele>82</ele>
        <time>2019-07-10T09:44:33Z</time>
      </trkpt>
      <trkpt lat="43.98578" lon="4.27244">
        <ele>81.8</ele>
        <time>2019-07-10T09:44:36Z</time>
      </trkpt>
      <trkpt lat="43.98567" lon="4.27191">
        <ele>81.6</ele>
        <time>2019-07-10T09:44:42Z</time>
      </trkpt>
      <trkpt lat="43.98562" lon="4.27166">
        <ele>81.2</ele>
        <time>2019-07-10T09:44:45Z</time>
      </trkpt>
      <trkpt lat="43.98555" lon="4.27138">
        <ele>80.8</ele>
        <time>2019-07-10T09:44:48Z</time>
      </trkpt>
      <trkpt lat="43.98552" lon="4.27128">
        <ele>80.4</ele>
        <time>2019-07-10T09:44:49Z</time>
      </trkpt>
      <trkpt lat="43.98542" lon="4.27099">
        <ele>79.6</ele>
        <time>2019-07-10T09:44:52Z</time>
      </trkpt>
      <trkpt lat="43.98521" lon="4.27042">
        <ele>77.4</ele>
        <time>2019-07-10T09:44:58Z</time>
      </trkpt>
      <trkpt lat="43.98517" lon="4.27033">
        <ele>77.2</ele>
        <time>2019-07-10T09:44:59Z</time>
      </trkpt>
      <trkpt lat="43.9851" lon="4.27014">
        <ele>77</ele>
        <time>2019-07-10T09:45:01Z</time>
      </trkpt>
      <trkpt lat="43.98489" lon="4.2696">
        <ele>76</ele>
        <time>2019-07-10T09:45:07Z</time>
      </trkpt>
      <trkpt lat="43.98471" lon="4.2691">
        <ele>75.6</ele>
        <time>2019-07-10T09:45:13Z</time>
      </trkpt>
      <trkpt lat="43.98468" lon="4.26901">
        <ele>75.6</ele>
        <time>2019-07-10T09:45:14Z</time>
      </trkpt>
      <trkpt lat="43.98461" lon="4.26884">
        <ele>75.4</ele>
        <time>2019-07-10T09:45:16Z</time>
      </trkpt>
      <trkpt lat="43.98456" lon="4.26868">
        <ele>75.2</ele>
        <time>2019-07-10T09:45:18Z</time>
      </trkpt>
      <trkpt lat="43.98453" lon="4.2686">
        <ele>75</ele>
        <time>2019-07-10T09:45:19Z</time>
      </trkpt>
      <trkpt lat="43.98448" lon="4.26843">
        <ele>75.2</ele>
        <time>2019-07-10T09:45:21Z</time>
      </trkpt>
      <trkpt lat="43.98423" lon="4.26774">
        <ele>74.4</ele>
        <time>2019-07-10T09:45:29Z</time>
      </trkpt>
      <trkpt lat="43.98421" lon="4.26765">
        <ele>74.4</ele>
        <time>2019-07-10T09:45:30Z</time>
      </trkpt>
      <trkpt lat="43.98411" lon="4.2672">
        <ele>73.8</ele>
        <time>2019-07-10T09:45:35Z</time>
      </trkpt>
      <trkpt lat="43.98406" lon="4.26694">
        <ele>73.8</ele>
        <time>2019-07-10T09:45:38Z</time>
      </trkpt>
      <trkpt lat="43.98394" lon="4.26635">
        <ele>73</ele>
        <time>2019-07-10T09:45:45Z</time>
      </trkpt>
      <trkpt lat="43.98393" lon="4.26627">
        <ele>73.2</ele>
        <time>2019-07-10T09:45:46Z</time>
      </trkpt>
      <trkpt lat="43.98386" lon="4.26594">
        <ele>73</ele>
        <time>2019-07-10T09:45:50Z</time>
      </trkpt>
      <trkpt lat="43.98383" lon="4.26577">
        <ele>73</ele>
        <time>2019-07-10T09:45:52Z</time>
      </trkpt>
      <trkpt lat="43.98377" lon="4.26553">
        <ele>73</ele>
        <time>2019-07-10T09:45:55Z</time>
      </trkpt>
      <trkpt lat="43.98376" lon="4.26545">
        <ele>72.8</ele>
        <time>2019-07-10T09:45:56Z</time>
      </trkpt>
      <trkpt lat="43.98367" lon="4.26504">
        <ele>72.8</ele>
        <time>2019-07-10T09:46:01Z</time>
      </trkpt>
      <trkpt lat="43.98353" lon="4.26436">
        <ele>72.8</ele>
        <time>2019-07-10T09:46:10Z</time>
      </trkpt>
      <trkpt lat="43.98352" lon="4.26429">
        <ele>72.8</ele>
        <time>2019-07-10T09:46:11Z</time>
      </trkpt>
      <trkpt lat="43.98342" lon="4.26378">
        <ele>72.2</ele>
        <time>2019-07-10T09:46:18Z</time>
      </trkpt>
      <trkpt lat="43.98334" lon="4.26339">
        <ele>72.2</ele>
        <time>2019-07-10T09:46:23Z</time>
      </trkpt>
      <trkpt lat="43.98329" lon="4.26316">
        <ele>72.2</ele>
        <time>2019-07-10T09:46:26Z</time>
      </trkpt>
      <trkpt lat="43.98327" lon="4.26308">
        <ele>72</ele>
        <time>2019-07-10T09:46:27Z</time>
      </trkpt>
      <trkpt lat="43.98326" lon="4.263">
        <ele>72.2</ele>
        <time>2019-07-10T09:46:28Z</time>
      </trkpt>
      <trkpt lat="43.98313" lon="4.26246">
        <ele>71.8</ele>
        <time>2019-07-10T09:46:35Z</time>
      </trkpt>
      <trkpt lat="43.98307" lon="4.26225">
        <ele>72.2</ele>
        <time>2019-07-10T09:46:38Z</time>
      </trkpt>
      <trkpt lat="43.98294" lon="4.26171">
        <ele>72.6</ele>
        <time>2019-07-10T09:46:45Z</time>
      </trkpt>
      <trkpt lat="43.98281" lon="4.26124">
        <ele>72.6</ele>
        <time>2019-07-10T09:46:51Z</time>
      </trkpt>
      <trkpt lat="43.98279" lon="4.26116">
        <ele>72.4</ele>
        <time>2019-07-10T09:46:52Z</time>
      </trkpt>
      <trkpt lat="43.98265" lon="4.26043">
        <ele>71.6</ele>
        <time>2019-07-10T09:47:01Z</time>
      </trkpt>
      <trkpt lat="43.98263" lon="4.26036">
        <ele>71.6</ele>
        <time>2019-07-10T09:47:02Z</time>
      </trkpt>
      <trkpt lat="43.98261" lon="4.2602">
        <ele>71.6</ele>
        <time>2019-07-10T09:47:04Z</time>
      </trkpt>
      <trkpt lat="43.98255" lon="4.25967">
        <ele>71.4</ele>
        <time>2019-07-10T09:47:11Z</time>
      </trkpt>
      <trkpt lat="43.98251" lon="4.25924">
        <ele>71.4</ele>
        <time>2019-07-10T09:47:17Z</time>
      </trkpt>
      <trkpt lat="43.98249" lon="4.2591">
        <ele>71.4</ele>
        <time>2019-07-10T09:47:19Z</time>
      </trkpt>
      <trkpt lat="43.98248" lon="4.25895">
        <ele>71.2</ele>
        <time>2019-07-10T09:47:21Z</time>
      </trkpt>
      <trkpt lat="43.98248" lon="4.25888">
        <ele>71.2</ele>
        <time>2019-07-10T09:47:22Z</time>
      </trkpt>
      <trkpt lat="43.98242" lon="4.2582">
        <ele>71.6</ele>
        <time>2019-07-10T09:47:31Z</time>
      </trkpt>
      <trkpt lat="43.98239" lon="4.25789">
        <ele>71.4</ele>
        <time>2019-07-10T09:47:35Z</time>
      </trkpt>
      <trkpt lat="43.98238" lon="4.25773">
        <ele>71.2</ele>
        <time>2019-07-10T09:47:37Z</time>
      </trkpt>
      <trkpt lat="43.98236" lon="4.25735">
        <ele>71.4</ele>
        <time>2019-07-10T09:47:42Z</time>
      </trkpt>
      <trkpt lat="43.98235" lon="4.25714">
        <ele>71.8</ele>
        <time>2019-07-10T09:47:45Z</time>
      </trkpt>
      <trkpt lat="43.98233" lon="4.257">
        <ele>71.6</ele>
        <time>2019-07-10T09:47:47Z</time>
      </trkpt>
      <trkpt lat="43.98233" lon="4.25686">
        <ele>71.8</ele>
        <time>2019-07-10T09:47:49Z</time>
      </trkpt>
      <trkpt lat="43.9823" lon="4.25637">
        <ele>72</ele>
        <time>2019-07-10T09:47:56Z</time>
      </trkpt>
      <trkpt lat="43.98228" lon="4.25596">
        <ele>71.8</ele>
        <time>2019-07-10T09:48:02Z</time>
      </trkpt>
      <trkpt lat="43.98224" lon="4.25527">
        <ele>72.2</ele>
        <time>2019-07-10T09:48:12Z</time>
      </trkpt>
      <trkpt lat="43.9822" lon="4.25464">
        <ele>72.2</ele>
        <time>2019-07-10T09:48:21Z</time>
      </trkpt>
      <trkpt lat="43.9822" lon="4.25414">
        <ele>72.4</ele>
        <time>2019-07-10T09:48:28Z</time>
      </trkpt>
      <trkpt lat="43.98221" lon="4.25382">
        <ele>72.6</ele>
        <time>2019-07-10T09:48:33Z</time>
      </trkpt>
      <trkpt lat="43.98221" lon="4.25369">
        <ele>72.8</ele>
        <time>2019-07-10T09:48:35Z</time>
      </trkpt>
      <trkpt lat="43.98223" lon="4.25344">
        <ele>73.2</ele>
        <time>2019-07-10T09:48:39Z</time>
      </trkpt>
      <trkpt lat="43.98224" lon="4.25338">
        <ele>73.2</ele>
        <time>2019-07-10T09:48:40Z</time>
      </trkpt>
      <trkpt lat="43.98227" lon="4.2532">
        <ele>73.2</ele>
        <time>2019-07-10T09:48:43Z</time>
      </trkpt>
      <trkpt lat="43.98241" lon="4.25267">
        <ele>73.2</ele>
        <time>2019-07-10T09:48:52Z</time>
      </trkpt>
      <trkpt lat="43.98253" lon="4.25226">
        <ele>72.8</ele>
        <time>2019-07-10T09:48:59Z</time>
      </trkpt>
      <trkpt lat="43.98258" lon="4.25208">
        <ele>72.8</ele>
        <time>2019-07-10T09:49:02Z</time>
      </trkpt>
      <trkpt lat="43.98263" lon="4.25192">
        <ele>72.6</ele>
        <time>2019-07-10T09:49:05Z</time>
      </trkpt>
      <trkpt lat="43.98267" lon="4.2518">
        <ele>73</ele>
        <time>2019-07-10T09:49:07Z</time>
      </trkpt>
      <trkpt lat="43.98268" lon="4.25175">
        <ele>73</ele>
        <time>2019-07-10T09:49:08Z</time>
      </trkpt>
      <trkpt lat="43.98275" lon="4.25152">
        <ele>73.4</ele>
        <time>2019-07-10T09:49:12Z</time>
      </trkpt>
      <trkpt lat="43.98277" lon="4.25147">
        <ele>73.6</ele>
        <time>2019-07-10T09:49:13Z</time>
      </trkpt>
      <trkpt lat="43.98278" lon="4.25143">
        <ele>73.8</ele>
        <time>2019-07-10T09:49:14Z</time>
      </trkpt>
      <trkpt lat="43.98292" lon="4.25098">
        <ele>73.8</ele>
        <time>2019-07-10T09:49:22Z</time>
      </trkpt>
      <trkpt lat="43.98306" lon="4.25054">
        <ele>73.4</ele>
        <time>2019-07-10T09:49:30Z</time>
      </trkpt>
      <trkpt lat="43.98308" lon="4.25049">
        <ele>73.6</ele>
        <time>2019-07-10T09:49:31Z</time>
      </trkpt>
      <trkpt lat="43.98323" lon="4.24998">
        <ele>73.8</ele>
        <time>2019-07-10T09:49:41Z</time>
      </trkpt>
      <trkpt lat="43.98334" lon="4.24956">
        <ele>74.6</ele>
        <time>2019-07-10T09:49:49Z</time>
      </trkpt>
      <trkpt lat="43.98341" lon="4.24913">
        <ele>74.6</ele>
        <time>2019-07-10T09:49:57Z</time>
      </trkpt>
      <trkpt lat="43.98348" lon="4.24855">
        <ele>75.2</ele>
        <time>2019-07-10T09:50:07Z</time>
      </trkpt>
      <trkpt lat="43.98349" lon="4.24849">
        <ele>75.2</ele>
        <time>2019-07-10T09:50:08Z</time>
      </trkpt>
      <trkpt lat="43.98355" lon="4.24809">
        <ele>76</ele>
        <time>2019-07-10T09:50:15Z</time>
      </trkpt>
      <trkpt lat="43.98356" lon="4.24803">
        <ele>76</ele>
        <time>2019-07-10T09:50:16Z</time>
      </trkpt>
      <trkpt lat="43.98361" lon="4.24766">
        <ele>76.2</ele>
        <time>2019-07-10T09:50:22Z</time>
      </trkpt>
      <trkpt lat="43.98363" lon="4.24754">
        <ele>76.2</ele>
        <time>2019-07-10T09:50:24Z</time>
      </trkpt>
      <trkpt lat="43.98374" lon="4.24679">
        <ele>76.2</ele>
        <time>2019-07-10T09:50:36Z</time>
      </trkpt>
      <trkpt lat="43.98379" lon="4.24647">
        <ele>76.4</ele>
        <time>2019-07-10T09:50:41Z</time>
      </trkpt>
      <trkpt lat="43.98381" lon="4.24621">
        <ele>76.6</ele>
        <time>2019-07-10T09:50:45Z</time>
      </trkpt>
      <trkpt lat="43.98382" lon="4.2458">
        <ele>77</ele>
        <time>2019-07-10T09:50:51Z</time>
      </trkpt>
      <trkpt lat="43.98381" lon="4.24561">
        <ele>77.4</ele>
        <time>2019-07-10T09:50:54Z</time>
      </trkpt>
      <trkpt lat="43.98381" lon="4.24525">
        <ele>77.6</ele>
        <time>2019-07-10T09:51:00Z</time>
      </trkpt>
      <trkpt lat="43.9838" lon="4.24514">
        <ele>77.8</ele>
        <time>2019-07-10T09:51:02Z</time>
      </trkpt>
      <trkpt lat="43.9838" lon="4.24508">
        <ele>78</ele>
        <time>2019-07-10T09:51:03Z</time>
      </trkpt>
      <trkpt lat="43.98379" lon="4.24473">
        <ele>78.8</ele>
        <time>2019-07-10T09:51:09Z</time>
      </trkpt>
      <trkpt lat="43.98378" lon="4.24467">
        <ele>78.8</ele>
        <time>2019-07-10T09:51:10Z</time>
      </trkpt>
      <trkpt lat="43.98376" lon="4.2444">
        <ele>78.4</ele>
        <time>2019-07-10T09:51:14Z</time>
      </trkpt>
      <trkpt lat="43.98375" lon="4.24427">
        <ele>78.4</ele>
        <time>2019-07-10T09:51:16Z</time>
      </trkpt>
      <trkpt lat="43.98373" lon="4.24407">
        <ele>78.4</ele>
        <time>2019-07-10T09:51:19Z</time>
      </trkpt>
      <trkpt lat="43.98367" lon="4.24338">
        <ele>78</ele>
        <time>2019-07-10T09:51:29Z</time>
      </trkpt>
      <trkpt lat="43.98364" lon="4.2428">
        <ele>77.8</ele>
        <time>2019-07-10T09:51:37Z</time>
      </trkpt>
      <trkpt lat="43.98364" lon="4.24273">
        <ele>77.6</ele>
        <time>2019-07-10T09:51:38Z</time>
      </trkpt>
      <trkpt lat="43.98361" lon="4.24251">
        <ele>77.6</ele>
        <time>2019-07-10T09:51:41Z</time>
      </trkpt>
      <trkpt lat="43.9836" lon="4.24244">
        <ele>77.6</ele>
        <time>2019-07-10T09:51:42Z</time>
      </trkpt>
      <trkpt lat="43.98356" lon="4.24223">
        <ele>77.6</ele>
        <time>2019-07-10T09:51:45Z</time>
      </trkpt>
      <trkpt lat="43.98344" lon="4.24159">
        <ele>77.4</ele>
        <time>2019-07-10T09:51:54Z</time>
      </trkpt>
      <trkpt lat="43.98336" lon="4.24122">
        <ele>77.2</ele>
        <time>2019-07-10T09:51:59Z</time>
      </trkpt>
      <trkpt lat="43.98331" lon="4.24101">
        <ele>77</ele>
        <time>2019-07-10T09:52:02Z</time>
      </trkpt>
      <trkpt lat="43.9832" lon="4.24059">
        <ele>76.6</ele>
        <time>2019-07-10T09:52:08Z</time>
      </trkpt>
      <trkpt lat="43.98316" lon="4.24045">
        <ele>76.2</ele>
        <time>2019-07-10T09:52:10Z</time>
      </trkpt>
      <trkpt lat="43.98298" lon="4.23976">
        <ele>75.4</ele>
        <time>2019-07-10T09:52:20Z</time>
      </trkpt>
      <trkpt lat="43.98295" lon="4.23961">
        <ele>75.2</ele>
        <time>2019-07-10T09:52:22Z</time>
      </trkpt>
      <trkpt lat="43.98291" lon="4.23946">
        <ele>75.2</ele>
        <time>2019-07-10T09:52:24Z</time>
      </trkpt>
      <trkpt lat="43.98289" lon="4.23938">
        <ele>75.2</ele>
        <time>2019-07-10T09:52:25Z</time>
      </trkpt>
      <trkpt lat="43.98288" lon="4.2393">
        <ele>75.2</ele>
        <time>2019-07-10T09:52:26Z</time>
      </trkpt>
      <trkpt lat="43.98284" lon="4.23915">
        <ele>75</ele>
        <time>2019-07-10T09:52:28Z</time>
      </trkpt>
      <trkpt lat="43.98281" lon="4.239">
        <ele>75</ele>
        <time>2019-07-10T09:52:30Z</time>
      </trkpt>
      <trkpt lat="43.98273" lon="4.23842">
        <ele>74.8</ele>
        <time>2019-07-10T09:52:38Z</time>
      </trkpt>
      <trkpt lat="43.98266" lon="4.23783">
        <ele>75</ele>
        <time>2019-07-10T09:52:46Z</time>
      </trkpt>
      <trkpt lat="43.98265" lon="4.23776">
        <ele>75</ele>
        <time>2019-07-10T09:52:47Z</time>
      </trkpt>
      <trkpt lat="43.98258" lon="4.23733">
        <ele>74.8</ele>
        <time>2019-07-10T09:52:53Z</time>
      </trkpt>
      <trkpt lat="43.98255" lon="4.23719">
        <ele>74.6</ele>
        <time>2019-07-10T09:52:55Z</time>
      </trkpt>
      <trkpt lat="43.9825" lon="4.23692">
        <ele>74.4</ele>
        <time>2019-07-10T09:52:59Z</time>
      </trkpt>
      <trkpt lat="43.98249" lon="4.23685">
        <ele>74.4</ele>
        <time>2019-07-10T09:53:00Z</time>
      </trkpt>
      <trkpt lat="43.98244" lon="4.23666">
        <ele>74.4</ele>
        <time>2019-07-10T09:53:03Z</time>
      </trkpt>
      <trkpt lat="43.9824" lon="4.23653">
        <ele>74.6</ele>
        <time>2019-07-10T09:53:05Z</time>
      </trkpt>
      <trkpt lat="43.98238" lon="4.23647">
        <ele>74.4</ele>
        <time>2019-07-10T09:53:06Z</time>
      </trkpt>
      <trkpt lat="43.98228" lon="4.23617">
        <ele>74.4</ele>
        <time>2019-07-10T09:53:11Z</time>
      </trkpt>
      <trkpt lat="43.98224" lon="4.23604">
        <ele>74.4</ele>
        <time>2019-07-10T09:53:13Z</time>
      </trkpt>
      <trkpt lat="43.9822" lon="4.23592">
        <ele>74.4</ele>
        <time>2019-07-10T09:53:15Z</time>
      </trkpt>
      <trkpt lat="43.9821" lon="4.23562">
        <ele>74</ele>
        <time>2019-07-10T09:53:20Z</time>
      </trkpt>
      <trkpt lat="43.98199" lon="4.23534">
        <ele>74.2</ele>
        <time>2019-07-10T09:53:25Z</time>
      </trkpt>
      <trkpt lat="43.98195" lon="4.23523">
        <ele>74</ele>
        <time>2019-07-10T09:53:27Z</time>
      </trkpt>
      <trkpt lat="43.98186" lon="4.23492">
        <ele>74</ele>
        <time>2019-07-10T09:53:32Z</time>
      </trkpt>
      <trkpt lat="43.98183" lon="4.2348">
        <ele>74.2</ele>
        <time>2019-07-10T09:53:34Z</time>
      </trkpt>
      <trkpt lat="43.98176" lon="4.23458">
        <ele>74.2</ele>
        <time>2019-07-10T09:53:38Z</time>
      </trkpt>
      <trkpt lat="43.98175" lon="4.23453">
        <ele>74</ele>
        <time>2019-07-10T09:53:39Z</time>
      </trkpt>
      <trkpt lat="43.98165" lon="4.23423">
        <ele>74.2</ele>
        <time>2019-07-10T09:53:44Z</time>
      </trkpt>
      <trkpt lat="43.98163" lon="4.23417">
        <ele>74.2</ele>
        <time>2019-07-10T09:53:45Z</time>
      </trkpt>
      <trkpt lat="43.9816" lon="4.23412">
        <ele>74.2</ele>
        <time>2019-07-10T09:53:46Z</time>
      </trkpt>
      <trkpt lat="43.98155" lon="4.23401">
        <ele>74.2</ele>
        <time>2019-07-10T09:53:48Z</time>
      </trkpt>
      <trkpt lat="43.98147" lon="4.23381">
        <ele>74.4</ele>
        <time>2019-07-10T09:53:52Z</time>
      </trkpt>
      <trkpt lat="43.98145" lon="4.23371">
        <ele>74.2</ele>
        <time>2019-07-10T09:53:55Z</time>
      </trkpt>
      <trkpt lat="43.98145" lon="4.23371">
        <ele>74.4</ele>
        <time>2019-07-10T09:53:56Z</time>
      </trkpt>
      <trkpt lat="43.98145" lon="4.23371">
        <ele>74.2</ele>
        <time>2019-07-10T09:53:58Z</time>
      </trkpt>
      <trkpt lat="43.98145" lon="4.23363">
        <ele>74.4</ele>
        <time>2019-07-10T09:54:03Z</time>
      </trkpt>
      <trkpt lat="43.98145" lon="4.2336">
        <ele>74.4</ele>
        <time>2019-07-10T09:54:04Z</time>
      </trkpt>
      <trkpt lat="43.98137" lon="4.23336">
        <ele>74.4</ele>
        <time>2019-07-10T09:54:09Z</time>
      </trkpt>
      <trkpt lat="43.98135" lon="4.23331">
        <ele>74.4</ele>
        <time>2019-07-10T09:54:10Z</time>
      </trkpt>
      <trkpt lat="43.98128" lon="4.23315">
        <ele>74.4</ele>
        <time>2019-07-10T09:54:13Z</time>
      </trkpt>
      <trkpt lat="43.98127" lon="4.23309">
        <ele>74.4</ele>
        <time>2019-07-10T09:54:14Z</time>
      </trkpt>
      <trkpt lat="43.98116" lon="4.23271">
        <ele>74.2</ele>
        <time>2019-07-10T09:54:20Z</time>
      </trkpt>
      <trkpt lat="43.981" lon="4.2322">
        <ele>74.2</ele>
        <time>2019-07-10T09:54:27Z</time>
      </trkpt>
      <trkpt lat="43.98078" lon="4.23153">
        <ele>74.4</ele>
        <time>2019-07-10T09:54:36Z</time>
      </trkpt>
      <trkpt lat="43.98076" lon="4.23145">
        <ele>74.4</ele>
        <time>2019-07-10T09:54:37Z</time>
      </trkpt>
      <trkpt lat="43.98069" lon="4.23124">
        <ele>74.4</ele>
        <time>2019-07-10T09:54:40Z</time>
      </trkpt>
      <trkpt lat="43.98058" lon="4.2309">
        <ele>74.2</ele>
        <time>2019-07-10T09:54:45Z</time>
      </trkpt>
      <trkpt lat="43.98039" lon="4.2303">
        <ele>72.8</ele>
        <time>2019-07-10T09:54:54Z</time>
      </trkpt>
      <trkpt lat="43.98037" lon="4.23024">
        <ele>72.8</ele>
        <time>2019-07-10T09:54:55Z</time>
      </trkpt>
      <trkpt lat="43.98027" lon="4.22996">
        <ele>72.4</ele>
        <time>2019-07-10T09:55:00Z</time>
      </trkpt>
      <trkpt lat="43.98021" lon="4.22977">
        <ele>72</ele>
        <time>2019-07-10T09:55:03Z</time>
      </trkpt>
      <trkpt lat="43.98008" lon="4.22935">
        <ele>71.4</ele>
        <time>2019-07-10T09:55:09Z</time>
      </trkpt>
      <trkpt lat="43.98004" lon="4.2292">
        <ele>71.4</ele>
        <time>2019-07-10T09:55:11Z</time>
      </trkpt>
      <trkpt lat="43.97999" lon="4.22889">
        <ele>71</ele>
        <time>2019-07-10T09:55:15Z</time>
      </trkpt>
      <trkpt lat="43.97998" lon="4.22882">
        <ele>71</ele>
        <time>2019-07-10T09:55:16Z</time>
      </trkpt>
      <trkpt lat="43.97998" lon="4.22839">
        <ele>70.6</ele>
        <time>2019-07-10T09:55:21Z</time>
      </trkpt>
      <trkpt lat="43.97998" lon="4.22826">
        <ele>70.4</ele>
        <time>2019-07-10T09:55:23Z</time>
      </trkpt>
      <trkpt lat="43.97998" lon="4.22806">
        <ele>70.6</ele>
        <time>2019-07-10T09:55:26Z</time>
      </trkpt>
      <trkpt lat="43.97998" lon="4.22799">
        <ele>70.4</ele>
        <time>2019-07-10T09:55:27Z</time>
      </trkpt>
      <trkpt lat="43.97999" lon="4.22792">
        <ele>70.2</ele>
        <time>2019-07-10T09:55:28Z</time>
      </trkpt>
      <trkpt lat="43.97999" lon="4.22785">
        <ele>70.2</ele>
        <time>2019-07-10T09:55:29Z</time>
      </trkpt>
      <trkpt lat="43.97999" lon="4.22776">
        <ele>70.2</ele>
        <time>2019-07-10T09:55:30Z</time>
      </trkpt>
      <trkpt lat="43.97999" lon="4.22762">
        <ele>70.2</ele>
        <time>2019-07-10T09:55:32Z</time>
      </trkpt>
      <trkpt lat="43.97996" lon="4.2274">
        <ele>69.8</ele>
        <time>2019-07-10T09:55:35Z</time>
      </trkpt>
      <trkpt lat="43.97989" lon="4.2272">
        <ele>69.6</ele>
        <time>2019-07-10T09:55:39Z</time>
      </trkpt>
      <trkpt lat="43.97986" lon="4.22712">
        <ele>69</ele>
        <time>2019-07-10T09:55:43Z</time>
      </trkpt>
      <trkpt lat="43.97986" lon="4.22709">
        <ele>68.6</ele>
        <time>2019-07-10T09:55:48Z</time>
      </trkpt>
      <trkpt lat="43.97984" lon="4.22704">
        <ele>68.4</ele>
        <time>2019-07-10T09:56:00Z</time>
      </trkpt>
      <trkpt lat="43.97978" lon="4.22685">
        <ele>68.2</ele>
        <time>2019-07-10T09:56:05Z</time>
      </trkpt>
      <trkpt lat="43.97969" lon="4.22663">
        <ele>68.4</ele>
        <time>2019-07-10T09:56:10Z</time>
      </trkpt>
      <trkpt lat="43.97958" lon="4.22628">
        <ele>68.4</ele>
        <time>2019-07-10T09:56:17Z</time>
      </trkpt>
      <trkpt lat="43.97954" lon="4.22618">
        <ele>68.2</ele>
        <time>2019-07-10T09:56:19Z</time>
      </trkpt>
      <trkpt lat="43.97952" lon="4.22614">
        <ele>68.2</ele>
        <time>2019-07-10T09:56:20Z</time>
      </trkpt>
      <trkpt lat="43.97949" lon="4.22609">
        <ele>68.2</ele>
        <time>2019-07-10T09:56:21Z</time>
      </trkpt>
      <trkpt lat="43.97939" lon="4.22598">
        <ele>68</ele>
        <time>2019-07-10T09:56:24Z</time>
      </trkpt>
      <trkpt lat="43.97931" lon="4.22593">
        <ele>68</ele>
        <time>2019-07-10T09:56:26Z</time>
      </trkpt>
      <trkpt lat="43.97915" lon="4.22582">
        <ele>66.6</ele>
        <time>2019-07-10T09:56:32Z</time>
      </trkpt>
      <trkpt lat="43.97915" lon="4.22581">
        <ele>66.2</ele>
        <time>2019-07-10T09:56:33Z</time>
      </trkpt>
      <trkpt lat="43.97915" lon="4.22581">
        <ele>66.2</ele>
        <time>2019-07-10T09:56:34Z</time>
      </trkpt>
      <trkpt lat="43.97908" lon="4.22574">
        <ele>65.8</ele>
        <time>2019-07-10T09:58:57Z</time>
      </trkpt>
      <trkpt lat="43.97904" lon="4.22571">
        <ele>65.8</ele>
        <time>2019-07-10T09:58:59Z</time>
      </trkpt>
      <trkpt lat="43.97883" lon="4.22558">
        <ele>66.2</ele>
        <time>2019-07-10T09:59:07Z</time>
      </trkpt>
      <trkpt lat="43.97857" lon="4.22543">
        <ele>66.8</ele>
        <time>2019-07-10T09:59:15Z</time>
      </trkpt>
      <trkpt lat="43.97833" lon="4.22527">
        <ele>67</ele>
        <time>2019-07-10T09:59:23Z</time>
      </trkpt>
      <trkpt lat="43.97809" lon="4.22513">
        <ele>67</ele>
        <time>2019-07-10T09:59:31Z</time>
      </trkpt>
      <trkpt lat="43.97788" lon="4.22501">
        <ele>67</ele>
        <time>2019-07-10T09:59:39Z</time>
      </trkpt>
      <trkpt lat="43.97759" lon="4.22484">
        <ele>66.4</ele>
        <time>2019-07-10T09:59:49Z</time>
      </trkpt>
      <trkpt lat="43.97747" lon="4.22477">
        <ele>66</ele>
        <time>2019-07-10T09:59:53Z</time>
      </trkpt>
      <trkpt lat="43.97741" lon="4.22473">
        <ele>66</ele>
        <time>2019-07-10T09:59:55Z</time>
      </trkpt>
      <trkpt lat="43.97737" lon="4.22471">
        <ele>65.8</ele>
        <time>2019-07-10T09:59:56Z</time>
      </trkpt>
      <trkpt lat="43.97722" lon="4.22461">
        <ele>65</ele>
        <time>2019-07-10T10:00:00Z</time>
      </trkpt>
      <trkpt lat="43.97718" lon="4.22459">
        <ele>64.2</ele>
        <time>2019-07-10T10:00:01Z</time>
      </trkpt>
      <trkpt lat="43.97715" lon="4.22457">
        <ele>64</ele>
        <time>2019-07-10T10:00:02Z</time>
      </trkpt>
      <trkpt lat="43.97685" lon="4.22439">
        <ele>62.6</ele>
        <time>2019-07-10T10:00:10Z</time>
      </trkpt>
      <trkpt lat="43.97651" lon="4.22418">
        <ele>62.4</ele>
        <time>2019-07-10T10:00:18Z</time>
      </trkpt>
      <trkpt lat="43.97612" lon="4.22396">
        <ele>62.4</ele>
        <time>2019-07-10T10:00:26Z</time>
      </trkpt>
      <trkpt lat="43.97577" lon="4.22369">
        <ele>62.4</ele>
        <time>2019-07-10T10:00:34Z</time>
      </trkpt>
      <trkpt lat="43.97537" lon="4.22327">
        <ele>62.8</ele>
        <time>2019-07-10T10:00:44Z</time>
      </trkpt>
      <trkpt lat="43.97504" lon="4.2229">
        <ele>62.6</ele>
        <time>2019-07-10T10:00:53Z</time>
      </trkpt>
      <trkpt lat="43.975" lon="4.22285">
        <ele>62.8</ele>
        <time>2019-07-10T10:00:57Z</time>
      </trkpt>
      <trkpt lat="43.975" lon="4.22285">
        <ele>62.6</ele>
        <time>2019-07-10T10:00:58Z</time>
      </trkpt>
      <trkpt lat="43.97497" lon="4.22282">
        <ele>62.4</ele>
        <time>2019-07-10T10:01:07Z</time>
      </trkpt>
      <trkpt lat="43.97493" lon="4.22278">
        <ele>62.2</ele>
        <time>2019-07-10T10:01:09Z</time>
      </trkpt>
      <trkpt lat="43.97487" lon="4.2227">
        <ele>62.4</ele>
        <time>2019-07-10T10:01:12Z</time>
      </trkpt>
      <trkpt lat="43.97482" lon="4.22265">
        <ele>62.2</ele>
        <time>2019-07-10T10:01:14Z</time>
      </trkpt>
      <trkpt lat="43.9748" lon="4.22262">
        <ele>62.2</ele>
        <time>2019-07-10T10:01:15Z</time>
      </trkpt>
      <trkpt lat="43.97474" lon="4.22254">
        <ele>62</ele>
        <time>2019-07-10T10:01:18Z</time>
      </trkpt>
      <trkpt lat="43.97469" lon="4.22249">
        <ele>62</ele>
        <time>2019-07-10T10:01:20Z</time>
      </trkpt>
      <trkpt lat="43.97457" lon="4.22238">
        <ele>61.6</ele>
        <time>2019-07-10T10:01:24Z</time>
      </trkpt>
      <trkpt lat="43.97431" lon="4.22211">
        <ele>61.6</ele>
        <time>2019-07-10T10:01:33Z</time>
      </trkpt>
      <trkpt lat="43.97428" lon="4.22207">
        <ele>61.8</ele>
        <time>2019-07-10T10:01:34Z</time>
      </trkpt>
      <trkpt lat="43.97422" lon="4.222">
        <ele>62.2</ele>
        <time>2019-07-10T10:01:36Z</time>
      </trkpt>
      <trkpt lat="43.9741" lon="4.22187">
        <ele>62.6</ele>
        <time>2019-07-10T10:01:39Z</time>
      </trkpt>
      <trkpt lat="43.97387" lon="4.22161">
        <ele>63</ele>
        <time>2019-07-10T10:01:45Z</time>
      </trkpt>
      <trkpt lat="43.97382" lon="4.22157">
        <ele>62.8</ele>
        <time>2019-07-10T10:01:46Z</time>
      </trkpt>
      <trkpt lat="43.97378" lon="4.22153">
        <ele>63</ele>
        <time>2019-07-10T10:01:47Z</time>
      </trkpt>
      <trkpt lat="43.97352" lon="4.22126">
        <ele>62.8</ele>
        <time>2019-07-10T10:01:54Z</time>
      </trkpt>
      <trkpt lat="43.9733" lon="4.22101">
        <ele>62.8</ele>
        <time>2019-07-10T10:02:01Z</time>
      </trkpt>
      <trkpt lat="43.97327" lon="4.22097">
        <ele>63</ele>
        <time>2019-07-10T10:02:02Z</time>
      </trkpt>
      <trkpt lat="43.97318" lon="4.22087">
        <ele>62.8</ele>
        <time>2019-07-10T10:02:05Z</time>
      </trkpt>
      <trkpt lat="43.97315" lon="4.22084">
        <ele>62.8</ele>
        <time>2019-07-10T10:02:06Z</time>
      </trkpt>
      <trkpt lat="43.97297" lon="4.22065">
        <ele>62.8</ele>
        <time>2019-07-10T10:02:11Z</time>
      </trkpt>
      <trkpt lat="43.97282" lon="4.22048">
        <ele>62.4</ele>
        <time>2019-07-10T10:02:15Z</time>
      </trkpt>
      <trkpt lat="43.97279" lon="4.22044">
        <ele>62.6</ele>
        <time>2019-07-10T10:02:16Z</time>
      </trkpt>
      <trkpt lat="43.97266" lon="4.2203">
        <ele>62.2</ele>
        <time>2019-07-10T10:02:20Z</time>
      </trkpt>
      <trkpt lat="43.97241" lon="4.22004">
        <ele>62.6</ele>
        <time>2019-07-10T10:02:28Z</time>
      </trkpt>
      <trkpt lat="43.97238" lon="4.22001">
        <ele>62.4</ele>
        <time>2019-07-10T10:02:29Z</time>
      </trkpt>
      <trkpt lat="43.97235" lon="4.21998">
        <ele>62.6</ele>
        <time>2019-07-10T10:02:30Z</time>
      </trkpt>
      <trkpt lat="43.97219" lon="4.21981">
        <ele>62.8</ele>
        <time>2019-07-10T10:02:36Z</time>
      </trkpt>
      <trkpt lat="43.97202" lon="4.21964">
        <ele>63.2</ele>
        <time>2019-07-10T10:02:42Z</time>
      </trkpt>
      <trkpt lat="43.97187" lon="4.21949">
        <ele>63.2</ele>
        <time>2019-07-10T10:02:47Z</time>
      </trkpt>
      <trkpt lat="43.97185" lon="4.21944">
        <ele>63.4</ele>
        <time>2019-07-10T10:02:48Z</time>
      </trkpt>
      <trkpt lat="43.97184" lon="4.21921">
        <ele>63.6</ele>
        <time>2019-07-10T10:02:52Z</time>
      </trkpt>
      <trkpt lat="43.97196" lon="4.21894">
        <ele>64.2</ele>
        <time>2019-07-10T10:02:57Z</time>
      </trkpt>
      <trkpt lat="43.97202" lon="4.21883">
        <ele>64.4</ele>
        <time>2019-07-10T10:02:59Z</time>
      </trkpt>
      <trkpt lat="43.97217" lon="4.21857">
        <ele>64.4</ele>
        <time>2019-07-10T10:03:04Z</time>
      </trkpt>
      <trkpt lat="43.97247" lon="4.21806">
        <ele>64.6</ele>
        <time>2019-07-10T10:03:13Z</time>
      </trkpt>
      <trkpt lat="43.97284" lon="4.21743">
        <ele>64.6</ele>
        <time>2019-07-10T10:03:24Z</time>
      </trkpt>
      <trkpt lat="43.97288" lon="4.21738">
        <ele>64.6</ele>
        <time>2019-07-10T10:03:25Z</time>
      </trkpt>
      <trkpt lat="43.97326" lon="4.21676">
        <ele>65</ele>
        <time>2019-07-10T10:03:36Z</time>
      </trkpt>
      <trkpt lat="43.97332" lon="4.21665">
        <ele>65.4</ele>
        <time>2019-07-10T10:03:38Z</time>
      </trkpt>
      <trkpt lat="43.97358" lon="4.21622">
        <ele>65.8</ele>
        <time>2019-07-10T10:03:46Z</time>
      </trkpt>
      <trkpt lat="43.97368" lon="4.21605">
        <ele>65.8</ele>
        <time>2019-07-10T10:03:49Z</time>
      </trkpt>
      <trkpt lat="43.97404" lon="4.21545">
        <ele>65.8</ele>
        <time>2019-07-10T10:04:00Z</time>
      </trkpt>
      <trkpt lat="43.97407" lon="4.2154">
        <ele>65.8</ele>
        <time>2019-07-10T10:04:01Z</time>
      </trkpt>
      <trkpt lat="43.9743" lon="4.21503">
        <ele>65.8</ele>
        <time>2019-07-10T10:04:08Z</time>
      </trkpt>
      <trkpt lat="43.97443" lon="4.21481">
        <ele>65.8</ele>
        <time>2019-07-10T10:04:12Z</time>
      </trkpt>
      <trkpt lat="43.9745" lon="4.21471">
        <ele>66</ele>
        <time>2019-07-10T10:04:14Z</time>
      </trkpt>
      <trkpt lat="43.9746" lon="4.21454">
        <ele>66.2</ele>
        <time>2019-07-10T10:04:17Z</time>
      </trkpt>
      <trkpt lat="43.97473" lon="4.2143">
        <ele>66.4</ele>
        <time>2019-07-10T10:04:21Z</time>
      </trkpt>
      <trkpt lat="43.975" lon="4.21385">
        <ele>66</ele>
        <time>2019-07-10T10:04:29Z</time>
      </trkpt>
      <trkpt lat="43.97503" lon="4.21379">
        <ele>66</ele>
        <time>2019-07-10T10:04:30Z</time>
      </trkpt>
      <trkpt lat="43.9751" lon="4.21369">
        <ele>65.8</ele>
        <time>2019-07-10T10:04:32Z</time>
      </trkpt>
      <trkpt lat="43.97523" lon="4.21346">
        <ele>65.8</ele>
        <time>2019-07-10T10:04:36Z</time>
      </trkpt>
      <trkpt lat="43.97536" lon="4.21323">
        <ele>65.6</ele>
        <time>2019-07-10T10:04:40Z</time>
      </trkpt>
      <trkpt lat="43.97539" lon="4.21317">
        <ele>65.4</ele>
        <time>2019-07-10T10:04:41Z</time>
      </trkpt>
      <trkpt lat="43.97543" lon="4.21311">
        <ele>65.6</ele>
        <time>2019-07-10T10:04:42Z</time>
      </trkpt>
      <trkpt lat="43.97572" lon="4.21261">
        <ele>66.4</ele>
        <time>2019-07-10T10:04:51Z</time>
      </trkpt>
      <trkpt lat="43.97604" lon="4.21205">
        <ele>65.6</ele>
        <time>2019-07-10T10:05:01Z</time>
      </trkpt>
      <trkpt lat="43.97633" lon="4.21155">
        <ele>66</ele>
        <time>2019-07-10T10:05:10Z</time>
      </trkpt>
      <trkpt lat="43.97666" lon="4.21098">
        <ele>66.4</ele>
        <time>2019-07-10T10:05:20Z</time>
      </trkpt>
      <trkpt lat="43.97675" lon="4.21081">
        <ele>66.8</ele>
        <time>2019-07-10T10:05:23Z</time>
      </trkpt>
      <trkpt lat="43.97688" lon="4.21059">
        <ele>66.6</ele>
        <time>2019-07-10T10:05:27Z</time>
      </trkpt>
      <trkpt lat="43.9772" lon="4.21004">
        <ele>66.4</ele>
        <time>2019-07-10T10:05:37Z</time>
      </trkpt>
      <trkpt lat="43.97755" lon="4.2094">
        <ele>66.6</ele>
        <time>2019-07-10T10:05:48Z</time>
      </trkpt>
      <trkpt lat="43.97767" lon="4.20916">
        <ele>66.2</ele>
        <time>2019-07-10T10:05:52Z</time>
      </trkpt>
      <trkpt lat="43.97768" lon="4.20909">
        <ele>66.2</ele>
        <time>2019-07-10T10:05:53Z</time>
      </trkpt>
      <trkpt lat="43.97768" lon="4.20903">
        <ele>66.2</ele>
        <time>2019-07-10T10:05:54Z</time>
      </trkpt>
      <trkpt lat="43.97761" lon="4.2089">
        <ele>66.2</ele>
        <time>2019-07-10T10:05:56Z</time>
      </trkpt>
      <trkpt lat="43.97758" lon="4.20887">
        <ele>66.2</ele>
        <time>2019-07-10T10:05:57Z</time>
      </trkpt>
      <trkpt lat="43.97742" lon="4.20873">
        <ele>65.2</ele>
        <time>2019-07-10T10:06:01Z</time>
      </trkpt>
      <trkpt lat="43.97731" lon="4.20861">
        <ele>64.8</ele>
        <time>2019-07-10T10:06:04Z</time>
      </trkpt>
      <trkpt lat="43.97719" lon="4.20842">
        <ele>64.8</ele>
        <time>2019-07-10T10:06:08Z</time>
      </trkpt>
      <trkpt lat="43.97714" lon="4.20829">
        <ele>64.8</ele>
        <time>2019-07-10T10:06:10Z</time>
      </trkpt>
      <trkpt lat="43.9771" lon="4.20818">
        <ele>64.8</ele>
        <time>2019-07-10T10:06:12Z</time>
      </trkpt>
      <trkpt lat="43.97701" lon="4.20792">
        <ele>65</ele>
        <time>2019-07-10T10:06:16Z</time>
      </trkpt>
      <trkpt lat="43.97696" lon="4.20773">
        <ele>65</ele>
        <time>2019-07-10T10:06:19Z</time>
      </trkpt>
      <trkpt lat="43.9769" lon="4.20747">
        <ele>65</ele>
        <time>2019-07-10T10:06:23Z</time>
      </trkpt>
      <trkpt lat="43.97684" lon="4.20718">
        <ele>65.2</ele>
        <time>2019-07-10T10:06:28Z</time>
      </trkpt>
      <trkpt lat="43.97683" lon="4.20713">
        <ele>65.2</ele>
        <time>2019-07-10T10:06:29Z</time>
      </trkpt>
      <trkpt lat="43.97682" lon="4.20704">
        <ele>65.2</ele>
        <time>2019-07-10T10:06:31Z</time>
      </trkpt>
      <trkpt lat="43.97679" lon="4.2069">
        <ele>65.6</ele>
        <time>2019-07-10T10:06:34Z</time>
      </trkpt>
      <trkpt lat="43.9767" lon="4.20669">
        <ele>66</ele>
        <time>2019-07-10T10:06:39Z</time>
      </trkpt>
      <trkpt lat="43.97666" lon="4.20659">
        <ele>66.2</ele>
        <time>2019-07-10T10:06:41Z</time>
      </trkpt>
      <trkpt lat="43.97663" lon="4.20655">
        <ele>66.4</ele>
        <time>2019-07-10T10:06:42Z</time>
      </trkpt>
      <trkpt lat="43.97661" lon="4.2065">
        <ele>66.6</ele>
        <time>2019-07-10T10:06:43Z</time>
      </trkpt>
      <trkpt lat="43.97652" lon="4.20626">
        <ele>67</ele>
        <time>2019-07-10T10:06:48Z</time>
      </trkpt>
      <trkpt lat="43.97649" lon="4.2061">
        <ele>67.4</ele>
        <time>2019-07-10T10:06:51Z</time>
      </trkpt>
      <trkpt lat="43.97646" lon="4.20583">
        <ele>67.8</ele>
        <time>2019-07-10T10:06:56Z</time>
      </trkpt>
      <trkpt lat="43.97641" lon="4.20546">
        <ele>68.2</ele>
        <time>2019-07-10T10:07:03Z</time>
      </trkpt>
      <trkpt lat="43.97636" lon="4.20507">
        <ele>68.8</ele>
        <time>2019-07-10T10:07:10Z</time>
      </trkpt>
      <trkpt lat="43.97634" lon="4.20489">
        <ele>68.8</ele>
        <time>2019-07-10T10:07:13Z</time>
      </trkpt>
      <trkpt lat="43.97626" lon="4.20452">
        <ele>69.6</ele>
        <time>2019-07-10T10:07:19Z</time>
      </trkpt>
      <trkpt lat="43.97622" lon="4.20441">
        <ele>69.6</ele>
        <time>2019-07-10T10:07:21Z</time>
      </trkpt>
      <trkpt lat="43.97618" lon="4.2043">
        <ele>69.8</ele>
        <time>2019-07-10T10:07:23Z</time>
      </trkpt>
      <trkpt lat="43.97615" lon="4.20422">
        <ele>69.8</ele>
        <time>2019-07-10T10:07:24Z</time>
      </trkpt>
      <trkpt lat="43.97605" lon="4.20389">
        <ele>70</ele>
        <time>2019-07-10T10:07:29Z</time>
      </trkpt>
      <trkpt lat="43.97593" lon="4.20349">
        <ele>70</ele>
        <time>2019-07-10T10:07:35Z</time>
      </trkpt>
      <trkpt lat="43.97589" lon="4.20337">
        <ele>70</ele>
        <time>2019-07-10T10:07:37Z</time>
      </trkpt>
      <trkpt lat="43.97584" lon="4.20324">
        <ele>70</ele>
        <time>2019-07-10T10:07:39Z</time>
      </trkpt>
      <trkpt lat="43.97568" lon="4.2028">
        <ele>69.6</ele>
        <time>2019-07-10T10:07:45Z</time>
      </trkpt>
      <trkpt lat="43.97564" lon="4.20265">
        <ele>69.8</ele>
        <time>2019-07-10T10:07:47Z</time>
      </trkpt>
      <trkpt lat="43.97553" lon="4.2022">
        <ele>69.6</ele>
        <time>2019-07-10T10:07:53Z</time>
      </trkpt>
      <trkpt lat="43.97549" lon="4.20206">
        <ele>69.8</ele>
        <time>2019-07-10T10:07:55Z</time>
      </trkpt>
      <trkpt lat="43.9754" lon="4.20164">
        <ele>70.2</ele>
        <time>2019-07-10T10:08:01Z</time>
      </trkpt>
      <trkpt lat="43.97538" lon="4.20158">
        <ele>70.2</ele>
        <time>2019-07-10T10:08:02Z</time>
      </trkpt>
      <trkpt lat="43.97528" lon="4.20112">
        <ele>70.2</ele>
        <time>2019-07-10T10:08:09Z</time>
      </trkpt>
      <trkpt lat="43.97524" lon="4.20093">
        <ele>70.4</ele>
        <time>2019-07-10T10:08:12Z</time>
      </trkpt>
      <trkpt lat="43.97518" lon="4.20062">
        <ele>71.2</ele>
        <time>2019-07-10T10:08:17Z</time>
      </trkpt>
      <trkpt lat="43.97515" lon="4.20049">
        <ele>71.4</ele>
        <time>2019-07-10T10:08:19Z</time>
      </trkpt>
      <trkpt lat="43.97509" lon="4.2001">
        <ele>71.8</ele>
        <time>2019-07-10T10:08:25Z</time>
      </trkpt>
      <trkpt lat="43.97509" lon="4.20002">
        <ele>71.8</ele>
        <time>2019-07-10T10:08:26Z</time>
      </trkpt>
      <trkpt lat="43.97509" lon="4.19974">
        <ele>72</ele>
        <time>2019-07-10T10:08:30Z</time>
      </trkpt>
      <trkpt lat="43.97511" lon="4.19944">
        <ele>71.8</ele>
        <time>2019-07-10T10:08:34Z</time>
      </trkpt>
      <trkpt lat="43.97522" lon="4.19899">
        <ele>72.2</ele>
        <time>2019-07-10T10:08:41Z</time>
      </trkpt>
      <trkpt lat="43.97529" lon="4.19874">
        <ele>72.6</ele>
        <time>2019-07-10T10:08:45Z</time>
      </trkpt>
      <trkpt lat="43.97534" lon="4.19857">
        <ele>72.8</ele>
        <time>2019-07-10T10:08:48Z</time>
      </trkpt>
      <trkpt lat="43.97539" lon="4.19841">
        <ele>73.6</ele>
        <time>2019-07-10T10:08:51Z</time>
      </trkpt>
      <trkpt lat="43.9754" lon="4.19837">
        <ele>73.8</ele>
        <time>2019-07-10T10:08:52Z</time>
      </trkpt>
      <trkpt lat="43.97545" lon="4.19817">
        <ele>74.6</ele>
        <time>2019-07-10T10:08:56Z</time>
      </trkpt>
      <trkpt lat="43.97548" lon="4.19808">
        <ele>75</ele>
        <time>2019-07-10T10:08:58Z</time>
      </trkpt>
      <trkpt lat="43.97557" lon="4.19776">
        <ele>76</ele>
        <time>2019-07-10T10:09:05Z</time>
      </trkpt>
      <trkpt lat="43.97563" lon="4.19755">
        <ele>76.2</ele>
        <time>2019-07-10T10:09:09Z</time>
      </trkpt>
      <trkpt lat="43.97566" lon="4.19745">
        <ele>76.4</ele>
        <time>2019-07-10T10:09:11Z</time>
      </trkpt>
      <trkpt lat="43.97569" lon="4.19728">
        <ele>76.6</ele>
        <time>2019-07-10T10:09:14Z</time>
      </trkpt>
      <trkpt lat="43.97572" lon="4.19688">
        <ele>76.8</ele>
        <time>2019-07-10T10:09:21Z</time>
      </trkpt>
      <trkpt lat="43.9757" lon="4.19647">
        <ele>76.8</ele>
        <time>2019-07-10T10:09:28Z</time>
      </trkpt>
      <trkpt lat="43.97569" lon="4.19636">
        <ele>76.8</ele>
        <time>2019-07-10T10:09:30Z</time>
      </trkpt>
      <trkpt lat="43.97561" lon="4.19601">
        <ele>77.6</ele>
        <time>2019-07-10T10:09:37Z</time>
      </trkpt>
      <trkpt lat="43.97554" lon="4.19572">
        <ele>77.8</ele>
        <time>2019-07-10T10:09:43Z</time>
      </trkpt>
      <trkpt lat="43.97548" lon="4.19543">
        <ele>77.8</ele>
        <time>2019-07-10T10:09:49Z</time>
      </trkpt>
      <trkpt lat="43.97544" lon="4.19527">
        <ele>78.2</ele>
        <time>2019-07-10T10:09:52Z</time>
      </trkpt>
      <trkpt lat="43.97537" lon="4.19491">
        <ele>79.2</ele>
        <time>2019-07-10T10:09:59Z</time>
      </trkpt>
      <trkpt lat="43.97536" lon="4.19487">
        <ele>79.4</ele>
        <time>2019-07-10T10:10:00Z</time>
      </trkpt>
      <trkpt lat="43.97527" lon="4.19442">
        <ele>80.2</ele>
        <time>2019-07-10T10:10:09Z</time>
      </trkpt>
      <trkpt lat="43.97522" lon="4.19414">
        <ele>80.6</ele>
        <time>2019-07-10T10:10:15Z</time>
      </trkpt>
      <trkpt lat="43.97519" lon="4.19398">
        <ele>80.8</ele>
        <time>2019-07-10T10:10:19Z</time>
      </trkpt>
      <trkpt lat="43.97512" lon="4.19361">
        <ele>81.6</ele>
        <time>2019-07-10T10:10:25Z</time>
      </trkpt>
      <trkpt lat="43.97506" lon="4.19334">
        <ele>82</ele>
        <time>2019-07-10T10:10:30Z</time>
      </trkpt>
      <trkpt lat="43.97503" lon="4.19324">
        <ele>82.2</ele>
        <time>2019-07-10T10:10:32Z</time>
      </trkpt>
      <trkpt lat="43.97495" lon="4.19286">
        <ele>83</ele>
        <time>2019-07-10T10:10:39Z</time>
      </trkpt>
      <trkpt lat="43.97492" lon="4.19276">
        <ele>83.2</ele>
        <time>2019-07-10T10:10:41Z</time>
      </trkpt>
      <trkpt lat="43.97489" lon="4.19265">
        <ele>83.6</ele>
        <time>2019-07-10T10:10:43Z</time>
      </trkpt>
      <trkpt lat="43.9748" lon="4.1923">
        <ele>84.2</ele>
        <time>2019-07-10T10:10:49Z</time>
      </trkpt>
      <trkpt lat="43.97467" lon="4.19178">
        <ele>84.4</ele>
        <time>2019-07-10T10:10:57Z</time>
      </trkpt>
      <trkpt lat="43.9746" lon="4.19142">
        <ele>84.2</ele>
        <time>2019-07-10T10:11:02Z</time>
      </trkpt>
      <trkpt lat="43.97453" lon="4.19105">
        <ele>83.6</ele>
        <time>2019-07-10T10:11:07Z</time>
      </trkpt>
      <trkpt lat="43.9745" lon="4.19091">
        <ele>83.4</ele>
        <time>2019-07-10T10:11:09Z</time>
      </trkpt>
      <trkpt lat="43.97449" lon="4.19083">
        <ele>83.4</ele>
        <time>2019-07-10T10:11:10Z</time>
      </trkpt>
      <trkpt lat="43.97437" lon="4.19022">
        <ele>83.4</ele>
        <time>2019-07-10T10:11:18Z</time>
      </trkpt>
      <trkpt lat="43.97429" lon="4.18984">
        <ele>83.2</ele>
        <time>2019-07-10T10:11:23Z</time>
      </trkpt>
      <trkpt lat="43.97417" lon="4.18928">
        <ele>82.8</ele>
        <time>2019-07-10T10:11:30Z</time>
      </trkpt>
      <trkpt lat="43.97413" lon="4.18906">
        <ele>82.4</ele>
        <time>2019-07-10T10:11:33Z</time>
      </trkpt>
      <trkpt lat="43.97403" lon="4.18857">
        <ele>82</ele>
        <time>2019-07-10T10:11:40Z</time>
      </trkpt>
      <trkpt lat="43.97402" lon="4.18851">
        <ele>82</ele>
        <time>2019-07-10T10:11:41Z</time>
      </trkpt>
      <trkpt lat="43.97401" lon="4.18844">
        <ele>82</ele>
        <time>2019-07-10T10:11:42Z</time>
      </trkpt>
      <trkpt lat="43.9739" lon="4.18793">
        <ele>82.4</ele>
        <time>2019-07-10T10:11:50Z</time>
      </trkpt>
      <trkpt lat="43.97388" lon="4.18779">
        <ele>82.4</ele>
        <time>2019-07-10T10:11:52Z</time>
      </trkpt>
      <trkpt lat="43.97384" lon="4.18762">
        <ele>82.6</ele>
        <time>2019-07-10T10:11:55Z</time>
      </trkpt>
      <trkpt lat="43.97381" lon="4.18744">
        <ele>83</ele>
        <time>2019-07-10T10:11:58Z</time>
      </trkpt>
      <trkpt lat="43.9737" lon="4.18698">
        <ele>83.8</ele>
        <time>2019-07-10T10:12:06Z</time>
      </trkpt>
      <trkpt lat="43.97368" lon="4.18692">
        <ele>83.8</ele>
        <time>2019-07-10T10:12:07Z</time>
      </trkpt>
      <trkpt lat="43.97357" lon="4.18651">
        <ele>85</ele>
        <time>2019-07-10T10:12:15Z</time>
      </trkpt>
      <trkpt lat="43.97355" lon="4.18646">
        <ele>85.2</ele>
        <time>2019-07-10T10:12:16Z</time>
      </trkpt>
      <trkpt lat="43.97352" lon="4.18636">
        <ele>85.6</ele>
        <time>2019-07-10T10:12:18Z</time>
      </trkpt>
      <trkpt lat="43.97347" lon="4.18615">
        <ele>86.6</ele>
        <time>2019-07-10T10:12:22Z</time>
      </trkpt>
      <trkpt lat="43.97339" lon="4.1859">
        <ele>87</ele>
        <time>2019-07-10T10:12:27Z</time>
      </trkpt>
      <trkpt lat="43.97335" lon="4.18575">
        <ele>87.6</ele>
        <time>2019-07-10T10:12:30Z</time>
      </trkpt>
      <trkpt lat="43.97327" lon="4.18547">
        <ele>88.2</ele>
        <time>2019-07-10T10:12:35Z</time>
      </trkpt>
      <trkpt lat="43.97325" lon="4.18541">
        <ele>88.2</ele>
        <time>2019-07-10T10:12:36Z</time>
      </trkpt>
      <trkpt lat="43.97314" lon="4.18505">
        <ele>88.2</ele>
        <time>2019-07-10T10:12:41Z</time>
      </trkpt>
      <trkpt lat="43.97312" lon="4.18498">
        <ele>88</ele>
        <time>2019-07-10T10:12:42Z</time>
      </trkpt>
      <trkpt lat="43.9731" lon="4.18491">
        <ele>88</ele>
        <time>2019-07-10T10:12:43Z</time>
      </trkpt>
      <trkpt lat="43.97308" lon="4.18484">
        <ele>87.8</ele>
        <time>2019-07-10T10:12:44Z</time>
      </trkpt>
      <trkpt lat="43.97306" lon="4.18477">
        <ele>87.8</ele>
        <time>2019-07-10T10:12:45Z</time>
      </trkpt>
      <trkpt lat="43.97304" lon="4.1847">
        <ele>87.8</ele>
        <time>2019-07-10T10:12:46Z</time>
      </trkpt>
      <trkpt lat="43.97301" lon="4.18456">
        <ele>87.6</ele>
        <time>2019-07-10T10:12:48Z</time>
      </trkpt>
      <trkpt lat="43.97299" lon="4.1845">
        <ele>87.6</ele>
        <time>2019-07-10T10:12:49Z</time>
      </trkpt>
      <trkpt lat="43.97297" lon="4.18443">
        <ele>87.6</ele>
        <time>2019-07-10T10:12:50Z</time>
      </trkpt>
      <trkpt lat="43.97295" lon="4.18437">
        <ele>87.6</ele>
        <time>2019-07-10T10:12:51Z</time>
      </trkpt>
      <trkpt lat="43.97292" lon="4.18427">
        <ele>87.8</ele>
        <time>2019-07-10T10:12:53Z</time>
      </trkpt>
      <trkpt lat="43.9729" lon="4.18416">
        <ele>88</ele>
        <time>2019-07-10T10:12:55Z</time>
      </trkpt>
      <trkpt lat="43.97284" lon="4.18395">
        <ele>89</ele>
        <time>2019-07-10T10:13:00Z</time>
      </trkpt>
      <trkpt lat="43.97283" lon="4.18387">
        <ele>89.6</ele>
        <time>2019-07-10T10:13:02Z</time>
      </trkpt>
      <trkpt lat="43.97276" lon="4.18355">
        <ele>90.4</ele>
        <time>2019-07-10T10:13:09Z</time>
      </trkpt>
      <trkpt lat="43.97274" lon="4.18345">
        <ele>90.4</ele>
        <time>2019-07-10T10:13:11Z</time>
      </trkpt>
      <trkpt lat="43.97268" lon="4.18307">
        <ele>91.4</ele>
        <time>2019-07-10T10:13:18Z</time>
      </trkpt>
      <trkpt lat="43.97267" lon="4.18302">
        <ele>91.4</ele>
        <time>2019-07-10T10:13:19Z</time>
      </trkpt>
      <trkpt lat="43.97262" lon="4.18269">
        <ele>92.4</ele>
        <time>2019-07-10T10:13:25Z</time>
      </trkpt>
      <trkpt lat="43.97259" lon="4.18246">
        <ele>93</ele>
        <time>2019-07-10T10:13:29Z</time>
      </trkpt>
      <trkpt lat="43.9725" lon="4.18187">
        <ele>94.2</ele>
        <time>2019-07-10T10:13:40Z</time>
      </trkpt>
      <trkpt lat="43.97249" lon="4.18182">
        <ele>94.4</ele>
        <time>2019-07-10T10:13:41Z</time>
      </trkpt>
      <trkpt lat="43.97243" lon="4.18147">
        <ele>95.4</ele>
        <time>2019-07-10T10:13:49Z</time>
      </trkpt>
      <trkpt lat="43.97243" lon="4.18143">
        <ele>95.6</ele>
        <time>2019-07-10T10:13:50Z</time>
      </trkpt>
      <trkpt lat="43.97238" lon="4.1811">
        <ele>96.8</ele>
        <time>2019-07-10T10:13:57Z</time>
      </trkpt>
      <trkpt lat="43.97237" lon="4.181">
        <ele>96.8</ele>
        <time>2019-07-10T10:13:59Z</time>
      </trkpt>
      <trkpt lat="43.97232" lon="4.18067">
        <ele>97.4</ele>
        <time>2019-07-10T10:14:05Z</time>
      </trkpt>
      <trkpt lat="43.97225" lon="4.18021">
        <ele>98</ele>
        <time>2019-07-10T10:14:14Z</time>
      </trkpt>
      <trkpt lat="43.97221" lon="4.17993">
        <ele>98.6</ele>
        <time>2019-07-10T10:14:20Z</time>
      </trkpt>
      <trkpt lat="43.97221" lon="4.17989">
        <ele>98.8</ele>
        <time>2019-07-10T10:14:21Z</time>
      </trkpt>
      <trkpt lat="43.97217" lon="4.17965">
        <ele>99.8</ele>
        <time>2019-07-10T10:14:27Z</time>
      </trkpt>
      <trkpt lat="43.97216" lon="4.17959">
        <ele>100.2</ele>
        <time>2019-07-10T10:14:29Z</time>
      </trkpt>
      <trkpt lat="43.97214" lon="4.17948">
        <ele>100.4</ele>
        <time>2019-07-10T10:14:32Z</time>
      </trkpt>
      <trkpt lat="43.97213" lon="4.17941">
        <ele>100.6</ele>
        <time>2019-07-10T10:14:34Z</time>
      </trkpt>
      <trkpt lat="43.97212" lon="4.17934">
        <ele>101.2</ele>
        <time>2019-07-10T10:14:36Z</time>
      </trkpt>
      <trkpt lat="43.9721" lon="4.17917">
        <ele>102.6</ele>
        <time>2019-07-10T10:14:41Z</time>
      </trkpt>
      <trkpt lat="43.97205" lon="4.17886">
        <ele>103.6</ele>
        <time>2019-07-10T10:14:50Z</time>
      </trkpt>
      <trkpt lat="43.97203" lon="4.17872">
        <ele>103.8</ele>
        <time>2019-07-10T10:14:54Z</time>
      </trkpt>
      <trkpt lat="43.97202" lon="4.17866">
        <ele>104</ele>
        <time>2019-07-10T10:14:56Z</time>
      </trkpt>
      <trkpt lat="43.972" lon="4.17852">
        <ele>104.8</ele>
        <time>2019-07-10T10:15:00Z</time>
      </trkpt>
      <trkpt lat="43.97199" lon="4.17845">
        <ele>105.4</ele>
        <time>2019-07-10T10:15:02Z</time>
      </trkpt>
      <trkpt lat="43.97197" lon="4.17824">
        <ele>106.6</ele>
        <time>2019-07-10T10:15:08Z</time>
      </trkpt>
      <trkpt lat="43.97196" lon="4.1782">
        <ele>107</ele>
        <time>2019-07-10T10:15:09Z</time>
      </trkpt>
      <trkpt lat="43.97197" lon="4.17786">
        <ele>107.8</ele>
        <time>2019-07-10T10:15:17Z</time>
      </trkpt>
      <trkpt lat="43.972" lon="4.17771">
        <ele>107.8</ele>
        <time>2019-07-10T10:15:20Z</time>
      </trkpt>
      <trkpt lat="43.97201" lon="4.17766">
        <ele>108</ele>
        <time>2019-07-10T10:15:21Z</time>
      </trkpt>
      <trkpt lat="43.97203" lon="4.17761">
        <ele>108</ele>
        <time>2019-07-10T10:15:22Z</time>
      </trkpt>
      <trkpt lat="43.97208" lon="4.17751">
        <ele>108.2</ele>
        <time>2019-07-10T10:15:24Z</time>
      </trkpt>
      <trkpt lat="43.97214" lon="4.1774">
        <ele>108.2</ele>
        <time>2019-07-10T10:15:26Z</time>
      </trkpt>
      <trkpt lat="43.97217" lon="4.17735">
        <ele>108.4</ele>
        <time>2019-07-10T10:15:27Z</time>
      </trkpt>
      <trkpt lat="43.97224" lon="4.17724">
        <ele>108.4</ele>
        <time>2019-07-10T10:15:29Z</time>
      </trkpt>
      <trkpt lat="43.97245" lon="4.17694">
        <ele>108.2</ele>
        <time>2019-07-10T10:15:34Z</time>
      </trkpt>
      <trkpt lat="43.97257" lon="4.17674">
        <ele>107.4</ele>
        <time>2019-07-10T10:15:37Z</time>
      </trkpt>
      <trkpt lat="43.97271" lon="4.17646">
        <ele>106.6</ele>
        <time>2019-07-10T10:15:41Z</time>
      </trkpt>
      <trkpt lat="43.97289" lon="4.17606">
        <ele>105.4</ele>
        <time>2019-07-10T10:15:47Z</time>
      </trkpt>
      <trkpt lat="43.97304" lon="4.17575">
        <ele>105</ele>
        <time>2019-07-10T10:15:52Z</time>
      </trkpt>
      <trkpt lat="43.97307" lon="4.17569">
        <ele>105</ele>
        <time>2019-07-10T10:15:53Z</time>
      </trkpt>
      <trkpt lat="43.9731" lon="4.17563">
        <ele>105</ele>
        <time>2019-07-10T10:15:54Z</time>
      </trkpt>
      <trkpt lat="43.97316" lon="4.17552">
        <ele>105</ele>
        <time>2019-07-10T10:15:56Z</time>
      </trkpt>
      <trkpt lat="43.97335" lon="4.17525">
        <ele>104.6</ele>
        <time>2019-07-10T10:16:01Z</time>
      </trkpt>
      <trkpt lat="43.97338" lon="4.17518">
        <ele>104.6</ele>
        <time>2019-07-10T10:16:02Z</time>
      </trkpt>
      <trkpt lat="43.97341" lon="4.17512">
        <ele>104.4</ele>
        <time>2019-07-10T10:16:03Z</time>
      </trkpt>
      <trkpt lat="43.97345" lon="4.17506">
        <ele>104.4</ele>
        <time>2019-07-10T10:16:04Z</time>
      </trkpt>
      <trkpt lat="43.97351" lon="4.17494">
        <ele>104.2</ele>
        <time>2019-07-10T10:16:06Z</time>
      </trkpt>
      <trkpt lat="43.97359" lon="4.17477">
        <ele>104</ele>
        <time>2019-07-10T10:16:09Z</time>
      </trkpt>
      <trkpt lat="43.97377" lon="4.17435">
        <ele>103.8</ele>
        <time>2019-07-10T10:16:16Z</time>
      </trkpt>
      <trkpt lat="43.9738" lon="4.17428">
        <ele>103.6</ele>
        <time>2019-07-10T10:16:17Z</time>
      </trkpt>
      <trkpt lat="43.97385" lon="4.17415">
        <ele>103.6</ele>
        <time>2019-07-10T10:16:19Z</time>
      </trkpt>
      <trkpt lat="43.97394" lon="4.17389">
        <ele>103.6</ele>
        <time>2019-07-10T10:16:23Z</time>
      </trkpt>
      <trkpt lat="43.97401" lon="4.1737">
        <ele>103.6</ele>
        <time>2019-07-10T10:16:26Z</time>
      </trkpt>
      <trkpt lat="43.97409" lon="4.17346">
        <ele>104</ele>
        <time>2019-07-10T10:16:30Z</time>
      </trkpt>
      <trkpt lat="43.97413" lon="4.17326">
        <ele>104</ele>
        <time>2019-07-10T10:16:33Z</time>
      </trkpt>
      <trkpt lat="43.97414" lon="4.17319">
        <ele>103.8</ele>
        <time>2019-07-10T10:16:34Z</time>
      </trkpt>
      <trkpt lat="43.97414" lon="4.17312">
        <ele>104</ele>
        <time>2019-07-10T10:16:35Z</time>
      </trkpt>
      <trkpt lat="43.97417" lon="4.17274">
        <ele>103.6</ele>
        <time>2019-07-10T10:16:40Z</time>
      </trkpt>
      <trkpt lat="43.97422" lon="4.17208">
        <ele>103</ele>
        <time>2019-07-10T10:16:49Z</time>
      </trkpt>
      <trkpt lat="43.97426" lon="4.17148">
        <ele>102.4</ele>
        <time>2019-07-10T10:16:58Z</time>
      </trkpt>
      <trkpt lat="43.97427" lon="4.17123">
        <ele>102.2</ele>
        <time>2019-07-10T10:17:02Z</time>
      </trkpt>
      <trkpt lat="43.9743" lon="4.17089">
        <ele>102</ele>
        <time>2019-07-10T10:17:08Z</time>
      </trkpt>
      <trkpt lat="43.97431" lon="4.17067">
        <ele>102.2</ele>
        <time>2019-07-10T10:17:12Z</time>
      </trkpt>
      <trkpt lat="43.97432" lon="4.17051">
        <ele>102.4</ele>
        <time>2019-07-10T10:17:15Z</time>
      </trkpt>
      <trkpt lat="43.97432" lon="4.17045">
        <ele>102.4</ele>
        <time>2019-07-10T10:17:16Z</time>
      </trkpt>
      <trkpt lat="43.97436" lon="4.16988">
        <ele>103</ele>
        <time>2019-07-10T10:17:26Z</time>
      </trkpt>
      <trkpt lat="43.97438" lon="4.16966">
        <ele>103.4</ele>
        <time>2019-07-10T10:17:30Z</time>
      </trkpt>
      <trkpt lat="43.97441" lon="4.1693">
        <ele>104</ele>
        <time>2019-07-10T10:17:36Z</time>
      </trkpt>
      <trkpt lat="43.97445" lon="4.16869">
        <ele>104.2</ele>
        <time>2019-07-10T10:17:46Z</time>
      </trkpt>
      <trkpt lat="43.97449" lon="4.16821">
        <ele>104.8</ele>
        <time>2019-07-10T10:17:54Z</time>
      </trkpt>
      <trkpt lat="43.97449" lon="4.16815">
        <ele>104.8</ele>
        <time>2019-07-10T10:17:55Z</time>
      </trkpt>
      <trkpt lat="43.97451" lon="4.1679">
        <ele>105.2</ele>
        <time>2019-07-10T10:17:59Z</time>
      </trkpt>
      <trkpt lat="43.97453" lon="4.16762">
        <ele>105.2</ele>
        <time>2019-07-10T10:18:04Z</time>
      </trkpt>
      <trkpt lat="43.97455" lon="4.16731">
        <ele>105.8</ele>
        <time>2019-07-10T10:18:10Z</time>
      </trkpt>
      <trkpt lat="43.97456" lon="4.1672">
        <ele>106</ele>
        <time>2019-07-10T10:18:12Z</time>
      </trkpt>
      <trkpt lat="43.97459" lon="4.16679">
        <ele>107</ele>
        <time>2019-07-10T10:18:20Z</time>
      </trkpt>
      <trkpt lat="43.97459" lon="4.16674">
        <ele>107.2</ele>
        <time>2019-07-10T10:18:21Z</time>
      </trkpt>
      <trkpt lat="43.97462" lon="4.16634">
        <ele>108.2</ele>
        <time>2019-07-10T10:18:29Z</time>
      </trkpt>
      <trkpt lat="43.97462" lon="4.16629">
        <ele>108.2</ele>
        <time>2019-07-10T10:18:30Z</time>
      </trkpt>
      <trkpt lat="43.97465" lon="4.16596">
        <ele>108.8</ele>
        <time>2019-07-10T10:18:36Z</time>
      </trkpt>
      <trkpt lat="43.97468" lon="4.1655">
        <ele>109.2</ele>
        <time>2019-07-10T10:18:44Z</time>
      </trkpt>
      <trkpt lat="43.97469" lon="4.16539">
        <ele>109.4</ele>
        <time>2019-07-10T10:18:46Z</time>
      </trkpt>
      <trkpt lat="43.9747" lon="4.16517">
        <ele>109.6</ele>
        <time>2019-07-10T10:18:50Z</time>
      </trkpt>
      <trkpt lat="43.97471" lon="4.16496">
        <ele>110</ele>
        <time>2019-07-10T10:18:54Z</time>
      </trkpt>
      <trkpt lat="43.97471" lon="4.16486">
        <ele>110.4</ele>
        <time>2019-07-10T10:18:56Z</time>
      </trkpt>
      <trkpt lat="43.9747" lon="4.16451">
        <ele>111</ele>
        <time>2019-07-10T10:19:03Z</time>
      </trkpt>
      <trkpt lat="43.97468" lon="4.16432">
        <ele>111</ele>
        <time>2019-07-10T10:19:07Z</time>
      </trkpt>
      <trkpt lat="43.97465" lon="4.16413">
        <ele>111.6</ele>
        <time>2019-07-10T10:19:11Z</time>
      </trkpt>
      <trkpt lat="43.97465" lon="4.16409">
        <ele>111.6</ele>
        <time>2019-07-10T10:19:12Z</time>
      </trkpt>
      <trkpt lat="43.97464" lon="4.16404">
        <ele>111.8</ele>
        <time>2019-07-10T10:19:13Z</time>
      </trkpt>
      <trkpt lat="43.97455" lon="4.16364">
        <ele>112.4</ele>
        <time>2019-07-10T10:19:21Z</time>
      </trkpt>
      <trkpt lat="43.97451" lon="4.16342">
        <ele>112.8</ele>
        <time>2019-07-10T10:19:25Z</time>
      </trkpt>
      <trkpt lat="43.97445" lon="4.16312">
        <ele>113.2</ele>
        <time>2019-07-10T10:19:30Z</time>
      </trkpt>
      <trkpt lat="43.97436" lon="4.1626">
        <ele>113.4</ele>
        <time>2019-07-10T10:19:38Z</time>
      </trkpt>
      <trkpt lat="43.97435" lon="4.16253">
        <ele>113.4</ele>
        <time>2019-07-10T10:19:39Z</time>
      </trkpt>
      <trkpt lat="43.97431" lon="4.16219">
        <ele>113.6</ele>
        <time>2019-07-10T10:19:44Z</time>
      </trkpt>
      <trkpt lat="43.9743" lon="4.16191">
        <ele>113.6</ele>
        <time>2019-07-10T10:19:48Z</time>
      </trkpt>
      <trkpt lat="43.97429" lon="4.16177">
        <ele>113.6</ele>
        <time>2019-07-10T10:19:50Z</time>
      </trkpt>
      <trkpt lat="43.97428" lon="4.16154">
        <ele>113.4</ele>
        <time>2019-07-10T10:19:53Z</time>
      </trkpt>
      <trkpt lat="43.97424" lon="4.1613">
        <ele>113.4</ele>
        <time>2019-07-10T10:19:56Z</time>
      </trkpt>
      <trkpt lat="43.97412" lon="4.16081">
        <ele>112.8</ele>
        <time>2019-07-10T10:20:02Z</time>
      </trkpt>
      <trkpt lat="43.9741" lon="4.16073">
        <ele>112.6</ele>
        <time>2019-07-10T10:20:03Z</time>
      </trkpt>
      <trkpt lat="43.97394" lon="4.16001">
        <ele>111.8</ele>
        <time>2019-07-10T10:20:12Z</time>
      </trkpt>
      <trkpt lat="43.97389" lon="4.15978">
        <ele>111.6</ele>
        <time>2019-07-10T10:20:15Z</time>
      </trkpt>
      <trkpt lat="43.97374" lon="4.1592">
        <ele>112</ele>
        <time>2019-07-10T10:20:23Z</time>
      </trkpt>
      <trkpt lat="43.97368" lon="4.15899">
        <ele>112</ele>
        <time>2019-07-10T10:20:26Z</time>
      </trkpt>
      <trkpt lat="43.97359" lon="4.15869">
        <ele>112.4</ele>
        <time>2019-07-10T10:20:31Z</time>
      </trkpt>
      <trkpt lat="43.97343" lon="4.15819">
        <ele>112.8</ele>
        <time>2019-07-10T10:20:39Z</time>
      </trkpt>
      <trkpt lat="43.97327" lon="4.15772">
        <ele>112.8</ele>
        <time>2019-07-10T10:20:46Z</time>
      </trkpt>
      <trkpt lat="43.97305" lon="4.15726">
        <ele>112.2</ele>
        <time>2019-07-10T10:20:53Z</time>
      </trkpt>
      <trkpt lat="43.9728" lon="4.15675">
        <ele>112.2</ele>
        <time>2019-07-10T10:21:01Z</time>
      </trkpt>
      <trkpt lat="43.97253" lon="4.1562">
        <ele>112.4</ele>
        <time>2019-07-10T10:21:10Z</time>
      </trkpt>
      <trkpt lat="43.97234" lon="4.15566">
        <ele>112.6</ele>
        <time>2019-07-10T10:21:18Z</time>
      </trkpt>
      <trkpt lat="43.9722" lon="4.15496">
        <ele>113</ele>
        <time>2019-07-10T10:21:28Z</time>
      </trkpt>
      <trkpt lat="43.97218" lon="4.15489">
        <ele>113</ele>
        <time>2019-07-10T10:21:29Z</time>
      </trkpt>
      <trkpt lat="43.97206" lon="4.15415">
        <ele>113.4</ele>
        <time>2019-07-10T10:21:39Z</time>
      </trkpt>
      <trkpt lat="43.97205" lon="4.15408">
        <ele>113.4</ele>
        <time>2019-07-10T10:21:40Z</time>
      </trkpt>
      <trkpt lat="43.97203" lon="4.154">
        <ele>113.4</ele>
        <time>2019-07-10T10:21:41Z</time>
      </trkpt>
      <trkpt lat="43.97195" lon="4.15348">
        <ele>113.4</ele>
        <time>2019-07-10T10:21:48Z</time>
      </trkpt>
      <trkpt lat="43.97191" lon="4.15324">
        <ele>113.2</ele>
        <time>2019-07-10T10:21:51Z</time>
      </trkpt>
      <trkpt lat="43.97187" lon="4.15289">
        <ele>113</ele>
        <time>2019-07-10T10:21:55Z</time>
      </trkpt>
      <trkpt lat="43.97185" lon="4.1524">
        <ele>113</ele>
        <time>2019-07-10T10:22:00Z</time>
      </trkpt>
      <trkpt lat="43.97185" lon="4.15229">
        <ele>112.8</ele>
        <time>2019-07-10T10:22:01Z</time>
      </trkpt>
      <trkpt lat="43.97186" lon="4.15217">
        <ele>112.8</ele>
        <time>2019-07-10T10:22:02Z</time>
      </trkpt>
      <trkpt lat="43.97187" lon="4.15168">
        <ele>111.4</ele>
        <time>2019-07-10T10:22:06Z</time>
      </trkpt>
      <trkpt lat="43.97178" lon="4.15118">
        <ele>110.2</ele>
        <time>2019-07-10T10:22:10Z</time>
      </trkpt>
      <trkpt lat="43.9717" lon="4.15093">
        <ele>109.2</ele>
        <time>2019-07-10T10:22:12Z</time>
      </trkpt>
      <trkpt lat="43.97166" lon="4.1508">
        <ele>108.4</ele>
        <time>2019-07-10T10:22:13Z</time>
      </trkpt>
      <trkpt lat="43.97157" lon="4.15054">
        <ele>107.4</ele>
        <time>2019-07-10T10:22:15Z</time>
      </trkpt>
      <trkpt lat="43.97131" lon="4.14977">
        <ele>104.4</ele>
        <time>2019-07-10T10:22:21Z</time>
      </trkpt>
      <trkpt lat="43.97119" lon="4.14943">
        <ele>103.6</ele>
        <time>2019-07-10T10:22:24Z</time>
      </trkpt>
      <trkpt lat="43.97112" lon="4.14921">
        <ele>103.4</ele>
        <time>2019-07-10T10:22:26Z</time>
      </trkpt>
      <trkpt lat="43.97098" lon="4.14883">
        <ele>103</ele>
        <time>2019-07-10T10:22:30Z</time>
      </trkpt>
      <trkpt lat="43.97092" lon="4.14866">
        <ele>102.8</ele>
        <time>2019-07-10T10:22:32Z</time>
      </trkpt>
      <trkpt lat="43.97077" lon="4.14827">
        <ele>101.8</ele>
        <time>2019-07-10T10:22:37Z</time>
      </trkpt>
      <trkpt lat="43.97057" lon="4.14766">
        <ele>101.6</ele>
        <time>2019-07-10T10:22:45Z</time>
      </trkpt>
      <trkpt lat="43.97047" lon="4.14737">
        <ele>101.6</ele>
        <time>2019-07-10T10:22:49Z</time>
      </trkpt>
      <trkpt lat="43.97041" lon="4.14718">
        <ele>102.4</ele>
        <time>2019-07-10T10:22:52Z</time>
      </trkpt>
      <trkpt lat="43.97033" lon="4.14695">
        <ele>102.6</ele>
        <time>2019-07-10T10:22:56Z</time>
      </trkpt>
      <trkpt lat="43.97027" lon="4.14679">
        <ele>103</ele>
        <time>2019-07-10T10:22:59Z</time>
      </trkpt>
      <trkpt lat="43.97016" lon="4.14648">
        <ele>103.8</ele>
        <time>2019-07-10T10:23:05Z</time>
      </trkpt>
      <trkpt lat="43.97015" lon="4.14644">
        <ele>104</ele>
        <time>2019-07-10T10:23:06Z</time>
      </trkpt>
      <trkpt lat="43.97013" lon="4.14639">
        <ele>104.2</ele>
        <time>2019-07-10T10:23:07Z</time>
      </trkpt>
      <trkpt lat="43.97004" lon="4.14613">
        <ele>105</ele>
        <time>2019-07-10T10:23:13Z</time>
      </trkpt>
      <trkpt lat="43.96995" lon="4.14586">
        <ele>106</ele>
        <time>2019-07-10T10:23:19Z</time>
      </trkpt>
      <trkpt lat="43.96989" lon="4.1457">
        <ele>106.4</ele>
        <time>2019-07-10T10:23:23Z</time>
      </trkpt>
      <trkpt lat="43.96988" lon="4.14566">
        <ele>106.4</ele>
        <time>2019-07-10T10:23:24Z</time>
      </trkpt>
      <trkpt lat="43.96981" lon="4.14547">
        <ele>107.4</ele>
        <time>2019-07-10T10:23:29Z</time>
      </trkpt>
      <trkpt lat="43.96977" lon="4.14535">
        <ele>107.8</ele>
        <time>2019-07-10T10:23:32Z</time>
      </trkpt>
      <trkpt lat="43.96969" lon="4.14511">
        <ele>109.4</ele>
        <time>2019-07-10T10:23:39Z</time>
      </trkpt>
      <trkpt lat="43.96967" lon="4.14504">
        <ele>109.4</ele>
        <time>2019-07-10T10:23:41Z</time>
      </trkpt>
      <trkpt lat="43.96963" lon="4.14479">
        <ele>110.2</ele>
        <time>2019-07-10T10:23:47Z</time>
      </trkpt>
      <trkpt lat="43.96961" lon="4.1447">
        <ele>110.6</ele>
        <time>2019-07-10T10:23:49Z</time>
      </trkpt>
      <trkpt lat="43.96962" lon="4.14438">
        <ele>111.4</ele>
        <time>2019-07-10T10:23:56Z</time>
      </trkpt>
      <trkpt lat="43.96963" lon="4.14398">
        <ele>111.8</ele>
        <time>2019-07-10T10:24:02Z</time>
      </trkpt>
      <trkpt lat="43.96964" lon="4.14367">
        <ele>112</ele>
        <time>2019-07-10T10:24:06Z</time>
      </trkpt>
      <trkpt lat="43.96966" lon="4.14341">
        <ele>111.4</ele>
        <time>2019-07-10T10:24:09Z</time>
      </trkpt>
      <trkpt lat="43.96966" lon="4.14332">
        <ele>111.2</ele>
        <time>2019-07-10T10:24:10Z</time>
      </trkpt>
      <trkpt lat="43.96965" lon="4.14322">
        <ele>111.2</ele>
        <time>2019-07-10T10:24:11Z</time>
      </trkpt>
      <trkpt lat="43.96964" lon="4.14303">
        <ele>110.4</ele>
        <time>2019-07-10T10:24:13Z</time>
      </trkpt>
      <trkpt lat="43.96961" lon="4.14281">
        <ele>109.8</ele>
        <time>2019-07-10T10:24:15Z</time>
      </trkpt>
      <trkpt lat="43.96956" lon="4.14259">
        <ele>109.6</ele>
        <time>2019-07-10T10:24:17Z</time>
      </trkpt>
      <trkpt lat="43.96949" lon="4.14223">
        <ele>108.6</ele>
        <time>2019-07-10T10:24:20Z</time>
      </trkpt>
      <trkpt lat="43.96947" lon="4.14211">
        <ele>108.2</ele>
        <time>2019-07-10T10:24:21Z</time>
      </trkpt>
      <trkpt lat="43.96944" lon="4.14198">
        <ele>108</ele>
        <time>2019-07-10T10:24:22Z</time>
      </trkpt>
      <trkpt lat="43.9693" lon="4.1413">
        <ele>105.6</ele>
        <time>2019-07-10T10:24:27Z</time>
      </trkpt>
      <trkpt lat="43.96927" lon="4.14116">
        <ele>105</ele>
        <time>2019-07-10T10:24:28Z</time>
      </trkpt>
      <trkpt lat="43.96924" lon="4.14102">
        <ele>105</ele>
        <time>2019-07-10T10:24:29Z</time>
      </trkpt>
      <trkpt lat="43.96911" lon="4.14041">
        <ele>103</ele>
        <time>2019-07-10T10:24:33Z</time>
      </trkpt>
      <trkpt lat="43.96906" lon="4.14011">
        <ele>101</ele>
        <time>2019-07-10T10:24:35Z</time>
      </trkpt>
      <trkpt lat="43.969" lon="4.13984">
        <ele>100</ele>
        <time>2019-07-10T10:24:37Z</time>
      </trkpt>
      <trkpt lat="43.96892" lon="4.13949">
        <ele>98.6</ele>
        <time>2019-07-10T10:24:40Z</time>
      </trkpt>
      <trkpt lat="43.96886" lon="4.13928">
        <ele>98.2</ele>
        <time>2019-07-10T10:24:42Z</time>
      </trkpt>
      <trkpt lat="43.96875" lon="4.13901">
        <ele>97.6</ele>
        <time>2019-07-10T10:24:45Z</time>
      </trkpt>
      <trkpt lat="43.96867" lon="4.13885">
        <ele>97.2</ele>
        <time>2019-07-10T10:24:47Z</time>
      </trkpt>
      <trkpt lat="43.96854" lon="4.13865">
        <ele>96.8</ele>
        <time>2019-07-10T10:24:50Z</time>
      </trkpt>
      <trkpt lat="43.96823" lon="4.13828">
        <ele>96.2</ele>
        <time>2019-07-10T10:24:57Z</time>
      </trkpt>
      <trkpt lat="43.96782" lon="4.13783">
        <ele>95.8</ele>
        <time>2019-07-10T10:25:06Z</time>
      </trkpt>
      <trkpt lat="43.96738" lon="4.13736">
        <ele>95.8</ele>
        <time>2019-07-10T10:25:16Z</time>
      </trkpt>
      <trkpt lat="43.96734" lon="4.13732">
        <ele>95.8</ele>
        <time>2019-07-10T10:25:17Z</time>
      </trkpt>
      <trkpt lat="43.96705" lon="4.13696">
        <ele>96.6</ele>
        <time>2019-07-10T10:25:25Z</time>
      </trkpt>
      <trkpt lat="43.96702" lon="4.13691">
        <ele>96.6</ele>
        <time>2019-07-10T10:25:26Z</time>
      </trkpt>
      <trkpt lat="43.9668" lon="4.13653">
        <ele>97.6</ele>
        <time>2019-07-10T10:25:34Z</time>
      </trkpt>
      <trkpt lat="43.96677" lon="4.13648">
        <ele>97.6</ele>
        <time>2019-07-10T10:25:35Z</time>
      </trkpt>
      <trkpt lat="43.96656" lon="4.13608">
        <ele>98.2</ele>
        <time>2019-07-10T10:25:43Z</time>
      </trkpt>
      <trkpt lat="43.9663" lon="4.1356">
        <ele>98.6</ele>
        <time>2019-07-10T10:25:52Z</time>
      </trkpt>
      <trkpt lat="43.96625" lon="4.13548">
        <ele>98.8</ele>
        <time>2019-07-10T10:25:54Z</time>
      </trkpt>
      <trkpt lat="43.96622" lon="4.13534">
        <ele>98.8</ele>
        <time>2019-07-10T10:25:56Z</time>
      </trkpt>
      <trkpt lat="43.96619" lon="4.1352">
        <ele>99</ele>
        <time>2019-07-10T10:25:58Z</time>
      </trkpt>
      <trkpt lat="43.96617" lon="4.13498">
        <ele>99.2</ele>
        <time>2019-07-10T10:26:01Z</time>
      </trkpt>
      <trkpt lat="43.96616" lon="4.1347">
        <ele>99.4</ele>
        <time>2019-07-10T10:26:05Z</time>
      </trkpt>
      <trkpt lat="43.96616" lon="4.13432">
        <ele>99.8</ele>
        <time>2019-07-10T10:26:11Z</time>
      </trkpt>
      <trkpt lat="43.96615" lon="4.13421">
        <ele>99.8</ele>
        <time>2019-07-10T10:26:13Z</time>
      </trkpt>
      <trkpt lat="43.96612" lon="4.13404">
        <ele>100</ele>
        <time>2019-07-10T10:26:16Z</time>
      </trkpt>
      <trkpt lat="43.96611" lon="4.13398">
        <ele>100</ele>
        <time>2019-07-10T10:26:17Z</time>
      </trkpt>
      <trkpt lat="43.96608" lon="4.13388">
        <ele>100.2</ele>
        <time>2019-07-10T10:26:19Z</time>
      </trkpt>
      <trkpt lat="43.96595" lon="4.13357">
        <ele>101</ele>
        <time>2019-07-10T10:26:26Z</time>
      </trkpt>
      <trkpt lat="43.96593" lon="4.13353">
        <ele>101.2</ele>
        <time>2019-07-10T10:26:27Z</time>
      </trkpt>
      <trkpt lat="43.96581" lon="4.13334">
        <ele>101.8</ele>
        <time>2019-07-10T10:26:32Z</time>
      </trkpt>
      <trkpt lat="43.96578" lon="4.13331">
        <ele>102</ele>
        <time>2019-07-10T10:26:33Z</time>
      </trkpt>
      <trkpt lat="43.9656" lon="4.13311">
        <ele>102.8</ele>
        <time>2019-07-10T10:26:40Z</time>
      </trkpt>
      <trkpt lat="43.96557" lon="4.13308">
        <ele>103.2</ele>
        <time>2019-07-10T10:26:41Z</time>
      </trkpt>
      <trkpt lat="43.96532" lon="4.13286">
        <ele>104.2</ele>
        <time>2019-07-10T10:26:50Z</time>
      </trkpt>
      <trkpt lat="43.9651" lon="4.13265">
        <ele>105.4</ele>
        <time>2019-07-10T10:26:58Z</time>
      </trkpt>
      <trkpt lat="43.96504" lon="4.1326">
        <ele>105.6</ele>
        <time>2019-07-10T10:27:00Z</time>
      </trkpt>
      <trkpt lat="43.96479" lon="4.13237">
        <ele>106.6</ele>
        <time>2019-07-10T10:27:09Z</time>
      </trkpt>
      <trkpt lat="43.96474" lon="4.13232">
        <ele>106.8</ele>
        <time>2019-07-10T10:27:11Z</time>
      </trkpt>
      <trkpt lat="43.96455" lon="4.13215">
        <ele>107.8</ele>
        <time>2019-07-10T10:27:18Z</time>
      </trkpt>
      <trkpt lat="43.96434" lon="4.13196">
        <ele>109.2</ele>
        <time>2019-07-10T10:27:26Z</time>
      </trkpt>
      <trkpt lat="43.96423" lon="4.13185">
        <ele>109.8</ele>
        <time>2019-07-10T10:27:30Z</time>
      </trkpt>
      <trkpt lat="43.96412" lon="4.13172">
        <ele>110.2</ele>
        <time>2019-07-10T10:27:34Z</time>
      </trkpt>
      <trkpt lat="43.96409" lon="4.13168">
        <ele>110.4</ele>
        <time>2019-07-10T10:27:35Z</time>
      </trkpt>
      <trkpt lat="43.96395" lon="4.13139">
        <ele>111.4</ele>
        <time>2019-07-10T10:27:42Z</time>
      </trkpt>
      <trkpt lat="43.96394" lon="4.13135">
        <ele>111.6</ele>
        <time>2019-07-10T10:27:43Z</time>
      </trkpt>
      <trkpt lat="43.96393" lon="4.13131">
        <ele>111.4</ele>
        <time>2019-07-10T10:27:44Z</time>
      </trkpt>
      <trkpt lat="43.96391" lon="4.13127">
        <ele>111.6</ele>
        <time>2019-07-10T10:27:45Z</time>
      </trkpt>
      <trkpt lat="43.96389" lon="4.13118">
        <ele>111.8</ele>
        <time>2019-07-10T10:27:47Z</time>
      </trkpt>
      <trkpt lat="43.96385" lon="4.13105">
        <ele>112.4</ele>
        <time>2019-07-10T10:27:50Z</time>
      </trkpt>
      <trkpt lat="43.96384" lon="4.13101">
        <ele>112.8</ele>
        <time>2019-07-10T10:27:51Z</time>
      </trkpt>
      <trkpt lat="43.9638" lon="4.13077">
        <ele>113.8</ele>
        <time>2019-07-10T10:27:57Z</time>
      </trkpt>
      <trkpt lat="43.9638" lon="4.13069">
        <ele>114.4</ele>
        <time>2019-07-10T10:27:59Z</time>
      </trkpt>
      <trkpt lat="43.96381" lon="4.13053">
        <ele>114.8</ele>
        <time>2019-07-10T10:28:03Z</time>
      </trkpt>
      <trkpt lat="43.96379" lon="4.13046">
        <ele>114.8</ele>
        <time>2019-07-10T10:28:05Z</time>
      </trkpt>
      <trkpt lat="43.96373" lon="4.13018">
        <ele>114.8</ele>
        <time>2019-07-10T10:28:10Z</time>
      </trkpt>
      <trkpt lat="43.96373" lon="4.13011">
        <ele>114.8</ele>
        <time>2019-07-10T10:28:11Z</time>
      </trkpt>
      <trkpt lat="43.96373" lon="4.13004">
        <ele>114.6</ele>
        <time>2019-07-10T10:28:12Z</time>
      </trkpt>
      <trkpt lat="43.96374" lon="4.12987">
        <ele>114.6</ele>
        <time>2019-07-10T10:28:14Z</time>
      </trkpt>
      <trkpt lat="43.96376" lon="4.12967">
        <ele>114.2</ele>
        <time>2019-07-10T10:28:16Z</time>
      </trkpt>
      <trkpt lat="43.9638" lon="4.12935">
        <ele>113.4</ele>
        <time>2019-07-10T10:28:19Z</time>
      </trkpt>
      <trkpt lat="43.96392" lon="4.12875">
        <ele>111.6</ele>
        <time>2019-07-10T10:28:25Z</time>
      </trkpt>
      <trkpt lat="43.96397" lon="4.12856">
        <ele>111.2</ele>
        <time>2019-07-10T10:28:27Z</time>
      </trkpt>
      <trkpt lat="43.96409" lon="4.12803">
        <ele>110</ele>
        <time>2019-07-10T10:28:33Z</time>
      </trkpt>
      <trkpt lat="43.96421" lon="4.12752">
        <ele>110</ele>
        <time>2019-07-10T10:28:40Z</time>
      </trkpt>
      <trkpt lat="43.96424" lon="4.1274">
        <ele>110.2</ele>
        <time>2019-07-10T10:28:42Z</time>
      </trkpt>
      <trkpt lat="43.96431" lon="4.1271">
        <ele>111</ele>
        <time>2019-07-10T10:28:47Z</time>
      </trkpt>
      <trkpt lat="43.96436" lon="4.12688">
        <ele>111.2</ele>
        <time>2019-07-10T10:28:51Z</time>
      </trkpt>
      <trkpt lat="43.96441" lon="4.12661">
        <ele>111.8</ele>
        <time>2019-07-10T10:28:56Z</time>
      </trkpt>
      <trkpt lat="43.96443" lon="4.1265">
        <ele>112.2</ele>
        <time>2019-07-10T10:28:58Z</time>
      </trkpt>
      <trkpt lat="43.96446" lon="4.12633">
        <ele>112.4</ele>
        <time>2019-07-10T10:29:01Z</time>
      </trkpt>
      <trkpt lat="43.96446" lon="4.12622">
        <ele>112.6</ele>
        <time>2019-07-10T10:29:03Z</time>
      </trkpt>
      <trkpt lat="43.96446" lon="4.12616">
        <ele>112.8</ele>
        <time>2019-07-10T10:29:04Z</time>
      </trkpt>
      <trkpt lat="43.96446" lon="4.1261">
        <ele>113</ele>
        <time>2019-07-10T10:29:05Z</time>
      </trkpt>
      <trkpt lat="43.96446" lon="4.12599">
        <ele>113.2</ele>
        <time>2019-07-10T10:29:07Z</time>
      </trkpt>
      <trkpt lat="43.96445" lon="4.12584">
        <ele>113.6</ele>
        <time>2019-07-10T10:29:10Z</time>
      </trkpt>
      <trkpt lat="43.96442" lon="4.12553">
        <ele>114.2</ele>
        <time>2019-07-10T10:29:16Z</time>
      </trkpt>
      <trkpt lat="43.9644" lon="4.12543">
        <ele>114.4</ele>
        <time>2019-07-10T10:29:18Z</time>
      </trkpt>
      <trkpt lat="43.96437" lon="4.12528">
        <ele>114.6</ele>
        <time>2019-07-10T10:29:21Z</time>
      </trkpt>
      <trkpt lat="43.96432" lon="4.12509">
        <ele>115.4</ele>
        <time>2019-07-10T10:29:25Z</time>
      </trkpt>
      <trkpt lat="43.96427" lon="4.12489">
        <ele>116</ele>
        <time>2019-07-10T10:29:29Z</time>
      </trkpt>
      <trkpt lat="43.96421" lon="4.12466">
        <ele>116.8</ele>
        <time>2019-07-10T10:29:33Z</time>
      </trkpt>
      <trkpt lat="43.96412" lon="4.12423">
        <ele>117.4</ele>
        <time>2019-07-10T10:29:40Z</time>
      </trkpt>
      <trkpt lat="43.96403" lon="4.12372">
        <ele>117.4</ele>
        <time>2019-07-10T10:29:49Z</time>
      </trkpt>
      <trkpt lat="43.96396" lon="4.12329">
        <ele>118.6</ele>
        <time>2019-07-10T10:29:58Z</time>
      </trkpt>
      <trkpt lat="43.96392" lon="4.12308">
        <ele>118.8</ele>
        <time>2019-07-10T10:30:02Z</time>
      </trkpt>
      <trkpt lat="43.9639" lon="4.12292">
        <ele>119</ele>
        <time>2019-07-10T10:30:05Z</time>
      </trkpt>
      <trkpt lat="43.96382" lon="4.12242">
        <ele>119.4</ele>
        <time>2019-07-10T10:30:15Z</time>
      </trkpt>
      <trkpt lat="43.96375" lon="4.12195">
        <ele>120.8</ele>
        <time>2019-07-10T10:30:25Z</time>
      </trkpt>
      <trkpt lat="43.96375" lon="4.1219">
        <ele>121</ele>
        <time>2019-07-10T10:30:26Z</time>
      </trkpt>
      <trkpt lat="43.9637" lon="4.12157">
        <ele>121.8</ele>
        <time>2019-07-10T10:30:33Z</time>
      </trkpt>
      <trkpt lat="43.96368" lon="4.12147">
        <ele>122</ele>
        <time>2019-07-10T10:30:35Z</time>
      </trkpt>
      <trkpt lat="43.96364" lon="4.12117">
        <ele>122.4</ele>
        <time>2019-07-10T10:30:41Z</time>
      </trkpt>
      <trkpt lat="43.96359" lon="4.12068">
        <ele>123.4</ele>
        <time>2019-07-10T10:30:50Z</time>
      </trkpt>
      <trkpt lat="43.96358" lon="4.12061">
        <ele>123.4</ele>
        <time>2019-07-10T10:30:51Z</time>
      </trkpt>
      <trkpt lat="43.96355" lon="4.12026">
        <ele>123.4</ele>
        <time>2019-07-10T10:30:56Z</time>
      </trkpt>
      <trkpt lat="43.96353" lon="4.12002">
        <ele>123.4</ele>
        <time>2019-07-10T10:30:59Z</time>
      </trkpt>
      <trkpt lat="43.96351" lon="4.11977">
        <ele>123</ele>
        <time>2019-07-10T10:31:02Z</time>
      </trkpt>
      <trkpt lat="43.9635" lon="4.11949">
        <ele>122.2</ele>
        <time>2019-07-10T10:31:05Z</time>
      </trkpt>
      <trkpt lat="43.96348" lon="4.11919">
        <ele>121.2</ele>
        <time>2019-07-10T10:31:08Z</time>
      </trkpt>
      <trkpt lat="43.96343" lon="4.11887">
        <ele>120.8</ele>
        <time>2019-07-10T10:31:11Z</time>
      </trkpt>
      <trkpt lat="43.96337" lon="4.11865">
        <ele>120.2</ele>
        <time>2019-07-10T10:31:13Z</time>
      </trkpt>
      <trkpt lat="43.9633" lon="4.11844">
        <ele>120.2</ele>
        <time>2019-07-10T10:31:15Z</time>
      </trkpt>
      <trkpt lat="43.9632" lon="4.11823">
        <ele>119.6</ele>
        <time>2019-07-10T10:31:17Z</time>
      </trkpt>
      <trkpt lat="43.96315" lon="4.11812">
        <ele>119.4</ele>
        <time>2019-07-10T10:31:18Z</time>
      </trkpt>
      <trkpt lat="43.96304" lon="4.1179">
        <ele>118.4</ele>
        <time>2019-07-10T10:31:20Z</time>
      </trkpt>
      <trkpt lat="43.96299" lon="4.11778">
        <ele>117.8</ele>
        <time>2019-07-10T10:31:21Z</time>
      </trkpt>
      <trkpt lat="43.96283" lon="4.11744">
        <ele>116.4</ele>
        <time>2019-07-10T10:31:24Z</time>
      </trkpt>
      <trkpt lat="43.96277" lon="4.11732">
        <ele>116</ele>
        <time>2019-07-10T10:31:25Z</time>
      </trkpt>
      <trkpt lat="43.96264" lon="4.11709">
        <ele>114.4</ele>
        <time>2019-07-10T10:31:27Z</time>
      </trkpt>
      <trkpt lat="43.96244" lon="4.11677">
        <ele>113.2</ele>
        <time>2019-07-10T10:31:30Z</time>
      </trkpt>
      <trkpt lat="43.96199" lon="4.1162">
        <ele>110.2</ele>
        <time>2019-07-10T10:31:36Z</time>
      </trkpt>
      <trkpt lat="43.96177" lon="4.11593">
        <ele>109.6</ele>
        <time>2019-07-10T10:31:39Z</time>
      </trkpt>
      <trkpt lat="43.96169" lon="4.11584">
        <ele>109</ele>
        <time>2019-07-10T10:31:40Z</time>
      </trkpt>
      <trkpt lat="43.96155" lon="4.11566">
        <ele>108.6</ele>
        <time>2019-07-10T10:31:42Z</time>
      </trkpt>
      <trkpt lat="43.96119" lon="4.11522">
        <ele>107</ele>
        <time>2019-07-10T10:31:47Z</time>
      </trkpt>
      <trkpt lat="43.96106" lon="4.11505">
        <ele>106.2</ele>
        <time>2019-07-10T10:31:49Z</time>
      </trkpt>
      <trkpt lat="43.96099" lon="4.11497">
        <ele>105.6</ele>
        <time>2019-07-10T10:31:50Z</time>
      </trkpt>
      <trkpt lat="43.96053" lon="4.1144">
        <ele>103.8</ele>
        <time>2019-07-10T10:31:57Z</time>
      </trkpt>
      <trkpt lat="43.96026" lon="4.11407">
        <ele>103</ele>
        <time>2019-07-10T10:32:02Z</time>
      </trkpt>
      <trkpt lat="43.96018" lon="4.11395">
        <ele>103</ele>
        <time>2019-07-10T10:32:04Z</time>
      </trkpt>
      <trkpt lat="43.96008" lon="4.11378">
        <ele>102.8</ele>
        <time>2019-07-10T10:32:07Z</time>
      </trkpt>
      <trkpt lat="43.96001" lon="4.11362">
        <ele>103.2</ele>
        <time>2019-07-10T10:32:10Z</time>
      </trkpt>
      <trkpt lat="43.95996" lon="4.11348">
        <ele>103.4</ele>
        <time>2019-07-10T10:32:13Z</time>
      </trkpt>
      <trkpt lat="43.95991" lon="4.11328">
        <ele>104.4</ele>
        <time>2019-07-10T10:32:18Z</time>
      </trkpt>
      <trkpt lat="43.95988" lon="4.1132">
        <ele>104.8</ele>
        <time>2019-07-10T10:32:20Z</time>
      </trkpt>
      <trkpt lat="43.95985" lon="4.11304">
        <ele>105.4</ele>
        <time>2019-07-10T10:32:24Z</time>
      </trkpt>
      <trkpt lat="43.95983" lon="4.11296">
        <ele>106</ele>
        <time>2019-07-10T10:32:26Z</time>
      </trkpt>
      <trkpt lat="43.95978" lon="4.11277">
        <ele>106.8</ele>
        <time>2019-07-10T10:32:31Z</time>
      </trkpt>
      <trkpt lat="43.95977" lon="4.11266">
        <ele>107.4</ele>
        <time>2019-07-10T10:32:34Z</time>
      </trkpt>
      <trkpt lat="43.95975" lon="4.11259">
        <ele>107.4</ele>
        <time>2019-07-10T10:32:36Z</time>
      </trkpt>
      <trkpt lat="43.95974" lon="4.11252">
        <ele>108</ele>
        <time>2019-07-10T10:32:38Z</time>
      </trkpt>
      <trkpt lat="43.95969" lon="4.11227">
        <ele>109.4</ele>
        <time>2019-07-10T10:32:45Z</time>
      </trkpt>
      <trkpt lat="43.95967" lon="4.11217">
        <ele>109.8</ele>
        <time>2019-07-10T10:32:48Z</time>
      </trkpt>
      <trkpt lat="43.95964" lon="4.11203">
        <ele>110.2</ele>
        <time>2019-07-10T10:32:52Z</time>
      </trkpt>
      <trkpt lat="43.95963" lon="4.11199">
        <ele>110.6</ele>
        <time>2019-07-10T10:32:53Z</time>
      </trkpt>
      <trkpt lat="43.95958" lon="4.11175">
        <ele>111.4</ele>
        <time>2019-07-10T10:33:00Z</time>
      </trkpt>
      <trkpt lat="43.95956" lon="4.11168">
        <ele>111.8</ele>
        <time>2019-07-10T10:33:02Z</time>
      </trkpt>
      <trkpt lat="43.95952" lon="4.11152">
        <ele>112.4</ele>
        <time>2019-07-10T10:33:07Z</time>
      </trkpt>
      <trkpt lat="43.95948" lon="4.11135">
        <ele>113.6</ele>
        <time>2019-07-10T10:33:12Z</time>
      </trkpt>
      <trkpt lat="43.95946" lon="4.11128">
        <ele>113.8</ele>
        <time>2019-07-10T10:33:14Z</time>
      </trkpt>
      <trkpt lat="43.95944" lon="4.11117">
        <ele>114.2</ele>
        <time>2019-07-10T10:33:17Z</time>
      </trkpt>
      <trkpt lat="43.95939" lon="4.11101">
        <ele>115.4</ele>
        <time>2019-07-10T10:33:22Z</time>
      </trkpt>
      <trkpt lat="43.95937" lon="4.11087">
        <ele>116.2</ele>
        <time>2019-07-10T10:33:26Z</time>
      </trkpt>
      <trkpt lat="43.95936" lon="4.11079">
        <ele>116.2</ele>
        <time>2019-07-10T10:33:28Z</time>
      </trkpt>
      <trkpt lat="43.95932" lon="4.11063">
        <ele>117.2</ele>
        <time>2019-07-10T10:33:33Z</time>
      </trkpt>
      <trkpt lat="43.95931" lon="4.11059">
        <ele>117.4</ele>
        <time>2019-07-10T10:33:34Z</time>
      </trkpt>
      <trkpt lat="43.95926" lon="4.11031">
        <ele>118.4</ele>
        <time>2019-07-10T10:33:41Z</time>
      </trkpt>
      <trkpt lat="43.95924" lon="4.11021">
        <ele>118.8</ele>
        <time>2019-07-10T10:33:43Z</time>
      </trkpt>
      <trkpt lat="43.95919" lon="4.11003">
        <ele>119.4</ele>
        <time>2019-07-10T10:33:47Z</time>
      </trkpt>
      <trkpt lat="43.95907" lon="4.10968">
        <ele>120</ele>
        <time>2019-07-10T10:33:54Z</time>
      </trkpt>
      <trkpt lat="43.95881" lon="4.1091">
        <ele>120.4</ele>
        <time>2019-07-10T10:34:06Z</time>
      </trkpt>
      <trkpt lat="43.95861" lon="4.10863">
        <ele>120.8</ele>
        <time>2019-07-10T10:34:16Z</time>
      </trkpt>
      <trkpt lat="43.95842" lon="4.10823">
        <ele>121.6</ele>
        <time>2019-07-10T10:34:25Z</time>
      </trkpt>
      <trkpt lat="43.95837" lon="4.10811">
        <ele>121.8</ele>
        <time>2019-07-10T10:34:28Z</time>
      </trkpt>
      <trkpt lat="43.95831" lon="4.10799">
        <ele>122</ele>
        <time>2019-07-10T10:34:31Z</time>
      </trkpt>
      <trkpt lat="43.95822" lon="4.1078">
        <ele>122.4</ele>
        <time>2019-07-10T10:34:36Z</time>
      </trkpt>
      <trkpt lat="43.95815" lon="4.10763">
        <ele>122.8</ele>
        <time>2019-07-10T10:34:40Z</time>
      </trkpt>
      <trkpt lat="43.95802" lon="4.10729">
        <ele>123.8</ele>
        <time>2019-07-10T10:34:47Z</time>
      </trkpt>
      <trkpt lat="43.95786" lon="4.1069">
        <ele>124</ele>
        <time>2019-07-10T10:34:54Z</time>
      </trkpt>
      <trkpt lat="43.95764" lon="4.10633">
        <ele>124.2</ele>
        <time>2019-07-10T10:35:03Z</time>
      </trkpt>
      <trkpt lat="43.9574" lon="4.10575">
        <ele>124.2</ele>
        <time>2019-07-10T10:35:12Z</time>
      </trkpt>
      <trkpt lat="43.95714" lon="4.10512">
        <ele>124.4</ele>
        <time>2019-07-10T10:35:23Z</time>
      </trkpt>
      <trkpt lat="43.95705" lon="4.10491">
        <ele>124.8</ele>
        <time>2019-07-10T10:35:27Z</time>
      </trkpt>
      <trkpt lat="43.957" lon="4.10475">
        <ele>124.8</ele>
        <time>2019-07-10T10:35:30Z</time>
      </trkpt>
      <trkpt lat="43.95698" lon="4.1047">
        <ele>125</ele>
        <time>2019-07-10T10:35:31Z</time>
      </trkpt>
      <trkpt lat="43.95683" lon="4.10416">
        <ele>125.6</ele>
        <time>2019-07-10T10:35:40Z</time>
      </trkpt>
      <trkpt lat="43.9568" lon="4.10404">
        <ele>126</ele>
        <time>2019-07-10T10:35:42Z</time>
      </trkpt>
      <trkpt lat="43.95674" lon="4.10379">
        <ele>126.4</ele>
        <time>2019-07-10T10:35:46Z</time>
      </trkpt>
      <trkpt lat="43.95667" lon="4.1035">
        <ele>127</ele>
        <time>2019-07-10T10:35:51Z</time>
      </trkpt>
      <trkpt lat="43.95661" lon="4.10321">
        <ele>127.8</ele>
        <time>2019-07-10T10:35:56Z</time>
      </trkpt>
      <trkpt lat="43.95659" lon="4.10309">
        <ele>128</ele>
        <time>2019-07-10T10:35:58Z</time>
      </trkpt>
      <trkpt lat="43.95658" lon="4.10303">
        <ele>128</ele>
        <time>2019-07-10T10:35:59Z</time>
      </trkpt>
      <trkpt lat="43.95658" lon="4.10264">
        <ele>128.6</ele>
        <time>2019-07-10T10:36:05Z</time>
      </trkpt>
      <trkpt lat="43.95659" lon="4.1025">
        <ele>128.6</ele>
        <time>2019-07-10T10:36:07Z</time>
      </trkpt>
      <trkpt lat="43.95661" lon="4.10227">
        <ele>128.8</ele>
        <time>2019-07-10T10:36:10Z</time>
      </trkpt>
      <trkpt lat="43.95662" lon="4.10219">
        <ele>128.6</ele>
        <time>2019-07-10T10:36:11Z</time>
      </trkpt>
      <trkpt lat="43.95672" lon="4.10144">
        <ele>127</ele>
        <time>2019-07-10T10:36:20Z</time>
      </trkpt>
      <trkpt lat="43.95676" lon="4.10111">
        <ele>126.8</ele>
        <time>2019-07-10T10:36:24Z</time>
      </trkpt>
      <trkpt lat="43.95684" lon="4.10054">
        <ele>126</ele>
        <time>2019-07-10T10:36:31Z</time>
      </trkpt>
      <trkpt lat="43.9569" lon="4.10016">
        <ele>125.6</ele>
        <time>2019-07-10T10:36:36Z</time>
      </trkpt>
      <trkpt lat="43.95692" lon="4.10001">
        <ele>125.4</ele>
        <time>2019-07-10T10:36:38Z</time>
      </trkpt>
      <trkpt lat="43.95695" lon="4.09987">
        <ele>125</ele>
        <time>2019-07-10T10:36:40Z</time>
      </trkpt>
      <trkpt lat="43.95705" lon="4.09948">
        <ele>125.2</ele>
        <time>2019-07-10T10:36:46Z</time>
      </trkpt>
      <trkpt lat="43.95711" lon="4.09936">
        <ele>125.4</ele>
        <time>2019-07-10T10:36:48Z</time>
      </trkpt>
      <trkpt lat="43.95713" lon="4.0993">
        <ele>125.6</ele>
        <time>2019-07-10T10:36:49Z</time>
      </trkpt>
      <trkpt lat="43.95714" lon="4.09923">
        <ele>125.6</ele>
        <time>2019-07-10T10:36:50Z</time>
      </trkpt>
      <trkpt lat="43.95714" lon="4.09916">
        <ele>125.6</ele>
        <time>2019-07-10T10:36:51Z</time>
      </trkpt>
      <trkpt lat="43.95708" lon="4.09897">
        <ele>125.2</ele>
        <time>2019-07-10T10:36:54Z</time>
      </trkpt>
      <trkpt lat="43.95706" lon="4.0989">
        <ele>124.8</ele>
        <time>2019-07-10T10:36:55Z</time>
      </trkpt>
      <trkpt lat="43.95705" lon="4.09864">
        <ele>123.8</ele>
        <time>2019-07-10T10:36:59Z</time>
      </trkpt>
      <trkpt lat="43.95706" lon="4.09851">
        <ele>123.6</ele>
        <time>2019-07-10T10:37:01Z</time>
      </trkpt>
      <trkpt lat="43.95708" lon="4.09804">
        <ele>123.4</ele>
        <time>2019-07-10T10:37:08Z</time>
      </trkpt>
      <trkpt lat="43.95708" lon="4.09782">
        <ele>123.2</ele>
        <time>2019-07-10T10:37:11Z</time>
      </trkpt>
      <trkpt lat="43.95709" lon="4.09768">
        <ele>123.2</ele>
        <time>2019-07-10T10:37:13Z</time>
      </trkpt>
      <trkpt lat="43.95709" lon="4.0976">
        <ele>123</ele>
        <time>2019-07-10T10:37:14Z</time>
      </trkpt>
      <trkpt lat="43.95709" lon="4.09738">
        <ele>123</ele>
        <time>2019-07-10T10:37:17Z</time>
      </trkpt>
      <trkpt lat="43.9571" lon="4.09731">
        <ele>122.8</ele>
        <time>2019-07-10T10:37:18Z</time>
      </trkpt>
      <trkpt lat="43.9571" lon="4.09724">
        <ele>122.8</ele>
        <time>2019-07-10T10:37:19Z</time>
      </trkpt>
      <trkpt lat="43.95711" lon="4.09666">
        <ele>122.8</ele>
        <time>2019-07-10T10:37:27Z</time>
      </trkpt>
      <trkpt lat="43.95711" lon="4.09632">
        <ele>122.6</ele>
        <time>2019-07-10T10:37:32Z</time>
      </trkpt>
      <trkpt lat="43.95712" lon="4.09617">
        <ele>122.4</ele>
        <time>2019-07-10T10:37:34Z</time>
      </trkpt>
      <trkpt lat="43.95712" lon="4.09604">
        <ele>122.4</ele>
        <time>2019-07-10T10:37:36Z</time>
      </trkpt>
      <trkpt lat="43.95713" lon="4.09591">
        <ele>122.2</ele>
        <time>2019-07-10T10:37:38Z</time>
      </trkpt>
      <trkpt lat="43.95717" lon="4.09551">
        <ele>121.2</ele>
        <time>2019-07-10T10:37:44Z</time>
      </trkpt>
      <trkpt lat="43.9573" lon="4.09508">
        <ele>121</ele>
        <time>2019-07-10T10:37:51Z</time>
      </trkpt>
      <trkpt lat="43.95732" lon="4.09502">
        <ele>121</ele>
        <time>2019-07-10T10:37:52Z</time>
      </trkpt>
      <trkpt lat="43.95737" lon="4.09491">
        <ele>120.8</ele>
        <time>2019-07-10T10:37:54Z</time>
      </trkpt>
      <trkpt lat="43.95754" lon="4.09452">
        <ele>121</ele>
        <time>2019-07-10T10:38:01Z</time>
      </trkpt>
      <trkpt lat="43.95774" lon="4.09405">
        <ele>120.8</ele>
        <time>2019-07-10T10:38:09Z</time>
      </trkpt>
      <trkpt lat="43.958" lon="4.09341">
        <ele>120.8</ele>
        <time>2019-07-10T10:38:20Z</time>
      </trkpt>
      <trkpt lat="43.95804" lon="4.09329">
        <ele>120.8</ele>
        <time>2019-07-10T10:38:22Z</time>
      </trkpt>
      <trkpt lat="43.95821" lon="4.09288">
        <ele>120.4</ele>
        <time>2019-07-10T10:38:29Z</time>
      </trkpt>
      <trkpt lat="43.95845" lon="4.09231">
        <ele>120.4</ele>
        <time>2019-07-10T10:38:40Z</time>
      </trkpt>
      <trkpt lat="43.95856" lon="4.09205">
        <ele>120.8</ele>
        <time>2019-07-10T10:38:46Z</time>
      </trkpt>
      <trkpt lat="43.95859" lon="4.09197">
        <ele>121</ele>
        <time>2019-07-10T10:38:48Z</time>
      </trkpt>
      <trkpt lat="43.95874" lon="4.09162">
        <ele>122.2</ele>
        <time>2019-07-10T10:38:57Z</time>
      </trkpt>
      <trkpt lat="43.95875" lon="4.09158">
        <ele>122.2</ele>
        <time>2019-07-10T10:38:58Z</time>
      </trkpt>
      <trkpt lat="43.95888" lon="4.09129">
        <ele>122.8</ele>
        <time>2019-07-10T10:39:06Z</time>
      </trkpt>
      <trkpt lat="43.95894" lon="4.09114">
        <ele>123.4</ele>
        <time>2019-07-10T10:39:10Z</time>
      </trkpt>
      <trkpt lat="43.95905" lon="4.09092">
        <ele>124.2</ele>
        <time>2019-07-10T10:39:16Z</time>
      </trkpt>
      <trkpt lat="43.95908" lon="4.09084">
        <ele>124.6</ele>
        <time>2019-07-10T10:39:18Z</time>
      </trkpt>
      <trkpt lat="43.95924" lon="4.09048">
        <ele>125.6</ele>
        <time>2019-07-10T10:39:27Z</time>
      </trkpt>
      <trkpt lat="43.9593" lon="4.09035">
        <ele>126</ele>
        <time>2019-07-10T10:39:30Z</time>
      </trkpt>
      <trkpt lat="43.95942" lon="4.09008">
        <ele>126.2</ele>
        <time>2019-07-10T10:39:36Z</time>
      </trkpt>
      <trkpt lat="43.95953" lon="4.0898">
        <ele>126.8</ele>
        <time>2019-07-10T10:39:42Z</time>
      </trkpt>
      <trkpt lat="43.95961" lon="4.08962">
        <ele>127.2</ele>
        <time>2019-07-10T10:39:46Z</time>
      </trkpt>
      <trkpt lat="43.95988" lon="4.089">
        <ele>127.8</ele>
        <time>2019-07-10T10:40:00Z</time>
      </trkpt>
      <trkpt lat="43.96" lon="4.08867">
        <ele>127.8</ele>
        <time>2019-07-10T10:40:07Z</time>
      </trkpt>
      <trkpt lat="43.96002" lon="4.08861">
        <ele>127.8</ele>
        <time>2019-07-10T10:40:08Z</time>
      </trkpt>
      <trkpt lat="43.96004" lon="4.08855">
        <ele>127.8</ele>
        <time>2019-07-10T10:40:09Z</time>
      </trkpt>
      <trkpt lat="43.96011" lon="4.08836">
        <ele>127.4</ele>
        <time>2019-07-10T10:40:12Z</time>
      </trkpt>
      <trkpt lat="43.96025" lon="4.08793">
        <ele>126.6</ele>
        <time>2019-07-10T10:40:18Z</time>
      </trkpt>
      <trkpt lat="43.96027" lon="4.08785">
        <ele>126.4</ele>
        <time>2019-07-10T10:40:19Z</time>
      </trkpt>
      <trkpt lat="43.96041" lon="4.08746">
        <ele>125.6</ele>
        <time>2019-07-10T10:40:24Z</time>
      </trkpt>
      <trkpt lat="43.96044" lon="4.08739">
        <ele>125.4</ele>
        <time>2019-07-10T10:40:25Z</time>
      </trkpt>
      <trkpt lat="43.96049" lon="4.08722">
        <ele>125.2</ele>
        <time>2019-07-10T10:40:27Z</time>
      </trkpt>
      <trkpt lat="43.96073" lon="4.08652">
        <ele>123</ele>
        <time>2019-07-10T10:40:35Z</time>
      </trkpt>
      <trkpt lat="43.96083" lon="4.08625">
        <ele>122.2</ele>
        <time>2019-07-10T10:40:38Z</time>
      </trkpt>
      <trkpt lat="43.96092" lon="4.08598">
        <ele>121.6</ele>
        <time>2019-07-10T10:40:41Z</time>
      </trkpt>
      <trkpt lat="43.96095" lon="4.08589">
        <ele>121.6</ele>
        <time>2019-07-10T10:40:42Z</time>
      </trkpt>
      <trkpt lat="43.96121" lon="4.08525">
        <ele>119.4</ele>
        <time>2019-07-10T10:40:49Z</time>
      </trkpt>
      <trkpt lat="43.96128" lon="4.08508">
        <ele>119</ele>
        <time>2019-07-10T10:40:51Z</time>
      </trkpt>
      <trkpt lat="43.96145" lon="4.08471">
        <ele>118.6</ele>
        <time>2019-07-10T10:40:56Z</time>
      </trkpt>
      <trkpt lat="43.96167" lon="4.08423">
        <ele>118</ele>
        <time>2019-07-10T10:41:03Z</time>
      </trkpt>
      <trkpt lat="43.96185" lon="4.08378">
        <ele>118.2</ele>
        <time>2019-07-10T10:41:10Z</time>
      </trkpt>
      <trkpt lat="43.96188" lon="4.08351">
        <ele>118</ele>
        <time>2019-07-10T10:41:14Z</time>
      </trkpt>
      <trkpt lat="43.96188" lon="4.08337">
        <ele>117.8</ele>
        <time>2019-07-10T10:41:16Z</time>
      </trkpt>
      <trkpt lat="43.96184" lon="4.0829">
        <ele>117.6</ele>
        <time>2019-07-10T10:41:23Z</time>
      </trkpt>
      <trkpt lat="43.96183" lon="4.08284">
        <ele>117.6</ele>
        <time>2019-07-10T10:41:24Z</time>
      </trkpt>
      <trkpt lat="43.96179" lon="4.08239">
        <ele>116.8</ele>
        <time>2019-07-10T10:41:30Z</time>
      </trkpt>
      <trkpt lat="43.96177" lon="4.08222">
        <ele>116.6</ele>
        <time>2019-07-10T10:41:32Z</time>
      </trkpt>
      <trkpt lat="43.96175" lon="4.08204">
        <ele>116.4</ele>
        <time>2019-07-10T10:41:34Z</time>
      </trkpt>
      <trkpt lat="43.96171" lon="4.08156">
        <ele>115.6</ele>
        <time>2019-07-10T10:41:39Z</time>
      </trkpt>
      <trkpt lat="43.96164" lon="4.08076">
        <ele>113.8</ele>
        <time>2019-07-10T10:41:47Z</time>
      </trkpt>
      <trkpt lat="43.96157" lon="4.08">
        <ele>112</ele>
        <time>2019-07-10T10:41:55Z</time>
      </trkpt>
      <trkpt lat="43.96154" lon="4.07967">
        <ele>111.4</ele>
        <time>2019-07-10T10:41:59Z</time>
      </trkpt>
      <trkpt lat="43.96153" lon="4.07952">
        <ele>111.4</ele>
        <time>2019-07-10T10:42:01Z</time>
      </trkpt>
      <trkpt lat="43.96152" lon="4.07897">
        <ele>110.4</ele>
        <time>2019-07-10T10:42:08Z</time>
      </trkpt>
      <trkpt lat="43.96152" lon="4.07889">
        <ele>110.2</ele>
        <time>2019-07-10T10:42:09Z</time>
      </trkpt>
      <trkpt lat="43.96155" lon="4.07871">
        <ele>110</ele>
        <time>2019-07-10T10:42:11Z</time>
      </trkpt>
      <trkpt lat="43.96158" lon="4.07843">
        <ele>109.6</ele>
        <time>2019-07-10T10:42:14Z</time>
      </trkpt>
      <trkpt lat="43.96167" lon="4.07784">
        <ele>107.8</ele>
        <time>2019-07-10T10:42:20Z</time>
      </trkpt>
      <trkpt lat="43.96168" lon="4.07775">
        <ele>107.8</ele>
        <time>2019-07-10T10:42:21Z</time>
      </trkpt>
      <trkpt lat="43.96173" lon="4.07738">
        <ele>107</ele>
        <time>2019-07-10T10:42:25Z</time>
      </trkpt>
      <trkpt lat="43.96176" lon="4.07711">
        <ele>106</ele>
        <time>2019-07-10T10:42:28Z</time>
      </trkpt>
      <trkpt lat="43.96178" lon="4.07677">
        <ele>105.2</ele>
        <time>2019-07-10T10:42:32Z</time>
      </trkpt>
      <trkpt lat="43.96178" lon="4.07661">
        <ele>105</ele>
        <time>2019-07-10T10:42:34Z</time>
      </trkpt>
      <trkpt lat="43.96178" lon="4.07653">
        <ele>105</ele>
        <time>2019-07-10T10:42:35Z</time>
      </trkpt>
      <trkpt lat="43.96178" lon="4.07645">
        <ele>104.6</ele>
        <time>2019-07-10T10:42:36Z</time>
      </trkpt>
      <trkpt lat="43.96178" lon="4.0763">
        <ele>104.6</ele>
        <time>2019-07-10T10:42:38Z</time>
      </trkpt>
      <trkpt lat="43.96177" lon="4.07623">
        <ele>104.2</ele>
        <time>2019-07-10T10:42:39Z</time>
      </trkpt>
      <trkpt lat="43.96177" lon="4.07616">
        <ele>104.2</ele>
        <time>2019-07-10T10:42:40Z</time>
      </trkpt>
      <trkpt lat="43.96177" lon="4.07601">
        <ele>104.2</ele>
        <time>2019-07-10T10:42:42Z</time>
      </trkpt>
      <trkpt lat="43.96177" lon="4.07577">
        <ele>104</ele>
        <time>2019-07-10T10:42:45Z</time>
      </trkpt>
      <trkpt lat="43.96176" lon="4.0756">
        <ele>104</ele>
        <time>2019-07-10T10:42:47Z</time>
      </trkpt>
      <trkpt lat="43.96176" lon="4.07534">
        <ele>103.4</ele>
        <time>2019-07-10T10:42:50Z</time>
      </trkpt>
      <trkpt lat="43.96176" lon="4.07525">
        <ele>103.2</ele>
        <time>2019-07-10T10:42:51Z</time>
      </trkpt>
      <trkpt lat="43.96173" lon="4.07488">
        <ele>102.4</ele>
        <time>2019-07-10T10:42:55Z</time>
      </trkpt>
      <trkpt lat="43.96173" lon="4.07479">
        <ele>102.2</ele>
        <time>2019-07-10T10:42:56Z</time>
      </trkpt>
      <trkpt lat="43.96172" lon="4.0747">
        <ele>102</ele>
        <time>2019-07-10T10:42:57Z</time>
      </trkpt>
      <trkpt lat="43.96167" lon="4.07405">
        <ele>101</ele>
        <time>2019-07-10T10:43:04Z</time>
      </trkpt>
      <trkpt lat="43.96167" lon="4.07397">
        <ele>100.8</ele>
        <time>2019-07-10T10:43:05Z</time>
      </trkpt>
      <trkpt lat="43.96163" lon="4.07339">
        <ele>99.6</ele>
        <time>2019-07-10T10:43:12Z</time>
      </trkpt>
      <trkpt lat="43.96162" lon="4.07331">
        <ele>99.6</ele>
        <time>2019-07-10T10:43:13Z</time>
      </trkpt>
      <trkpt lat="43.96162" lon="4.07323">
        <ele>99.4</ele>
        <time>2019-07-10T10:43:14Z</time>
      </trkpt>
      <trkpt lat="43.96162" lon="4.07314">
        <ele>99.2</ele>
        <time>2019-07-10T10:43:15Z</time>
      </trkpt>
      <trkpt lat="43.96164" lon="4.07269">
        <ele>99</ele>
        <time>2019-07-10T10:43:21Z</time>
      </trkpt>
      <trkpt lat="43.96171" lon="4.07216">
        <ele>99.4</ele>
        <time>2019-07-10T10:43:28Z</time>
      </trkpt>
      <trkpt lat="43.96172" lon="4.07209">
        <ele>99.2</ele>
        <time>2019-07-10T10:43:29Z</time>
      </trkpt>
      <trkpt lat="43.96174" lon="4.07201">
        <ele>99.2</ele>
        <time>2019-07-10T10:43:30Z</time>
      </trkpt>
      <trkpt lat="43.96184" lon="4.07162">
        <ele>99.4</ele>
        <time>2019-07-10T10:43:35Z</time>
      </trkpt>
      <trkpt lat="43.96186" lon="4.07154">
        <ele>99.4</ele>
        <time>2019-07-10T10:43:36Z</time>
      </trkpt>
      <trkpt lat="43.96191" lon="4.07129">
        <ele>99.4</ele>
        <time>2019-07-10T10:43:39Z</time>
      </trkpt>
      <trkpt lat="43.96194" lon="4.07113">
        <ele>99.2</ele>
        <time>2019-07-10T10:43:41Z</time>
      </trkpt>
      <trkpt lat="43.96195" lon="4.07104">
        <ele>99.2</ele>
        <time>2019-07-10T10:43:42Z</time>
      </trkpt>
      <trkpt lat="43.96197" lon="4.07096">
        <ele>99</ele>
        <time>2019-07-10T10:43:43Z</time>
      </trkpt>
      <trkpt lat="43.96198" lon="4.07088">
        <ele>99.2</ele>
        <time>2019-07-10T10:43:44Z</time>
      </trkpt>
      <trkpt lat="43.96203" lon="4.07055">
        <ele>99</ele>
        <time>2019-07-10T10:43:48Z</time>
      </trkpt>
      <trkpt lat="43.9621" lon="4.07007">
        <ele>98.4</ele>
        <time>2019-07-10T10:43:54Z</time>
      </trkpt>
      <trkpt lat="43.96222" lon="4.06936">
        <ele>98.2</ele>
        <time>2019-07-10T10:44:03Z</time>
      </trkpt>
      <trkpt lat="43.96223" lon="4.06928">
        <ele>98</ele>
        <time>2019-07-10T10:44:04Z</time>
      </trkpt>
      <trkpt lat="43.96229" lon="4.0689">
        <ele>98</ele>
        <time>2019-07-10T10:44:09Z</time>
      </trkpt>
      <trkpt lat="43.96232" lon="4.06861">
        <ele>98</ele>
        <time>2019-07-10T10:44:13Z</time>
      </trkpt>
      <trkpt lat="43.96231" lon="4.06812">
        <ele>98</ele>
        <time>2019-07-10T10:44:20Z</time>
      </trkpt>
      <trkpt lat="43.9623" lon="4.06752">
        <ele>97.4</ele>
        <time>2019-07-10T10:44:28Z</time>
      </trkpt>
      <trkpt lat="43.96229" lon="4.06705">
        <ele>97.2</ele>
        <time>2019-07-10T10:44:34Z</time>
      </trkpt>
      <trkpt lat="43.96229" lon="4.06698">
        <ele>97.2</ele>
        <time>2019-07-10T10:44:35Z</time>
      </trkpt>
      <trkpt lat="43.96235" lon="4.06659">
        <ele>97.2</ele>
        <time>2019-07-10T10:44:40Z</time>
      </trkpt>
      <trkpt lat="43.96238" lon="4.06635">
        <ele>97</ele>
        <time>2019-07-10T10:44:43Z</time>
      </trkpt>
      <trkpt lat="43.96241" lon="4.06619">
        <ele>96.8</ele>
        <time>2019-07-10T10:44:45Z</time>
      </trkpt>
      <trkpt lat="43.96242" lon="4.06611">
        <ele>96.6</ele>
        <time>2019-07-10T10:44:46Z</time>
      </trkpt>
      <trkpt lat="43.96247" lon="4.06578">
        <ele>96.6</ele>
        <time>2019-07-10T10:44:50Z</time>
      </trkpt>
      <trkpt lat="43.9625" lon="4.06561">
        <ele>96.4</ele>
        <time>2019-07-10T10:44:52Z</time>
      </trkpt>
      <trkpt lat="43.96253" lon="4.06545">
        <ele>96.2</ele>
        <time>2019-07-10T10:44:54Z</time>
      </trkpt>
      <trkpt lat="43.96256" lon="4.0652">
        <ele>96</ele>
        <time>2019-07-10T10:44:57Z</time>
      </trkpt>
      <trkpt lat="43.96259" lon="4.06503">
        <ele>95.8</ele>
        <time>2019-07-10T10:44:59Z</time>
      </trkpt>
      <trkpt lat="43.96262" lon="4.06478">
        <ele>95.8</ele>
        <time>2019-07-10T10:45:02Z</time>
      </trkpt>
      <trkpt lat="43.96263" lon="4.06471">
        <ele>95.6</ele>
        <time>2019-07-10T10:45:03Z</time>
      </trkpt>
      <trkpt lat="43.96263" lon="4.06463">
        <ele>95.8</ele>
        <time>2019-07-10T10:45:04Z</time>
      </trkpt>
      <trkpt lat="43.96266" lon="4.0641">
        <ele>95.8</ele>
        <time>2019-07-10T10:45:11Z</time>
      </trkpt>
      <trkpt lat="43.96266" lon="4.06394">
        <ele>96</ele>
        <time>2019-07-10T10:45:13Z</time>
      </trkpt>
      <trkpt lat="43.96266" lon="4.06378">
        <ele>95.8</ele>
        <time>2019-07-10T10:45:15Z</time>
      </trkpt>
      <trkpt lat="43.96266" lon="4.06352">
        <ele>95.6</ele>
        <time>2019-07-10T10:45:18Z</time>
      </trkpt>
      <trkpt lat="43.96266" lon="4.06324">
        <ele>95.2</ele>
        <time>2019-07-10T10:45:21Z</time>
      </trkpt>
      <trkpt lat="43.96266" lon="4.06281">
        <ele>94.4</ele>
        <time>2019-07-10T10:45:26Z</time>
      </trkpt>
      <trkpt lat="43.96265" lon="4.06255">
        <ele>94.2</ele>
        <time>2019-07-10T10:45:29Z</time>
      </trkpt>
      <trkpt lat="43.96265" lon="4.06207">
        <ele>92.8</ele>
        <time>2019-07-10T10:45:35Z</time>
      </trkpt>
      <trkpt lat="43.96265" lon="4.06175">
        <ele>92.6</ele>
        <time>2019-07-10T10:45:39Z</time>
      </trkpt>
      <trkpt lat="43.96268" lon="4.06152">
        <ele>92.4</ele>
        <time>2019-07-10T10:45:42Z</time>
      </trkpt>
      <trkpt lat="43.96283" lon="4.061">
        <ele>92.4</ele>
        <time>2019-07-10T10:45:49Z</time>
      </trkpt>
      <trkpt lat="43.96285" lon="4.06093">
        <ele>92.4</ele>
        <time>2019-07-10T10:45:50Z</time>
      </trkpt>
      <trkpt lat="43.96289" lon="4.0608">
        <ele>92.4</ele>
        <time>2019-07-10T10:45:52Z</time>
      </trkpt>
      <trkpt lat="43.96302" lon="4.06042">
        <ele>92.6</ele>
        <time>2019-07-10T10:45:58Z</time>
      </trkpt>
      <trkpt lat="43.96305" lon="4.06029">
        <ele>92.8</ele>
        <time>2019-07-10T10:46:00Z</time>
      </trkpt>
      <trkpt lat="43.96309" lon="4.06004">
        <ele>92.8</ele>
        <time>2019-07-10T10:46:04Z</time>
      </trkpt>
      <trkpt lat="43.96309" lon="4.0599">
        <ele>92.8</ele>
        <time>2019-07-10T10:46:06Z</time>
      </trkpt>
      <trkpt lat="43.96309" lon="4.05977">
        <ele>92.8</ele>
        <time>2019-07-10T10:46:08Z</time>
      </trkpt>
      <trkpt lat="43.96309" lon="4.0597">
        <ele>92.6</ele>
        <time>2019-07-10T10:46:09Z</time>
      </trkpt>
      <trkpt lat="43.96308" lon="4.05957">
        <ele>92.8</ele>
        <time>2019-07-10T10:46:11Z</time>
      </trkpt>
      <trkpt lat="43.96304" lon="4.05899">
        <ele>93</ele>
        <time>2019-07-10T10:46:19Z</time>
      </trkpt>
      <trkpt lat="43.96303" lon="4.05884">
        <ele>93.2</ele>
        <time>2019-07-10T10:46:21Z</time>
      </trkpt>
      <trkpt lat="43.96301" lon="4.05848">
        <ele>92.8</ele>
        <time>2019-07-10T10:46:26Z</time>
      </trkpt>
      <trkpt lat="43.96299" lon="4.05819">
        <ele>92.4</ele>
        <time>2019-07-10T10:46:30Z</time>
      </trkpt>
      <trkpt lat="43.96299" lon="4.05811">
        <ele>92.4</ele>
        <time>2019-07-10T10:46:31Z</time>
      </trkpt>
      <trkpt lat="43.96298" lon="4.05787">
        <ele>92.4</ele>
        <time>2019-07-10T10:46:34Z</time>
      </trkpt>
      <trkpt lat="43.96294" lon="4.05747">
        <ele>92</ele>
        <time>2019-07-10T10:46:39Z</time>
      </trkpt>
      <trkpt lat="43.96293" lon="4.05739">
        <ele>91.8</ele>
        <time>2019-07-10T10:46:40Z</time>
      </trkpt>
      <trkpt lat="43.96291" lon="4.05732">
        <ele>91.8</ele>
        <time>2019-07-10T10:46:41Z</time>
      </trkpt>
      <trkpt lat="43.96289" lon="4.05724">
        <ele>91.8</ele>
        <time>2019-07-10T10:46:42Z</time>
      </trkpt>
      <trkpt lat="43.96272" lon="4.05675">
        <ele>90.6</ele>
        <time>2019-07-10T10:46:48Z</time>
      </trkpt>
      <trkpt lat="43.96269" lon="4.05667">
        <ele>90.6</ele>
        <time>2019-07-10T10:46:49Z</time>
      </trkpt>
      <trkpt lat="43.96265" lon="4.05658">
        <ele>90.4</ele>
        <time>2019-07-10T10:46:50Z</time>
      </trkpt>
      <trkpt lat="43.96262" lon="4.0565">
        <ele>90.4</ele>
        <time>2019-07-10T10:46:51Z</time>
      </trkpt>
      <trkpt lat="43.96259" lon="4.05641">
        <ele>90.4</ele>
        <time>2019-07-10T10:46:52Z</time>
      </trkpt>
      <trkpt lat="43.96255" lon="4.05632">
        <ele>90.2</ele>
        <time>2019-07-10T10:46:53Z</time>
      </trkpt>
      <trkpt lat="43.96252" lon="4.05623">
        <ele>90</ele>
        <time>2019-07-10T10:46:54Z</time>
      </trkpt>
      <trkpt lat="43.96249" lon="4.05614">
        <ele>89.8</ele>
        <time>2019-07-10T10:46:55Z</time>
      </trkpt>
      <trkpt lat="43.96245" lon="4.05605">
        <ele>89.6</ele>
        <time>2019-07-10T10:46:56Z</time>
      </trkpt>
      <trkpt lat="43.96241" lon="4.05597">
        <ele>89</ele>
        <time>2019-07-10T10:46:57Z</time>
      </trkpt>
      <trkpt lat="43.96236" lon="4.05588">
        <ele>89</ele>
        <time>2019-07-10T10:46:58Z</time>
      </trkpt>
      <trkpt lat="43.96224" lon="4.05574">
        <ele>88</ele>
        <time>2019-07-10T10:47:00Z</time>
      </trkpt>
      <trkpt lat="43.96217" lon="4.05568">
        <ele>88</ele>
        <time>2019-07-10T10:47:01Z</time>
      </trkpt>
      <trkpt lat="43.96196" lon="4.05551">
        <ele>87.2</ele>
        <time>2019-07-10T10:47:04Z</time>
      </trkpt>
      <trkpt lat="43.96189" lon="4.05546">
        <ele>87</ele>
        <time>2019-07-10T10:47:05Z</time>
      </trkpt>
      <trkpt lat="43.96182" lon="4.05541">
        <ele>87</ele>
        <time>2019-07-10T10:47:06Z</time>
      </trkpt>
      <trkpt lat="43.96174" lon="4.05536">
        <ele>86.2</ele>
        <time>2019-07-10T10:47:07Z</time>
      </trkpt>
      <trkpt lat="43.96154" lon="4.05519">
        <ele>85.6</ele>
        <time>2019-07-10T10:47:10Z</time>
      </trkpt>
      <trkpt lat="43.96147" lon="4.05514">
        <ele>85.2</ele>
        <time>2019-07-10T10:47:11Z</time>
      </trkpt>
      <trkpt lat="43.96133" lon="4.05504">
        <ele>84.8</ele>
        <time>2019-07-10T10:47:13Z</time>
      </trkpt>
      <trkpt lat="43.96126" lon="4.055">
        <ele>84.8</ele>
        <time>2019-07-10T10:47:14Z</time>
      </trkpt>
      <trkpt lat="43.9612" lon="4.05495">
        <ele>84.4</ele>
        <time>2019-07-10T10:47:15Z</time>
      </trkpt>
      <trkpt lat="43.96113" lon="4.05491">
        <ele>84.4</ele>
        <time>2019-07-10T10:47:16Z</time>
      </trkpt>
      <trkpt lat="43.96094" lon="4.05476">
        <ele>84</ele>
        <time>2019-07-10T10:47:19Z</time>
      </trkpt>
      <trkpt lat="43.96082" lon="4.05467">
        <ele>83.6</ele>
        <time>2019-07-10T10:47:21Z</time>
      </trkpt>
      <trkpt lat="43.96075" lon="4.05463">
        <ele>83.6</ele>
        <time>2019-07-10T10:47:22Z</time>
      </trkpt>
      <trkpt lat="43.96063" lon="4.05454">
        <ele>83.4</ele>
        <time>2019-07-10T10:47:24Z</time>
      </trkpt>
      <trkpt lat="43.96028" lon="4.05427">
        <ele>82.4</ele>
        <time>2019-07-10T10:47:30Z</time>
      </trkpt>
      <trkpt lat="43.95986" lon="4.05407">
        <ele>82</ele>
        <time>2019-07-10T10:47:37Z</time>
      </trkpt>
      <trkpt lat="43.95958" lon="4.05396">
        <ele>81.8</ele>
        <time>2019-07-10T10:47:42Z</time>
      </trkpt>
      <trkpt lat="43.95952" lon="4.05394">
        <ele>81.8</ele>
        <time>2019-07-10T10:47:43Z</time>
      </trkpt>
      <trkpt lat="43.95946" lon="4.05392">
        <ele>81.8</ele>
        <time>2019-07-10T10:47:44Z</time>
      </trkpt>
      <trkpt lat="43.95914" lon="4.05376">
        <ele>82.4</ele>
        <time>2019-07-10T10:47:50Z</time>
      </trkpt>
      <trkpt lat="43.95909" lon="4.05373">
        <ele>82.4</ele>
        <time>2019-07-10T10:47:51Z</time>
      </trkpt>
      <trkpt lat="43.95901" lon="4.05362">
        <ele>82.4</ele>
        <time>2019-07-10T10:47:53Z</time>
      </trkpt>
      <trkpt lat="43.95895" lon="4.05348">
        <ele>82.6</ele>
        <time>2019-07-10T10:47:55Z</time>
      </trkpt>
      <trkpt lat="43.95892" lon="4.05341">
        <ele>82.6</ele>
        <time>2019-07-10T10:47:56Z</time>
      </trkpt>
      <trkpt lat="43.95884" lon="4.0532">
        <ele>82.6</ele>
        <time>2019-07-10T10:47:59Z</time>
      </trkpt>
      <trkpt lat="43.95878" lon="4.05306">
        <ele>82.4</ele>
        <time>2019-07-10T10:48:01Z</time>
      </trkpt>
      <trkpt lat="43.95852" lon="4.05254">
        <ele>82.2</ele>
        <time>2019-07-10T10:48:09Z</time>
      </trkpt>
      <trkpt lat="43.95829" lon="4.05216">
        <ele>82.2</ele>
        <time>2019-07-10T10:48:16Z</time>
      </trkpt>
      <trkpt lat="43.95823" lon="4.05207">
        <ele>82.4</ele>
        <time>2019-07-10T10:48:18Z</time>
      </trkpt>
      <trkpt lat="43.95811" lon="4.05183">
        <ele>83</ele>
        <time>2019-07-10T10:48:23Z</time>
      </trkpt>
      <trkpt lat="43.95809" lon="4.05178">
        <ele>83.2</ele>
        <time>2019-07-10T10:48:24Z</time>
      </trkpt>
      <trkpt lat="43.95808" lon="4.05173">
        <ele>83.2</ele>
        <time>2019-07-10T10:48:25Z</time>
      </trkpt>
      <trkpt lat="43.95806" lon="4.05153">
        <ele>83.6</ele>
        <time>2019-07-10T10:48:29Z</time>
      </trkpt>
      <trkpt lat="43.95807" lon="4.05138">
        <ele>84</ele>
        <time>2019-07-10T10:48:32Z</time>
      </trkpt>
      <trkpt lat="43.95809" lon="4.05123">
        <ele>84.8</ele>
        <time>2019-07-10T10:48:35Z</time>
      </trkpt>
      <trkpt lat="43.9581" lon="4.05118">
        <ele>85</ele>
        <time>2019-07-10T10:48:36Z</time>
      </trkpt>
      <trkpt lat="43.95814" lon="4.05077">
        <ele>86.4</ele>
        <time>2019-07-10T10:48:44Z</time>
      </trkpt>
      <trkpt lat="43.95817" lon="4.05042">
        <ele>87</ele>
        <time>2019-07-10T10:48:51Z</time>
      </trkpt>
      <trkpt lat="43.95818" lon="4.05033">
        <ele>87</ele>
        <time>2019-07-10T10:48:53Z</time>
      </trkpt>
      <trkpt lat="43.95819" lon="4.05028">
        <ele>87.2</ele>
        <time>2019-07-10T10:48:54Z</time>
      </trkpt>
      <trkpt lat="43.95822" lon="4.05001">
        <ele>88</ele>
        <time>2019-07-10T10:49:00Z</time>
      </trkpt>
      <trkpt lat="43.95825" lon="4.04974">
        <ele>88.4</ele>
        <time>2019-07-10T10:49:07Z</time>
      </trkpt>
      <trkpt lat="43.95826" lon="4.04972">
        <ele>88.6</ele>
        <time>2019-07-10T10:49:11Z</time>
      </trkpt>
      <trkpt lat="43.95822" lon="4.04965">
        <ele>89.4</ele>
        <time>2019-07-10T10:50:46Z</time>
      </trkpt>
      <trkpt lat="43.95825" lon="4.04961">
        <ele>89.6</ele>
        <time>2019-07-10T10:50:48Z</time>
      </trkpt>
      <trkpt lat="43.95832" lon="4.04948">
        <ele>90</ele>
        <time>2019-07-10T10:50:53Z</time>
      </trkpt>
      <trkpt lat="43.95839" lon="4.04936">
        <ele>90.6</ele>
        <time>2019-07-10T10:50:58Z</time>
      </trkpt>
      <trkpt lat="43.95843" lon="4.04933">
        <ele>91</ele>
        <time>2019-07-10T10:51:00Z</time>
      </trkpt>
      <trkpt lat="43.95846" lon="4.0493">
        <ele>91.4</ele>
        <time>2019-07-10T10:51:02Z</time>
      </trkpt>
      <trkpt lat="43.95853" lon="4.04923">
        <ele>91.8</ele>
        <time>2019-07-10T10:51:06Z</time>
      </trkpt>
      <trkpt lat="43.95857" lon="4.04919">
        <ele>92.6</ele>
        <time>2019-07-10T10:51:08Z</time>
      </trkpt>
      <trkpt lat="43.95865" lon="4.0491">
        <ele>93.6</ele>
        <time>2019-07-10T10:51:13Z</time>
      </trkpt>
      <trkpt lat="43.95875" lon="4.049">
        <ele>94</ele>
        <time>2019-07-10T10:51:18Z</time>
      </trkpt>
      <trkpt lat="43.95881" lon="4.04894">
        <ele>94.6</ele>
        <time>2019-07-10T10:51:21Z</time>
      </trkpt>
      <trkpt lat="43.95888" lon="4.04881">
        <ele>95.2</ele>
        <time>2019-07-10T10:51:26Z</time>
      </trkpt>
      <trkpt lat="43.95896" lon="4.04865">
        <ele>96.2</ele>
        <time>2019-07-10T10:51:32Z</time>
      </trkpt>
      <trkpt lat="43.959" lon="4.04845">
        <ele>97</ele>
        <time>2019-07-10T10:51:38Z</time>
      </trkpt>
      <trkpt lat="43.95899" lon="4.04829">
        <ele>97.6</ele>
        <time>2019-07-10T10:51:42Z</time>
      </trkpt>
      <trkpt lat="43.95896" lon="4.04802">
        <ele>98</ele>
        <time>2019-07-10T10:51:49Z</time>
      </trkpt>
      <trkpt lat="43.95893" lon="4.04784">
        <ele>98.2</ele>
        <time>2019-07-10T10:51:53Z</time>
      </trkpt>
      <trkpt lat="43.95893" lon="4.04779">
        <ele>98.2</ele>
        <time>2019-07-10T10:51:54Z</time>
      </trkpt>
      <trkpt lat="43.95891" lon="4.04727">
        <ele>99</ele>
        <time>2019-07-10T10:52:04Z</time>
      </trkpt>
      <trkpt lat="43.95894" lon="4.04692">
        <ele>99.4</ele>
        <time>2019-07-10T10:52:11Z</time>
      </trkpt>
      <trkpt lat="43.95895" lon="4.04681">
        <ele>99.4</ele>
        <time>2019-07-10T10:52:13Z</time>
      </trkpt>
      <trkpt lat="43.95896" lon="4.04676">
        <ele>99.4</ele>
        <time>2019-07-10T10:52:14Z</time>
      </trkpt>
      <trkpt lat="43.95897" lon="4.04666">
        <ele>99.2</ele>
        <time>2019-07-10T10:52:16Z</time>
      </trkpt>
      <trkpt lat="43.95898" lon="4.04655">
        <ele>99.4</ele>
        <time>2019-07-10T10:52:18Z</time>
      </trkpt>
      <trkpt lat="43.95899" lon="4.04649">
        <ele>99</ele>
        <time>2019-07-10T10:52:19Z</time>
      </trkpt>
      <trkpt lat="43.959" lon="4.04637">
        <ele>99</ele>
        <time>2019-07-10T10:52:21Z</time>
      </trkpt>
      <trkpt lat="43.95904" lon="4.04603">
        <ele>98.6</ele>
        <time>2019-07-10T10:52:26Z</time>
      </trkpt>
      <trkpt lat="43.95906" lon="4.04581">
        <ele>98.4</ele>
        <time>2019-07-10T10:52:29Z</time>
      </trkpt>
      <trkpt lat="43.95907" lon="4.04573">
        <ele>98.4</ele>
        <time>2019-07-10T10:52:30Z</time>
      </trkpt>
      <trkpt lat="43.95908" lon="4.04565">
        <ele>98.2</ele>
        <time>2019-07-10T10:52:31Z</time>
      </trkpt>
      <trkpt lat="43.9591" lon="4.0455">
        <ele>98</ele>
        <time>2019-07-10T10:52:33Z</time>
      </trkpt>
      <trkpt lat="43.95913" lon="4.04526">
        <ele>97.6</ele>
        <time>2019-07-10T10:52:36Z</time>
      </trkpt>
      <trkpt lat="43.95916" lon="4.04495">
        <ele>96.8</ele>
        <time>2019-07-10T10:52:40Z</time>
      </trkpt>
      <trkpt lat="43.95917" lon="4.04479">
        <ele>96.8</ele>
        <time>2019-07-10T10:52:42Z</time>
      </trkpt>
      <trkpt lat="43.95922" lon="4.04436">
        <ele>96.2</ele>
        <time>2019-07-10T10:52:47Z</time>
      </trkpt>
      <trkpt lat="43.95923" lon="4.04427">
        <ele>96.2</ele>
        <time>2019-07-10T10:52:48Z</time>
      </trkpt>
      <trkpt lat="43.95924" lon="4.04418">
        <ele>96</ele>
        <time>2019-07-10T10:52:49Z</time>
      </trkpt>
      <trkpt lat="43.95925" lon="4.04409">
        <ele>95.8</ele>
        <time>2019-07-10T10:52:50Z</time>
      </trkpt>
      <trkpt lat="43.95927" lon="4.04389">
        <ele>95.4</ele>
        <time>2019-07-10T10:52:52Z</time>
      </trkpt>
      <trkpt lat="43.95929" lon="4.04378">
        <ele>95</ele>
        <time>2019-07-10T10:52:53Z</time>
      </trkpt>
      <trkpt lat="43.95931" lon="4.04357">
        <ele>94.8</ele>
        <time>2019-07-10T10:52:55Z</time>
      </trkpt>
      <trkpt lat="43.95932" lon="4.04347">
        <ele>94.4</ele>
        <time>2019-07-10T10:52:56Z</time>
      </trkpt>
      <trkpt lat="43.95933" lon="4.04336">
        <ele>94.2</ele>
        <time>2019-07-10T10:52:57Z</time>
      </trkpt>
      <trkpt lat="43.95934" lon="4.04326">
        <ele>93.8</ele>
        <time>2019-07-10T10:52:58Z</time>
      </trkpt>
      <trkpt lat="43.95935" lon="4.04315">
        <ele>93.4</ele>
        <time>2019-07-10T10:52:59Z</time>
      </trkpt>
      <trkpt lat="43.95938" lon="4.04285">
        <ele>92.6</ele>
        <time>2019-07-10T10:53:02Z</time>
      </trkpt>
      <trkpt lat="43.95939" lon="4.04276">
        <ele>92.6</ele>
        <time>2019-07-10T10:53:03Z</time>
      </trkpt>
      <trkpt lat="43.9594" lon="4.04267">
        <ele>92.2</ele>
        <time>2019-07-10T10:53:04Z</time>
      </trkpt>
      <trkpt lat="43.95942" lon="4.04243">
        <ele>91.6</ele>
        <time>2019-07-10T10:53:07Z</time>
      </trkpt>
      <trkpt lat="43.95943" lon="4.04236">
        <ele>91.6</ele>
        <time>2019-07-10T10:53:08Z</time>
      </trkpt>
      <trkpt lat="43.95945" lon="4.04222">
        <ele>91.6</ele>
        <time>2019-07-10T10:53:10Z</time>
      </trkpt>
      <trkpt lat="43.95948" lon="4.04192">
        <ele>92.2</ele>
        <time>2019-07-10T10:53:15Z</time>
      </trkpt>
      <trkpt lat="43.95951" lon="4.04164">
        <ele>92.8</ele>
        <time>2019-07-10T10:53:20Z</time>
      </trkpt>
      <trkpt lat="43.95952" lon="4.04159">
        <ele>93.2</ele>
        <time>2019-07-10T10:53:21Z</time>
      </trkpt>
      <trkpt lat="43.95954" lon="4.04139">
        <ele>94</ele>
        <time>2019-07-10T10:53:25Z</time>
      </trkpt>
      <trkpt lat="43.95955" lon="4.04134">
        <ele>94</ele>
        <time>2019-07-10T10:53:26Z</time>
      </trkpt>
      <trkpt lat="43.95956" lon="4.04129">
        <ele>94.4</ele>
        <time>2019-07-10T10:53:27Z</time>
      </trkpt>
      <trkpt lat="43.95957" lon="4.04123">
        <ele>94.6</ele>
        <time>2019-07-10T10:53:28Z</time>
      </trkpt>
      <trkpt lat="43.9596" lon="4.0406">
        <ele>95.4</ele>
        <time>2019-07-10T10:53:38Z</time>
      </trkpt>
      <trkpt lat="43.95958" lon="4.04046">
        <ele>95.6</ele>
        <time>2019-07-10T10:53:40Z</time>
      </trkpt>
      <trkpt lat="43.95957" lon="4.04038">
        <ele>95.8</ele>
        <time>2019-07-10T10:53:41Z</time>
      </trkpt>
      <trkpt lat="43.95954" lon="4.04015">
        <ele>95.8</ele>
        <time>2019-07-10T10:53:44Z</time>
      </trkpt>
      <trkpt lat="43.95948" lon="4.0397">
        <ele>95.6</ele>
        <time>2019-07-10T10:53:50Z</time>
      </trkpt>
      <trkpt lat="43.95948" lon="4.03963">
        <ele>95.6</ele>
        <time>2019-07-10T10:53:51Z</time>
      </trkpt>
      <trkpt lat="43.95947" lon="4.03956">
        <ele>95.6</ele>
        <time>2019-07-10T10:53:52Z</time>
      </trkpt>
      <trkpt lat="43.95941" lon="4.03916">
        <ele>95.8</ele>
        <time>2019-07-10T10:53:58Z</time>
      </trkpt>
      <trkpt lat="43.9594" lon="4.03903">
        <ele>96</ele>
        <time>2019-07-10T10:54:00Z</time>
      </trkpt>
      <trkpt lat="43.95936" lon="4.03876">
        <ele>95.8</ele>
        <time>2019-07-10T10:54:04Z</time>
      </trkpt>
      <trkpt lat="43.95933" lon="4.03853">
        <ele>95.4</ele>
        <time>2019-07-10T10:54:07Z</time>
      </trkpt>
      <trkpt lat="43.95931" lon="4.03837">
        <ele>95.4</ele>
        <time>2019-07-10T10:54:09Z</time>
      </trkpt>
      <trkpt lat="43.9593" lon="4.03829">
        <ele>95.4</ele>
        <time>2019-07-10T10:54:10Z</time>
      </trkpt>
      <trkpt lat="43.95927" lon="4.03805">
        <ele>95.4</ele>
        <time>2019-07-10T10:54:13Z</time>
      </trkpt>
      <trkpt lat="43.95926" lon="4.03797">
        <ele>95.2</ele>
        <time>2019-07-10T10:54:14Z</time>
      </trkpt>
      <trkpt lat="43.95924" lon="4.03782">
        <ele>95.2</ele>
        <time>2019-07-10T10:54:16Z</time>
      </trkpt>
      <trkpt lat="43.95917" lon="4.03731">
        <ele>94.8</ele>
        <time>2019-07-10T10:54:23Z</time>
      </trkpt>
      <trkpt lat="43.95915" lon="4.03717">
        <ele>94.8</ele>
        <time>2019-07-10T10:54:25Z</time>
      </trkpt>
      <trkpt lat="43.95905" lon="4.03682">
        <ele>94.4</ele>
        <time>2019-07-10T10:54:30Z</time>
      </trkpt>
      <trkpt lat="43.95902" lon="4.03675">
        <ele>94.4</ele>
        <time>2019-07-10T10:54:31Z</time>
      </trkpt>
      <trkpt lat="43.95895" lon="4.03663">
        <ele>94.2</ele>
        <time>2019-07-10T10:54:33Z</time>
      </trkpt>
      <trkpt lat="43.95885" lon="4.03651">
        <ele>94</ele>
        <time>2019-07-10T10:54:35Z</time>
      </trkpt>
      <trkpt lat="43.9588" lon="4.03645">
        <ele>94.2</ele>
        <time>2019-07-10T10:54:36Z</time>
      </trkpt>
      <trkpt lat="43.95854" lon="4.03618">
        <ele>93.2</ele>
        <time>2019-07-10T10:54:40Z</time>
      </trkpt>
      <trkpt lat="43.95847" lon="4.03611">
        <ele>92.8</ele>
        <time>2019-07-10T10:54:41Z</time>
      </trkpt>
      <trkpt lat="43.95817" lon="4.03581">
        <ele>92</ele>
        <time>2019-07-10T10:54:45Z</time>
      </trkpt>
      <trkpt lat="43.9581" lon="4.03573">
        <ele>91.8</ele>
        <time>2019-07-10T10:54:46Z</time>
      </trkpt>
      <trkpt lat="43.95795" lon="4.03559">
        <ele>91.4</ele>
        <time>2019-07-10T10:54:48Z</time>
      </trkpt>
      <trkpt lat="43.95757" lon="4.03519">
        <ele>90.8</ele>
        <time>2019-07-10T10:54:54Z</time>
      </trkpt>
      <trkpt lat="43.95739" lon="4.03503">
        <ele>91</ele>
        <time>2019-07-10T10:54:57Z</time>
      </trkpt>
      <trkpt lat="43.95734" lon="4.03497">
        <ele>91</ele>
        <time>2019-07-10T10:54:58Z</time>
      </trkpt>
      <trkpt lat="43.95712" lon="4.03476">
        <ele>91</ele>
        <time>2019-07-10T10:55:02Z</time>
      </trkpt>
      <trkpt lat="43.95684" lon="4.03448">
        <ele>90.4</ele>
        <time>2019-07-10T10:55:07Z</time>
      </trkpt>
      <trkpt lat="43.95678" lon="4.03442">
        <ele>89.8</ele>
        <time>2019-07-10T10:55:08Z</time>
      </trkpt>
      <trkpt lat="43.95671" lon="4.03435">
        <ele>89.4</ele>
        <time>2019-07-10T10:55:09Z</time>
      </trkpt>
      <trkpt lat="43.95664" lon="4.03428">
        <ele>89.2</ele>
        <time>2019-07-10T10:55:10Z</time>
      </trkpt>
      <trkpt lat="43.95633" lon="4.03395">
        <ele>87.6</ele>
        <time>2019-07-10T10:55:15Z</time>
      </trkpt>
      <trkpt lat="43.95623" lon="4.0338">
        <ele>87.2</ele>
        <time>2019-07-10T10:55:17Z</time>
      </trkpt>
      <trkpt lat="43.9562" lon="4.03372">
        <ele>87</ele>
        <time>2019-07-10T10:55:18Z</time>
      </trkpt>
      <trkpt lat="43.95617" lon="4.03364">
        <ele>87</ele>
        <time>2019-07-10T10:55:19Z</time>
      </trkpt>
      <trkpt lat="43.95612" lon="4.03349">
        <ele>86.8</ele>
        <time>2019-07-10T10:55:21Z</time>
      </trkpt>
      <trkpt lat="43.9561" lon="4.03342">
        <ele>86.8</ele>
        <time>2019-07-10T10:55:22Z</time>
      </trkpt>
      <trkpt lat="43.95606" lon="4.03328">
        <ele>86.8</ele>
        <time>2019-07-10T10:55:24Z</time>
      </trkpt>
      <trkpt lat="43.95603" lon="4.03314">
        <ele>86.2</ele>
        <time>2019-07-10T10:55:26Z</time>
      </trkpt>
      <trkpt lat="43.95599" lon="4.03292">
        <ele>86.2</ele>
        <time>2019-07-10T10:55:29Z</time>
      </trkpt>
      <trkpt lat="43.95598" lon="4.03284">
        <ele>86.2</ele>
        <time>2019-07-10T10:55:30Z</time>
      </trkpt>
      <trkpt lat="43.95594" lon="4.03259">
        <ele>86</ele>
        <time>2019-07-10T10:55:33Z</time>
      </trkpt>
      <trkpt lat="43.95592" lon="4.03251">
        <ele>86</ele>
        <time>2019-07-10T10:55:34Z</time>
      </trkpt>
      <trkpt lat="43.9559" lon="4.03243">
        <ele>85.8</ele>
        <time>2019-07-10T10:55:35Z</time>
      </trkpt>
      <trkpt lat="43.95587" lon="4.03234">
        <ele>85.8</ele>
        <time>2019-07-10T10:55:36Z</time>
      </trkpt>
      <trkpt lat="43.95584" lon="4.03226">
        <ele>85.8</ele>
        <time>2019-07-10T10:55:37Z</time>
      </trkpt>
      <trkpt lat="43.95576" lon="4.03208">
        <ele>85.4</ele>
        <time>2019-07-10T10:55:39Z</time>
      </trkpt>
      <trkpt lat="43.95569" lon="4.03187">
        <ele>84.6</ele>
        <time>2019-07-10T10:55:41Z</time>
      </trkpt>
      <trkpt lat="43.95563" lon="4.03164">
        <ele>84.4</ele>
        <time>2019-07-10T10:55:43Z</time>
      </trkpt>
      <trkpt lat="43.95562" lon="4.03152">
        <ele>84.2</ele>
        <time>2019-07-10T10:55:44Z</time>
      </trkpt>
      <trkpt lat="43.95562" lon="4.0314">
        <ele>84</ele>
        <time>2019-07-10T10:55:45Z</time>
      </trkpt>
      <trkpt lat="43.95564" lon="4.03117">
        <ele>82.8</ele>
        <time>2019-07-10T10:55:47Z</time>
      </trkpt>
      <trkpt lat="43.95566" lon="4.03096">
        <ele>82</ele>
        <time>2019-07-10T10:55:49Z</time>
      </trkpt>
      <trkpt lat="43.95566" lon="4.03086">
        <ele>81.6</ele>
        <time>2019-07-10T10:55:50Z</time>
      </trkpt>
      <trkpt lat="43.95569" lon="4.03051">
        <ele>81.4</ele>
        <time>2019-07-10T10:55:54Z</time>
      </trkpt>
      <trkpt lat="43.95569" lon="4.03044">
        <ele>81.4</ele>
        <time>2019-07-10T10:55:55Z</time>
      </trkpt>
      <trkpt lat="43.95571" lon="4.03025">
        <ele>81.8</ele>
        <time>2019-07-10T10:55:58Z</time>
      </trkpt>
      <trkpt lat="43.95572" lon="4.03019">
        <ele>81.8</ele>
        <time>2019-07-10T10:55:59Z</time>
      </trkpt>
      <trkpt lat="43.95573" lon="4.03005">
        <ele>82.2</ele>
        <time>2019-07-10T10:56:02Z</time>
      </trkpt>
      <trkpt lat="43.95573" lon="4.03001">
        <ele>82.2</ele>
        <time>2019-07-10T10:56:03Z</time>
      </trkpt>
      <trkpt lat="43.95574" lon="4.02997">
        <ele>82.4</ele>
        <time>2019-07-10T10:56:04Z</time>
      </trkpt>
      <trkpt lat="43.95576" lon="4.02985">
        <ele>82.8</ele>
        <time>2019-07-10T10:56:07Z</time>
      </trkpt>
      <trkpt lat="43.9558" lon="4.02976">
        <ele>83.2</ele>
        <time>2019-07-10T10:56:10Z</time>
      </trkpt>
      <trkpt lat="43.95597" lon="4.02968">
        <ele>84</ele>
        <time>2019-07-10T10:56:15Z</time>
      </trkpt>
      <trkpt lat="43.95601" lon="4.02966">
        <ele>84.2</ele>
        <time>2019-07-10T10:56:16Z</time>
      </trkpt>
      <trkpt lat="43.95627" lon="4.02958">
        <ele>84.2</ele>
        <time>2019-07-10T10:56:21Z</time>
      </trkpt>
      <trkpt lat="43.95662" lon="4.02949">
        <ele>84</ele>
        <time>2019-07-10T10:56:27Z</time>
      </trkpt>
      <trkpt lat="43.95668" lon="4.02946">
        <ele>83.8</ele>
        <time>2019-07-10T10:56:28Z</time>
      </trkpt>
      <trkpt lat="43.95679" lon="4.02937">
        <ele>83.6</ele>
        <time>2019-07-10T10:56:30Z</time>
      </trkpt>
      <trkpt lat="43.95685" lon="4.02933">
        <ele>83.4</ele>
        <time>2019-07-10T10:56:31Z</time>
      </trkpt>
      <trkpt lat="43.9569" lon="4.02928">
        <ele>83.2</ele>
        <time>2019-07-10T10:56:32Z</time>
      </trkpt>
      <trkpt lat="43.95696" lon="4.02923">
        <ele>83</ele>
        <time>2019-07-10T10:56:33Z</time>
      </trkpt>
      <trkpt lat="43.95712" lon="4.0291">
        <ele>81.8</ele>
        <time>2019-07-10T10:56:36Z</time>
      </trkpt>
      <trkpt lat="43.95718" lon="4.02907">
        <ele>81.2</ele>
        <time>2019-07-10T10:56:37Z</time>
      </trkpt>
      <trkpt lat="43.95736" lon="4.02902">
        <ele>79.6</ele>
        <time>2019-07-10T10:56:40Z</time>
      </trkpt>
      <trkpt lat="43.95747" lon="4.029">
        <ele>79.2</ele>
        <time>2019-07-10T10:56:42Z</time>
      </trkpt>
      <trkpt lat="43.95752" lon="4.02898">
        <ele>78.6</ele>
        <time>2019-07-10T10:56:43Z</time>
      </trkpt>
      <trkpt lat="43.95761" lon="4.02893">
        <ele>77.8</ele>
        <time>2019-07-10T10:56:45Z</time>
      </trkpt>
      <trkpt lat="43.95765" lon="4.02889">
        <ele>76.8</ele>
        <time>2019-07-10T10:56:47Z</time>
      </trkpt>
      <trkpt lat="43.95766" lon="4.02887">
        <ele>76</ele>
        <time>2019-07-10T10:56:50Z</time>
      </trkpt>
      <trkpt lat="43.95767" lon="4.02882">
        <ele>75.4</ele>
        <time>2019-07-10T10:56:52Z</time>
      </trkpt>
      <trkpt lat="43.95767" lon="4.02878">
        <ele>75.2</ele>
        <time>2019-07-10T10:56:53Z</time>
      </trkpt>
      <trkpt lat="43.95765" lon="4.02864">
        <ele>74.8</ele>
        <time>2019-07-10T10:56:56Z</time>
      </trkpt>
      <trkpt lat="43.9576" lon="4.02829">
        <ele>74.4</ele>
        <time>2019-07-10T10:57:02Z</time>
      </trkpt>
      <trkpt lat="43.95758" lon="4.02817">
        <ele>74.6</ele>
        <time>2019-07-10T10:57:04Z</time>
      </trkpt>
      <trkpt lat="43.95757" lon="4.02806">
        <ele>74.6</ele>
        <time>2019-07-10T10:57:06Z</time>
      </trkpt>
      <trkpt lat="43.95755" lon="4.02789">
        <ele>74.8</ele>
        <time>2019-07-10T10:57:09Z</time>
      </trkpt>
      <trkpt lat="43.95751" lon="4.02757">
        <ele>75.2</ele>
        <time>2019-07-10T10:57:14Z</time>
      </trkpt>
      <trkpt lat="43.95751" lon="4.02751">
        <ele>75.4</ele>
        <time>2019-07-10T10:57:15Z</time>
      </trkpt>
      <trkpt lat="43.9575" lon="4.02737">
        <ele>75.2</ele>
        <time>2019-07-10T10:57:17Z</time>
      </trkpt>
      <trkpt lat="43.95749" lon="4.02731">
        <ele>75.4</ele>
        <time>2019-07-10T10:57:18Z</time>
      </trkpt>
      <trkpt lat="43.9575" lon="4.02718">
        <ele>75.4</ele>
        <time>2019-07-10T10:57:20Z</time>
      </trkpt>
      <trkpt lat="43.95754" lon="4.02692">
        <ele>75.2</ele>
        <time>2019-07-10T10:57:24Z</time>
      </trkpt>
      <trkpt lat="43.95756" lon="4.02686">
        <ele>75.2</ele>
        <time>2019-07-10T10:57:25Z</time>
      </trkpt>
      <trkpt lat="43.9576" lon="4.02675">
        <ele>75.4</ele>
        <time>2019-07-10T10:57:27Z</time>
      </trkpt>
      <trkpt lat="43.95763" lon="4.0267">
        <ele>75.2</ele>
        <time>2019-07-10T10:57:28Z</time>
      </trkpt>
      <trkpt lat="43.95765" lon="4.02665">
        <ele>75.2</ele>
        <time>2019-07-10T10:57:29Z</time>
      </trkpt>
      <trkpt lat="43.95768" lon="4.0266">
        <ele>75.4</ele>
        <time>2019-07-10T10:57:30Z</time>
      </trkpt>
      <trkpt lat="43.95786" lon="4.02628">
        <ele>76.4</ele>
        <time>2019-07-10T10:57:37Z</time>
      </trkpt>
      <trkpt lat="43.95804" lon="4.02587">
        <ele>76.2</ele>
        <time>2019-07-10T10:57:45Z</time>
      </trkpt>
      <trkpt lat="43.95815" lon="4.02536">
        <ele>75.6</ele>
        <time>2019-07-10T10:57:53Z</time>
      </trkpt>
      <trkpt lat="43.95815" lon="4.02486">
        <ele>75.4</ele>
        <time>2019-07-10T10:58:00Z</time>
      </trkpt>
      <trkpt lat="43.95814" lon="4.02479">
        <ele>75.4</ele>
        <time>2019-07-10T10:58:01Z</time>
      </trkpt>
      <trkpt lat="43.95807" lon="4.0242">
        <ele>74.2</ele>
        <time>2019-07-10T10:58:09Z</time>
      </trkpt>
      <trkpt lat="43.958" lon="4.02364">
        <ele>74.4</ele>
        <time>2019-07-10T10:58:17Z</time>
      </trkpt>
      <trkpt lat="43.95792" lon="4.02297">
        <ele>74.8</ele>
        <time>2019-07-10T10:58:27Z</time>
      </trkpt>
      <trkpt lat="43.95783" lon="4.02229">
        <ele>74.6</ele>
        <time>2019-07-10T10:58:38Z</time>
      </trkpt>
      <trkpt lat="43.95782" lon="4.02217">
        <ele>74.8</ele>
        <time>2019-07-10T10:58:40Z</time>
      </trkpt>
      <trkpt lat="43.95779" lon="4.02195">
        <ele>74.8</ele>
        <time>2019-07-10T10:58:44Z</time>
      </trkpt>
      <trkpt lat="43.95778" lon="4.0219">
        <ele>75</ele>
        <time>2019-07-10T10:58:45Z</time>
      </trkpt>
      <trkpt lat="43.95777" lon="4.02185">
        <ele>75.2</ele>
        <time>2019-07-10T10:58:46Z</time>
      </trkpt>
      <trkpt lat="43.95773" lon="4.02152">
        <ele>76.8</ele>
        <time>2019-07-10T10:58:53Z</time>
      </trkpt>
      <trkpt lat="43.95767" lon="4.0212">
        <ele>77.8</ele>
        <time>2019-07-10T10:59:01Z</time>
      </trkpt>
      <trkpt lat="43.95756" lon="4.02089">
        <ele>78.4</ele>
        <time>2019-07-10T10:59:08Z</time>
      </trkpt>
      <trkpt lat="43.95753" lon="4.02079">
        <ele>78.8</ele>
        <time>2019-07-10T10:59:10Z</time>
      </trkpt>
      <trkpt lat="43.95741" lon="4.02051">
        <ele>79.4</ele>
        <time>2019-07-10T10:59:16Z</time>
      </trkpt>
      <trkpt lat="43.95729" lon="4.02023">
        <ele>80.4</ele>
        <time>2019-07-10T10:59:22Z</time>
      </trkpt>
      <trkpt lat="43.95726" lon="4.02014">
        <ele>80.4</ele>
        <time>2019-07-10T10:59:24Z</time>
      </trkpt>
      <trkpt lat="43.95718" lon="4.01996">
        <ele>81</ele>
        <time>2019-07-10T10:59:29Z</time>
      </trkpt>
      <trkpt lat="43.95715" lon="4.01988">
        <ele>81.2</ele>
        <time>2019-07-10T10:59:31Z</time>
      </trkpt>
      <trkpt lat="43.95703" lon="4.01959">
        <ele>82.2</ele>
        <time>2019-07-10T10:59:37Z</time>
      </trkpt>
      <trkpt lat="43.95689" lon="4.01923">
        <ele>82.6</ele>
        <time>2019-07-10T10:59:43Z</time>
      </trkpt>
      <trkpt lat="43.95678" lon="4.01897">
        <ele>82.6</ele>
        <time>2019-07-10T10:59:47Z</time>
      </trkpt>
      <trkpt lat="43.95662" lon="4.01861">
        <ele>83</ele>
        <time>2019-07-10T10:59:53Z</time>
      </trkpt>
      <trkpt lat="43.9566" lon="4.01854">
        <ele>83</ele>
        <time>2019-07-10T10:59:54Z</time>
      </trkpt>
      <trkpt lat="43.95658" lon="4.01848">
        <ele>83.2</ele>
        <time>2019-07-10T10:59:55Z</time>
      </trkpt>
      <trkpt lat="43.95655" lon="4.01842">
        <ele>83.2</ele>
        <time>2019-07-10T10:59:56Z</time>
      </trkpt>
      <trkpt lat="43.95648" lon="4.01824">
        <ele>83.4</ele>
        <time>2019-07-10T10:59:59Z</time>
      </trkpt>
      <trkpt lat="43.95634" lon="4.01783">
        <ele>83.6</ele>
        <time>2019-07-10T11:00:06Z</time>
      </trkpt>
      <trkpt lat="43.95624" lon="4.01739">
        <ele>83.8</ele>
        <time>2019-07-10T11:00:14Z</time>
      </trkpt>
      <trkpt lat="43.95616" lon="4.01702">
        <ele>84</ele>
        <time>2019-07-10T11:00:20Z</time>
      </trkpt>
      <trkpt lat="43.95611" lon="4.01678">
        <ele>84.2</ele>
        <time>2019-07-10T11:00:24Z</time>
      </trkpt>
      <trkpt lat="43.956" lon="4.01628">
        <ele>84.4</ele>
        <time>2019-07-10T11:00:31Z</time>
      </trkpt>
      <trkpt lat="43.95587" lon="4.01566">
        <ele>83.6</ele>
        <time>2019-07-10T11:00:38Z</time>
      </trkpt>
      <trkpt lat="43.95585" lon="4.01557">
        <ele>83.4</ele>
        <time>2019-07-10T11:00:39Z</time>
      </trkpt>
      <trkpt lat="43.95581" lon="4.0154">
        <ele>83.4</ele>
        <time>2019-07-10T11:00:40Z</time>
      </trkpt>
      <trkpt lat="43.95576" lon="4.01513">
        <ele>82.6</ele>
        <time>2019-07-10T11:00:44Z</time>
      </trkpt>
      <trkpt lat="43.9557" lon="4.01488">
        <ele>81.8</ele>
        <time>2019-07-10T11:00:47Z</time>
      </trkpt>
      <trkpt lat="43.95567" lon="4.01472">
        <ele>81.6</ele>
        <time>2019-07-10T11:00:49Z</time>
      </trkpt>
      <trkpt lat="43.95557" lon="4.01426">
        <ele>81.6</ele>
        <time>2019-07-10T11:00:54Z</time>
      </trkpt>
      <trkpt lat="43.95547" lon="4.01378">
        <ele>82.2</ele>
        <time>2019-07-10T11:01:01Z</time>
      </trkpt>
      <trkpt lat="43.95545" lon="4.01372">
        <ele>82.6</ele>
        <time>2019-07-10T11:01:03Z</time>
      </trkpt>
      <trkpt lat="43.95537" lon="4.01337">
        <ele>83</ele>
        <time>2019-07-10T11:01:09Z</time>
      </trkpt>
      <trkpt lat="43.95534" lon="4.01324">
        <ele>83.6</ele>
        <time>2019-07-10T11:01:12Z</time>
      </trkpt>
      <trkpt lat="43.9553" lon="4.01303">
        <ele>84.2</ele>
        <time>2019-07-10T11:01:17Z</time>
      </trkpt>
      <trkpt lat="43.9553" lon="4.01298">
        <ele>84.4</ele>
        <time>2019-07-10T11:01:19Z</time>
      </trkpt>
      <trkpt lat="43.95521" lon="4.01253">
        <ele>86</ele>
        <time>2019-07-10T11:01:28Z</time>
      </trkpt>
      <trkpt lat="43.95521" lon="4.01253">
        <ele>86.2</ele>
        <time>2019-07-10T11:01:29Z</time>
      </trkpt>
      <trkpt lat="43.95517" lon="4.01206">
        <ele>86.6</ele>
        <time>2019-07-10T11:01:36Z</time>
      </trkpt>
      <trkpt lat="43.95517" lon="4.01162">
        <ele>86.4</ele>
        <time>2019-07-10T11:01:42Z</time>
      </trkpt>
      <trkpt lat="43.95516" lon="4.01137">
        <ele>86.4</ele>
        <time>2019-07-10T11:01:45Z</time>
      </trkpt>
      <trkpt lat="43.95514" lon="4.01068">
        <ele>86.2</ele>
        <time>2019-07-10T11:01:54Z</time>
      </trkpt>
      <trkpt lat="43.95511" lon="4.00987">
        <ele>86</ele>
        <time>2019-07-10T11:02:04Z</time>
      </trkpt>
      <trkpt lat="43.95511" lon="4.00964">
        <ele>85.8</ele>
        <time>2019-07-10T11:02:07Z</time>
      </trkpt>
      <trkpt lat="43.95509" lon="4.00916">
        <ele>85.8</ele>
        <time>2019-07-10T11:02:13Z</time>
      </trkpt>
      <trkpt lat="43.95507" lon="4.00839">
        <ele>84.8</ele>
        <time>2019-07-10T11:02:21Z</time>
      </trkpt>
      <trkpt lat="43.95507" lon="4.00839">
        <ele>84.8</ele>
        <time>2019-07-10T11:02:22Z</time>
      </trkpt>
      <trkpt lat="43.95504" lon="4.00757">
        <ele>84</ele>
        <time>2019-07-10T11:02:31Z</time>
      </trkpt>
      <trkpt lat="43.95503" lon="4.00749">
        <ele>84</ele>
        <time>2019-07-10T11:02:32Z</time>
      </trkpt>
      <trkpt lat="43.9549" lon="4.00702">
        <ele>83.8</ele>
        <time>2019-07-10T11:02:38Z</time>
      </trkpt>
      <trkpt lat="43.95462" lon="4.00633">
        <ele>83.6</ele>
        <time>2019-07-10T11:02:47Z</time>
      </trkpt>
      <trkpt lat="43.95437" lon="4.00565">
        <ele>83</ele>
        <time>2019-07-10T11:02:57Z</time>
      </trkpt>
      <trkpt lat="43.95428" lon="4.00543">
        <ele>82.8</ele>
        <time>2019-07-10T11:02:59Z</time>
      </trkpt>
      <trkpt lat="43.95419" lon="4.00523">
        <ele>82.8</ele>
        <time>2019-07-10T11:03:02Z</time>
      </trkpt>
      <trkpt lat="43.95411" lon="4.00513">
        <ele>82.8</ele>
        <time>2019-07-10T11:03:04Z</time>
      </trkpt>
      <trkpt lat="43.95381" lon="4.00488">
        <ele>83.2</ele>
        <time>2019-07-10T11:03:12Z</time>
      </trkpt>
      <trkpt lat="43.95364" lon="4.00471">
        <ele>83.4</ele>
        <time>2019-07-10T11:03:15Z</time>
      </trkpt>
      <trkpt lat="43.95358" lon="4.00459">
        <ele>83.6</ele>
        <time>2019-07-10T11:03:18Z</time>
      </trkpt>
      <trkpt lat="43.95352" lon="4.00447">
        <ele>83.6</ele>
        <time>2019-07-10T11:03:20Z</time>
      </trkpt>
      <trkpt lat="43.95342" lon="4.0043">
        <ele>83.8</ele>
        <time>2019-07-10T11:03:22Z</time>
      </trkpt>
      <trkpt lat="43.95335" lon="4.0042">
        <ele>83.8</ele>
        <time>2019-07-10T11:03:25Z</time>
      </trkpt>
      <trkpt lat="43.95327" lon="4.0041">
        <ele>83.6</ele>
        <time>2019-07-10T11:03:26Z</time>
      </trkpt>
      <trkpt lat="43.95323" lon="4.00405">
        <ele>83.4</ele>
        <time>2019-07-10T11:03:27Z</time>
      </trkpt>
      <trkpt lat="43.95315" lon="4.00397">
        <ele>83.6</ele>
        <time>2019-07-10T11:03:29Z</time>
      </trkpt>
      <trkpt lat="43.9531" lon="4.00392">
        <ele>83.6</ele>
        <time>2019-07-10T11:03:30Z</time>
      </trkpt>
      <trkpt lat="43.9529" lon="4.0037">
        <ele>83.4</ele>
        <time>2019-07-10T11:03:36Z</time>
      </trkpt>
      <trkpt lat="43.95282" lon="4.0036">
        <ele>83.8</ele>
        <time>2019-07-10T11:03:37Z</time>
      </trkpt>
      <trkpt lat="43.95271" lon="4.00337">
        <ele>84.2</ele>
        <time>2019-07-10T11:03:41Z</time>
      </trkpt>
      <trkpt lat="43.95253" lon="4.00296">
        <ele>84.6</ele>
        <time>2019-07-10T11:03:49Z</time>
      </trkpt>
      <trkpt lat="43.95243" lon="4.00277">
        <ele>84.8</ele>
        <time>2019-07-10T11:03:53Z</time>
      </trkpt>
      <trkpt lat="43.95223" lon="4.00243">
        <ele>85.4</ele>
        <time>2019-07-10T11:04:00Z</time>
      </trkpt>
      <trkpt lat="43.95192" lon="4.00198">
        <ele>86</ele>
        <time>2019-07-10T11:04:11Z</time>
      </trkpt>
      <trkpt lat="43.95186" lon="4.0019">
        <ele>86.2</ele>
        <time>2019-07-10T11:04:12Z</time>
      </trkpt>
      <trkpt lat="43.95166" lon="4.00163">
        <ele>86.6</ele>
        <time>2019-07-10T11:04:19Z</time>
      </trkpt>
      <trkpt lat="43.95162" lon="4.00156">
        <ele>87</ele>
        <time>2019-07-10T11:04:21Z</time>
      </trkpt>
      <trkpt lat="43.95149" lon="4.00139">
        <ele>87.6</ele>
        <time>2019-07-10T11:04:27Z</time>
      </trkpt>
      <trkpt lat="43.95139" lon="4.00125">
        <ele>88.2</ele>
        <time>2019-07-10T11:04:30Z</time>
      </trkpt>
      <trkpt lat="43.95118" lon="4.00097">
        <ele>88.8</ele>
        <time>2019-07-10T11:04:37Z</time>
      </trkpt>
      <trkpt lat="43.95093" lon="4.00063">
        <ele>88.8</ele>
        <time>2019-07-10T11:04:43Z</time>
      </trkpt>
      <trkpt lat="43.95084" lon="4.00051">
        <ele>88.6</ele>
        <time>2019-07-10T11:04:45Z</time>
      </trkpt>
      <trkpt lat="43.95073" lon="4.00034">
        <ele>88.4</ele>
        <time>2019-07-10T11:04:48Z</time>
      </trkpt>
      <trkpt lat="43.95064" lon="4.00016">
        <ele>88.2</ele>
        <time>2019-07-10T11:04:51Z</time>
      </trkpt>
      <trkpt lat="43.95057" lon="3.99998">
        <ele>88</ele>
        <time>2019-07-10T11:04:54Z</time>
      </trkpt>
      <trkpt lat="43.95054" lon="3.99986">
        <ele>88.2</ele>
        <time>2019-07-10T11:04:56Z</time>
      </trkpt>
      <trkpt lat="43.95038" lon="3.99949">
        <ele>88.4</ele>
        <time>2019-07-10T11:05:03Z</time>
      </trkpt>
      <trkpt lat="43.95027" lon="3.99916">
        <ele>88.6</ele>
        <time>2019-07-10T11:05:10Z</time>
      </trkpt>
      <trkpt lat="43.95017" lon="3.9989">
        <ele>88.8</ele>
        <time>2019-07-10T11:05:14Z</time>
      </trkpt>
      <trkpt lat="43.95017" lon="3.9989">
        <ele>88.8</ele>
        <time>2019-07-10T11:05:15Z</time>
      </trkpt>
      <trkpt lat="43.9501" lon="3.99873">
        <ele>89.2</ele>
        <time>2019-07-10T11:05:17Z</time>
      </trkpt>
      <trkpt lat="43.95004" lon="3.99857">
        <ele>89.8</ele>
        <time>2019-07-10T11:05:21Z</time>
      </trkpt>
      <trkpt lat="43.94992" lon="3.99824">
        <ele>90</ele>
        <time>2019-07-10T11:05:27Z</time>
      </trkpt>
      <trkpt lat="43.94986" lon="3.99809">
        <ele>90.4</ele>
        <time>2019-07-10T11:05:30Z</time>
      </trkpt>
      <trkpt lat="43.94971" lon="3.99769">
        <ele>91.2</ele>
        <time>2019-07-10T11:05:38Z</time>
      </trkpt>
      <trkpt lat="43.94965" lon="3.99753">
        <ele>91.4</ele>
        <time>2019-07-10T11:05:41Z</time>
      </trkpt>
      <trkpt lat="43.94948" lon="3.99704">
        <ele>92.4</ele>
        <time>2019-07-10T11:05:50Z</time>
      </trkpt>
      <trkpt lat="43.94938" lon="3.99675">
        <ele>92.8</ele>
        <time>2019-07-10T11:05:55Z</time>
      </trkpt>
      <trkpt lat="43.9493" lon="3.99652">
        <ele>93.2</ele>
        <time>2019-07-10T11:05:59Z</time>
      </trkpt>
      <trkpt lat="43.94926" lon="3.9964">
        <ele>93.2</ele>
        <time>2019-07-10T11:06:01Z</time>
      </trkpt>
      <trkpt lat="43.94912" lon="3.99599">
        <ele>93.4</ele>
        <time>2019-07-10T11:06:08Z</time>
      </trkpt>
      <trkpt lat="43.94908" lon="3.99588">
        <ele>93.6</ele>
        <time>2019-07-10T11:06:10Z</time>
      </trkpt>
      <trkpt lat="43.94906" lon="3.99582">
        <ele>93.8</ele>
        <time>2019-07-10T11:06:11Z</time>
      </trkpt>
      <trkpt lat="43.94897" lon="3.99554">
        <ele>94.2</ele>
        <time>2019-07-10T11:06:16Z</time>
      </trkpt>
      <trkpt lat="43.94887" lon="3.99526">
        <ele>94.8</ele>
        <time>2019-07-10T11:06:21Z</time>
      </trkpt>
      <trkpt lat="43.94873" lon="3.99483">
        <ele>95.2</ele>
        <time>2019-07-10T11:06:29Z</time>
      </trkpt>
      <trkpt lat="43.94866" lon="3.99463">
        <ele>95.6</ele>
        <time>2019-07-10T11:06:33Z</time>
      </trkpt>
      <trkpt lat="43.94857" lon="3.99437">
        <ele>96</ele>
        <time>2019-07-10T11:06:38Z</time>
      </trkpt>
      <trkpt lat="43.9484" lon="3.99388">
        <ele>97.6</ele>
        <time>2019-07-10T11:06:48Z</time>
      </trkpt>
      <trkpt lat="43.9483" lon="3.99359">
        <ele>98</ele>
        <time>2019-07-10T11:06:55Z</time>
      </trkpt>
      <trkpt lat="43.94819" lon="3.99325">
        <ele>98.6</ele>
        <time>2019-07-10T11:07:01Z</time>
      </trkpt>
      <trkpt lat="43.94811" lon="3.99301">
        <ele>99.4</ele>
        <time>2019-07-10T11:07:07Z</time>
      </trkpt>
      <trkpt lat="43.94806" lon="3.99285">
        <ele>99.8</ele>
        <time>2019-07-10T11:07:11Z</time>
      </trkpt>
      <trkpt lat="43.94801" lon="3.99274">
        <ele>100.2</ele>
        <time>2019-07-10T11:07:14Z</time>
      </trkpt>
      <trkpt lat="43.94795" lon="3.99255">
        <ele>101</ele>
        <time>2019-07-10T11:07:19Z</time>
      </trkpt>
      <trkpt lat="43.94788" lon="3.99236">
        <ele>101.8</ele>
        <time>2019-07-10T11:07:24Z</time>
      </trkpt>
      <trkpt lat="43.94786" lon="3.9923">
        <ele>102.2</ele>
        <time>2019-07-10T11:07:26Z</time>
      </trkpt>
      <trkpt lat="43.9478" lon="3.99209">
        <ele>103.2</ele>
        <time>2019-07-10T11:07:32Z</time>
      </trkpt>
      <trkpt lat="43.94778" lon="3.99205">
        <ele>103.6</ele>
        <time>2019-07-10T11:07:34Z</time>
      </trkpt>
      <trkpt lat="43.9477" lon="3.99181">
        <ele>104.6</ele>
        <time>2019-07-10T11:07:40Z</time>
      </trkpt>
      <trkpt lat="43.94768" lon="3.99174">
        <ele>105</ele>
        <time>2019-07-10T11:07:42Z</time>
      </trkpt>
      <trkpt lat="43.94761" lon="3.99155">
        <ele>105.6</ele>
        <time>2019-07-10T11:07:47Z</time>
      </trkpt>
      <trkpt lat="43.94756" lon="3.99141">
        <ele>106.6</ele>
        <time>2019-07-10T11:07:51Z</time>
      </trkpt>
      <trkpt lat="43.94754" lon="3.99134">
        <ele>107</ele>
        <time>2019-07-10T11:07:53Z</time>
      </trkpt>
      <trkpt lat="43.94747" lon="3.99115">
        <ele>108</ele>
        <time>2019-07-10T11:07:58Z</time>
      </trkpt>
      <trkpt lat="43.94743" lon="3.99104">
        <ele>108</ele>
        <time>2019-07-10T11:08:01Z</time>
      </trkpt>
      <trkpt lat="43.94738" lon="3.99085">
        <ele>108.8</ele>
        <time>2019-07-10T11:08:06Z</time>
      </trkpt>
      <trkpt lat="43.94737" lon="3.99081">
        <ele>109.2</ele>
        <time>2019-07-10T11:08:07Z</time>
      </trkpt>
      <trkpt lat="43.94732" lon="3.9907">
        <ele>109.8</ele>
        <time>2019-07-10T11:08:10Z</time>
      </trkpt>
      <trkpt lat="43.94731" lon="3.99066">
        <ele>110.2</ele>
        <time>2019-07-10T11:08:12Z</time>
      </trkpt>
      <trkpt lat="43.94727" lon="3.99044">
        <ele>110.6</ele>
        <time>2019-07-10T11:08:16Z</time>
      </trkpt>
      <trkpt lat="43.94727" lon="3.9903">
        <ele>111.4</ele>
        <time>2019-07-10T11:08:20Z</time>
      </trkpt>
      <trkpt lat="43.94728" lon="3.99023">
        <ele>111.6</ele>
        <time>2019-07-10T11:08:22Z</time>
      </trkpt>
      <trkpt lat="43.94729" lon="3.99017">
        <ele>112</ele>
        <time>2019-07-10T11:08:24Z</time>
      </trkpt>
      <trkpt lat="43.94735" lon="3.98993">
        <ele>113.4</ele>
        <time>2019-07-10T11:08:31Z</time>
      </trkpt>
      <trkpt lat="43.94736" lon="3.9899">
        <ele>113.6</ele>
        <time>2019-07-10T11:08:32Z</time>
      </trkpt>
      <trkpt lat="43.94739" lon="3.98975">
        <ele>114.2</ele>
        <time>2019-07-10T11:08:36Z</time>
      </trkpt>
      <trkpt lat="43.94743" lon="3.98962">
        <ele>115</ele>
        <time>2019-07-10T11:08:39Z</time>
      </trkpt>
      <trkpt lat="43.94747" lon="3.98947">
        <ele>115.4</ele>
        <time>2019-07-10T11:08:42Z</time>
      </trkpt>
      <trkpt lat="43.94754" lon="3.9892">
        <ele>115.8</ele>
        <time>2019-07-10T11:08:48Z</time>
      </trkpt>
      <trkpt lat="43.94762" lon="3.98891">
        <ele>116.4</ele>
        <time>2019-07-10T11:08:55Z</time>
      </trkpt>
      <trkpt lat="43.94763" lon="3.98862">
        <ele>116.6</ele>
        <time>2019-07-10T11:09:02Z</time>
      </trkpt>
      <trkpt lat="43.9476" lon="3.98835">
        <ele>116.6</ele>
        <time>2019-07-10T11:09:07Z</time>
      </trkpt>
      <trkpt lat="43.94751" lon="3.98794">
        <ele>116.2</ele>
        <time>2019-07-10T11:09:13Z</time>
      </trkpt>
      <trkpt lat="43.9475" lon="3.98785">
        <ele>116.2</ele>
        <time>2019-07-10T11:09:14Z</time>
      </trkpt>
      <trkpt lat="43.94746" lon="3.98767">
        <ele>116.2</ele>
        <time>2019-07-10T11:09:16Z</time>
      </trkpt>
      <trkpt lat="43.94739" lon="3.98728">
        <ele>115.4</ele>
        <time>2019-07-10T11:09:20Z</time>
      </trkpt>
      <trkpt lat="43.94738" lon="3.98717">
        <ele>114.8</ele>
        <time>2019-07-10T11:09:21Z</time>
      </trkpt>
      <trkpt lat="43.94733" lon="3.98659">
        <ele>113.6</ele>
        <time>2019-07-10T11:09:26Z</time>
      </trkpt>
      <trkpt lat="43.94725" lon="3.98597">
        <ele>112.6</ele>
        <time>2019-07-10T11:09:31Z</time>
      </trkpt>
      <trkpt lat="43.94723" lon="3.98585">
        <ele>112.6</ele>
        <time>2019-07-10T11:09:32Z</time>
      </trkpt>
      <trkpt lat="43.94719" lon="3.98538">
        <ele>111.8</ele>
        <time>2019-07-10T11:09:36Z</time>
      </trkpt>
      <trkpt lat="43.94718" lon="3.98517">
        <ele>111.2</ele>
        <time>2019-07-10T11:09:38Z</time>
      </trkpt>
      <trkpt lat="43.94712" lon="3.98461">
        <ele>110</ele>
        <time>2019-07-10T11:09:44Z</time>
      </trkpt>
      <trkpt lat="43.9471" lon="3.98451">
        <ele>110</ele>
        <time>2019-07-10T11:09:45Z</time>
      </trkpt>
      <trkpt lat="43.94699" lon="3.98408">
        <ele>109.2</ele>
        <time>2019-07-10T11:09:49Z</time>
      </trkpt>
      <trkpt lat="43.94696" lon="3.98396">
        <ele>109</ele>
        <time>2019-07-10T11:09:50Z</time>
      </trkpt>
      <trkpt lat="43.94691" lon="3.98372">
        <ele>108.8</ele>
        <time>2019-07-10T11:09:52Z</time>
      </trkpt>
      <trkpt lat="43.94685" lon="3.98332">
        <ele>108</ele>
        <time>2019-07-10T11:09:55Z</time>
      </trkpt>
      <trkpt lat="43.94681" lon="3.98304">
        <ele>107</ele>
        <time>2019-07-10T11:09:57Z</time>
      </trkpt>
      <trkpt lat="43.94678" lon="3.9829">
        <ele>106.2</ele>
        <time>2019-07-10T11:09:58Z</time>
      </trkpt>
      <trkpt lat="43.94675" lon="3.98275">
        <ele>106</ele>
        <time>2019-07-10T11:09:59Z</time>
      </trkpt>
      <trkpt lat="43.9467" lon="3.98262">
        <ele>105.8</ele>
        <time>2019-07-10T11:10:00Z</time>
      </trkpt>
      <trkpt lat="43.94663" lon="3.98249">
        <ele>105.4</ele>
        <time>2019-07-10T11:10:01Z</time>
      </trkpt>
      <trkpt lat="43.94656" lon="3.98236">
        <ele>105.2</ele>
        <time>2019-07-10T11:10:02Z</time>
      </trkpt>
      <trkpt lat="43.94648" lon="3.98223">
        <ele>104</ele>
        <time>2019-07-10T11:10:03Z</time>
      </trkpt>
      <trkpt lat="43.94632" lon="3.98197">
        <ele>102.2</ele>
        <time>2019-07-10T11:10:05Z</time>
      </trkpt>
      <trkpt lat="43.94618" lon="3.98168">
        <ele>100.6</ele>
        <time>2019-07-10T11:10:07Z</time>
      </trkpt>
      <trkpt lat="43.94613" lon="3.98152">
        <ele>99.4</ele>
        <time>2019-07-10T11:10:08Z</time>
      </trkpt>
      <trkpt lat="43.946" lon="3.98106">
        <ele>97.4</ele>
        <time>2019-07-10T11:10:11Z</time>
      </trkpt>
      <trkpt lat="43.94589" lon="3.9806">
        <ele>95.4</ele>
        <time>2019-07-10T11:10:14Z</time>
      </trkpt>
      <trkpt lat="43.94578" lon="3.98017">
        <ele>94.4</ele>
        <time>2019-07-10T11:10:17Z</time>
      </trkpt>
      <trkpt lat="43.94565" lon="3.97967">
        <ele>93</ele>
        <time>2019-07-10T11:10:21Z</time>
      </trkpt>
      <trkpt lat="43.94559" lon="3.97957">
        <ele>92.8</ele>
        <time>2019-07-10T11:10:22Z</time>
      </trkpt>
      <trkpt lat="43.94546" lon="3.97941">
        <ele>92.4</ele>
        <time>2019-07-10T11:10:24Z</time>
      </trkpt>
      <trkpt lat="43.94527" lon="3.97918">
        <ele>91.6</ele>
        <time>2019-07-10T11:10:27Z</time>
      </trkpt>
      <trkpt lat="43.94488" lon="3.97873">
        <ele>90.4</ele>
        <time>2019-07-10T11:10:34Z</time>
      </trkpt>
      <trkpt lat="43.94452" lon="3.97829">
        <ele>90.6</ele>
        <time>2019-07-10T11:10:41Z</time>
      </trkpt>
      <trkpt lat="43.9441" lon="3.9778">
        <ele>90.6</ele>
        <time>2019-07-10T11:10:49Z</time>
      </trkpt>
      <trkpt lat="43.94406" lon="3.97775">
        <ele>90.6</ele>
        <time>2019-07-10T11:10:50Z</time>
      </trkpt>
      <trkpt lat="43.94387" lon="3.97753">
        <ele>90.8</ele>
        <time>2019-07-10T11:10:55Z</time>
      </trkpt>
      <trkpt lat="43.94361" lon="3.97722">
        <ele>92.2</ele>
        <time>2019-07-10T11:11:03Z</time>
      </trkpt>
      <trkpt lat="43.94354" lon="3.97714">
        <ele>92.6</ele>
        <time>2019-07-10T11:11:05Z</time>
      </trkpt>
      <trkpt lat="43.9433" lon="3.97684">
        <ele>92.6</ele>
        <time>2019-07-10T11:11:11Z</time>
      </trkpt>
      <trkpt lat="43.94297" lon="3.97645">
        <ele>92</ele>
        <time>2019-07-10T11:11:17Z</time>
      </trkpt>
      <trkpt lat="43.9427" lon="3.97612">
        <ele>91.4</ele>
        <time>2019-07-10T11:11:22Z</time>
      </trkpt>
      <trkpt lat="43.94256" lon="3.97595">
        <ele>91</ele>
        <time>2019-07-10T11:11:25Z</time>
      </trkpt>
      <trkpt lat="43.94227" lon="3.97562">
        <ele>90.8</ele>
        <time>2019-07-10T11:11:32Z</time>
      </trkpt>
      <trkpt lat="43.94208" lon="3.9754">
        <ele>91.4</ele>
        <time>2019-07-10T11:11:38Z</time>
      </trkpt>
      <trkpt lat="43.94186" lon="3.97512">
        <ele>92.2</ele>
        <time>2019-07-10T11:11:45Z</time>
      </trkpt>
      <trkpt lat="43.94164" lon="3.97486">
        <ele>92.4</ele>
        <time>2019-07-10T11:11:50Z</time>
      </trkpt>
      <trkpt lat="43.94159" lon="3.9748">
        <ele>92.2</ele>
        <time>2019-07-10T11:11:51Z</time>
      </trkpt>
      <trkpt lat="43.94143" lon="3.97459">
        <ele>92</ele>
        <time>2019-07-10T11:11:54Z</time>
      </trkpt>
      <trkpt lat="43.94125" lon="3.97438">
        <ele>91.6</ele>
        <time>2019-07-10T11:11:57Z</time>
      </trkpt>
      <trkpt lat="43.94083" lon="3.97388">
        <ele>90.2</ele>
        <time>2019-07-10T11:12:04Z</time>
      </trkpt>
      <trkpt lat="43.94077" lon="3.97382">
        <ele>90.2</ele>
        <time>2019-07-10T11:12:05Z</time>
      </trkpt>
      <trkpt lat="43.94061" lon="3.97362">
        <ele>90</ele>
        <time>2019-07-10T11:12:08Z</time>
      </trkpt>
      <trkpt lat="43.94046" lon="3.97345">
        <ele>89.8</ele>
        <time>2019-07-10T11:12:11Z</time>
      </trkpt>
      <trkpt lat="43.94037" lon="3.97333">
        <ele>90</ele>
        <time>2019-07-10T11:12:13Z</time>
      </trkpt>
      <trkpt lat="43.94014" lon="3.97307">
        <ele>89.8</ele>
        <time>2019-07-10T11:12:18Z</time>
      </trkpt>
      <trkpt lat="43.94005" lon="3.97296">
        <ele>89.8</ele>
        <time>2019-07-10T11:12:20Z</time>
      </trkpt>
      <trkpt lat="43.93962" lon="3.97245">
        <ele>89.4</ele>
        <time>2019-07-10T11:12:29Z</time>
      </trkpt>
      <trkpt lat="43.93953" lon="3.97233">
        <ele>89.4</ele>
        <time>2019-07-10T11:12:31Z</time>
      </trkpt>
      <trkpt lat="43.9393" lon="3.97207">
        <ele>89.4</ele>
        <time>2019-07-10T11:12:36Z</time>
      </trkpt>
      <trkpt lat="43.93922" lon="3.97197">
        <ele>89.4</ele>
        <time>2019-07-10T11:12:38Z</time>
      </trkpt>
      <trkpt lat="43.93899" lon="3.9717">
        <ele>90.2</ele>
        <time>2019-07-10T11:12:44Z</time>
      </trkpt>
      <trkpt lat="43.93891" lon="3.97161">
        <ele>90.4</ele>
        <time>2019-07-10T11:12:46Z</time>
      </trkpt>
      <trkpt lat="43.93851" lon="3.97113">
        <ele>91.6</ele>
        <time>2019-07-10T11:12:56Z</time>
      </trkpt>
      <trkpt lat="43.93818" lon="3.97074">
        <ele>92</ele>
        <time>2019-07-10T11:13:05Z</time>
      </trkpt>
      <trkpt lat="43.93801" lon="3.97052">
        <ele>92.6</ele>
        <time>2019-07-10T11:13:11Z</time>
      </trkpt>
      <trkpt lat="43.93798" lon="3.97049">
        <ele>92.6</ele>
        <time>2019-07-10T11:13:12Z</time>
      </trkpt>
      <trkpt lat="43.9378" lon="3.97027">
        <ele>93.2</ele>
        <time>2019-07-10T11:13:18Z</time>
      </trkpt>
      <trkpt lat="43.9377" lon="3.97013">
        <ele>93.4</ele>
        <time>2019-07-10T11:13:21Z</time>
      </trkpt>
      <trkpt lat="43.93766" lon="3.97008">
        <ele>93.4</ele>
        <time>2019-07-10T11:13:22Z</time>
      </trkpt>
      <trkpt lat="43.9376" lon="3.96996">
        <ele>93.2</ele>
        <time>2019-07-10T11:13:24Z</time>
      </trkpt>
      <trkpt lat="43.93758" lon="3.9699">
        <ele>93.4</ele>
        <time>2019-07-10T11:13:25Z</time>
      </trkpt>
      <trkpt lat="43.93745" lon="3.96951">
        <ele>93.2</ele>
        <time>2019-07-10T11:13:30Z</time>
      </trkpt>
      <trkpt lat="43.93744" lon="3.96943">
        <ele>93</ele>
        <time>2019-07-10T11:13:31Z</time>
      </trkpt>
      <trkpt lat="43.93739" lon="3.96927">
        <ele>92.6</ele>
        <time>2019-07-10T11:13:33Z</time>
      </trkpt>
      <trkpt lat="43.93732" lon="3.96908">
        <ele>92.2</ele>
        <time>2019-07-10T11:13:36Z</time>
      </trkpt>
      <trkpt lat="43.93731" lon="3.96897">
        <ele>91.6</ele>
        <time>2019-07-10T11:13:39Z</time>
      </trkpt>
      <trkpt lat="43.93732" lon="3.96895">
        <ele>91.2</ele>
        <time>2019-07-10T11:13:42Z</time>
      </trkpt>
      <trkpt lat="43.93732" lon="3.96892">
        <ele>89.4</ele>
        <time>2019-07-10T11:14:03Z</time>
      </trkpt>
      <trkpt lat="43.93732" lon="3.96886">
        <ele>89.6</ele>
        <time>2019-07-10T11:14:05Z</time>
      </trkpt>
      <trkpt lat="43.93734" lon="3.96859">
        <ele>89.4</ele>
        <time>2019-07-10T11:14:11Z</time>
      </trkpt>
      <trkpt lat="43.93741" lon="3.96834">
        <ele>89.4</ele>
        <time>2019-07-10T11:14:16Z</time>
      </trkpt>
      <trkpt lat="43.93744" lon="3.96823">
        <ele>89.6</ele>
        <time>2019-07-10T11:14:18Z</time>
      </trkpt>
      <trkpt lat="43.93751" lon="3.96795">
        <ele>90.2</ele>
        <time>2019-07-10T11:14:23Z</time>
      </trkpt>
      <trkpt lat="43.93761" lon="3.96729">
        <ele>90.8</ele>
        <time>2019-07-10T11:14:34Z</time>
      </trkpt>
      <trkpt lat="43.93762" lon="3.96711">
        <ele>91</ele>
        <time>2019-07-10T11:14:37Z</time>
      </trkpt>
      <trkpt lat="43.93763" lon="3.96698">
        <ele>91</ele>
        <time>2019-07-10T11:14:39Z</time>
      </trkpt>
      <trkpt lat="43.93764" lon="3.96686">
        <ele>91.2</ele>
        <time>2019-07-10T11:14:41Z</time>
      </trkpt>
      <trkpt lat="43.93766" lon="3.9666">
        <ele>91.4</ele>
        <time>2019-07-10T11:14:45Z</time>
      </trkpt>
      <trkpt lat="43.93767" lon="3.96636">
        <ele>91.6</ele>
        <time>2019-07-10T11:14:49Z</time>
      </trkpt>
      <trkpt lat="43.93767" lon="3.96611">
        <ele>92.2</ele>
        <time>2019-07-10T11:14:53Z</time>
      </trkpt>
      <trkpt lat="43.93767" lon="3.96585">
        <ele>92.8</ele>
        <time>2019-07-10T11:14:57Z</time>
      </trkpt>
      <trkpt lat="43.93768" lon="3.96534">
        <ele>93.2</ele>
        <time>2019-07-10T11:15:05Z</time>
      </trkpt>
      <trkpt lat="43.93769" lon="3.96458">
        <ele>93.8</ele>
        <time>2019-07-10T11:15:17Z</time>
      </trkpt>
      <trkpt lat="43.93769" lon="3.96395">
        <ele>94.2</ele>
        <time>2019-07-10T11:15:27Z</time>
      </trkpt>
      <trkpt lat="43.93771" lon="3.96346">
        <ele>94.6</ele>
        <time>2019-07-10T11:15:35Z</time>
      </trkpt>
      <trkpt lat="43.93772" lon="3.96308">
        <ele>94.8</ele>
        <time>2019-07-10T11:15:41Z</time>
      </trkpt>
      <trkpt lat="43.93772" lon="3.96302">
        <ele>95</ele>
        <time>2019-07-10T11:15:42Z</time>
      </trkpt>
      <trkpt lat="43.93772" lon="3.96289">
        <ele>95</ele>
        <time>2019-07-10T11:15:44Z</time>
      </trkpt>
      <trkpt lat="43.93772" lon="3.96225">
        <ele>95.4</ele>
        <time>2019-07-10T11:15:54Z</time>
      </trkpt>
      <trkpt lat="43.93773" lon="3.96169">
        <ele>95.6</ele>
        <time>2019-07-10T11:16:03Z</time>
      </trkpt>
      <trkpt lat="43.93774" lon="3.96095">
        <ele>95.6</ele>
        <time>2019-07-10T11:16:14Z</time>
      </trkpt>
      <trkpt lat="43.93775" lon="3.96026">
        <ele>95.4</ele>
        <time>2019-07-10T11:16:24Z</time>
      </trkpt>
      <trkpt lat="43.93776" lon="3.95969">
        <ele>95.2</ele>
        <time>2019-07-10T11:16:32Z</time>
      </trkpt>
      <trkpt lat="43.93783" lon="3.95906">
        <ele>95.2</ele>
        <time>2019-07-10T11:16:41Z</time>
      </trkpt>
      <trkpt lat="43.93786" lon="3.95886">
        <ele>95.4</ele>
        <time>2019-07-10T11:16:44Z</time>
      </trkpt>
      <trkpt lat="43.93787" lon="3.95879">
        <ele>95.4</ele>
        <time>2019-07-10T11:16:45Z</time>
      </trkpt>
      <trkpt lat="43.93794" lon="3.95845">
        <ele>95.2</ele>
        <time>2019-07-10T11:16:50Z</time>
      </trkpt>
      <trkpt lat="43.93804" lon="3.95809">
        <ele>95.2</ele>
        <time>2019-07-10T11:16:56Z</time>
      </trkpt>
      <trkpt lat="43.93815" lon="3.95773">
        <ele>95.2</ele>
        <time>2019-07-10T11:17:02Z</time>
      </trkpt>
      <trkpt lat="43.93822" lon="3.95755">
        <ele>95.2</ele>
        <time>2019-07-10T11:17:05Z</time>
      </trkpt>
      <trkpt lat="43.93846" lon="3.95704">
        <ele>95</ele>
        <time>2019-07-10T11:17:14Z</time>
      </trkpt>
      <trkpt lat="43.93875" lon="3.9565">
        <ele>95</ele>
        <time>2019-07-10T11:17:24Z</time>
      </trkpt>
      <trkpt lat="43.93904" lon="3.95606">
        <ele>95.4</ele>
        <time>2019-07-10T11:17:33Z</time>
      </trkpt>
      <trkpt lat="43.93911" lon="3.95597">
        <ele>95.6</ele>
        <time>2019-07-10T11:17:35Z</time>
      </trkpt>
      <trkpt lat="43.93925" lon="3.95578">
        <ele>95.6</ele>
        <time>2019-07-10T11:17:39Z</time>
      </trkpt>
      <trkpt lat="43.93938" lon="3.95564">
        <ele>95.6</ele>
        <time>2019-07-10T11:17:43Z</time>
      </trkpt>
      <trkpt lat="43.93947" lon="3.95554">
        <ele>95.6</ele>
        <time>2019-07-10T11:17:46Z</time>
      </trkpt>
      <trkpt lat="43.93954" lon="3.95546">
        <ele>95.6</ele>
        <time>2019-07-10T11:17:49Z</time>
      </trkpt>
      <trkpt lat="43.93957" lon="3.95543">
        <ele>95.6</ele>
        <time>2019-07-10T11:17:51Z</time>
      </trkpt>
      <trkpt lat="43.93959" lon="3.95542">
        <ele>95.6</ele>
        <time>2019-07-10T11:17:53Z</time>
      </trkpt>
      <trkpt lat="43.93959" lon="3.95542">
        <ele>95.8</ele>
        <time>2019-07-10T11:17:55Z</time>
      </trkpt>
      <trkpt lat="43.93963" lon="3.95542">
        <ele>95.2</ele>
        <time>2019-07-10T11:18:55Z</time>
      </trkpt>
      <trkpt lat="43.93965" lon="3.95541">
        <ele>95.4</ele>
        <time>2019-07-10T11:18:56Z</time>
      </trkpt>
      <trkpt lat="43.93981" lon="3.95526">
        <ele>95.4</ele>
        <time>2019-07-10T11:19:02Z</time>
      </trkpt>
      <trkpt lat="43.94008" lon="3.95506">
        <ele>96</ele>
        <time>2019-07-10T11:19:10Z</time>
      </trkpt>
      <trkpt lat="43.94023" lon="3.95498">
        <ele>96.2</ele>
        <time>2019-07-10T11:19:14Z</time>
      </trkpt>
      <trkpt lat="43.94035" lon="3.95491">
        <ele>96.2</ele>
        <time>2019-07-10T11:19:17Z</time>
      </trkpt>
      <trkpt lat="43.94039" lon="3.95489">
        <ele>96</ele>
        <time>2019-07-10T11:19:18Z</time>
      </trkpt>
      <trkpt lat="43.94047" lon="3.95485">
        <ele>96.2</ele>
        <time>2019-07-10T11:19:20Z</time>
      </trkpt>
      <trkpt lat="43.94059" lon="3.95478">
        <ele>96</ele>
        <time>2019-07-10T11:19:23Z</time>
      </trkpt>
      <trkpt lat="43.94095" lon="3.95464">
        <ele>96.2</ele>
        <time>2019-07-10T11:19:31Z</time>
      </trkpt>
      <trkpt lat="43.94099" lon="3.95463">
        <ele>96.2</ele>
        <time>2019-07-10T11:19:32Z</time>
      </trkpt>
      <trkpt lat="43.94136" lon="3.95454">
        <ele>96.4</ele>
        <time>2019-07-10T11:19:40Z</time>
      </trkpt>
      <trkpt lat="43.9417" lon="3.95446">
        <ele>96.6</ele>
        <time>2019-07-10T11:19:47Z</time>
      </trkpt>
      <trkpt lat="43.94179" lon="3.95444">
        <ele>96.6</ele>
        <time>2019-07-10T11:19:49Z</time>
      </trkpt>
      <trkpt lat="43.94201" lon="3.95439">
        <ele>96.4</ele>
        <time>2019-07-10T11:19:55Z</time>
      </trkpt>
      <trkpt lat="43.94218" lon="3.95433">
        <ele>95.8</ele>
        <time>2019-07-10T11:20:01Z</time>
      </trkpt>
      <trkpt lat="43.94234" lon="3.95431">
        <ele>95.6</ele>
        <time>2019-07-10T11:20:07Z</time>
      </trkpt>
      <trkpt lat="43.94237" lon="3.95431">
        <ele>95.6</ele>
        <time>2019-07-10T11:20:08Z</time>
      </trkpt>
      <trkpt lat="43.94242" lon="3.95435">
        <ele>95.4</ele>
        <time>2019-07-10T11:20:11Z</time>
      </trkpt>
      <trkpt lat="43.94242" lon="3.95435">
        <ele>95.2</ele>
        <time>2019-07-10T11:20:12Z</time>
      </trkpt>
      <trkpt lat="43.94242" lon="3.95428">
        <ele>94</ele>
        <time>2019-07-10T11:20:24Z</time>
      </trkpt>
      <trkpt lat="43.94237" lon="3.95428">
        <ele>93.8</ele>
        <time>2019-07-10T11:20:27Z</time>
      </trkpt>
      <trkpt lat="43.94223" lon="3.95432">
        <ele>93.8</ele>
        <time>2019-07-10T11:20:32Z</time>
      </trkpt>
      <trkpt lat="43.9421" lon="3.95434">
        <ele>93.8</ele>
        <time>2019-07-10T11:20:37Z</time>
      </trkpt>
      <trkpt lat="43.94209" lon="3.95432">
        <ele>94</ele>
        <time>2019-07-10T11:20:38Z</time>
      </trkpt>
      <trkpt lat="43.94209" lon="3.95426">
        <ele>94</ele>
        <time>2019-07-10T11:20:40Z</time>
      </trkpt>
      <trkpt lat="43.94212" lon="3.95421">
        <ele>94</ele>
        <time>2019-07-10T11:20:42Z</time>
      </trkpt>
      <trkpt lat="43.94228" lon="3.95416">
        <ele>94.2</ele>
        <time>2019-07-10T11:20:48Z</time>
      </trkpt>
      <trkpt lat="43.94235" lon="3.95414">
        <ele>94.4</ele>
        <time>2019-07-10T11:20:50Z</time>
      </trkpt>
      <trkpt lat="43.94249" lon="3.95411">
        <ele>94.6</ele>
        <time>2019-07-10T11:20:54Z</time>
      </trkpt>
      <trkpt lat="43.94275" lon="3.95405">
        <ele>95</ele>
        <time>2019-07-10T11:21:01Z</time>
      </trkpt>
      <trkpt lat="43.94296" lon="3.95396">
        <ele>95</ele>
        <time>2019-07-10T11:21:08Z</time>
      </trkpt>
      <trkpt lat="43.94298" lon="3.95392">
        <ele>95</ele>
        <time>2019-07-10T11:21:09Z</time>
      </trkpt>
      <trkpt lat="43.94298" lon="3.95387">
        <ele>94.8</ele>
        <time>2019-07-10T11:21:10Z</time>
      </trkpt>
      <trkpt lat="43.94298" lon="3.95381">
        <ele>94.8</ele>
        <time>2019-07-10T11:21:11Z</time>
      </trkpt>
      <trkpt lat="43.94297" lon="3.95367">
        <ele>94.6</ele>
        <time>2019-07-10T11:21:13Z</time>
      </trkpt>
      <trkpt lat="43.94297" lon="3.95361">
        <ele>94.6</ele>
        <time>2019-07-10T11:21:14Z</time>
      </trkpt>
      <trkpt lat="43.94298" lon="3.95354">
        <ele>94.6</ele>
        <time>2019-07-10T11:21:15Z</time>
      </trkpt>
      <trkpt lat="43.94298" lon="3.95348">
        <ele>94.4</ele>
        <time>2019-07-10T11:21:16Z</time>
      </trkpt>
      <trkpt lat="43.94298" lon="3.95342">
        <ele>93.8</ele>
        <time>2019-07-10T11:21:17Z</time>
      </trkpt>
      <trkpt lat="43.94297" lon="3.95336">
        <ele>93.6</ele>
        <time>2019-07-10T11:21:18Z</time>
      </trkpt>
      <trkpt lat="43.94295" lon="3.95331">
        <ele>93</ele>
        <time>2019-07-10T11:21:19Z</time>
      </trkpt>
      <trkpt lat="43.94278" lon="3.95291">
        <ele>89.8</ele>
        <time>2019-07-10T11:21:26Z</time>
      </trkpt>
      <trkpt lat="43.9426" lon="3.95237">
        <ele>89.4</ele>
        <time>2019-07-10T11:21:34Z</time>
      </trkpt>
      <trkpt lat="43.9425" lon="3.95203">
        <ele>89.4</ele>
        <time>2019-07-10T11:21:39Z</time>
      </trkpt>
      <trkpt lat="43.9425" lon="3.95196">
        <ele>89.2</ele>
        <time>2019-07-10T11:21:40Z</time>
      </trkpt>
      <trkpt lat="43.9425" lon="3.95189">
        <ele>89.2</ele>
        <time>2019-07-10T11:21:41Z</time>
      </trkpt>
      <trkpt lat="43.94253" lon="3.95178">
        <ele>89</ele>
        <time>2019-07-10T11:21:43Z</time>
      </trkpt>
      <trkpt lat="43.94255" lon="3.95173">
        <ele>88.8</ele>
        <time>2019-07-10T11:21:44Z</time>
      </trkpt>
      <trkpt lat="43.94268" lon="3.95164">
        <ele>88.8</ele>
        <time>2019-07-10T11:21:48Z</time>
      </trkpt>
      <trkpt lat="43.94302" lon="3.95162">
        <ele>89.8</ele>
        <time>2019-07-10T11:21:56Z</time>
      </trkpt>
      <trkpt lat="43.94319" lon="3.95161">
        <ele>90</ele>
        <time>2019-07-10T11:22:00Z</time>
      </trkpt>
      <trkpt lat="43.94324" lon="3.9516">
        <ele>90.2</ele>
        <time>2019-07-10T11:22:01Z</time>
      </trkpt>
      <trkpt lat="43.94329" lon="3.9516">
        <ele>90</ele>
        <time>2019-07-10T11:22:02Z</time>
      </trkpt>
      <trkpt lat="43.94334" lon="3.95159">
        <ele>90.2</ele>
        <time>2019-07-10T11:22:03Z</time>
      </trkpt>
      <trkpt lat="43.94343" lon="3.95156">
        <ele>90.4</ele>
        <time>2019-07-10T11:22:05Z</time>
      </trkpt>
      <trkpt lat="43.94352" lon="3.95154">
        <ele>90.4</ele>
        <time>2019-07-10T11:22:07Z</time>
      </trkpt>
      <trkpt lat="43.94374" lon="3.95143">
        <ele>90.8</ele>
        <time>2019-07-10T11:22:12Z</time>
      </trkpt>
      <trkpt lat="43.94412" lon="3.95114">
        <ele>90.6</ele>
        <time>2019-07-10T11:22:21Z</time>
      </trkpt>
      <trkpt lat="43.94444" lon="3.95073">
        <ele>90.6</ele>
        <time>2019-07-10T11:22:30Z</time>
      </trkpt>
      <trkpt lat="43.94467" lon="3.95025">
        <ele>90.4</ele>
        <time>2019-07-10T11:22:39Z</time>
      </trkpt>
      <trkpt lat="43.94469" lon="3.95019">
        <ele>90.4</ele>
        <time>2019-07-10T11:22:40Z</time>
      </trkpt>
      <trkpt lat="43.94479" lon="3.94986">
        <ele>90.4</ele>
        <time>2019-07-10T11:22:46Z</time>
      </trkpt>
      <trkpt lat="43.94482" lon="3.94976">
        <ele>90.4</ele>
        <time>2019-07-10T11:22:48Z</time>
      </trkpt>
      <trkpt lat="43.9449" lon="3.9494">
        <ele>91</ele>
        <time>2019-07-10T11:22:55Z</time>
      </trkpt>
      <trkpt lat="43.94491" lon="3.94935">
        <ele>91.2</ele>
        <time>2019-07-10T11:22:56Z</time>
      </trkpt>
      <trkpt lat="43.94499" lon="3.94903">
        <ele>92.2</ele>
        <time>2019-07-10T11:23:03Z</time>
      </trkpt>
      <trkpt lat="43.94501" lon="3.94893">
        <ele>92.6</ele>
        <time>2019-07-10T11:23:05Z</time>
      </trkpt>
      <trkpt lat="43.94507" lon="3.94856">
        <ele>93.6</ele>
        <time>2019-07-10T11:23:13Z</time>
      </trkpt>
      <trkpt lat="43.94508" lon="3.94847">
        <ele>93.8</ele>
        <time>2019-07-10T11:23:15Z</time>
      </trkpt>
      <trkpt lat="43.94512" lon="3.94811">
        <ele>95</ele>
        <time>2019-07-10T11:23:23Z</time>
      </trkpt>
      <trkpt lat="43.94513" lon="3.94802">
        <ele>95.2</ele>
        <time>2019-07-10T11:23:25Z</time>
      </trkpt>
      <trkpt lat="43.94515" lon="3.94788">
        <ele>95.4</ele>
        <time>2019-07-10T11:23:28Z</time>
      </trkpt>
      <trkpt lat="43.94517" lon="3.9477">
        <ele>96.2</ele>
        <time>2019-07-10T11:23:32Z</time>
      </trkpt>
      <trkpt lat="43.94518" lon="3.94728">
        <ele>97.2</ele>
        <time>2019-07-10T11:23:41Z</time>
      </trkpt>
      <trkpt lat="43.94517" lon="3.94714">
        <ele>97.6</ele>
        <time>2019-07-10T11:23:44Z</time>
      </trkpt>
      <trkpt lat="43.94511" lon="3.94687">
        <ele>98</ele>
        <time>2019-07-10T11:23:49Z</time>
      </trkpt>
      <trkpt lat="43.945" lon="3.94671">
        <ele>98.6</ele>
        <time>2019-07-10T11:23:54Z</time>
      </trkpt>
      <trkpt lat="43.94497" lon="3.94671">
        <ele>98.6</ele>
        <time>2019-07-10T11:23:55Z</time>
      </trkpt>
      <trkpt lat="43.94491" lon="3.94674">
        <ele>98.8</ele>
        <time>2019-07-10T11:23:57Z</time>
      </trkpt>
      <trkpt lat="43.94465" lon="3.94699">
        <ele>99.2</ele>
        <time>2019-07-10T11:24:05Z</time>
      </trkpt>
      <trkpt lat="43.94461" lon="3.94702">
        <ele>99.4</ele>
        <time>2019-07-10T11:24:06Z</time>
      </trkpt>
      <trkpt lat="43.94445" lon="3.94715">
        <ele>99.2</ele>
        <time>2019-07-10T11:24:10Z</time>
      </trkpt>
      <trkpt lat="43.94426" lon="3.94734">
        <ele>99</ele>
        <time>2019-07-10T11:24:16Z</time>
      </trkpt>
      <trkpt lat="43.94419" lon="3.9474">
        <ele>98.6</ele>
        <time>2019-07-10T11:24:18Z</time>
      </trkpt>
      <trkpt lat="43.944" lon="3.94758">
        <ele>98</ele>
        <time>2019-07-10T11:24:25Z</time>
      </trkpt>
      <trkpt lat="43.94394" lon="3.94766">
        <ele>97.8</ele>
        <time>2019-07-10T11:24:28Z</time>
      </trkpt>
      <trkpt lat="43.9439" lon="3.94771">
        <ele>97.6</ele>
        <time>2019-07-10T11:24:30Z</time>
      </trkpt>
      <trkpt lat="43.94374" lon="3.94786">
        <ele>97.4</ele>
        <time>2019-07-10T11:24:36Z</time>
      </trkpt>
      <trkpt lat="43.94368" lon="3.94793">
        <ele>97.4</ele>
        <time>2019-07-10T11:24:38Z</time>
      </trkpt>
      <trkpt lat="43.94362" lon="3.94798">
        <ele>97.2</ele>
        <time>2019-07-10T11:24:40Z</time>
      </trkpt>
      <trkpt lat="43.94348" lon="3.94807">
        <ele>97.2</ele>
        <time>2019-07-10T11:24:44Z</time>
      </trkpt>
      <trkpt lat="43.94321" lon="3.94823">
        <ele>96.6</ele>
        <time>2019-07-10T11:24:51Z</time>
      </trkpt>
      <trkpt lat="43.94309" lon="3.94838">
        <ele>96.4</ele>
        <time>2019-07-10T11:24:56Z</time>
      </trkpt>
      <trkpt lat="43.94295" lon="3.94857">
        <ele>96.2</ele>
        <time>2019-07-10T11:25:02Z</time>
      </trkpt>
      <trkpt lat="43.94292" lon="3.9486">
        <ele>96</ele>
        <time>2019-07-10T11:25:03Z</time>
      </trkpt>
      <trkpt lat="43.94279" lon="3.94876">
        <ele>95.6</ele>
        <time>2019-07-10T11:25:08Z</time>
      </trkpt>
      <trkpt lat="43.94273" lon="3.94883">
        <ele>95.4</ele>
        <time>2019-07-10T11:25:11Z</time>
      </trkpt>
      <trkpt lat="43.94271" lon="3.94885">
        <ele>95.2</ele>
        <time>2019-07-10T11:25:12Z</time>
      </trkpt>
      <trkpt lat="43.94259" lon="3.94897">
        <ele>95</ele>
        <time>2019-07-10T11:25:18Z</time>
      </trkpt>
      <trkpt lat="43.94257" lon="3.94898">
        <ele>94.8</ele>
        <time>2019-07-10T11:25:19Z</time>
      </trkpt>
      <trkpt lat="43.94257" lon="3.94897">
        <ele>94.4</ele>
        <time>2019-07-10T11:25:22Z</time>
      </trkpt>
      <trkpt lat="43.94246" lon="3.94908">
        <ele>93.6</ele>
        <time>2019-07-10T11:25:32Z</time>
      </trkpt>
      <trkpt lat="43.94243" lon="3.9491">
        <ele>93.4</ele>
        <time>2019-07-10T11:25:33Z</time>
      </trkpt>
      <trkpt lat="43.9424" lon="3.94912">
        <ele>93.6</ele>
        <time>2019-07-10T11:25:34Z</time>
      </trkpt>
      <trkpt lat="43.94228" lon="3.94918">
        <ele>93.2</ele>
        <time>2019-07-10T11:25:40Z</time>
      </trkpt>
      <trkpt lat="43.94225" lon="3.94922">
        <ele>93</ele>
        <time>2019-07-10T11:25:43Z</time>
      </trkpt>
      <trkpt lat="43.94223" lon="3.94921">
        <ele>92.6</ele>
        <time>2019-07-10T11:25:45Z</time>
      </trkpt>
      <trkpt lat="43.94223" lon="3.94921">
        <ele>92.6</ele>
        <time>2019-07-10T11:25:47Z</time>
      </trkpt>
      <trkpt lat="43.94216" lon="3.94923">
        <ele>92.4</ele>
        <time>2019-07-10T11:25:53Z</time>
      </trkpt>
      <trkpt lat="43.94213" lon="3.94923">
        <ele>92.4</ele>
        <time>2019-07-10T11:25:54Z</time>
      </trkpt>
      <trkpt lat="43.94211" lon="3.94924">
        <ele>92.4</ele>
        <time>2019-07-10T11:25:55Z</time>
      </trkpt>
      <trkpt lat="43.94196" lon="3.94926">
        <ele>92</ele>
        <time>2019-07-10T11:26:01Z</time>
      </trkpt>
      <trkpt lat="43.94183" lon="3.94929">
        <ele>91.4</ele>
        <time>2019-07-10T11:26:06Z</time>
      </trkpt>
      <trkpt lat="43.94181" lon="3.94929">
        <ele>91</ele>
        <time>2019-07-10T11:26:07Z</time>
      </trkpt>
      <trkpt lat="43.9418" lon="3.94928">
        <ele>91</ele>
        <time>2019-07-10T11:26:08Z</time>
      </trkpt>
      <trkpt lat="43.9418" lon="3.94927">
        <ele>90.8</ele>
        <time>2019-07-10T11:26:11Z</time>
      </trkpt>
      <trkpt lat="43.94187" lon="3.94928">
        <ele>91</ele>
        <time>2019-07-10T11:26:29Z</time>
      </trkpt>
      <trkpt lat="43.94189" lon="3.94928">
        <ele>91</ele>
        <time>2019-07-10T11:26:30Z</time>
      </trkpt>
      <trkpt lat="43.94192" lon="3.94929">
        <ele>91</ele>
        <time>2019-07-10T11:26:31Z</time>
      </trkpt>
      <trkpt lat="43.94195" lon="3.94929">
        <ele>91</ele>
        <time>2019-07-10T11:26:32Z</time>
      </trkpt>
      <trkpt lat="43.94198" lon="3.94929">
        <ele>91.2</ele>
        <time>2019-07-10T11:26:33Z</time>
      </trkpt>
      <trkpt lat="43.94207" lon="3.94928">
        <ele>91.4</ele>
        <time>2019-07-10T11:26:36Z</time>
      </trkpt>
      <trkpt lat="43.9421" lon="3.94928">
        <ele>91.4</ele>
        <time>2019-07-10T11:26:37Z</time>
      </trkpt>
      <trkpt lat="43.94213" lon="3.94927">
        <ele>91.6</ele>
        <time>2019-07-10T11:26:38Z</time>
      </trkpt>
      <trkpt lat="43.94215" lon="3.94927">
        <ele>91.6</ele>
        <time>2019-07-10T11:26:39Z</time>
      </trkpt>
      <trkpt lat="43.94218" lon="3.94927">
        <ele>92</ele>
        <time>2019-07-10T11:26:40Z</time>
      </trkpt>
      <trkpt lat="43.94229" lon="3.94924">
        <ele>92.6</ele>
        <time>2019-07-10T11:26:44Z</time>
      </trkpt>
      <trkpt lat="43.94237" lon="3.9492">
        <ele>93.2</ele>
        <time>2019-07-10T11:26:47Z</time>
      </trkpt>
      <trkpt lat="43.94244" lon="3.94916">
        <ele>93.4</ele>
        <time>2019-07-10T11:26:50Z</time>
      </trkpt>
      <trkpt lat="43.94252" lon="3.94908">
        <ele>93.8</ele>
        <time>2019-07-10T11:26:55Z</time>
      </trkpt>
      <trkpt lat="43.94251" lon="3.94901">
        <ele>94</ele>
        <time>2019-07-10T11:26:59Z</time>
      </trkpt>
      <trkpt lat="43.94251" lon="3.94901">
        <ele>94</ele>
        <time>2019-07-10T11:27:02Z</time>
      </trkpt>
      <trkpt lat="43.94252" lon="3.94905">
        <ele>95.2</ele>
        <time>2019-07-10T11:53:07Z</time>
      </trkpt>
      <trkpt lat="43.94253" lon="3.94907">
        <ele>95.4</ele>
        <time>2019-07-10T11:53:08Z</time>
      </trkpt>
      <trkpt lat="43.94256" lon="3.94908">
        <ele>95.4</ele>
        <time>2019-07-10T11:53:12Z</time>
      </trkpt>
      <trkpt lat="43.9426" lon="3.94905">
        <ele>95.2</ele>
        <time>2019-07-10T11:53:15Z</time>
      </trkpt>
      <trkpt lat="43.94262" lon="3.94903">
        <ele>95.2</ele>
        <time>2019-07-10T11:53:16Z</time>
      </trkpt>
      <trkpt lat="43.94264" lon="3.94901">
        <ele>95.4</ele>
        <time>2019-07-10T11:53:17Z</time>
      </trkpt>
      <trkpt lat="43.94269" lon="3.94894">
        <ele>95.8</ele>
        <time>2019-07-10T11:53:20Z</time>
      </trkpt>
      <trkpt lat="43.94272" lon="3.94889">
        <ele>96</ele>
        <time>2019-07-10T11:53:22Z</time>
      </trkpt>
      <trkpt lat="43.94276" lon="3.94884">
        <ele>96.2</ele>
        <time>2019-07-10T11:53:25Z</time>
      </trkpt>
      <trkpt lat="43.94278" lon="3.94882">
        <ele>96.4</ele>
        <time>2019-07-10T11:53:26Z</time>
      </trkpt>
      <trkpt lat="43.94279" lon="3.94879">
        <ele>96.2</ele>
        <time>2019-07-10T11:53:27Z</time>
      </trkpt>
      <trkpt lat="43.94284" lon="3.94872">
        <ele>96.6</ele>
        <time>2019-07-10T11:53:30Z</time>
      </trkpt>
      <trkpt lat="43.94286" lon="3.94866">
        <ele>96.8</ele>
        <time>2019-07-10T11:53:32Z</time>
      </trkpt>
      <trkpt lat="43.94288" lon="3.94859">
        <ele>97.2</ele>
        <time>2019-07-10T11:53:37Z</time>
      </trkpt>
      <trkpt lat="43.94288" lon="3.94859">
        <ele>97.4</ele>
        <time>2019-07-10T11:53:38Z</time>
      </trkpt>
      <trkpt lat="43.94295" lon="3.94849">
        <ele>97.6</ele>
        <time>2019-07-10T11:53:56Z</time>
      </trkpt>
      <trkpt lat="43.943" lon="3.94843">
        <ele>97.6</ele>
        <time>2019-07-10T11:53:58Z</time>
      </trkpt>
      <trkpt lat="43.94312" lon="3.9483">
        <ele>97.6</ele>
        <time>2019-07-10T11:54:03Z</time>
      </trkpt>
      <trkpt lat="43.94321" lon="3.94823">
        <ele>97.6</ele>
        <time>2019-07-10T11:54:06Z</time>
      </trkpt>
      <trkpt lat="43.94332" lon="3.94816">
        <ele>98</ele>
        <time>2019-07-10T11:54:10Z</time>
      </trkpt>
      <trkpt lat="43.94361" lon="3.94798">
        <ele>99.2</ele>
        <time>2019-07-10T11:54:20Z</time>
      </trkpt>
      <trkpt lat="43.94378" lon="3.94785">
        <ele>99</ele>
        <time>2019-07-10T11:54:26Z</time>
      </trkpt>
      <trkpt lat="43.94384" lon="3.94778">
        <ele>99.2</ele>
        <time>2019-07-10T11:54:29Z</time>
      </trkpt>
      <trkpt lat="43.94401" lon="3.9476">
        <ele>99.6</ele>
        <time>2019-07-10T11:54:36Z</time>
      </trkpt>
      <trkpt lat="43.94419" lon="3.94744">
        <ele>100</ele>
        <time>2019-07-10T11:54:43Z</time>
      </trkpt>
      <trkpt lat="43.94439" lon="3.94726">
        <ele>100.6</ele>
        <time>2019-07-10T11:54:50Z</time>
      </trkpt>
      <trkpt lat="43.94459" lon="3.94707">
        <ele>101</ele>
        <time>2019-07-10T11:54:58Z</time>
      </trkpt>
      <trkpt lat="43.94471" lon="3.94697">
        <ele>101.6</ele>
        <time>2019-07-10T11:55:03Z</time>
      </trkpt>
      <trkpt lat="43.94479" lon="3.94694">
        <ele>101.6</ele>
        <time>2019-07-10T11:55:06Z</time>
      </trkpt>
      <trkpt lat="43.945" lon="3.94698">
        <ele>102.4</ele>
        <time>2019-07-10T11:55:14Z</time>
      </trkpt>
      <trkpt lat="43.94501" lon="3.94699">
        <ele>102.4</ele>
        <time>2019-07-10T11:55:17Z</time>
      </trkpt>
      <trkpt lat="43.94503" lon="3.94699">
        <ele>101.6</ele>
        <time>2019-07-10T11:56:42Z</time>
      </trkpt>
      <trkpt lat="43.94506" lon="3.94699">
        <ele>101.6</ele>
        <time>2019-07-10T11:56:43Z</time>
      </trkpt>
      <trkpt lat="43.94514" lon="3.94689">
        <ele>101.6</ele>
        <time>2019-07-10T11:56:47Z</time>
      </trkpt>
      <trkpt lat="43.94516" lon="3.94672">
        <ele>101.6</ele>
        <time>2019-07-10T11:56:51Z</time>
      </trkpt>
      <trkpt lat="43.94515" lon="3.94664">
        <ele>102</ele>
        <time>2019-07-10T11:56:53Z</time>
      </trkpt>
      <trkpt lat="43.94513" lon="3.94643">
        <ele>102.4</ele>
        <time>2019-07-10T11:56:58Z</time>
      </trkpt>
      <trkpt lat="43.94509" lon="3.94601">
        <ele>103.6</ele>
        <time>2019-07-10T11:57:07Z</time>
      </trkpt>
      <trkpt lat="43.94509" lon="3.94596">
        <ele>103.6</ele>
        <time>2019-07-10T11:57:08Z</time>
      </trkpt>
      <trkpt lat="43.94506" lon="3.94559">
        <ele>104</ele>
        <time>2019-07-10T11:57:15Z</time>
      </trkpt>
      <trkpt lat="43.94506" lon="3.94554">
        <ele>104</ele>
        <time>2019-07-10T11:57:16Z</time>
      </trkpt>
      <trkpt lat="43.94505" lon="3.94543">
        <ele>104.2</ele>
        <time>2019-07-10T11:57:18Z</time>
      </trkpt>
      <trkpt lat="43.94505" lon="3.94538">
        <ele>104.2</ele>
        <time>2019-07-10T11:57:19Z</time>
      </trkpt>
      <trkpt lat="43.94504" lon="3.94522">
        <ele>104.4</ele>
        <time>2019-07-10T11:57:22Z</time>
      </trkpt>
      <trkpt lat="43.94503" lon="3.94505">
        <ele>104.2</ele>
        <time>2019-07-10T11:57:25Z</time>
      </trkpt>
      <trkpt lat="43.94502" lon="3.94494">
        <ele>104.4</ele>
        <time>2019-07-10T11:57:27Z</time>
      </trkpt>
      <trkpt lat="43.94499" lon="3.94463">
        <ele>105.4</ele>
        <time>2019-07-10T11:57:33Z</time>
      </trkpt>
      <trkpt lat="43.94497" lon="3.94434">
        <ele>106.2</ele>
        <time>2019-07-10T11:57:39Z</time>
      </trkpt>
      <trkpt lat="43.94496" lon="3.94419">
        <ele>106.4</ele>
        <time>2019-07-10T11:57:42Z</time>
      </trkpt>
      <trkpt lat="43.94495" lon="3.944">
        <ele>107</ele>
        <time>2019-07-10T11:57:46Z</time>
      </trkpt>
      <trkpt lat="43.94492" lon="3.94364">
        <ele>107.6</ele>
        <time>2019-07-10T11:57:53Z</time>
      </trkpt>
      <trkpt lat="43.94488" lon="3.94323">
        <ele>108.2</ele>
        <time>2019-07-10T11:58:01Z</time>
      </trkpt>
      <trkpt lat="43.94488" lon="3.94319">
        <ele>108.2</ele>
        <time>2019-07-10T11:58:02Z</time>
      </trkpt>
      <trkpt lat="43.94484" lon="3.94281">
        <ele>109.2</ele>
        <time>2019-07-10T11:58:10Z</time>
      </trkpt>
      <trkpt lat="43.94483" lon="3.94272">
        <ele>109.4</ele>
        <time>2019-07-10T11:58:12Z</time>
      </trkpt>
      <trkpt lat="43.94481" lon="3.9423">
        <ele>110.6</ele>
        <time>2019-07-10T11:58:21Z</time>
      </trkpt>
      <trkpt lat="43.94478" lon="3.94192">
        <ele>111</ele>
        <time>2019-07-10T11:58:28Z</time>
      </trkpt>
      <trkpt lat="43.94474" lon="3.94142">
        <ele>111</ele>
        <time>2019-07-10T11:58:36Z</time>
      </trkpt>
      <trkpt lat="43.94469" lon="3.94082">
        <ele>110.8</ele>
        <time>2019-07-10T11:58:45Z</time>
      </trkpt>
      <trkpt lat="43.94463" lon="3.94006">
        <ele>110.8</ele>
        <time>2019-07-10T11:58:56Z</time>
      </trkpt>
      <trkpt lat="43.94459" lon="3.93941">
        <ele>110.6</ele>
        <time>2019-07-10T11:59:06Z</time>
      </trkpt>
      <trkpt lat="43.94455" lon="3.93884">
        <ele>111</ele>
        <time>2019-07-10T11:59:15Z</time>
      </trkpt>
      <trkpt lat="43.94449" lon="3.93814">
        <ele>110.8</ele>
        <time>2019-07-10T11:59:26Z</time>
      </trkpt>
      <trkpt lat="43.94446" lon="3.93763">
        <ele>110.8</ele>
        <time>2019-07-10T11:59:34Z</time>
      </trkpt>
      <trkpt lat="43.94441" lon="3.93706">
        <ele>110.8</ele>
        <time>2019-07-10T11:59:42Z</time>
      </trkpt>
      <trkpt lat="43.94436" lon="3.93632">
        <ele>110.8</ele>
        <time>2019-07-10T11:59:53Z</time>
      </trkpt>
      <trkpt lat="43.94431" lon="3.93573">
        <ele>111</ele>
        <time>2019-07-10T12:00:02Z</time>
      </trkpt>
      <trkpt lat="43.94425" lon="3.93498">
        <ele>111.4</ele>
        <time>2019-07-10T12:00:13Z</time>
      </trkpt>
      <trkpt lat="43.94419" lon="3.93418">
        <ele>111.6</ele>
        <time>2019-07-10T12:00:25Z</time>
      </trkpt>
      <trkpt lat="43.94418" lon="3.93404">
        <ele>111.6</ele>
        <time>2019-07-10T12:00:27Z</time>
      </trkpt>
      <trkpt lat="43.94415" lon="3.93357">
        <ele>111</ele>
        <time>2019-07-10T12:00:34Z</time>
      </trkpt>
      <trkpt lat="43.94412" lon="3.93323">
        <ele>110.8</ele>
        <time>2019-07-10T12:00:39Z</time>
      </trkpt>
      <trkpt lat="43.9441" lon="3.9329">
        <ele>110.6</ele>
        <time>2019-07-10T12:00:44Z</time>
      </trkpt>
      <trkpt lat="43.94408" lon="3.93262">
        <ele>110.8</ele>
        <time>2019-07-10T12:00:49Z</time>
      </trkpt>
      <trkpt lat="43.94407" lon="3.93243">
        <ele>111.2</ele>
        <time>2019-07-10T12:00:53Z</time>
      </trkpt>
      <trkpt lat="43.94406" lon="3.93231">
        <ele>111.6</ele>
        <time>2019-07-10T12:00:56Z</time>
      </trkpt>
      <trkpt lat="43.94405" lon="3.93211">
        <ele>112.4</ele>
        <time>2019-07-10T12:01:01Z</time>
      </trkpt>
      <trkpt lat="43.94404" lon="3.932">
        <ele>112.8</ele>
        <time>2019-07-10T12:01:04Z</time>
      </trkpt>
      <trkpt lat="43.94402" lon="3.93174">
        <ele>114</ele>
        <time>2019-07-10T12:01:10Z</time>
      </trkpt>
      <trkpt lat="43.94401" lon="3.9316">
        <ele>114.4</ele>
        <time>2019-07-10T12:01:13Z</time>
      </trkpt>
      <trkpt lat="43.94398" lon="3.93124">
        <ele>115.4</ele>
        <time>2019-07-10T12:01:21Z</time>
      </trkpt>
      <trkpt lat="43.94397" lon="3.93112">
        <ele>115.8</ele>
        <time>2019-07-10T12:01:24Z</time>
      </trkpt>
      <trkpt lat="43.94395" lon="3.9309">
        <ele>116.2</ele>
        <time>2019-07-10T12:01:29Z</time>
      </trkpt>
      <trkpt lat="43.94395" lon="3.93081">
        <ele>116.8</ele>
        <time>2019-07-10T12:01:31Z</time>
      </trkpt>
      <trkpt lat="43.94393" lon="3.93055">
        <ele>117.6</ele>
        <time>2019-07-10T12:01:37Z</time>
      </trkpt>
      <trkpt lat="43.9439" lon="3.93029">
        <ele>118.6</ele>
        <time>2019-07-10T12:01:43Z</time>
      </trkpt>
      <trkpt lat="43.94388" lon="3.92994">
        <ele>120</ele>
        <time>2019-07-10T12:01:51Z</time>
      </trkpt>
      <trkpt lat="43.94384" lon="3.92949">
        <ele>121</ele>
        <time>2019-07-10T12:01:59Z</time>
      </trkpt>
      <trkpt lat="43.9438" lon="3.92891">
        <ele>121.6</ele>
        <time>2019-07-10T12:02:09Z</time>
      </trkpt>
      <trkpt lat="43.94379" lon="3.92885">
        <ele>121.8</ele>
        <time>2019-07-10T12:02:10Z</time>
      </trkpt>
      <trkpt lat="43.94378" lon="3.92868">
        <ele>121.8</ele>
        <time>2019-07-10T12:02:13Z</time>
      </trkpt>
      <trkpt lat="43.94376" lon="3.9284">
        <ele>122.2</ele>
        <time>2019-07-10T12:02:18Z</time>
      </trkpt>
      <trkpt lat="43.94372" lon="3.92795">
        <ele>122.8</ele>
        <time>2019-07-10T12:02:26Z</time>
      </trkpt>
      <trkpt lat="43.9437" lon="3.92768">
        <ele>123</ele>
        <time>2019-07-10T12:02:31Z</time>
      </trkpt>
      <trkpt lat="43.94368" lon="3.92739">
        <ele>123.2</ele>
        <time>2019-07-10T12:02:36Z</time>
      </trkpt>
      <trkpt lat="43.94364" lon="3.92676">
        <ele>124.4</ele>
        <time>2019-07-10T12:02:47Z</time>
      </trkpt>
      <trkpt lat="43.94358" lon="3.9261">
        <ele>125</ele>
        <time>2019-07-10T12:02:58Z</time>
      </trkpt>
      <trkpt lat="43.94354" lon="3.92554">
        <ele>125.6</ele>
        <time>2019-07-10T12:03:07Z</time>
      </trkpt>
      <trkpt lat="43.94349" lon="3.92494">
        <ele>125.8</ele>
        <time>2019-07-10T12:03:16Z</time>
      </trkpt>
      <trkpt lat="43.94348" lon="3.92481">
        <ele>125.8</ele>
        <time>2019-07-10T12:03:18Z</time>
      </trkpt>
      <trkpt lat="43.94342" lon="3.92418">
        <ele>126.2</ele>
        <time>2019-07-10T12:03:28Z</time>
      </trkpt>
      <trkpt lat="43.94343" lon="3.92364">
        <ele>126.6</ele>
        <time>2019-07-10T12:03:37Z</time>
      </trkpt>
      <trkpt lat="43.94344" lon="3.92352">
        <ele>126.6</ele>
        <time>2019-07-10T12:03:39Z</time>
      </trkpt>
      <trkpt lat="43.94353" lon="3.923">
        <ele>127.4</ele>
        <time>2019-07-10T12:03:48Z</time>
      </trkpt>
      <trkpt lat="43.94355" lon="3.9229">
        <ele>127.6</ele>
        <time>2019-07-10T12:03:50Z</time>
      </trkpt>
      <trkpt lat="43.94362" lon="3.92257">
        <ele>128.2</ele>
        <time>2019-07-10T12:03:56Z</time>
      </trkpt>
      <trkpt lat="43.94374" lon="3.922">
        <ele>128.4</ele>
        <time>2019-07-10T12:04:06Z</time>
      </trkpt>
      <trkpt lat="43.94381" lon="3.92165">
        <ele>128.2</ele>
        <time>2019-07-10T12:04:11Z</time>
      </trkpt>
      <trkpt lat="43.94385" lon="3.92143">
        <ele>128.2</ele>
        <time>2019-07-10T12:04:14Z</time>
      </trkpt>
      <trkpt lat="43.944" lon="3.92069">
        <ele>127.4</ele>
        <time>2019-07-10T12:04:23Z</time>
      </trkpt>
      <trkpt lat="43.94403" lon="3.9205">
        <ele>127.2</ele>
        <time>2019-07-10T12:04:25Z</time>
      </trkpt>
      <trkpt lat="43.94408" lon="3.92024">
        <ele>127</ele>
        <time>2019-07-10T12:04:28Z</time>
      </trkpt>
      <trkpt lat="43.94414" lon="3.91993">
        <ele>126.4</ele>
        <time>2019-07-10T12:04:31Z</time>
      </trkpt>
      <trkpt lat="43.94424" lon="3.91944">
        <ele>124.6</ele>
        <time>2019-07-10T12:04:36Z</time>
      </trkpt>
      <trkpt lat="43.94431" lon="3.91905">
        <ele>123.8</ele>
        <time>2019-07-10T12:04:40Z</time>
      </trkpt>
      <trkpt lat="43.94438" lon="3.91876">
        <ele>122.8</ele>
        <time>2019-07-10T12:04:43Z</time>
      </trkpt>
      <trkpt lat="43.94439" lon="3.91869">
        <ele>122.4</ele>
        <time>2019-07-10T12:04:44Z</time>
      </trkpt>
      <trkpt lat="43.94451" lon="3.9181">
        <ele>121</ele>
        <time>2019-07-10T12:04:50Z</time>
      </trkpt>
      <trkpt lat="43.94455" lon="3.91792">
        <ele>120.6</ele>
        <time>2019-07-10T12:04:52Z</time>
      </trkpt>
      <trkpt lat="43.94463" lon="3.91751">
        <ele>119.2</ele>
        <time>2019-07-10T12:04:57Z</time>
      </trkpt>
      <trkpt lat="43.94473" lon="3.917">
        <ele>118.6</ele>
        <time>2019-07-10T12:05:04Z</time>
      </trkpt>
      <trkpt lat="43.94476" lon="3.91687">
        <ele>118.6</ele>
        <time>2019-07-10T12:05:06Z</time>
      </trkpt>
      <trkpt lat="43.94482" lon="3.91658">
        <ele>118.4</ele>
        <time>2019-07-10T12:05:10Z</time>
      </trkpt>
      <trkpt lat="43.94492" lon="3.91602">
        <ele>118</ele>
        <time>2019-07-10T12:05:18Z</time>
      </trkpt>
      <trkpt lat="43.94502" lon="3.91551">
        <ele>117.2</ele>
        <time>2019-07-10T12:05:25Z</time>
      </trkpt>
      <trkpt lat="43.94503" lon="3.91544">
        <ele>117.4</ele>
        <time>2019-07-10T12:05:26Z</time>
      </trkpt>
      <trkpt lat="43.94515" lon="3.91486">
        <ele>117.4</ele>
        <time>2019-07-10T12:05:34Z</time>
      </trkpt>
      <trkpt lat="43.94518" lon="3.91472">
        <ele>117.4</ele>
        <time>2019-07-10T12:05:36Z</time>
      </trkpt>
      <trkpt lat="43.94531" lon="3.91399">
        <ele>117.6</ele>
        <time>2019-07-10T12:05:46Z</time>
      </trkpt>
      <trkpt lat="43.94537" lon="3.91372">
        <ele>117.6</ele>
        <time>2019-07-10T12:05:50Z</time>
      </trkpt>
      <trkpt lat="43.94544" lon="3.91337">
        <ele>117.8</ele>
        <time>2019-07-10T12:05:55Z</time>
      </trkpt>
      <trkpt lat="43.9455" lon="3.91303">
        <ele>118.2</ele>
        <time>2019-07-10T12:06:00Z</time>
      </trkpt>
      <trkpt lat="43.94566" lon="3.91227">
        <ele>118.6</ele>
        <time>2019-07-10T12:06:11Z</time>
      </trkpt>
      <trkpt lat="43.9458" lon="3.91153">
        <ele>118.6</ele>
        <time>2019-07-10T12:06:22Z</time>
      </trkpt>
      <trkpt lat="43.94584" lon="3.91132">
        <ele>118.6</ele>
        <time>2019-07-10T12:06:25Z</time>
      </trkpt>
      <trkpt lat="43.94598" lon="3.91058">
        <ele>118.6</ele>
        <time>2019-07-10T12:06:36Z</time>
      </trkpt>
      <trkpt lat="43.94601" lon="3.91044">
        <ele>118.4</ele>
        <time>2019-07-10T12:06:38Z</time>
      </trkpt>
      <trkpt lat="43.94613" lon="3.90975">
        <ele>118.6</ele>
        <time>2019-07-10T12:06:48Z</time>
      </trkpt>
      <trkpt lat="43.94625" lon="3.90902">
        <ele>118.8</ele>
        <time>2019-07-10T12:06:59Z</time>
      </trkpt>
      <trkpt lat="43.94634" lon="3.90847">
        <ele>118.8</ele>
        <time>2019-07-10T12:07:08Z</time>
      </trkpt>
      <trkpt lat="43.94636" lon="3.90831">
        <ele>119</ele>
        <time>2019-07-10T12:07:11Z</time>
      </trkpt>
      <trkpt lat="43.94647" lon="3.90799">
        <ele>120</ele>
        <time>2019-07-10T12:07:18Z</time>
      </trkpt>
      <trkpt lat="43.94656" lon="3.9078">
        <ele>120.2</ele>
        <time>2019-07-10T12:07:22Z</time>
      </trkpt>
      <trkpt lat="43.94655" lon="3.90769">
        <ele>120.6</ele>
        <time>2019-07-10T12:07:24Z</time>
      </trkpt>
      <trkpt lat="43.94653" lon="3.90751">
        <ele>120.8</ele>
        <time>2019-07-10T12:07:27Z</time>
      </trkpt>
      <trkpt lat="43.94654" lon="3.90739">
        <ele>121.2</ele>
        <time>2019-07-10T12:07:29Z</time>
      </trkpt>
      <trkpt lat="43.94659" lon="3.90714">
        <ele>121.4</ele>
        <time>2019-07-10T12:07:33Z</time>
      </trkpt>
      <trkpt lat="43.94668" lon="3.90677">
        <ele>121.8</ele>
        <time>2019-07-10T12:07:40Z</time>
      </trkpt>
      <trkpt lat="43.94673" lon="3.90658">
        <ele>122.2</ele>
        <time>2019-07-10T12:07:44Z</time>
      </trkpt>
      <trkpt lat="43.94679" lon="3.9063">
        <ele>122.8</ele>
        <time>2019-07-10T12:07:50Z</time>
      </trkpt>
      <trkpt lat="43.94681" lon="3.90621">
        <ele>123</ele>
        <time>2019-07-10T12:07:52Z</time>
      </trkpt>
      <trkpt lat="43.94692" lon="3.90572">
        <ele>123.6</ele>
        <time>2019-07-10T12:08:01Z</time>
      </trkpt>
      <trkpt lat="43.94709" lon="3.90501">
        <ele>123.8</ele>
        <time>2019-07-10T12:08:14Z</time>
      </trkpt>
      <trkpt lat="43.9472" lon="3.90444">
        <ele>124.2</ele>
        <time>2019-07-10T12:08:24Z</time>
      </trkpt>
      <trkpt lat="43.94728" lon="3.90401">
        <ele>124.4</ele>
        <time>2019-07-10T12:08:31Z</time>
      </trkpt>
      <trkpt lat="43.94734" lon="3.90369">
        <ele>124.4</ele>
        <time>2019-07-10T12:08:36Z</time>
      </trkpt>
      <trkpt lat="43.94746" lon="3.90303">
        <ele>124.4</ele>
        <time>2019-07-10T12:08:47Z</time>
      </trkpt>
      <trkpt lat="43.94748" lon="3.90291">
        <ele>124.2</ele>
        <time>2019-07-10T12:08:49Z</time>
      </trkpt>
      <trkpt lat="43.94759" lon="3.90234">
        <ele>123.6</ele>
        <time>2019-07-10T12:08:58Z</time>
      </trkpt>
      <trkpt lat="43.94765" lon="3.90202">
        <ele>123</ele>
        <time>2019-07-10T12:09:03Z</time>
      </trkpt>
      <trkpt lat="43.94769" lon="3.90177">
        <ele>122.8</ele>
        <time>2019-07-10T12:09:07Z</time>
      </trkpt>
      <trkpt lat="43.94779" lon="3.90122">
        <ele>122.8</ele>
        <time>2019-07-10T12:09:15Z</time>
      </trkpt>
      <trkpt lat="43.94793" lon="3.90044">
        <ele>122.6</ele>
        <time>2019-07-10T12:09:27Z</time>
      </trkpt>
      <trkpt lat="43.94793" lon="3.90039">
        <ele>122.6</ele>
        <time>2019-07-10T12:09:28Z</time>
      </trkpt>
      <trkpt lat="43.94803" lon="3.89978">
        <ele>122.8</ele>
        <time>2019-07-10T12:09:38Z</time>
      </trkpt>
      <trkpt lat="43.94805" lon="3.89968">
        <ele>122.8</ele>
        <time>2019-07-10T12:09:40Z</time>
      </trkpt>
      <trkpt lat="43.94813" lon="3.89922">
        <ele>122.8</ele>
        <time>2019-07-10T12:09:48Z</time>
      </trkpt>
      <trkpt lat="43.94824" lon="3.89857">
        <ele>123.2</ele>
        <time>2019-07-10T12:10:00Z</time>
      </trkpt>
      <trkpt lat="43.94826" lon="3.89846">
        <ele>123.2</ele>
        <time>2019-07-10T12:10:02Z</time>
      </trkpt>
      <trkpt lat="43.94834" lon="3.89796">
        <ele>123.8</ele>
        <time>2019-07-10T12:10:11Z</time>
      </trkpt>
      <trkpt lat="43.94838" lon="3.89773">
        <ele>124.4</ele>
        <time>2019-07-10T12:10:15Z</time>
      </trkpt>
      <trkpt lat="43.94843" lon="3.89746">
        <ele>124.8</ele>
        <time>2019-07-10T12:10:20Z</time>
      </trkpt>
      <trkpt lat="43.94851" lon="3.89699">
        <ele>125.4</ele>
        <time>2019-07-10T12:10:29Z</time>
      </trkpt>
      <trkpt lat="43.94852" lon="3.89695">
        <ele>125.4</ele>
        <time>2019-07-10T12:10:30Z</time>
      </trkpt>
      <trkpt lat="43.94856" lon="3.89669">
        <ele>125.8</ele>
        <time>2019-07-10T12:10:35Z</time>
      </trkpt>
      <trkpt lat="43.9486" lon="3.89642">
        <ele>127</ele>
        <time>2019-07-10T12:10:41Z</time>
      </trkpt>
      <trkpt lat="43.94862" lon="3.89633">
        <ele>127.2</ele>
        <time>2019-07-10T12:10:43Z</time>
      </trkpt>
      <trkpt lat="43.94864" lon="3.89616">
        <ele>127.6</ele>
        <time>2019-07-10T12:10:47Z</time>
      </trkpt>
      <trkpt lat="43.94867" lon="3.896">
        <ele>128.4</ele>
        <time>2019-07-10T12:10:51Z</time>
      </trkpt>
      <trkpt lat="43.94872" lon="3.89567">
        <ele>129.8</ele>
        <time>2019-07-10T12:10:59Z</time>
      </trkpt>
      <trkpt lat="43.94873" lon="3.89563">
        <ele>129.8</ele>
        <time>2019-07-10T12:11:00Z</time>
      </trkpt>
      <trkpt lat="43.94878" lon="3.89534">
        <ele>130.8</ele>
        <time>2019-07-10T12:11:07Z</time>
      </trkpt>
      <trkpt lat="43.94879" lon="3.89529">
        <ele>130.8</ele>
        <time>2019-07-10T12:11:08Z</time>
      </trkpt>
      <trkpt lat="43.94882" lon="3.89513">
        <ele>131.4</ele>
        <time>2019-07-10T12:11:12Z</time>
      </trkpt>
      <trkpt lat="43.94884" lon="3.89501">
        <ele>132</ele>
        <time>2019-07-10T12:11:15Z</time>
      </trkpt>
      <trkpt lat="43.94887" lon="3.89481">
        <ele>133.2</ele>
        <time>2019-07-10T12:11:20Z</time>
      </trkpt>
      <trkpt lat="43.94889" lon="3.89469">
        <ele>133.4</ele>
        <time>2019-07-10T12:11:23Z</time>
      </trkpt>
      <trkpt lat="43.94891" lon="3.89456">
        <ele>133.8</ele>
        <time>2019-07-10T12:11:26Z</time>
      </trkpt>
      <trkpt lat="43.94894" lon="3.89438">
        <ele>134.6</ele>
        <time>2019-07-10T12:11:30Z</time>
      </trkpt>
      <trkpt lat="43.94896" lon="3.89427">
        <ele>135.2</ele>
        <time>2019-07-10T12:11:33Z</time>
      </trkpt>
      <trkpt lat="43.949" lon="3.89407">
        <ele>135.8</ele>
        <time>2019-07-10T12:11:38Z</time>
      </trkpt>
      <trkpt lat="43.94906" lon="3.89363">
        <ele>136.8</ele>
        <time>2019-07-10T12:11:47Z</time>
      </trkpt>
      <trkpt lat="43.94906" lon="3.89359">
        <ele>136.8</ele>
        <time>2019-07-10T12:11:48Z</time>
      </trkpt>
      <trkpt lat="43.94904" lon="3.89323">
        <ele>137.4</ele>
        <time>2019-07-10T12:11:55Z</time>
      </trkpt>
      <trkpt lat="43.94903" lon="3.89313">
        <ele>137.6</ele>
        <time>2019-07-10T12:11:57Z</time>
      </trkpt>
      <trkpt lat="43.94896" lon="3.89271">
        <ele>138.6</ele>
        <time>2019-07-10T12:12:06Z</time>
      </trkpt>
      <trkpt lat="43.94893" lon="3.89258">
        <ele>138.8</ele>
        <time>2019-07-10T12:12:09Z</time>
      </trkpt>
      <trkpt lat="43.94887" lon="3.89231">
        <ele>139.4</ele>
        <time>2019-07-10T12:12:15Z</time>
      </trkpt>
      <trkpt lat="43.94886" lon="3.89227">
        <ele>139.6</ele>
        <time>2019-07-10T12:12:16Z</time>
      </trkpt>
      <trkpt lat="43.94878" lon="3.89202">
        <ele>140.4</ele>
        <time>2019-07-10T12:12:22Z</time>
      </trkpt>
      <trkpt lat="43.94876" lon="3.89194">
        <ele>141</ele>
        <time>2019-07-10T12:12:24Z</time>
      </trkpt>
      <trkpt lat="43.94867" lon="3.89164">
        <ele>142</ele>
        <time>2019-07-10T12:12:32Z</time>
      </trkpt>
      <trkpt lat="43.94865" lon="3.89156">
        <ele>142.2</ele>
        <time>2019-07-10T12:12:34Z</time>
      </trkpt>
      <trkpt lat="43.94858" lon="3.89128">
        <ele>143</ele>
        <time>2019-07-10T12:12:41Z</time>
      </trkpt>
      <trkpt lat="43.94856" lon="3.89121">
        <ele>143.4</ele>
        <time>2019-07-10T12:12:43Z</time>
      </trkpt>
      <trkpt lat="43.94852" lon="3.89105">
        <ele>144.2</ele>
        <time>2019-07-10T12:12:47Z</time>
      </trkpt>
      <trkpt lat="43.9485" lon="3.8909">
        <ele>145.2</ele>
        <time>2019-07-10T12:12:51Z</time>
      </trkpt>
      <trkpt lat="43.9485" lon="3.89083">
        <ele>145.4</ele>
        <time>2019-07-10T12:12:53Z</time>
      </trkpt>
      <trkpt lat="43.94849" lon="3.89076">
        <ele>145.6</ele>
        <time>2019-07-10T12:12:55Z</time>
      </trkpt>
      <trkpt lat="43.94848" lon="3.89069">
        <ele>146</ele>
        <time>2019-07-10T12:12:57Z</time>
      </trkpt>
      <trkpt lat="43.94848" lon="3.89048">
        <ele>147</ele>
        <time>2019-07-10T12:13:03Z</time>
      </trkpt>
      <trkpt lat="43.94848" lon="3.89034">
        <ele>147.6</ele>
        <time>2019-07-10T12:13:07Z</time>
      </trkpt>
      <trkpt lat="43.94849" lon="3.89021">
        <ele>148.2</ele>
        <time>2019-07-10T12:13:11Z</time>
      </trkpt>
      <trkpt lat="43.9485" lon="3.89015">
        <ele>148.8</ele>
        <time>2019-07-10T12:13:13Z</time>
      </trkpt>
      <trkpt lat="43.94851" lon="3.89002">
        <ele>149.6</ele>
        <time>2019-07-10T12:13:17Z</time>
      </trkpt>
      <trkpt lat="43.94851" lon="3.88992">
        <ele>150.2</ele>
        <time>2019-07-10T12:13:20Z</time>
      </trkpt>
      <trkpt lat="43.94852" lon="3.88982">
        <ele>150.6</ele>
        <time>2019-07-10T12:13:23Z</time>
      </trkpt>
      <trkpt lat="43.94854" lon="3.88952">
        <ele>151.6</ele>
        <time>2019-07-10T12:13:31Z</time>
      </trkpt>
      <trkpt lat="43.94854" lon="3.88915">
        <ele>152.2</ele>
        <time>2019-07-10T12:13:40Z</time>
      </trkpt>
      <trkpt lat="43.94854" lon="3.88911">
        <ele>152.2</ele>
        <time>2019-07-10T12:13:41Z</time>
      </trkpt>
      <trkpt lat="43.94854" lon="3.8888">
        <ele>152.8</ele>
        <time>2019-07-10T12:13:49Z</time>
      </trkpt>
      <trkpt lat="43.94854" lon="3.88876">
        <ele>153</ele>
        <time>2019-07-10T12:13:50Z</time>
      </trkpt>
      <trkpt lat="43.94854" lon="3.88848">
        <ele>154.2</ele>
        <time>2019-07-10T12:13:58Z</time>
      </trkpt>
      <trkpt lat="43.94855" lon="3.88844">
        <ele>154.2</ele>
        <time>2019-07-10T12:13:59Z</time>
      </trkpt>
      <trkpt lat="43.94855" lon="3.88828">
        <ele>154.8</ele>
        <time>2019-07-10T12:14:03Z</time>
      </trkpt>
      <trkpt lat="43.94856" lon="3.88805">
        <ele>155.6</ele>
        <time>2019-07-10T12:14:08Z</time>
      </trkpt>
      <trkpt lat="43.94856" lon="3.888">
        <ele>155.8</ele>
        <time>2019-07-10T12:14:09Z</time>
      </trkpt>
      <trkpt lat="43.94859" lon="3.88766">
        <ele>155.8</ele>
        <time>2019-07-10T12:14:15Z</time>
      </trkpt>
      <trkpt lat="43.9487" lon="3.88722">
        <ele>155.2</ele>
        <time>2019-07-10T12:14:22Z</time>
      </trkpt>
      <trkpt lat="43.9489" lon="3.88673">
        <ele>155.2</ele>
        <time>2019-07-10T12:14:30Z</time>
      </trkpt>
      <trkpt lat="43.94892" lon="3.88668">
        <ele>155</ele>
        <time>2019-07-10T12:14:31Z</time>
      </trkpt>
      <trkpt lat="43.9492" lon="3.88603">
        <ele>154.2</ele>
        <time>2019-07-10T12:14:40Z</time>
      </trkpt>
      <trkpt lat="43.9494" lon="3.88558">
        <ele>153.6</ele>
        <time>2019-07-10T12:14:46Z</time>
      </trkpt>
      <trkpt lat="43.9495" lon="3.88534">
        <ele>153</ele>
        <time>2019-07-10T12:14:49Z</time>
      </trkpt>
      <trkpt lat="43.94954" lon="3.88526">
        <ele>152.8</ele>
        <time>2019-07-10T12:14:50Z</time>
      </trkpt>
      <trkpt lat="43.94958" lon="3.88517">
        <ele>152.6</ele>
        <time>2019-07-10T12:14:51Z</time>
      </trkpt>
      <trkpt lat="43.94961" lon="3.8851">
        <ele>152.4</ele>
        <time>2019-07-10T12:14:52Z</time>
      </trkpt>
      <trkpt lat="43.94969" lon="3.88491">
        <ele>152</ele>
        <time>2019-07-10T12:14:54Z</time>
      </trkpt>
      <trkpt lat="43.94983" lon="3.88457">
        <ele>150.8</ele>
        <time>2019-07-10T12:14:58Z</time>
      </trkpt>
      <trkpt lat="43.94991" lon="3.88437">
        <ele>150.4</ele>
        <time>2019-07-10T12:15:00Z</time>
      </trkpt>
      <trkpt lat="43.94995" lon="3.88429">
        <ele>150.2</ele>
        <time>2019-07-10T12:15:01Z</time>
      </trkpt>
      <trkpt lat="43.94999" lon="3.88421">
        <ele>149.8</ele>
        <time>2019-07-10T12:15:02Z</time>
      </trkpt>
      <trkpt lat="43.95015" lon="3.88383">
        <ele>148.6</ele>
        <time>2019-07-10T12:15:07Z</time>
      </trkpt>
      <trkpt lat="43.95034" lon="3.8834">
        <ele>148.2</ele>
        <time>2019-07-10T12:15:14Z</time>
      </trkpt>
      <trkpt lat="43.95043" lon="3.8832">
        <ele>148.2</ele>
        <time>2019-07-10T12:15:18Z</time>
      </trkpt>
      <trkpt lat="43.95048" lon="3.8831">
        <ele>148.4</ele>
        <time>2019-07-10T12:15:20Z</time>
      </trkpt>
      <trkpt lat="43.95052" lon="3.883">
        <ele>148.8</ele>
        <time>2019-07-10T12:15:22Z</time>
      </trkpt>
      <trkpt lat="43.9508" lon="3.88235">
        <ele>149.8</ele>
        <time>2019-07-10T12:15:34Z</time>
      </trkpt>
      <trkpt lat="43.95082" lon="3.8823">
        <ele>150</ele>
        <time>2019-07-10T12:15:35Z</time>
      </trkpt>
      <trkpt lat="43.95085" lon="3.88224">
        <ele>150</ele>
        <time>2019-07-10T12:15:36Z</time>
      </trkpt>
      <trkpt lat="43.95087" lon="3.88219">
        <ele>150</ele>
        <time>2019-07-10T12:15:37Z</time>
      </trkpt>
      <trkpt lat="43.95095" lon="3.88201">
        <ele>150</ele>
        <time>2019-07-10T12:15:40Z</time>
      </trkpt>
      <trkpt lat="43.95105" lon="3.88178">
        <ele>149.8</ele>
        <time>2019-07-10T12:15:44Z</time>
      </trkpt>
      <trkpt lat="43.95131" lon="3.88115">
        <ele>149</ele>
        <time>2019-07-10T12:15:54Z</time>
      </trkpt>
      <trkpt lat="43.95137" lon="3.88102">
        <ele>148.8</ele>
        <time>2019-07-10T12:15:56Z</time>
      </trkpt>
      <trkpt lat="43.95151" lon="3.88068">
        <ele>148.2</ele>
        <time>2019-07-10T12:16:01Z</time>
      </trkpt>
      <trkpt lat="43.95163" lon="3.8804">
        <ele>147.2</ele>
        <time>2019-07-10T12:16:05Z</time>
      </trkpt>
      <trkpt lat="43.9518" lon="3.88">
        <ele>146.6</ele>
        <time>2019-07-10T12:16:11Z</time>
      </trkpt>
      <trkpt lat="43.95192" lon="3.87973">
        <ele>145.8</ele>
        <time>2019-07-10T12:16:15Z</time>
      </trkpt>
      <trkpt lat="43.95215" lon="3.87916">
        <ele>145.2</ele>
        <time>2019-07-10T12:16:24Z</time>
      </trkpt>
      <trkpt lat="43.95226" lon="3.87893">
        <ele>144.6</ele>
        <time>2019-07-10T12:16:28Z</time>
      </trkpt>
      <trkpt lat="43.95235" lon="3.8787">
        <ele>144.6</ele>
        <time>2019-07-10T12:16:32Z</time>
      </trkpt>
      <trkpt lat="43.95255" lon="3.87827">
        <ele>144.6</ele>
        <time>2019-07-10T12:16:40Z</time>
      </trkpt>
      <trkpt lat="43.95257" lon="3.87822">
        <ele>144.6</ele>
        <time>2019-07-10T12:16:41Z</time>
      </trkpt>
      <trkpt lat="43.9526" lon="3.87816">
        <ele>144.6</ele>
        <time>2019-07-10T12:16:42Z</time>
      </trkpt>
      <trkpt lat="43.95276" lon="3.87779">
        <ele>144.8</ele>
        <time>2019-07-10T12:16:49Z</time>
      </trkpt>
      <trkpt lat="43.95299" lon="3.87727">
        <ele>144.8</ele>
        <time>2019-07-10T12:16:59Z</time>
      </trkpt>
      <trkpt lat="43.95329" lon="3.87663">
        <ele>145</ele>
        <time>2019-07-10T12:17:11Z</time>
      </trkpt>
      <trkpt lat="43.95354" lon="3.87608">
        <ele>145.4</ele>
        <time>2019-07-10T12:17:21Z</time>
      </trkpt>
      <trkpt lat="43.95366" lon="3.87581">
        <ele>145.6</ele>
        <time>2019-07-10T12:17:26Z</time>
      </trkpt>
      <trkpt lat="43.95374" lon="3.87564">
        <ele>145.6</ele>
        <time>2019-07-10T12:17:29Z</time>
      </trkpt>
      <trkpt lat="43.95379" lon="3.87553">
        <ele>145.6</ele>
        <time>2019-07-10T12:17:31Z</time>
      </trkpt>
      <trkpt lat="43.95394" lon="3.87528">
        <ele>145.4</ele>
        <time>2019-07-10T12:17:36Z</time>
      </trkpt>
      <trkpt lat="43.95398" lon="3.87525">
        <ele>145.4</ele>
        <time>2019-07-10T12:17:37Z</time>
      </trkpt>
      <trkpt lat="43.95406" lon="3.87521">
        <ele>145.4</ele>
        <time>2019-07-10T12:17:39Z</time>
      </trkpt>
      <trkpt lat="43.95413" lon="3.87513">
        <ele>145.4</ele>
        <time>2019-07-10T12:17:41Z</time>
      </trkpt>
      <trkpt lat="43.95417" lon="3.87502">
        <ele>145.2</ele>
        <time>2019-07-10T12:17:43Z</time>
      </trkpt>
      <trkpt lat="43.95418" lon="3.87489">
        <ele>145.4</ele>
        <time>2019-07-10T12:17:45Z</time>
      </trkpt>
      <trkpt lat="43.95417" lon="3.87476">
        <ele>145.2</ele>
        <time>2019-07-10T12:17:47Z</time>
      </trkpt>
      <trkpt lat="43.95419" lon="3.87464">
        <ele>145.2</ele>
        <time>2019-07-10T12:17:49Z</time>
      </trkpt>
      <trkpt lat="43.95421" lon="3.87458">
        <ele>145</ele>
        <time>2019-07-10T12:17:50Z</time>
      </trkpt>
      <trkpt lat="43.95434" lon="3.87428">
        <ele>145</ele>
        <time>2019-07-10T12:17:55Z</time>
      </trkpt>
      <trkpt lat="43.95436" lon="3.87422">
        <ele>144.8</ele>
        <time>2019-07-10T12:17:56Z</time>
      </trkpt>
      <trkpt lat="43.95444" lon="3.87403">
        <ele>145</ele>
        <time>2019-07-10T12:17:59Z</time>
      </trkpt>
      <trkpt lat="43.95456" lon="3.87374">
        <ele>144.6</ele>
        <time>2019-07-10T12:18:04Z</time>
      </trkpt>
      <trkpt lat="43.95463" lon="3.87356">
        <ele>144.6</ele>
        <time>2019-07-10T12:18:07Z</time>
      </trkpt>
      <trkpt lat="43.95481" lon="3.87309">
        <ele>144.6</ele>
        <time>2019-07-10T12:18:15Z</time>
      </trkpt>
      <trkpt lat="43.95501" lon="3.87257">
        <ele>144.8</ele>
        <time>2019-07-10T12:18:24Z</time>
      </trkpt>
      <trkpt lat="43.95507" lon="3.8724">
        <ele>144.8</ele>
        <time>2019-07-10T12:18:27Z</time>
      </trkpt>
      <trkpt lat="43.95528" lon="3.87188">
        <ele>145.6</ele>
        <time>2019-07-10T12:18:37Z</time>
      </trkpt>
      <trkpt lat="43.95546" lon="3.87146">
        <ele>146</ele>
        <time>2019-07-10T12:18:45Z</time>
      </trkpt>
      <trkpt lat="43.95549" lon="3.87141">
        <ele>146</ele>
        <time>2019-07-10T12:18:46Z</time>
      </trkpt>
      <trkpt lat="43.95568" lon="3.87092">
        <ele>146.2</ele>
        <time>2019-07-10T12:18:54Z</time>
      </trkpt>
      <trkpt lat="43.95579" lon="3.87047">
        <ele>146.6</ele>
        <time>2019-07-10T12:19:01Z</time>
      </trkpt>
      <trkpt lat="43.95581" lon="3.87041">
        <ele>146.4</ele>
        <time>2019-07-10T12:19:02Z</time>
      </trkpt>
      <trkpt lat="43.95583" lon="3.87029">
        <ele>146.6</ele>
        <time>2019-07-10T12:19:04Z</time>
      </trkpt>
      <trkpt lat="43.95587" lon="3.87011">
        <ele>146.8</ele>
        <time>2019-07-10T12:19:07Z</time>
      </trkpt>
      <trkpt lat="43.95591" lon="3.86987">
        <ele>146.6</ele>
        <time>2019-07-10T12:19:11Z</time>
      </trkpt>
      <trkpt lat="43.95593" lon="3.8698">
        <ele>146.6</ele>
        <time>2019-07-10T12:19:12Z</time>
      </trkpt>
      <trkpt lat="43.95594" lon="3.86974">
        <ele>146.4</ele>
        <time>2019-07-10T12:19:13Z</time>
      </trkpt>
      <trkpt lat="43.95599" lon="3.86933">
        <ele>146.2</ele>
        <time>2019-07-10T12:19:19Z</time>
      </trkpt>
      <trkpt lat="43.956" lon="3.86927">
        <ele>146.2</ele>
        <time>2019-07-10T12:19:20Z</time>
      </trkpt>
      <trkpt lat="43.95609" lon="3.86875">
        <ele>146.2</ele>
        <time>2019-07-10T12:19:28Z</time>
      </trkpt>
      <trkpt lat="43.95621" lon="3.86831">
        <ele>146.2</ele>
        <time>2019-07-10T12:19:35Z</time>
      </trkpt>
      <trkpt lat="43.95622" lon="3.86825">
        <ele>146.2</ele>
        <time>2019-07-10T12:19:36Z</time>
      </trkpt>
      <trkpt lat="43.95624" lon="3.86819">
        <ele>146.2</ele>
        <time>2019-07-10T12:19:37Z</time>
      </trkpt>
      <trkpt lat="43.95633" lon="3.8679">
        <ele>146.4</ele>
        <time>2019-07-10T12:19:42Z</time>
      </trkpt>
      <trkpt lat="43.95638" lon="3.86773">
        <ele>146.6</ele>
        <time>2019-07-10T12:19:45Z</time>
      </trkpt>
      <trkpt lat="43.95648" lon="3.86745">
        <ele>146.8</ele>
        <time>2019-07-10T12:19:50Z</time>
      </trkpt>
      <trkpt lat="43.95652" lon="3.86735">
        <ele>147</ele>
        <time>2019-07-10T12:19:52Z</time>
      </trkpt>
      <trkpt lat="43.9566" lon="3.86708">
        <ele>147.4</ele>
        <time>2019-07-10T12:19:57Z</time>
      </trkpt>
      <trkpt lat="43.95665" lon="3.86693">
        <ele>147.8</ele>
        <time>2019-07-10T12:20:00Z</time>
      </trkpt>
      <trkpt lat="43.95674" lon="3.86666">
        <ele>148.4</ele>
        <time>2019-07-10T12:20:05Z</time>
      </trkpt>
      <trkpt lat="43.95676" lon="3.86661">
        <ele>148.4</ele>
        <time>2019-07-10T12:20:06Z</time>
      </trkpt>
      <trkpt lat="43.95677" lon="3.86655">
        <ele>148.6</ele>
        <time>2019-07-10T12:20:07Z</time>
      </trkpt>
      <trkpt lat="43.95691" lon="3.86596">
        <ele>149</ele>
        <time>2019-07-10T12:20:17Z</time>
      </trkpt>
      <trkpt lat="43.95693" lon="3.86585">
        <ele>149</ele>
        <time>2019-07-10T12:20:19Z</time>
      </trkpt>
      <trkpt lat="43.95701" lon="3.86548">
        <ele>149.6</ele>
        <time>2019-07-10T12:20:25Z</time>
      </trkpt>
      <trkpt lat="43.95709" lon="3.86502">
        <ele>150.2</ele>
        <time>2019-07-10T12:20:33Z</time>
      </trkpt>
      <trkpt lat="43.95714" lon="3.86479">
        <ele>150</ele>
        <time>2019-07-10T12:20:37Z</time>
      </trkpt>
      <trkpt lat="43.95717" lon="3.86463">
        <ele>150.4</ele>
        <time>2019-07-10T12:20:40Z</time>
      </trkpt>
      <trkpt lat="43.95728" lon="3.8641">
        <ele>150.6</ele>
        <time>2019-07-10T12:20:49Z</time>
      </trkpt>
      <trkpt lat="43.95733" lon="3.86381">
        <ele>151</ele>
        <time>2019-07-10T12:20:54Z</time>
      </trkpt>
      <trkpt lat="43.95734" lon="3.86375">
        <ele>151</ele>
        <time>2019-07-10T12:20:55Z</time>
      </trkpt>
      <trkpt lat="43.95739" lon="3.86352">
        <ele>151.2</ele>
        <time>2019-07-10T12:20:59Z</time>
      </trkpt>
      <trkpt lat="43.9575" lon="3.86295">
        <ele>151.8</ele>
        <time>2019-07-10T12:21:09Z</time>
      </trkpt>
      <trkpt lat="43.95756" lon="3.86267">
        <ele>152</ele>
        <time>2019-07-10T12:21:14Z</time>
      </trkpt>
      <trkpt lat="43.95761" lon="3.86241">
        <ele>152.4</ele>
        <time>2019-07-10T12:21:19Z</time>
      </trkpt>
      <trkpt lat="43.95775" lon="3.86174">
        <ele>153</ele>
        <time>2019-07-10T12:21:31Z</time>
      </trkpt>
      <trkpt lat="43.95778" lon="3.86158">
        <ele>153</ele>
        <time>2019-07-10T12:21:34Z</time>
      </trkpt>
      <trkpt lat="43.95779" lon="3.86153">
        <ele>153</ele>
        <time>2019-07-10T12:21:35Z</time>
      </trkpt>
      <trkpt lat="43.95785" lon="3.86137">
        <ele>153.2</ele>
        <time>2019-07-10T12:21:38Z</time>
      </trkpt>
      <trkpt lat="43.95787" lon="3.86132">
        <ele>153.4</ele>
        <time>2019-07-10T12:21:39Z</time>
      </trkpt>
      <trkpt lat="43.95793" lon="3.86123">
        <ele>153.4</ele>
        <time>2019-07-10T12:21:41Z</time>
      </trkpt>
      <trkpt lat="43.958" lon="3.86118">
        <ele>153.6</ele>
        <time>2019-07-10T12:21:43Z</time>
      </trkpt>
      <trkpt lat="43.95804" lon="3.86117">
        <ele>153.8</ele>
        <time>2019-07-10T12:21:44Z</time>
      </trkpt>
      <trkpt lat="43.95809" lon="3.86117">
        <ele>153.8</ele>
        <time>2019-07-10T12:21:45Z</time>
      </trkpt>
      <trkpt lat="43.95817" lon="3.8612">
        <ele>153.8</ele>
        <time>2019-07-10T12:21:47Z</time>
      </trkpt>
      <trkpt lat="43.95821" lon="3.8612">
        <ele>153.6</ele>
        <time>2019-07-10T12:21:48Z</time>
      </trkpt>
      <trkpt lat="43.95829" lon="3.86118">
        <ele>153.8</ele>
        <time>2019-07-10T12:21:50Z</time>
      </trkpt>
      <trkpt lat="43.95833" lon="3.86115">
        <ele>153.6</ele>
        <time>2019-07-10T12:21:51Z</time>
      </trkpt>
      <trkpt lat="43.95836" lon="3.86111">
        <ele>153.8</ele>
        <time>2019-07-10T12:21:52Z</time>
      </trkpt>
      <trkpt lat="43.95842" lon="3.86098">
        <ele>153.6</ele>
        <time>2019-07-10T12:21:55Z</time>
      </trkpt>
      <trkpt lat="43.95843" lon="3.86093">
        <ele>153.4</ele>
        <time>2019-07-10T12:21:56Z</time>
      </trkpt>
      <trkpt lat="43.95837" lon="3.86073">
        <ele>153.4</ele>
        <time>2019-07-10T12:22:00Z</time>
      </trkpt>
      <trkpt lat="43.95825" lon="3.86064">
        <ele>153.2</ele>
        <time>2019-07-10T12:22:03Z</time>
      </trkpt>
      <trkpt lat="43.95821" lon="3.86063">
        <ele>153.2</ele>
        <time>2019-07-10T12:22:04Z</time>
      </trkpt>
      <trkpt lat="43.95812" lon="3.86059">
        <ele>153</ele>
        <time>2019-07-10T12:22:06Z</time>
      </trkpt>
      <trkpt lat="43.95806" lon="3.86053">
        <ele>153</ele>
        <time>2019-07-10T12:22:08Z</time>
      </trkpt>
      <trkpt lat="43.95803" lon="3.86049">
        <ele>153</ele>
        <time>2019-07-10T12:22:09Z</time>
      </trkpt>
      <trkpt lat="43.95801" lon="3.86039">
        <ele>153.4</ele>
        <time>2019-07-10T12:22:11Z</time>
      </trkpt>
      <trkpt lat="43.95801" lon="3.86031">
        <ele>153.4</ele>
        <time>2019-07-10T12:22:13Z</time>
      </trkpt>
      <trkpt lat="43.95805" lon="3.86002">
        <ele>154.6</ele>
        <time>2019-07-10T12:22:19Z</time>
      </trkpt>
      <trkpt lat="43.95811" lon="3.85972">
        <ele>154.8</ele>
        <time>2019-07-10T12:22:25Z</time>
      </trkpt>
      <trkpt lat="43.95813" lon="3.85967">
        <ele>154.6</ele>
        <time>2019-07-10T12:22:26Z</time>
      </trkpt>
      <trkpt lat="43.95813" lon="3.85961">
        <ele>154.6</ele>
        <time>2019-07-10T12:22:27Z</time>
      </trkpt>
      <trkpt lat="43.95822" lon="3.85922">
        <ele>155</ele>
        <time>2019-07-10T12:22:35Z</time>
      </trkpt>
      <trkpt lat="43.95823" lon="3.85917">
        <ele>155.2</ele>
        <time>2019-07-10T12:22:36Z</time>
      </trkpt>
      <trkpt lat="43.95831" lon="3.85894">
        <ele>155.6</ele>
        <time>2019-07-10T12:22:41Z</time>
      </trkpt>
      <trkpt lat="43.95845" lon="3.85859">
        <ele>156.4</ele>
        <time>2019-07-10T12:22:49Z</time>
      </trkpt>
      <trkpt lat="43.9585" lon="3.85846">
        <ele>156.6</ele>
        <time>2019-07-10T12:22:52Z</time>
      </trkpt>
      <trkpt lat="43.95862" lon="3.85814">
        <ele>156.8</ele>
        <time>2019-07-10T12:22:59Z</time>
      </trkpt>
      <trkpt lat="43.95872" lon="3.85793">
        <ele>156.8</ele>
        <time>2019-07-10T12:23:04Z</time>
      </trkpt>
      <trkpt lat="43.95877" lon="3.85779">
        <ele>156.2</ele>
        <time>2019-07-10T12:23:09Z</time>
      </trkpt>
      <trkpt lat="43.9588" lon="3.85769">
        <ele>155.8</ele>
        <time>2019-07-10T12:23:13Z</time>
      </trkpt>
      <trkpt lat="43.95882" lon="3.85764">
        <ele>155.6</ele>
        <time>2019-07-10T12:23:15Z</time>
      </trkpt>
      <trkpt lat="43.95886" lon="3.85744">
        <ele>155.2</ele>
        <time>2019-07-10T12:23:20Z</time>
      </trkpt>
      <trkpt lat="43.95891" lon="3.85725">
        <ele>155.2</ele>
        <time>2019-07-10T12:23:24Z</time>
      </trkpt>
      <trkpt lat="43.95892" lon="3.85721">
        <ele>155.2</ele>
        <time>2019-07-10T12:23:25Z</time>
      </trkpt>
      <trkpt lat="43.959" lon="3.85692">
        <ele>156</ele>
        <time>2019-07-10T12:23:32Z</time>
      </trkpt>
      <trkpt lat="43.95908" lon="3.85653">
        <ele>156.6</ele>
        <time>2019-07-10T12:23:41Z</time>
      </trkpt>
      <trkpt lat="43.95909" lon="3.85643">
        <ele>157</ele>
        <time>2019-07-10T12:23:43Z</time>
      </trkpt>
      <trkpt lat="43.95913" lon="3.85625">
        <ele>157</ele>
        <time>2019-07-10T12:23:47Z</time>
      </trkpt>
      <trkpt lat="43.95921" lon="3.85594">
        <ele>158</ele>
        <time>2019-07-10T12:23:55Z</time>
      </trkpt>
      <trkpt lat="43.95925" lon="3.85583">
        <ele>158</ele>
        <time>2019-07-10T12:23:58Z</time>
      </trkpt>
      <trkpt lat="43.95932" lon="3.8555">
        <ele>159.2</ele>
        <time>2019-07-10T12:24:05Z</time>
      </trkpt>
      <trkpt lat="43.95933" lon="3.85546">
        <ele>159.4</ele>
        <time>2019-07-10T12:24:06Z</time>
      </trkpt>
      <trkpt lat="43.95937" lon="3.85524">
        <ele>159.4</ele>
        <time>2019-07-10T12:24:10Z</time>
      </trkpt>
      <trkpt lat="43.95939" lon="3.85513">
        <ele>159.4</ele>
        <time>2019-07-10T12:24:12Z</time>
      </trkpt>
      <trkpt lat="43.95945" lon="3.85471">
        <ele>159.2</ele>
        <time>2019-07-10T12:24:19Z</time>
      </trkpt>
      <trkpt lat="43.95945" lon="3.85465">
        <ele>159.2</ele>
        <time>2019-07-10T12:24:20Z</time>
      </trkpt>
      <trkpt lat="43.95946" lon="3.85459">
        <ele>159.2</ele>
        <time>2019-07-10T12:24:21Z</time>
      </trkpt>
      <trkpt lat="43.95946" lon="3.85453">
        <ele>159.2</ele>
        <time>2019-07-10T12:24:22Z</time>
      </trkpt>
      <trkpt lat="43.95947" lon="3.85448">
        <ele>159.2</ele>
        <time>2019-07-10T12:24:23Z</time>
      </trkpt>
      <trkpt lat="43.95948" lon="3.85443">
        <ele>159.2</ele>
        <time>2019-07-10T12:24:24Z</time>
      </trkpt>
      <trkpt lat="43.95951" lon="3.85433">
        <ele>159</ele>
        <time>2019-07-10T12:24:26Z</time>
      </trkpt>
      <trkpt lat="43.95957" lon="3.85413">
        <ele>158.8</ele>
        <time>2019-07-10T12:24:30Z</time>
      </trkpt>
      <trkpt lat="43.95959" lon="3.85401">
        <ele>159</ele>
        <time>2019-07-10T12:24:32Z</time>
      </trkpt>
      <trkpt lat="43.9596" lon="3.85395">
        <ele>159</ele>
        <time>2019-07-10T12:24:33Z</time>
      </trkpt>
      <trkpt lat="43.95963" lon="3.85371">
        <ele>159</ele>
        <time>2019-07-10T12:24:37Z</time>
      </trkpt>
      <trkpt lat="43.95963" lon="3.85366">
        <ele>158.8</ele>
        <time>2019-07-10T12:24:38Z</time>
      </trkpt>
      <trkpt lat="43.95971" lon="3.85299">
        <ele>159.2</ele>
        <time>2019-07-10T12:24:49Z</time>
      </trkpt>
      <trkpt lat="43.95977" lon="3.85246">
        <ele>159.6</ele>
        <time>2019-07-10T12:24:58Z</time>
      </trkpt>
      <trkpt lat="43.95977" lon="3.85241">
        <ele>159.6</ele>
        <time>2019-07-10T12:24:59Z</time>
      </trkpt>
      <trkpt lat="43.95978" lon="3.85235">
        <ele>159.6</ele>
        <time>2019-07-10T12:25:00Z</time>
      </trkpt>
      <trkpt lat="43.9598" lon="3.85223">
        <ele>159.8</ele>
        <time>2019-07-10T12:25:02Z</time>
      </trkpt>
      <trkpt lat="43.9598" lon="3.85219">
        <ele>159.6</ele>
        <time>2019-07-10T12:25:03Z</time>
      </trkpt>
      <trkpt lat="43.95981" lon="3.85214">
        <ele>159.8</ele>
        <time>2019-07-10T12:25:04Z</time>
      </trkpt>
      <trkpt lat="43.95982" lon="3.85205">
        <ele>159.8</ele>
        <time>2019-07-10T12:25:06Z</time>
      </trkpt>
      <trkpt lat="43.95983" lon="3.85201">
        <ele>159.8</ele>
        <time>2019-07-10T12:25:07Z</time>
      </trkpt>
      <trkpt lat="43.95986" lon="3.85194">
        <ele>159.6</ele>
        <time>2019-07-10T12:25:10Z</time>
      </trkpt>
      <trkpt lat="43.95991" lon="3.85176">
        <ele>159.2</ele>
        <time>2019-07-10T12:25:15Z</time>
      </trkpt>
      <trkpt lat="43.95992" lon="3.85157">
        <ele>159.2</ele>
        <time>2019-07-10T12:25:19Z</time>
      </trkpt>
      <trkpt lat="43.95993" lon="3.85147">
        <ele>159.4</ele>
        <time>2019-07-10T12:25:21Z</time>
      </trkpt>
      <trkpt lat="43.95996" lon="3.85127">
        <ele>159.8</ele>
        <time>2019-07-10T12:25:25Z</time>
      </trkpt>
      <trkpt lat="43.95997" lon="3.85122">
        <ele>160</ele>
        <time>2019-07-10T12:25:26Z</time>
      </trkpt>
      <trkpt lat="43.95998" lon="3.85117">
        <ele>160</ele>
        <time>2019-07-10T12:25:27Z</time>
      </trkpt>
      <trkpt lat="43.95999" lon="3.85106">
        <ele>160.2</ele>
        <time>2019-07-10T12:25:29Z</time>
      </trkpt>
      <trkpt lat="43.96002" lon="3.85064">
        <ele>160.6</ele>
        <time>2019-07-10T12:25:37Z</time>
      </trkpt>
      <trkpt lat="43.96002" lon="3.85028">
        <ele>161</ele>
        <time>2019-07-10T12:25:44Z</time>
      </trkpt>
      <trkpt lat="43.96002" lon="3.85016">
        <ele>161.2</ele>
        <time>2019-07-10T12:25:46Z</time>
      </trkpt>
      <trkpt lat="43.95999" lon="3.84991">
        <ele>161.4</ele>
        <time>2019-07-10T12:25:50Z</time>
      </trkpt>
      <trkpt lat="43.95997" lon="3.84985">
        <ele>161.4</ele>
        <time>2019-07-10T12:25:51Z</time>
      </trkpt>
      <trkpt lat="43.95982" lon="3.84947">
        <ele>160.8</ele>
        <time>2019-07-10T12:25:58Z</time>
      </trkpt>
      <trkpt lat="43.95981" lon="3.84936">
        <ele>160.6</ele>
        <time>2019-07-10T12:26:00Z</time>
      </trkpt>
      <trkpt lat="43.95981" lon="3.8493">
        <ele>160.2</ele>
        <time>2019-07-10T12:26:01Z</time>
      </trkpt>
      <trkpt lat="43.95982" lon="3.84918">
        <ele>160.4</ele>
        <time>2019-07-10T12:26:03Z</time>
      </trkpt>
      <trkpt lat="43.95979" lon="3.84898">
        <ele>160</ele>
        <time>2019-07-10T12:26:07Z</time>
      </trkpt>
      <trkpt lat="43.95978" lon="3.84883">
        <ele>160.2</ele>
        <time>2019-07-10T12:26:10Z</time>
      </trkpt>
      <trkpt lat="43.95979" lon="3.84873">
        <ele>160.2</ele>
        <time>2019-07-10T12:26:12Z</time>
      </trkpt>
      <trkpt lat="43.95984" lon="3.84833">
        <ele>160.6</ele>
        <time>2019-07-10T12:26:20Z</time>
      </trkpt>
      <trkpt lat="43.95984" lon="3.84823">
        <ele>160.6</ele>
        <time>2019-07-10T12:26:22Z</time>
      </trkpt>
      <trkpt lat="43.95985" lon="3.84813">
        <ele>161</ele>
        <time>2019-07-10T12:26:24Z</time>
      </trkpt>
      <trkpt lat="43.95985" lon="3.8479">
        <ele>162</ele>
        <time>2019-07-10T12:26:29Z</time>
      </trkpt>
      <trkpt lat="43.95983" lon="3.84766">
        <ele>162.4</ele>
        <time>2019-07-10T12:26:34Z</time>
      </trkpt>
      <trkpt lat="43.95982" lon="3.84752">
        <ele>162.8</ele>
        <time>2019-07-10T12:26:37Z</time>
      </trkpt>
      <trkpt lat="43.9598" lon="3.84723">
        <ele>164</ele>
        <time>2019-07-10T12:26:44Z</time>
      </trkpt>
      <trkpt lat="43.9598" lon="3.84693">
        <ele>164.6</ele>
        <time>2019-07-10T12:26:51Z</time>
      </trkpt>
      <trkpt lat="43.9598" lon="3.84684">
        <ele>164.8</ele>
        <time>2019-07-10T12:26:53Z</time>
      </trkpt>
      <trkpt lat="43.95981" lon="3.84673">
        <ele>165</ele>
        <time>2019-07-10T12:26:56Z</time>
      </trkpt>
      <trkpt lat="43.95984" lon="3.84646">
        <ele>165.6</ele>
        <time>2019-07-10T12:27:03Z</time>
      </trkpt>
      <trkpt lat="43.95983" lon="3.84628">
        <ele>165.8</ele>
        <time>2019-07-10T12:27:08Z</time>
      </trkpt>
      <trkpt lat="43.95983" lon="3.84624">
        <ele>166</ele>
        <time>2019-07-10T12:27:09Z</time>
      </trkpt>
      <trkpt lat="43.95983" lon="3.84621">
        <ele>166</ele>
        <time>2019-07-10T12:27:12Z</time>
      </trkpt>
      <trkpt lat="43.95985" lon="3.84616">
        <ele>166</ele>
        <time>2019-07-10T12:27:15Z</time>
      </trkpt>
      <trkpt lat="43.95985" lon="3.84612">
        <ele>166.2</ele>
        <time>2019-07-10T12:27:16Z</time>
      </trkpt>
      <trkpt lat="43.95985" lon="3.84609">
        <ele>166.2</ele>
        <time>2019-07-10T12:27:17Z</time>
      </trkpt>
      <trkpt lat="43.95976" lon="3.84587">
        <ele>166.2</ele>
        <time>2019-07-10T12:27:22Z</time>
      </trkpt>
      <trkpt lat="43.95971" lon="3.84573">
        <ele>166.2</ele>
        <time>2019-07-10T12:27:25Z</time>
      </trkpt>
      <trkpt lat="43.95964" lon="3.8455">
        <ele>166.8</ele>
        <time>2019-07-10T12:27:30Z</time>
      </trkpt>
      <trkpt lat="43.9595" lon="3.84506">
        <ele>167.8</ele>
        <time>2019-07-10T12:27:39Z</time>
      </trkpt>
      <trkpt lat="43.95943" lon="3.8448">
        <ele>168</ele>
        <time>2019-07-10T12:27:45Z</time>
      </trkpt>
      <trkpt lat="43.95935" lon="3.84451">
        <ele>168.6</ele>
        <time>2019-07-10T12:27:51Z</time>
      </trkpt>
      <trkpt lat="43.95923" lon="3.84411">
        <ele>169.2</ele>
        <time>2019-07-10T12:28:00Z</time>
      </trkpt>
      <trkpt lat="43.95911" lon="3.84368">
        <ele>169.4</ele>
        <time>2019-07-10T12:28:09Z</time>
      </trkpt>
      <trkpt lat="43.95909" lon="3.84363">
        <ele>169.6</ele>
        <time>2019-07-10T12:28:10Z</time>
      </trkpt>
      <trkpt lat="43.959" lon="3.84323">
        <ele>170</ele>
        <time>2019-07-10T12:28:18Z</time>
      </trkpt>
      <trkpt lat="43.95897" lon="3.84307">
        <ele>170.2</ele>
        <time>2019-07-10T12:28:21Z</time>
      </trkpt>
      <trkpt lat="43.95888" lon="3.84245">
        <ele>170.8</ele>
        <time>2019-07-10T12:28:33Z</time>
      </trkpt>
      <trkpt lat="43.95888" lon="3.84239">
        <ele>171</ele>
        <time>2019-07-10T12:28:34Z</time>
      </trkpt>
      <trkpt lat="43.95882" lon="3.84182">
        <ele>171.8</ele>
        <time>2019-07-10T12:28:45Z</time>
      </trkpt>
      <trkpt lat="43.9588" lon="3.84155">
        <ele>172</ele>
        <time>2019-07-10T12:28:50Z</time>
      </trkpt>
      <trkpt lat="43.95879" lon="3.84144">
        <ele>172</ele>
        <time>2019-07-10T12:28:52Z</time>
      </trkpt>
      <trkpt lat="43.95878" lon="3.84134">
        <ele>172</ele>
        <time>2019-07-10T12:28:54Z</time>
      </trkpt>
      <trkpt lat="43.95877" lon="3.84127">
        <ele>172</ele>
        <time>2019-07-10T12:28:55Z</time>
      </trkpt>
      <trkpt lat="43.95876" lon="3.84121">
        <ele>172.2</ele>
        <time>2019-07-10T12:28:56Z</time>
      </trkpt>
      <trkpt lat="43.95876" lon="3.84111">
        <ele>172.4</ele>
        <time>2019-07-10T12:28:58Z</time>
      </trkpt>
      <trkpt lat="43.95875" lon="3.841">
        <ele>172.4</ele>
        <time>2019-07-10T12:29:00Z</time>
      </trkpt>
      <trkpt lat="43.95871" lon="3.84055">
        <ele>173.2</ele>
        <time>2019-07-10T12:29:09Z</time>
      </trkpt>
      <trkpt lat="43.9587" lon="3.8405">
        <ele>173.4</ele>
        <time>2019-07-10T12:29:10Z</time>
      </trkpt>
      <trkpt lat="43.95867" lon="3.84011">
        <ele>174.4</ele>
        <time>2019-07-10T12:29:18Z</time>
      </trkpt>
      <trkpt lat="43.95866" lon="3.84006">
        <ele>174.4</ele>
        <time>2019-07-10T12:29:19Z</time>
      </trkpt>
      <trkpt lat="43.95861" lon="3.83951">
        <ele>175.2</ele>
        <time>2019-07-10T12:29:30Z</time>
      </trkpt>
      <trkpt lat="43.95857" lon="3.83915">
        <ele>175.6</ele>
        <time>2019-07-10T12:29:37Z</time>
      </trkpt>
      <trkpt lat="43.95856" lon="3.83904">
        <ele>175.8</ele>
        <time>2019-07-10T12:29:39Z</time>
      </trkpt>
      <trkpt lat="43.95853" lon="3.83863">
        <ele>176.2</ele>
        <time>2019-07-10T12:29:47Z</time>
      </trkpt>
      <trkpt lat="43.95851" lon="3.83848">
        <ele>176.4</ele>
        <time>2019-07-10T12:29:50Z</time>
      </trkpt>
      <trkpt lat="43.95851" lon="3.83842">
        <ele>176.4</ele>
        <time>2019-07-10T12:29:51Z</time>
      </trkpt>
      <trkpt lat="43.95847" lon="3.838">
        <ele>177.4</ele>
        <time>2019-07-10T12:29:59Z</time>
      </trkpt>
      <trkpt lat="43.95844" lon="3.83773">
        <ele>178</ele>
        <time>2019-07-10T12:30:04Z</time>
      </trkpt>
      <trkpt lat="43.95841" lon="3.83742">
        <ele>178.4</ele>
        <time>2019-07-10T12:30:10Z</time>
      </trkpt>
      <trkpt lat="43.95837" lon="3.83702">
        <ele>179</ele>
        <time>2019-07-10T12:30:18Z</time>
      </trkpt>
      <trkpt lat="43.95836" lon="3.83687">
        <ele>179</ele>
        <time>2019-07-10T12:30:21Z</time>
      </trkpt>
      <trkpt lat="43.9583" lon="3.83627">
        <ele>179.8</ele>
        <time>2019-07-10T12:30:32Z</time>
      </trkpt>
      <trkpt lat="43.95824" lon="3.83563">
        <ele>180.2</ele>
        <time>2019-07-10T12:30:43Z</time>
      </trkpt>
      <trkpt lat="43.95818" lon="3.83504">
        <ele>180</ele>
        <time>2019-07-10T12:30:53Z</time>
      </trkpt>
      <trkpt lat="43.95817" lon="3.83468">
        <ele>180.4</ele>
        <time>2019-07-10T12:30:59Z</time>
      </trkpt>
      <trkpt lat="43.95817" lon="3.83446">
        <ele>181</ele>
        <time>2019-07-10T12:31:03Z</time>
      </trkpt>
      <trkpt lat="43.9582" lon="3.83398">
        <ele>181.8</ele>
        <time>2019-07-10T12:31:12Z</time>
      </trkpt>
      <trkpt lat="43.95823" lon="3.83349">
        <ele>182</ele>
        <time>2019-07-10T12:31:21Z</time>
      </trkpt>
      <trkpt lat="43.95826" lon="3.83308">
        <ele>182</ele>
        <time>2019-07-10T12:31:29Z</time>
      </trkpt>
      <trkpt lat="43.95834" lon="3.83262">
        <ele>182</ele>
        <time>2019-07-10T12:31:38Z</time>
      </trkpt>
      <trkpt lat="43.9585" lon="3.83211">
        <ele>182.2</ele>
        <time>2019-07-10T12:31:48Z</time>
      </trkpt>
      <trkpt lat="43.95871" lon="3.8317">
        <ele>182.6</ele>
        <time>2019-07-10T12:31:57Z</time>
      </trkpt>
      <trkpt lat="43.95887" lon="3.83131">
        <ele>182.4</ele>
        <time>2019-07-10T12:32:05Z</time>
      </trkpt>
      <trkpt lat="43.95892" lon="3.83114">
        <ele>182.6</ele>
        <time>2019-07-10T12:32:08Z</time>
      </trkpt>
      <trkpt lat="43.959" lon="3.83075">
        <ele>183</ele>
        <time>2019-07-10T12:32:15Z</time>
      </trkpt>
      <trkpt lat="43.95901" lon="3.83064">
        <ele>183</ele>
        <time>2019-07-10T12:32:17Z</time>
      </trkpt>
      <trkpt lat="43.95904" lon="3.83035">
        <ele>184</ele>
        <time>2019-07-10T12:32:23Z</time>
      </trkpt>
      <trkpt lat="43.95904" lon="3.83026">
        <ele>184</ele>
        <time>2019-07-10T12:32:25Z</time>
      </trkpt>
      <trkpt lat="43.95903" lon="3.83003">
        <ele>185</ele>
        <time>2019-07-10T12:32:30Z</time>
      </trkpt>
      <trkpt lat="43.95901" lon="3.82975">
        <ele>185.6</ele>
        <time>2019-07-10T12:32:36Z</time>
      </trkpt>
      <trkpt lat="43.959" lon="3.82965">
        <ele>185.8</ele>
        <time>2019-07-10T12:32:38Z</time>
      </trkpt>
      <trkpt lat="43.95895" lon="3.82916">
        <ele>186.4</ele>
        <time>2019-07-10T12:32:49Z</time>
      </trkpt>
      <trkpt lat="43.95891" lon="3.82882">
        <ele>187</ele>
        <time>2019-07-10T12:32:58Z</time>
      </trkpt>
      <trkpt lat="43.95891" lon="3.82874">
        <ele>187.2</ele>
        <time>2019-07-10T12:33:00Z</time>
      </trkpt>
      <trkpt lat="43.95887" lon="3.82842">
        <ele>187.8</ele>
        <time>2019-07-10T12:33:08Z</time>
      </trkpt>
      <trkpt lat="43.95886" lon="3.82835">
        <ele>188</ele>
        <time>2019-07-10T12:33:10Z</time>
      </trkpt>
      <trkpt lat="43.95883" lon="3.82808">
        <ele>189</ele>
        <time>2019-07-10T12:33:17Z</time>
      </trkpt>
      <trkpt lat="43.95882" lon="3.82801">
        <ele>189</ele>
        <time>2019-07-10T12:33:19Z</time>
      </trkpt>
      <trkpt lat="43.95879" lon="3.82771">
        <ele>190.2</ele>
        <time>2019-07-10T12:33:27Z</time>
      </trkpt>
      <trkpt lat="43.95878" lon="3.8276">
        <ele>190.6</ele>
        <time>2019-07-10T12:33:30Z</time>
      </trkpt>
      <trkpt lat="43.95874" lon="3.8273">
        <ele>191.8</ele>
        <time>2019-07-10T12:33:38Z</time>
      </trkpt>
      <trkpt lat="43.95872" lon="3.82719">
        <ele>192.2</ele>
        <time>2019-07-10T12:33:41Z</time>
      </trkpt>
      <trkpt lat="43.95863" lon="3.82683">
        <ele>192.8</ele>
        <time>2019-07-10T12:33:50Z</time>
      </trkpt>
      <trkpt lat="43.95858" lon="3.82661">
        <ele>193.4</ele>
        <time>2019-07-10T12:33:56Z</time>
      </trkpt>
      <trkpt lat="43.95854" lon="3.82642">
        <ele>194</ele>
        <time>2019-07-10T12:34:01Z</time>
      </trkpt>
      <trkpt lat="43.95844" lon="3.82601">
        <ele>195</ele>
        <time>2019-07-10T12:34:12Z</time>
      </trkpt>
      <trkpt lat="43.95837" lon="3.82574">
        <ele>195.4</ele>
        <time>2019-07-10T12:34:19Z</time>
      </trkpt>
      <trkpt lat="43.95833" lon="3.82558">
        <ele>195.4</ele>
        <time>2019-07-10T12:34:23Z</time>
      </trkpt>
      <trkpt lat="43.95826" lon="3.82527">
        <ele>196.4</ele>
        <time>2019-07-10T12:34:31Z</time>
      </trkpt>
      <trkpt lat="43.95824" lon="3.82519">
        <ele>196.4</ele>
        <time>2019-07-10T12:34:33Z</time>
      </trkpt>
      <trkpt lat="43.95814" lon="3.8248">
        <ele>197</ele>
        <time>2019-07-10T12:34:43Z</time>
      </trkpt>
      <trkpt lat="43.95805" lon="3.82439">
        <ele>197.2</ele>
        <time>2019-07-10T12:34:53Z</time>
      </trkpt>
      <trkpt lat="43.95794" lon="3.82393">
        <ele>197.6</ele>
        <time>2019-07-10T12:35:04Z</time>
      </trkpt>
      <trkpt lat="43.95785" lon="3.82357">
        <ele>198</ele>
        <time>2019-07-10T12:35:13Z</time>
      </trkpt>
      <trkpt lat="43.95776" lon="3.82322">
        <ele>198.6</ele>
        <time>2019-07-10T12:35:22Z</time>
      </trkpt>
      <trkpt lat="43.95767" lon="3.82282">
        <ele>198.8</ele>
        <time>2019-07-10T12:35:32Z</time>
      </trkpt>
      <trkpt lat="43.95764" lon="3.82271">
        <ele>199</ele>
        <time>2019-07-10T12:35:35Z</time>
      </trkpt>
      <trkpt lat="43.95752" lon="3.82225">
        <ele>199.2</ele>
        <time>2019-07-10T12:35:47Z</time>
      </trkpt>
      <trkpt lat="43.9575" lon="3.82217">
        <ele>199.4</ele>
        <time>2019-07-10T12:35:49Z</time>
      </trkpt>
      <trkpt lat="43.95749" lon="3.82213">
        <ele>199.2</ele>
        <time>2019-07-10T12:35:50Z</time>
      </trkpt>
      <trkpt lat="43.95748" lon="3.82209">
        <ele>199.4</ele>
        <time>2019-07-10T12:35:51Z</time>
      </trkpt>
      <trkpt lat="43.95748" lon="3.82205">
        <ele>199.4</ele>
        <time>2019-07-10T12:35:52Z</time>
      </trkpt>
      <trkpt lat="43.95743" lon="3.82185">
        <ele>199.6</ele>
        <time>2019-07-10T12:35:57Z</time>
      </trkpt>
      <trkpt lat="43.95731" lon="3.82139">
        <ele>200</ele>
        <time>2019-07-10T12:36:08Z</time>
      </trkpt>
      <trkpt lat="43.9573" lon="3.82134">
        <ele>200</ele>
        <time>2019-07-10T12:36:09Z</time>
      </trkpt>
      <trkpt lat="43.95721" lon="3.82098">
        <ele>200.8</ele>
        <time>2019-07-10T12:36:18Z</time>
      </trkpt>
      <trkpt lat="43.95716" lon="3.82078">
        <ele>201</ele>
        <time>2019-07-10T12:36:23Z</time>
      </trkpt>
      <trkpt lat="43.95712" lon="3.82062">
        <ele>201.2</ele>
        <time>2019-07-10T12:36:27Z</time>
      </trkpt>
      <trkpt lat="43.95711" lon="3.82058">
        <ele>201.2</ele>
        <time>2019-07-10T12:36:28Z</time>
      </trkpt>
      <trkpt lat="43.95706" lon="3.82036">
        <ele>201.6</ele>
        <time>2019-07-10T12:36:33Z</time>
      </trkpt>
      <trkpt lat="43.95701" lon="3.82018">
        <ele>201.8</ele>
        <time>2019-07-10T12:36:38Z</time>
      </trkpt>
      <trkpt lat="43.95694" lon="3.81988">
        <ele>202.4</ele>
        <time>2019-07-10T12:36:45Z</time>
      </trkpt>
      <trkpt lat="43.95687" lon="3.81962">
        <ele>203</ele>
        <time>2019-07-10T12:36:51Z</time>
      </trkpt>
      <trkpt lat="43.95681" lon="3.81933">
        <ele>204</ele>
        <time>2019-07-10T12:36:57Z</time>
      </trkpt>
      <trkpt lat="43.95671" lon="3.81894">
        <ele>204.4</ele>
        <time>2019-07-10T12:37:05Z</time>
      </trkpt>
      <trkpt lat="43.95669" lon="3.81885">
        <ele>204.8</ele>
        <time>2019-07-10T12:37:07Z</time>
      </trkpt>
      <trkpt lat="43.95657" lon="3.81831">
        <ele>205.8</ele>
        <time>2019-07-10T12:37:18Z</time>
      </trkpt>
      <trkpt lat="43.95651" lon="3.81807">
        <ele>206.2</ele>
        <time>2019-07-10T12:37:23Z</time>
      </trkpt>
      <trkpt lat="43.95646" lon="3.81783">
        <ele>206.6</ele>
        <time>2019-07-10T12:37:28Z</time>
      </trkpt>
      <trkpt lat="43.95643" lon="3.8177">
        <ele>207</ele>
        <time>2019-07-10T12:37:31Z</time>
      </trkpt>
      <trkpt lat="43.95634" lon="3.81726">
        <ele>208</ele>
        <time>2019-07-10T12:37:40Z</time>
      </trkpt>
      <trkpt lat="43.95631" lon="3.81715">
        <ele>208.4</ele>
        <time>2019-07-10T12:37:42Z</time>
      </trkpt>
      <trkpt lat="43.95624" lon="3.81683">
        <ele>209</ele>
        <time>2019-07-10T12:37:48Z</time>
      </trkpt>
      <trkpt lat="43.95615" lon="3.81639">
        <ele>209.6</ele>
        <time>2019-07-10T12:37:56Z</time>
      </trkpt>
      <trkpt lat="43.95614" lon="3.81633">
        <ele>209.6</ele>
        <time>2019-07-10T12:37:57Z</time>
      </trkpt>
      <trkpt lat="43.95606" lon="3.81591">
        <ele>210.4</ele>
        <time>2019-07-10T12:38:05Z</time>
      </trkpt>
      <trkpt lat="43.95596" lon="3.81541">
        <ele>210.8</ele>
        <time>2019-07-10T12:38:14Z</time>
      </trkpt>
      <trkpt lat="43.95591" lon="3.81519">
        <ele>210.8</ele>
        <time>2019-07-10T12:38:18Z</time>
      </trkpt>
      <trkpt lat="43.95581" lon="3.81473">
        <ele>211.2</ele>
        <time>2019-07-10T12:38:26Z</time>
      </trkpt>
      <trkpt lat="43.95572" lon="3.81432">
        <ele>212</ele>
        <time>2019-07-10T12:38:34Z</time>
      </trkpt>
      <trkpt lat="43.95567" lon="3.81409">
        <ele>212</ele>
        <time>2019-07-10T12:38:38Z</time>
      </trkpt>
      <trkpt lat="43.95561" lon="3.81381">
        <ele>212</ele>
        <time>2019-07-10T12:38:43Z</time>
      </trkpt>
      <trkpt lat="43.95551" lon="3.81337">
        <ele>212.8</ele>
        <time>2019-07-10T12:38:51Z</time>
      </trkpt>
      <trkpt lat="43.95547" lon="3.8132">
        <ele>213</ele>
        <time>2019-07-10T12:38:54Z</time>
      </trkpt>
      <trkpt lat="43.95534" lon="3.81257">
        <ele>213.8</ele>
        <time>2019-07-10T12:39:06Z</time>
      </trkpt>
      <trkpt lat="43.95533" lon="3.81252">
        <ele>213.8</ele>
        <time>2019-07-10T12:39:07Z</time>
      </trkpt>
      <trkpt lat="43.95527" lon="3.81223">
        <ele>215</ele>
        <time>2019-07-10T12:39:13Z</time>
      </trkpt>
      <trkpt lat="43.95522" lon="3.81199">
        <ele>215.6</ele>
        <time>2019-07-10T12:39:18Z</time>
      </trkpt>
      <trkpt lat="43.95516" lon="3.8117">
        <ele>216.8</ele>
        <time>2019-07-10T12:39:25Z</time>
      </trkpt>
      <trkpt lat="43.95506" lon="3.81123">
        <ele>217.8</ele>
        <time>2019-07-10T12:39:35Z</time>
      </trkpt>
      <trkpt lat="43.955" lon="3.81098">
        <ele>218.4</ele>
        <time>2019-07-10T12:39:40Z</time>
      </trkpt>
      <trkpt lat="43.95499" lon="3.81093">
        <ele>218.4</ele>
        <time>2019-07-10T12:39:41Z</time>
      </trkpt>
      <trkpt lat="43.95495" lon="3.81071">
        <ele>218.6</ele>
        <time>2019-07-10T12:39:45Z</time>
      </trkpt>
      <trkpt lat="43.95483" lon="3.81016">
        <ele>219</ele>
        <time>2019-07-10T12:39:55Z</time>
      </trkpt>
      <trkpt lat="43.9548" lon="3.80998">
        <ele>219</ele>
        <time>2019-07-10T12:39:58Z</time>
      </trkpt>
      <trkpt lat="43.95473" lon="3.80957">
        <ele>219.8</ele>
        <time>2019-07-10T12:40:05Z</time>
      </trkpt>
      <trkpt lat="43.95472" lon="3.80952">
        <ele>219.8</ele>
        <time>2019-07-10T12:40:06Z</time>
      </trkpt>
      <trkpt lat="43.95469" lon="3.80936">
        <ele>220</ele>
        <time>2019-07-10T12:40:09Z</time>
      </trkpt>
      <trkpt lat="43.95464" lon="3.80915">
        <ele>220</ele>
        <time>2019-07-10T12:40:13Z</time>
      </trkpt>
      <trkpt lat="43.95452" lon="3.80862">
        <ele>219.8</ele>
        <time>2019-07-10T12:40:22Z</time>
      </trkpt>
      <trkpt lat="43.95437" lon="3.80801">
        <ele>219.6</ele>
        <time>2019-07-10T12:40:31Z</time>
      </trkpt>
      <trkpt lat="43.95434" lon="3.80787">
        <ele>219.4</ele>
        <time>2019-07-10T12:40:33Z</time>
      </trkpt>
      <trkpt lat="43.95422" lon="3.80742">
        <ele>219</ele>
        <time>2019-07-10T12:40:39Z</time>
      </trkpt>
      <trkpt lat="43.95409" lon="3.80692">
        <ele>218.4</ele>
        <time>2019-07-10T12:40:45Z</time>
      </trkpt>
      <trkpt lat="43.95404" lon="3.80674">
        <ele>218.2</ele>
        <time>2019-07-10T12:40:47Z</time>
      </trkpt>
      <trkpt lat="43.95386" lon="3.80595">
        <ele>217.4</ele>
        <time>2019-07-10T12:40:55Z</time>
      </trkpt>
      <trkpt lat="43.95371" lon="3.80533">
        <ele>217.2</ele>
        <time>2019-07-10T12:41:01Z</time>
      </trkpt>
      <trkpt lat="43.9536" lon="3.8049">
        <ele>217</ele>
        <time>2019-07-10T12:41:05Z</time>
      </trkpt>
      <trkpt lat="43.95357" lon="3.80478">
        <ele>216.8</ele>
        <time>2019-07-10T12:41:06Z</time>
      </trkpt>
      <trkpt lat="43.95343" lon="3.80418">
        <ele>215.4</ele>
        <time>2019-07-10T12:41:11Z</time>
      </trkpt>
      <trkpt lat="43.95337" lon="3.80393">
        <ele>214.6</ele>
        <time>2019-07-10T12:41:13Z</time>
      </trkpt>
      <trkpt lat="43.95327" lon="3.80354">
        <ele>213.6</ele>
        <time>2019-07-10T12:41:16Z</time>
      </trkpt>
      <trkpt lat="43.95318" lon="3.80315">
        <ele>212.6</ele>
        <time>2019-07-10T12:41:19Z</time>
      </trkpt>
      <trkpt lat="43.953" lon="3.80239">
        <ele>210.8</ele>
        <time>2019-07-10T12:41:25Z</time>
      </trkpt>
      <trkpt lat="43.95297" lon="3.80226">
        <ele>210.6</ele>
        <time>2019-07-10T12:41:26Z</time>
      </trkpt>
      <trkpt lat="43.9529" lon="3.80201">
        <ele>210.2</ele>
        <time>2019-07-10T12:41:28Z</time>
      </trkpt>
      <trkpt lat="43.95279" lon="3.80154">
        <ele>209</ele>
        <time>2019-07-10T12:41:32Z</time>
      </trkpt>
      <trkpt lat="43.95269" lon="3.80111">
        <ele>208.4</ele>
        <time>2019-07-10T12:41:36Z</time>
      </trkpt>
      <trkpt lat="43.95253" lon="3.80044">
        <ele>207.6</ele>
        <time>2019-07-10T12:41:43Z</time>
      </trkpt>
      <trkpt lat="43.95251" lon="3.80035">
        <ele>207.4</ele>
        <time>2019-07-10T12:41:44Z</time>
      </trkpt>
      <trkpt lat="43.95236" lon="3.79971">
        <ele>206.6</ele>
        <time>2019-07-10T12:41:51Z</time>
      </trkpt>
      <trkpt lat="43.95219" lon="3.799">
        <ele>205.8</ele>
        <time>2019-07-10T12:41:59Z</time>
      </trkpt>
      <trkpt lat="43.95216" lon="3.79892">
        <ele>205.6</ele>
        <time>2019-07-10T12:42:00Z</time>
      </trkpt>
      <trkpt lat="43.95212" lon="3.79874">
        <ele>205</ele>
        <time>2019-07-10T12:42:02Z</time>
      </trkpt>
      <trkpt lat="43.95209" lon="3.79858">
        <ele>204.8</ele>
        <time>2019-07-10T12:42:04Z</time>
      </trkpt>
      <trkpt lat="43.95203" lon="3.79833">
        <ele>204</ele>
        <time>2019-07-10T12:42:07Z</time>
      </trkpt>
      <trkpt lat="43.95199" lon="3.79815">
        <ele>203</ele>
        <time>2019-07-10T12:42:09Z</time>
      </trkpt>
      <trkpt lat="43.95183" lon="3.79748">
        <ele>201.2</ele>
        <time>2019-07-10T12:42:17Z</time>
      </trkpt>
      <trkpt lat="43.95176" lon="3.79722">
        <ele>200.6</ele>
        <time>2019-07-10T12:42:20Z</time>
      </trkpt>
      <trkpt lat="43.95172" lon="3.79706">
        <ele>200.6</ele>
        <time>2019-07-10T12:42:22Z</time>
      </trkpt>
      <trkpt lat="43.9517" lon="3.79698">
        <ele>200.4</ele>
        <time>2019-07-10T12:42:23Z</time>
      </trkpt>
      <trkpt lat="43.95161" lon="3.79657">
        <ele>200</ele>
        <time>2019-07-10T12:42:28Z</time>
      </trkpt>
      <trkpt lat="43.95147" lon="3.79598">
        <ele>199.6</ele>
        <time>2019-07-10T12:42:36Z</time>
      </trkpt>
      <trkpt lat="43.95135" lon="3.79546">
        <ele>199.4</ele>
        <time>2019-07-10T12:42:43Z</time>
      </trkpt>
      <trkpt lat="43.95125" lon="3.79505">
        <ele>199.6</ele>
        <time>2019-07-10T12:42:49Z</time>
      </trkpt>
      <trkpt lat="43.95112" lon="3.79448">
        <ele>200</ele>
        <time>2019-07-10T12:42:58Z</time>
      </trkpt>
      <trkpt lat="43.95099" lon="3.79391">
        <ele>200.8</ele>
        <time>2019-07-10T12:43:08Z</time>
      </trkpt>
      <trkpt lat="43.95085" lon="3.79336">
        <ele>200.8</ele>
        <time>2019-07-10T12:43:17Z</time>
      </trkpt>
      <trkpt lat="43.95084" lon="3.79329">
        <ele>200.8</ele>
        <time>2019-07-10T12:43:18Z</time>
      </trkpt>
      <trkpt lat="43.95077" lon="3.79299">
        <ele>200.4</ele>
        <time>2019-07-10T12:43:23Z</time>
      </trkpt>
      <trkpt lat="43.95075" lon="3.79293">
        <ele>200.4</ele>
        <time>2019-07-10T12:43:24Z</time>
      </trkpt>
      <trkpt lat="43.95069" lon="3.79265">
        <ele>200.4</ele>
        <time>2019-07-10T12:43:29Z</time>
      </trkpt>
      <trkpt lat="43.9506" lon="3.7923">
        <ele>200.6</ele>
        <time>2019-07-10T12:43:36Z</time>
      </trkpt>
      <trkpt lat="43.95058" lon="3.79221">
        <ele>200.6</ele>
        <time>2019-07-10T12:43:38Z</time>
      </trkpt>
      <trkpt lat="43.9505" lon="3.79189">
        <ele>201.4</ele>
        <time>2019-07-10T12:43:45Z</time>
      </trkpt>
      <trkpt lat="43.9504" lon="3.7915">
        <ele>202</ele>
        <time>2019-07-10T12:43:52Z</time>
      </trkpt>
      <trkpt lat="43.9503" lon="3.79107">
        <ele>202</ele>
        <time>2019-07-10T12:43:59Z</time>
      </trkpt>
      <trkpt lat="43.95027" lon="3.79095">
        <ele>202</ele>
        <time>2019-07-10T12:44:01Z</time>
      </trkpt>
      <trkpt lat="43.95015" lon="3.79026">
        <ele>201.6</ele>
        <time>2019-07-10T12:44:11Z</time>
      </trkpt>
      <trkpt lat="43.9501" lon="3.78971">
        <ele>201.2</ele>
        <time>2019-07-10T12:44:19Z</time>
      </trkpt>
      <trkpt lat="43.95009" lon="3.78964">
        <ele>201</ele>
        <time>2019-07-10T12:44:20Z</time>
      </trkpt>
      <trkpt lat="43.95007" lon="3.78935">
        <ele>200.4</ele>
        <time>2019-07-10T12:44:24Z</time>
      </trkpt>
      <trkpt lat="43.95005" lon="3.78913">
        <ele>200</ele>
        <time>2019-07-10T12:44:27Z</time>
      </trkpt>
      <trkpt lat="43.95003" lon="3.7889">
        <ele>199.4</ele>
        <time>2019-07-10T12:44:30Z</time>
      </trkpt>
      <trkpt lat="43.94998" lon="3.78838">
        <ele>198.2</ele>
        <time>2019-07-10T12:44:37Z</time>
      </trkpt>
      <trkpt lat="43.94995" lon="3.78803">
        <ele>198.2</ele>
        <time>2019-07-10T12:44:42Z</time>
      </trkpt>
      <trkpt lat="43.9499" lon="3.78743">
        <ele>197.8</ele>
        <time>2019-07-10T12:44:51Z</time>
      </trkpt>
      <trkpt lat="43.9499" lon="3.78736">
        <ele>197.8</ele>
        <time>2019-07-10T12:44:52Z</time>
      </trkpt>
      <trkpt lat="43.94984" lon="3.78669">
        <ele>197.2</ele>
        <time>2019-07-10T12:45:02Z</time>
      </trkpt>
      <trkpt lat="43.94978" lon="3.78589">
        <ele>196.6</ele>
        <time>2019-07-10T12:45:14Z</time>
      </trkpt>
      <trkpt lat="43.94972" lon="3.78521">
        <ele>196.8</ele>
        <time>2019-07-10T12:45:25Z</time>
      </trkpt>
      <trkpt lat="43.94968" lon="3.78476">
        <ele>197</ele>
        <time>2019-07-10T12:45:33Z</time>
      </trkpt>
      <trkpt lat="43.94965" lon="3.7844">
        <ele>197</ele>
        <time>2019-07-10T12:45:39Z</time>
      </trkpt>
      <trkpt lat="43.94964" lon="3.78428">
        <ele>197.2</ele>
        <time>2019-07-10T12:45:41Z</time>
      </trkpt>
      <trkpt lat="43.94962" lon="3.78404">
        <ele>197.2</ele>
        <time>2019-07-10T12:45:45Z</time>
      </trkpt>
      <trkpt lat="43.9496" lon="3.78375">
        <ele>197.8</ele>
        <time>2019-07-10T12:45:50Z</time>
      </trkpt>
      <trkpt lat="43.94957" lon="3.78345">
        <ele>197.6</ele>
        <time>2019-07-10T12:45:55Z</time>
      </trkpt>
      <trkpt lat="43.94953" lon="3.78293">
        <ele>198</ele>
        <time>2019-07-10T12:46:04Z</time>
      </trkpt>
      <trkpt lat="43.94946" lon="3.78214">
        <ele>198.6</ele>
        <time>2019-07-10T12:46:17Z</time>
      </trkpt>
      <trkpt lat="43.94944" lon="3.78189">
        <ele>198.6</ele>
        <time>2019-07-10T12:46:21Z</time>
      </trkpt>
      <trkpt lat="43.94941" lon="3.78152">
        <ele>198.6</ele>
        <time>2019-07-10T12:46:27Z</time>
      </trkpt>
      <trkpt lat="43.94937" lon="3.78096">
        <ele>198.8</ele>
        <time>2019-07-10T12:46:37Z</time>
      </trkpt>
      <trkpt lat="43.94933" lon="3.78054">
        <ele>199.6</ele>
        <time>2019-07-10T12:46:45Z</time>
      </trkpt>
      <trkpt lat="43.94932" lon="3.78038">
        <ele>199.8</ele>
        <time>2019-07-10T12:46:48Z</time>
      </trkpt>
      <trkpt lat="43.94928" lon="3.77991">
        <ele>200.4</ele>
        <time>2019-07-10T12:46:57Z</time>
      </trkpt>
      <trkpt lat="43.94927" lon="3.7798">
        <ele>200.6</ele>
        <time>2019-07-10T12:46:59Z</time>
      </trkpt>
      <trkpt lat="43.94926" lon="3.77969">
        <ele>200.8</ele>
        <time>2019-07-10T12:47:01Z</time>
      </trkpt>
      <trkpt lat="43.94921" lon="3.77926">
        <ele>200.8</ele>
        <time>2019-07-10T12:47:08Z</time>
      </trkpt>
      <trkpt lat="43.94918" lon="3.77893">
        <ele>200.8</ele>
        <time>2019-07-10T12:47:13Z</time>
      </trkpt>
      <trkpt lat="43.94916" lon="3.77865">
        <ele>200.8</ele>
        <time>2019-07-10T12:47:17Z</time>
      </trkpt>
      <trkpt lat="43.9491" lon="3.77792">
        <ele>199.6</ele>
        <time>2019-07-10T12:47:27Z</time>
      </trkpt>
      <trkpt lat="43.94904" lon="3.77732">
        <ele>199.2</ele>
        <time>2019-07-10T12:47:36Z</time>
      </trkpt>
      <trkpt lat="43.94901" lon="3.77701">
        <ele>199.2</ele>
        <time>2019-07-10T12:47:41Z</time>
      </trkpt>
      <trkpt lat="43.94899" lon="3.77688">
        <ele>199.2</ele>
        <time>2019-07-10T12:47:43Z</time>
      </trkpt>
      <trkpt lat="43.94899" lon="3.77676">
        <ele>199.2</ele>
        <time>2019-07-10T12:47:45Z</time>
      </trkpt>
      <trkpt lat="43.94897" lon="3.77655">
        <ele>199.4</ele>
        <time>2019-07-10T12:47:49Z</time>
      </trkpt>
      <trkpt lat="43.94893" lon="3.77618">
        <ele>200.4</ele>
        <time>2019-07-10T12:47:57Z</time>
      </trkpt>
      <trkpt lat="43.9489" lon="3.77584">
        <ele>201</ele>
        <time>2019-07-10T12:48:05Z</time>
      </trkpt>
      <trkpt lat="43.9489" lon="3.7758">
        <ele>201</ele>
        <time>2019-07-10T12:48:06Z</time>
      </trkpt>
      <trkpt lat="43.94889" lon="3.77567">
        <ele>201</ele>
        <time>2019-07-10T12:48:09Z</time>
      </trkpt>
      <trkpt lat="43.94886" lon="3.77545">
        <ele>201.6</ele>
        <time>2019-07-10T12:48:14Z</time>
      </trkpt>
      <trkpt lat="43.94884" lon="3.77512">
        <ele>202.2</ele>
        <time>2019-07-10T12:48:21Z</time>
      </trkpt>
      <trkpt lat="43.94878" lon="3.77458">
        <ele>202.4</ele>
        <time>2019-07-10T12:48:31Z</time>
      </trkpt>
      <trkpt lat="43.94877" lon="3.77447">
        <ele>202.6</ele>
        <time>2019-07-10T12:48:33Z</time>
      </trkpt>
      <trkpt lat="43.94874" lon="3.77412">
        <ele>202.6</ele>
        <time>2019-07-10T12:48:39Z</time>
      </trkpt>
      <trkpt lat="43.94873" lon="3.77394">
        <ele>202.6</ele>
        <time>2019-07-10T12:48:42Z</time>
      </trkpt>
      <trkpt lat="43.94872" lon="3.77388">
        <ele>202.4</ele>
        <time>2019-07-10T12:48:43Z</time>
      </trkpt>
      <trkpt lat="43.94872" lon="3.77383">
        <ele>202.6</ele>
        <time>2019-07-10T12:48:44Z</time>
      </trkpt>
      <trkpt lat="43.9487" lon="3.77371">
        <ele>202.4</ele>
        <time>2019-07-10T12:48:46Z</time>
      </trkpt>
      <trkpt lat="43.94868" lon="3.77349">
        <ele>202</ele>
        <time>2019-07-10T12:48:50Z</time>
      </trkpt>
      <trkpt lat="43.94867" lon="3.77337">
        <ele>202</ele>
        <time>2019-07-10T12:48:52Z</time>
      </trkpt>
      <trkpt lat="43.94862" lon="3.77281">
        <ele>202</ele>
        <time>2019-07-10T12:49:01Z</time>
      </trkpt>
      <trkpt lat="43.94855" lon="3.77204">
        <ele>201.8</ele>
        <time>2019-07-10T12:49:13Z</time>
      </trkpt>
      <trkpt lat="43.94854" lon="3.77198">
        <ele>202</ele>
        <time>2019-07-10T12:49:14Z</time>
      </trkpt>
      <trkpt lat="43.94848" lon="3.77131">
        <ele>202</ele>
        <time>2019-07-10T12:49:24Z</time>
      </trkpt>
      <trkpt lat="43.94846" lon="3.7711">
        <ele>201.6</ele>
        <time>2019-07-10T12:49:27Z</time>
      </trkpt>
      <trkpt lat="43.94841" lon="3.77051">
        <ele>200.8</ele>
        <time>2019-07-10T12:49:35Z</time>
      </trkpt>
      <trkpt lat="43.94835" lon="3.76993">
        <ele>200.4</ele>
        <time>2019-07-10T12:49:43Z</time>
      </trkpt>
      <trkpt lat="43.94832" lon="3.76963">
        <ele>200.2</ele>
        <time>2019-07-10T12:49:47Z</time>
      </trkpt>
      <trkpt lat="43.94825" lon="3.76884">
        <ele>200</ele>
        <time>2019-07-10T12:49:58Z</time>
      </trkpt>
      <trkpt lat="43.9482" lon="3.76824">
        <ele>200</ele>
        <time>2019-07-10T12:50:07Z</time>
      </trkpt>
      <trkpt lat="43.94815" lon="3.76775">
        <ele>200.4</ele>
        <time>2019-07-10T12:50:15Z</time>
      </trkpt>
      <trkpt lat="43.94809" lon="3.76712">
        <ele>200.8</ele>
        <time>2019-07-10T12:50:25Z</time>
      </trkpt>
      <trkpt lat="43.94804" lon="3.76655">
        <ele>201</ele>
        <time>2019-07-10T12:50:33Z</time>
      </trkpt>
      <trkpt lat="43.948" lon="3.76608">
        <ele>201.2</ele>
        <time>2019-07-10T12:50:40Z</time>
      </trkpt>
      <trkpt lat="43.94799" lon="3.76602">
        <ele>201.6</ele>
        <time>2019-07-10T12:50:41Z</time>
      </trkpt>
      <trkpt lat="43.94797" lon="3.76578">
        <ele>201.6</ele>
        <time>2019-07-10T12:50:45Z</time>
      </trkpt>
      <trkpt lat="43.94794" lon="3.76549">
        <ele>202.2</ele>
        <time>2019-07-10T12:50:50Z</time>
      </trkpt>
      <trkpt lat="43.94791" lon="3.76513">
        <ele>203.2</ele>
        <time>2019-07-10T12:50:57Z</time>
      </trkpt>
      <trkpt lat="43.94787" lon="3.76475">
        <ele>204</ele>
        <time>2019-07-10T12:51:05Z</time>
      </trkpt>
      <trkpt lat="43.94783" lon="3.76433">
        <ele>205.2</ele>
        <time>2019-07-10T12:51:14Z</time>
      </trkpt>
      <trkpt lat="43.9478" lon="3.76386">
        <ele>207</ele>
        <time>2019-07-10T12:51:24Z</time>
      </trkpt>
      <trkpt lat="43.94779" lon="3.76381">
        <ele>207</ele>
        <time>2019-07-10T12:51:25Z</time>
      </trkpt>
      <trkpt lat="43.94774" lon="3.76334">
        <ele>207.6</ele>
        <time>2019-07-10T12:51:35Z</time>
      </trkpt>
      <trkpt lat="43.94773" lon="3.76325">
        <ele>208</ele>
        <time>2019-07-10T12:51:37Z</time>
      </trkpt>
      <trkpt lat="43.94771" lon="3.76296">
        <ele>209</ele>
        <time>2019-07-10T12:51:43Z</time>
      </trkpt>
      <trkpt lat="43.94771" lon="3.76291">
        <ele>209</ele>
        <time>2019-07-10T12:51:44Z</time>
      </trkpt>
      <trkpt lat="43.94768" lon="3.76268">
        <ele>209.6</ele>
        <time>2019-07-10T12:51:49Z</time>
      </trkpt>
      <trkpt lat="43.94768" lon="3.76254">
        <ele>210</ele>
        <time>2019-07-10T12:51:52Z</time>
      </trkpt>
      <trkpt lat="43.94764" lon="3.76209">
        <ele>211</ele>
        <time>2019-07-10T12:52:01Z</time>
      </trkpt>
      <trkpt lat="43.94758" lon="3.76159">
        <ele>211</ele>
        <time>2019-07-10T12:52:10Z</time>
      </trkpt>
      <trkpt lat="43.94745" lon="3.76121">
        <ele>211</ele>
        <time>2019-07-10T12:52:17Z</time>
      </trkpt>
      <trkpt lat="43.94728" lon="3.7608">
        <ele>211.2</ele>
        <time>2019-07-10T12:52:26Z</time>
      </trkpt>
      <trkpt lat="43.94713" lon="3.76047">
        <ele>211.6</ele>
        <time>2019-07-10T12:52:34Z</time>
      </trkpt>
      <trkpt lat="43.9471" lon="3.76041">
        <ele>211.8</ele>
        <time>2019-07-10T12:52:36Z</time>
      </trkpt>
      <trkpt lat="43.94706" lon="3.76031">
        <ele>212.2</ele>
        <time>2019-07-10T12:52:39Z</time>
      </trkpt>
      <trkpt lat="43.94698" lon="3.76014">
        <ele>213.2</ele>
        <time>2019-07-10T12:52:44Z</time>
      </trkpt>
      <trkpt lat="43.94695" lon="3.76006">
        <ele>214</ele>
        <time>2019-07-10T12:52:46Z</time>
      </trkpt>
      <trkpt lat="43.94686" lon="3.75985">
        <ele>214.6</ele>
        <time>2019-07-10T12:52:52Z</time>
      </trkpt>
      <trkpt lat="43.94681" lon="3.75975">
        <ele>215.2</ele>
        <time>2019-07-10T12:52:55Z</time>
      </trkpt>
      <trkpt lat="43.94672" lon="3.75955">
        <ele>216</ele>
        <time>2019-07-10T12:53:01Z</time>
      </trkpt>
      <trkpt lat="43.94669" lon="3.75948">
        <ele>216.6</ele>
        <time>2019-07-10T12:53:03Z</time>
      </trkpt>
      <trkpt lat="43.94656" lon="3.75916">
        <ele>217.6</ele>
        <time>2019-07-10T12:53:11Z</time>
      </trkpt>
      <trkpt lat="43.94643" lon="3.75877">
        <ele>217.8</ele>
        <time>2019-07-10T12:53:17Z</time>
      </trkpt>
      <trkpt lat="43.94641" lon="3.75868">
        <ele>217.8</ele>
        <time>2019-07-10T12:53:18Z</time>
      </trkpt>
      <trkpt lat="43.94636" lon="3.75828">
        <ele>217.4</ele>
        <time>2019-07-10T12:53:22Z</time>
      </trkpt>
      <trkpt lat="43.94635" lon="3.75817">
        <ele>217</ele>
        <time>2019-07-10T12:53:23Z</time>
      </trkpt>
      <trkpt lat="43.94635" lon="3.75806">
        <ele>216.8</ele>
        <time>2019-07-10T12:53:24Z</time>
      </trkpt>
      <trkpt lat="43.94636" lon="3.75769">
        <ele>216</ele>
        <time>2019-07-10T12:53:27Z</time>
      </trkpt>
      <trkpt lat="43.94636" lon="3.75757">
        <ele>215.6</ele>
        <time>2019-07-10T12:53:28Z</time>
      </trkpt>
      <trkpt lat="43.94637" lon="3.75704">
        <ele>213.8</ele>
        <time>2019-07-10T12:53:32Z</time>
      </trkpt>
      <trkpt lat="43.94637" lon="3.75677">
        <ele>212.8</ele>
        <time>2019-07-10T12:53:34Z</time>
      </trkpt>
      <trkpt lat="43.94638" lon="3.75636">
        <ele>211.4</ele>
        <time>2019-07-10T12:53:37Z</time>
      </trkpt>
      <trkpt lat="43.94638" lon="3.75622">
        <ele>211.2</ele>
        <time>2019-07-10T12:53:38Z</time>
      </trkpt>
      <trkpt lat="43.94638" lon="3.75608">
        <ele>210.8</ele>
        <time>2019-07-10T12:53:39Z</time>
      </trkpt>
      <trkpt lat="43.94639" lon="3.7558">
        <ele>210.4</ele>
        <time>2019-07-10T12:53:41Z</time>
      </trkpt>
      <trkpt lat="43.94639" lon="3.75565">
        <ele>209.8</ele>
        <time>2019-07-10T12:53:42Z</time>
      </trkpt>
      <trkpt lat="43.9464" lon="3.75524">
        <ele>208</ele>
        <time>2019-07-10T12:53:45Z</time>
      </trkpt>
      <trkpt lat="43.9464" lon="3.75511">
        <ele>207.2</ele>
        <time>2019-07-10T12:53:46Z</time>
      </trkpt>
      <trkpt lat="43.9464" lon="3.75492">
        <ele>206.8</ele>
        <time>2019-07-10T12:53:48Z</time>
      </trkpt>
      <trkpt lat="43.9464" lon="3.75481">
        <ele>206.2</ele>
        <time>2019-07-10T12:53:49Z</time>
      </trkpt>
      <trkpt lat="43.9464" lon="3.75473">
        <ele>205.6</ele>
        <time>2019-07-10T12:53:50Z</time>
      </trkpt>
      <trkpt lat="43.94642" lon="3.75459">
        <ele>204</ele>
        <time>2019-07-10T12:53:52Z</time>
      </trkpt>
      <trkpt lat="43.94643" lon="3.75437">
        <ele>201.4</ele>
        <time>2019-07-10T12:53:56Z</time>
      </trkpt>
      <trkpt lat="43.94644" lon="3.75434">
        <ele>200.6</ele>
        <time>2019-07-10T12:53:59Z</time>
      </trkpt>
      <trkpt lat="43.9464" lon="3.75439">
        <ele>199.2</ele>
        <time>2019-07-10T12:54:12Z</time>
      </trkpt>
      <trkpt lat="43.9464" lon="3.75442">
        <ele>199.2</ele>
        <time>2019-07-10T12:54:13Z</time>
      </trkpt>
      <trkpt lat="43.94639" lon="3.75443">
        <ele>199.4</ele>
        <time>2019-07-10T12:54:14Z</time>
      </trkpt>
      <trkpt lat="43.94627" lon="3.75442">
        <ele>199.8</ele>
        <time>2019-07-10T12:54:20Z</time>
      </trkpt>
      <trkpt lat="43.94611" lon="3.75443">
        <ele>200</ele>
        <time>2019-07-10T12:54:27Z</time>
      </trkpt>
      <trkpt lat="43.94602" lon="3.75434">
        <ele>200.6</ele>
        <time>2019-07-10T12:54:32Z</time>
      </trkpt>
      <trkpt lat="43.946" lon="3.75432">
        <ele>200.6</ele>
        <time>2019-07-10T12:54:33Z</time>
      </trkpt>
      <trkpt lat="43.94591" lon="3.75406">
        <ele>201.2</ele>
        <time>2019-07-10T12:54:41Z</time>
      </trkpt>
      <trkpt lat="43.94582" lon="3.75377">
        <ele>201.8</ele>
        <time>2019-07-10T12:54:48Z</time>
      </trkpt>
      <trkpt lat="43.94571" lon="3.75341">
        <ele>202.2</ele>
        <time>2019-07-10T12:54:56Z</time>
      </trkpt>
      <trkpt lat="43.94563" lon="3.75319">
        <ele>202.2</ele>
        <time>2019-07-10T12:55:01Z</time>
      </trkpt>
      <trkpt lat="43.94562" lon="3.75315">
        <ele>202.2</ele>
        <time>2019-07-10T12:55:02Z</time>
      </trkpt>
      <trkpt lat="43.9455" lon="3.75293">
        <ele>202.4</ele>
        <time>2019-07-10T12:55:08Z</time>
      </trkpt>
      <trkpt lat="43.94538" lon="3.75267">
        <ele>203.4</ele>
        <time>2019-07-10T12:55:15Z</time>
      </trkpt>
      <trkpt lat="43.94533" lon="3.75256">
        <ele>203.4</ele>
        <time>2019-07-10T12:55:17Z</time>
      </trkpt>
      <trkpt lat="43.94524" lon="3.75241">
        <ele>203.4</ele>
        <time>2019-07-10T12:55:20Z</time>
      </trkpt>
      <trkpt lat="43.94514" lon="3.75226">
        <ele>203.2</ele>
        <time>2019-07-10T12:55:23Z</time>
      </trkpt>
      <trkpt lat="43.94511" lon="3.75221">
        <ele>203.2</ele>
        <time>2019-07-10T12:55:24Z</time>
      </trkpt>
      <trkpt lat="43.94508" lon="3.75216">
        <ele>203</ele>
        <time>2019-07-10T12:55:25Z</time>
      </trkpt>
      <trkpt lat="43.94501" lon="3.75207">
        <ele>203</ele>
        <time>2019-07-10T12:55:27Z</time>
      </trkpt>
      <trkpt lat="43.94494" lon="3.75198">
        <ele>203</ele>
        <time>2019-07-10T12:55:29Z</time>
      </trkpt>
      <trkpt lat="43.9449" lon="3.75194">
        <ele>202.8</ele>
        <time>2019-07-10T12:55:30Z</time>
      </trkpt>
      <trkpt lat="43.94471" lon="3.75162">
        <ele>202.6</ele>
        <time>2019-07-10T12:55:36Z</time>
      </trkpt>
      <trkpt lat="43.94465" lon="3.7515">
        <ele>202.4</ele>
        <time>2019-07-10T12:55:38Z</time>
      </trkpt>
      <trkpt lat="43.94458" lon="3.75133">
        <ele>202.4</ele>
        <time>2019-07-10T12:55:41Z</time>
      </trkpt>
      <trkpt lat="43.94456" lon="3.75127">
        <ele>202.2</ele>
        <time>2019-07-10T12:55:42Z</time>
      </trkpt>
      <trkpt lat="43.94454" lon="3.75121">
        <ele>202.2</ele>
        <time>2019-07-10T12:55:43Z</time>
      </trkpt>
      <trkpt lat="43.94448" lon="3.75104">
        <ele>202.2</ele>
        <time>2019-07-10T12:55:46Z</time>
      </trkpt>
      <trkpt lat="43.94441" lon="3.75076">
        <ele>202.6</ele>
        <time>2019-07-10T12:55:51Z</time>
      </trkpt>
      <trkpt lat="43.94439" lon="3.75055">
        <ele>202.8</ele>
        <time>2019-07-10T12:55:55Z</time>
      </trkpt>
      <trkpt lat="43.94439" lon="3.75039">
        <ele>203.2</ele>
        <time>2019-07-10T12:55:58Z</time>
      </trkpt>
      <trkpt lat="43.94438" lon="3.75015">
        <ele>203.2</ele>
        <time>2019-07-10T12:56:03Z</time>
      </trkpt>
      <trkpt lat="43.94437" lon="3.74994">
        <ele>203.4</ele>
        <time>2019-07-10T12:56:07Z</time>
      </trkpt>
      <trkpt lat="43.94437" lon="3.74969">
        <ele>203.8</ele>
        <time>2019-07-10T12:56:12Z</time>
      </trkpt>
      <trkpt lat="43.94437" lon="3.74954">
        <ele>204.2</ele>
        <time>2019-07-10T12:56:15Z</time>
      </trkpt>
      <trkpt lat="43.94436" lon="3.74944">
        <ele>204.4</ele>
        <time>2019-07-10T12:56:17Z</time>
      </trkpt>
      <trkpt lat="43.94435" lon="3.74934">
        <ele>204.4</ele>
        <time>2019-07-10T12:56:19Z</time>
      </trkpt>
      <trkpt lat="43.94435" lon="3.74924">
        <ele>204.4</ele>
        <time>2019-07-10T12:56:21Z</time>
      </trkpt>
      <trkpt lat="43.94433" lon="3.74888">
        <ele>205</ele>
        <time>2019-07-10T12:56:29Z</time>
      </trkpt>
      <trkpt lat="43.94427" lon="3.74853">
        <ele>205.4</ele>
        <time>2019-07-10T12:56:37Z</time>
      </trkpt>
      <trkpt lat="43.94426" lon="3.74849">
        <ele>205.6</ele>
        <time>2019-07-10T12:56:38Z</time>
      </trkpt>
      <trkpt lat="43.94424" lon="3.74845">
        <ele>205.6</ele>
        <time>2019-07-10T12:56:39Z</time>
      </trkpt>
      <trkpt lat="43.94419" lon="3.74833">
        <ele>205.6</ele>
        <time>2019-07-10T12:56:42Z</time>
      </trkpt>
      <trkpt lat="43.9441" lon="3.74815">
        <ele>205.4</ele>
        <time>2019-07-10T12:56:46Z</time>
      </trkpt>
      <trkpt lat="43.94394" lon="3.74783">
        <ele>204.6</ele>
        <time>2019-07-10T12:56:52Z</time>
      </trkpt>
      <trkpt lat="43.94375" lon="3.74747">
        <ele>204.2</ele>
        <time>2019-07-10T12:56:58Z</time>
      </trkpt>
      <trkpt lat="43.94372" lon="3.74741">
        <ele>204.4</ele>
        <time>2019-07-10T12:56:59Z</time>
      </trkpt>
      <trkpt lat="43.94354" lon="3.74708">
        <ele>203.8</ele>
        <time>2019-07-10T12:57:05Z</time>
      </trkpt>
      <trkpt lat="43.94334" lon="3.7467">
        <ele>203.2</ele>
        <time>2019-07-10T12:57:13Z</time>
      </trkpt>
      <trkpt lat="43.94314" lon="3.74632">
        <ele>203.4</ele>
        <time>2019-07-10T12:57:22Z</time>
      </trkpt>
      <trkpt lat="43.943" lon="3.74608">
        <ele>203.4</ele>
        <time>2019-07-10T12:57:27Z</time>
      </trkpt>
      <trkpt lat="43.94291" lon="3.74595">
        <ele>203.4</ele>
        <time>2019-07-10T12:57:30Z</time>
      </trkpt>
      <trkpt lat="43.94285" lon="3.74587">
        <ele>203.2</ele>
        <time>2019-07-10T12:57:32Z</time>
      </trkpt>
      <trkpt lat="43.94274" lon="3.74577">
        <ele>203</ele>
        <time>2019-07-10T12:57:35Z</time>
      </trkpt>
      <trkpt lat="43.94264" lon="3.74568">
        <ele>203</ele>
        <time>2019-07-10T12:57:38Z</time>
      </trkpt>
      <trkpt lat="43.94256" lon="3.74562">
        <ele>202.8</ele>
        <time>2019-07-10T12:57:40Z</time>
      </trkpt>
      <trkpt lat="43.94234" lon="3.74543">
        <ele>202.6</ele>
        <time>2019-07-10T12:57:46Z</time>
      </trkpt>
      <trkpt lat="43.94206" lon="3.7452">
        <ele>202.2</ele>
        <time>2019-07-10T12:57:52Z</time>
      </trkpt>
      <trkpt lat="43.94176" lon="3.74495">
        <ele>201.6</ele>
        <time>2019-07-10T12:57:57Z</time>
      </trkpt>
      <trkpt lat="43.94138" lon="3.74469">
        <ele>200.4</ele>
        <time>2019-07-10T12:58:02Z</time>
      </trkpt>
      <trkpt lat="43.94129" lon="3.74463">
        <ele>200</ele>
        <time>2019-07-10T12:58:03Z</time>
      </trkpt>
      <trkpt lat="43.94121" lon="3.74458">
        <ele>199.4</ele>
        <time>2019-07-10T12:58:04Z</time>
      </trkpt>
      <trkpt lat="43.94111" lon="3.74453">
        <ele>199.2</ele>
        <time>2019-07-10T12:58:05Z</time>
      </trkpt>
      <trkpt lat="43.94074" lon="3.74433">
        <ele>197.4</ele>
        <time>2019-07-10T12:58:09Z</time>
      </trkpt>
      <trkpt lat="43.94055" lon="3.74423">
        <ele>196.2</ele>
        <time>2019-07-10T12:58:11Z</time>
      </trkpt>
      <trkpt lat="43.94045" lon="3.74417">
        <ele>195.8</ele>
        <time>2019-07-10T12:58:12Z</time>
      </trkpt>
      <trkpt lat="43.94036" lon="3.74412">
        <ele>195.6</ele>
        <time>2019-07-10T12:58:13Z</time>
      </trkpt>
      <trkpt lat="43.94017" lon="3.74402">
        <ele>194.2</ele>
        <time>2019-07-10T12:58:15Z</time>
      </trkpt>
      <trkpt lat="43.94008" lon="3.74397">
        <ele>194</ele>
        <time>2019-07-10T12:58:16Z</time>
      </trkpt>
      <trkpt lat="43.93999" lon="3.74392">
        <ele>193.4</ele>
        <time>2019-07-10T12:58:17Z</time>
      </trkpt>
      <trkpt lat="43.9399" lon="3.74388">
        <ele>193.2</ele>
        <time>2019-07-10T12:58:18Z</time>
      </trkpt>
      <trkpt lat="43.93972" lon="3.74378">
        <ele>192.8</ele>
        <time>2019-07-10T12:58:20Z</time>
      </trkpt>
      <trkpt lat="43.93955" lon="3.74368">
        <ele>192.2</ele>
        <time>2019-07-10T12:58:22Z</time>
      </trkpt>
      <trkpt lat="43.93946" lon="3.74364">
        <ele>192</ele>
        <time>2019-07-10T12:58:23Z</time>
      </trkpt>
      <trkpt lat="43.93937" lon="3.74359">
        <ele>191.8</ele>
        <time>2019-07-10T12:58:24Z</time>
      </trkpt>
      <trkpt lat="43.93928" lon="3.74355">
        <ele>191.6</ele>
        <time>2019-07-10T12:58:25Z</time>
      </trkpt>
      <trkpt lat="43.93918" lon="3.7435">
        <ele>191.6</ele>
        <time>2019-07-10T12:58:26Z</time>
      </trkpt>
      <trkpt lat="43.93886" lon="3.74339">
        <ele>190.4</ele>
        <time>2019-07-10T12:58:29Z</time>
      </trkpt>
      <trkpt lat="43.93863" lon="3.7433">
        <ele>188.8</ele>
        <time>2019-07-10T12:58:31Z</time>
      </trkpt>
      <trkpt lat="43.93851" lon="3.74326">
        <ele>188</ele>
        <time>2019-07-10T12:58:32Z</time>
      </trkpt>
      <trkpt lat="43.93828" lon="3.74318">
        <ele>187</ele>
        <time>2019-07-10T12:58:34Z</time>
      </trkpt>
      <trkpt lat="43.93806" lon="3.74309">
        <ele>185.6</ele>
        <time>2019-07-10T12:58:36Z</time>
      </trkpt>
      <trkpt lat="43.93783" lon="3.74301">
        <ele>184.8</ele>
        <time>2019-07-10T12:58:38Z</time>
      </trkpt>
      <trkpt lat="43.93772" lon="3.74297">
        <ele>184.4</ele>
        <time>2019-07-10T12:58:39Z</time>
      </trkpt>
      <trkpt lat="43.93721" lon="3.74281">
        <ele>183.2</ele>
        <time>2019-07-10T12:58:44Z</time>
      </trkpt>
      <trkpt lat="43.93687" lon="3.74271">
        <ele>182.6</ele>
        <time>2019-07-10T12:58:48Z</time>
      </trkpt>
      <trkpt lat="43.9368" lon="3.74271">
        <ele>182.4</ele>
        <time>2019-07-10T12:58:49Z</time>
      </trkpt>
      <trkpt lat="43.93643" lon="3.74275">
        <ele>182.4</ele>
        <time>2019-07-10T12:58:54Z</time>
      </trkpt>
      <trkpt lat="43.93628" lon="3.7428">
        <ele>182.2</ele>
        <time>2019-07-10T12:58:56Z</time>
      </trkpt>
      <trkpt lat="43.93621" lon="3.74283">
        <ele>182.2</ele>
        <time>2019-07-10T12:58:57Z</time>
      </trkpt>
      <trkpt lat="43.93595" lon="3.74292">
        <ele>182</ele>
        <time>2019-07-10T12:59:00Z</time>
      </trkpt>
      <trkpt lat="43.93586" lon="3.74294">
        <ele>181.8</ele>
        <time>2019-07-10T12:59:01Z</time>
      </trkpt>
      <trkpt lat="43.93569" lon="3.74292">
        <ele>180.6</ele>
        <time>2019-07-10T12:59:03Z</time>
      </trkpt>
      <trkpt lat="43.93542" lon="3.74281">
        <ele>179.2</ele>
        <time>2019-07-10T12:59:06Z</time>
      </trkpt>
      <trkpt lat="43.93533" lon="3.74278">
        <ele>178.8</ele>
        <time>2019-07-10T12:59:07Z</time>
      </trkpt>
      <trkpt lat="43.93516" lon="3.74276">
        <ele>178</ele>
        <time>2019-07-10T12:59:09Z</time>
      </trkpt>
      <trkpt lat="43.935" lon="3.74274">
        <ele>177.2</ele>
        <time>2019-07-10T12:59:11Z</time>
      </trkpt>
      <trkpt lat="43.93494" lon="3.74271">
        <ele>176.6</ele>
        <time>2019-07-10T12:59:12Z</time>
      </trkpt>
      <trkpt lat="43.93489" lon="3.74265">
        <ele>175.8</ele>
        <time>2019-07-10T12:59:13Z</time>
      </trkpt>
      <trkpt lat="43.93487" lon="3.74248">
        <ele>175</ele>
        <time>2019-07-10T12:59:15Z</time>
      </trkpt>
      <trkpt lat="43.93489" lon="3.7424">
        <ele>174.6</ele>
        <time>2019-07-10T12:59:16Z</time>
      </trkpt>
      <trkpt lat="43.93495" lon="3.74224">
        <ele>173.6</ele>
        <time>2019-07-10T12:59:18Z</time>
      </trkpt>
      <trkpt lat="43.93498" lon="3.74216">
        <ele>173.4</ele>
        <time>2019-07-10T12:59:19Z</time>
      </trkpt>
      <trkpt lat="43.93511" lon="3.74182">
        <ele>171.8</ele>
        <time>2019-07-10T12:59:23Z</time>
      </trkpt>
      <trkpt lat="43.93513" lon="3.74166">
        <ele>170.4</ele>
        <time>2019-07-10T12:59:25Z</time>
      </trkpt>
      <trkpt lat="43.9351" lon="3.74154">
        <ele>169.6</ele>
        <time>2019-07-10T12:59:27Z</time>
      </trkpt>
      <trkpt lat="43.93506" lon="3.7415">
        <ele>169.6</ele>
        <time>2019-07-10T12:59:28Z</time>
      </trkpt>
      <trkpt lat="43.93502" lon="3.74148">
        <ele>169.4</ele>
        <time>2019-07-10T12:59:29Z</time>
      </trkpt>
      <trkpt lat="43.93494" lon="3.74146">
        <ele>169</ele>
        <time>2019-07-10T12:59:31Z</time>
      </trkpt>
      <trkpt lat="43.93489" lon="3.74145">
        <ele>168.8</ele>
        <time>2019-07-10T12:59:32Z</time>
      </trkpt>
      <trkpt lat="43.93485" lon="3.74144">
        <ele>168.4</ele>
        <time>2019-07-10T12:59:33Z</time>
      </trkpt>
      <trkpt lat="43.93475" lon="3.74142">
        <ele>168.2</ele>
        <time>2019-07-10T12:59:36Z</time>
      </trkpt>
      <trkpt lat="43.93467" lon="3.74139">
        <ele>168.2</ele>
        <time>2019-07-10T12:59:39Z</time>
      </trkpt>
      <trkpt lat="43.93462" lon="3.74136">
        <ele>168.2</ele>
        <time>2019-07-10T12:59:41Z</time>
      </trkpt>
      <trkpt lat="43.93452" lon="3.74123">
        <ele>169</ele>
        <time>2019-07-10T12:59:47Z</time>
      </trkpt>
      <trkpt lat="43.93442" lon="3.74102">
        <ele>169.2</ele>
        <time>2019-07-10T12:59:52Z</time>
      </trkpt>
      <trkpt lat="43.9344" lon="3.74095">
        <ele>169.2</ele>
        <time>2019-07-10T12:59:53Z</time>
      </trkpt>
      <trkpt lat="43.93438" lon="3.74089">
        <ele>169.2</ele>
        <time>2019-07-10T12:59:54Z</time>
      </trkpt>
      <trkpt lat="43.93437" lon="3.74081">
        <ele>169</ele>
        <time>2019-07-10T12:59:55Z</time>
      </trkpt>
      <trkpt lat="43.93433" lon="3.74065">
        <ele>168.6</ele>
        <time>2019-07-10T12:59:57Z</time>
      </trkpt>
      <trkpt lat="43.93427" lon="3.74049">
        <ele>168.4</ele>
        <time>2019-07-10T12:59:59Z</time>
      </trkpt>
      <trkpt lat="43.93424" lon="3.74042">
        <ele>168</ele>
        <time>2019-07-10T13:00:00Z</time>
      </trkpt>
      <trkpt lat="43.93415" lon="3.74028">
        <ele>167.8</ele>
        <time>2019-07-10T13:00:02Z</time>
      </trkpt>
      <trkpt lat="43.93404" lon="3.74014">
        <ele>167.2</ele>
        <time>2019-07-10T13:00:04Z</time>
      </trkpt>
      <trkpt lat="43.93397" lon="3.74008">
        <ele>167</ele>
        <time>2019-07-10T13:00:05Z</time>
      </trkpt>
      <trkpt lat="43.9339" lon="3.74001">
        <ele>166.4</ele>
        <time>2019-07-10T13:00:06Z</time>
      </trkpt>
      <trkpt lat="43.93352" lon="3.73967">
        <ele>163.6</ele>
        <time>2019-07-10T13:00:11Z</time>
      </trkpt>
      <trkpt lat="43.93336" lon="3.73951">
        <ele>162.6</ele>
        <time>2019-07-10T13:00:13Z</time>
      </trkpt>
      <trkpt lat="43.93319" lon="3.73936">
        <ele>162.2</ele>
        <time>2019-07-10T13:00:15Z</time>
      </trkpt>
      <trkpt lat="43.93311" lon="3.73928">
        <ele>161.6</ele>
        <time>2019-07-10T13:00:16Z</time>
      </trkpt>
      <trkpt lat="43.93275" lon="3.73894">
        <ele>160</ele>
        <time>2019-07-10T13:00:20Z</time>
      </trkpt>
      <trkpt lat="43.9326" lon="3.73879">
        <ele>159</ele>
        <time>2019-07-10T13:00:22Z</time>
      </trkpt>
      <trkpt lat="43.9321" lon="3.73832">
        <ele>156.8</ele>
        <time>2019-07-10T13:00:28Z</time>
      </trkpt>
      <trkpt lat="43.93202" lon="3.73824">
        <ele>156.4</ele>
        <time>2019-07-10T13:00:29Z</time>
      </trkpt>
      <trkpt lat="43.93194" lon="3.73817">
        <ele>156.2</ele>
        <time>2019-07-10T13:00:30Z</time>
      </trkpt>
      <trkpt lat="43.93157" lon="3.73782">
        <ele>155.6</ele>
        <time>2019-07-10T13:00:35Z</time>
      </trkpt>
      <trkpt lat="43.93136" lon="3.73762">
        <ele>154.4</ele>
        <time>2019-07-10T13:00:38Z</time>
      </trkpt>
      <trkpt lat="43.9311" lon="3.73736">
        <ele>154.2</ele>
        <time>2019-07-10T13:00:42Z</time>
      </trkpt>
      <trkpt lat="43.93092" lon="3.73716">
        <ele>153.4</ele>
        <time>2019-07-10T13:00:45Z</time>
      </trkpt>
      <trkpt lat="43.93087" lon="3.73709">
        <ele>153</ele>
        <time>2019-07-10T13:00:46Z</time>
      </trkpt>
      <trkpt lat="43.93082" lon="3.73701">
        <ele>153</ele>
        <time>2019-07-10T13:00:47Z</time>
      </trkpt>
      <trkpt lat="43.93076" lon="3.73683">
        <ele>152.6</ele>
        <time>2019-07-10T13:00:49Z</time>
      </trkpt>
      <trkpt lat="43.93073" lon="3.73674">
        <ele>152.4</ele>
        <time>2019-07-10T13:00:50Z</time>
      </trkpt>
      <trkpt lat="43.93072" lon="3.73665">
        <ele>152.6</ele>
        <time>2019-07-10T13:00:51Z</time>
      </trkpt>
      <trkpt lat="43.93071" lon="3.73638">
        <ele>152</ele>
        <time>2019-07-10T13:00:54Z</time>
      </trkpt>
      <trkpt lat="43.93072" lon="3.7363">
        <ele>151.6</ele>
        <time>2019-07-10T13:00:55Z</time>
      </trkpt>
      <trkpt lat="43.93076" lon="3.73609">
        <ele>151</ele>
        <time>2019-07-10T13:00:58Z</time>
      </trkpt>
      <trkpt lat="43.93077" lon="3.73594">
        <ele>151</ele>
        <time>2019-07-10T13:01:00Z</time>
      </trkpt>
      <trkpt lat="43.93078" lon="3.73589">
        <ele>150.8</ele>
        <time>2019-07-10T13:01:01Z</time>
      </trkpt>
      <trkpt lat="43.93082" lon="3.73568">
        <ele>150.4</ele>
        <time>2019-07-10T13:01:06Z</time>
      </trkpt>
      <trkpt lat="43.93082" lon="3.73568">
        <ele>150.2</ele>
        <time>2019-07-10T13:01:07Z</time>
      </trkpt>
      <trkpt lat="43.93082" lon="3.73568">
        <ele>150.2</ele>
        <time>2019-07-10T13:01:08Z</time>
      </trkpt>
      <trkpt lat="43.93083" lon="3.73561">
        <ele>149.4</ele>
        <time>2019-07-10T13:01:26Z</time>
      </trkpt>
      <trkpt lat="43.93088" lon="3.73539">
        <ele>149.4</ele>
        <time>2019-07-10T13:01:31Z</time>
      </trkpt>
      <trkpt lat="43.93099" lon="3.73497">
        <ele>149.4</ele>
        <time>2019-07-10T13:01:39Z</time>
      </trkpt>
      <trkpt lat="43.93108" lon="3.73462">
        <ele>149.6</ele>
        <time>2019-07-10T13:01:46Z</time>
      </trkpt>
      <trkpt lat="43.93115" lon="3.73426">
        <ele>150</ele>
        <time>2019-07-10T13:01:53Z</time>
      </trkpt>
      <trkpt lat="43.93117" lon="3.73409">
        <ele>150</ele>
        <time>2019-07-10T13:01:56Z</time>
      </trkpt>
      <trkpt lat="43.93114" lon="3.73359">
        <ele>150.2</ele>
        <time>2019-07-10T13:02:04Z</time>
      </trkpt>
      <trkpt lat="43.93109" lon="3.73335">
        <ele>150.2</ele>
        <time>2019-07-10T13:02:08Z</time>
      </trkpt>
      <trkpt lat="43.93102" lon="3.73308">
        <ele>150.2</ele>
        <time>2019-07-10T13:02:12Z</time>
      </trkpt>
      <trkpt lat="43.93083" lon="3.73245">
        <ele>149.8</ele>
        <time>2019-07-10T13:02:22Z</time>
      </trkpt>
      <trkpt lat="43.93076" lon="3.73219">
        <ele>149</ele>
        <time>2019-07-10T13:02:27Z</time>
      </trkpt>
      <trkpt lat="43.93068" lon="3.73189">
        <ele>148.6</ele>
        <time>2019-07-10T13:02:32Z</time>
      </trkpt>
      <trkpt lat="43.93064" lon="3.73174">
        <ele>148.4</ele>
        <time>2019-07-10T13:02:34Z</time>
      </trkpt>
      <trkpt lat="43.9306" lon="3.73156">
        <ele>148.2</ele>
        <time>2019-07-10T13:02:36Z</time>
      </trkpt>
      <trkpt lat="43.93057" lon="3.73149">
        <ele>148.2</ele>
        <time>2019-07-10T13:02:37Z</time>
      </trkpt>
      <trkpt lat="43.93052" lon="3.73138">
        <ele>148</ele>
        <time>2019-07-10T13:02:38Z</time>
      </trkpt>
      <trkpt lat="43.93037" lon="3.73113">
        <ele>147.2</ele>
        <time>2019-07-10T13:02:41Z</time>
      </trkpt>
      <trkpt lat="43.9303" lon="3.73103">
        <ele>147</ele>
        <time>2019-07-10T13:02:42Z</time>
      </trkpt>
      <trkpt lat="43.93024" lon="3.73094">
        <ele>146.8</ele>
        <time>2019-07-10T13:02:43Z</time>
      </trkpt>
      <trkpt lat="43.93007" lon="3.73063">
        <ele>145.6</ele>
        <time>2019-07-10T13:02:46Z</time>
      </trkpt>
      <trkpt lat="43.93003" lon="3.73052">
        <ele>145.4</ele>
        <time>2019-07-10T13:02:47Z</time>
      </trkpt>
      <trkpt lat="43.93001" lon="3.7304">
        <ele>145.2</ele>
        <time>2019-07-10T13:02:48Z</time>
      </trkpt>
      <trkpt lat="43.92998" lon="3.7302">
        <ele>144.6</ele>
        <time>2019-07-10T13:02:50Z</time>
      </trkpt>
      <trkpt lat="43.92997" lon="3.73008">
        <ele>144.4</ele>
        <time>2019-07-10T13:02:51Z</time>
      </trkpt>
      <trkpt lat="43.92994" lon="3.72966">
        <ele>144.4</ele>
        <time>2019-07-10T13:02:56Z</time>
      </trkpt>
      <trkpt lat="43.92992" lon="3.72933">
        <ele>144.4</ele>
        <time>2019-07-10T13:03:01Z</time>
      </trkpt>
      <trkpt lat="43.92991" lon="3.72922">
        <ele>144.4</ele>
        <time>2019-07-10T13:03:03Z</time>
      </trkpt>
      <trkpt lat="43.92989" lon="3.72904">
        <ele>144.6</ele>
        <time>2019-07-10T13:03:07Z</time>
      </trkpt>
      <trkpt lat="43.92987" lon="3.7288">
        <ele>145</ele>
        <time>2019-07-10T13:03:13Z</time>
      </trkpt>
      <trkpt lat="43.92986" lon="3.72877">
        <ele>145.2</ele>
        <time>2019-07-10T13:03:14Z</time>
      </trkpt>
      <trkpt lat="43.92982" lon="3.72851">
        <ele>146.4</ele>
        <time>2019-07-10T13:03:21Z</time>
      </trkpt>
      <trkpt lat="43.92981" lon="3.72844">
        <ele>146.8</ele>
        <time>2019-07-10T13:03:23Z</time>
      </trkpt>
      <trkpt lat="43.92979" lon="3.72821">
        <ele>148</ele>
        <time>2019-07-10T13:03:30Z</time>
      </trkpt>
      <trkpt lat="43.92978" lon="3.72811">
        <ele>148.2</ele>
        <time>2019-07-10T13:03:33Z</time>
      </trkpt>
      <trkpt lat="43.92978" lon="3.72809">
        <ele>148.2</ele>
        <time>2019-07-10T13:03:34Z</time>
      </trkpt>
      <trkpt lat="43.92977" lon="3.72805">
        <ele>148.6</ele>
        <time>2019-07-10T13:03:35Z</time>
      </trkpt>
      <trkpt lat="43.92975" lon="3.72791">
        <ele>149.6</ele>
        <time>2019-07-10T13:03:40Z</time>
      </trkpt>
      <trkpt lat="43.92972" lon="3.72774">
        <ele>150.2</ele>
        <time>2019-07-10T13:03:46Z</time>
      </trkpt>
      <trkpt lat="43.92965" lon="3.7275">
        <ele>150.6</ele>
        <time>2019-07-10T13:03:54Z</time>
      </trkpt>
      <trkpt lat="43.92957" lon="3.72718">
        <ele>150.4</ele>
        <time>2019-07-10T13:04:00Z</time>
      </trkpt>
      <trkpt lat="43.92951" lon="3.72684">
        <ele>150</ele>
        <time>2019-07-10T13:04:05Z</time>
      </trkpt>
      <trkpt lat="43.9295" lon="3.72669">
        <ele>150</ele>
        <time>2019-07-10T13:04:07Z</time>
      </trkpt>
      <trkpt lat="43.92946" lon="3.72639">
        <ele>149.2</ele>
        <time>2019-07-10T13:04:11Z</time>
      </trkpt>
      <trkpt lat="43.92944" lon="3.72624">
        <ele>148.8</ele>
        <time>2019-07-10T13:04:13Z</time>
      </trkpt>
      <trkpt lat="43.92943" lon="3.72616">
        <ele>149</ele>
        <time>2019-07-10T13:04:14Z</time>
      </trkpt>
      <trkpt lat="43.92932" lon="3.72578">
        <ele>148.4</ele>
        <time>2019-07-10T13:04:19Z</time>
      </trkpt>
      <trkpt lat="43.9293" lon="3.72571">
        <ele>148.2</ele>
        <time>2019-07-10T13:04:20Z</time>
      </trkpt>
      <trkpt lat="43.92912" lon="3.72519">
        <ele>147.6</ele>
        <time>2019-07-10T13:04:28Z</time>
      </trkpt>
      <trkpt lat="43.92904" lon="3.72498">
        <ele>147.4</ele>
        <time>2019-07-10T13:04:33Z</time>
      </trkpt>
      <trkpt lat="43.92894" lon="3.72474">
        <ele>147.8</ele>
        <time>2019-07-10T13:04:39Z</time>
      </trkpt>
      <trkpt lat="43.92892" lon="3.7247">
        <ele>148</ele>
        <time>2019-07-10T13:04:40Z</time>
      </trkpt>
      <trkpt lat="43.92882" lon="3.72444">
        <ele>148.8</ele>
        <time>2019-07-10T13:04:47Z</time>
      </trkpt>
      <trkpt lat="43.92881" lon="3.72436">
        <ele>149</ele>
        <time>2019-07-10T13:04:49Z</time>
      </trkpt>
      <trkpt lat="43.92878" lon="3.72414">
        <ele>149.8</ele>
        <time>2019-07-10T13:04:54Z</time>
      </trkpt>
      <trkpt lat="43.92877" lon="3.7239">
        <ele>150.4</ele>
        <time>2019-07-10T13:04:59Z</time>
      </trkpt>
      <trkpt lat="43.92876" lon="3.72352">
        <ele>150.4</ele>
        <time>2019-07-10T13:05:05Z</time>
      </trkpt>
      <trkpt lat="43.92882" lon="3.72338">
        <ele>150.6</ele>
        <time>2019-07-10T13:05:07Z</time>
      </trkpt>
      <trkpt lat="43.92886" lon="3.72332">
        <ele>150.4</ele>
        <time>2019-07-10T13:05:08Z</time>
      </trkpt>
      <trkpt lat="43.92892" lon="3.72327">
        <ele>150.4</ele>
        <time>2019-07-10T13:05:09Z</time>
      </trkpt>
      <trkpt lat="43.92916" lon="3.72305">
        <ele>149.6</ele>
        <time>2019-07-10T13:05:13Z</time>
      </trkpt>
      <trkpt lat="43.9293" lon="3.72295">
        <ele>149.2</ele>
        <time>2019-07-10T13:05:15Z</time>
      </trkpt>
      <trkpt lat="43.92949" lon="3.72277">
        <ele>148.2</ele>
        <time>2019-07-10T13:05:18Z</time>
      </trkpt>
      <trkpt lat="43.92954" lon="3.72269">
        <ele>148</ele>
        <time>2019-07-10T13:05:19Z</time>
      </trkpt>
      <trkpt lat="43.92958" lon="3.7226">
        <ele>147.8</ele>
        <time>2019-07-10T13:05:20Z</time>
      </trkpt>
      <trkpt lat="43.92964" lon="3.72241">
        <ele>147.6</ele>
        <time>2019-07-10T13:05:22Z</time>
      </trkpt>
      <trkpt lat="43.92966" lon="3.72232">
        <ele>147.4</ele>
        <time>2019-07-10T13:05:23Z</time>
      </trkpt>
      <trkpt lat="43.92979" lon="3.72154">
        <ele>145.6</ele>
        <time>2019-07-10T13:05:31Z</time>
      </trkpt>
      <trkpt lat="43.9298" lon="3.72145">
        <ele>145.4</ele>
        <time>2019-07-10T13:05:32Z</time>
      </trkpt>
      <trkpt lat="43.92988" lon="3.72095">
        <ele>145</ele>
        <time>2019-07-10T13:05:38Z</time>
      </trkpt>
      <trkpt lat="43.92994" lon="3.72066">
        <ele>145.2</ele>
        <time>2019-07-10T13:05:43Z</time>
      </trkpt>
      <trkpt lat="43.92996" lon="3.72052">
        <ele>145.4</ele>
        <time>2019-07-10T13:05:46Z</time>
      </trkpt>
      <trkpt lat="43.93" lon="3.72034">
        <ele>146</ele>
        <time>2019-07-10T13:05:50Z</time>
      </trkpt>
      <trkpt lat="43.93001" lon="3.72022">
        <ele>146.4</ele>
        <time>2019-07-10T13:05:53Z</time>
      </trkpt>
      <trkpt lat="43.93006" lon="3.72003">
        <ele>147</ele>
        <time>2019-07-10T13:05:58Z</time>
      </trkpt>
      <trkpt lat="43.93011" lon="3.71984">
        <ele>147.6</ele>
        <time>2019-07-10T13:06:03Z</time>
      </trkpt>
      <trkpt lat="43.93015" lon="3.71973">
        <ele>148.4</ele>
        <time>2019-07-10T13:06:06Z</time>
      </trkpt>
      <trkpt lat="43.93017" lon="3.71967">
        <ele>148.6</ele>
        <time>2019-07-10T13:06:08Z</time>
      </trkpt>
      <trkpt lat="43.93023" lon="3.7195">
        <ele>150</ele>
        <time>2019-07-10T13:06:13Z</time>
      </trkpt>
      <trkpt lat="43.93025" lon="3.71947">
        <ele>150</ele>
        <time>2019-07-10T13:06:14Z</time>
      </trkpt>
      <trkpt lat="43.93032" lon="3.71931">
        <ele>150.6</ele>
        <time>2019-07-10T13:06:19Z</time>
      </trkpt>
      <trkpt lat="43.93035" lon="3.7192">
        <ele>151.2</ele>
        <time>2019-07-10T13:06:22Z</time>
      </trkpt>
      <trkpt lat="43.93043" lon="3.71898">
        <ele>152.2</ele>
        <time>2019-07-10T13:06:28Z</time>
      </trkpt>
      <trkpt lat="43.93047" lon="3.71887">
        <ele>152.6</ele>
        <time>2019-07-10T13:06:31Z</time>
      </trkpt>
      <trkpt lat="43.93053" lon="3.71874">
        <ele>153</ele>
        <time>2019-07-10T13:06:34Z</time>
      </trkpt>
      <trkpt lat="43.93055" lon="3.71869">
        <ele>153</ele>
        <time>2019-07-10T13:06:35Z</time>
      </trkpt>
      <trkpt lat="43.93062" lon="3.71853">
        <ele>153</ele>
        <time>2019-07-10T13:06:38Z</time>
      </trkpt>
      <trkpt lat="43.93065" lon="3.71848">
        <ele>153.2</ele>
        <time>2019-07-10T13:06:39Z</time>
      </trkpt>
      <trkpt lat="43.93067" lon="3.71842">
        <ele>153</ele>
        <time>2019-07-10T13:06:40Z</time>
      </trkpt>
      <trkpt lat="43.9307" lon="3.71836">
        <ele>153</ele>
        <time>2019-07-10T13:06:41Z</time>
      </trkpt>
      <trkpt lat="43.93072" lon="3.7183">
        <ele>152.8</ele>
        <time>2019-07-10T13:06:42Z</time>
      </trkpt>
      <trkpt lat="43.9308" lon="3.71801">
        <ele>152.6</ele>
        <time>2019-07-10T13:06:46Z</time>
      </trkpt>
      <trkpt lat="43.93081" lon="3.71793">
        <ele>152.6</ele>
        <time>2019-07-10T13:06:47Z</time>
      </trkpt>
      <trkpt lat="43.93083" lon="3.71785">
        <ele>152.6</ele>
        <time>2019-07-10T13:06:48Z</time>
      </trkpt>
      <trkpt lat="43.93084" lon="3.71777">
        <ele>152.4</ele>
        <time>2019-07-10T13:06:49Z</time>
      </trkpt>
      <trkpt lat="43.93085" lon="3.71769">
        <ele>152.2</ele>
        <time>2019-07-10T13:06:50Z</time>
      </trkpt>
      <trkpt lat="43.93092" lon="3.71747">
        <ele>151.8</ele>
        <time>2019-07-10T13:06:53Z</time>
      </trkpt>
      <trkpt lat="43.93098" lon="3.71723">
        <ele>151.4</ele>
        <time>2019-07-10T13:06:56Z</time>
      </trkpt>
      <trkpt lat="43.93101" lon="3.71699">
        <ele>151</ele>
        <time>2019-07-10T13:06:59Z</time>
      </trkpt>
      <trkpt lat="43.93102" lon="3.71676">
        <ele>150.8</ele>
        <time>2019-07-10T13:07:02Z</time>
      </trkpt>
      <trkpt lat="43.93104" lon="3.71645">
        <ele>150.6</ele>
        <time>2019-07-10T13:07:06Z</time>
      </trkpt>
      <trkpt lat="43.93105" lon="3.71626">
        <ele>150.6</ele>
        <time>2019-07-10T13:07:09Z</time>
      </trkpt>
      <trkpt lat="43.93106" lon="3.71611">
        <ele>150.4</ele>
        <time>2019-07-10T13:07:11Z</time>
      </trkpt>
      <trkpt lat="43.93107" lon="3.71604">
        <ele>150.2</ele>
        <time>2019-07-10T13:07:12Z</time>
      </trkpt>
      <trkpt lat="43.93111" lon="3.71586">
        <ele>150</ele>
        <time>2019-07-10T13:07:15Z</time>
      </trkpt>
      <trkpt lat="43.93115" lon="3.71568">
        <ele>149.8</ele>
        <time>2019-07-10T13:07:18Z</time>
      </trkpt>
      <trkpt lat="43.93119" lon="3.71551">
        <ele>150</ele>
        <time>2019-07-10T13:07:21Z</time>
      </trkpt>
      <trkpt lat="43.93121" lon="3.71545">
        <ele>150</ele>
        <time>2019-07-10T13:07:22Z</time>
      </trkpt>
      <trkpt lat="43.93122" lon="3.71538">
        <ele>150</ele>
        <time>2019-07-10T13:07:23Z</time>
      </trkpt>
      <trkpt lat="43.93123" lon="3.71532">
        <ele>150</ele>
        <time>2019-07-10T13:07:24Z</time>
      </trkpt>
      <trkpt lat="43.93124" lon="3.71526">
        <ele>150</ele>
        <time>2019-07-10T13:07:25Z</time>
      </trkpt>
      <trkpt lat="43.93125" lon="3.71519">
        <ele>150</ele>
        <time>2019-07-10T13:07:26Z</time>
      </trkpt>
      <trkpt lat="43.93125" lon="3.71513">
        <ele>149.8</ele>
        <time>2019-07-10T13:07:27Z</time>
      </trkpt>
      <trkpt lat="43.93126" lon="3.715">
        <ele>149.6</ele>
        <time>2019-07-10T13:07:29Z</time>
      </trkpt>
      <trkpt lat="43.93127" lon="3.71493">
        <ele>149.4</ele>
        <time>2019-07-10T13:07:30Z</time>
      </trkpt>
      <trkpt lat="43.93128" lon="3.71473">
        <ele>148.8</ele>
        <time>2019-07-10T13:07:33Z</time>
      </trkpt>
      <trkpt lat="43.93128" lon="3.71452">
        <ele>148.6</ele>
        <time>2019-07-10T13:07:36Z</time>
      </trkpt>
      <trkpt lat="43.93128" lon="3.71414">
        <ele>148.2</ele>
        <time>2019-07-10T13:07:42Z</time>
      </trkpt>
      <trkpt lat="43.93128" lon="3.71407">
        <ele>148.2</ele>
        <time>2019-07-10T13:07:43Z</time>
      </trkpt>
      <trkpt lat="43.93127" lon="3.71368">
        <ele>147.8</ele>
        <time>2019-07-10T13:07:49Z</time>
      </trkpt>
      <trkpt lat="43.93126" lon="3.71355">
        <ele>147.6</ele>
        <time>2019-07-10T13:07:51Z</time>
      </trkpt>
      <trkpt lat="43.9312" lon="3.71321">
        <ele>147.2</ele>
        <time>2019-07-10T13:07:56Z</time>
      </trkpt>
      <trkpt lat="43.93119" lon="3.71306">
        <ele>147.2</ele>
        <time>2019-07-10T13:07:58Z</time>
      </trkpt>
      <trkpt lat="43.93118" lon="3.71276">
        <ele>147</ele>
        <time>2019-07-10T13:08:02Z</time>
      </trkpt>
      <trkpt lat="43.93118" lon="3.7126">
        <ele>146.6</ele>
        <time>2019-07-10T13:08:04Z</time>
      </trkpt>
      <trkpt lat="43.93118" lon="3.71252">
        <ele>146.6</ele>
        <time>2019-07-10T13:08:05Z</time>
      </trkpt>
      <trkpt lat="43.93119" lon="3.71217">
        <ele>145.8</ele>
        <time>2019-07-10T13:08:10Z</time>
      </trkpt>
      <trkpt lat="43.93118" lon="3.71197">
        <ele>145.2</ele>
        <time>2019-07-10T13:08:15Z</time>
      </trkpt>
      <trkpt lat="43.93119" lon="3.71194">
        <ele>145</ele>
        <time>2019-07-10T13:08:16Z</time>
      </trkpt>
      <trkpt lat="43.93119" lon="3.71194">
        <ele>144.6</ele>
        <time>2019-07-10T13:08:19Z</time>
      </trkpt>
      <trkpt lat="43.93122" lon="3.7119">
        <ele>144.2</ele>
        <time>2019-07-10T13:08:25Z</time>
      </trkpt>
      <trkpt lat="43.93127" lon="3.71185">
        <ele>144.2</ele>
        <time>2019-07-10T13:08:27Z</time>
      </trkpt>
      <trkpt lat="43.93137" lon="3.71177">
        <ele>144</ele>
        <time>2019-07-10T13:08:30Z</time>
      </trkpt>
      <trkpt lat="43.93148" lon="3.71168">
        <ele>144.4</ele>
        <time>2019-07-10T13:08:33Z</time>
      </trkpt>
      <trkpt lat="43.93175" lon="3.71147">
        <ele>145.2</ele>
        <time>2019-07-10T13:08:40Z</time>
      </trkpt>
      <trkpt lat="43.93203" lon="3.71125">
        <ele>145.4</ele>
        <time>2019-07-10T13:08:47Z</time>
      </trkpt>
      <trkpt lat="43.93207" lon="3.71123">
        <ele>145.4</ele>
        <time>2019-07-10T13:08:48Z</time>
      </trkpt>
      <trkpt lat="43.93211" lon="3.71122">
        <ele>145.2</ele>
        <time>2019-07-10T13:08:49Z</time>
      </trkpt>
      <trkpt lat="43.93218" lon="3.71123">
        <ele>145.2</ele>
        <time>2019-07-10T13:08:52Z</time>
      </trkpt>
      <trkpt lat="43.93225" lon="3.71129">
        <ele>145</ele>
        <time>2019-07-10T13:08:55Z</time>
      </trkpt>
      <trkpt lat="43.93227" lon="3.71136">
        <ele>145</ele>
        <time>2019-07-10T13:08:57Z</time>
      </trkpt>
      <trkpt lat="43.93227" lon="3.71146">
        <ele>145</ele>
        <time>2019-07-10T13:09:00Z</time>
      </trkpt>
      <trkpt lat="43.93228" lon="3.7115">
        <ele>145</ele>
        <time>2019-07-10T13:09:02Z</time>
      </trkpt>
      <trkpt lat="43.93228" lon="3.7115">
        <ele>145</ele>
        <time>2019-07-10T13:09:04Z</time>
      </trkpt>
      <trkpt lat="43.93227" lon="3.71151">
        <ele>145.6</ele>
        <time>2019-07-10T13:10:18Z</time>
      </trkpt>
      <trkpt lat="43.93229" lon="3.7115">
        <ele>145.2</ele>
        <time>2019-07-10T13:10:21Z</time>
      </trkpt>
      <trkpt lat="43.93229" lon="3.7115">
        <ele>145.2</ele>
        <time>2019-07-10T13:10:22Z</time>
      </trkpt>
      <trkpt lat="43.93225" lon="3.71148">
        <ele>145</ele>
        <time>2019-07-10T13:10:24Z</time>
      </trkpt>
      <trkpt lat="43.93223" lon="3.71146">
        <ele>145</ele>
        <time>2019-07-10T13:10:25Z</time>
      </trkpt>
      <trkpt lat="43.93222" lon="3.71144">
        <ele>145.2</ele>
        <time>2019-07-10T13:10:26Z</time>
      </trkpt>
      <trkpt lat="43.93219" lon="3.71141">
        <ele>145</ele>
        <time>2019-07-10T13:10:29Z</time>
      </trkpt>
      <trkpt lat="43.9322" lon="3.71138">
        <ele>145</ele>
        <time>2019-07-10T13:10:30Z</time>
      </trkpt>
      <trkpt lat="43.93219" lon="3.71135">
        <ele>144.8</ele>
        <time>2019-07-10T13:10:32Z</time>
      </trkpt>
      <trkpt lat="43.93219" lon="3.71135">
        <ele>144.8</ele>
        <time>2019-07-10T13:10:33Z</time>
      </trkpt>
      <trkpt lat="43.9322" lon="3.7114">
        <ele>144.8</ele>
        <time>2019-07-10T13:10:36Z</time>
      </trkpt>
      <trkpt lat="43.93222" lon="3.71142">
        <ele>144.8</ele>
        <time>2019-07-10T13:10:37Z</time>
      </trkpt>
      <trkpt lat="43.93221" lon="3.71143">
        <ele>144.2</ele>
        <time>2019-07-10T13:10:39Z</time>
      </trkpt>
      <trkpt lat="43.93221" lon="3.71143">
        <ele>144</ele>
        <time>2019-07-10T13:10:40Z</time>
      </trkpt>
      <trkpt lat="43.93219" lon="3.71146">
        <ele>143.8</ele>
        <time>2019-07-10T13:10:41Z</time>
      </trkpt>
      <trkpt lat="43.93219" lon="3.71149">
        <ele>143.6</ele>
        <time>2019-07-10T13:10:42Z</time>
      </trkpt>
      <trkpt lat="43.93218" lon="3.7115">
        <ele>143.6</ele>
        <time>2019-07-10T13:10:43Z</time>
      </trkpt>
      <trkpt lat="43.93218" lon="3.7115">
        <ele>143.6</ele>
        <time>2019-07-10T13:10:44Z</time>
      </trkpt>
      <trkpt lat="43.93218" lon="3.7115">
        <ele>143.6</ele>
        <time>2019-07-10T13:10:45Z</time>
      </trkpt>
      <trkpt lat="43.93225" lon="3.71143">
        <ele>144.8</ele>
        <time>2019-07-10T13:11:27Z</time>
      </trkpt>
      <trkpt lat="43.93227" lon="3.71141">
        <ele>144.8</ele>
        <time>2019-07-10T13:11:28Z</time>
      </trkpt>
      <trkpt lat="43.93231" lon="3.71137">
        <ele>144.8</ele>
        <time>2019-07-10T13:11:30Z</time>
      </trkpt>
      <trkpt lat="43.93231" lon="3.71138">
        <ele>144.8</ele>
        <time>2019-07-10T13:11:31Z</time>
      </trkpt>
      <trkpt lat="43.93232" lon="3.71136">
        <ele>145</ele>
        <time>2019-07-10T13:11:38Z</time>
      </trkpt>
      <trkpt lat="43.93232" lon="3.71136">
        <ele>145</ele>
        <time>2019-07-10T13:11:39Z</time>
      </trkpt>
      <trkpt lat="43.93231" lon="3.71142">
        <ele>144.8</ele>
        <time>2019-07-10T13:11:46Z</time>
      </trkpt>
      <trkpt lat="43.93231" lon="3.71142">
        <ele>144.8</ele>
        <time>2019-07-10T13:11:48Z</time>
      </trkpt>
      <trkpt lat="43.93235" lon="3.71142">
        <ele>145.8</ele>
        <time>2019-07-10T13:12:15Z</time>
      </trkpt>
      <trkpt lat="43.93237" lon="3.71141">
        <ele>145.8</ele>
        <time>2019-07-10T13:12:16Z</time>
      </trkpt>
      <trkpt lat="43.93236" lon="3.71139">
        <ele>145.8</ele>
        <time>2019-07-10T13:12:17Z</time>
      </trkpt>
      <trkpt lat="43.93235" lon="3.71127">
        <ele>145.2</ele>
        <time>2019-07-10T13:12:20Z</time>
      </trkpt>
      <trkpt lat="43.93239" lon="3.7113">
        <ele>144.4</ele>
        <time>2019-07-10T13:12:24Z</time>
      </trkpt>
      <trkpt lat="43.93239" lon="3.71131">
        <ele>144.6</ele>
        <time>2019-07-10T13:12:26Z</time>
      </trkpt>
      <trkpt lat="43.93241" lon="3.71133">
        <ele>144.6</ele>
        <time>2019-07-10T13:12:27Z</time>
      </trkpt>
      <trkpt lat="43.93242" lon="3.71133">
        <ele>144.6</ele>
        <time>2019-07-10T13:12:29Z</time>
      </trkpt>
      <trkpt lat="43.93243" lon="3.7113">
        <ele>145</ele>
        <time>2019-07-10T13:12:31Z</time>
      </trkpt>
      <trkpt lat="43.93244" lon="3.71134">
        <ele>145.6</ele>
        <time>2019-07-10T13:12:34Z</time>
      </trkpt>
      <trkpt lat="43.93239" lon="3.71136">
        <ele>145.6</ele>
        <time>2019-07-10T13:12:38Z</time>
      </trkpt>
      <trkpt lat="43.93239" lon="3.71134">
        <ele>145.2</ele>
        <time>2019-07-10T13:12:39Z</time>
      </trkpt>
      <trkpt lat="43.93235" lon="3.71141">
        <ele>144.8</ele>
        <time>2019-07-10T13:12:53Z</time>
      </trkpt>
      <trkpt lat="43.93233" lon="3.71144">
        <ele>145</ele>
        <time>2019-07-10T13:12:54Z</time>
      </trkpt>
      <trkpt lat="43.93232" lon="3.71145">
        <ele>144.8</ele>
        <time>2019-07-10T13:12:58Z</time>
      </trkpt>
      <trkpt lat="43.93219" lon="3.71152">
        <ele>145.2</ele>
        <time>2019-07-10T13:13:53Z</time>
      </trkpt>
      <trkpt lat="43.93219" lon="3.71152">
        <ele>145.2</ele>
        <time>2019-07-10T13:13:55Z</time>
      </trkpt>
      <trkpt lat="43.93202" lon="3.71166">
        <ele>144.4</ele>
        <time>2019-07-10T13:14:14Z</time>
      </trkpt>
      <trkpt lat="43.93202" lon="3.71166">
        <ele>144.4</ele>
        <time>2019-07-10T13:14:15Z</time>
      </trkpt>
      <trkpt lat="43.93202" lon="3.71166">
        <ele>144.6</ele>
        <time>2019-07-10T13:14:18Z</time>
      </trkpt>
      <trkpt lat="43.93202" lon="3.71166">
        <ele>144.6</ele>
        <time>2019-07-10T13:14:20Z</time>
      </trkpt>
      <trkpt lat="43.93214" lon="3.71183">
        <ele>145</ele>
        <time>2019-07-10T13:15:19Z</time>
      </trkpt>
      <trkpt lat="43.93214" lon="3.71183">
        <ele>144.8</ele>
        <time>2019-07-10T13:15:20Z</time>
      </trkpt>
      <trkpt lat="43.93216" lon="3.71181">
        <ele>145.2</ele>
        <time>2019-07-10T13:15:37Z</time>
      </trkpt>
      <trkpt lat="43.93216" lon="3.7118">
        <ele>145.2</ele>
        <time>2019-07-10T13:15:39Z</time>
      </trkpt>
      <trkpt lat="43.93216" lon="3.7118">
        <ele>145.2</ele>
        <time>2019-07-10T13:15:40Z</time>
      </trkpt>
      <trkpt lat="43.93205" lon="3.71113">
        <ele>145.4</ele>
        <time>2019-07-10T13:20:23Z</time>
      </trkpt>
      <trkpt lat="43.93202" lon="3.71114">
        <ele>145.4</ele>
        <time>2019-07-10T13:20:25Z</time>
      </trkpt>
      <trkpt lat="43.93193" lon="3.7114">
        <ele>145.4</ele>
        <time>2019-07-10T13:20:30Z</time>
      </trkpt>
      <trkpt lat="43.93192" lon="3.71142">
        <ele>145.4</ele>
        <time>2019-07-10T13:20:32Z</time>
      </trkpt>
      <trkpt lat="43.9319" lon="3.71143">
        <ele>145.4</ele>
        <time>2019-07-10T13:20:33Z</time>
      </trkpt>
      <trkpt lat="43.93186" lon="3.71144">
        <ele>145.6</ele>
        <time>2019-07-10T13:20:38Z</time>
      </trkpt>
      <trkpt lat="43.93186" lon="3.71143">
        <ele>145.8</ele>
        <time>2019-07-10T13:20:40Z</time>
      </trkpt>
      <trkpt lat="43.93187" lon="3.71143">
        <ele>145.6</ele>
        <time>2019-07-10T13:20:41Z</time>
      </trkpt>
      <trkpt lat="43.93187" lon="3.71139">
        <ele>145.6</ele>
        <time>2019-07-10T13:20:44Z</time>
      </trkpt>
      <trkpt lat="43.93187" lon="3.71137">
        <ele>145.6</ele>
        <time>2019-07-10T13:20:50Z</time>
      </trkpt>
      <trkpt lat="43.93189" lon="3.71135">
        <ele>145.4</ele>
        <time>2019-07-10T13:20:52Z</time>
      </trkpt>
      <trkpt lat="43.9319" lon="3.71136">
        <ele>145.6</ele>
        <time>2019-07-10T13:20:54Z</time>
      </trkpt>
      <trkpt lat="43.93189" lon="3.71128">
        <ele>145.6</ele>
        <time>2019-07-10T13:20:57Z</time>
      </trkpt>
      <trkpt lat="43.93226" lon="3.71183">
        <ele>145.2</ele>
        <time>2019-07-10T13:21:40Z</time>
      </trkpt>
      <trkpt lat="43.93226" lon="3.71183">
        <ele>145.4</ele>
        <time>2019-07-10T13:21:41Z</time>
      </trkpt>
      <trkpt lat="43.93204" lon="3.71168">
        <ele>145.4</ele>
        <time>2019-07-10T13:22:02Z</time>
      </trkpt>
      <trkpt lat="43.93203" lon="3.71167">
        <ele>145.4</ele>
        <time>2019-07-10T13:22:05Z</time>
      </trkpt>
      <trkpt lat="43.93203" lon="3.71168">
        <ele>145.4</ele>
        <time>2019-07-10T13:22:09Z</time>
      </trkpt>
      <trkpt lat="43.93202" lon="3.71166">
        <ele>145.4</ele>
        <time>2019-07-10T13:22:12Z</time>
      </trkpt>
      <trkpt lat="43.93223" lon="3.71157">
        <ele>145</ele>
        <time>2019-07-10T13:24:08Z</time>
      </trkpt>
      <trkpt lat="43.93223" lon="3.71158">
        <ele>145</ele>
        <time>2019-07-10T13:24:11Z</time>
      </trkpt>
      <trkpt lat="43.93221" lon="3.7116">
        <ele>145</ele>
        <time>2019-07-10T13:24:15Z</time>
      </trkpt>
      <trkpt lat="43.93219" lon="3.71159">
        <ele>145</ele>
        <time>2019-07-10T13:24:17Z</time>
      </trkpt>
      <trkpt lat="43.93213" lon="3.71158">
        <ele>145</ele>
        <time>2019-07-10T13:24:23Z</time>
      </trkpt>
      <trkpt lat="43.93215" lon="3.71155">
        <ele>145.2</ele>
        <time>2019-07-10T13:24:25Z</time>
      </trkpt>
      <trkpt lat="43.93222" lon="3.71153">
        <ele>144.8</ele>
        <time>2019-07-10T13:24:32Z</time>
      </trkpt>
      <trkpt lat="43.93222" lon="3.71153">
        <ele>144.6</ele>
        <time>2019-07-10T13:24:33Z</time>
      </trkpt>
      <trkpt lat="43.93222" lon="3.71153">
        <ele>144.6</ele>
        <time>2019-07-10T13:24:34Z</time>
      </trkpt>
      <trkpt lat="43.93223" lon="3.71161">
        <ele>144.8</ele>
        <time>2019-07-10T13:24:53Z</time>
      </trkpt>
      <trkpt lat="43.93226" lon="3.71163">
        <ele>144.8</ele>
        <time>2019-07-10T13:24:55Z</time>
      </trkpt>
      <trkpt lat="43.93226" lon="3.71163">
        <ele>145</ele>
        <time>2019-07-10T13:24:57Z</time>
      </trkpt>
      <trkpt lat="43.93219" lon="3.71166">
        <ele>145.2</ele>
        <time>2019-07-10T13:26:04Z</time>
      </trkpt>
      <trkpt lat="43.93218" lon="3.71167">
        <ele>145</ele>
        <time>2019-07-10T13:26:05Z</time>
      </trkpt>
      <trkpt lat="43.93218" lon="3.71167">
        <ele>145.2</ele>
        <time>2019-07-10T13:26:07Z</time>
      </trkpt>
      <trkpt lat="43.93219" lon="3.71164">
        <ele>145.2</ele>
        <time>2019-07-10T13:26:08Z</time>
      </trkpt>
      <trkpt lat="43.93217" lon="3.71159">
        <ele>145.2</ele>
        <time>2019-07-10T13:26:11Z</time>
      </trkpt>
      <trkpt lat="43.93218" lon="3.71158">
        <ele>145.2</ele>
        <time>2019-07-10T13:26:12Z</time>
      </trkpt>
      <trkpt lat="43.93218" lon="3.71158">
        <ele>145</ele>
        <time>2019-07-10T13:26:13Z</time>
      </trkpt>
      <trkpt lat="43.93218" lon="3.71158">
        <ele>145.2</ele>
        <time>2019-07-10T13:26:15Z</time>
      </trkpt>
      <trkpt lat="43.93218" lon="3.71158">
        <ele>144.8</ele>
        <time>2019-07-10T13:27:40Z</time>
      </trkpt>
      <trkpt lat="43.93243" lon="3.71116">
        <ele>144.8</ele>
        <time>2019-07-10T13:27:48Z</time>
      </trkpt>
      <trkpt lat="43.93236" lon="3.71119">
        <ele>145</ele>
        <time>2019-07-10T13:27:50Z</time>
      </trkpt>
      <trkpt lat="43.93236" lon="3.71119">
        <ele>145</ele>
        <time>2019-07-10T13:27:54Z</time>
      </trkpt>
      <trkpt lat="43.93236" lon="3.71119">
        <ele>145.2</ele>
        <time>2019-07-10T13:27:55Z</time>
      </trkpt>
      <trkpt lat="43.93236" lon="3.71119">
        <ele>145</ele>
        <time>2019-07-10T13:27:56Z</time>
      </trkpt>
      <trkpt lat="43.93232" lon="3.71133">
        <ele>143.8</ele>
        <time>2019-07-10T13:29:19Z</time>
      </trkpt>
      <trkpt lat="43.93232" lon="3.71133">
        <ele>143.8</ele>
        <time>2019-07-10T13:29:21Z</time>
      </trkpt>
      <trkpt lat="43.93232" lon="3.71133">
        <ele>143.8</ele>
        <time>2019-07-10T13:29:23Z</time>
      </trkpt>
      <trkpt lat="43.93238" lon="3.71129">
        <ele>143.8</ele>
        <time>2019-07-10T13:29:26Z</time>
      </trkpt>
      <trkpt lat="43.93253" lon="3.7112">
        <ele>143.8</ele>
        <time>2019-07-10T13:29:31Z</time>
      </trkpt>
      <trkpt lat="43.93255" lon="3.71116">
        <ele>143.8</ele>
        <time>2019-07-10T13:29:32Z</time>
      </trkpt>
      <trkpt lat="43.9326" lon="3.71094">
        <ele>143.8</ele>
        <time>2019-07-10T13:29:37Z</time>
      </trkpt>
      <trkpt lat="43.93253" lon="3.71071">
        <ele>144.2</ele>
        <time>2019-07-10T13:29:42Z</time>
      </trkpt>
      <trkpt lat="43.9325" lon="3.71067">
        <ele>144.2</ele>
        <time>2019-07-10T13:29:43Z</time>
      </trkpt>
      <trkpt lat="43.9324" lon="3.71062">
        <ele>144</ele>
        <time>2019-07-10T13:29:46Z</time>
      </trkpt>
      <trkpt lat="43.93221" lon="3.71053">
        <ele>143.8</ele>
        <time>2019-07-10T13:29:51Z</time>
      </trkpt>
      <trkpt lat="43.93219" lon="3.71049">
        <ele>144</ele>
        <time>2019-07-10T13:29:52Z</time>
      </trkpt>
      <trkpt lat="43.93216" lon="3.71044">
        <ele>143.8</ele>
        <time>2019-07-10T13:29:53Z</time>
      </trkpt>
      <trkpt lat="43.93214" lon="3.71038">
        <ele>143.6</ele>
        <time>2019-07-10T13:29:54Z</time>
      </trkpt>
      <trkpt lat="43.93207" lon="3.71026">
        <ele>143.6</ele>
        <time>2019-07-10T13:29:56Z</time>
      </trkpt>
      <trkpt lat="43.93197" lon="3.71007">
        <ele>143</ele>
        <time>2019-07-10T13:29:59Z</time>
      </trkpt>
      <trkpt lat="43.93182" lon="3.70979">
        <ele>142.4</ele>
        <time>2019-07-10T13:30:03Z</time>
      </trkpt>
      <trkpt lat="43.93148" lon="3.70923">
        <ele>141.4</ele>
        <time>2019-07-10T13:30:11Z</time>
      </trkpt>
      <trkpt lat="43.93132" lon="3.70899">
        <ele>141.4</ele>
        <time>2019-07-10T13:30:15Z</time>
      </trkpt>
      <trkpt lat="43.93125" lon="3.70889">
        <ele>141.2</ele>
        <time>2019-07-10T13:30:17Z</time>
      </trkpt>
      <trkpt lat="43.931" lon="3.7085">
        <ele>141.2</ele>
        <time>2019-07-10T13:30:24Z</time>
      </trkpt>
      <trkpt lat="43.9308" lon="3.70817">
        <ele>141.4</ele>
        <time>2019-07-10T13:30:30Z</time>
      </trkpt>
      <trkpt lat="43.93063" lon="3.70787">
        <ele>141.4</ele>
        <time>2019-07-10T13:30:36Z</time>
      </trkpt>
      <trkpt lat="43.93058" lon="3.70776">
        <ele>141.4</ele>
        <time>2019-07-10T13:30:38Z</time>
      </trkpt>
      <trkpt lat="43.93052" lon="3.7076">
        <ele>141.4</ele>
        <time>2019-07-10T13:30:41Z</time>
      </trkpt>
      <trkpt lat="43.93046" lon="3.70737">
        <ele>141.4</ele>
        <time>2019-07-10T13:30:46Z</time>
      </trkpt>
      <trkpt lat="43.93042" lon="3.7072">
        <ele>141.6</ele>
        <time>2019-07-10T13:30:48Z</time>
      </trkpt>
      <trkpt lat="43.93039" lon="3.70683">
        <ele>142.6</ele>
        <time>2019-07-10T13:30:54Z</time>
      </trkpt>
      <trkpt lat="43.93042" lon="3.70626">
        <ele>142.8</ele>
        <time>2019-07-10T13:31:03Z</time>
      </trkpt>
      <trkpt lat="43.93043" lon="3.7062">
        <ele>143</ele>
        <time>2019-07-10T13:31:04Z</time>
      </trkpt>
      <trkpt lat="43.93048" lon="3.70588">
        <ele>143.2</ele>
        <time>2019-07-10T13:31:10Z</time>
      </trkpt>
      <trkpt lat="43.93049" lon="3.70584">
        <ele>143.2</ele>
        <time>2019-07-10T13:31:11Z</time>
      </trkpt>
      <trkpt lat="43.93059" lon="3.7057">
        <ele>143.8</ele>
        <time>2019-07-10T13:31:15Z</time>
      </trkpt>
      <trkpt lat="43.93067" lon="3.70545">
        <ele>144.2</ele>
        <time>2019-07-10T13:31:20Z</time>
      </trkpt>
      <trkpt lat="43.93069" lon="3.7054">
        <ele>144.2</ele>
        <time>2019-07-10T13:31:21Z</time>
      </trkpt>
      <trkpt lat="43.93073" lon="3.70529">
        <ele>144.2</ele>
        <time>2019-07-10T13:31:23Z</time>
      </trkpt>
      <trkpt lat="43.93075" lon="3.70525">
        <ele>144.4</ele>
        <time>2019-07-10T13:31:24Z</time>
      </trkpt>
      <trkpt lat="43.93084" lon="3.70513">
        <ele>144.4</ele>
        <time>2019-07-10T13:31:27Z</time>
      </trkpt>
      <trkpt lat="43.93087" lon="3.7051">
        <ele>144.4</ele>
        <time>2019-07-10T13:31:28Z</time>
      </trkpt>
      <trkpt lat="43.93101" lon="3.70495">
        <ele>144.4</ele>
        <time>2019-07-10T13:31:32Z</time>
      </trkpt>
      <trkpt lat="43.93122" lon="3.70474">
        <ele>144.8</ele>
        <time>2019-07-10T13:31:38Z</time>
      </trkpt>
      <trkpt lat="43.93128" lon="3.70468">
        <ele>144.8</ele>
        <time>2019-07-10T13:31:40Z</time>
      </trkpt>
      <trkpt lat="43.93135" lon="3.70463">
        <ele>144.8</ele>
        <time>2019-07-10T13:31:42Z</time>
      </trkpt>
      <trkpt lat="43.93159" lon="3.70447">
        <ele>145.2</ele>
        <time>2019-07-10T13:31:49Z</time>
      </trkpt>
      <trkpt lat="43.93172" lon="3.70438">
        <ele>145.6</ele>
        <time>2019-07-10T13:31:53Z</time>
      </trkpt>
      <trkpt lat="43.93172" lon="3.70429">
        <ele>145.6</ele>
        <time>2019-07-10T13:31:55Z</time>
      </trkpt>
      <trkpt lat="43.9317" lon="3.70425">
        <ele>145.6</ele>
        <time>2019-07-10T13:31:56Z</time>
      </trkpt>
      <trkpt lat="43.93167" lon="3.70422">
        <ele>145.6</ele>
        <time>2019-07-10T13:31:57Z</time>
      </trkpt>
      <trkpt lat="43.9316" lon="3.70422">
        <ele>145.6</ele>
        <time>2019-07-10T13:31:59Z</time>
      </trkpt>
      <trkpt lat="43.93157" lon="3.70421">
        <ele>145.6</ele>
        <time>2019-07-10T13:32:00Z</time>
      </trkpt>
      <trkpt lat="43.93148" lon="3.70411">
        <ele>145.6</ele>
        <time>2019-07-10T13:32:03Z</time>
      </trkpt>
      <trkpt lat="43.93145" lon="3.70406">
        <ele>145.6</ele>
        <time>2019-07-10T13:32:04Z</time>
      </trkpt>
      <trkpt lat="43.93133" lon="3.70385">
        <ele>145.2</ele>
        <time>2019-07-10T13:32:08Z</time>
      </trkpt>
      <trkpt lat="43.93104" lon="3.70338">
        <ele>144.8</ele>
        <time>2019-07-10T13:32:17Z</time>
      </trkpt>
      <trkpt lat="43.93072" lon="3.70287">
        <ele>145</ele>
        <time>2019-07-10T13:32:27Z</time>
      </trkpt>
      <trkpt lat="43.93052" lon="3.70257">
        <ele>145</ele>
        <time>2019-07-10T13:32:33Z</time>
      </trkpt>
      <trkpt lat="43.93049" lon="3.70252">
        <ele>145</ele>
        <time>2019-07-10T13:32:34Z</time>
      </trkpt>
      <trkpt lat="43.93046" lon="3.70241">
        <ele>145</ele>
        <time>2019-07-10T13:32:36Z</time>
      </trkpt>
      <trkpt lat="43.93049" lon="3.70231">
        <ele>144.8</ele>
        <time>2019-07-10T13:32:38Z</time>
      </trkpt>
      <trkpt lat="43.93053" lon="3.70228">
        <ele>145</ele>
        <time>2019-07-10T13:32:39Z</time>
      </trkpt>
      <trkpt lat="43.93077" lon="3.70212">
        <ele>144.2</ele>
        <time>2019-07-10T13:32:44Z</time>
      </trkpt>
      <trkpt lat="43.93082" lon="3.70209">
        <ele>144.2</ele>
        <time>2019-07-10T13:32:45Z</time>
      </trkpt>
      <trkpt lat="43.93089" lon="3.70206">
        <ele>144</ele>
        <time>2019-07-10T13:32:46Z</time>
      </trkpt>
      <trkpt lat="43.93095" lon="3.70201">
        <ele>144</ele>
        <time>2019-07-10T13:32:47Z</time>
      </trkpt>
      <trkpt lat="43.93101" lon="3.70196">
        <ele>143.6</ele>
        <time>2019-07-10T13:32:48Z</time>
      </trkpt>
      <trkpt lat="43.93106" lon="3.7019">
        <ele>143.2</ele>
        <time>2019-07-10T13:32:49Z</time>
      </trkpt>
      <trkpt lat="43.93117" lon="3.70178">
        <ele>142.8</ele>
        <time>2019-07-10T13:32:51Z</time>
      </trkpt>
      <trkpt lat="43.93122" lon="3.70172">
        <ele>142.6</ele>
        <time>2019-07-10T13:32:52Z</time>
      </trkpt>
      <trkpt lat="43.93135" lon="3.70155">
        <ele>142.2</ele>
        <time>2019-07-10T13:32:55Z</time>
      </trkpt>
      <trkpt lat="43.93142" lon="3.70144">
        <ele>141.8</ele>
        <time>2019-07-10T13:32:57Z</time>
      </trkpt>
      <trkpt lat="43.93146" lon="3.7014">
        <ele>141.8</ele>
        <time>2019-07-10T13:32:58Z</time>
      </trkpt>
      <trkpt lat="43.93149" lon="3.70135">
        <ele>141.8</ele>
        <time>2019-07-10T13:32:59Z</time>
      </trkpt>
      <trkpt lat="43.93155" lon="3.70126">
        <ele>141.8</ele>
        <time>2019-07-10T13:33:01Z</time>
      </trkpt>
      <trkpt lat="43.93159" lon="3.70121">
        <ele>141.8</ele>
        <time>2019-07-10T13:33:02Z</time>
      </trkpt>
      <trkpt lat="43.93161" lon="3.70116">
        <ele>142</ele>
        <time>2019-07-10T13:33:03Z</time>
      </trkpt>
      <trkpt lat="43.93167" lon="3.70108">
        <ele>142.2</ele>
        <time>2019-07-10T13:33:05Z</time>
      </trkpt>
      <trkpt lat="43.93172" lon="3.701">
        <ele>142.2</ele>
        <time>2019-07-10T13:33:07Z</time>
      </trkpt>
      <trkpt lat="43.93175" lon="3.70096">
        <ele>142.4</ele>
        <time>2019-07-10T13:33:08Z</time>
      </trkpt>
      <trkpt lat="43.93177" lon="3.70092">
        <ele>142.6</ele>
        <time>2019-07-10T13:33:09Z</time>
      </trkpt>
      <trkpt lat="43.93182" lon="3.70082">
        <ele>142.6</ele>
        <time>2019-07-10T13:33:11Z</time>
      </trkpt>
      <trkpt lat="43.93185" lon="3.7007">
        <ele>142.8</ele>
        <time>2019-07-10T13:33:13Z</time>
      </trkpt>
      <trkpt lat="43.93194" lon="3.70055">
        <ele>142.6</ele>
        <time>2019-07-10T13:33:16Z</time>
      </trkpt>
      <trkpt lat="43.932" lon="3.70046">
        <ele>142.4</ele>
        <time>2019-07-10T13:33:18Z</time>
      </trkpt>
      <trkpt lat="43.9321" lon="3.70034">
        <ele>142.2</ele>
        <time>2019-07-10T13:33:21Z</time>
      </trkpt>
      <trkpt lat="43.93213" lon="3.70029">
        <ele>142</ele>
        <time>2019-07-10T13:33:22Z</time>
      </trkpt>
      <trkpt lat="43.93241" lon="3.69996">
        <ele>142.2</ele>
        <time>2019-07-10T13:33:31Z</time>
      </trkpt>
      <trkpt lat="43.93281" lon="3.69956">
        <ele>142.8</ele>
        <time>2019-07-10T13:33:43Z</time>
      </trkpt>
      <trkpt lat="43.933" lon="3.69941">
        <ele>142.8</ele>
        <time>2019-07-10T13:33:48Z</time>
      </trkpt>
      <trkpt lat="43.93312" lon="3.69933">
        <ele>142.8</ele>
        <time>2019-07-10T13:33:51Z</time>
      </trkpt>
      <trkpt lat="43.93349" lon="3.69905">
        <ele>142.6</ele>
        <time>2019-07-10T13:34:00Z</time>
      </trkpt>
      <trkpt lat="43.93368" lon="3.69882">
        <ele>142.6</ele>
        <time>2019-07-10T13:34:05Z</time>
      </trkpt>
      <trkpt lat="43.9337" lon="3.69877">
        <ele>142.4</ele>
        <time>2019-07-10T13:34:06Z</time>
      </trkpt>
      <trkpt lat="43.93377" lon="3.69867">
        <ele>142.6</ele>
        <time>2019-07-10T13:34:08Z</time>
      </trkpt>
      <trkpt lat="43.93391" lon="3.69847">
        <ele>142.6</ele>
        <time>2019-07-10T13:34:12Z</time>
      </trkpt>
      <trkpt lat="43.934" lon="3.69833">
        <ele>142.4</ele>
        <time>2019-07-10T13:34:15Z</time>
      </trkpt>
      <trkpt lat="43.93408" lon="3.69823">
        <ele>142.4</ele>
        <time>2019-07-10T13:34:17Z</time>
      </trkpt>
      <trkpt lat="43.93412" lon="3.69819">
        <ele>142.4</ele>
        <time>2019-07-10T13:34:18Z</time>
      </trkpt>
      <trkpt lat="43.93441" lon="3.69785">
        <ele>142.2</ele>
        <time>2019-07-10T13:34:25Z</time>
      </trkpt>
      <trkpt lat="43.93481" lon="3.6974">
        <ele>141.6</ele>
        <time>2019-07-10T13:34:35Z</time>
      </trkpt>
      <trkpt lat="43.93484" lon="3.69736">
        <ele>141.6</ele>
        <time>2019-07-10T13:34:36Z</time>
      </trkpt>
      <trkpt lat="43.93494" lon="3.69723">
        <ele>141.8</ele>
        <time>2019-07-10T13:34:39Z</time>
      </trkpt>
      <trkpt lat="43.93501" lon="3.69714">
        <ele>141.8</ele>
        <time>2019-07-10T13:34:41Z</time>
      </trkpt>
      <trkpt lat="43.93508" lon="3.69706">
        <ele>142</ele>
        <time>2019-07-10T13:34:43Z</time>
      </trkpt>
      <trkpt lat="43.93511" lon="3.69702">
        <ele>141.8</ele>
        <time>2019-07-10T13:34:44Z</time>
      </trkpt>
      <trkpt lat="43.93529" lon="3.69682">
        <ele>142</ele>
        <time>2019-07-10T13:34:49Z</time>
      </trkpt>
      <trkpt lat="43.93539" lon="3.69671">
        <ele>142.2</ele>
        <time>2019-07-10T13:34:52Z</time>
      </trkpt>
      <trkpt lat="43.93548" lon="3.69659">
        <ele>142.2</ele>
        <time>2019-07-10T13:34:55Z</time>
      </trkpt>
      <trkpt lat="43.93551" lon="3.69654">
        <ele>142.4</ele>
        <time>2019-07-10T13:34:56Z</time>
      </trkpt>
      <trkpt lat="43.93565" lon="3.69629">
        <ele>142.4</ele>
        <time>2019-07-10T13:35:01Z</time>
      </trkpt>
      <trkpt lat="43.93567" lon="3.69625">
        <ele>142.6</ele>
        <time>2019-07-10T13:35:02Z</time>
      </trkpt>
      <trkpt lat="43.9357" lon="3.6962">
        <ele>142.6</ele>
        <time>2019-07-10T13:35:03Z</time>
      </trkpt>
      <trkpt lat="43.93573" lon="3.69615">
        <ele>142.6</ele>
        <time>2019-07-10T13:35:04Z</time>
      </trkpt>
      <trkpt lat="43.93578" lon="3.69606">
        <ele>142.8</ele>
        <time>2019-07-10T13:35:06Z</time>
      </trkpt>
      <trkpt lat="43.93581" lon="3.69601">
        <ele>142.8</ele>
        <time>2019-07-10T13:35:07Z</time>
      </trkpt>
      <trkpt lat="43.93591" lon="3.69586">
        <ele>142.8</ele>
        <time>2019-07-10T13:35:11Z</time>
      </trkpt>
      <trkpt lat="43.9361" lon="3.69567">
        <ele>143</ele>
        <time>2019-07-10T13:35:16Z</time>
      </trkpt>
      <trkpt lat="43.93623" lon="3.69557">
        <ele>143.2</ele>
        <time>2019-07-10T13:35:19Z</time>
      </trkpt>
      <trkpt lat="43.93631" lon="3.6955">
        <ele>143.4</ele>
        <time>2019-07-10T13:35:21Z</time>
      </trkpt>
      <trkpt lat="43.93649" lon="3.69527">
        <ele>144</ele>
        <time>2019-07-10T13:35:27Z</time>
      </trkpt>
      <trkpt lat="43.93661" lon="3.69507">
        <ele>144.2</ele>
        <time>2019-07-10T13:35:32Z</time>
      </trkpt>
      <trkpt lat="43.93674" lon="3.69493">
        <ele>144.4</ele>
        <time>2019-07-10T13:35:36Z</time>
      </trkpt>
      <trkpt lat="43.93678" lon="3.69489">
        <ele>144.4</ele>
        <time>2019-07-10T13:35:37Z</time>
      </trkpt>
      <trkpt lat="43.93689" lon="3.69473">
        <ele>144.8</ele>
        <time>2019-07-10T13:35:41Z</time>
      </trkpt>
      <trkpt lat="43.93691" lon="3.69469">
        <ele>144.8</ele>
        <time>2019-07-10T13:35:42Z</time>
      </trkpt>
      <trkpt lat="43.93698" lon="3.69458">
        <ele>145</ele>
        <time>2019-07-10T13:35:45Z</time>
      </trkpt>
      <trkpt lat="43.93706" lon="3.69445">
        <ele>145.4</ele>
        <time>2019-07-10T13:35:48Z</time>
      </trkpt>
      <trkpt lat="43.93718" lon="3.6942">
        <ele>146</ele>
        <time>2019-07-10T13:35:54Z</time>
      </trkpt>
      <trkpt lat="43.93722" lon="3.69413">
        <ele>146</ele>
        <time>2019-07-10T13:35:56Z</time>
      </trkpt>
      <trkpt lat="43.93732" lon="3.69399">
        <ele>146.8</ele>
        <time>2019-07-10T13:36:00Z</time>
      </trkpt>
      <trkpt lat="43.93735" lon="3.69396">
        <ele>146.8</ele>
        <time>2019-07-10T13:36:01Z</time>
      </trkpt>
      <trkpt lat="43.93743" lon="3.69372">
        <ele>148</ele>
        <time>2019-07-10T13:36:07Z</time>
      </trkpt>
      <trkpt lat="43.93744" lon="3.69363">
        <ele>148.2</ele>
        <time>2019-07-10T13:36:09Z</time>
      </trkpt>
      <trkpt lat="43.93744" lon="3.69359">
        <ele>148.4</ele>
        <time>2019-07-10T13:36:10Z</time>
      </trkpt>
      <trkpt lat="43.93746" lon="3.69355">
        <ele>148.4</ele>
        <time>2019-07-10T13:36:11Z</time>
      </trkpt>
      <trkpt lat="43.93754" lon="3.6933">
        <ele>149</ele>
        <time>2019-07-10T13:36:16Z</time>
      </trkpt>
      <trkpt lat="43.93756" lon="3.69324">
        <ele>149</ele>
        <time>2019-07-10T13:36:17Z</time>
      </trkpt>
      <trkpt lat="43.93759" lon="3.69301">
        <ele>149</ele>
        <time>2019-07-10T13:36:21Z</time>
      </trkpt>
      <trkpt lat="43.93759" lon="3.69281">
        <ele>149</ele>
        <time>2019-07-10T13:36:24Z</time>
      </trkpt>
      <trkpt lat="43.93757" lon="3.69262">
        <ele>148.8</ele>
        <time>2019-07-10T13:36:27Z</time>
      </trkpt>
      <trkpt lat="43.93753" lon="3.6923">
        <ele>148.4</ele>
        <time>2019-07-10T13:36:32Z</time>
      </trkpt>
      <trkpt lat="43.93752" lon="3.69217">
        <ele>148.4</ele>
        <time>2019-07-10T13:36:34Z</time>
      </trkpt>
      <trkpt lat="43.93752" lon="3.69206">
        <ele>148.2</ele>
        <time>2019-07-10T13:36:36Z</time>
      </trkpt>
      <trkpt lat="43.93753" lon="3.692">
        <ele>148.2</ele>
        <time>2019-07-10T13:36:37Z</time>
      </trkpt>
      <trkpt lat="43.93754" lon="3.69188">
        <ele>148.4</ele>
        <time>2019-07-10T13:36:39Z</time>
      </trkpt>
      <trkpt lat="43.93754" lon="3.69182">
        <ele>148.2</ele>
        <time>2019-07-10T13:36:40Z</time>
      </trkpt>
      <trkpt lat="43.93756" lon="3.69176">
        <ele>148.4</ele>
        <time>2019-07-10T13:36:41Z</time>
      </trkpt>
      <trkpt lat="43.93761" lon="3.6916">
        <ele>149</ele>
        <time>2019-07-10T13:36:44Z</time>
      </trkpt>
      <trkpt lat="43.93764" lon="3.6915">
        <ele>149</ele>
        <time>2019-07-10T13:36:46Z</time>
      </trkpt>
      <trkpt lat="43.93765" lon="3.69144">
        <ele>149</ele>
        <time>2019-07-10T13:36:47Z</time>
      </trkpt>
      <trkpt lat="43.93766" lon="3.69138">
        <ele>149.2</ele>
        <time>2019-07-10T13:36:48Z</time>
      </trkpt>
      <trkpt lat="43.93767" lon="3.69132">
        <ele>149.4</ele>
        <time>2019-07-10T13:36:49Z</time>
      </trkpt>
      <trkpt lat="43.93766" lon="3.69119">
        <ele>149.4</ele>
        <time>2019-07-10T13:36:51Z</time>
      </trkpt>
      <trkpt lat="43.93766" lon="3.69085">
        <ele>149.2</ele>
        <time>2019-07-10T13:36:56Z</time>
      </trkpt>
      <trkpt lat="43.93768" lon="3.69079">
        <ele>149.2</ele>
        <time>2019-07-10T13:36:57Z</time>
      </trkpt>
      <trkpt lat="43.93775" lon="3.6906">
        <ele>148.8</ele>
        <time>2019-07-10T13:37:00Z</time>
      </trkpt>
      <trkpt lat="43.93781" lon="3.69042">
        <ele>148.8</ele>
        <time>2019-07-10T13:37:03Z</time>
      </trkpt>
      <trkpt lat="43.93784" lon="3.69037">
        <ele>148.8</ele>
        <time>2019-07-10T13:37:04Z</time>
      </trkpt>
      <trkpt lat="43.93788" lon="3.6903">
        <ele>148.8</ele>
        <time>2019-07-10T13:37:05Z</time>
      </trkpt>
      <trkpt lat="43.93804" lon="3.69005">
        <ele>148.6</ele>
        <time>2019-07-10T13:37:10Z</time>
      </trkpt>
      <trkpt lat="43.93833" lon="3.68975">
        <ele>148.4</ele>
        <time>2019-07-10T13:37:17Z</time>
      </trkpt>
      <trkpt lat="43.93851" lon="3.6896">
        <ele>148.8</ele>
        <time>2019-07-10T13:37:21Z</time>
      </trkpt>
      <trkpt lat="43.93859" lon="3.68953">
        <ele>148.8</ele>
        <time>2019-07-10T13:37:23Z</time>
      </trkpt>
      <trkpt lat="43.93864" lon="3.6895">
        <ele>148.8</ele>
        <time>2019-07-10T13:37:24Z</time>
      </trkpt>
      <trkpt lat="43.93884" lon="3.68941">
        <ele>148.8</ele>
        <time>2019-07-10T13:37:28Z</time>
      </trkpt>
      <trkpt lat="43.93909" lon="3.68931">
        <ele>148.6</ele>
        <time>2019-07-10T13:37:34Z</time>
      </trkpt>
      <trkpt lat="43.93916" lon="3.68927">
        <ele>148.4</ele>
        <time>2019-07-10T13:37:36Z</time>
      </trkpt>
      <trkpt lat="43.93919" lon="3.68924">
        <ele>148.2</ele>
        <time>2019-07-10T13:37:37Z</time>
      </trkpt>
      <trkpt lat="43.93922" lon="3.6892">
        <ele>148.4</ele>
        <time>2019-07-10T13:37:38Z</time>
      </trkpt>
      <trkpt lat="43.93925" lon="3.68916">
        <ele>148.2</ele>
        <time>2019-07-10T13:37:39Z</time>
      </trkpt>
      <trkpt lat="43.93927" lon="3.68912">
        <ele>148.4</ele>
        <time>2019-07-10T13:37:40Z</time>
      </trkpt>
      <trkpt lat="43.9393" lon="3.68901">
        <ele>148.2</ele>
        <time>2019-07-10T13:37:42Z</time>
      </trkpt>
      <trkpt lat="43.9393" lon="3.68888">
        <ele>148.4</ele>
        <time>2019-07-10T13:37:44Z</time>
      </trkpt>
      <trkpt lat="43.93928" lon="3.6887">
        <ele>148.4</ele>
        <time>2019-07-10T13:37:47Z</time>
      </trkpt>
      <trkpt lat="43.93924" lon="3.68841">
        <ele>148.2</ele>
        <time>2019-07-10T13:37:52Z</time>
      </trkpt>
      <trkpt lat="43.93923" lon="3.68826">
        <ele>148.4</ele>
        <time>2019-07-10T13:37:55Z</time>
      </trkpt>
      <trkpt lat="43.93922" lon="3.6882">
        <ele>148.2</ele>
        <time>2019-07-10T13:37:56Z</time>
      </trkpt>
      <trkpt lat="43.93921" lon="3.68814">
        <ele>148.2</ele>
        <time>2019-07-10T13:37:57Z</time>
      </trkpt>
      <trkpt lat="43.93921" lon="3.68792">
        <ele>148.2</ele>
        <time>2019-07-10T13:38:01Z</time>
      </trkpt>
      <trkpt lat="43.93917" lon="3.68774">
        <ele>148.4</ele>
        <time>2019-07-10T13:38:04Z</time>
      </trkpt>
      <trkpt lat="43.93916" lon="3.68768">
        <ele>148.2</ele>
        <time>2019-07-10T13:38:05Z</time>
      </trkpt>
      <trkpt lat="43.93911" lon="3.6875">
        <ele>148.4</ele>
        <time>2019-07-10T13:38:08Z</time>
      </trkpt>
      <trkpt lat="43.93909" lon="3.68739">
        <ele>148.2</ele>
        <time>2019-07-10T13:38:10Z</time>
      </trkpt>
      <trkpt lat="43.93902" lon="3.68703">
        <ele>148.4</ele>
        <time>2019-07-10T13:38:16Z</time>
      </trkpt>
      <trkpt lat="43.939" lon="3.6869">
        <ele>148.4</ele>
        <time>2019-07-10T13:38:18Z</time>
      </trkpt>
      <trkpt lat="43.93896" lon="3.68675">
        <ele>148.6</ele>
        <time>2019-07-10T13:38:21Z</time>
      </trkpt>
      <trkpt lat="43.93892" lon="3.68652">
        <ele>148.8</ele>
        <time>2019-07-10T13:38:26Z</time>
      </trkpt>
      <trkpt lat="43.93888" lon="3.68622">
        <ele>149.4</ele>
        <time>2019-07-10T13:38:32Z</time>
      </trkpt>
      <trkpt lat="43.93891" lon="3.68588">
        <ele>149.4</ele>
        <time>2019-07-10T13:38:39Z</time>
      </trkpt>
      <trkpt lat="43.93895" lon="3.68567">
        <ele>149.4</ele>
        <time>2019-07-10T13:38:43Z</time>
      </trkpt>
      <trkpt lat="43.93898" lon="3.68552">
        <ele>149.6</ele>
        <time>2019-07-10T13:38:46Z</time>
      </trkpt>
      <trkpt lat="43.93901" lon="3.68542">
        <ele>149.8</ele>
        <time>2019-07-10T13:38:48Z</time>
      </trkpt>
      <trkpt lat="43.93912" lon="3.68511">
        <ele>150.6</ele>
        <time>2019-07-10T13:38:55Z</time>
      </trkpt>
      <trkpt lat="43.93916" lon="3.68503">
        <ele>151</ele>
        <time>2019-07-10T13:38:57Z</time>
      </trkpt>
      <trkpt lat="43.93926" lon="3.68489">
        <ele>151.2</ele>
        <time>2019-07-10T13:39:01Z</time>
      </trkpt>
      <trkpt lat="43.9393" lon="3.68482">
        <ele>151.8</ele>
        <time>2019-07-10T13:39:03Z</time>
      </trkpt>
      <trkpt lat="43.93936" lon="3.68471">
        <ele>152.4</ele>
        <time>2019-07-10T13:39:06Z</time>
      </trkpt>
      <trkpt lat="43.93943" lon="3.68461">
        <ele>153</ele>
        <time>2019-07-10T13:39:09Z</time>
      </trkpt>
      <trkpt lat="43.9395" lon="3.68449">
        <ele>153.6</ele>
        <time>2019-07-10T13:39:13Z</time>
      </trkpt>
      <trkpt lat="43.93964" lon="3.68432">
        <ele>154.6</ele>
        <time>2019-07-10T13:39:19Z</time>
      </trkpt>
      <trkpt lat="43.93979" lon="3.68415">
        <ele>155.6</ele>
        <time>2019-07-10T13:39:25Z</time>
      </trkpt>
      <trkpt lat="43.93998" lon="3.68396">
        <ele>156</ele>
        <time>2019-07-10T13:39:31Z</time>
      </trkpt>
      <trkpt lat="43.93999" lon="3.68392">
        <ele>156.2</ele>
        <time>2019-07-10T13:39:32Z</time>
      </trkpt>
      <trkpt lat="43.94003" lon="3.68383">
        <ele>156.2</ele>
        <time>2019-07-10T13:39:34Z</time>
      </trkpt>
      <trkpt lat="43.94011" lon="3.68361">
        <ele>156.2</ele>
        <time>2019-07-10T13:39:38Z</time>
      </trkpt>
      <trkpt lat="43.94012" lon="3.68354">
        <ele>156.2</ele>
        <time>2019-07-10T13:39:39Z</time>
      </trkpt>
      <trkpt lat="43.94011" lon="3.6834">
        <ele>156</ele>
        <time>2019-07-10T13:39:41Z</time>
      </trkpt>
      <trkpt lat="43.9401" lon="3.68332">
        <ele>156</ele>
        <time>2019-07-10T13:39:42Z</time>
      </trkpt>
      <trkpt lat="43.94008" lon="3.68324">
        <ele>156</ele>
        <time>2019-07-10T13:39:43Z</time>
      </trkpt>
      <trkpt lat="43.93997" lon="3.68295">
        <ele>154.8</ele>
        <time>2019-07-10T13:39:47Z</time>
      </trkpt>
      <trkpt lat="43.93991" lon="3.68279">
        <ele>154.2</ele>
        <time>2019-07-10T13:39:49Z</time>
      </trkpt>
      <trkpt lat="43.93978" lon="3.68249">
        <ele>153.4</ele>
        <time>2019-07-10T13:39:53Z</time>
      </trkpt>
      <trkpt lat="43.93974" lon="3.68241">
        <ele>153.4</ele>
        <time>2019-07-10T13:39:54Z</time>
      </trkpt>
      <trkpt lat="43.93959" lon="3.68202">
        <ele>152</ele>
        <time>2019-07-10T13:39:59Z</time>
      </trkpt>
      <trkpt lat="43.93957" lon="3.68194">
        <ele>151.8</ele>
        <time>2019-07-10T13:40:00Z</time>
      </trkpt>
      <trkpt lat="43.93937" lon="3.6813">
        <ele>150.6</ele>
        <time>2019-07-10T13:40:08Z</time>
      </trkpt>
      <trkpt lat="43.93935" lon="3.68122">
        <ele>150.6</ele>
        <time>2019-07-10T13:40:09Z</time>
      </trkpt>
      <trkpt lat="43.93931" lon="3.68107">
        <ele>150.4</ele>
        <time>2019-07-10T13:40:11Z</time>
      </trkpt>
      <trkpt lat="43.93926" lon="3.68094">
        <ele>150.4</ele>
        <time>2019-07-10T13:40:13Z</time>
      </trkpt>
      <trkpt lat="43.93909" lon="3.68059">
        <ele>150.2</ele>
        <time>2019-07-10T13:40:19Z</time>
      </trkpt>
      <trkpt lat="43.9389" lon="3.68023">
        <ele>150.6</ele>
        <time>2019-07-10T13:40:26Z</time>
      </trkpt>
      <trkpt lat="43.93878" lon="3.67998">
        <ele>150.8</ele>
        <time>2019-07-10T13:40:32Z</time>
      </trkpt>
      <trkpt lat="43.93867" lon="3.67975">
        <ele>151.2</ele>
        <time>2019-07-10T13:40:37Z</time>
      </trkpt>
      <trkpt lat="43.93861" lon="3.67961">
        <ele>151.6</ele>
        <time>2019-07-10T13:40:40Z</time>
      </trkpt>
      <trkpt lat="43.93843" lon="3.67924">
        <ele>152.2</ele>
        <time>2019-07-10T13:40:48Z</time>
      </trkpt>
      <trkpt lat="43.93833" lon="3.679">
        <ele>152.6</ele>
        <time>2019-07-10T13:40:53Z</time>
      </trkpt>
      <trkpt lat="43.93828" lon="3.67883">
        <ele>152.8</ele>
        <time>2019-07-10T13:40:56Z</time>
      </trkpt>
      <trkpt lat="43.93812" lon="3.67832">
        <ele>152.6</ele>
        <time>2019-07-10T13:41:04Z</time>
      </trkpt>
      <trkpt lat="43.93804" lon="3.67788">
        <ele>152.4</ele>
        <time>2019-07-10T13:41:12Z</time>
      </trkpt>
      <trkpt lat="43.93801" lon="3.67776">
        <ele>152.6</ele>
        <time>2019-07-10T13:41:14Z</time>
      </trkpt>
      <trkpt lat="43.93794" lon="3.67743">
        <ele>152.8</ele>
        <time>2019-07-10T13:41:20Z</time>
      </trkpt>
      <trkpt lat="43.93793" lon="3.67738">
        <ele>153.2</ele>
        <time>2019-07-10T13:41:21Z</time>
      </trkpt>
      <trkpt lat="43.93785" lon="3.6771">
        <ele>154</ele>
        <time>2019-07-10T13:41:27Z</time>
      </trkpt>
      <trkpt lat="43.93782" lon="3.67697">
        <ele>154.4</ele>
        <time>2019-07-10T13:41:30Z</time>
      </trkpt>
      <trkpt lat="43.93775" lon="3.67671">
        <ele>155.6</ele>
        <time>2019-07-10T13:41:36Z</time>
      </trkpt>
      <trkpt lat="43.93773" lon="3.67667">
        <ele>155.8</ele>
        <time>2019-07-10T13:41:37Z</time>
      </trkpt>
      <trkpt lat="43.93767" lon="3.67647">
        <ele>156.6</ele>
        <time>2019-07-10T13:41:42Z</time>
      </trkpt>
      <trkpt lat="43.93763" lon="3.6763">
        <ele>157.2</ele>
        <time>2019-07-10T13:41:46Z</time>
      </trkpt>
      <trkpt lat="43.9376" lon="3.67616">
        <ele>158</ele>
        <time>2019-07-10T13:41:50Z</time>
      </trkpt>
      <trkpt lat="43.93758" lon="3.67608">
        <ele>158.2</ele>
        <time>2019-07-10T13:41:52Z</time>
      </trkpt>
      <trkpt lat="43.93753" lon="3.67588">
        <ele>158.6</ele>
        <time>2019-07-10T13:41:57Z</time>
      </trkpt>
      <trkpt lat="43.93748" lon="3.67572">
        <ele>159.2</ele>
        <time>2019-07-10T13:42:01Z</time>
      </trkpt>
      <trkpt lat="43.93744" lon="3.67557">
        <ele>160.2</ele>
        <time>2019-07-10T13:42:05Z</time>
      </trkpt>
      <trkpt lat="43.9374" lon="3.67544">
        <ele>160.6</ele>
        <time>2019-07-10T13:42:08Z</time>
      </trkpt>
      <trkpt lat="43.93737" lon="3.67533">
        <ele>161</ele>
        <time>2019-07-10T13:42:11Z</time>
      </trkpt>
      <trkpt lat="43.93728" lon="3.67504">
        <ele>162</ele>
        <time>2019-07-10T13:42:18Z</time>
      </trkpt>
      <trkpt lat="43.93712" lon="3.67462">
        <ele>162.4</ele>
        <time>2019-07-10T13:42:27Z</time>
      </trkpt>
      <trkpt lat="43.93693" lon="3.67414">
        <ele>162.4</ele>
        <time>2019-07-10T13:42:36Z</time>
      </trkpt>
      <trkpt lat="43.93671" lon="3.67363">
        <ele>162.2</ele>
        <time>2019-07-10T13:42:46Z</time>
      </trkpt>
      <trkpt lat="43.93653" lon="3.67332">
        <ele>162.2</ele>
        <time>2019-07-10T13:42:52Z</time>
      </trkpt>
      <trkpt lat="43.93641" lon="3.67317">
        <ele>162.2</ele>
        <time>2019-07-10T13:42:55Z</time>
      </trkpt>
      <trkpt lat="43.93622" lon="3.67295">
        <ele>161.8</ele>
        <time>2019-07-10T13:43:00Z</time>
      </trkpt>
      <trkpt lat="43.93605" lon="3.67275">
        <ele>161.4</ele>
        <time>2019-07-10T13:43:05Z</time>
      </trkpt>
      <trkpt lat="43.93598" lon="3.67267">
        <ele>161.4</ele>
        <time>2019-07-10T13:43:07Z</time>
      </trkpt>
      <trkpt lat="43.93595" lon="3.67263">
        <ele>161.2</ele>
        <time>2019-07-10T13:43:08Z</time>
      </trkpt>
      <trkpt lat="43.93576" lon="3.67243">
        <ele>161.2</ele>
        <time>2019-07-10T13:43:13Z</time>
      </trkpt>
      <trkpt lat="43.9354" lon="3.67202">
        <ele>161.8</ele>
        <time>2019-07-10T13:43:24Z</time>
      </trkpt>
      <trkpt lat="43.93523" lon="3.67183">
        <ele>162</ele>
        <time>2019-07-10T13:43:29Z</time>
      </trkpt>
      <trkpt lat="43.93512" lon="3.67171">
        <ele>162.4</ele>
        <time>2019-07-10T13:43:32Z</time>
      </trkpt>
      <trkpt lat="43.93501" lon="3.67158">
        <ele>162.4</ele>
        <time>2019-07-10T13:43:35Z</time>
      </trkpt>
      <trkpt lat="43.93496" lon="3.67154">
        <ele>162.6</ele>
        <time>2019-07-10T13:43:36Z</time>
      </trkpt>
      <trkpt lat="43.93489" lon="3.67145">
        <ele>162.4</ele>
        <time>2019-07-10T13:43:38Z</time>
      </trkpt>
      <trkpt lat="43.93485" lon="3.67141">
        <ele>162.6</ele>
        <time>2019-07-10T13:43:39Z</time>
      </trkpt>
      <trkpt lat="43.9345" lon="3.67098">
        <ele>161.8</ele>
        <time>2019-07-10T13:43:48Z</time>
      </trkpt>
      <trkpt lat="43.93444" lon="3.67087">
        <ele>161.8</ele>
        <time>2019-07-10T13:43:50Z</time>
      </trkpt>
      <trkpt lat="43.93441" lon="3.67083">
        <ele>161.8</ele>
        <time>2019-07-10T13:43:51Z</time>
      </trkpt>
      <trkpt lat="43.93434" lon="3.67072">
        <ele>161.6</ele>
        <time>2019-07-10T13:43:53Z</time>
      </trkpt>
      <trkpt lat="43.93422" lon="3.67055">
        <ele>161.4</ele>
        <time>2019-07-10T13:43:56Z</time>
      </trkpt>
      <trkpt lat="43.93418" lon="3.6705">
        <ele>161.6</ele>
        <time>2019-07-10T13:43:57Z</time>
      </trkpt>
      <trkpt lat="43.93411" lon="3.67039">
        <ele>161.6</ele>
        <time>2019-07-10T13:43:59Z</time>
      </trkpt>
      <trkpt lat="43.93405" lon="3.6703">
        <ele>161.6</ele>
        <time>2019-07-10T13:44:01Z</time>
      </trkpt>
      <trkpt lat="43.934" lon="3.67024">
        <ele>161.4</ele>
        <time>2019-07-10T13:44:02Z</time>
      </trkpt>
      <trkpt lat="43.93382" lon="3.67005">
        <ele>161.6</ele>
        <time>2019-07-10T13:44:07Z</time>
      </trkpt>
      <trkpt lat="43.93366" lon="3.66985">
        <ele>161.6</ele>
        <time>2019-07-10T13:44:11Z</time>
      </trkpt>
      <trkpt lat="43.9336" lon="3.66975">
        <ele>161.6</ele>
        <time>2019-07-10T13:44:13Z</time>
      </trkpt>
      <trkpt lat="43.93332" lon="3.66922">
        <ele>161.8</ele>
        <time>2019-07-10T13:44:22Z</time>
      </trkpt>
      <trkpt lat="43.93323" lon="3.66907">
        <ele>161.6</ele>
        <time>2019-07-10T13:44:25Z</time>
      </trkpt>
      <trkpt lat="43.9331" lon="3.6689">
        <ele>161.8</ele>
        <time>2019-07-10T13:44:29Z</time>
      </trkpt>
      <trkpt lat="43.93295" lon="3.66874">
        <ele>162.4</ele>
        <time>2019-07-10T13:44:34Z</time>
      </trkpt>
      <trkpt lat="43.93287" lon="3.66865">
        <ele>162.8</ele>
        <time>2019-07-10T13:44:37Z</time>
      </trkpt>
      <trkpt lat="43.93274" lon="3.66853">
        <ele>163.2</ele>
        <time>2019-07-10T13:44:41Z</time>
      </trkpt>
      <trkpt lat="43.93248" lon="3.66828">
        <ele>163.8</ele>
        <time>2019-07-10T13:44:49Z</time>
      </trkpt>
      <trkpt lat="43.93238" lon="3.66819">
        <ele>164.2</ele>
        <time>2019-07-10T13:44:52Z</time>
      </trkpt>
      <trkpt lat="43.93198" lon="3.66786">
        <ele>164.4</ele>
        <time>2019-07-10T13:45:03Z</time>
      </trkpt>
      <trkpt lat="43.93162" lon="3.66764">
        <ele>164.4</ele>
        <time>2019-07-10T13:45:12Z</time>
      </trkpt>
      <trkpt lat="43.93144" lon="3.66754">
        <ele>164.4</ele>
        <time>2019-07-10T13:45:16Z</time>
      </trkpt>
      <trkpt lat="43.93116" lon="3.66739">
        <ele>163.8</ele>
        <time>2019-07-10T13:45:22Z</time>
      </trkpt>
      <trkpt lat="43.93076" lon="3.66708">
        <ele>163.4</ele>
        <time>2019-07-10T13:45:32Z</time>
      </trkpt>
      <trkpt lat="43.93068" lon="3.66701">
        <ele>163.2</ele>
        <time>2019-07-10T13:45:34Z</time>
      </trkpt>
      <trkpt lat="43.93043" lon="3.66682">
        <ele>162.8</ele>
        <time>2019-07-10T13:45:40Z</time>
      </trkpt>
      <trkpt lat="43.9303" lon="3.66671">
        <ele>162.8</ele>
        <time>2019-07-10T13:45:43Z</time>
      </trkpt>
      <trkpt lat="43.93015" lon="3.66656">
        <ele>162.4</ele>
        <time>2019-07-10T13:45:47Z</time>
      </trkpt>
      <trkpt lat="43.92979" lon="3.66623">
        <ele>162.6</ele>
        <time>2019-07-10T13:45:56Z</time>
      </trkpt>
      <trkpt lat="43.92971" lon="3.66617">
        <ele>162.6</ele>
        <time>2019-07-10T13:45:58Z</time>
      </trkpt>
      <trkpt lat="43.92948" lon="3.66606">
        <ele>163.2</ele>
        <time>2019-07-10T13:46:04Z</time>
      </trkpt>
      <trkpt lat="43.92929" lon="3.66599">
        <ele>163.8</ele>
        <time>2019-07-10T13:46:09Z</time>
      </trkpt>
      <trkpt lat="43.92921" lon="3.66598">
        <ele>164</ele>
        <time>2019-07-10T13:46:11Z</time>
      </trkpt>
      <trkpt lat="43.92896" lon="3.66597">
        <ele>164.8</ele>
        <time>2019-07-10T13:46:18Z</time>
      </trkpt>
      <trkpt lat="43.92868" lon="3.66599">
        <ele>165.2</ele>
        <time>2019-07-10T13:46:25Z</time>
      </trkpt>
      <trkpt lat="43.9286" lon="3.66601">
        <ele>165.4</ele>
        <time>2019-07-10T13:46:27Z</time>
      </trkpt>
      <trkpt lat="43.92851" lon="3.66603">
        <ele>165.4</ele>
        <time>2019-07-10T13:46:29Z</time>
      </trkpt>
      <trkpt lat="43.92843" lon="3.66605">
        <ele>165.4</ele>
        <time>2019-07-10T13:46:31Z</time>
      </trkpt>
      <trkpt lat="43.92832" lon="3.66606">
        <ele>165.6</ele>
        <time>2019-07-10T13:46:33Z</time>
      </trkpt>
      <trkpt lat="43.92821" lon="3.66608">
        <ele>165.4</ele>
        <time>2019-07-10T13:46:35Z</time>
      </trkpt>
      <trkpt lat="43.928" lon="3.66612">
        <ele>165</ele>
        <time>2019-07-10T13:46:39Z</time>
      </trkpt>
      <trkpt lat="43.92763" lon="3.66617">
        <ele>164.6</ele>
        <time>2019-07-10T13:46:46Z</time>
      </trkpt>
      <trkpt lat="43.92757" lon="3.66617">
        <ele>164.6</ele>
        <time>2019-07-10T13:46:47Z</time>
      </trkpt>
      <trkpt lat="43.92722" lon="3.66618">
        <ele>164.4</ele>
        <time>2019-07-10T13:46:54Z</time>
      </trkpt>
      <trkpt lat="43.9269" lon="3.6662">
        <ele>164.2</ele>
        <time>2019-07-10T13:47:00Z</time>
      </trkpt>
      <trkpt lat="43.92686" lon="3.6662">
        <ele>163.8</ele>
        <time>2019-07-10T13:47:01Z</time>
      </trkpt>
      <trkpt lat="43.9268" lon="3.66618">
        <ele>164</ele>
        <time>2019-07-10T13:47:02Z</time>
      </trkpt>
      <trkpt lat="43.92659" lon="3.6661">
        <ele>163.8</ele>
        <time>2019-07-10T13:47:06Z</time>
      </trkpt>
      <trkpt lat="43.92645" lon="3.66602">
        <ele>163.4</ele>
        <time>2019-07-10T13:47:09Z</time>
      </trkpt>
      <trkpt lat="43.92618" lon="3.66579">
        <ele>163.2</ele>
        <time>2019-07-10T13:47:15Z</time>
      </trkpt>
      <trkpt lat="43.92614" lon="3.66575">
        <ele>163.4</ele>
        <time>2019-07-10T13:47:16Z</time>
      </trkpt>
      <trkpt lat="43.92585" lon="3.66537">
        <ele>162.8</ele>
        <time>2019-07-10T13:47:24Z</time>
      </trkpt>
      <trkpt lat="43.92551" lon="3.66487">
        <ele>162.6</ele>
        <time>2019-07-10T13:47:34Z</time>
      </trkpt>
      <trkpt lat="43.92545" lon="3.66476">
        <ele>162.4</ele>
        <time>2019-07-10T13:47:36Z</time>
      </trkpt>
      <trkpt lat="43.92542" lon="3.6647">
        <ele>162.4</ele>
        <time>2019-07-10T13:47:37Z</time>
      </trkpt>
      <trkpt lat="43.92538" lon="3.66459">
        <ele>162.2</ele>
        <time>2019-07-10T13:47:39Z</time>
      </trkpt>
      <trkpt lat="43.92536" lon="3.66455">
        <ele>162.4</ele>
        <time>2019-07-10T13:47:40Z</time>
      </trkpt>
      <trkpt lat="43.92535" lon="3.66449">
        <ele>162.2</ele>
        <time>2019-07-10T13:47:41Z</time>
      </trkpt>
      <trkpt lat="43.9253" lon="3.6643">
        <ele>162.4</ele>
        <time>2019-07-10T13:47:45Z</time>
      </trkpt>
      <trkpt lat="43.92525" lon="3.66406">
        <ele>163.2</ele>
        <time>2019-07-10T13:47:50Z</time>
      </trkpt>
      <trkpt lat="43.92527" lon="3.66386">
        <ele>163.8</ele>
        <time>2019-07-10T13:47:54Z</time>
      </trkpt>
      <trkpt lat="43.92529" lon="3.66382">
        <ele>163.8</ele>
        <time>2019-07-10T13:47:55Z</time>
      </trkpt>
      <trkpt lat="43.92532" lon="3.66376">
        <ele>163.8</ele>
        <time>2019-07-10T13:47:56Z</time>
      </trkpt>
      <trkpt lat="43.92549" lon="3.66348">
        <ele>164</ele>
        <time>2019-07-10T13:48:02Z</time>
      </trkpt>
      <trkpt lat="43.92563" lon="3.66324">
        <ele>164.2</ele>
        <time>2019-07-10T13:48:07Z</time>
      </trkpt>
      <trkpt lat="43.92568" lon="3.66316">
        <ele>164</ele>
        <time>2019-07-10T13:48:09Z</time>
      </trkpt>
      <trkpt lat="43.92575" lon="3.66291">
        <ele>164.4</ele>
        <time>2019-07-10T13:48:14Z</time>
      </trkpt>
      <trkpt lat="43.92588" lon="3.66243">
        <ele>165</ele>
        <time>2019-07-10T13:48:23Z</time>
      </trkpt>
      <trkpt lat="43.9259" lon="3.66237">
        <ele>165.2</ele>
        <time>2019-07-10T13:48:24Z</time>
      </trkpt>
      <trkpt lat="43.92594" lon="3.66227">
        <ele>165.2</ele>
        <time>2019-07-10T13:48:26Z</time>
      </trkpt>
      <trkpt lat="43.92597" lon="3.66217">
        <ele>165.2</ele>
        <time>2019-07-10T13:48:28Z</time>
      </trkpt>
      <trkpt lat="43.92601" lon="3.66207">
        <ele>165.2</ele>
        <time>2019-07-10T13:48:30Z</time>
      </trkpt>
      <trkpt lat="43.92605" lon="3.66197">
        <ele>165.4</ele>
        <time>2019-07-10T13:48:32Z</time>
      </trkpt>
      <trkpt lat="43.92608" lon="3.66189">
        <ele>165.6</ele>
        <time>2019-07-10T13:48:34Z</time>
      </trkpt>
      <trkpt lat="43.9261" lon="3.66185">
        <ele>165.8</ele>
        <time>2019-07-10T13:48:35Z</time>
      </trkpt>
      <trkpt lat="43.92618" lon="3.66177">
        <ele>165.8</ele>
        <time>2019-07-10T13:48:38Z</time>
      </trkpt>
      <trkpt lat="43.92633" lon="3.66168">
        <ele>166.2</ele>
        <time>2019-07-10T13:48:43Z</time>
      </trkpt>
      <trkpt lat="43.92636" lon="3.66166">
        <ele>166.2</ele>
        <time>2019-07-10T13:48:44Z</time>
      </trkpt>
      <trkpt lat="43.92654" lon="3.66155">
        <ele>167</ele>
        <time>2019-07-10T13:48:50Z</time>
      </trkpt>
      <trkpt lat="43.9266" lon="3.66151">
        <ele>167.2</ele>
        <time>2019-07-10T13:48:52Z</time>
      </trkpt>
      <trkpt lat="43.92674" lon="3.6613">
        <ele>167.8</ele>
        <time>2019-07-10T13:48:58Z</time>
      </trkpt>
      <trkpt lat="43.92685" lon="3.66094">
        <ele>168.6</ele>
        <time>2019-07-10T13:49:06Z</time>
      </trkpt>
      <trkpt lat="43.92692" lon="3.66073">
        <ele>169</ele>
        <time>2019-07-10T13:49:11Z</time>
      </trkpt>
      <trkpt lat="43.92696" lon="3.66056">
        <ele>169.4</ele>
        <time>2019-07-10T13:49:15Z</time>
      </trkpt>
      <trkpt lat="43.92702" lon="3.66031">
        <ele>170</ele>
        <time>2019-07-10T13:49:21Z</time>
      </trkpt>
      <trkpt lat="43.92707" lon="3.6601">
        <ele>170.4</ele>
        <time>2019-07-10T13:49:26Z</time>
      </trkpt>
      <trkpt lat="43.92721" lon="3.65978">
        <ele>171.2</ele>
        <time>2019-07-10T13:49:34Z</time>
      </trkpt>
      <trkpt lat="43.92731" lon="3.65954">
        <ele>171.8</ele>
        <time>2019-07-10T13:49:40Z</time>
      </trkpt>
      <trkpt lat="43.92732" lon="3.6595">
        <ele>171.8</ele>
        <time>2019-07-10T13:49:41Z</time>
      </trkpt>
      <trkpt lat="43.92747" lon="3.65923">
        <ele>172.6</ele>
        <time>2019-07-10T13:49:48Z</time>
      </trkpt>
      <trkpt lat="43.92755" lon="3.65909">
        <ele>172.8</ele>
        <time>2019-07-10T13:49:51Z</time>
      </trkpt>
      <trkpt lat="43.92764" lon="3.65895">
        <ele>172.6</ele>
        <time>2019-07-10T13:49:54Z</time>
      </trkpt>
      <trkpt lat="43.92785" lon="3.65866">
        <ele>172</ele>
        <time>2019-07-10T13:50:00Z</time>
      </trkpt>
      <trkpt lat="43.92809" lon="3.65832">
        <ele>172</ele>
        <time>2019-07-10T13:50:08Z</time>
      </trkpt>
      <trkpt lat="43.92812" lon="3.65829">
        <ele>172</ele>
        <time>2019-07-10T13:50:09Z</time>
      </trkpt>
      <trkpt lat="43.92815" lon="3.65825">
        <ele>172</ele>
        <time>2019-07-10T13:50:10Z</time>
      </trkpt>
      <trkpt lat="43.92817" lon="3.65821">
        <ele>172.2</ele>
        <time>2019-07-10T13:50:11Z</time>
      </trkpt>
      <trkpt lat="43.92826" lon="3.65811">
        <ele>172.2</ele>
        <time>2019-07-10T13:50:14Z</time>
      </trkpt>
      <trkpt lat="43.92829" lon="3.65807">
        <ele>172</ele>
        <time>2019-07-10T13:50:15Z</time>
      </trkpt>
      <trkpt lat="43.92837" lon="3.658">
        <ele>172</ele>
        <time>2019-07-10T13:50:17Z</time>
      </trkpt>
      <trkpt lat="43.92839" lon="3.65797">
        <ele>171.8</ele>
        <time>2019-07-10T13:50:18Z</time>
      </trkpt>
      <trkpt lat="43.92856" lon="3.6578">
        <ele>171.6</ele>
        <time>2019-07-10T13:50:23Z</time>
      </trkpt>
      <trkpt lat="43.92869" lon="3.65768">
        <ele>171.6</ele>
        <time>2019-07-10T13:50:27Z</time>
      </trkpt>
      <trkpt lat="43.92883" lon="3.65758">
        <ele>171.4</ele>
        <time>2019-07-10T13:50:31Z</time>
      </trkpt>
      <trkpt lat="43.92902" lon="3.65745">
        <ele>171.4</ele>
        <time>2019-07-10T13:50:36Z</time>
      </trkpt>
      <trkpt lat="43.92906" lon="3.65742">
        <ele>171.4</ele>
        <time>2019-07-10T13:50:37Z</time>
      </trkpt>
      <trkpt lat="43.92928" lon="3.65727">
        <ele>171.8</ele>
        <time>2019-07-10T13:50:44Z</time>
      </trkpt>
      <trkpt lat="43.92943" lon="3.65709">
        <ele>171.8</ele>
        <time>2019-07-10T13:50:50Z</time>
      </trkpt>
      <trkpt lat="43.92945" lon="3.65706">
        <ele>171.8</ele>
        <time>2019-07-10T13:50:51Z</time>
      </trkpt>
      <trkpt lat="43.92948" lon="3.65701">
        <ele>171.8</ele>
        <time>2019-07-10T13:50:52Z</time>
      </trkpt>
      <trkpt lat="43.92956" lon="3.65689">
        <ele>172</ele>
        <time>2019-07-10T13:50:56Z</time>
      </trkpt>
      <trkpt lat="43.92976" lon="3.65657">
        <ele>172.4</ele>
        <time>2019-07-10T13:51:04Z</time>
      </trkpt>
      <trkpt lat="43.92987" lon="3.65637">
        <ele>173</ele>
        <time>2019-07-10T13:51:11Z</time>
      </trkpt>
      <trkpt lat="43.92991" lon="3.65628">
        <ele>173.6</ele>
        <time>2019-07-10T13:51:16Z</time>
      </trkpt>
      <trkpt lat="43.92997" lon="3.65613">
        <ele>175.2</ele>
        <time>2019-07-10T13:51:23Z</time>
      </trkpt>
      <trkpt lat="43.92999" lon="3.65609">
        <ele>175.6</ele>
        <time>2019-07-10T13:51:25Z</time>
      </trkpt>
      <trkpt lat="43.93005" lon="3.656">
        <ele>176</ele>
        <time>2019-07-10T13:51:29Z</time>
      </trkpt>
      <trkpt lat="43.93006" lon="3.65598">
        <ele>176.2</ele>
        <time>2019-07-10T13:51:30Z</time>
      </trkpt>
      <trkpt lat="43.93013" lon="3.65584">
        <ele>177.6</ele>
        <time>2019-07-10T13:51:37Z</time>
      </trkpt>
      <trkpt lat="43.93014" lon="3.65582">
        <ele>177.8</ele>
        <time>2019-07-10T13:51:38Z</time>
      </trkpt>
      <trkpt lat="43.93019" lon="3.65573">
        <ele>178.2</ele>
        <time>2019-07-10T13:51:42Z</time>
      </trkpt>
      <trkpt lat="43.93022" lon="3.65568">
        <ele>178.8</ele>
        <time>2019-07-10T13:51:44Z</time>
      </trkpt>
      <trkpt lat="43.93024" lon="3.65565">
        <ele>179.2</ele>
        <time>2019-07-10T13:51:46Z</time>
      </trkpt>
      <trkpt lat="43.93025" lon="3.65563">
        <ele>179.2</ele>
        <time>2019-07-10T13:51:47Z</time>
      </trkpt>
      <trkpt lat="43.93026" lon="3.65561">
        <ele>179.6</ele>
        <time>2019-07-10T13:51:48Z</time>
      </trkpt>
      <trkpt lat="43.93029" lon="3.65557">
        <ele>180.2</ele>
        <time>2019-07-10T13:51:50Z</time>
      </trkpt>
      <trkpt lat="43.93036" lon="3.65548">
        <ele>181.6</ele>
        <time>2019-07-10T13:51:55Z</time>
      </trkpt>
      <trkpt lat="43.93039" lon="3.65545">
        <ele>181.8</ele>
        <time>2019-07-10T13:51:57Z</time>
      </trkpt>
      <trkpt lat="43.93041" lon="3.65544">
        <ele>182.2</ele>
        <time>2019-07-10T13:51:58Z</time>
      </trkpt>
      <trkpt lat="43.93047" lon="3.65539">
        <ele>183</ele>
        <time>2019-07-10T13:52:02Z</time>
      </trkpt>
      <trkpt lat="43.9305" lon="3.65536">
        <ele>183.2</ele>
        <time>2019-07-10T13:52:04Z</time>
      </trkpt>
      <trkpt lat="43.93052" lon="3.65534">
        <ele>183.4</ele>
        <time>2019-07-10T13:52:05Z</time>
      </trkpt>
      <trkpt lat="43.93057" lon="3.6553">
        <ele>183.8</ele>
        <time>2019-07-10T13:52:08Z</time>
      </trkpt>
      <trkpt lat="43.93065" lon="3.65521">
        <ele>184.8</ele>
        <time>2019-07-10T13:52:13Z</time>
      </trkpt>
      <trkpt lat="43.93069" lon="3.65514">
        <ele>185.2</ele>
        <time>2019-07-10T13:52:17Z</time>
      </trkpt>
      <trkpt lat="43.93075" lon="3.65508">
        <ele>186</ele>
        <time>2019-07-10T13:52:21Z</time>
      </trkpt>
      <trkpt lat="43.93082" lon="3.65499">
        <ele>187</ele>
        <time>2019-07-10T13:52:26Z</time>
      </trkpt>
      <trkpt lat="43.93087" lon="3.65492">
        <ele>187.6</ele>
        <time>2019-07-10T13:52:30Z</time>
      </trkpt>
      <trkpt lat="43.93091" lon="3.65487">
        <ele>187.8</ele>
        <time>2019-07-10T13:52:33Z</time>
      </trkpt>
      <trkpt lat="43.93093" lon="3.65483">
        <ele>188.2</ele>
        <time>2019-07-10T13:52:35Z</time>
      </trkpt>
      <trkpt lat="43.93097" lon="3.6548">
        <ele>188.6</ele>
        <time>2019-07-10T13:52:37Z</time>
      </trkpt>
      <trkpt lat="43.93098" lon="3.65478">
        <ele>188.6</ele>
        <time>2019-07-10T13:52:38Z</time>
      </trkpt>
      <trkpt lat="43.93104" lon="3.65469">
        <ele>189.4</ele>
        <time>2019-07-10T13:52:43Z</time>
      </trkpt>
      <trkpt lat="43.93106" lon="3.65465">
        <ele>189.6</ele>
        <time>2019-07-10T13:52:45Z</time>
      </trkpt>
      <trkpt lat="43.93116" lon="3.65449">
        <ele>190.6</ele>
        <time>2019-07-10T13:52:52Z</time>
      </trkpt>
      <trkpt lat="43.9312" lon="3.65444">
        <ele>191.2</ele>
        <time>2019-07-10T13:52:55Z</time>
      </trkpt>
      <trkpt lat="43.93127" lon="3.65433">
        <ele>192</ele>
        <time>2019-07-10T13:53:00Z</time>
      </trkpt>
      <trkpt lat="43.93133" lon="3.65425">
        <ele>192.6</ele>
        <time>2019-07-10T13:53:04Z</time>
      </trkpt>
      <trkpt lat="43.9314" lon="3.65415">
        <ele>193.2</ele>
        <time>2019-07-10T13:53:09Z</time>
      </trkpt>
      <trkpt lat="43.93144" lon="3.65409">
        <ele>193.4</ele>
        <time>2019-07-10T13:53:12Z</time>
      </trkpt>
      <trkpt lat="43.93151" lon="3.654">
        <ele>194.6</ele>
        <time>2019-07-10T13:53:17Z</time>
      </trkpt>
      <trkpt lat="43.93153" lon="3.65396">
        <ele>194.8</ele>
        <time>2019-07-10T13:53:19Z</time>
      </trkpt>
      <trkpt lat="43.93164" lon="3.6538">
        <ele>196.2</ele>
        <time>2019-07-10T13:53:27Z</time>
      </trkpt>
      <trkpt lat="43.93165" lon="3.65378">
        <ele>196.4</ele>
        <time>2019-07-10T13:53:28Z</time>
      </trkpt>
      <trkpt lat="43.93172" lon="3.65368">
        <ele>196.6</ele>
        <time>2019-07-10T13:53:33Z</time>
      </trkpt>
      <trkpt lat="43.93179" lon="3.6536">
        <ele>197.4</ele>
        <time>2019-07-10T13:53:37Z</time>
      </trkpt>
      <trkpt lat="43.93183" lon="3.65353">
        <ele>197.6</ele>
        <time>2019-07-10T13:53:40Z</time>
      </trkpt>
      <trkpt lat="43.93192" lon="3.6534">
        <ele>198.4</ele>
        <time>2019-07-10T13:53:46Z</time>
      </trkpt>
      <trkpt lat="43.93197" lon="3.65333">
        <ele>198.8</ele>
        <time>2019-07-10T13:53:49Z</time>
      </trkpt>
      <trkpt lat="43.932" lon="3.65329">
        <ele>198.8</ele>
        <time>2019-07-10T13:53:51Z</time>
      </trkpt>
      <trkpt lat="43.93211" lon="3.65314">
        <ele>200.2</ele>
        <time>2019-07-10T13:53:57Z</time>
      </trkpt>
      <trkpt lat="43.93214" lon="3.65308">
        <ele>200.4</ele>
        <time>2019-07-10T13:53:59Z</time>
      </trkpt>
      <trkpt lat="43.93224" lon="3.65293">
        <ele>201</ele>
        <time>2019-07-10T13:54:05Z</time>
      </trkpt>
      <trkpt lat="43.93226" lon="3.6529">
        <ele>201.2</ele>
        <time>2019-07-10T13:54:06Z</time>
      </trkpt>
      <trkpt lat="43.93228" lon="3.65287">
        <ele>201.4</ele>
        <time>2019-07-10T13:54:07Z</time>
      </trkpt>
      <trkpt lat="43.93232" lon="3.65279">
        <ele>201.4</ele>
        <time>2019-07-10T13:54:09Z</time>
      </trkpt>
      <trkpt lat="43.93233" lon="3.65276">
        <ele>201.4</ele>
        <time>2019-07-10T13:54:10Z</time>
      </trkpt>
      <trkpt lat="43.93235" lon="3.65273">
        <ele>201.4</ele>
        <time>2019-07-10T13:54:11Z</time>
      </trkpt>
      <trkpt lat="43.9324" lon="3.65265">
        <ele>201.2</ele>
        <time>2019-07-10T13:54:13Z</time>
      </trkpt>
      <trkpt lat="43.93242" lon="3.65261">
        <ele>201.2</ele>
        <time>2019-07-10T13:54:14Z</time>
      </trkpt>
      <trkpt lat="43.93247" lon="3.65252">
        <ele>201.2</ele>
        <time>2019-07-10T13:54:16Z</time>
      </trkpt>
      <trkpt lat="43.9325" lon="3.65247">
        <ele>201</ele>
        <time>2019-07-10T13:54:17Z</time>
      </trkpt>
      <trkpt lat="43.93253" lon="3.65242">
        <ele>200.8</ele>
        <time>2019-07-10T13:54:18Z</time>
      </trkpt>
      <trkpt lat="43.93256" lon="3.65236">
        <ele>200.6</ele>
        <time>2019-07-10T13:54:19Z</time>
      </trkpt>
      <trkpt lat="43.9326" lon="3.65231">
        <ele>200.6</ele>
        <time>2019-07-10T13:54:20Z</time>
      </trkpt>
      <trkpt lat="43.93264" lon="3.65226">
        <ele>200.4</ele>
        <time>2019-07-10T13:54:21Z</time>
      </trkpt>
      <trkpt lat="43.93275" lon="3.65215">
        <ele>200</ele>
        <time>2019-07-10T13:54:23Z</time>
      </trkpt>
      <trkpt lat="43.93305" lon="3.65194">
        <ele>197.8</ele>
        <time>2019-07-10T13:54:27Z</time>
      </trkpt>
      <trkpt lat="43.93313" lon="3.65188">
        <ele>197</ele>
        <time>2019-07-10T13:54:28Z</time>
      </trkpt>
      <trkpt lat="43.93321" lon="3.65182">
        <ele>196.8</ele>
        <time>2019-07-10T13:54:29Z</time>
      </trkpt>
      <trkpt lat="43.93339" lon="3.65169">
        <ele>196.4</ele>
        <time>2019-07-10T13:54:31Z</time>
      </trkpt>
      <trkpt lat="43.93347" lon="3.65161">
        <ele>196.2</ele>
        <time>2019-07-10T13:54:32Z</time>
      </trkpt>
      <trkpt lat="43.93356" lon="3.65153">
        <ele>195.8</ele>
        <time>2019-07-10T13:54:33Z</time>
      </trkpt>
      <trkpt lat="43.93363" lon="3.65144">
        <ele>195.6</ele>
        <time>2019-07-10T13:54:34Z</time>
      </trkpt>
      <trkpt lat="43.93376" lon="3.65124">
        <ele>194.8</ele>
        <time>2019-07-10T13:54:36Z</time>
      </trkpt>
      <trkpt lat="43.93389" lon="3.65095">
        <ele>193.6</ele>
        <time>2019-07-10T13:54:39Z</time>
      </trkpt>
      <trkpt lat="43.93392" lon="3.65086">
        <ele>193.2</ele>
        <time>2019-07-10T13:54:40Z</time>
      </trkpt>
      <trkpt lat="43.93403" lon="3.65053">
        <ele>192.4</ele>
        <time>2019-07-10T13:54:44Z</time>
      </trkpt>
      <trkpt lat="43.93405" lon="3.65046">
        <ele>192.2</ele>
        <time>2019-07-10T13:54:45Z</time>
      </trkpt>
      <trkpt lat="43.93407" lon="3.6504">
        <ele>192.4</ele>
        <time>2019-07-10T13:54:46Z</time>
      </trkpt>
      <trkpt lat="43.93408" lon="3.65035">
        <ele>192.2</ele>
        <time>2019-07-10T13:54:47Z</time>
      </trkpt>
      <trkpt lat="43.9341" lon="3.6503">
        <ele>192.4</ele>
        <time>2019-07-10T13:54:48Z</time>
      </trkpt>
      <trkpt lat="43.93414" lon="3.65014">
        <ele>192.4</ele>
        <time>2019-07-10T13:54:51Z</time>
      </trkpt>
      <trkpt lat="43.93415" lon="3.65009">
        <ele>192.6</ele>
        <time>2019-07-10T13:54:52Z</time>
      </trkpt>
      <trkpt lat="43.93416" lon="3.64997">
        <ele>192.6</ele>
        <time>2019-07-10T13:54:54Z</time>
      </trkpt>
      <trkpt lat="43.93416" lon="3.64992">
        <ele>192.8</ele>
        <time>2019-07-10T13:54:55Z</time>
      </trkpt>
      <trkpt lat="43.93416" lon="3.64983">
        <ele>193</ele>
        <time>2019-07-10T13:54:57Z</time>
      </trkpt>
      <trkpt lat="43.93414" lon="3.64963">
        <ele>193.6</ele>
        <time>2019-07-10T13:55:02Z</time>
      </trkpt>
      <trkpt lat="43.93413" lon="3.64942">
        <ele>193.6</ele>
        <time>2019-07-10T13:55:08Z</time>
      </trkpt>
      <trkpt lat="43.93414" lon="3.64913">
        <ele>194</ele>
        <time>2019-07-10T13:55:15Z</time>
      </trkpt>
      <trkpt lat="43.93414" lon="3.6491">
        <ele>194</ele>
        <time>2019-07-10T13:55:16Z</time>
      </trkpt>
      <trkpt lat="43.93416" lon="3.6487">
        <ele>195.2</ele>
        <time>2019-07-10T13:55:26Z</time>
      </trkpt>
      <trkpt lat="43.93416" lon="3.64862">
        <ele>195.4</ele>
        <time>2019-07-10T13:55:28Z</time>
      </trkpt>
      <trkpt lat="43.9342" lon="3.64829">
        <ele>196.2</ele>
        <time>2019-07-10T13:55:37Z</time>
      </trkpt>
      <trkpt lat="43.93422" lon="3.64817">
        <ele>196.6</ele>
        <time>2019-07-10T13:55:40Z</time>
      </trkpt>
      <trkpt lat="43.93426" lon="3.64789">
        <ele>197.4</ele>
        <time>2019-07-10T13:55:47Z</time>
      </trkpt>
      <trkpt lat="43.93431" lon="3.64748">
        <ele>198</ele>
        <time>2019-07-10T13:55:56Z</time>
      </trkpt>
      <trkpt lat="43.93432" lon="3.64728">
        <ele>198.2</ele>
        <time>2019-07-10T13:56:00Z</time>
      </trkpt>
      <trkpt lat="43.93433" lon="3.64707">
        <ele>198.6</ele>
        <time>2019-07-10T13:56:04Z</time>
      </trkpt>
      <trkpt lat="43.93433" lon="3.64696">
        <ele>198.4</ele>
        <time>2019-07-10T13:56:06Z</time>
      </trkpt>
      <trkpt lat="43.93434" lon="3.64668">
        <ele>198.8</ele>
        <time>2019-07-10T13:56:11Z</time>
      </trkpt>
      <trkpt lat="43.93434" lon="3.64656">
        <ele>198.8</ele>
        <time>2019-07-10T13:56:13Z</time>
      </trkpt>
      <trkpt lat="43.93434" lon="3.64645">
        <ele>199</ele>
        <time>2019-07-10T13:56:15Z</time>
      </trkpt>
      <trkpt lat="43.93433" lon="3.64629">
        <ele>199.2</ele>
        <time>2019-07-10T13:56:18Z</time>
      </trkpt>
      <trkpt lat="43.93433" lon="3.64608">
        <ele>199</ele>
        <time>2019-07-10T13:56:22Z</time>
      </trkpt>
      <trkpt lat="43.93438" lon="3.64575">
        <ele>199</ele>
        <time>2019-07-10T13:56:28Z</time>
      </trkpt>
      <trkpt lat="43.93451" lon="3.64557">
        <ele>199</ele>
        <time>2019-07-10T13:56:33Z</time>
      </trkpt>
      <trkpt lat="43.93454" lon="3.64554">
        <ele>199</ele>
        <time>2019-07-10T13:56:34Z</time>
      </trkpt>
      <trkpt lat="43.93467" lon="3.64544">
        <ele>199.4</ele>
        <time>2019-07-10T13:56:39Z</time>
      </trkpt>
      <trkpt lat="43.93473" lon="3.64544">
        <ele>199.6</ele>
        <time>2019-07-10T13:56:41Z</time>
      </trkpt>
      <trkpt lat="43.93478" lon="3.64547">
        <ele>199.8</ele>
        <time>2019-07-10T13:56:43Z</time>
      </trkpt>
      <trkpt lat="43.93486" lon="3.6456">
        <ele>200.4</ele>
        <time>2019-07-10T13:56:47Z</time>
      </trkpt>
      <trkpt lat="43.93487" lon="3.64564">
        <ele>200.4</ele>
        <time>2019-07-10T13:56:48Z</time>
      </trkpt>
      <trkpt lat="43.9349" lon="3.64585">
        <ele>201.6</ele>
        <time>2019-07-10T13:56:54Z</time>
      </trkpt>
      <trkpt lat="43.93493" lon="3.64596">
        <ele>201.8</ele>
        <time>2019-07-10T13:56:57Z</time>
      </trkpt>
      <trkpt lat="43.93494" lon="3.646">
        <ele>201.8</ele>
        <time>2019-07-10T13:56:58Z</time>
      </trkpt>
      <trkpt lat="43.93495" lon="3.64603">
        <ele>201.8</ele>
        <time>2019-07-10T13:56:59Z</time>
      </trkpt>
      <trkpt lat="43.93496" lon="3.64609">
        <ele>201.8</ele>
        <time>2019-07-10T13:57:01Z</time>
      </trkpt>
      <trkpt lat="43.93498" lon="3.64622">
        <ele>202.4</ele>
        <time>2019-07-10T13:57:05Z</time>
      </trkpt>
      <trkpt lat="43.93499" lon="3.64633">
        <ele>203</ele>
        <time>2019-07-10T13:57:08Z</time>
      </trkpt>
      <trkpt lat="43.93501" lon="3.6465">
        <ele>203.4</ele>
        <time>2019-07-10T13:57:13Z</time>
      </trkpt>
      <trkpt lat="43.93502" lon="3.6466">
        <ele>203.8</ele>
        <time>2019-07-10T13:57:16Z</time>
      </trkpt>
      <trkpt lat="43.93502" lon="3.64667">
        <ele>204.2</ele>
        <time>2019-07-10T13:57:18Z</time>
      </trkpt>
      <trkpt lat="43.93502" lon="3.6467">
        <ele>204.2</ele>
        <time>2019-07-10T13:57:19Z</time>
      </trkpt>
      <trkpt lat="43.93504" lon="3.6468">
        <ele>204.6</ele>
        <time>2019-07-10T13:57:22Z</time>
      </trkpt>
      <trkpt lat="43.93504" lon="3.64712">
        <ele>205.6</ele>
        <time>2019-07-10T13:57:31Z</time>
      </trkpt>
      <trkpt lat="43.93505" lon="3.64716">
        <ele>205.6</ele>
        <time>2019-07-10T13:57:32Z</time>
      </trkpt>
      <trkpt lat="43.93501" lon="3.64738">
        <ele>206.6</ele>
        <time>2019-07-10T13:57:38Z</time>
      </trkpt>
      <trkpt lat="43.93498" lon="3.64762">
        <ele>207.4</ele>
        <time>2019-07-10T13:57:45Z</time>
      </trkpt>
      <trkpt lat="43.93499" lon="3.6477">
        <ele>207.8</ele>
        <time>2019-07-10T13:57:47Z</time>
      </trkpt>
      <trkpt lat="43.93502" lon="3.64787">
        <ele>208.2</ele>
        <time>2019-07-10T13:57:52Z</time>
      </trkpt>
      <trkpt lat="43.93503" lon="3.64793">
        <ele>208.4</ele>
        <time>2019-07-10T13:57:54Z</time>
      </trkpt>
      <trkpt lat="43.93504" lon="3.64797">
        <ele>208.6</ele>
        <time>2019-07-10T13:57:55Z</time>
      </trkpt>
      <trkpt lat="43.93505" lon="3.64801">
        <ele>208.6</ele>
        <time>2019-07-10T13:57:56Z</time>
      </trkpt>
      <trkpt lat="43.93507" lon="3.6481">
        <ele>209.2</ele>
        <time>2019-07-10T13:57:59Z</time>
      </trkpt>
      <trkpt lat="43.9351" lon="3.64821">
        <ele>209.6</ele>
        <time>2019-07-10T13:58:02Z</time>
      </trkpt>
      <trkpt lat="43.93513" lon="3.6483">
        <ele>210.2</ele>
        <time>2019-07-10T13:58:05Z</time>
      </trkpt>
      <trkpt lat="43.93518" lon="3.64845">
        <ele>211</ele>
        <time>2019-07-10T13:58:10Z</time>
      </trkpt>
      <trkpt lat="43.93519" lon="3.64853">
        <ele>211.4</ele>
        <time>2019-07-10T13:58:12Z</time>
      </trkpt>
      <trkpt lat="43.93522" lon="3.64865">
        <ele>211.8</ele>
        <time>2019-07-10T13:58:16Z</time>
      </trkpt>
      <trkpt lat="43.93523" lon="3.64871">
        <ele>212.6</ele>
        <time>2019-07-10T13:58:18Z</time>
      </trkpt>
      <trkpt lat="43.93525" lon="3.6488">
        <ele>213.2</ele>
        <time>2019-07-10T13:58:21Z</time>
      </trkpt>
      <trkpt lat="43.9353" lon="3.649">
        <ele>214.2</ele>
        <time>2019-07-10T13:58:27Z</time>
      </trkpt>
      <trkpt lat="43.93532" lon="3.64906">
        <ele>214.4</ele>
        <time>2019-07-10T13:58:29Z</time>
      </trkpt>
      <trkpt lat="43.93536" lon="3.64919">
        <ele>215</ele>
        <time>2019-07-10T13:58:33Z</time>
      </trkpt>
      <trkpt lat="43.93538" lon="3.64925">
        <ele>215.6</ele>
        <time>2019-07-10T13:58:35Z</time>
      </trkpt>
      <trkpt lat="43.93544" lon="3.64949">
        <ele>217</ele>
        <time>2019-07-10T13:58:43Z</time>
      </trkpt>
      <trkpt lat="43.93543" lon="3.6498">
        <ele>217.6</ele>
        <time>2019-07-10T13:58:53Z</time>
      </trkpt>
      <trkpt lat="43.93542" lon="3.64983">
        <ele>217.8</ele>
        <time>2019-07-10T13:58:54Z</time>
      </trkpt>
      <trkpt lat="43.93538" lon="3.65">
        <ele>218.4</ele>
        <time>2019-07-10T13:59:00Z</time>
      </trkpt>
      <trkpt lat="43.93536" lon="3.65009">
        <ele>219</ele>
        <time>2019-07-10T13:59:03Z</time>
      </trkpt>
      <trkpt lat="43.93533" lon="3.65027">
        <ele>220</ele>
        <time>2019-07-10T13:59:09Z</time>
      </trkpt>
      <trkpt lat="43.9353" lon="3.65039">
        <ele>220.4</ele>
        <time>2019-07-10T13:59:13Z</time>
      </trkpt>
      <trkpt lat="43.93524" lon="3.6506">
        <ele>221.2</ele>
        <time>2019-07-10T13:59:20Z</time>
      </trkpt>
      <trkpt lat="43.93521" lon="3.65073">
        <ele>221.4</ele>
        <time>2019-07-10T13:59:24Z</time>
      </trkpt>
      <trkpt lat="43.93518" lon="3.65091">
        <ele>222.4</ele>
        <time>2019-07-10T13:59:30Z</time>
      </trkpt>
      <trkpt lat="43.93516" lon="3.65096">
        <ele>222.6</ele>
        <time>2019-07-10T13:59:32Z</time>
      </trkpt>
      <trkpt lat="43.9351" lon="3.65116">
        <ele>223.2</ele>
        <time>2019-07-10T13:59:38Z</time>
      </trkpt>
      <trkpt lat="43.93507" lon="3.65121">
        <ele>223.6</ele>
        <time>2019-07-10T13:59:40Z</time>
      </trkpt>
      <trkpt lat="43.935" lon="3.65139">
        <ele>224.2</ele>
        <time>2019-07-10T13:59:46Z</time>
      </trkpt>
      <trkpt lat="43.93493" lon="3.65158">
        <ele>225.2</ele>
        <time>2019-07-10T13:59:53Z</time>
      </trkpt>
      <trkpt lat="43.93492" lon="3.65163">
        <ele>225.8</ele>
        <time>2019-07-10T13:59:55Z</time>
      </trkpt>
      <trkpt lat="43.93485" lon="3.65179">
        <ele>226.6</ele>
        <time>2019-07-10T14:00:01Z</time>
      </trkpt>
      <trkpt lat="43.93484" lon="3.65182">
        <ele>226.8</ele>
        <time>2019-07-10T14:00:02Z</time>
      </trkpt>
      <trkpt lat="43.93475" lon="3.652">
        <ele>227.4</ele>
        <time>2019-07-10T14:00:09Z</time>
      </trkpt>
      <trkpt lat="43.93474" lon="3.65203">
        <ele>227.6</ele>
        <time>2019-07-10T14:00:10Z</time>
      </trkpt>
      <trkpt lat="43.93463" lon="3.65221">
        <ele>228.4</ele>
        <time>2019-07-10T14:00:17Z</time>
      </trkpt>
      <trkpt lat="43.93458" lon="3.65229">
        <ele>229</ele>
        <time>2019-07-10T14:00:20Z</time>
      </trkpt>
      <trkpt lat="43.93453" lon="3.65243">
        <ele>229.6</ele>
        <time>2019-07-10T14:00:25Z</time>
      </trkpt>
      <trkpt lat="43.93447" lon="3.6526">
        <ele>230.6</ele>
        <time>2019-07-10T14:00:31Z</time>
      </trkpt>
      <trkpt lat="43.93446" lon="3.65276">
        <ele>231.2</ele>
        <time>2019-07-10T14:00:36Z</time>
      </trkpt>
      <trkpt lat="43.93445" lon="3.65282">
        <ele>231.2</ele>
        <time>2019-07-10T14:00:38Z</time>
      </trkpt>
      <trkpt lat="43.93441" lon="3.65308">
        <ele>232.2</ele>
        <time>2019-07-10T14:00:45Z</time>
      </trkpt>
      <trkpt lat="43.93441" lon="3.65311">
        <ele>232.2</ele>
        <time>2019-07-10T14:00:46Z</time>
      </trkpt>
      <trkpt lat="43.93442" lon="3.6533">
        <ele>233.2</ele>
        <time>2019-07-10T14:00:52Z</time>
      </trkpt>
      <trkpt lat="43.93447" lon="3.65337">
        <ele>233.8</ele>
        <time>2019-07-10T14:00:55Z</time>
      </trkpt>
      <trkpt lat="43.93452" lon="3.65339">
        <ele>234</ele>
        <time>2019-07-10T14:00:57Z</time>
      </trkpt>
      <trkpt lat="43.93468" lon="3.65338">
        <ele>234.6</ele>
        <time>2019-07-10T14:01:04Z</time>
      </trkpt>
      <trkpt lat="43.93479" lon="3.65334">
        <ele>235</ele>
        <time>2019-07-10T14:01:10Z</time>
      </trkpt>
      <trkpt lat="43.93499" lon="3.65334">
        <ele>236.2</ele>
        <time>2019-07-10T14:01:19Z</time>
      </trkpt>
      <trkpt lat="43.93501" lon="3.65334">
        <ele>236.2</ele>
        <time>2019-07-10T14:01:20Z</time>
      </trkpt>
      <trkpt lat="43.93513" lon="3.65336">
        <ele>237</ele>
        <time>2019-07-10T14:01:26Z</time>
      </trkpt>
      <trkpt lat="43.93524" lon="3.65338">
        <ele>237.6</ele>
        <time>2019-07-10T14:01:31Z</time>
      </trkpt>
      <trkpt lat="43.93528" lon="3.65339">
        <ele>237.8</ele>
        <time>2019-07-10T14:01:33Z</time>
      </trkpt>
      <trkpt lat="43.93536" lon="3.6534">
        <ele>238.2</ele>
        <time>2019-07-10T14:01:37Z</time>
      </trkpt>
      <trkpt lat="43.9355" lon="3.65343">
        <ele>239.4</ele>
        <time>2019-07-10T14:01:43Z</time>
      </trkpt>
      <trkpt lat="43.93564" lon="3.65344">
        <ele>240.4</ele>
        <time>2019-07-10T14:01:49Z</time>
      </trkpt>
      <trkpt lat="43.93572" lon="3.65343">
        <ele>241</ele>
        <time>2019-07-10T14:01:53Z</time>
      </trkpt>
      <trkpt lat="43.93581" lon="3.65342">
        <ele>241.6</ele>
        <time>2019-07-10T14:01:57Z</time>
      </trkpt>
      <trkpt lat="43.93596" lon="3.65338">
        <ele>242.4</ele>
        <time>2019-07-10T14:02:04Z</time>
      </trkpt>
      <trkpt lat="43.93598" lon="3.65337">
        <ele>242.4</ele>
        <time>2019-07-10T14:02:05Z</time>
      </trkpt>
      <trkpt lat="43.93607" lon="3.65332">
        <ele>243.2</ele>
        <time>2019-07-10T14:02:10Z</time>
      </trkpt>
      <trkpt lat="43.93609" lon="3.65332">
        <ele>243.4</ele>
        <time>2019-07-10T14:02:11Z</time>
      </trkpt>
      <trkpt lat="43.93624" lon="3.65326">
        <ele>244.4</ele>
        <time>2019-07-10T14:02:18Z</time>
      </trkpt>
      <trkpt lat="43.93628" lon="3.65324">
        <ele>244.6</ele>
        <time>2019-07-10T14:02:20Z</time>
      </trkpt>
      <trkpt lat="43.93637" lon="3.65322">
        <ele>245.2</ele>
        <time>2019-07-10T14:02:24Z</time>
      </trkpt>
      <trkpt lat="43.93655" lon="3.65315">
        <ele>246.2</ele>
        <time>2019-07-10T14:02:33Z</time>
      </trkpt>
      <trkpt lat="43.93657" lon="3.65314">
        <ele>246.4</ele>
        <time>2019-07-10T14:02:34Z</time>
      </trkpt>
      <trkpt lat="43.93659" lon="3.65313">
        <ele>246.6</ele>
        <time>2019-07-10T14:02:35Z</time>
      </trkpt>
      <trkpt lat="43.93672" lon="3.65309">
        <ele>247</ele>
        <time>2019-07-10T14:02:41Z</time>
      </trkpt>
      <trkpt lat="43.93673" lon="3.65309">
        <ele>247</ele>
        <time>2019-07-10T14:02:42Z</time>
      </trkpt>
      <trkpt lat="43.93689" lon="3.65299">
        <ele>248</ele>
        <time>2019-07-10T14:02:50Z</time>
      </trkpt>
      <trkpt lat="43.93693" lon="3.65296">
        <ele>248.4</ele>
        <time>2019-07-10T14:02:52Z</time>
      </trkpt>
      <trkpt lat="43.93697" lon="3.65287">
        <ele>249</ele>
        <time>2019-07-10T14:02:56Z</time>
      </trkpt>
      <trkpt lat="43.93703" lon="3.65268">
        <ele>250</ele>
        <time>2019-07-10T14:03:03Z</time>
      </trkpt>
      <trkpt lat="43.93706" lon="3.65249">
        <ele>250.8</ele>
        <time>2019-07-10T14:03:10Z</time>
      </trkpt>
      <trkpt lat="43.93708" lon="3.6523">
        <ele>251.4</ele>
        <time>2019-07-10T14:03:17Z</time>
      </trkpt>
      <trkpt lat="43.93712" lon="3.65208">
        <ele>252.2</ele>
        <time>2019-07-10T14:03:25Z</time>
      </trkpt>
      <trkpt lat="43.93717" lon="3.65195">
        <ele>252.8</ele>
        <time>2019-07-10T14:03:30Z</time>
      </trkpt>
      <trkpt lat="43.9372" lon="3.65187">
        <ele>253.2</ele>
        <time>2019-07-10T14:03:33Z</time>
      </trkpt>
      <trkpt lat="43.93724" lon="3.6518">
        <ele>253.4</ele>
        <time>2019-07-10T14:03:36Z</time>
      </trkpt>
      <trkpt lat="43.93729" lon="3.65172">
        <ele>254</ele>
        <time>2019-07-10T14:03:40Z</time>
      </trkpt>
      <trkpt lat="43.93731" lon="3.6517">
        <ele>254.2</ele>
        <time>2019-07-10T14:03:41Z</time>
      </trkpt>
      <trkpt lat="43.9374" lon="3.65158">
        <ele>255.4</ele>
        <time>2019-07-10T14:03:47Z</time>
      </trkpt>
      <trkpt lat="43.93748" lon="3.65146">
        <ele>255.8</ele>
        <time>2019-07-10T14:03:53Z</time>
      </trkpt>
      <trkpt lat="43.93753" lon="3.6514">
        <ele>256.4</ele>
        <time>2019-07-10T14:03:56Z</time>
      </trkpt>
      <trkpt lat="43.93759" lon="3.65124">
        <ele>257.4</ele>
        <time>2019-07-10T14:04:03Z</time>
      </trkpt>
      <trkpt lat="43.93763" lon="3.65106">
        <ele>258</ele>
        <time>2019-07-10T14:04:10Z</time>
      </trkpt>
      <trkpt lat="43.93765" lon="3.65085">
        <ele>258.8</ele>
        <time>2019-07-10T14:04:17Z</time>
      </trkpt>
      <trkpt lat="43.93764" lon="3.65061">
        <ele>259</ele>
        <time>2019-07-10T14:04:25Z</time>
      </trkpt>
      <trkpt lat="43.93763" lon="3.65049">
        <ele>259.4</ele>
        <time>2019-07-10T14:04:29Z</time>
      </trkpt>
      <trkpt lat="43.93761" lon="3.6504">
        <ele>259.6</ele>
        <time>2019-07-10T14:04:32Z</time>
      </trkpt>
      <trkpt lat="43.93758" lon="3.65022">
        <ele>260.6</ele>
        <time>2019-07-10T14:04:38Z</time>
      </trkpt>
      <trkpt lat="43.93758" lon="3.65019">
        <ele>260.6</ele>
        <time>2019-07-10T14:04:39Z</time>
      </trkpt>
      <trkpt lat="43.93757" lon="3.65011">
        <ele>261</ele>
        <time>2019-07-10T14:04:42Z</time>
      </trkpt>
      <trkpt lat="43.93756" lon="3.65002">
        <ele>261.2</ele>
        <time>2019-07-10T14:04:45Z</time>
      </trkpt>
      <trkpt lat="43.93755" lon="3.64994">
        <ele>261.6</ele>
        <time>2019-07-10T14:04:48Z</time>
      </trkpt>
      <trkpt lat="43.93753" lon="3.64975">
        <ele>262.6</ele>
        <time>2019-07-10T14:04:55Z</time>
      </trkpt>
      <trkpt lat="43.93753" lon="3.64972">
        <ele>262.8</ele>
        <time>2019-07-10T14:04:56Z</time>
      </trkpt>
      <trkpt lat="43.93749" lon="3.6495">
        <ele>264</ele>
        <time>2019-07-10T14:05:04Z</time>
      </trkpt>
      <trkpt lat="43.93748" lon="3.64941">
        <ele>264</ele>
        <time>2019-07-10T14:05:07Z</time>
      </trkpt>
      <trkpt lat="43.93745" lon="3.64923">
        <ele>264.8</ele>
        <time>2019-07-10T14:05:13Z</time>
      </trkpt>
      <trkpt lat="43.93743" lon="3.6491">
        <ele>265.4</ele>
        <time>2019-07-10T14:05:18Z</time>
      </trkpt>
      <trkpt lat="43.93741" lon="3.64904">
        <ele>265.6</ele>
        <time>2019-07-10T14:05:20Z</time>
      </trkpt>
      <trkpt lat="43.93735" lon="3.64883">
        <ele>266.4</ele>
        <time>2019-07-10T14:05:27Z</time>
      </trkpt>
      <trkpt lat="43.93726" lon="3.64863">
        <ele>267.4</ele>
        <time>2019-07-10T14:05:35Z</time>
      </trkpt>
      <trkpt lat="43.9372" lon="3.64851">
        <ele>268</ele>
        <time>2019-07-10T14:05:40Z</time>
      </trkpt>
      <trkpt lat="43.93718" lon="3.64845">
        <ele>268.6</ele>
        <time>2019-07-10T14:05:42Z</time>
      </trkpt>
      <trkpt lat="43.93715" lon="3.64841">
        <ele>268.6</ele>
        <time>2019-07-10T14:05:44Z</time>
      </trkpt>
      <trkpt lat="43.93708" lon="3.6483">
        <ele>269.4</ele>
        <time>2019-07-10T14:05:49Z</time>
      </trkpt>
      <trkpt lat="43.93697" lon="3.6481">
        <ele>270</ele>
        <time>2019-07-10T14:05:57Z</time>
      </trkpt>
      <trkpt lat="43.93691" lon="3.64799">
        <ele>270.6</ele>
        <time>2019-07-10T14:06:02Z</time>
      </trkpt>
      <trkpt lat="43.93688" lon="3.64795">
        <ele>270.8</ele>
        <time>2019-07-10T14:06:04Z</time>
      </trkpt>
      <trkpt lat="43.93683" lon="3.64783">
        <ele>271.2</ele>
        <time>2019-07-10T14:06:09Z</time>
      </trkpt>
      <trkpt lat="43.93679" lon="3.64775">
        <ele>271.6</ele>
        <time>2019-07-10T14:06:12Z</time>
      </trkpt>
      <trkpt lat="43.93673" lon="3.64766">
        <ele>272</ele>
        <time>2019-07-10T14:06:16Z</time>
      </trkpt>
      <trkpt lat="43.93666" lon="3.64752">
        <ele>273</ele>
        <time>2019-07-10T14:06:22Z</time>
      </trkpt>
      <trkpt lat="43.93661" lon="3.64742">
        <ele>273.2</ele>
        <time>2019-07-10T14:06:26Z</time>
      </trkpt>
      <trkpt lat="43.93655" lon="3.6473">
        <ele>273.8</ele>
        <time>2019-07-10T14:06:31Z</time>
      </trkpt>
      <trkpt lat="43.93654" lon="3.64727">
        <ele>274</ele>
        <time>2019-07-10T14:06:32Z</time>
      </trkpt>
      <trkpt lat="43.93653" lon="3.64725">
        <ele>274</ele>
        <time>2019-07-10T14:06:33Z</time>
      </trkpt>
      <trkpt lat="43.93649" lon="3.64715">
        <ele>274.6</ele>
        <time>2019-07-10T14:06:37Z</time>
      </trkpt>
      <trkpt lat="43.93648" lon="3.64712">
        <ele>275</ele>
        <time>2019-07-10T14:06:38Z</time>
      </trkpt>
      <trkpt lat="43.93643" lon="3.64696">
        <ele>276.2</ele>
        <time>2019-07-10T14:06:44Z</time>
      </trkpt>
      <trkpt lat="43.93642" lon="3.64687">
        <ele>276.8</ele>
        <time>2019-07-10T14:06:47Z</time>
      </trkpt>
      <trkpt lat="43.9364" lon="3.64667">
        <ele>277.6</ele>
        <time>2019-07-10T14:06:54Z</time>
      </trkpt>
      <trkpt lat="43.9364" lon="3.64664">
        <ele>277.4</ele>
        <time>2019-07-10T14:06:55Z</time>
      </trkpt>
      <trkpt lat="43.93639" lon="3.64641">
        <ele>278.6</ele>
        <time>2019-07-10T14:07:03Z</time>
      </trkpt>
      <trkpt lat="43.93638" lon="3.64629">
        <ele>279</ele>
        <time>2019-07-10T14:07:07Z</time>
      </trkpt>
      <trkpt lat="43.93637" lon="3.6462">
        <ele>279.4</ele>
        <time>2019-07-10T14:07:10Z</time>
      </trkpt>
      <trkpt lat="43.93636" lon="3.64598">
        <ele>280.2</ele>
        <time>2019-07-10T14:07:17Z</time>
      </trkpt>
      <trkpt lat="43.93635" lon="3.64593">
        <ele>280.4</ele>
        <time>2019-07-10T14:07:19Z</time>
      </trkpt>
      <trkpt lat="43.9363" lon="3.6457">
        <ele>281.4</ele>
        <time>2019-07-10T14:07:27Z</time>
      </trkpt>
      <trkpt lat="43.93628" lon="3.64564">
        <ele>281.4</ele>
        <time>2019-07-10T14:07:29Z</time>
      </trkpt>
      <trkpt lat="43.93624" lon="3.64548">
        <ele>282.2</ele>
        <time>2019-07-10T14:07:35Z</time>
      </trkpt>
      <trkpt lat="43.93622" lon="3.64539">
        <ele>282.6</ele>
        <time>2019-07-10T14:07:38Z</time>
      </trkpt>
      <trkpt lat="43.93621" lon="3.64533">
        <ele>282.6</ele>
        <time>2019-07-10T14:07:40Z</time>
      </trkpt>
      <trkpt lat="43.9362" lon="3.64527">
        <ele>282.8</ele>
        <time>2019-07-10T14:07:42Z</time>
      </trkpt>
      <trkpt lat="43.93617" lon="3.6451">
        <ele>283.4</ele>
        <time>2019-07-10T14:07:48Z</time>
      </trkpt>
      <trkpt lat="43.93609" lon="3.64482">
        <ele>284.2</ele>
        <time>2019-07-10T14:07:57Z</time>
      </trkpt>
      <trkpt lat="43.93609" lon="3.64479">
        <ele>284.2</ele>
        <time>2019-07-10T14:07:58Z</time>
      </trkpt>
      <trkpt lat="43.93606" lon="3.64466">
        <ele>284.6</ele>
        <time>2019-07-10T14:08:02Z</time>
      </trkpt>
      <trkpt lat="43.93606" lon="3.6446">
        <ele>284.8</ele>
        <time>2019-07-10T14:08:04Z</time>
      </trkpt>
      <trkpt lat="43.93605" lon="3.64442">
        <ele>285.4</ele>
        <time>2019-07-10T14:08:10Z</time>
      </trkpt>
      <trkpt lat="43.93605" lon="3.64436">
        <ele>285.8</ele>
        <time>2019-07-10T14:08:12Z</time>
      </trkpt>
      <trkpt lat="43.93605" lon="3.64417">
        <ele>286.4</ele>
        <time>2019-07-10T14:08:19Z</time>
      </trkpt>
      <trkpt lat="43.93605" lon="3.64411">
        <ele>286.6</ele>
        <time>2019-07-10T14:08:21Z</time>
      </trkpt>
      <trkpt lat="43.93606" lon="3.644">
        <ele>287.2</ele>
        <time>2019-07-10T14:08:25Z</time>
      </trkpt>
      <trkpt lat="43.93607" lon="3.64392">
        <ele>287.8</ele>
        <time>2019-07-10T14:08:28Z</time>
      </trkpt>
      <trkpt lat="43.93609" lon="3.64382">
        <ele>288.6</ele>
        <time>2019-07-10T14:08:32Z</time>
      </trkpt>
      <trkpt lat="43.93611" lon="3.64371">
        <ele>289.2</ele>
        <time>2019-07-10T14:08:37Z</time>
      </trkpt>
      <trkpt lat="43.93613" lon="3.64362">
        <ele>289.6</ele>
        <time>2019-07-10T14:08:41Z</time>
      </trkpt>
      <trkpt lat="43.93613" lon="3.64357">
        <ele>290</ele>
        <time>2019-07-10T14:08:43Z</time>
      </trkpt>
      <trkpt lat="43.93615" lon="3.64351">
        <ele>290.6</ele>
        <time>2019-07-10T14:08:46Z</time>
      </trkpt>
      <trkpt lat="43.93615" lon="3.64348">
        <ele>290.6</ele>
        <time>2019-07-10T14:08:47Z</time>
      </trkpt>
      <trkpt lat="43.93618" lon="3.64334">
        <ele>291.4</ele>
        <time>2019-07-10T14:08:53Z</time>
      </trkpt>
      <trkpt lat="43.93618" lon="3.64332">
        <ele>291.8</ele>
        <time>2019-07-10T14:08:54Z</time>
      </trkpt>
      <trkpt lat="43.93621" lon="3.64317">
        <ele>292.6</ele>
        <time>2019-07-10T14:09:00Z</time>
      </trkpt>
      <trkpt lat="43.93621" lon="3.64311">
        <ele>293</ele>
        <time>2019-07-10T14:09:02Z</time>
      </trkpt>
      <trkpt lat="43.93624" lon="3.64295">
        <ele>293.6</ele>
        <time>2019-07-10T14:09:09Z</time>
      </trkpt>
      <trkpt lat="43.93625" lon="3.64278">
        <ele>294.8</ele>
        <time>2019-07-10T14:09:16Z</time>
      </trkpt>
      <trkpt lat="43.93626" lon="3.64267">
        <ele>295.6</ele>
        <time>2019-07-10T14:09:21Z</time>
      </trkpt>
      <trkpt lat="43.93626" lon="3.64263">
        <ele>296</ele>
        <time>2019-07-10T14:09:23Z</time>
      </trkpt>
      <trkpt lat="43.93627" lon="3.6426">
        <ele>296.2</ele>
        <time>2019-07-10T14:09:24Z</time>
      </trkpt>
      <trkpt lat="43.93628" lon="3.64252">
        <ele>296.4</ele>
        <time>2019-07-10T14:09:27Z</time>
      </trkpt>
      <trkpt lat="43.93627" lon="3.64247">
        <ele>296.8</ele>
        <time>2019-07-10T14:09:29Z</time>
      </trkpt>
      <trkpt lat="43.93627" lon="3.64234">
        <ele>297.6</ele>
        <time>2019-07-10T14:09:33Z</time>
      </trkpt>
      <trkpt lat="43.93626" lon="3.64224">
        <ele>298</ele>
        <time>2019-07-10T14:09:37Z</time>
      </trkpt>
      <trkpt lat="43.93626" lon="3.64215">
        <ele>298.6</ele>
        <time>2019-07-10T14:09:41Z</time>
      </trkpt>
      <trkpt lat="43.93627" lon="3.64213">
        <ele>298.6</ele>
        <time>2019-07-10T14:09:42Z</time>
      </trkpt>
      <trkpt lat="43.93627" lon="3.64206">
        <ele>299</ele>
        <time>2019-07-10T14:09:45Z</time>
      </trkpt>
      <trkpt lat="43.93627" lon="3.64204">
        <ele>299</ele>
        <time>2019-07-10T14:09:46Z</time>
      </trkpt>
      <trkpt lat="43.93627" lon="3.64199">
        <ele>299.2</ele>
        <time>2019-07-10T14:09:48Z</time>
      </trkpt>
      <trkpt lat="43.93627" lon="3.64195">
        <ele>299.6</ele>
        <time>2019-07-10T14:09:50Z</time>
      </trkpt>
      <trkpt lat="43.93627" lon="3.64191">
        <ele>300</ele>
        <time>2019-07-10T14:09:52Z</time>
      </trkpt>
      <trkpt lat="43.93627" lon="3.64189">
        <ele>300</ele>
        <time>2019-07-10T14:09:53Z</time>
      </trkpt>
      <trkpt lat="43.93627" lon="3.64187">
        <ele>300.2</ele>
        <time>2019-07-10T14:09:54Z</time>
      </trkpt>
      <trkpt lat="43.93627" lon="3.64182">
        <ele>300.6</ele>
        <time>2019-07-10T14:09:57Z</time>
      </trkpt>
      <trkpt lat="43.93626" lon="3.6418">
        <ele>300.8</ele>
        <time>2019-07-10T14:09:58Z</time>
      </trkpt>
      <trkpt lat="43.93625" lon="3.64177">
        <ele>301</ele>
        <time>2019-07-10T14:09:59Z</time>
      </trkpt>
      <trkpt lat="43.93621" lon="3.6417">
        <ele>301.6</ele>
        <time>2019-07-10T14:10:02Z</time>
      </trkpt>
      <trkpt lat="43.93618" lon="3.64165">
        <ele>302</ele>
        <time>2019-07-10T14:10:04Z</time>
      </trkpt>
      <trkpt lat="43.93613" lon="3.64157">
        <ele>302.8</ele>
        <time>2019-07-10T14:10:08Z</time>
      </trkpt>
      <trkpt lat="43.9361" lon="3.64153">
        <ele>303.2</ele>
        <time>2019-07-10T14:10:10Z</time>
      </trkpt>
      <trkpt lat="43.93605" lon="3.64146">
        <ele>303.8</ele>
        <time>2019-07-10T14:10:14Z</time>
      </trkpt>
      <trkpt lat="43.93603" lon="3.64143">
        <ele>304</ele>
        <time>2019-07-10T14:10:15Z</time>
      </trkpt>
      <trkpt lat="43.93601" lon="3.64142">
        <ele>304.2</ele>
        <time>2019-07-10T14:10:16Z</time>
      </trkpt>
      <trkpt lat="43.93596" lon="3.64134">
        <ele>304.8</ele>
        <time>2019-07-10T14:10:20Z</time>
      </trkpt>
      <trkpt lat="43.93593" lon="3.6413">
        <ele>305.4</ele>
        <time>2019-07-10T14:10:22Z</time>
      </trkpt>
      <trkpt lat="43.93587" lon="3.64119">
        <ele>306.2</ele>
        <time>2019-07-10T14:10:28Z</time>
      </trkpt>
      <trkpt lat="43.93585" lon="3.64115">
        <ele>306.4</ele>
        <time>2019-07-10T14:10:30Z</time>
      </trkpt>
      <trkpt lat="43.93579" lon="3.64103">
        <ele>307</ele>
        <time>2019-07-10T14:10:35Z</time>
      </trkpt>
      <trkpt lat="43.93574" lon="3.64094">
        <ele>307.6</ele>
        <time>2019-07-10T14:10:39Z</time>
      </trkpt>
      <trkpt lat="43.93572" lon="3.6409">
        <ele>308</ele>
        <time>2019-07-10T14:10:41Z</time>
      </trkpt>
      <trkpt lat="43.93568" lon="3.64084">
        <ele>308.2</ele>
        <time>2019-07-10T14:10:44Z</time>
      </trkpt>
      <trkpt lat="43.93567" lon="3.64082">
        <ele>308.2</ele>
        <time>2019-07-10T14:10:45Z</time>
      </trkpt>
      <trkpt lat="43.93563" lon="3.64074">
        <ele>308.8</ele>
        <time>2019-07-10T14:10:49Z</time>
      </trkpt>
      <trkpt lat="43.93562" lon="3.64072">
        <ele>308.8</ele>
        <time>2019-07-10T14:10:50Z</time>
      </trkpt>
      <trkpt lat="43.93555" lon="3.64061">
        <ele>309</ele>
        <time>2019-07-10T14:10:55Z</time>
      </trkpt>
      <trkpt lat="43.93551" lon="3.6405">
        <ele>309.6</ele>
        <time>2019-07-10T14:10:59Z</time>
      </trkpt>
      <trkpt lat="43.93549" lon="3.64043">
        <ele>309.8</ele>
        <time>2019-07-10T14:11:02Z</time>
      </trkpt>
      <trkpt lat="43.93545" lon="3.6403">
        <ele>310.8</ele>
        <time>2019-07-10T14:11:07Z</time>
      </trkpt>
      <trkpt lat="43.93544" lon="3.64028">
        <ele>310.8</ele>
        <time>2019-07-10T14:11:08Z</time>
      </trkpt>
      <trkpt lat="43.93539" lon="3.64008">
        <ele>311.8</ele>
        <time>2019-07-10T14:11:16Z</time>
      </trkpt>
      <trkpt lat="43.93538" lon="3.64006">
        <ele>312</ele>
        <time>2019-07-10T14:11:17Z</time>
      </trkpt>
      <trkpt lat="43.93538" lon="3.64003">
        <ele>312.2</ele>
        <time>2019-07-10T14:11:18Z</time>
      </trkpt>
      <trkpt lat="43.9354" lon="3.63996">
        <ele>312.6</ele>
        <time>2019-07-10T14:11:21Z</time>
      </trkpt>
      <trkpt lat="43.93549" lon="3.63982">
        <ele>313.6</ele>
        <time>2019-07-10T14:11:28Z</time>
      </trkpt>
      <trkpt lat="43.93551" lon="3.6398">
        <ele>313.6</ele>
        <time>2019-07-10T14:11:29Z</time>
      </trkpt>
      <trkpt lat="43.93558" lon="3.63975">
        <ele>314</ele>
        <time>2019-07-10T14:11:33Z</time>
      </trkpt>
      <trkpt lat="43.93558" lon="3.63973">
        <ele>314.2</ele>
        <time>2019-07-10T14:11:34Z</time>
      </trkpt>
      <trkpt lat="43.93559" lon="3.63971">
        <ele>314.2</ele>
        <time>2019-07-10T14:11:35Z</time>
      </trkpt>
      <trkpt lat="43.93557" lon="3.63962">
        <ele>315</ele>
        <time>2019-07-10T14:11:39Z</time>
      </trkpt>
      <trkpt lat="43.93556" lon="3.63959">
        <ele>315.4</ele>
        <time>2019-07-10T14:11:41Z</time>
      </trkpt>
      <trkpt lat="43.93554" lon="3.63953">
        <ele>315.8</ele>
        <time>2019-07-10T14:11:44Z</time>
      </trkpt>
      <trkpt lat="43.93553" lon="3.6395">
        <ele>316</ele>
        <time>2019-07-10T14:11:46Z</time>
      </trkpt>
      <trkpt lat="43.9355" lon="3.63946">
        <ele>317</ele>
        <time>2019-07-10T14:11:49Z</time>
      </trkpt>
      <trkpt lat="43.9355" lon="3.63945">
        <ele>317.4</ele>
        <time>2019-07-10T14:11:50Z</time>
      </trkpt>
      <trkpt lat="43.93549" lon="3.63943">
        <ele>317.6</ele>
        <time>2019-07-10T14:11:51Z</time>
      </trkpt>
      <trkpt lat="43.93549" lon="3.63941">
        <ele>317.8</ele>
        <time>2019-07-10T14:11:52Z</time>
      </trkpt>
      <trkpt lat="43.93549" lon="3.63939">
        <ele>318.2</ele>
        <time>2019-07-10T14:11:54Z</time>
      </trkpt>
      <trkpt lat="43.93548" lon="3.63937">
        <ele>318.2</ele>
        <time>2019-07-10T14:11:55Z</time>
      </trkpt>
      <trkpt lat="43.93545" lon="3.6393">
        <ele>319</ele>
        <time>2019-07-10T14:11:59Z</time>
      </trkpt>
      <trkpt lat="43.93542" lon="3.63923">
        <ele>319.6</ele>
        <time>2019-07-10T14:12:03Z</time>
      </trkpt>
      <trkpt lat="43.93541" lon="3.63919">
        <ele>320</ele>
        <time>2019-07-10T14:12:05Z</time>
      </trkpt>
      <trkpt lat="43.93541" lon="3.63917">
        <ele>320.2</ele>
        <time>2019-07-10T14:12:06Z</time>
      </trkpt>
      <trkpt lat="43.93541" lon="3.63914">
        <ele>320.4</ele>
        <time>2019-07-10T14:12:07Z</time>
      </trkpt>
      <trkpt lat="43.93541" lon="3.63909">
        <ele>320.8</ele>
        <time>2019-07-10T14:12:09Z</time>
      </trkpt>
      <trkpt lat="43.9354" lon="3.639">
        <ele>321.2</ele>
        <time>2019-07-10T14:12:13Z</time>
      </trkpt>
      <trkpt lat="43.9354" lon="3.63898">
        <ele>321.4</ele>
        <time>2019-07-10T14:12:14Z</time>
      </trkpt>
      <trkpt lat="43.93539" lon="3.63895">
        <ele>321.6</ele>
        <time>2019-07-10T14:12:15Z</time>
      </trkpt>
      <trkpt lat="43.93538" lon="3.63888">
        <ele>321.8</ele>
        <time>2019-07-10T14:12:18Z</time>
      </trkpt>
      <trkpt lat="43.93535" lon="3.63877">
        <ele>322.2</ele>
        <time>2019-07-10T14:12:22Z</time>
      </trkpt>
      <trkpt lat="43.93533" lon="3.63872">
        <ele>322.2</ele>
        <time>2019-07-10T14:12:24Z</time>
      </trkpt>
      <trkpt lat="43.93532" lon="3.63859">
        <ele>322.8</ele>
        <time>2019-07-10T14:12:29Z</time>
      </trkpt>
      <trkpt lat="43.93532" lon="3.63856">
        <ele>323</ele>
        <time>2019-07-10T14:12:30Z</time>
      </trkpt>
      <trkpt lat="43.93533" lon="3.63846">
        <ele>323.4</ele>
        <time>2019-07-10T14:12:34Z</time>
      </trkpt>
      <trkpt lat="43.93533" lon="3.63843">
        <ele>323.4</ele>
        <time>2019-07-10T14:12:35Z</time>
      </trkpt>
      <trkpt lat="43.93534" lon="3.63832">
        <ele>323.8</ele>
        <time>2019-07-10T14:12:39Z</time>
      </trkpt>
      <trkpt lat="43.93534" lon="3.6383">
        <ele>324</ele>
        <time>2019-07-10T14:12:40Z</time>
      </trkpt>
      <trkpt lat="43.93535" lon="3.63812">
        <ele>325.2</ele>
        <time>2019-07-10T14:12:47Z</time>
      </trkpt>
      <trkpt lat="43.93535" lon="3.63809">
        <ele>325.2</ele>
        <time>2019-07-10T14:12:48Z</time>
      </trkpt>
      <trkpt lat="43.93537" lon="3.63801">
        <ele>325.8</ele>
        <time>2019-07-10T14:12:51Z</time>
      </trkpt>
      <trkpt lat="43.93537" lon="3.63798">
        <ele>325.8</ele>
        <time>2019-07-10T14:12:52Z</time>
      </trkpt>
      <trkpt lat="43.93538" lon="3.63796">
        <ele>326</ele>
        <time>2019-07-10T14:12:53Z</time>
      </trkpt>
      <trkpt lat="43.93539" lon="3.6379">
        <ele>326.2</ele>
        <time>2019-07-10T14:12:55Z</time>
      </trkpt>
      <trkpt lat="43.93539" lon="3.63782">
        <ele>326.6</ele>
        <time>2019-07-10T14:12:58Z</time>
      </trkpt>
      <trkpt lat="43.93541" lon="3.63769">
        <ele>327.2</ele>
        <time>2019-07-10T14:13:03Z</time>
      </trkpt>
      <trkpt lat="43.93542" lon="3.63763">
        <ele>327.6</ele>
        <time>2019-07-10T14:13:06Z</time>
      </trkpt>
      <trkpt lat="43.93543" lon="3.63754">
        <ele>328.2</ele>
        <time>2019-07-10T14:13:10Z</time>
      </trkpt>
      <trkpt lat="43.93545" lon="3.63746">
        <ele>328.8</ele>
        <time>2019-07-10T14:13:13Z</time>
      </trkpt>
      <trkpt lat="43.93547" lon="3.63736">
        <ele>329.2</ele>
        <time>2019-07-10T14:13:17Z</time>
      </trkpt>
      <trkpt lat="43.93548" lon="3.63731">
        <ele>329.8</ele>
        <time>2019-07-10T14:13:19Z</time>
      </trkpt>
      <trkpt lat="43.9355" lon="3.63714">
        <ele>330.4</ele>
        <time>2019-07-10T14:13:25Z</time>
      </trkpt>
      <trkpt lat="43.93552" lon="3.63709">
        <ele>330.8</ele>
        <time>2019-07-10T14:13:27Z</time>
      </trkpt>
      <trkpt lat="43.93553" lon="3.63707">
        <ele>330.8</ele>
        <time>2019-07-10T14:13:28Z</time>
      </trkpt>
      <trkpt lat="43.93554" lon="3.63701">
        <ele>331.2</ele>
        <time>2019-07-10T14:13:30Z</time>
      </trkpt>
      <trkpt lat="43.93561" lon="3.63686">
        <ele>332.2</ele>
        <time>2019-07-10T14:13:37Z</time>
      </trkpt>
      <trkpt lat="43.93568" lon="3.63674">
        <ele>332.8</ele>
        <time>2019-07-10T14:13:43Z</time>
      </trkpt>
      <trkpt lat="43.93569" lon="3.63672">
        <ele>333</ele>
        <time>2019-07-10T14:13:44Z</time>
      </trkpt>
      <trkpt lat="43.93572" lon="3.63667">
        <ele>333.4</ele>
        <time>2019-07-10T14:13:47Z</time>
      </trkpt>
      <trkpt lat="43.93574" lon="3.63658">
        <ele>334.2</ele>
        <time>2019-07-10T14:13:51Z</time>
      </trkpt>
      <trkpt lat="43.93571" lon="3.63648">
        <ele>334.6</ele>
        <time>2019-07-10T14:13:55Z</time>
      </trkpt>
      <trkpt lat="43.93568" lon="3.63647">
        <ele>334.8</ele>
        <time>2019-07-10T14:13:57Z</time>
      </trkpt>
      <trkpt lat="43.93558" lon="3.63651">
        <ele>335.6</ele>
        <time>2019-07-10T14:14:03Z</time>
      </trkpt>
      <trkpt lat="43.93557" lon="3.63652">
        <ele>335.8</ele>
        <time>2019-07-10T14:14:04Z</time>
      </trkpt>
      <trkpt lat="43.93554" lon="3.63659">
        <ele>336.2</ele>
        <time>2019-07-10T14:14:07Z</time>
      </trkpt>
      <trkpt lat="43.93551" lon="3.63668">
        <ele>336.6</ele>
        <time>2019-07-10T14:14:11Z</time>
      </trkpt>
      <trkpt lat="43.93547" lon="3.63675">
        <ele>337.2</ele>
        <time>2019-07-10T14:14:14Z</time>
      </trkpt>
      <trkpt lat="43.93542" lon="3.63692">
        <ele>338</ele>
        <time>2019-07-10T14:14:21Z</time>
      </trkpt>
      <trkpt lat="43.93533" lon="3.63714">
        <ele>339.4</ele>
        <time>2019-07-10T14:14:30Z</time>
      </trkpt>
      <trkpt lat="43.93531" lon="3.63718">
        <ele>339.6</ele>
        <time>2019-07-10T14:14:32Z</time>
      </trkpt>
      <trkpt lat="43.93529" lon="3.63725">
        <ele>339.6</ele>
        <time>2019-07-10T14:14:35Z</time>
      </trkpt>
      <trkpt lat="43.93519" lon="3.63746">
        <ele>340.6</ele>
        <time>2019-07-10T14:14:44Z</time>
      </trkpt>
      <trkpt lat="43.93518" lon="3.63751">
        <ele>340.8</ele>
        <time>2019-07-10T14:14:46Z</time>
      </trkpt>
      <trkpt lat="43.93513" lon="3.63763">
        <ele>341.6</ele>
        <time>2019-07-10T14:14:51Z</time>
      </trkpt>
      <trkpt lat="43.93511" lon="3.63768">
        <ele>342</ele>
        <time>2019-07-10T14:14:53Z</time>
      </trkpt>
      <trkpt lat="43.93502" lon="3.6379">
        <ele>342.8</ele>
        <time>2019-07-10T14:15:02Z</time>
      </trkpt>
      <trkpt lat="43.93499" lon="3.63797">
        <ele>343</ele>
        <time>2019-07-10T14:15:05Z</time>
      </trkpt>
      <trkpt lat="43.93494" lon="3.6381">
        <ele>343.4</ele>
        <time>2019-07-10T14:15:10Z</time>
      </trkpt>
      <trkpt lat="43.93487" lon="3.63828">
        <ele>344.2</ele>
        <time>2019-07-10T14:15:18Z</time>
      </trkpt>
      <trkpt lat="43.93478" lon="3.63849">
        <ele>345.2</ele>
        <time>2019-07-10T14:15:27Z</time>
      </trkpt>
      <trkpt lat="43.93476" lon="3.63854">
        <ele>345.2</ele>
        <time>2019-07-10T14:15:29Z</time>
      </trkpt>
      <trkpt lat="43.93473" lon="3.63858">
        <ele>345.4</ele>
        <time>2019-07-10T14:15:31Z</time>
      </trkpt>
      <trkpt lat="43.93468" lon="3.6386">
        <ele>345.6</ele>
        <time>2019-07-10T14:15:34Z</time>
      </trkpt>
      <trkpt lat="43.93454" lon="3.6385">
        <ele>346.4</ele>
        <time>2019-07-10T14:15:42Z</time>
      </trkpt>
      <trkpt lat="43.93452" lon="3.63846">
        <ele>346.6</ele>
        <time>2019-07-10T14:15:44Z</time>
      </trkpt>
      <trkpt lat="43.9345" lon="3.63842">
        <ele>346.6</ele>
        <time>2019-07-10T14:15:46Z</time>
      </trkpt>
      <trkpt lat="43.93449" lon="3.63839">
        <ele>346.8</ele>
        <time>2019-07-10T14:15:47Z</time>
      </trkpt>
      <trkpt lat="43.93448" lon="3.63837">
        <ele>346.8</ele>
        <time>2019-07-10T14:15:48Z</time>
      </trkpt>
      <trkpt lat="43.93448" lon="3.63829">
        <ele>347.4</ele>
        <time>2019-07-10T14:15:52Z</time>
      </trkpt>
      <trkpt lat="43.93446" lon="3.63812">
        <ele>348</ele>
        <time>2019-07-10T14:16:00Z</time>
      </trkpt>
      <trkpt lat="43.93445" lon="3.63808">
        <ele>348.2</ele>
        <time>2019-07-10T14:16:02Z</time>
      </trkpt>
      <trkpt lat="43.93445" lon="3.63803">
        <ele>348.4</ele>
        <time>2019-07-10T14:16:04Z</time>
      </trkpt>
      <trkpt lat="43.93444" lon="3.63799">
        <ele>348.8</ele>
        <time>2019-07-10T14:16:06Z</time>
      </trkpt>
      <trkpt lat="43.93443" lon="3.63794">
        <ele>349</ele>
        <time>2019-07-10T14:16:08Z</time>
      </trkpt>
      <trkpt lat="43.93442" lon="3.63788">
        <ele>349</ele>
        <time>2019-07-10T14:16:10Z</time>
      </trkpt>
      <trkpt lat="43.93441" lon="3.63782">
        <ele>349.2</ele>
        <time>2019-07-10T14:16:12Z</time>
      </trkpt>
      <trkpt lat="43.9344" lon="3.63775">
        <ele>349.8</ele>
        <time>2019-07-10T14:16:15Z</time>
      </trkpt>
      <trkpt lat="43.9344" lon="3.6377">
        <ele>350</ele>
        <time>2019-07-10T14:16:17Z</time>
      </trkpt>
      <trkpt lat="43.9344" lon="3.63768">
        <ele>350.2</ele>
        <time>2019-07-10T14:16:18Z</time>
      </trkpt>
      <trkpt lat="43.93439" lon="3.63752">
        <ele>351</ele>
        <time>2019-07-10T14:16:24Z</time>
      </trkpt>
      <trkpt lat="43.93438" lon="3.63744">
        <ele>351.2</ele>
        <time>2019-07-10T14:16:28Z</time>
      </trkpt>
      <trkpt lat="43.93437" lon="3.63741">
        <ele>351.6</ele>
        <time>2019-07-10T14:16:29Z</time>
      </trkpt>
      <trkpt lat="43.93437" lon="3.63738">
        <ele>351.6</ele>
        <time>2019-07-10T14:16:30Z</time>
      </trkpt>
      <trkpt lat="43.93436" lon="3.63729">
        <ele>352</ele>
        <time>2019-07-10T14:16:33Z</time>
      </trkpt>
      <trkpt lat="43.93435" lon="3.63724">
        <ele>352.4</ele>
        <time>2019-07-10T14:16:35Z</time>
      </trkpt>
      <trkpt lat="43.93435" lon="3.63722">
        <ele>352.6</ele>
        <time>2019-07-10T14:16:36Z</time>
      </trkpt>
      <trkpt lat="43.93433" lon="3.63717">
        <ele>352.8</ele>
        <time>2019-07-10T14:16:38Z</time>
      </trkpt>
      <trkpt lat="43.93433" lon="3.63707">
        <ele>353.2</ele>
        <time>2019-07-10T14:16:42Z</time>
      </trkpt>
      <trkpt lat="43.93432" lon="3.63698">
        <ele>353.8</ele>
        <time>2019-07-10T14:16:46Z</time>
      </trkpt>
      <trkpt lat="43.93431" lon="3.63695">
        <ele>353.8</ele>
        <time>2019-07-10T14:16:47Z</time>
      </trkpt>
      <trkpt lat="43.93431" lon="3.63693">
        <ele>354</ele>
        <time>2019-07-10T14:16:48Z</time>
      </trkpt>
      <trkpt lat="43.93431" lon="3.63687">
        <ele>354.4</ele>
        <time>2019-07-10T14:16:50Z</time>
      </trkpt>
      <trkpt lat="43.93431" lon="3.63685">
        <ele>354.6</ele>
        <time>2019-07-10T14:16:51Z</time>
      </trkpt>
      <trkpt lat="43.93431" lon="3.63682">
        <ele>354.6</ele>
        <time>2019-07-10T14:16:52Z</time>
      </trkpt>
      <trkpt lat="43.93426" lon="3.63666">
        <ele>355</ele>
        <time>2019-07-10T14:16:57Z</time>
      </trkpt>
      <trkpt lat="43.93421" lon="3.63651">
        <ele>355.6</ele>
        <time>2019-07-10T14:17:02Z</time>
      </trkpt>
      <trkpt lat="43.93421" lon="3.63646">
        <ele>355.8</ele>
        <time>2019-07-10T14:17:04Z</time>
      </trkpt>
      <trkpt lat="43.93419" lon="3.63632">
        <ele>356.4</ele>
        <time>2019-07-10T14:17:09Z</time>
      </trkpt>
      <trkpt lat="43.93418" lon="3.63629">
        <ele>356.4</ele>
        <time>2019-07-10T14:17:10Z</time>
      </trkpt>
      <trkpt lat="43.93418" lon="3.63627">
        <ele>356.4</ele>
        <time>2019-07-10T14:17:11Z</time>
      </trkpt>
      <trkpt lat="43.93415" lon="3.6361">
        <ele>357.2</ele>
        <time>2019-07-10T14:17:17Z</time>
      </trkpt>
      <trkpt lat="43.93414" lon="3.636">
        <ele>357.8</ele>
        <time>2019-07-10T14:17:21Z</time>
      </trkpt>
      <trkpt lat="43.93414" lon="3.63593">
        <ele>358</ele>
        <time>2019-07-10T14:17:24Z</time>
      </trkpt>
      <trkpt lat="43.93413" lon="3.63581">
        <ele>358.8</ele>
        <time>2019-07-10T14:17:29Z</time>
      </trkpt>
      <trkpt lat="43.93413" lon="3.63576">
        <ele>359.4</ele>
        <time>2019-07-10T14:17:31Z</time>
      </trkpt>
      <trkpt lat="43.93414" lon="3.63571">
        <ele>359.4</ele>
        <time>2019-07-10T14:17:33Z</time>
      </trkpt>
      <trkpt lat="43.93413" lon="3.63564">
        <ele>359.6</ele>
        <time>2019-07-10T14:17:36Z</time>
      </trkpt>
      <trkpt lat="43.9341" lon="3.63554">
        <ele>360</ele>
        <time>2019-07-10T14:17:40Z</time>
      </trkpt>
      <trkpt lat="43.93408" lon="3.63547">
        <ele>360.4</ele>
        <time>2019-07-10T14:17:43Z</time>
      </trkpt>
      <trkpt lat="43.93408" lon="3.63543">
        <ele>360.6</ele>
        <time>2019-07-10T14:17:45Z</time>
      </trkpt>
      <trkpt lat="43.93407" lon="3.63539">
        <ele>361</ele>
        <time>2019-07-10T14:17:47Z</time>
      </trkpt>
      <trkpt lat="43.93405" lon="3.63538">
        <ele>361.4</ele>
        <time>2019-07-10T14:17:48Z</time>
      </trkpt>
      <trkpt lat="43.93399" lon="3.63528">
        <ele>362</ele>
        <time>2019-07-10T14:17:53Z</time>
      </trkpt>
      <trkpt lat="43.93397" lon="3.63525">
        <ele>362.2</ele>
        <time>2019-07-10T14:17:55Z</time>
      </trkpt>
      <trkpt lat="43.93388" lon="3.63515">
        <ele>363.4</ele>
        <time>2019-07-10T14:18:02Z</time>
      </trkpt>
      <trkpt lat="43.93384" lon="3.63509">
        <ele>363.8</ele>
        <time>2019-07-10T14:18:05Z</time>
      </trkpt>
      <trkpt lat="43.93379" lon="3.635">
        <ele>364</ele>
        <time>2019-07-10T14:18:09Z</time>
      </trkpt>
      <trkpt lat="43.93378" lon="3.63498">
        <ele>364.2</ele>
        <time>2019-07-10T14:18:10Z</time>
      </trkpt>
      <trkpt lat="43.93374" lon="3.63488">
        <ele>364.8</ele>
        <time>2019-07-10T14:18:15Z</time>
      </trkpt>
      <trkpt lat="43.93373" lon="3.63485">
        <ele>364.8</ele>
        <time>2019-07-10T14:18:16Z</time>
      </trkpt>
      <trkpt lat="43.93372" lon="3.63478">
        <ele>365.2</ele>
        <time>2019-07-10T14:18:19Z</time>
      </trkpt>
      <trkpt lat="43.93369" lon="3.63471">
        <ele>365.6</ele>
        <time>2019-07-10T14:18:22Z</time>
      </trkpt>
      <trkpt lat="43.93369" lon="3.63468">
        <ele>365.6</ele>
        <time>2019-07-10T14:18:23Z</time>
      </trkpt>
      <trkpt lat="43.93367" lon="3.63455">
        <ele>366.2</ele>
        <time>2019-07-10T14:18:28Z</time>
      </trkpt>
      <trkpt lat="43.93367" lon="3.63453">
        <ele>366</ele>
        <time>2019-07-10T14:18:29Z</time>
      </trkpt>
      <trkpt lat="43.93367" lon="3.63449">
        <ele>366.2</ele>
        <time>2019-07-10T14:18:31Z</time>
      </trkpt>
      <trkpt lat="43.93366" lon="3.63444">
        <ele>366.4</ele>
        <time>2019-07-10T14:18:33Z</time>
      </trkpt>
      <trkpt lat="43.93365" lon="3.63439">
        <ele>366.6</ele>
        <time>2019-07-10T14:18:35Z</time>
      </trkpt>
      <trkpt lat="43.93365" lon="3.63431">
        <ele>366.8</ele>
        <time>2019-07-10T14:18:38Z</time>
      </trkpt>
      <trkpt lat="43.93365" lon="3.63421">
        <ele>367.2</ele>
        <time>2019-07-10T14:18:42Z</time>
      </trkpt>
      <trkpt lat="43.93365" lon="3.63419">
        <ele>367.2</ele>
        <time>2019-07-10T14:18:43Z</time>
      </trkpt>
      <trkpt lat="43.93365" lon="3.63416">
        <ele>367.4</ele>
        <time>2019-07-10T14:18:44Z</time>
      </trkpt>
      <trkpt lat="43.93366" lon="3.63407">
        <ele>367.8</ele>
        <time>2019-07-10T14:18:48Z</time>
      </trkpt>
      <trkpt lat="43.93365" lon="3.63396">
        <ele>368.4</ele>
        <time>2019-07-10T14:18:52Z</time>
      </trkpt>
      <trkpt lat="43.93364" lon="3.63391">
        <ele>368.6</ele>
        <time>2019-07-10T14:18:54Z</time>
      </trkpt>
      <trkpt lat="43.93361" lon="3.63377">
        <ele>369.4</ele>
        <time>2019-07-10T14:18:59Z</time>
      </trkpt>
      <trkpt lat="43.9336" lon="3.6337">
        <ele>369.6</ele>
        <time>2019-07-10T14:19:02Z</time>
      </trkpt>
      <trkpt lat="43.93359" lon="3.63367">
        <ele>369.8</ele>
        <time>2019-07-10T14:19:03Z</time>
      </trkpt>
      <trkpt lat="43.93358" lon="3.6336">
        <ele>369.8</ele>
        <time>2019-07-10T14:19:06Z</time>
      </trkpt>
      <trkpt lat="43.93358" lon="3.63353">
        <ele>370.4</ele>
        <time>2019-07-10T14:19:09Z</time>
      </trkpt>
      <trkpt lat="43.93355" lon="3.63344">
        <ele>370.8</ele>
        <time>2019-07-10T14:19:12Z</time>
      </trkpt>
      <trkpt lat="43.93352" lon="3.63336">
        <ele>371</ele>
        <time>2019-07-10T14:19:15Z</time>
      </trkpt>
      <trkpt lat="43.93352" lon="3.63334">
        <ele>371.2</ele>
        <time>2019-07-10T14:19:16Z</time>
      </trkpt>
      <trkpt lat="43.93352" lon="3.63329">
        <ele>371.4</ele>
        <time>2019-07-10T14:19:18Z</time>
      </trkpt>
      <trkpt lat="43.93351" lon="3.63327">
        <ele>371.8</ele>
        <time>2019-07-10T14:19:19Z</time>
      </trkpt>
      <trkpt lat="43.9335" lon="3.63322">
        <ele>372</ele>
        <time>2019-07-10T14:19:21Z</time>
      </trkpt>
      <trkpt lat="43.93349" lon="3.63315">
        <ele>372.4</ele>
        <time>2019-07-10T14:19:24Z</time>
      </trkpt>
      <trkpt lat="43.93347" lon="3.63309">
        <ele>372.6</ele>
        <time>2019-07-10T14:19:27Z</time>
      </trkpt>
      <trkpt lat="43.93345" lon="3.63303">
        <ele>373</ele>
        <time>2019-07-10T14:19:30Z</time>
      </trkpt>
      <trkpt lat="43.93345" lon="3.633">
        <ele>373.2</ele>
        <time>2019-07-10T14:19:31Z</time>
      </trkpt>
      <trkpt lat="43.93342" lon="3.63294">
        <ele>373.6</ele>
        <time>2019-07-10T14:19:33Z</time>
      </trkpt>
      <trkpt lat="43.93342" lon="3.63291">
        <ele>373.6</ele>
        <time>2019-07-10T14:19:34Z</time>
      </trkpt>
      <trkpt lat="43.93341" lon="3.63286">
        <ele>374</ele>
        <time>2019-07-10T14:19:36Z</time>
      </trkpt>
      <trkpt lat="43.93338" lon="3.63274">
        <ele>374.4</ele>
        <time>2019-07-10T14:19:40Z</time>
      </trkpt>
      <trkpt lat="43.93338" lon="3.63272">
        <ele>374.6</ele>
        <time>2019-07-10T14:19:41Z</time>
      </trkpt>
      <trkpt lat="43.93337" lon="3.63269">
        <ele>374.6</ele>
        <time>2019-07-10T14:19:42Z</time>
      </trkpt>
      <trkpt lat="43.93337" lon="3.63263">
        <ele>375</ele>
        <time>2019-07-10T14:19:44Z</time>
      </trkpt>
      <trkpt lat="43.93337" lon="3.6326">
        <ele>375</ele>
        <time>2019-07-10T14:19:45Z</time>
      </trkpt>
      <trkpt lat="43.93334" lon="3.63242">
        <ele>375.6</ele>
        <time>2019-07-10T14:19:51Z</time>
      </trkpt>
      <trkpt lat="43.93333" lon="3.63229">
        <ele>376</ele>
        <time>2019-07-10T14:19:56Z</time>
      </trkpt>
      <trkpt lat="43.93333" lon="3.63226">
        <ele>376.4</ele>
        <time>2019-07-10T14:19:57Z</time>
      </trkpt>
      <trkpt lat="43.93334" lon="3.63208">
        <ele>377</ele>
        <time>2019-07-10T14:20:04Z</time>
      </trkpt>
      <trkpt lat="43.93335" lon="3.63205">
        <ele>377</ele>
        <time>2019-07-10T14:20:05Z</time>
      </trkpt>
      <trkpt lat="43.93337" lon="3.63197">
        <ele>377.6</ele>
        <time>2019-07-10T14:20:08Z</time>
      </trkpt>
      <trkpt lat="43.93339" lon="3.63195">
        <ele>377.6</ele>
        <time>2019-07-10T14:20:09Z</time>
      </trkpt>
      <trkpt lat="43.93343" lon="3.63187">
        <ele>378.4</ele>
        <time>2019-07-10T14:20:13Z</time>
      </trkpt>
      <trkpt lat="43.93347" lon="3.63181">
        <ele>378.8</ele>
        <time>2019-07-10T14:20:16Z</time>
      </trkpt>
      <trkpt lat="43.93352" lon="3.63174">
        <ele>379.2</ele>
        <time>2019-07-10T14:20:20Z</time>
      </trkpt>
      <trkpt lat="43.93358" lon="3.63167">
        <ele>379.8</ele>
        <time>2019-07-10T14:20:25Z</time>
      </trkpt>
      <trkpt lat="43.93359" lon="3.63165">
        <ele>380.2</ele>
        <time>2019-07-10T14:20:26Z</time>
      </trkpt>
      <trkpt lat="43.93366" lon="3.63158">
        <ele>380.8</ele>
        <time>2019-07-10T14:20:32Z</time>
      </trkpt>
      <trkpt lat="43.93373" lon="3.63152">
        <ele>381.4</ele>
        <time>2019-07-10T14:20:37Z</time>
      </trkpt>
      <trkpt lat="43.93376" lon="3.6315">
        <ele>381.8</ele>
        <time>2019-07-10T14:20:39Z</time>
      </trkpt>
      <trkpt lat="43.93376" lon="3.63148">
        <ele>382</ele>
        <time>2019-07-10T14:20:40Z</time>
      </trkpt>
      <trkpt lat="43.93379" lon="3.63143">
        <ele>382.2</ele>
        <time>2019-07-10T14:20:43Z</time>
      </trkpt>
      <trkpt lat="43.93381" lon="3.63142">
        <ele>382.4</ele>
        <time>2019-07-10T14:20:44Z</time>
      </trkpt>
      <trkpt lat="43.93382" lon="3.63141">
        <ele>382.6</ele>
        <time>2019-07-10T14:20:45Z</time>
      </trkpt>
      <trkpt lat="43.93386" lon="3.63138">
        <ele>382.6</ele>
        <time>2019-07-10T14:20:47Z</time>
      </trkpt>
      <trkpt lat="43.93391" lon="3.63132">
        <ele>383.4</ele>
        <time>2019-07-10T14:20:50Z</time>
      </trkpt>
      <trkpt lat="43.93397" lon="3.63125">
        <ele>383.8</ele>
        <time>2019-07-10T14:20:54Z</time>
      </trkpt>
      <trkpt lat="43.93401" lon="3.6312">
        <ele>384.2</ele>
        <time>2019-07-10T14:20:57Z</time>
      </trkpt>
      <trkpt lat="43.93411" lon="3.6311">
        <ele>385</ele>
        <time>2019-07-10T14:21:03Z</time>
      </trkpt>
      <trkpt lat="43.93413" lon="3.63108">
        <ele>385</ele>
        <time>2019-07-10T14:21:04Z</time>
      </trkpt>
      <trkpt lat="43.93417" lon="3.63103">
        <ele>385.6</ele>
        <time>2019-07-10T14:21:09Z</time>
      </trkpt>
      <trkpt lat="43.93419" lon="3.63102">
        <ele>385.6</ele>
        <time>2019-07-10T14:21:10Z</time>
      </trkpt>
      <trkpt lat="43.93421" lon="3.63099">
        <ele>385.8</ele>
        <time>2019-07-10T14:21:12Z</time>
      </trkpt>
      <trkpt lat="43.93422" lon="3.63095">
        <ele>386.4</ele>
        <time>2019-07-10T14:21:15Z</time>
      </trkpt>
      <trkpt lat="43.93424" lon="3.63089">
        <ele>386.8</ele>
        <time>2019-07-10T14:21:18Z</time>
      </trkpt>
      <trkpt lat="43.93424" lon="3.63085">
        <ele>387.4</ele>
        <time>2019-07-10T14:21:20Z</time>
      </trkpt>
      <trkpt lat="43.93423" lon="3.63084">
        <ele>387.4</ele>
        <time>2019-07-10T14:21:21Z</time>
      </trkpt>
      <trkpt lat="43.93423" lon="3.63083">
        <ele>387.8</ele>
        <time>2019-07-10T14:21:23Z</time>
      </trkpt>
      <trkpt lat="43.93416" lon="3.63058">
        <ele>388.8</ele>
        <time>2019-07-10T14:24:24Z</time>
      </trkpt>
      <trkpt lat="43.93416" lon="3.63056">
        <ele>388.8</ele>
        <time>2019-07-10T14:24:25Z</time>
      </trkpt>
      <trkpt lat="43.93416" lon="3.63053">
        <ele>389</ele>
        <time>2019-07-10T14:24:26Z</time>
      </trkpt>
      <trkpt lat="43.93416" lon="3.63048">
        <ele>389</ele>
        <time>2019-07-10T14:24:28Z</time>
      </trkpt>
      <trkpt lat="43.93415" lon="3.63042">
        <ele>389</ele>
        <time>2019-07-10T14:24:30Z</time>
      </trkpt>
      <trkpt lat="43.93413" lon="3.63029">
        <ele>389.2</ele>
        <time>2019-07-10T14:24:35Z</time>
      </trkpt>
      <trkpt lat="43.93412" lon="3.63023">
        <ele>389.4</ele>
        <time>2019-07-10T14:24:37Z</time>
      </trkpt>
      <trkpt lat="43.93409" lon="3.63009">
        <ele>390</ele>
        <time>2019-07-10T14:24:42Z</time>
      </trkpt>
      <trkpt lat="43.93408" lon="3.63003">
        <ele>390</ele>
        <time>2019-07-10T14:24:44Z</time>
      </trkpt>
      <trkpt lat="43.93404" lon="3.62981">
        <ele>391.2</ele>
        <time>2019-07-10T14:24:52Z</time>
      </trkpt>
      <trkpt lat="43.93403" lon="3.62975">
        <ele>391</ele>
        <time>2019-07-10T14:24:54Z</time>
      </trkpt>
      <trkpt lat="43.93401" lon="3.62961">
        <ele>391.4</ele>
        <time>2019-07-10T14:24:59Z</time>
      </trkpt>
      <trkpt lat="43.93396" lon="3.62945">
        <ele>392</ele>
        <time>2019-07-10T14:25:05Z</time>
      </trkpt>
      <trkpt lat="43.9339" lon="3.62926">
        <ele>393</ele>
        <time>2019-07-10T14:25:13Z</time>
      </trkpt>
      <trkpt lat="43.9339" lon="3.62923">
        <ele>393</ele>
        <time>2019-07-10T14:25:14Z</time>
      </trkpt>
      <trkpt lat="43.93389" lon="3.62901">
        <ele>393.8</ele>
        <time>2019-07-10T14:25:22Z</time>
      </trkpt>
      <trkpt lat="43.93392" lon="3.62888">
        <ele>394.6</ele>
        <time>2019-07-10T14:25:27Z</time>
      </trkpt>
      <trkpt lat="43.93392" lon="3.62885">
        <ele>394.6</ele>
        <time>2019-07-10T14:25:28Z</time>
      </trkpt>
      <trkpt lat="43.93397" lon="3.62863">
        <ele>395.2</ele>
        <time>2019-07-10T14:25:36Z</time>
      </trkpt>
      <trkpt lat="43.93397" lon="3.62857">
        <ele>395.4</ele>
        <time>2019-07-10T14:25:38Z</time>
      </trkpt>
      <trkpt lat="43.93397" lon="3.62852">
        <ele>395.8</ele>
        <time>2019-07-10T14:25:40Z</time>
      </trkpt>
      <trkpt lat="43.93395" lon="3.62847">
        <ele>395.8</ele>
        <time>2019-07-10T14:25:42Z</time>
      </trkpt>
      <trkpt lat="43.93395" lon="3.62845">
        <ele>396</ele>
        <time>2019-07-10T14:25:43Z</time>
      </trkpt>
      <trkpt lat="43.93393" lon="3.62834">
        <ele>396.6</ele>
        <time>2019-07-10T14:25:47Z</time>
      </trkpt>
      <trkpt lat="43.93393" lon="3.62821">
        <ele>397.2</ele>
        <time>2019-07-10T14:25:52Z</time>
      </trkpt>
      <trkpt lat="43.93393" lon="3.62813">
        <ele>397.8</ele>
        <time>2019-07-10T14:25:55Z</time>
      </trkpt>
      <trkpt lat="43.9339" lon="3.62788">
        <ele>398.8</ele>
        <time>2019-07-10T14:26:04Z</time>
      </trkpt>
      <trkpt lat="43.9339" lon="3.62786">
        <ele>398.8</ele>
        <time>2019-07-10T14:26:05Z</time>
      </trkpt>
      <trkpt lat="43.93385" lon="3.62769">
        <ele>399.6</ele>
        <time>2019-07-10T14:26:11Z</time>
      </trkpt>
      <trkpt lat="43.93383" lon="3.62764">
        <ele>399.8</ele>
        <time>2019-07-10T14:26:13Z</time>
      </trkpt>
      <trkpt lat="43.9338" lon="3.62746">
        <ele>401</ele>
        <time>2019-07-10T14:26:20Z</time>
      </trkpt>
      <trkpt lat="43.93382" lon="3.62727">
        <ele>401.4</ele>
        <time>2019-07-10T14:26:27Z</time>
      </trkpt>
      <trkpt lat="43.93383" lon="3.62725">
        <ele>401.6</ele>
        <time>2019-07-10T14:26:28Z</time>
      </trkpt>
      <trkpt lat="43.93389" lon="3.62707">
        <ele>402.2</ele>
        <time>2019-07-10T14:26:35Z</time>
      </trkpt>
      <trkpt lat="43.93398" lon="3.62696">
        <ele>402.6</ele>
        <time>2019-07-10T14:26:41Z</time>
      </trkpt>
      <trkpt lat="43.934" lon="3.62695">
        <ele>402.6</ele>
        <time>2019-07-10T14:26:42Z</time>
      </trkpt>
      <trkpt lat="43.93411" lon="3.62689">
        <ele>403.4</ele>
        <time>2019-07-10T14:26:48Z</time>
      </trkpt>
      <trkpt lat="43.93413" lon="3.62687">
        <ele>403.4</ele>
        <time>2019-07-10T14:26:49Z</time>
      </trkpt>
      <trkpt lat="43.93426" lon="3.62676">
        <ele>403.8</ele>
        <time>2019-07-10T14:26:57Z</time>
      </trkpt>
      <trkpt lat="43.93433" lon="3.62671">
        <ele>404</ele>
        <time>2019-07-10T14:27:01Z</time>
      </trkpt>
      <trkpt lat="43.93444" lon="3.62664">
        <ele>404.2</ele>
        <time>2019-07-10T14:27:07Z</time>
      </trkpt>
      <trkpt lat="43.93453" lon="3.62657">
        <ele>404.8</ele>
        <time>2019-07-10T14:27:12Z</time>
      </trkpt>
      <trkpt lat="43.93454" lon="3.62656">
        <ele>405.2</ele>
        <time>2019-07-10T14:27:13Z</time>
      </trkpt>
      <trkpt lat="43.93462" lon="3.62649">
        <ele>405.4</ele>
        <time>2019-07-10T14:27:18Z</time>
      </trkpt>
      <trkpt lat="43.93472" lon="3.62643">
        <ele>406</ele>
        <time>2019-07-10T14:27:23Z</time>
      </trkpt>
      <trkpt lat="43.93474" lon="3.62643">
        <ele>406.2</ele>
        <time>2019-07-10T14:27:24Z</time>
      </trkpt>
      <trkpt lat="43.93492" lon="3.62633">
        <ele>407.4</ele>
        <time>2019-07-10T14:27:34Z</time>
      </trkpt>
      <trkpt lat="43.93499" lon="3.62631">
        <ele>407.6</ele>
        <time>2019-07-10T14:27:37Z</time>
      </trkpt>
      <trkpt lat="43.93509" lon="3.62628">
        <ele>408.2</ele>
        <time>2019-07-10T14:27:42Z</time>
      </trkpt>
      <trkpt lat="43.93514" lon="3.62627">
        <ele>408.6</ele>
        <time>2019-07-10T14:27:45Z</time>
      </trkpt>
      <trkpt lat="43.93516" lon="3.62626">
        <ele>408.8</ele>
        <time>2019-07-10T14:27:46Z</time>
      </trkpt>
      <trkpt lat="43.93519" lon="3.62625">
        <ele>408.8</ele>
        <time>2019-07-10T14:27:48Z</time>
      </trkpt>
      <trkpt lat="43.93535" lon="3.62621">
        <ele>410.4</ele>
        <time>2019-07-10T14:27:55Z</time>
      </trkpt>
      <trkpt lat="43.93538" lon="3.6262">
        <ele>410.6</ele>
        <time>2019-07-10T14:27:57Z</time>
      </trkpt>
      <trkpt lat="43.93546" lon="3.62617">
        <ele>411.2</ele>
        <time>2019-07-10T14:28:01Z</time>
      </trkpt>
      <trkpt lat="43.93551" lon="3.62616">
        <ele>411.6</ele>
        <time>2019-07-10T14:28:04Z</time>
      </trkpt>
      <trkpt lat="43.93565" lon="3.62617">
        <ele>412.8</ele>
        <time>2019-07-10T14:28:11Z</time>
      </trkpt>
      <trkpt lat="43.93575" lon="3.62618">
        <ele>413.2</ele>
        <time>2019-07-10T14:28:15Z</time>
      </trkpt>
      <trkpt lat="43.93585" lon="3.62619">
        <ele>413.6</ele>
        <time>2019-07-10T14:28:20Z</time>
      </trkpt>
      <trkpt lat="43.93591" lon="3.62619">
        <ele>413.8</ele>
        <time>2019-07-10T14:28:23Z</time>
      </trkpt>
      <trkpt lat="43.93597" lon="3.6262">
        <ele>414.4</ele>
        <time>2019-07-10T14:28:26Z</time>
      </trkpt>
      <trkpt lat="43.93606" lon="3.62616">
        <ele>414.8</ele>
        <time>2019-07-10T14:28:31Z</time>
      </trkpt>
      <trkpt lat="43.93608" lon="3.62615">
        <ele>414.8</ele>
        <time>2019-07-10T14:28:32Z</time>
      </trkpt>
      <trkpt lat="43.93613" lon="3.62605">
        <ele>415.2</ele>
        <time>2019-07-10T14:28:36Z</time>
      </trkpt>
      <trkpt lat="43.93614" lon="3.62596">
        <ele>415.8</ele>
        <time>2019-07-10T14:28:39Z</time>
      </trkpt>
      <trkpt lat="43.93614" lon="3.62593">
        <ele>415.8</ele>
        <time>2019-07-10T14:28:40Z</time>
      </trkpt>
      <trkpt lat="43.93615" lon="3.62587">
        <ele>416</ele>
        <time>2019-07-10T14:28:42Z</time>
      </trkpt>
      <trkpt lat="43.93615" lon="3.62584">
        <ele>416</ele>
        <time>2019-07-10T14:28:43Z</time>
      </trkpt>
      <trkpt lat="43.93621" lon="3.6257">
        <ele>416.8</ele>
        <time>2019-07-10T14:28:48Z</time>
      </trkpt>
      <trkpt lat="43.93629" lon="3.62555">
        <ele>417.6</ele>
        <time>2019-07-10T14:28:54Z</time>
      </trkpt>
      <trkpt lat="43.93631" lon="3.62551">
        <ele>417.8</ele>
        <time>2019-07-10T14:28:56Z</time>
      </trkpt>
      <trkpt lat="43.93638" lon="3.62532">
        <ele>418.6</ele>
        <time>2019-07-10T14:29:03Z</time>
      </trkpt>
      <trkpt lat="43.9364" lon="3.62527">
        <ele>419</ele>
        <time>2019-07-10T14:29:05Z</time>
      </trkpt>
      <trkpt lat="43.93642" lon="3.62516">
        <ele>419.6</ele>
        <time>2019-07-10T14:29:09Z</time>
      </trkpt>
      <trkpt lat="43.93637" lon="3.62502">
        <ele>419.8</ele>
        <time>2019-07-10T14:29:15Z</time>
      </trkpt>
      <trkpt lat="43.93629" lon="3.62493">
        <ele>420.6</ele>
        <time>2019-07-10T14:29:21Z</time>
      </trkpt>
      <trkpt lat="43.93623" lon="3.62478">
        <ele>421.4</ele>
        <time>2019-07-10T14:29:27Z</time>
      </trkpt>
      <trkpt lat="43.93622" lon="3.62473">
        <ele>421.6</ele>
        <time>2019-07-10T14:29:29Z</time>
      </trkpt>
      <trkpt lat="43.93622" lon="3.6246">
        <ele>422.2</ele>
        <time>2019-07-10T14:29:34Z</time>
      </trkpt>
      <trkpt lat="43.93622" lon="3.62458">
        <ele>422.4</ele>
        <time>2019-07-10T14:29:35Z</time>
      </trkpt>
      <trkpt lat="43.93618" lon="3.62433">
        <ele>423.2</ele>
        <time>2019-07-10T14:29:43Z</time>
      </trkpt>
      <trkpt lat="43.93621" lon="3.62418">
        <ele>423.8</ele>
        <time>2019-07-10T14:29:48Z</time>
      </trkpt>
      <trkpt lat="43.93622" lon="3.62415">
        <ele>424</ele>
        <time>2019-07-10T14:29:49Z</time>
      </trkpt>
      <trkpt lat="43.93631" lon="3.62404">
        <ele>424.8</ele>
        <time>2019-07-10T14:29:55Z</time>
      </trkpt>
      <trkpt lat="43.93634" lon="3.624">
        <ele>425</ele>
        <time>2019-07-10T14:29:57Z</time>
      </trkpt>
      <trkpt lat="43.9364" lon="3.62392">
        <ele>425.4</ele>
        <time>2019-07-10T14:30:01Z</time>
      </trkpt>
      <trkpt lat="43.93641" lon="3.62389">
        <ele>425.6</ele>
        <time>2019-07-10T14:30:02Z</time>
      </trkpt>
      <trkpt lat="43.93646" lon="3.62376">
        <ele>426</ele>
        <time>2019-07-10T14:30:07Z</time>
      </trkpt>
      <trkpt lat="43.93646" lon="3.62373">
        <ele>426.2</ele>
        <time>2019-07-10T14:30:08Z</time>
      </trkpt>
      <trkpt lat="43.93645" lon="3.6237">
        <ele>426.4</ele>
        <time>2019-07-10T14:30:09Z</time>
      </trkpt>
      <trkpt lat="43.93642" lon="3.62361">
        <ele>426.8</ele>
        <time>2019-07-10T14:30:13Z</time>
      </trkpt>
      <trkpt lat="43.9364" lon="3.62353">
        <ele>427.4</ele>
        <time>2019-07-10T14:30:16Z</time>
      </trkpt>
      <trkpt lat="43.93637" lon="3.62348">
        <ele>427.4</ele>
        <time>2019-07-10T14:30:18Z</time>
      </trkpt>
      <trkpt lat="43.93628" lon="3.6233">
        <ele>428.6</ele>
        <time>2019-07-10T14:30:24Z</time>
      </trkpt>
      <trkpt lat="43.93627" lon="3.62327">
        <ele>428.6</ele>
        <time>2019-07-10T14:30:25Z</time>
      </trkpt>
      <trkpt lat="43.93616" lon="3.62308">
        <ele>429.6</ele>
        <time>2019-07-10T14:30:33Z</time>
      </trkpt>
      <trkpt lat="43.93613" lon="3.62304">
        <ele>429.8</ele>
        <time>2019-07-10T14:30:35Z</time>
      </trkpt>
      <trkpt lat="43.93607" lon="3.62295">
        <ele>430.4</ele>
        <time>2019-07-10T14:30:40Z</time>
      </trkpt>
      <trkpt lat="43.93601" lon="3.62287">
        <ele>431.2</ele>
        <time>2019-07-10T14:30:45Z</time>
      </trkpt>
      <trkpt lat="43.936" lon="3.62284">
        <ele>431.6</ele>
        <time>2019-07-10T14:30:47Z</time>
      </trkpt>
      <trkpt lat="43.93594" lon="3.62278">
        <ele>431.8</ele>
        <time>2019-07-10T14:30:50Z</time>
      </trkpt>
      <trkpt lat="43.93592" lon="3.62276">
        <ele>432</ele>
        <time>2019-07-10T14:30:51Z</time>
      </trkpt>
      <trkpt lat="43.9359" lon="3.62273">
        <ele>432</ele>
        <time>2019-07-10T14:30:53Z</time>
      </trkpt>
      <trkpt lat="43.93587" lon="3.62271">
        <ele>432.4</ele>
        <time>2019-07-10T14:30:55Z</time>
      </trkpt>
      <trkpt lat="43.93585" lon="3.62268">
        <ele>432.6</ele>
        <time>2019-07-10T14:30:57Z</time>
      </trkpt>
      <trkpt lat="43.9357" lon="3.62254">
        <ele>433.8</ele>
        <time>2019-07-10T14:31:05Z</time>
      </trkpt>
      <trkpt lat="43.93566" lon="3.62249">
        <ele>434.4</ele>
        <time>2019-07-10T14:31:09Z</time>
      </trkpt>
      <trkpt lat="43.93565" lon="3.62248">
        <ele>434.2</ele>
        <time>2019-07-10T14:31:10Z</time>
      </trkpt>
      <trkpt lat="43.93561" lon="3.62236">
        <ele>434.6</ele>
        <time>2019-07-10T14:31:15Z</time>
      </trkpt>
      <trkpt lat="43.9356" lon="3.62233">
        <ele>434.6</ele>
        <time>2019-07-10T14:31:16Z</time>
      </trkpt>
      <trkpt lat="43.9356" lon="3.62224">
        <ele>434.8</ele>
        <time>2019-07-10T14:31:19Z</time>
      </trkpt>
      <trkpt lat="43.93561" lon="3.62219">
        <ele>435</ele>
        <time>2019-07-10T14:31:21Z</time>
      </trkpt>
      <trkpt lat="43.93562" lon="3.62211">
        <ele>435.2</ele>
        <time>2019-07-10T14:31:24Z</time>
      </trkpt>
      <trkpt lat="43.93561" lon="3.62194">
        <ele>435.6</ele>
        <time>2019-07-10T14:31:30Z</time>
      </trkpt>
      <trkpt lat="43.9356" lon="3.62188">
        <ele>435.8</ele>
        <time>2019-07-10T14:31:32Z</time>
      </trkpt>
      <trkpt lat="43.93554" lon="3.62176">
        <ele>436.2</ele>
        <time>2019-07-10T14:31:37Z</time>
      </trkpt>
      <trkpt lat="43.9355" lon="3.62173">
        <ele>436.4</ele>
        <time>2019-07-10T14:31:39Z</time>
      </trkpt>
      <trkpt lat="43.93543" lon="3.6217">
        <ele>436.6</ele>
        <time>2019-07-10T14:31:43Z</time>
      </trkpt>
      <trkpt lat="43.93537" lon="3.62167">
        <ele>437.4</ele>
        <time>2019-07-10T14:31:46Z</time>
      </trkpt>
      <trkpt lat="43.93532" lon="3.62161">
        <ele>437.8</ele>
        <time>2019-07-10T14:31:49Z</time>
      </trkpt>
      <trkpt lat="43.93531" lon="3.62158">
        <ele>438</ele>
        <time>2019-07-10T14:31:50Z</time>
      </trkpt>
      <trkpt lat="43.9353" lon="3.62142">
        <ele>438.4</ele>
        <time>2019-07-10T14:31:56Z</time>
      </trkpt>
      <trkpt lat="43.93536" lon="3.62118">
        <ele>439.2</ele>
        <time>2019-07-10T14:32:05Z</time>
      </trkpt>
      <trkpt lat="43.9354" lon="3.62099">
        <ele>439.8</ele>
        <time>2019-07-10T14:32:12Z</time>
      </trkpt>
      <trkpt lat="43.93541" lon="3.62093">
        <ele>439.8</ele>
        <time>2019-07-10T14:32:14Z</time>
      </trkpt>
      <trkpt lat="43.93542" lon="3.6208">
        <ele>440.4</ele>
        <time>2019-07-10T14:32:18Z</time>
      </trkpt>
      <trkpt lat="43.93543" lon="3.62072">
        <ele>440.6</ele>
        <time>2019-07-10T14:32:21Z</time>
      </trkpt>
      <trkpt lat="43.93544" lon="3.6207">
        <ele>440.8</ele>
        <time>2019-07-10T14:32:22Z</time>
      </trkpt>
      <trkpt lat="43.93549" lon="3.62052">
        <ele>441.8</ele>
        <time>2019-07-10T14:32:29Z</time>
      </trkpt>
      <trkpt lat="43.9355" lon="3.62049">
        <ele>441.8</ele>
        <time>2019-07-10T14:32:30Z</time>
      </trkpt>
      <trkpt lat="43.93555" lon="3.62034">
        <ele>442.6</ele>
        <time>2019-07-10T14:32:36Z</time>
      </trkpt>
      <trkpt lat="43.93558" lon="3.62026">
        <ele>442.8</ele>
        <time>2019-07-10T14:32:39Z</time>
      </trkpt>
      <trkpt lat="43.93562" lon="3.62012">
        <ele>443.4</ele>
        <time>2019-07-10T14:32:44Z</time>
      </trkpt>
      <trkpt lat="43.93563" lon="3.62007">
        <ele>443.6</ele>
        <time>2019-07-10T14:32:46Z</time>
      </trkpt>
      <trkpt lat="43.93563" lon="3.61992">
        <ele>444.2</ele>
        <time>2019-07-10T14:32:51Z</time>
      </trkpt>
      <trkpt lat="43.93564" lon="3.61986">
        <ele>444.4</ele>
        <time>2019-07-10T14:32:53Z</time>
      </trkpt>
      <trkpt lat="43.93564" lon="3.61967">
        <ele>445.2</ele>
        <time>2019-07-10T14:32:59Z</time>
      </trkpt>
      <trkpt lat="43.93561" lon="3.61945">
        <ele>446</ele>
        <time>2019-07-10T14:33:07Z</time>
      </trkpt>
      <trkpt lat="43.9356" lon="3.6194">
        <ele>446.4</ele>
        <time>2019-07-10T14:33:09Z</time>
      </trkpt>
      <trkpt lat="43.93551" lon="3.61931">
        <ele>446.6</ele>
        <time>2019-07-10T14:33:14Z</time>
      </trkpt>
      <trkpt lat="43.9355" lon="3.6193">
        <ele>446.8</ele>
        <time>2019-07-10T14:33:15Z</time>
      </trkpt>
      <trkpt lat="43.93548" lon="3.6193">
        <ele>447.2</ele>
        <time>2019-07-10T14:33:16Z</time>
      </trkpt>
      <trkpt lat="43.93535" lon="3.61919">
        <ele>448.4</ele>
        <time>2019-07-10T14:33:23Z</time>
      </trkpt>
      <trkpt lat="43.93529" lon="3.61912">
        <ele>449</ele>
        <time>2019-07-10T14:33:27Z</time>
      </trkpt>
      <trkpt lat="43.93523" lon="3.61906">
        <ele>449.4</ele>
        <time>2019-07-10T14:33:31Z</time>
      </trkpt>
      <trkpt lat="43.9351" lon="3.61898">
        <ele>450.2</ele>
        <time>2019-07-10T14:33:38Z</time>
      </trkpt>
      <trkpt lat="43.935" lon="3.6189">
        <ele>450.8</ele>
        <time>2019-07-10T14:33:44Z</time>
      </trkpt>
      <trkpt lat="43.93498" lon="3.61888">
        <ele>450.8</ele>
        <time>2019-07-10T14:33:45Z</time>
      </trkpt>
      <trkpt lat="43.93492" lon="3.6188">
        <ele>451.4</ele>
        <time>2019-07-10T14:33:49Z</time>
      </trkpt>
      <trkpt lat="43.93491" lon="3.61875">
        <ele>451.6</ele>
        <time>2019-07-10T14:33:51Z</time>
      </trkpt>
      <trkpt lat="43.93487" lon="3.61861">
        <ele>452</ele>
        <time>2019-07-10T14:33:57Z</time>
      </trkpt>
      <trkpt lat="43.93484" lon="3.61855">
        <ele>452.4</ele>
        <time>2019-07-10T14:33:59Z</time>
      </trkpt>
      <trkpt lat="43.93482" lon="3.6185">
        <ele>452.8</ele>
        <time>2019-07-10T14:34:01Z</time>
      </trkpt>
      <trkpt lat="43.93481" lon="3.61848">
        <ele>452.6</ele>
        <time>2019-07-10T14:34:02Z</time>
      </trkpt>
      <trkpt lat="43.93473" lon="3.61834">
        <ele>453.2</ele>
        <time>2019-07-10T14:34:08Z</time>
      </trkpt>
      <trkpt lat="43.93471" lon="3.61829">
        <ele>453.6</ele>
        <time>2019-07-10T14:34:10Z</time>
      </trkpt>
      <trkpt lat="43.93466" lon="3.61819">
        <ele>453.8</ele>
        <time>2019-07-10T14:34:14Z</time>
      </trkpt>
      <trkpt lat="43.93463" lon="3.61811">
        <ele>454.2</ele>
        <time>2019-07-10T14:34:17Z</time>
      </trkpt>
      <trkpt lat="43.93463" lon="3.61801">
        <ele>454.4</ele>
        <time>2019-07-10T14:34:21Z</time>
      </trkpt>
      <trkpt lat="43.93463" lon="3.61789">
        <ele>454.6</ele>
        <time>2019-07-10T14:34:25Z</time>
      </trkpt>
      <trkpt lat="43.93463" lon="3.61777">
        <ele>455</ele>
        <time>2019-07-10T14:34:29Z</time>
      </trkpt>
      <trkpt lat="43.93462" lon="3.61756">
        <ele>455.8</ele>
        <time>2019-07-10T14:34:36Z</time>
      </trkpt>
      <trkpt lat="43.93462" lon="3.61753">
        <ele>455.8</ele>
        <time>2019-07-10T14:34:37Z</time>
      </trkpt>
      <trkpt lat="43.93467" lon="3.6174">
        <ele>456.6</ele>
        <time>2019-07-10T14:34:43Z</time>
      </trkpt>
      <trkpt lat="43.93478" lon="3.61724">
        <ele>457.6</ele>
        <time>2019-07-10T14:34:51Z</time>
      </trkpt>
      <trkpt lat="43.93482" lon="3.61716">
        <ele>458</ele>
        <time>2019-07-10T14:34:54Z</time>
      </trkpt>
      <trkpt lat="43.93486" lon="3.61705">
        <ele>458.6</ele>
        <time>2019-07-10T14:34:58Z</time>
      </trkpt>
      <trkpt lat="43.93489" lon="3.61684">
        <ele>459.2</ele>
        <time>2019-07-10T14:35:05Z</time>
      </trkpt>
      <trkpt lat="43.93489" lon="3.61681">
        <ele>459.4</ele>
        <time>2019-07-10T14:35:06Z</time>
      </trkpt>
      <trkpt lat="43.93488" lon="3.61672">
        <ele>459.6</ele>
        <time>2019-07-10T14:35:09Z</time>
      </trkpt>
      <trkpt lat="43.93486" lon="3.61664">
        <ele>460.2</ele>
        <time>2019-07-10T14:35:12Z</time>
      </trkpt>
      <trkpt lat="43.9348" lon="3.61649">
        <ele>460.8</ele>
        <time>2019-07-10T14:35:18Z</time>
      </trkpt>
      <trkpt lat="43.93477" lon="3.61644">
        <ele>461.2</ele>
        <time>2019-07-10T14:35:20Z</time>
      </trkpt>
      <trkpt lat="43.93474" lon="3.61637">
        <ele>461.8</ele>
        <time>2019-07-10T14:35:26Z</time>
      </trkpt>
      <trkpt lat="43.93472" lon="3.61631">
        <ele>462.8</ele>
        <time>2019-07-10T14:37:04Z</time>
      </trkpt>
      <trkpt lat="43.9347" lon="3.61623">
        <ele>463</ele>
        <time>2019-07-10T14:37:07Z</time>
      </trkpt>
      <trkpt lat="43.93465" lon="3.61604">
        <ele>463.6</ele>
        <time>2019-07-10T14:37:14Z</time>
      </trkpt>
      <trkpt lat="43.93464" lon="3.61601">
        <ele>463.8</ele>
        <time>2019-07-10T14:37:15Z</time>
      </trkpt>
      <trkpt lat="43.93461" lon="3.61583">
        <ele>464.4</ele>
        <time>2019-07-10T14:37:21Z</time>
      </trkpt>
      <trkpt lat="43.9346" lon="3.61564">
        <ele>464.8</ele>
        <time>2019-07-10T14:37:28Z</time>
      </trkpt>
      <trkpt lat="43.93462" lon="3.61551">
        <ele>465.4</ele>
        <time>2019-07-10T14:37:33Z</time>
      </trkpt>
      <trkpt lat="43.93463" lon="3.61545">
        <ele>465.4</ele>
        <time>2019-07-10T14:37:35Z</time>
      </trkpt>
      <trkpt lat="43.9347" lon="3.61529">
        <ele>466.4</ele>
        <time>2019-07-10T14:37:42Z</time>
      </trkpt>
      <trkpt lat="43.93474" lon="3.61517">
        <ele>466.8</ele>
        <time>2019-07-10T14:37:47Z</time>
      </trkpt>
      <trkpt lat="43.93476" lon="3.61512">
        <ele>467</ele>
        <time>2019-07-10T14:37:49Z</time>
      </trkpt>
      <trkpt lat="43.93477" lon="3.6149">
        <ele>467.4</ele>
        <time>2019-07-10T14:37:56Z</time>
      </trkpt>
      <trkpt lat="43.93475" lon="3.6147">
        <ele>468.6</ele>
        <time>2019-07-10T14:38:03Z</time>
      </trkpt>
      <trkpt lat="43.93478" lon="3.61454">
        <ele>469.2</ele>
        <time>2019-07-10T14:38:09Z</time>
      </trkpt>
      <trkpt lat="43.93479" lon="3.61451">
        <ele>469.4</ele>
        <time>2019-07-10T14:38:10Z</time>
      </trkpt>
      <trkpt lat="43.93484" lon="3.61433">
        <ele>470</ele>
        <time>2019-07-10T14:38:17Z</time>
      </trkpt>
      <trkpt lat="43.93485" lon="3.61431">
        <ele>470</ele>
        <time>2019-07-10T14:38:18Z</time>
      </trkpt>
      <trkpt lat="43.93492" lon="3.61414">
        <ele>470.8</ele>
        <time>2019-07-10T14:38:25Z</time>
      </trkpt>
      <trkpt lat="43.93495" lon="3.61398">
        <ele>471.4</ele>
        <time>2019-07-10T14:38:31Z</time>
      </trkpt>
      <trkpt lat="43.93495" lon="3.61395">
        <ele>471.4</ele>
        <time>2019-07-10T14:38:32Z</time>
      </trkpt>
      <trkpt lat="43.93495" lon="3.61384">
        <ele>471.8</ele>
        <time>2019-07-10T14:38:36Z</time>
      </trkpt>
      <trkpt lat="43.93495" lon="3.61371">
        <ele>472.6</ele>
        <time>2019-07-10T14:38:40Z</time>
      </trkpt>
      <trkpt lat="43.93498" lon="3.61344">
        <ele>473.6</ele>
        <time>2019-07-10T14:38:49Z</time>
      </trkpt>
      <trkpt lat="43.93498" lon="3.61338">
        <ele>473.6</ele>
        <time>2019-07-10T14:38:51Z</time>
      </trkpt>
      <trkpt lat="43.93501" lon="3.61325">
        <ele>474.2</ele>
        <time>2019-07-10T14:38:56Z</time>
      </trkpt>
      <trkpt lat="43.93501" lon="3.61323">
        <ele>474.4</ele>
        <time>2019-07-10T14:38:57Z</time>
      </trkpt>
      <trkpt lat="43.93502" lon="3.61317">
        <ele>474.6</ele>
        <time>2019-07-10T14:38:59Z</time>
      </trkpt>
      <trkpt lat="43.93507" lon="3.613">
        <ele>475.6</ele>
        <time>2019-07-10T14:39:05Z</time>
      </trkpt>
      <trkpt lat="43.93509" lon="3.61295">
        <ele>475.8</ele>
        <time>2019-07-10T14:39:07Z</time>
      </trkpt>
      <trkpt lat="43.93512" lon="3.61288">
        <ele>476.2</ele>
        <time>2019-07-10T14:39:10Z</time>
      </trkpt>
      <trkpt lat="43.93515" lon="3.61282">
        <ele>476.6</ele>
        <time>2019-07-10T14:39:13Z</time>
      </trkpt>
      <trkpt lat="43.93517" lon="3.61277">
        <ele>476.8</ele>
        <time>2019-07-10T14:39:15Z</time>
      </trkpt>
      <trkpt lat="43.93522" lon="3.61267">
        <ele>477.2</ele>
        <time>2019-07-10T14:39:19Z</time>
      </trkpt>
      <trkpt lat="43.93524" lon="3.61262">
        <ele>477.2</ele>
        <time>2019-07-10T14:39:21Z</time>
      </trkpt>
      <trkpt lat="43.93525" lon="3.6126">
        <ele>477.4</ele>
        <time>2019-07-10T14:39:22Z</time>
      </trkpt>
      <trkpt lat="43.93531" lon="3.61236">
        <ele>479</ele>
        <time>2019-07-10T14:39:31Z</time>
      </trkpt>
      <trkpt lat="43.93536" lon="3.61217">
        <ele>479.2</ele>
        <time>2019-07-10T14:39:38Z</time>
      </trkpt>
      <trkpt lat="43.93537" lon="3.61212">
        <ele>479.6</ele>
        <time>2019-07-10T14:39:40Z</time>
      </trkpt>
      <trkpt lat="43.93542" lon="3.61193">
        <ele>480.4</ele>
        <time>2019-07-10T14:39:47Z</time>
      </trkpt>
      <trkpt lat="43.93543" lon="3.61184">
        <ele>480.8</ele>
        <time>2019-07-10T14:39:50Z</time>
      </trkpt>
      <trkpt lat="43.93547" lon="3.61173">
        <ele>481</ele>
        <time>2019-07-10T14:39:54Z</time>
      </trkpt>
      <trkpt lat="43.9355" lon="3.61157">
        <ele>481.8</ele>
        <time>2019-07-10T14:40:00Z</time>
      </trkpt>
      <trkpt lat="43.9355" lon="3.61155">
        <ele>481.8</ele>
        <time>2019-07-10T14:40:01Z</time>
      </trkpt>
      <trkpt lat="43.93554" lon="3.61145">
        <ele>482.6</ele>
        <time>2019-07-10T14:40:06Z</time>
      </trkpt>
      <trkpt lat="43.93555" lon="3.61139">
        <ele>482.8</ele>
        <time>2019-07-10T14:40:08Z</time>
      </trkpt>
      <trkpt lat="43.93558" lon="3.61129">
        <ele>483</ele>
        <time>2019-07-10T14:40:12Z</time>
      </trkpt>
      <trkpt lat="43.93563" lon="3.61112">
        <ele>484.2</ele>
        <time>2019-07-10T14:40:18Z</time>
      </trkpt>
      <trkpt lat="43.93564" lon="3.61109">
        <ele>484</ele>
        <time>2019-07-10T14:40:19Z</time>
      </trkpt>
      <trkpt lat="43.93571" lon="3.61095">
        <ele>484.8</ele>
        <time>2019-07-10T14:40:25Z</time>
      </trkpt>
      <trkpt lat="43.93577" lon="3.61081">
        <ele>485.2</ele>
        <time>2019-07-10T14:40:31Z</time>
      </trkpt>
      <trkpt lat="43.93577" lon="3.61069">
        <ele>485.6</ele>
        <time>2019-07-10T14:40:35Z</time>
      </trkpt>
      <trkpt lat="43.93577" lon="3.61063">
        <ele>485.8</ele>
        <time>2019-07-10T14:40:37Z</time>
      </trkpt>
      <trkpt lat="43.93573" lon="3.61048">
        <ele>486.6</ele>
        <time>2019-07-10T14:40:43Z</time>
      </trkpt>
      <trkpt lat="43.93572" lon="3.61046">
        <ele>486.6</ele>
        <time>2019-07-10T14:40:44Z</time>
      </trkpt>
      <trkpt lat="43.93561" lon="3.61037">
        <ele>487.4</ele>
        <time>2019-07-10T14:40:50Z</time>
      </trkpt>
      <trkpt lat="43.93559" lon="3.61037">
        <ele>487.4</ele>
        <time>2019-07-10T14:40:51Z</time>
      </trkpt>
      <trkpt lat="43.93549" lon="3.61038">
        <ele>488</ele>
        <time>2019-07-10T14:40:56Z</time>
      </trkpt>
      <trkpt lat="43.9354" lon="3.61043">
        <ele>488.8</ele>
        <time>2019-07-10T14:41:01Z</time>
      </trkpt>
      <trkpt lat="43.93532" lon="3.6104">
        <ele>489.2</ele>
        <time>2019-07-10T14:41:05Z</time>
      </trkpt>
      <trkpt lat="43.93531" lon="3.61039">
        <ele>489.2</ele>
        <time>2019-07-10T14:41:06Z</time>
      </trkpt>
      <trkpt lat="43.93529" lon="3.61038">
        <ele>489.4</ele>
        <time>2019-07-10T14:41:07Z</time>
      </trkpt>
      <trkpt lat="43.93527" lon="3.61036">
        <ele>489.4</ele>
        <time>2019-07-10T14:41:08Z</time>
      </trkpt>
      <trkpt lat="43.9352" lon="3.61027">
        <ele>490</ele>
        <time>2019-07-10T14:41:13Z</time>
      </trkpt>
      <trkpt lat="43.93514" lon="3.61013">
        <ele>490.6</ele>
        <time>2019-07-10T14:41:19Z</time>
      </trkpt>
      <trkpt lat="43.93513" lon="3.61008">
        <ele>490.6</ele>
        <time>2019-07-10T14:41:21Z</time>
      </trkpt>
      <trkpt lat="43.93509" lon="3.60995">
        <ele>491.4</ele>
        <time>2019-07-10T14:41:26Z</time>
      </trkpt>
      <trkpt lat="43.93505" lon="3.60983">
        <ele>491.8</ele>
        <time>2019-07-10T14:41:31Z</time>
      </trkpt>
      <trkpt lat="43.93502" lon="3.60976">
        <ele>492</ele>
        <time>2019-07-10T14:41:34Z</time>
      </trkpt>
      <trkpt lat="43.93497" lon="3.60966">
        <ele>492.6</ele>
        <time>2019-07-10T14:41:38Z</time>
      </trkpt>
      <trkpt lat="43.93494" lon="3.60959">
        <ele>492.8</ele>
        <time>2019-07-10T14:41:41Z</time>
      </trkpt>
      <trkpt lat="43.9348" lon="3.60934">
        <ele>494.2</ele>
        <time>2019-07-10T14:41:52Z</time>
      </trkpt>
      <trkpt lat="43.93473" lon="3.60926">
        <ele>494.4</ele>
        <time>2019-07-10T14:41:56Z</time>
      </trkpt>
      <trkpt lat="43.93466" lon="3.60915">
        <ele>495</ele>
        <time>2019-07-10T14:42:01Z</time>
      </trkpt>
      <trkpt lat="43.93463" lon="3.60911">
        <ele>495</ele>
        <time>2019-07-10T14:42:03Z</time>
      </trkpt>
      <trkpt lat="43.93454" lon="3.60899">
        <ele>496</ele>
        <time>2019-07-10T14:42:09Z</time>
      </trkpt>
      <trkpt lat="43.93449" lon="3.60894">
        <ele>496.4</ele>
        <time>2019-07-10T14:42:12Z</time>
      </trkpt>
      <trkpt lat="43.93443" lon="3.60886">
        <ele>497</ele>
        <time>2019-07-10T14:42:17Z</time>
      </trkpt>
      <trkpt lat="43.93428" lon="3.60871">
        <ele>497.8</ele>
        <time>2019-07-10T14:42:26Z</time>
      </trkpt>
      <trkpt lat="43.93425" lon="3.60868">
        <ele>497.8</ele>
        <time>2019-07-10T14:42:28Z</time>
      </trkpt>
      <trkpt lat="43.9341" lon="3.60858">
        <ele>498.8</ele>
        <time>2019-07-10T14:42:36Z</time>
      </trkpt>
      <trkpt lat="43.93406" lon="3.60857">
        <ele>499</ele>
        <time>2019-07-10T14:42:38Z</time>
      </trkpt>
      <trkpt lat="43.93403" lon="3.60855">
        <ele>499.4</ele>
        <time>2019-07-10T14:42:40Z</time>
      </trkpt>
      <trkpt lat="43.93397" lon="3.60852">
        <ele>499.6</ele>
        <time>2019-07-10T14:42:43Z</time>
      </trkpt>
      <trkpt lat="43.93388" lon="3.60846">
        <ele>500.2</ele>
        <time>2019-07-10T14:42:48Z</time>
      </trkpt>
      <trkpt lat="43.93384" lon="3.60843">
        <ele>500.4</ele>
        <time>2019-07-10T14:42:50Z</time>
      </trkpt>
      <trkpt lat="43.93372" lon="3.60829">
        <ele>501.2</ele>
        <time>2019-07-10T14:42:58Z</time>
      </trkpt>
      <trkpt lat="43.93368" lon="3.60826">
        <ele>501.4</ele>
        <time>2019-07-10T14:43:00Z</time>
      </trkpt>
      <trkpt lat="43.93357" lon="3.60815">
        <ele>502.4</ele>
        <time>2019-07-10T14:43:07Z</time>
      </trkpt>
      <trkpt lat="43.93354" lon="3.60812">
        <ele>502.4</ele>
        <time>2019-07-10T14:43:09Z</time>
      </trkpt>
      <trkpt lat="43.9334" lon="3.60809">
        <ele>503.4</ele>
        <time>2019-07-10T14:43:16Z</time>
      </trkpt>
      <trkpt lat="43.93338" lon="3.6081">
        <ele>503.6</ele>
        <time>2019-07-10T14:43:17Z</time>
      </trkpt>
      <trkpt lat="43.93326" lon="3.60814">
        <ele>504.4</ele>
        <time>2019-07-10T14:43:23Z</time>
      </trkpt>
      <trkpt lat="43.93318" lon="3.60816">
        <ele>504.8</ele>
        <time>2019-07-10T14:43:27Z</time>
      </trkpt>
      <trkpt lat="43.93312" lon="3.60817">
        <ele>505</ele>
        <time>2019-07-10T14:43:30Z</time>
      </trkpt>
      <trkpt lat="43.93298" lon="3.6082">
        <ele>505.8</ele>
        <time>2019-07-10T14:43:37Z</time>
      </trkpt>
      <trkpt lat="43.93296" lon="3.6082">
        <ele>506</ele>
        <time>2019-07-10T14:43:38Z</time>
      </trkpt>
      <trkpt lat="43.93284" lon="3.60819">
        <ele>507</ele>
        <time>2019-07-10T14:43:44Z</time>
      </trkpt>
      <trkpt lat="43.9328" lon="3.60818">
        <ele>507</ele>
        <time>2019-07-10T14:43:46Z</time>
      </trkpt>
      <trkpt lat="43.93263" lon="3.60814">
        <ele>508</ele>
        <time>2019-07-10T14:43:54Z</time>
      </trkpt>
      <trkpt lat="43.93253" lon="3.60811">
        <ele>508.2</ele>
        <time>2019-07-10T14:43:59Z</time>
      </trkpt>
      <trkpt lat="43.93249" lon="3.6081">
        <ele>508.4</ele>
        <time>2019-07-10T14:44:01Z</time>
      </trkpt>
      <trkpt lat="43.93237" lon="3.60813">
        <ele>509</ele>
        <time>2019-07-10T14:44:06Z</time>
      </trkpt>
      <trkpt lat="43.93226" lon="3.60824">
        <ele>509.2</ele>
        <time>2019-07-10T14:44:12Z</time>
      </trkpt>
      <trkpt lat="43.93221" lon="3.60835">
        <ele>509.8</ele>
        <time>2019-07-10T14:44:17Z</time>
      </trkpt>
      <trkpt lat="43.93221" lon="3.60837">
        <ele>509.8</ele>
        <time>2019-07-10T14:44:18Z</time>
      </trkpt>
      <trkpt lat="43.93216" lon="3.60851">
        <ele>510.4</ele>
        <time>2019-07-10T14:44:24Z</time>
      </trkpt>
      <trkpt lat="43.93213" lon="3.60855">
        <ele>510.4</ele>
        <time>2019-07-10T14:44:26Z</time>
      </trkpt>
      <trkpt lat="43.93202" lon="3.60866">
        <ele>511.6</ele>
        <time>2019-07-10T14:44:34Z</time>
      </trkpt>
      <trkpt lat="43.932" lon="3.60867">
        <ele>511.8</ele>
        <time>2019-07-10T14:44:35Z</time>
      </trkpt>
      <trkpt lat="43.9319" lon="3.60872">
        <ele>512.4</ele>
        <time>2019-07-10T14:44:41Z</time>
      </trkpt>
      <trkpt lat="43.93181" lon="3.60875">
        <ele>513</ele>
        <time>2019-07-10T14:44:46Z</time>
      </trkpt>
      <trkpt lat="43.93177" lon="3.60875">
        <ele>513.2</ele>
        <time>2019-07-10T14:44:48Z</time>
      </trkpt>
      <trkpt lat="43.93159" lon="3.60877">
        <ele>514.4</ele>
        <time>2019-07-10T14:44:57Z</time>
      </trkpt>
      <trkpt lat="43.93146" lon="3.60878">
        <ele>515</ele>
        <time>2019-07-10T14:45:04Z</time>
      </trkpt>
      <trkpt lat="43.93131" lon="3.60881">
        <ele>515.8</ele>
        <time>2019-07-10T14:45:12Z</time>
      </trkpt>
      <trkpt lat="43.93127" lon="3.60883">
        <ele>516</ele>
        <time>2019-07-10T14:45:14Z</time>
      </trkpt>
      <trkpt lat="43.93119" lon="3.60889">
        <ele>516.2</ele>
        <time>2019-07-10T14:45:19Z</time>
      </trkpt>
      <trkpt lat="43.93112" lon="3.60895">
        <ele>516.6</ele>
        <time>2019-07-10T14:45:23Z</time>
      </trkpt>
      <trkpt lat="43.93106" lon="3.60905">
        <ele>517</ele>
        <time>2019-07-10T14:45:27Z</time>
      </trkpt>
      <trkpt lat="43.931" lon="3.60925">
        <ele>517.6</ele>
        <time>2019-07-10T14:45:34Z</time>
      </trkpt>
      <trkpt lat="43.93098" lon="3.6093">
        <ele>517.6</ele>
        <time>2019-07-10T14:45:36Z</time>
      </trkpt>
      <trkpt lat="43.93095" lon="3.60945">
        <ele>518.6</ele>
        <time>2019-07-10T14:45:42Z</time>
      </trkpt>
      <trkpt lat="43.93095" lon="3.6095">
        <ele>518.8</ele>
        <time>2019-07-10T14:45:44Z</time>
      </trkpt>
      <trkpt lat="43.93088" lon="3.60971">
        <ele>519.6</ele>
        <time>2019-07-10T14:45:52Z</time>
      </trkpt>
      <trkpt lat="43.93082" lon="3.60981">
        <ele>520.2</ele>
        <time>2019-07-10T14:45:57Z</time>
      </trkpt>
      <trkpt lat="43.93079" lon="3.60985">
        <ele>520.6</ele>
        <time>2019-07-10T14:45:59Z</time>
      </trkpt>
      <trkpt lat="43.93073" lon="3.60992">
        <ele>521.2</ele>
        <time>2019-07-10T14:46:05Z</time>
      </trkpt>
      <trkpt lat="43.93073" lon="3.60992">
        <ele>521.4</ele>
        <time>2019-07-10T14:46:06Z</time>
      </trkpt>
      <trkpt lat="43.9307" lon="3.60995">
        <ele>522</ele>
        <time>2019-07-10T14:47:46Z</time>
      </trkpt>
      <trkpt lat="43.93065" lon="3.61">
        <ele>521.8</ele>
        <time>2019-07-10T14:47:49Z</time>
      </trkpt>
      <trkpt lat="43.93063" lon="3.61001">
        <ele>521.8</ele>
        <time>2019-07-10T14:47:50Z</time>
      </trkpt>
      <trkpt lat="43.93061" lon="3.61004">
        <ele>521.8</ele>
        <time>2019-07-10T14:47:51Z</time>
      </trkpt>
      <trkpt lat="43.93057" lon="3.61008">
        <ele>521.8</ele>
        <time>2019-07-10T14:47:53Z</time>
      </trkpt>
      <trkpt lat="43.93056" lon="3.61009">
        <ele>522</ele>
        <time>2019-07-10T14:47:54Z</time>
      </trkpt>
      <trkpt lat="43.93054" lon="3.61011">
        <ele>521.8</ele>
        <time>2019-07-10T14:47:55Z</time>
      </trkpt>
      <trkpt lat="43.93047" lon="3.61017">
        <ele>522.6</ele>
        <time>2019-07-10T14:47:59Z</time>
      </trkpt>
      <trkpt lat="43.9304" lon="3.61026">
        <ele>523</ele>
        <time>2019-07-10T14:48:04Z</time>
      </trkpt>
      <trkpt lat="43.93034" lon="3.61031">
        <ele>523.2</ele>
        <time>2019-07-10T14:48:07Z</time>
      </trkpt>
      <trkpt lat="43.93025" lon="3.61039">
        <ele>524</ele>
        <time>2019-07-10T14:48:12Z</time>
      </trkpt>
      <trkpt lat="43.93018" lon="3.61045">
        <ele>524.8</ele>
        <time>2019-07-10T14:48:16Z</time>
      </trkpt>
      <trkpt lat="43.93007" lon="3.61054">
        <ele>525.4</ele>
        <time>2019-07-10T14:48:22Z</time>
      </trkpt>
      <trkpt lat="43.93003" lon="3.61056">
        <ele>525.8</ele>
        <time>2019-07-10T14:48:24Z</time>
      </trkpt>
      <trkpt lat="43.9299" lon="3.61059">
        <ele>526.6</ele>
        <time>2019-07-10T14:48:30Z</time>
      </trkpt>
      <trkpt lat="43.92976" lon="3.61055">
        <ele>527.4</ele>
        <time>2019-07-10T14:48:37Z</time>
      </trkpt>
      <trkpt lat="43.92974" lon="3.61054">
        <ele>527.6</ele>
        <time>2019-07-10T14:48:38Z</time>
      </trkpt>
      <trkpt lat="43.92963" lon="3.61044">
        <ele>528.4</ele>
        <time>2019-07-10T14:48:45Z</time>
      </trkpt>
      <trkpt lat="43.92957" lon="3.61033">
        <ele>529.6</ele>
        <time>2019-07-10T14:48:52Z</time>
      </trkpt>
      <trkpt lat="43.92955" lon="3.61025">
        <ele>530</ele>
        <time>2019-07-10T14:48:56Z</time>
      </trkpt>
      <trkpt lat="43.92954" lon="3.61019">
        <ele>530.2</ele>
        <time>2019-07-10T14:48:59Z</time>
      </trkpt>
      <trkpt lat="43.92955" lon="3.61004">
        <ele>531</ele>
        <time>2019-07-10T14:49:06Z</time>
      </trkpt>
      <trkpt lat="43.92952" lon="3.60986">
        <ele>531.6</ele>
        <time>2019-07-10T14:49:12Z</time>
      </trkpt>
      <trkpt lat="43.9295" lon="3.60976">
        <ele>532</ele>
        <time>2019-07-10T14:49:15Z</time>
      </trkpt>
      <trkpt lat="43.9295" lon="3.60966">
        <ele>532.2</ele>
        <time>2019-07-10T14:49:18Z</time>
      </trkpt>
      <trkpt lat="43.92951" lon="3.60941">
        <ele>533</ele>
        <time>2019-07-10T14:49:26Z</time>
      </trkpt>
      <trkpt lat="43.92952" lon="3.60936">
        <ele>533.2</ele>
        <time>2019-07-10T14:49:28Z</time>
      </trkpt>
      <trkpt lat="43.92955" lon="3.60919">
        <ele>533.8</ele>
        <time>2019-07-10T14:49:34Z</time>
      </trkpt>
      <trkpt lat="43.9295" lon="3.609">
        <ele>534.6</ele>
        <time>2019-07-10T14:49:41Z</time>
      </trkpt>
      <trkpt lat="43.92941" lon="3.60888">
        <ele>535.4</ele>
        <time>2019-07-10T14:49:47Z</time>
      </trkpt>
      <trkpt lat="43.92937" lon="3.60885">
        <ele>535.6</ele>
        <time>2019-07-10T14:49:49Z</time>
      </trkpt>
      <trkpt lat="43.92923" lon="3.60879">
        <ele>537</ele>
        <time>2019-07-10T14:49:56Z</time>
      </trkpt>
      <trkpt lat="43.92913" lon="3.60877">
        <ele>537.4</ele>
        <time>2019-07-10T14:50:00Z</time>
      </trkpt>
      <trkpt lat="43.92901" lon="3.60874">
        <ele>537.8</ele>
        <time>2019-07-10T14:50:05Z</time>
      </trkpt>
      <trkpt lat="43.92889" lon="3.60868">
        <ele>538.4</ele>
        <time>2019-07-10T14:50:12Z</time>
      </trkpt>
      <trkpt lat="43.92887" lon="3.60867">
        <ele>538.6</ele>
        <time>2019-07-10T14:50:13Z</time>
      </trkpt>
      <trkpt lat="43.92876" lon="3.60859">
        <ele>539.2</ele>
        <time>2019-07-10T14:50:19Z</time>
      </trkpt>
      <trkpt lat="43.92874" lon="3.60858">
        <ele>539.4</ele>
        <time>2019-07-10T14:50:20Z</time>
      </trkpt>
      <trkpt lat="43.92858" lon="3.60848">
        <ele>540.4</ele>
        <time>2019-07-10T14:50:28Z</time>
      </trkpt>
      <trkpt lat="43.92856" lon="3.60847">
        <ele>540.6</ele>
        <time>2019-07-10T14:50:29Z</time>
      </trkpt>
      <trkpt lat="43.92842" lon="3.60834">
        <ele>541</ele>
        <time>2019-07-10T14:50:36Z</time>
      </trkpt>
      <trkpt lat="43.92828" lon="3.60821">
        <ele>541.6</ele>
        <time>2019-07-10T14:50:43Z</time>
      </trkpt>
      <trkpt lat="43.92823" lon="3.60816">
        <ele>542</ele>
        <time>2019-07-10T14:50:46Z</time>
      </trkpt>
      <trkpt lat="43.92816" lon="3.60805">
        <ele>542.8</ele>
        <time>2019-07-10T14:50:52Z</time>
      </trkpt>
      <trkpt lat="43.92815" lon="3.60803">
        <ele>542.8</ele>
        <time>2019-07-10T14:50:53Z</time>
      </trkpt>
      <trkpt lat="43.92813" lon="3.60798">
        <ele>543.2</ele>
        <time>2019-07-10T14:50:56Z</time>
      </trkpt>
      <trkpt lat="43.92811" lon="3.60794">
        <ele>543.6</ele>
        <time>2019-07-10T14:50:59Z</time>
      </trkpt>
      <trkpt lat="43.92808" lon="3.60786">
        <ele>544.4</ele>
        <time>2019-07-10T14:51:03Z</time>
      </trkpt>
      <trkpt lat="43.92807" lon="3.60783">
        <ele>544.6</ele>
        <time>2019-07-10T14:51:05Z</time>
      </trkpt>
      <trkpt lat="43.92806" lon="3.60781">
        <ele>545</ele>
        <time>2019-07-10T14:51:06Z</time>
      </trkpt>
      <trkpt lat="43.92803" lon="3.60776">
        <ele>545</ele>
        <time>2019-07-10T14:51:08Z</time>
      </trkpt>
      <trkpt lat="43.928" lon="3.60772">
        <ele>545.2</ele>
        <time>2019-07-10T14:51:10Z</time>
      </trkpt>
      <trkpt lat="43.92794" lon="3.6076">
        <ele>545.6</ele>
        <time>2019-07-10T14:51:15Z</time>
      </trkpt>
      <trkpt lat="43.92791" lon="3.60754">
        <ele>546</ele>
        <time>2019-07-10T14:51:17Z</time>
      </trkpt>
      <trkpt lat="43.92783" lon="3.60734">
        <ele>546.6</ele>
        <time>2019-07-10T14:51:24Z</time>
      </trkpt>
      <trkpt lat="43.92779" lon="3.60727">
        <ele>547.2</ele>
        <time>2019-07-10T14:51:27Z</time>
      </trkpt>
      <trkpt lat="43.92775" lon="3.60717">
        <ele>547.6</ele>
        <time>2019-07-10T14:51:31Z</time>
      </trkpt>
      <trkpt lat="43.92771" lon="3.6071">
        <ele>547.8</ele>
        <time>2019-07-10T14:51:34Z</time>
      </trkpt>
      <trkpt lat="43.92762" lon="3.60693">
        <ele>548.6</ele>
        <time>2019-07-10T14:51:41Z</time>
      </trkpt>
      <trkpt lat="43.92761" lon="3.6069">
        <ele>548.8</ele>
        <time>2019-07-10T14:51:42Z</time>
      </trkpt>
      <trkpt lat="43.92753" lon="3.60682">
        <ele>549.4</ele>
        <time>2019-07-10T14:51:47Z</time>
      </trkpt>
      <trkpt lat="43.92743" lon="3.60668">
        <ele>550.4</ele>
        <time>2019-07-10T14:51:55Z</time>
      </trkpt>
      <trkpt lat="43.92741" lon="3.60663">
        <ele>550.6</ele>
        <time>2019-07-10T14:51:57Z</time>
      </trkpt>
      <trkpt lat="43.92741" lon="3.60654">
        <ele>550.8</ele>
        <time>2019-07-10T14:52:00Z</time>
      </trkpt>
      <trkpt lat="43.92741" lon="3.60648">
        <ele>551</ele>
        <time>2019-07-10T14:52:02Z</time>
      </trkpt>
      <trkpt lat="43.92744" lon="3.60641">
        <ele>551.4</ele>
        <time>2019-07-10T14:52:05Z</time>
      </trkpt>
      <trkpt lat="43.92745" lon="3.60637">
        <ele>551.6</ele>
        <time>2019-07-10T14:52:06Z</time>
      </trkpt>
      <trkpt lat="43.92751" lon="3.60616">
        <ele>552.4</ele>
        <time>2019-07-10T14:52:14Z</time>
      </trkpt>
      <trkpt lat="43.92753" lon="3.60601">
        <ele>553.2</ele>
        <time>2019-07-10T14:52:20Z</time>
      </trkpt>
      <trkpt lat="43.92758" lon="3.60581">
        <ele>553.6</ele>
        <time>2019-07-10T14:52:27Z</time>
      </trkpt>
      <trkpt lat="43.92759" lon="3.6057">
        <ele>553.8</ele>
        <time>2019-07-10T14:52:31Z</time>
      </trkpt>
      <trkpt lat="43.92759" lon="3.60564">
        <ele>554</ele>
        <time>2019-07-10T14:52:33Z</time>
      </trkpt>
      <trkpt lat="43.92759" lon="3.60561">
        <ele>554</ele>
        <time>2019-07-10T14:52:34Z</time>
      </trkpt>
      <trkpt lat="43.92755" lon="3.60548">
        <ele>554.4</ele>
        <time>2019-07-10T14:52:38Z</time>
      </trkpt>
      <trkpt lat="43.92753" lon="3.6054">
        <ele>555.2</ele>
        <time>2019-07-10T14:52:41Z</time>
      </trkpt>
      <trkpt lat="43.92747" lon="3.60532">
        <ele>555.4</ele>
        <time>2019-07-10T14:52:45Z</time>
      </trkpt>
      <trkpt lat="43.92732" lon="3.6053">
        <ele>556.2</ele>
        <time>2019-07-10T14:52:52Z</time>
      </trkpt>
      <trkpt lat="43.92722" lon="3.60535">
        <ele>556.6</ele>
        <time>2019-07-10T14:52:57Z</time>
      </trkpt>
      <trkpt lat="43.92715" lon="3.60536">
        <ele>557.2</ele>
        <time>2019-07-10T14:53:00Z</time>
      </trkpt>
      <trkpt lat="43.92704" lon="3.60532">
        <ele>557.6</ele>
        <time>2019-07-10T14:53:05Z</time>
      </trkpt>
      <trkpt lat="43.92702" lon="3.60531">
        <ele>557.8</ele>
        <time>2019-07-10T14:53:06Z</time>
      </trkpt>
      <trkpt lat="43.92699" lon="3.60525">
        <ele>558.4</ele>
        <time>2019-07-10T14:53:10Z</time>
      </trkpt>
      <trkpt lat="43.92699" lon="3.6052">
        <ele>558.8</ele>
        <time>2019-07-10T14:53:12Z</time>
      </trkpt>
      <trkpt lat="43.92699" lon="3.60515">
        <ele>559</ele>
        <time>2019-07-10T14:53:14Z</time>
      </trkpt>
      <trkpt lat="43.927" lon="3.60514">
        <ele>559.2</ele>
        <time>2019-07-10T14:53:15Z</time>
      </trkpt>
      <trkpt lat="43.92701" lon="3.60512">
        <ele>559.2</ele>
        <time>2019-07-10T14:53:16Z</time>
      </trkpt>
      <trkpt lat="43.92702" lon="3.60506">
        <ele>559.6</ele>
        <time>2019-07-10T14:53:19Z</time>
      </trkpt>
      <trkpt lat="43.92704" lon="3.60504">
        <ele>559.8</ele>
        <time>2019-07-10T14:53:20Z</time>
      </trkpt>
      <trkpt lat="43.92704" lon="3.60502">
        <ele>559.8</ele>
        <time>2019-07-10T14:53:21Z</time>
      </trkpt>
      <trkpt lat="43.92705" lon="3.60497">
        <ele>560</ele>
        <time>2019-07-10T14:53:23Z</time>
      </trkpt>
      <trkpt lat="43.92706" lon="3.60495">
        <ele>560</ele>
        <time>2019-07-10T14:53:24Z</time>
      </trkpt>
      <trkpt lat="43.92705" lon="3.60486">
        <ele>560.6</ele>
        <time>2019-07-10T14:53:27Z</time>
      </trkpt>
      <trkpt lat="43.92705" lon="3.60483">
        <ele>560.6</ele>
        <time>2019-07-10T14:53:28Z</time>
      </trkpt>
      <trkpt lat="43.92705" lon="3.6048">
        <ele>560.8</ele>
        <time>2019-07-10T14:53:29Z</time>
      </trkpt>
      <trkpt lat="43.92705" lon="3.60474">
        <ele>560.8</ele>
        <time>2019-07-10T14:53:31Z</time>
      </trkpt>
      <trkpt lat="43.92706" lon="3.60462">
        <ele>561.6</ele>
        <time>2019-07-10T14:53:36Z</time>
      </trkpt>
      <trkpt lat="43.92706" lon="3.60455">
        <ele>561.8</ele>
        <time>2019-07-10T14:53:38Z</time>
      </trkpt>
      <trkpt lat="43.92705" lon="3.60452">
        <ele>561.8</ele>
        <time>2019-07-10T14:53:39Z</time>
      </trkpt>
      <trkpt lat="43.92705" lon="3.60449">
        <ele>562</ele>
        <time>2019-07-10T14:53:40Z</time>
      </trkpt>
      <trkpt lat="43.92702" lon="3.60438">
        <ele>562.4</ele>
        <time>2019-07-10T14:53:44Z</time>
      </trkpt>
      <trkpt lat="43.927" lon="3.60429">
        <ele>562.8</ele>
        <time>2019-07-10T14:53:47Z</time>
      </trkpt>
      <trkpt lat="43.92699" lon="3.60426">
        <ele>562.8</ele>
        <time>2019-07-10T14:53:48Z</time>
      </trkpt>
      <trkpt lat="43.92699" lon="3.60424">
        <ele>563</ele>
        <time>2019-07-10T14:53:49Z</time>
      </trkpt>
      <trkpt lat="43.92699" lon="3.60422">
        <ele>563.2</ele>
        <time>2019-07-10T14:53:50Z</time>
      </trkpt>
      <trkpt lat="43.927" lon="3.60416">
        <ele>563.6</ele>
        <time>2019-07-10T14:53:53Z</time>
      </trkpt>
      <trkpt lat="43.927" lon="3.60409">
        <ele>563.8</ele>
        <time>2019-07-10T14:53:56Z</time>
      </trkpt>
      <trkpt lat="43.92698" lon="3.60401">
        <ele>563.8</ele>
        <time>2019-07-10T14:53:58Z</time>
      </trkpt>
      <trkpt lat="43.92696" lon="3.60395">
        <ele>564</ele>
        <time>2019-07-10T14:54:00Z</time>
      </trkpt>
      <trkpt lat="43.92694" lon="3.60391">
        <ele>564.2</ele>
        <time>2019-07-10T14:54:01Z</time>
      </trkpt>
      <trkpt lat="43.92691" lon="3.60386">
        <ele>564.2</ele>
        <time>2019-07-10T14:54:03Z</time>
      </trkpt>
      <trkpt lat="43.9269" lon="3.60378">
        <ele>564.6</ele>
        <time>2019-07-10T14:54:06Z</time>
      </trkpt>
      <trkpt lat="43.92687" lon="3.60369">
        <ele>565</ele>
        <time>2019-07-10T14:54:09Z</time>
      </trkpt>
      <trkpt lat="43.92685" lon="3.6036">
        <ele>565.6</ele>
        <time>2019-07-10T14:54:12Z</time>
      </trkpt>
      <trkpt lat="43.9268" lon="3.60351">
        <ele>565.6</ele>
        <time>2019-07-10T14:54:15Z</time>
      </trkpt>
      <trkpt lat="43.92673" lon="3.60331">
        <ele>566.6</ele>
        <time>2019-07-10T14:54:22Z</time>
      </trkpt>
      <trkpt lat="43.92671" lon="3.60317">
        <ele>567.2</ele>
        <time>2019-07-10T14:54:27Z</time>
      </trkpt>
      <trkpt lat="43.9267" lon="3.6031">
        <ele>567.2</ele>
        <time>2019-07-10T14:54:29Z</time>
      </trkpt>
      <trkpt lat="43.92669" lon="3.60304">
        <ele>567.4</ele>
        <time>2019-07-10T14:54:31Z</time>
      </trkpt>
      <trkpt lat="43.9267" lon="3.60301">
        <ele>567.4</ele>
        <time>2019-07-10T14:54:32Z</time>
      </trkpt>
      <trkpt lat="43.92672" lon="3.60297">
        <ele>567.8</ele>
        <time>2019-07-10T14:54:34Z</time>
      </trkpt>
      <trkpt lat="43.92673" lon="3.60296">
        <ele>568.2</ele>
        <time>2019-07-10T14:54:35Z</time>
      </trkpt>
      <trkpt lat="43.92677" lon="3.60294">
        <ele>568.2</ele>
        <time>2019-07-10T14:54:37Z</time>
      </trkpt>
      <trkpt lat="43.92683" lon="3.6029">
        <ele>568.8</ele>
        <time>2019-07-10T14:54:40Z</time>
      </trkpt>
      <trkpt lat="43.9269" lon="3.60286">
        <ele>569.4</ele>
        <time>2019-07-10T14:54:44Z</time>
      </trkpt>
      <trkpt lat="43.92698" lon="3.60279">
        <ele>570</ele>
        <time>2019-07-10T14:54:49Z</time>
      </trkpt>
      <trkpt lat="43.92699" lon="3.60277">
        <ele>570</ele>
        <time>2019-07-10T14:54:50Z</time>
      </trkpt>
      <trkpt lat="43.92712" lon="3.60269">
        <ele>571.2</ele>
        <time>2019-07-10T14:54:57Z</time>
      </trkpt>
      <trkpt lat="43.92721" lon="3.6026">
        <ele>571.8</ele>
        <time>2019-07-10T14:55:03Z</time>
      </trkpt>
      <trkpt lat="43.92736" lon="3.60248">
        <ele>572.6</ele>
        <time>2019-07-10T14:55:11Z</time>
      </trkpt>
      <trkpt lat="43.92742" lon="3.60242">
        <ele>573</ele>
        <time>2019-07-10T14:55:15Z</time>
      </trkpt>
      <trkpt lat="43.92744" lon="3.6024">
        <ele>573.2</ele>
        <time>2019-07-10T14:55:16Z</time>
      </trkpt>
      <trkpt lat="43.92746" lon="3.60238">
        <ele>573.2</ele>
        <time>2019-07-10T14:55:17Z</time>
      </trkpt>
      <trkpt lat="43.92751" lon="3.60233">
        <ele>573.6</ele>
        <time>2019-07-10T14:55:20Z</time>
      </trkpt>
      <trkpt lat="43.92753" lon="3.60229">
        <ele>573.8</ele>
        <time>2019-07-10T14:55:22Z</time>
      </trkpt>
      <trkpt lat="43.9276" lon="3.60218">
        <ele>574.4</ele>
        <time>2019-07-10T14:55:27Z</time>
      </trkpt>
      <trkpt lat="43.92762" lon="3.60216">
        <ele>574.6</ele>
        <time>2019-07-10T14:55:28Z</time>
      </trkpt>
      <trkpt lat="43.92765" lon="3.60208">
        <ele>575.2</ele>
        <time>2019-07-10T14:55:31Z</time>
      </trkpt>
      <trkpt lat="43.9277" lon="3.60201">
        <ele>575.4</ele>
        <time>2019-07-10T14:55:34Z</time>
      </trkpt>
      <trkpt lat="43.92775" lon="3.60196">
        <ele>575.6</ele>
        <time>2019-07-10T14:55:37Z</time>
      </trkpt>
      <trkpt lat="43.92778" lon="3.60193">
        <ele>575.8</ele>
        <time>2019-07-10T14:55:39Z</time>
      </trkpt>
      <trkpt lat="43.92784" lon="3.60187">
        <ele>576.2</ele>
        <time>2019-07-10T14:55:43Z</time>
      </trkpt>
      <trkpt lat="43.92787" lon="3.60185">
        <ele>576.4</ele>
        <time>2019-07-10T14:55:45Z</time>
      </trkpt>
      <trkpt lat="43.92793" lon="3.60181">
        <ele>577.2</ele>
        <time>2019-07-10T14:55:48Z</time>
      </trkpt>
      <trkpt lat="43.92796" lon="3.60173">
        <ele>577.8</ele>
        <time>2019-07-10T14:55:51Z</time>
      </trkpt>
      <trkpt lat="43.92798" lon="3.60157">
        <ele>578</ele>
        <time>2019-07-10T14:55:57Z</time>
      </trkpt>
      <trkpt lat="43.92799" lon="3.60155">
        <ele>578.2</ele>
        <time>2019-07-10T14:55:58Z</time>
      </trkpt>
      <trkpt lat="43.92799" lon="3.60143">
        <ele>578.2</ele>
        <time>2019-07-10T14:56:02Z</time>
      </trkpt>
      <trkpt lat="43.928" lon="3.60141">
        <ele>578.4</ele>
        <time>2019-07-10T14:56:03Z</time>
      </trkpt>
      <trkpt lat="43.92798" lon="3.60129">
        <ele>578.8</ele>
        <time>2019-07-10T14:56:07Z</time>
      </trkpt>
      <trkpt lat="43.92798" lon="3.60127">
        <ele>578.6</ele>
        <time>2019-07-10T14:56:08Z</time>
      </trkpt>
      <trkpt lat="43.92798" lon="3.60125">
        <ele>578.8</ele>
        <time>2019-07-10T14:56:09Z</time>
      </trkpt>
      <trkpt lat="43.92795" lon="3.60115">
        <ele>579.4</ele>
        <time>2019-07-10T14:56:13Z</time>
      </trkpt>
      <trkpt lat="43.92787" lon="3.60099">
        <ele>580.4</ele>
        <time>2019-07-10T14:56:19Z</time>
      </trkpt>
      <trkpt lat="43.92784" lon="3.60093">
        <ele>580.6</ele>
        <time>2019-07-10T14:56:22Z</time>
      </trkpt>
      <trkpt lat="43.92782" lon="3.6009">
        <ele>580.6</ele>
        <time>2019-07-10T14:56:23Z</time>
      </trkpt>
      <trkpt lat="43.92779" lon="3.60085">
        <ele>580.8</ele>
        <time>2019-07-10T14:56:25Z</time>
      </trkpt>
      <trkpt lat="43.92776" lon="3.60076">
        <ele>580.8</ele>
        <time>2019-07-10T14:56:29Z</time>
      </trkpt>
      <trkpt lat="43.92775" lon="3.60074">
        <ele>581</ele>
        <time>2019-07-10T14:56:30Z</time>
      </trkpt>
      <trkpt lat="43.92774" lon="3.60072">
        <ele>581</ele>
        <time>2019-07-10T14:56:31Z</time>
      </trkpt>
      <trkpt lat="43.92774" lon="3.60069">
        <ele>581.2</ele>
        <time>2019-07-10T14:56:32Z</time>
      </trkpt>
      <trkpt lat="43.92772" lon="3.60061">
        <ele>581.2</ele>
        <time>2019-07-10T14:56:34Z</time>
      </trkpt>
      <trkpt lat="43.9277" lon="3.60054">
        <ele>581.2</ele>
        <time>2019-07-10T14:56:36Z</time>
      </trkpt>
      <trkpt lat="43.92764" lon="3.60027">
        <ele>582</ele>
        <time>2019-07-10T14:56:44Z</time>
      </trkpt>
      <trkpt lat="43.92762" lon="3.60016">
        <ele>582</ele>
        <time>2019-07-10T14:56:47Z</time>
      </trkpt>
      <trkpt lat="43.92762" lon="3.60013">
        <ele>582.2</ele>
        <time>2019-07-10T14:56:48Z</time>
      </trkpt>
      <trkpt lat="43.92763" lon="3.60003">
        <ele>582.2</ele>
        <time>2019-07-10T14:56:51Z</time>
      </trkpt>
      <trkpt lat="43.92768" lon="3.59987">
        <ele>582.6</ele>
        <time>2019-07-10T14:56:56Z</time>
      </trkpt>
      <trkpt lat="43.92771" lon="3.59971">
        <ele>583</ele>
        <time>2019-07-10T14:57:01Z</time>
      </trkpt>
      <trkpt lat="43.92769" lon="3.59965">
        <ele>583.2</ele>
        <time>2019-07-10T14:57:03Z</time>
      </trkpt>
      <trkpt lat="43.92766" lon="3.59957">
        <ele>583.2</ele>
        <time>2019-07-10T14:57:06Z</time>
      </trkpt>
      <trkpt lat="43.9276" lon="3.59951">
        <ele>583.2</ele>
        <time>2019-07-10T14:57:09Z</time>
      </trkpt>
      <trkpt lat="43.92747" lon="3.59947">
        <ele>583.4</ele>
        <time>2019-07-10T14:57:15Z</time>
      </trkpt>
      <trkpt lat="43.92733" lon="3.59952">
        <ele>583.4</ele>
        <time>2019-07-10T14:57:22Z</time>
      </trkpt>
      <trkpt lat="43.92728" lon="3.59954">
        <ele>583.8</ele>
        <time>2019-07-10T14:57:25Z</time>
      </trkpt>
      <trkpt lat="43.92726" lon="3.59955">
        <ele>583.8</ele>
        <time>2019-07-10T14:57:26Z</time>
      </trkpt>
      <trkpt lat="43.92722" lon="3.59955">
        <ele>583.8</ele>
        <time>2019-07-10T14:57:27Z</time>
      </trkpt>
      <trkpt lat="43.92709" lon="3.59955">
        <ele>584.2</ele>
        <time>2019-07-10T14:57:32Z</time>
      </trkpt>
      <trkpt lat="43.927" lon="3.59955">
        <ele>584.4</ele>
        <time>2019-07-10T14:57:35Z</time>
      </trkpt>
      <trkpt lat="43.92698" lon="3.59954">
        <ele>584.4</ele>
        <time>2019-07-10T14:57:36Z</time>
      </trkpt>
      <trkpt lat="43.92695" lon="3.59954">
        <ele>584.2</ele>
        <time>2019-07-10T14:57:37Z</time>
      </trkpt>
      <trkpt lat="43.9268" lon="3.59952">
        <ele>584.8</ele>
        <time>2019-07-10T14:57:43Z</time>
      </trkpt>
      <trkpt lat="43.92665" lon="3.59948">
        <ele>585.4</ele>
        <time>2019-07-10T14:57:49Z</time>
      </trkpt>
      <trkpt lat="43.92662" lon="3.59947">
        <ele>585.4</ele>
        <time>2019-07-10T14:57:50Z</time>
      </trkpt>
      <trkpt lat="43.92656" lon="3.59945">
        <ele>585.6</ele>
        <time>2019-07-10T14:57:53Z</time>
      </trkpt>
      <trkpt lat="43.92642" lon="3.5994">
        <ele>585.8</ele>
        <time>2019-07-10T14:57:58Z</time>
      </trkpt>
      <trkpt lat="43.92636" lon="3.59936">
        <ele>586.2</ele>
        <time>2019-07-10T14:58:01Z</time>
      </trkpt>
      <trkpt lat="43.92626" lon="3.59932">
        <ele>586.6</ele>
        <time>2019-07-10T14:58:05Z</time>
      </trkpt>
      <trkpt lat="43.92612" lon="3.59924">
        <ele>587.2</ele>
        <time>2019-07-10T14:58:11Z</time>
      </trkpt>
      <trkpt lat="43.92607" lon="3.59916">
        <ele>587.4</ele>
        <time>2019-07-10T14:58:16Z</time>
      </trkpt>
      <trkpt lat="43.92604" lon="3.5991">
        <ele>587.2</ele>
        <time>2019-07-10T14:58:18Z</time>
      </trkpt>
      <trkpt lat="43.92605" lon="3.59901">
        <ele>587.2</ele>
        <time>2019-07-10T14:58:21Z</time>
      </trkpt>
      <trkpt lat="43.92606" lon="3.59898">
        <ele>587.2</ele>
        <time>2019-07-10T14:58:22Z</time>
      </trkpt>
      <trkpt lat="43.92608" lon="3.59884">
        <ele>587.6</ele>
        <time>2019-07-10T14:58:26Z</time>
      </trkpt>
      <trkpt lat="43.92611" lon="3.59871">
        <ele>587.6</ele>
        <time>2019-07-10T14:58:30Z</time>
      </trkpt>
      <trkpt lat="43.92614" lon="3.59847">
        <ele>587.6</ele>
        <time>2019-07-10T14:58:37Z</time>
      </trkpt>
      <trkpt lat="43.92614" lon="3.59823">
        <ele>587.6</ele>
        <time>2019-07-10T14:58:44Z</time>
      </trkpt>
      <trkpt lat="43.92614" lon="3.59819">
        <ele>587.6</ele>
        <time>2019-07-10T14:58:45Z</time>
      </trkpt>
      <trkpt lat="43.92613" lon="3.59808">
        <ele>587.6</ele>
        <time>2019-07-10T14:58:48Z</time>
      </trkpt>
      <trkpt lat="43.92613" lon="3.59805">
        <ele>587.4</ele>
        <time>2019-07-10T14:58:49Z</time>
      </trkpt>
      <trkpt lat="43.92615" lon="3.59798">
        <ele>587.6</ele>
        <time>2019-07-10T14:58:51Z</time>
      </trkpt>
      <trkpt lat="43.92616" lon="3.5979">
        <ele>587.4</ele>
        <time>2019-07-10T14:58:53Z</time>
      </trkpt>
      <trkpt lat="43.9262" lon="3.59774">
        <ele>587</ele>
        <time>2019-07-10T14:58:58Z</time>
      </trkpt>
      <trkpt lat="43.92622" lon="3.5976">
        <ele>587</ele>
        <time>2019-07-10T14:59:02Z</time>
      </trkpt>
      <trkpt lat="43.92623" lon="3.59754">
        <ele>587.4</ele>
        <time>2019-07-10T14:59:04Z</time>
      </trkpt>
      <trkpt lat="43.92629" lon="3.59723">
        <ele>587.6</ele>
        <time>2019-07-10T14:59:12Z</time>
      </trkpt>
      <trkpt lat="43.92633" lon="3.59683">
        <ele>587.6</ele>
        <time>2019-07-10T14:59:21Z</time>
      </trkpt>
      <trkpt lat="43.92632" lon="3.59651">
        <ele>587.8</ele>
        <time>2019-07-10T14:59:28Z</time>
      </trkpt>
      <trkpt lat="43.9263" lon="3.59618">
        <ele>587.8</ele>
        <time>2019-07-10T14:59:35Z</time>
      </trkpt>
      <trkpt lat="43.9263" lon="3.59574">
        <ele>587.6</ele>
        <time>2019-07-10T14:59:44Z</time>
      </trkpt>
      <trkpt lat="43.92629" lon="3.59544">
        <ele>587.6</ele>
        <time>2019-07-10T14:59:51Z</time>
      </trkpt>
      <trkpt lat="43.92631" lon="3.59511">
        <ele>587.4</ele>
        <time>2019-07-10T14:59:58Z</time>
      </trkpt>
      <trkpt lat="43.92635" lon="3.59475">
        <ele>587.6</ele>
        <time>2019-07-10T15:00:07Z</time>
      </trkpt>
      <trkpt lat="43.92643" lon="3.59444">
        <ele>587.8</ele>
        <time>2019-07-10T15:00:14Z</time>
      </trkpt>
      <trkpt lat="43.92655" lon="3.59429">
        <ele>588</ele>
        <time>2019-07-10T15:00:19Z</time>
      </trkpt>
      <trkpt lat="43.92671" lon="3.59409">
        <ele>587.8</ele>
        <time>2019-07-10T15:00:26Z</time>
      </trkpt>
      <trkpt lat="43.92687" lon="3.59382">
        <ele>587.6</ele>
        <time>2019-07-10T15:00:35Z</time>
      </trkpt>
      <trkpt lat="43.92696" lon="3.59361">
        <ele>587</ele>
        <time>2019-07-10T15:00:41Z</time>
      </trkpt>
      <trkpt lat="43.92699" lon="3.59355">
        <ele>586.8</ele>
        <time>2019-07-10T15:00:43Z</time>
      </trkpt>
      <trkpt lat="43.92705" lon="3.59347">
        <ele>586.4</ele>
        <time>2019-07-10T15:00:48Z</time>
      </trkpt>
      <trkpt lat="43.92706" lon="3.59346">
        <ele>586.2</ele>
        <time>2019-07-10T15:00:49Z</time>
      </trkpt>
      <trkpt lat="43.92706" lon="3.59346">
        <ele>585.8</ele>
        <time>2019-07-10T15:00:51Z</time>
      </trkpt>
      <trkpt lat="43.92708" lon="3.5934">
        <ele>584.8</ele>
        <time>2019-07-10T15:01:03Z</time>
      </trkpt>
      <trkpt lat="43.92708" lon="3.59336">
        <ele>585</ele>
        <time>2019-07-10T15:01:07Z</time>
      </trkpt>
      <trkpt lat="43.92707" lon="3.59334">
        <ele>585</ele>
        <time>2019-07-10T15:01:08Z</time>
      </trkpt>
      <trkpt lat="43.92706" lon="3.59329">
        <ele>585.2</ele>
        <time>2019-07-10T15:01:10Z</time>
      </trkpt>
      <trkpt lat="43.92703" lon="3.59318">
        <ele>585.8</ele>
        <time>2019-07-10T15:01:15Z</time>
      </trkpt>
      <trkpt lat="43.92697" lon="3.59307">
        <ele>586</ele>
        <time>2019-07-10T15:01:20Z</time>
      </trkpt>
      <trkpt lat="43.92695" lon="3.59305">
        <ele>586.4</ele>
        <time>2019-07-10T15:01:23Z</time>
      </trkpt>
      <trkpt lat="43.92695" lon="3.59305">
        <ele>586.4</ele>
        <time>2019-07-10T15:01:24Z</time>
      </trkpt>
      <trkpt lat="43.9269" lon="3.59302">
        <ele>587</ele>
        <time>2019-07-10T15:02:31Z</time>
      </trkpt>
      <trkpt lat="43.92686" lon="3.59299">
        <ele>587</ele>
        <time>2019-07-10T15:02:33Z</time>
      </trkpt>
      <trkpt lat="43.9267" lon="3.59282">
        <ele>587.2</ele>
        <time>2019-07-10T15:02:39Z</time>
      </trkpt>
      <trkpt lat="43.92658" lon="3.59262">
        <ele>587.2</ele>
        <time>2019-07-10T15:02:45Z</time>
      </trkpt>
      <trkpt lat="43.92656" lon="3.59259">
        <ele>587.2</ele>
        <time>2019-07-10T15:02:46Z</time>
      </trkpt>
      <trkpt lat="43.92646" lon="3.59235">
        <ele>586.8</ele>
        <time>2019-07-10T15:02:53Z</time>
      </trkpt>
      <trkpt lat="43.92649" lon="3.5922">
        <ele>586.6</ele>
        <time>2019-07-10T15:02:58Z</time>
      </trkpt>
      <trkpt lat="43.92663" lon="3.59206">
        <ele>586.2</ele>
        <time>2019-07-10T15:03:04Z</time>
      </trkpt>
      <trkpt lat="43.92681" lon="3.59198">
        <ele>585.6</ele>
        <time>2019-07-10T15:03:10Z</time>
      </trkpt>
      <trkpt lat="43.92684" lon="3.59197">
        <ele>585.6</ele>
        <time>2019-07-10T15:03:11Z</time>
      </trkpt>
      <trkpt lat="43.92708" lon="3.59189">
        <ele>584.4</ele>
        <time>2019-07-10T15:03:18Z</time>
      </trkpt>
      <trkpt lat="43.92716" lon="3.59184">
        <ele>584.2</ele>
        <time>2019-07-10T15:03:21Z</time>
      </trkpt>
      <trkpt lat="43.92717" lon="3.5918">
        <ele>584</ele>
        <time>2019-07-10T15:03:22Z</time>
      </trkpt>
      <trkpt lat="43.92719" lon="3.59177">
        <ele>584</ele>
        <time>2019-07-10T15:03:23Z</time>
      </trkpt>
      <trkpt lat="43.92726" lon="3.59155">
        <ele>583.4</ele>
        <time>2019-07-10T15:03:28Z</time>
      </trkpt>
      <trkpt lat="43.9273" lon="3.59143">
        <ele>583</ele>
        <time>2019-07-10T15:03:30Z</time>
      </trkpt>
      <trkpt lat="43.92732" lon="3.59137">
        <ele>583</ele>
        <time>2019-07-10T15:03:31Z</time>
      </trkpt>
      <trkpt lat="43.92735" lon="3.59132">
        <ele>582.6</ele>
        <time>2019-07-10T15:03:32Z</time>
      </trkpt>
      <trkpt lat="43.92738" lon="3.59127">
        <ele>582.6</ele>
        <time>2019-07-10T15:03:33Z</time>
      </trkpt>
      <trkpt lat="43.92752" lon="3.59103">
        <ele>581.4</ele>
        <time>2019-07-10T15:03:39Z</time>
      </trkpt>
      <trkpt lat="43.92754" lon="3.591">
        <ele>581.2</ele>
        <time>2019-07-10T15:03:40Z</time>
      </trkpt>
      <trkpt lat="43.9276" lon="3.59087">
        <ele>580.8</ele>
        <time>2019-07-10T15:03:44Z</time>
      </trkpt>
      <trkpt lat="43.9276" lon="3.59072">
        <ele>580</ele>
        <time>2019-07-10T15:03:49Z</time>
      </trkpt>
      <trkpt lat="43.92756" lon="3.59068">
        <ele>579.6</ele>
        <time>2019-07-10T15:03:52Z</time>
      </trkpt>
      <trkpt lat="43.92752" lon="3.59066">
        <ele>579.2</ele>
        <time>2019-07-10T15:03:54Z</time>
      </trkpt>
      <trkpt lat="43.92737" lon="3.5906">
        <ele>579</ele>
        <time>2019-07-10T15:04:01Z</time>
      </trkpt>
      <trkpt lat="43.92735" lon="3.59057">
        <ele>579.2</ele>
        <time>2019-07-10T15:04:05Z</time>
      </trkpt>
      <trkpt lat="43.92738" lon="3.59063">
        <ele>579.4</ele>
        <time>2019-07-10T15:04:16Z</time>
      </trkpt>
      <trkpt lat="43.92741" lon="3.59064">
        <ele>579.4</ele>
        <time>2019-07-10T15:04:18Z</time>
      </trkpt>
      <trkpt lat="43.9275" lon="3.59066">
        <ele>579.2</ele>
        <time>2019-07-10T15:04:22Z</time>
      </trkpt>
      <trkpt lat="43.92755" lon="3.59068">
        <ele>579.2</ele>
        <time>2019-07-10T15:04:24Z</time>
      </trkpt>
      <trkpt lat="43.92761" lon="3.59063">
        <ele>579.2</ele>
        <time>2019-07-10T15:04:27Z</time>
      </trkpt>
      <trkpt lat="43.92763" lon="3.5906">
        <ele>579</ele>
        <time>2019-07-10T15:04:28Z</time>
      </trkpt>
      <trkpt lat="43.92774" lon="3.59043">
        <ele>578.6</ele>
        <time>2019-07-10T15:04:33Z</time>
      </trkpt>
      <trkpt lat="43.92781" lon="3.59035">
        <ele>578.6</ele>
        <time>2019-07-10T15:04:36Z</time>
      </trkpt>
      <trkpt lat="43.92795" lon="3.59018">
        <ele>578</ele>
        <time>2019-07-10T15:04:42Z</time>
      </trkpt>
      <trkpt lat="43.92808" lon="3.58994">
        <ele>578</ele>
        <time>2019-07-10T15:04:49Z</time>
      </trkpt>
      <trkpt lat="43.92816" lon="3.58968">
        <ele>578</ele>
        <time>2019-07-10T15:04:56Z</time>
      </trkpt>
      <trkpt lat="43.92818" lon="3.58945">
        <ele>578.2</ele>
        <time>2019-07-10T15:05:02Z</time>
      </trkpt>
      <trkpt lat="43.92826" lon="3.58922">
        <ele>578.2</ele>
        <time>2019-07-10T15:05:08Z</time>
      </trkpt>
      <trkpt lat="43.9283" lon="3.58916">
        <ele>578.2</ele>
        <time>2019-07-10T15:05:10Z</time>
      </trkpt>
      <trkpt lat="43.92833" lon="3.58915">
        <ele>578.2</ele>
        <time>2019-07-10T15:05:11Z</time>
      </trkpt>
      <trkpt lat="43.92839" lon="3.58913">
        <ele>578.4</ele>
        <time>2019-07-10T15:05:13Z</time>
      </trkpt>
      <trkpt lat="43.92855" lon="3.58916">
        <ele>578.2</ele>
        <time>2019-07-10T15:05:19Z</time>
      </trkpt>
      <trkpt lat="43.92874" lon="3.58923">
        <ele>577.8</ele>
        <time>2019-07-10T15:05:26Z</time>
      </trkpt>
      <trkpt lat="43.92879" lon="3.58936">
        <ele>577.8</ele>
        <time>2019-07-10T15:05:30Z</time>
      </trkpt>
      <trkpt lat="43.92879" lon="3.58964">
        <ele>577.8</ele>
        <time>2019-07-10T15:05:37Z</time>
      </trkpt>
      <trkpt lat="43.92878" lon="3.58968">
        <ele>577.6</ele>
        <time>2019-07-10T15:05:38Z</time>
      </trkpt>
      <trkpt lat="43.92873" lon="3.58989">
        <ele>577.2</ele>
        <time>2019-07-10T15:05:43Z</time>
      </trkpt>
      <trkpt lat="43.92873" lon="3.59015">
        <ele>576.6</ele>
        <time>2019-07-10T15:05:49Z</time>
      </trkpt>
      <trkpt lat="43.92876" lon="3.59036">
        <ele>576</ele>
        <time>2019-07-10T15:05:54Z</time>
      </trkpt>
      <trkpt lat="43.92877" lon="3.5904">
        <ele>576.2</ele>
        <time>2019-07-10T15:05:55Z</time>
      </trkpt>
      <trkpt lat="43.92884" lon="3.59063">
        <ele>575.6</ele>
        <time>2019-07-10T15:06:02Z</time>
      </trkpt>
      <trkpt lat="43.92893" lon="3.59066">
        <ele>575.2</ele>
        <time>2019-07-10T15:06:07Z</time>
      </trkpt>
      <trkpt lat="43.92895" lon="3.59065">
        <ele>575</ele>
        <time>2019-07-10T15:06:11Z</time>
      </trkpt>
    </trkseg>
  </trk>
</gpx>